<?xml version="1.0" encoding="UTF-8" standalone="no" ?>
<gpx xmlns="http://www.topografix.com/GPX/1/1" xmlns:xsi="http://www.w3.org/2001/XMLSchema-instance" xsi:schemaLocation="http://www.topografix.com/GPX/1/1 http://www.topografix.com/GPX/1/1/gpx.xsd" version="1.1" creator="VisuGPX - https://www.visugpx.com">
  <metadata>
    <name>Tour Vercors etape 5/5</name>
  </metadata>
  <trk>
    <name><![CDATA[Tour Vercors etape 5/5_1]]></name>
    <trkseg>
      <trkpt lat="45.03131" lon="5.52667">
        <ele>1107</ele>
        <time>2021-10-10T07:34:25Z</time>
      </trkpt>
      <trkpt lat="45.03133" lon="5.52667">
        <ele>1106.8</ele>
        <time>2021-10-10T07:34:26Z</time>
      </trkpt>
      <trkpt lat="45.03135" lon="5.52667">
        <ele>1106.8</ele>
        <time>2021-10-10T07:34:27Z</time>
      </trkpt>
      <trkpt lat="45.03138" lon="5.5267">
        <ele>1106.8</ele>
        <time>2021-10-10T07:34:28Z</time>
      </trkpt>
      <trkpt lat="45.0314" lon="5.52672">
        <ele>1107.2</ele>
        <time>2021-10-10T07:34:29Z</time>
      </trkpt>
      <trkpt lat="45.03141" lon="5.52674">
        <ele>1107.2</ele>
        <time>2021-10-10T07:34:30Z</time>
      </trkpt>
      <trkpt lat="45.03143" lon="5.52677">
        <ele>1107.2</ele>
        <time>2021-10-10T07:34:31Z</time>
      </trkpt>
      <trkpt lat="45.03145" lon="5.5268">
        <ele>1107.2</ele>
        <time>2021-10-10T07:34:32Z</time>
      </trkpt>
      <trkpt lat="45.03147" lon="5.52682">
        <ele>1107.2</ele>
        <time>2021-10-10T07:34:33Z</time>
      </trkpt>
      <trkpt lat="45.03148" lon="5.52685">
        <ele>1107</ele>
        <time>2021-10-10T07:34:34Z</time>
      </trkpt>
      <trkpt lat="45.0315" lon="5.52686">
        <ele>1107</ele>
        <time>2021-10-10T07:34:35Z</time>
      </trkpt>
      <trkpt lat="45.0315" lon="5.52688">
        <ele>1107</ele>
        <time>2021-10-10T07:34:36Z</time>
      </trkpt>
      <trkpt lat="45.03151" lon="5.52689">
        <ele>1107</ele>
        <time>2021-10-10T07:34:37Z</time>
      </trkpt>
      <trkpt lat="45.03152" lon="5.5269">
        <ele>1106.8</ele>
        <time>2021-10-10T07:34:38Z</time>
      </trkpt>
      <trkpt lat="45.03153" lon="5.52691">
        <ele>1106.8</ele>
        <time>2021-10-10T07:34:39Z</time>
      </trkpt>
      <trkpt lat="45.03155" lon="5.52692">
        <ele>1106.8</ele>
        <time>2021-10-10T07:34:40Z</time>
      </trkpt>
      <trkpt lat="45.03156" lon="5.52693">
        <ele>1106.8</ele>
        <time>2021-10-10T07:34:41Z</time>
      </trkpt>
      <trkpt lat="45.03157" lon="5.52694">
        <ele>1107</ele>
        <time>2021-10-10T07:34:42Z</time>
      </trkpt>
      <trkpt lat="45.03157" lon="5.52696">
        <ele>1107</ele>
        <time>2021-10-10T07:34:43Z</time>
      </trkpt>
      <trkpt lat="45.0316" lon="5.527">
        <ele>1106.2</ele>
        <time>2021-10-10T07:35:01Z</time>
      </trkpt>
      <trkpt lat="45.03162" lon="5.52702">
        <ele>1105.8</ele>
        <time>2021-10-10T07:35:02Z</time>
      </trkpt>
      <trkpt lat="45.03164" lon="5.52705">
        <ele>1105.8</ele>
        <time>2021-10-10T07:35:03Z</time>
      </trkpt>
      <trkpt lat="45.03165" lon="5.52708">
        <ele>1105.8</ele>
        <time>2021-10-10T07:35:04Z</time>
      </trkpt>
      <trkpt lat="45.03168" lon="5.52712">
        <ele>1105.8</ele>
        <time>2021-10-10T07:35:05Z</time>
      </trkpt>
      <trkpt lat="45.03171" lon="5.52716">
        <ele>1105.8</ele>
        <time>2021-10-10T07:35:06Z</time>
      </trkpt>
      <trkpt lat="45.03174" lon="5.5272">
        <ele>1105.8</ele>
        <time>2021-10-10T07:35:07Z</time>
      </trkpt>
      <trkpt lat="45.03178" lon="5.52723">
        <ele>1105.8</ele>
        <time>2021-10-10T07:35:08Z</time>
      </trkpt>
      <trkpt lat="45.03181" lon="5.52726">
        <ele>1105</ele>
        <time>2021-10-10T07:35:09Z</time>
      </trkpt>
      <trkpt lat="45.03185" lon="5.52728">
        <ele>1105</ele>
        <time>2021-10-10T07:35:10Z</time>
      </trkpt>
      <trkpt lat="45.03189" lon="5.5273">
        <ele>1105</ele>
        <time>2021-10-10T07:35:11Z</time>
      </trkpt>
      <trkpt lat="45.03192" lon="5.52732">
        <ele>1105</ele>
        <time>2021-10-10T07:35:12Z</time>
      </trkpt>
      <trkpt lat="45.03196" lon="5.52734">
        <ele>1105</ele>
        <time>2021-10-10T07:35:13Z</time>
      </trkpt>
      <trkpt lat="45.032" lon="5.52736">
        <ele>1104</ele>
        <time>2021-10-10T07:35:14Z</time>
      </trkpt>
      <trkpt lat="45.03204" lon="5.52739">
        <ele>1104</ele>
        <time>2021-10-10T07:35:15Z</time>
      </trkpt>
      <trkpt lat="45.03209" lon="5.52741">
        <ele>1104</ele>
        <time>2021-10-10T07:35:16Z</time>
      </trkpt>
      <trkpt lat="45.03214" lon="5.52743">
        <ele>1103.2</ele>
        <time>2021-10-10T07:35:17Z</time>
      </trkpt>
      <trkpt lat="45.0322" lon="5.52745">
        <ele>1102.2</ele>
        <time>2021-10-10T07:35:18Z</time>
      </trkpt>
      <trkpt lat="45.03226" lon="5.52746">
        <ele>1102.2</ele>
        <time>2021-10-10T07:35:19Z</time>
      </trkpt>
      <trkpt lat="45.03232" lon="5.52746">
        <ele>1102.2</ele>
        <time>2021-10-10T07:35:20Z</time>
      </trkpt>
      <trkpt lat="45.03239" lon="5.52746">
        <ele>1101.2</ele>
        <time>2021-10-10T07:35:21Z</time>
      </trkpt>
      <trkpt lat="45.03246" lon="5.52746">
        <ele>1100.2</ele>
        <time>2021-10-10T07:35:22Z</time>
      </trkpt>
      <trkpt lat="45.03254" lon="5.52746">
        <ele>1100.2</ele>
        <time>2021-10-10T07:35:23Z</time>
      </trkpt>
      <trkpt lat="45.03261" lon="5.52747">
        <ele>1100.2</ele>
        <time>2021-10-10T07:35:24Z</time>
      </trkpt>
      <trkpt lat="45.03269" lon="5.52749">
        <ele>1099.2</ele>
        <time>2021-10-10T07:35:25Z</time>
      </trkpt>
      <trkpt lat="45.03276" lon="5.52753">
        <ele>1098</ele>
        <time>2021-10-10T07:35:26Z</time>
      </trkpt>
      <trkpt lat="45.03284" lon="5.52758">
        <ele>1098</ele>
        <time>2021-10-10T07:35:27Z</time>
      </trkpt>
      <trkpt lat="45.0329" lon="5.52764">
        <ele>1098</ele>
        <time>2021-10-10T07:35:28Z</time>
      </trkpt>
      <trkpt lat="45.03297" lon="5.52773">
        <ele>1097</ele>
        <time>2021-10-10T07:35:29Z</time>
      </trkpt>
      <trkpt lat="45.03302" lon="5.52782">
        <ele>1096.2</ele>
        <time>2021-10-10T07:35:30Z</time>
      </trkpt>
      <trkpt lat="45.03306" lon="5.52792">
        <ele>1096.2</ele>
        <time>2021-10-10T07:35:31Z</time>
      </trkpt>
      <trkpt lat="45.03309" lon="5.52803">
        <ele>1096.2</ele>
        <time>2021-10-10T07:35:32Z</time>
      </trkpt>
      <trkpt lat="45.03312" lon="5.52814">
        <ele>1096.2</ele>
        <time>2021-10-10T07:35:33Z</time>
      </trkpt>
      <trkpt lat="45.03314" lon="5.52825">
        <ele>1096.6</ele>
        <time>2021-10-10T07:35:34Z</time>
      </trkpt>
      <trkpt lat="45.03315" lon="5.52836">
        <ele>1096.6</ele>
        <time>2021-10-10T07:35:35Z</time>
      </trkpt>
      <trkpt lat="45.03316" lon="5.52847">
        <ele>1096.6</ele>
        <time>2021-10-10T07:35:36Z</time>
      </trkpt>
      <trkpt lat="45.03317" lon="5.52858">
        <ele>1096.2</ele>
        <time>2021-10-10T07:35:37Z</time>
      </trkpt>
      <trkpt lat="45.03317" lon="5.52869">
        <ele>1095.8</ele>
        <time>2021-10-10T07:35:38Z</time>
      </trkpt>
      <trkpt lat="45.03318" lon="5.52879">
        <ele>1095.8</ele>
        <time>2021-10-10T07:35:39Z</time>
      </trkpt>
      <trkpt lat="45.0332" lon="5.5289">
        <ele>1095.8</ele>
        <time>2021-10-10T07:35:40Z</time>
      </trkpt>
      <trkpt lat="45.03321" lon="5.529">
        <ele>1095.6</ele>
        <time>2021-10-10T07:35:41Z</time>
      </trkpt>
      <trkpt lat="45.03323" lon="5.5291">
        <ele>1095.2</ele>
        <time>2021-10-10T07:35:42Z</time>
      </trkpt>
      <trkpt lat="45.03324" lon="5.52921">
        <ele>1095.2</ele>
        <time>2021-10-10T07:35:43Z</time>
      </trkpt>
      <trkpt lat="45.03325" lon="5.52932">
        <ele>1095.2</ele>
        <time>2021-10-10T07:35:44Z</time>
      </trkpt>
      <trkpt lat="45.03326" lon="5.52942">
        <ele>1094.4</ele>
        <time>2021-10-10T07:35:45Z</time>
      </trkpt>
      <trkpt lat="45.03326" lon="5.52953">
        <ele>1093.8</ele>
        <time>2021-10-10T07:35:46Z</time>
      </trkpt>
      <trkpt lat="45.03326" lon="5.52964">
        <ele>1093.8</ele>
        <time>2021-10-10T07:35:47Z</time>
      </trkpt>
      <trkpt lat="45.03326" lon="5.52975">
        <ele>1093.8</ele>
        <time>2021-10-10T07:35:48Z</time>
      </trkpt>
      <trkpt lat="45.03325" lon="5.52986">
        <ele>1093.8</ele>
        <time>2021-10-10T07:35:49Z</time>
      </trkpt>
      <trkpt lat="45.03325" lon="5.52997">
        <ele>1093.4</ele>
        <time>2021-10-10T07:35:50Z</time>
      </trkpt>
      <trkpt lat="45.03324" lon="5.53008">
        <ele>1093.4</ele>
        <time>2021-10-10T07:35:51Z</time>
      </trkpt>
      <trkpt lat="45.03324" lon="5.53019">
        <ele>1093.4</ele>
        <time>2021-10-10T07:35:52Z</time>
      </trkpt>
      <trkpt lat="45.03324" lon="5.53031">
        <ele>1093.4</ele>
        <time>2021-10-10T07:35:53Z</time>
      </trkpt>
      <trkpt lat="45.03324" lon="5.53042">
        <ele>1093.6</ele>
        <time>2021-10-10T07:35:54Z</time>
      </trkpt>
      <trkpt lat="45.03325" lon="5.53052">
        <ele>1093.6</ele>
        <time>2021-10-10T07:35:55Z</time>
      </trkpt>
      <trkpt lat="45.03325" lon="5.53063">
        <ele>1093.6</ele>
        <time>2021-10-10T07:35:56Z</time>
      </trkpt>
      <trkpt lat="45.03327" lon="5.53073">
        <ele>1093.6</ele>
        <time>2021-10-10T07:35:57Z</time>
      </trkpt>
      <trkpt lat="45.03328" lon="5.53083">
        <ele>1094.4</ele>
        <time>2021-10-10T07:35:58Z</time>
      </trkpt>
      <trkpt lat="45.0333" lon="5.53093">
        <ele>1094.4</ele>
        <time>2021-10-10T07:35:59Z</time>
      </trkpt>
      <trkpt lat="45.03331" lon="5.53103">
        <ele>1094.4</ele>
        <time>2021-10-10T07:36:00Z</time>
      </trkpt>
      <trkpt lat="45.03333" lon="5.53112">
        <ele>1094.4</ele>
        <time>2021-10-10T07:36:01Z</time>
      </trkpt>
      <trkpt lat="45.03334" lon="5.53121">
        <ele>1095</ele>
        <time>2021-10-10T07:36:02Z</time>
      </trkpt>
      <trkpt lat="45.03335" lon="5.5313">
        <ele>1095</ele>
        <time>2021-10-10T07:36:03Z</time>
      </trkpt>
      <trkpt lat="45.03337" lon="5.53138">
        <ele>1095</ele>
        <time>2021-10-10T07:36:04Z</time>
      </trkpt>
      <trkpt lat="45.03338" lon="5.53147">
        <ele>1095</ele>
        <time>2021-10-10T07:36:05Z</time>
      </trkpt>
      <trkpt lat="45.03339" lon="5.53155">
        <ele>1094.8</ele>
        <time>2021-10-10T07:36:06Z</time>
      </trkpt>
      <trkpt lat="45.03341" lon="5.53163">
        <ele>1094.8</ele>
        <time>2021-10-10T07:36:07Z</time>
      </trkpt>
      <trkpt lat="45.03342" lon="5.53172">
        <ele>1094.8</ele>
        <time>2021-10-10T07:36:08Z</time>
      </trkpt>
      <trkpt lat="45.03344" lon="5.5318">
        <ele>1094.4</ele>
        <time>2021-10-10T07:36:09Z</time>
      </trkpt>
      <trkpt lat="45.03346" lon="5.53188">
        <ele>1094.4</ele>
        <time>2021-10-10T07:36:10Z</time>
      </trkpt>
      <trkpt lat="45.03348" lon="5.53196">
        <ele>1094.4</ele>
        <time>2021-10-10T07:36:11Z</time>
      </trkpt>
      <trkpt lat="45.03351" lon="5.53203">
        <ele>1094.4</ele>
        <time>2021-10-10T07:36:12Z</time>
      </trkpt>
      <trkpt lat="45.03354" lon="5.53211">
        <ele>1093.4</ele>
        <time>2021-10-10T07:36:13Z</time>
      </trkpt>
      <trkpt lat="45.03358" lon="5.53218">
        <ele>1093.4</ele>
        <time>2021-10-10T07:36:14Z</time>
      </trkpt>
      <trkpt lat="45.03361" lon="5.53225">
        <ele>1093.4</ele>
        <time>2021-10-10T07:36:15Z</time>
      </trkpt>
      <trkpt lat="45.03365" lon="5.53232">
        <ele>1093.4</ele>
        <time>2021-10-10T07:36:16Z</time>
      </trkpt>
      <trkpt lat="45.03368" lon="5.53239">
        <ele>1093</ele>
        <time>2021-10-10T07:36:17Z</time>
      </trkpt>
      <trkpt lat="45.03371" lon="5.53246">
        <ele>1092.8</ele>
        <time>2021-10-10T07:36:18Z</time>
      </trkpt>
      <trkpt lat="45.03375" lon="5.53253">
        <ele>1092.8</ele>
        <time>2021-10-10T07:36:19Z</time>
      </trkpt>
      <trkpt lat="45.03379" lon="5.53259">
        <ele>1092.8</ele>
        <time>2021-10-10T07:36:20Z</time>
      </trkpt>
      <trkpt lat="45.03383" lon="5.53264">
        <ele>1092.8</ele>
        <time>2021-10-10T07:36:21Z</time>
      </trkpt>
      <trkpt lat="45.03387" lon="5.5327">
        <ele>1092.6</ele>
        <time>2021-10-10T07:36:22Z</time>
      </trkpt>
      <trkpt lat="45.0339" lon="5.53276">
        <ele>1092.6</ele>
        <time>2021-10-10T07:36:23Z</time>
      </trkpt>
      <trkpt lat="45.03395" lon="5.53282">
        <ele>1092.6</ele>
        <time>2021-10-10T07:36:24Z</time>
      </trkpt>
      <trkpt lat="45.03399" lon="5.53287">
        <ele>1092.2</ele>
        <time>2021-10-10T07:36:25Z</time>
      </trkpt>
      <trkpt lat="45.03403" lon="5.53291">
        <ele>1092.4</ele>
        <time>2021-10-10T07:36:26Z</time>
      </trkpt>
      <trkpt lat="45.03408" lon="5.53296">
        <ele>1092.4</ele>
        <time>2021-10-10T07:36:27Z</time>
      </trkpt>
      <trkpt lat="45.03412" lon="5.53299">
        <ele>1092.4</ele>
        <time>2021-10-10T07:36:28Z</time>
      </trkpt>
      <trkpt lat="45.03417" lon="5.53304">
        <ele>1092.2</ele>
        <time>2021-10-10T07:36:29Z</time>
      </trkpt>
      <trkpt lat="45.03422" lon="5.53307">
        <ele>1092.2</ele>
        <time>2021-10-10T07:36:30Z</time>
      </trkpt>
      <trkpt lat="45.03426" lon="5.53311">
        <ele>1092.2</ele>
        <time>2021-10-10T07:36:31Z</time>
      </trkpt>
      <trkpt lat="45.03431" lon="5.53315">
        <ele>1092.2</ele>
        <time>2021-10-10T07:36:32Z</time>
      </trkpt>
      <trkpt lat="45.03436" lon="5.53318">
        <ele>1091.6</ele>
        <time>2021-10-10T07:36:33Z</time>
      </trkpt>
      <trkpt lat="45.03441" lon="5.53322">
        <ele>1091.6</ele>
        <time>2021-10-10T07:36:34Z</time>
      </trkpt>
      <trkpt lat="45.03446" lon="5.53326">
        <ele>1091.6</ele>
        <time>2021-10-10T07:36:35Z</time>
      </trkpt>
      <trkpt lat="45.03451" lon="5.53329">
        <ele>1091.6</ele>
        <time>2021-10-10T07:36:36Z</time>
      </trkpt>
      <trkpt lat="45.03456" lon="5.53333">
        <ele>1091.2</ele>
        <time>2021-10-10T07:36:37Z</time>
      </trkpt>
      <trkpt lat="45.03461" lon="5.53336">
        <ele>1090.8</ele>
        <time>2021-10-10T07:36:38Z</time>
      </trkpt>
      <trkpt lat="45.03466" lon="5.5334">
        <ele>1090.8</ele>
        <time>2021-10-10T07:36:39Z</time>
      </trkpt>
      <trkpt lat="45.03471" lon="5.53344">
        <ele>1090.8</ele>
        <time>2021-10-10T07:36:40Z</time>
      </trkpt>
      <trkpt lat="45.03476" lon="5.53347">
        <ele>1090.8</ele>
        <time>2021-10-10T07:36:41Z</time>
      </trkpt>
      <trkpt lat="45.03482" lon="5.5335">
        <ele>1091</ele>
        <time>2021-10-10T07:36:42Z</time>
      </trkpt>
      <trkpt lat="45.03487" lon="5.53352">
        <ele>1091</ele>
        <time>2021-10-10T07:36:43Z</time>
      </trkpt>
      <trkpt lat="45.03493" lon="5.53354">
        <ele>1091</ele>
        <time>2021-10-10T07:36:44Z</time>
      </trkpt>
      <trkpt lat="45.03498" lon="5.53355">
        <ele>1090.4</ele>
        <time>2021-10-10T07:36:45Z</time>
      </trkpt>
      <trkpt lat="45.03503" lon="5.53357">
        <ele>1090.2</ele>
        <time>2021-10-10T07:36:46Z</time>
      </trkpt>
      <trkpt lat="45.03509" lon="5.53359">
        <ele>1090.2</ele>
        <time>2021-10-10T07:36:47Z</time>
      </trkpt>
      <trkpt lat="45.03514" lon="5.5336">
        <ele>1090.2</ele>
        <time>2021-10-10T07:36:48Z</time>
      </trkpt>
      <trkpt lat="45.03519" lon="5.53361">
        <ele>1089.8</ele>
        <time>2021-10-10T07:36:49Z</time>
      </trkpt>
      <trkpt lat="45.03524" lon="5.53362">
        <ele>1089.6</ele>
        <time>2021-10-10T07:36:50Z</time>
      </trkpt>
      <trkpt lat="45.03529" lon="5.53363">
        <ele>1089.6</ele>
        <time>2021-10-10T07:36:51Z</time>
      </trkpt>
      <trkpt lat="45.03535" lon="5.53365">
        <ele>1089.6</ele>
        <time>2021-10-10T07:36:52Z</time>
      </trkpt>
      <trkpt lat="45.0354" lon="5.53366">
        <ele>1089.6</ele>
        <time>2021-10-10T07:36:53Z</time>
      </trkpt>
      <trkpt lat="45.03545" lon="5.53367">
        <ele>1089.6</ele>
        <time>2021-10-10T07:36:54Z</time>
      </trkpt>
      <trkpt lat="45.0355" lon="5.53369">
        <ele>1089.6</ele>
        <time>2021-10-10T07:36:55Z</time>
      </trkpt>
      <trkpt lat="45.03555" lon="5.5337">
        <ele>1089.6</ele>
        <time>2021-10-10T07:36:56Z</time>
      </trkpt>
      <trkpt lat="45.03559" lon="5.53371">
        <ele>1090.2</ele>
        <time>2021-10-10T07:36:57Z</time>
      </trkpt>
      <trkpt lat="45.03563" lon="5.53372">
        <ele>1090.4</ele>
        <time>2021-10-10T07:36:58Z</time>
      </trkpt>
      <trkpt lat="45.03567" lon="5.53373">
        <ele>1090.4</ele>
        <time>2021-10-10T07:36:59Z</time>
      </trkpt>
      <trkpt lat="45.0357" lon="5.53374">
        <ele>1090.4</ele>
        <time>2021-10-10T07:37:00Z</time>
      </trkpt>
      <trkpt lat="45.03574" lon="5.53375">
        <ele>1090.2</ele>
        <time>2021-10-10T07:37:01Z</time>
      </trkpt>
      <trkpt lat="45.03577" lon="5.53375">
        <ele>1090.2</ele>
        <time>2021-10-10T07:37:02Z</time>
      </trkpt>
      <trkpt lat="45.03581" lon="5.53376">
        <ele>1090.2</ele>
        <time>2021-10-10T07:37:03Z</time>
      </trkpt>
      <trkpt lat="45.03583" lon="5.53377">
        <ele>1090.2</ele>
        <time>2021-10-10T07:37:04Z</time>
      </trkpt>
      <trkpt lat="45.03585" lon="5.53377">
        <ele>1091</ele>
        <time>2021-10-10T07:37:05Z</time>
      </trkpt>
      <trkpt lat="45.03586" lon="5.53378">
        <ele>1091</ele>
        <time>2021-10-10T07:37:06Z</time>
      </trkpt>
      <trkpt lat="45.03587" lon="5.53378">
        <ele>1091</ele>
        <time>2021-10-10T07:37:07Z</time>
      </trkpt>
      <trkpt lat="45.03587" lon="5.53379">
        <ele>1091</ele>
        <time>2021-10-10T07:37:08Z</time>
      </trkpt>
      <trkpt lat="45.03589" lon="5.53379">
        <ele>1090.8</ele>
        <time>2021-10-10T07:37:18Z</time>
      </trkpt>
      <trkpt lat="45.0359" lon="5.5338">
        <ele>1090.8</ele>
        <time>2021-10-10T07:37:19Z</time>
      </trkpt>
      <trkpt lat="45.03593" lon="5.53381">
        <ele>1090.8</ele>
        <time>2021-10-10T07:37:20Z</time>
      </trkpt>
      <trkpt lat="45.03595" lon="5.53381">
        <ele>1090.8</ele>
        <time>2021-10-10T07:37:21Z</time>
      </trkpt>
      <trkpt lat="45.03598" lon="5.53382">
        <ele>1090.2</ele>
        <time>2021-10-10T07:37:22Z</time>
      </trkpt>
      <trkpt lat="45.03601" lon="5.53383">
        <ele>1090.2</ele>
        <time>2021-10-10T07:37:23Z</time>
      </trkpt>
      <trkpt lat="45.03604" lon="5.53384">
        <ele>1090.2</ele>
        <time>2021-10-10T07:37:24Z</time>
      </trkpt>
      <trkpt lat="45.03607" lon="5.53386">
        <ele>1089.8</ele>
        <time>2021-10-10T07:37:25Z</time>
      </trkpt>
      <trkpt lat="45.03611" lon="5.53387">
        <ele>1089.6</ele>
        <time>2021-10-10T07:37:26Z</time>
      </trkpt>
      <trkpt lat="45.03614" lon="5.53389">
        <ele>1089.6</ele>
        <time>2021-10-10T07:37:27Z</time>
      </trkpt>
      <trkpt lat="45.03618" lon="5.5339">
        <ele>1089.6</ele>
        <time>2021-10-10T07:37:28Z</time>
      </trkpt>
      <trkpt lat="45.03621" lon="5.53392">
        <ele>1089.6</ele>
        <time>2021-10-10T07:37:29Z</time>
      </trkpt>
      <trkpt lat="45.03625" lon="5.53393">
        <ele>1090</ele>
        <time>2021-10-10T07:37:30Z</time>
      </trkpt>
      <trkpt lat="45.03628" lon="5.53395">
        <ele>1090</ele>
        <time>2021-10-10T07:37:31Z</time>
      </trkpt>
      <trkpt lat="45.03631" lon="5.53397">
        <ele>1090</ele>
        <time>2021-10-10T07:37:32Z</time>
      </trkpt>
      <trkpt lat="45.03634" lon="5.53399">
        <ele>1089</ele>
        <time>2021-10-10T07:37:33Z</time>
      </trkpt>
      <trkpt lat="45.03638" lon="5.53402">
        <ele>1089.2</ele>
        <time>2021-10-10T07:37:34Z</time>
      </trkpt>
      <trkpt lat="45.03641" lon="5.53406">
        <ele>1089.2</ele>
        <time>2021-10-10T07:37:35Z</time>
      </trkpt>
      <trkpt lat="45.03644" lon="5.5341">
        <ele>1089.2</ele>
        <time>2021-10-10T07:37:36Z</time>
      </trkpt>
      <trkpt lat="45.03648" lon="5.53414">
        <ele>1089.2</ele>
        <time>2021-10-10T07:37:37Z</time>
      </trkpt>
      <trkpt lat="45.03651" lon="5.53418">
        <ele>1089.6</ele>
        <time>2021-10-10T07:37:38Z</time>
      </trkpt>
      <trkpt lat="45.03654" lon="5.53423">
        <ele>1089.6</ele>
        <time>2021-10-10T07:37:39Z</time>
      </trkpt>
      <trkpt lat="45.03656" lon="5.53427">
        <ele>1089.6</ele>
        <time>2021-10-10T07:37:40Z</time>
      </trkpt>
      <trkpt lat="45.03658" lon="5.53432">
        <ele>1090.2</ele>
        <time>2021-10-10T07:37:41Z</time>
      </trkpt>
      <trkpt lat="45.03659" lon="5.53435">
        <ele>1090.6</ele>
        <time>2021-10-10T07:37:42Z</time>
      </trkpt>
      <trkpt lat="45.03661" lon="5.53438">
        <ele>1090.6</ele>
        <time>2021-10-10T07:37:43Z</time>
      </trkpt>
      <trkpt lat="45.03663" lon="5.5344">
        <ele>1090.6</ele>
        <time>2021-10-10T07:37:44Z</time>
      </trkpt>
      <trkpt lat="45.03664" lon="5.53443">
        <ele>1090.6</ele>
        <time>2021-10-10T07:37:45Z</time>
      </trkpt>
      <trkpt lat="45.03666" lon="5.53445">
        <ele>1090.6</ele>
        <time>2021-10-10T07:37:46Z</time>
      </trkpt>
      <trkpt lat="45.03668" lon="5.53448">
        <ele>1090.6</ele>
        <time>2021-10-10T07:37:47Z</time>
      </trkpt>
      <trkpt lat="45.03669" lon="5.5345">
        <ele>1090.6</ele>
        <time>2021-10-10T07:37:48Z</time>
      </trkpt>
      <trkpt lat="45.0367" lon="5.53453">
        <ele>1091</ele>
        <time>2021-10-10T07:37:49Z</time>
      </trkpt>
      <trkpt lat="45.03671" lon="5.53455">
        <ele>1091.2</ele>
        <time>2021-10-10T07:37:50Z</time>
      </trkpt>
      <trkpt lat="45.03672" lon="5.53458">
        <ele>1091.2</ele>
        <time>2021-10-10T07:37:51Z</time>
      </trkpt>
      <trkpt lat="45.03673" lon="5.5346">
        <ele>1091.2</ele>
        <time>2021-10-10T07:37:52Z</time>
      </trkpt>
      <trkpt lat="45.03674" lon="5.53462">
        <ele>1091.2</ele>
        <time>2021-10-10T07:37:53Z</time>
      </trkpt>
      <trkpt lat="45.03675" lon="5.53463">
        <ele>1091.2</ele>
        <time>2021-10-10T07:37:54Z</time>
      </trkpt>
      <trkpt lat="45.03676" lon="5.53465">
        <ele>1091.2</ele>
        <time>2021-10-10T07:37:55Z</time>
      </trkpt>
      <trkpt lat="45.03676" lon="5.53466">
        <ele>1091.2</ele>
        <time>2021-10-10T07:37:56Z</time>
      </trkpt>
      <trkpt lat="45.03677" lon="5.53468">
        <ele>1091.2</ele>
        <time>2021-10-10T07:37:57Z</time>
      </trkpt>
      <trkpt lat="45.03678" lon="5.53469">
        <ele>1092</ele>
        <time>2021-10-10T07:37:58Z</time>
      </trkpt>
      <trkpt lat="45.03678" lon="5.53468">
        <ele>1091.6</ele>
        <time>2021-10-10T07:39:12Z</time>
      </trkpt>
      <trkpt lat="45.03678" lon="5.53469">
        <ele>1090.8</ele>
        <time>2021-10-10T07:39:13Z</time>
      </trkpt>
      <trkpt lat="45.03679" lon="5.5347">
        <ele>1090.6</ele>
        <time>2021-10-10T07:39:14Z</time>
      </trkpt>
      <trkpt lat="45.03681" lon="5.53473">
        <ele>1090.6</ele>
        <time>2021-10-10T07:39:15Z</time>
      </trkpt>
      <trkpt lat="45.03683" lon="5.53476">
        <ele>1090.6</ele>
        <time>2021-10-10T07:39:16Z</time>
      </trkpt>
      <trkpt lat="45.03685" lon="5.53478">
        <ele>1091.2</ele>
        <time>2021-10-10T07:39:17Z</time>
      </trkpt>
      <trkpt lat="45.03687" lon="5.53481">
        <ele>1091</ele>
        <time>2021-10-10T07:39:18Z</time>
      </trkpt>
      <trkpt lat="45.03689" lon="5.53484">
        <ele>1091</ele>
        <time>2021-10-10T07:39:19Z</time>
      </trkpt>
      <trkpt lat="45.03691" lon="5.53487">
        <ele>1091</ele>
        <time>2021-10-10T07:39:20Z</time>
      </trkpt>
      <trkpt lat="45.03693" lon="5.53491">
        <ele>1091</ele>
        <time>2021-10-10T07:39:21Z</time>
      </trkpt>
      <trkpt lat="45.03696" lon="5.53495">
        <ele>1090.8</ele>
        <time>2021-10-10T07:39:22Z</time>
      </trkpt>
      <trkpt lat="45.03698" lon="5.53499">
        <ele>1090.8</ele>
        <time>2021-10-10T07:39:23Z</time>
      </trkpt>
      <trkpt lat="45.03701" lon="5.53503">
        <ele>1090.8</ele>
        <time>2021-10-10T07:39:24Z</time>
      </trkpt>
      <trkpt lat="45.03705" lon="5.53506">
        <ele>1091.4</ele>
        <time>2021-10-10T07:39:25Z</time>
      </trkpt>
      <trkpt lat="45.03708" lon="5.5351">
        <ele>1091.2</ele>
        <time>2021-10-10T07:39:26Z</time>
      </trkpt>
      <trkpt lat="45.03711" lon="5.53513">
        <ele>1091.2</ele>
        <time>2021-10-10T07:39:27Z</time>
      </trkpt>
      <trkpt lat="45.03714" lon="5.53516">
        <ele>1091.2</ele>
        <time>2021-10-10T07:39:28Z</time>
      </trkpt>
      <trkpt lat="45.03718" lon="5.53518">
        <ele>1091.2</ele>
        <time>2021-10-10T07:39:29Z</time>
      </trkpt>
      <trkpt lat="45.03721" lon="5.53521">
        <ele>1091.2</ele>
        <time>2021-10-10T07:39:30Z</time>
      </trkpt>
      <trkpt lat="45.03724" lon="5.53524">
        <ele>1091.2</ele>
        <time>2021-10-10T07:39:31Z</time>
      </trkpt>
      <trkpt lat="45.03728" lon="5.53527">
        <ele>1091.2</ele>
        <time>2021-10-10T07:39:32Z</time>
      </trkpt>
      <trkpt lat="45.03731" lon="5.5353">
        <ele>1091</ele>
        <time>2021-10-10T07:39:33Z</time>
      </trkpt>
      <trkpt lat="45.03735" lon="5.53533">
        <ele>1091.2</ele>
        <time>2021-10-10T07:39:34Z</time>
      </trkpt>
      <trkpt lat="45.03739" lon="5.53536">
        <ele>1091.2</ele>
        <time>2021-10-10T07:39:35Z</time>
      </trkpt>
      <trkpt lat="45.03742" lon="5.53539">
        <ele>1091.2</ele>
        <time>2021-10-10T07:39:36Z</time>
      </trkpt>
      <trkpt lat="45.03745" lon="5.53542">
        <ele>1091.2</ele>
        <time>2021-10-10T07:39:37Z</time>
      </trkpt>
      <trkpt lat="45.03749" lon="5.53545">
        <ele>1091.6</ele>
        <time>2021-10-10T07:39:38Z</time>
      </trkpt>
      <trkpt lat="45.03752" lon="5.53548">
        <ele>1091.6</ele>
        <time>2021-10-10T07:39:39Z</time>
      </trkpt>
      <trkpt lat="45.03756" lon="5.5355">
        <ele>1091.6</ele>
        <time>2021-10-10T07:39:40Z</time>
      </trkpt>
      <trkpt lat="45.03759" lon="5.53553">
        <ele>1091.6</ele>
        <time>2021-10-10T07:39:41Z</time>
      </trkpt>
      <trkpt lat="45.03763" lon="5.53556">
        <ele>1091.6</ele>
        <time>2021-10-10T07:39:42Z</time>
      </trkpt>
      <trkpt lat="45.03766" lon="5.53559">
        <ele>1091.6</ele>
        <time>2021-10-10T07:39:43Z</time>
      </trkpt>
      <trkpt lat="45.03769" lon="5.53561">
        <ele>1091.6</ele>
        <time>2021-10-10T07:39:44Z</time>
      </trkpt>
      <trkpt lat="45.03772" lon="5.53565">
        <ele>1091.6</ele>
        <time>2021-10-10T07:39:45Z</time>
      </trkpt>
      <trkpt lat="45.03776" lon="5.53568">
        <ele>1091.6</ele>
        <time>2021-10-10T07:39:46Z</time>
      </trkpt>
      <trkpt lat="45.03779" lon="5.53571">
        <ele>1091.6</ele>
        <time>2021-10-10T07:39:47Z</time>
      </trkpt>
      <trkpt lat="45.03782" lon="5.53575">
        <ele>1091.6</ele>
        <time>2021-10-10T07:39:48Z</time>
      </trkpt>
      <trkpt lat="45.03786" lon="5.53578">
        <ele>1091.6</ele>
        <time>2021-10-10T07:39:49Z</time>
      </trkpt>
      <trkpt lat="45.03789" lon="5.53581">
        <ele>1092</ele>
        <time>2021-10-10T07:39:50Z</time>
      </trkpt>
      <trkpt lat="45.03792" lon="5.53584">
        <ele>1092</ele>
        <time>2021-10-10T07:39:51Z</time>
      </trkpt>
      <trkpt lat="45.03795" lon="5.53587">
        <ele>1092</ele>
        <time>2021-10-10T07:39:52Z</time>
      </trkpt>
      <trkpt lat="45.03798" lon="5.53591">
        <ele>1092.2</ele>
        <time>2021-10-10T07:39:53Z</time>
      </trkpt>
      <trkpt lat="45.03801" lon="5.53594">
        <ele>1092.6</ele>
        <time>2021-10-10T07:39:54Z</time>
      </trkpt>
      <trkpt lat="45.03804" lon="5.53596">
        <ele>1092.6</ele>
        <time>2021-10-10T07:39:55Z</time>
      </trkpt>
      <trkpt lat="45.03807" lon="5.53599">
        <ele>1092.6</ele>
        <time>2021-10-10T07:39:56Z</time>
      </trkpt>
      <trkpt lat="45.03809" lon="5.53603">
        <ele>1092.4</ele>
        <time>2021-10-10T07:39:57Z</time>
      </trkpt>
      <trkpt lat="45.03812" lon="5.53606">
        <ele>1092.4</ele>
        <time>2021-10-10T07:39:58Z</time>
      </trkpt>
      <trkpt lat="45.03815" lon="5.53609">
        <ele>1092.4</ele>
        <time>2021-10-10T07:39:59Z</time>
      </trkpt>
      <trkpt lat="45.03818" lon="5.53613">
        <ele>1092.4</ele>
        <time>2021-10-10T07:40:00Z</time>
      </trkpt>
      <trkpt lat="45.03821" lon="5.53617">
        <ele>1091.6</ele>
        <time>2021-10-10T07:40:01Z</time>
      </trkpt>
      <trkpt lat="45.03825" lon="5.5362">
        <ele>1092.2</ele>
        <time>2021-10-10T07:40:02Z</time>
      </trkpt>
      <trkpt lat="45.03828" lon="5.53624">
        <ele>1092.2</ele>
        <time>2021-10-10T07:40:03Z</time>
      </trkpt>
      <trkpt lat="45.03831" lon="5.53628">
        <ele>1092.2</ele>
        <time>2021-10-10T07:40:04Z</time>
      </trkpt>
      <trkpt lat="45.03835" lon="5.53631">
        <ele>1091.6</ele>
        <time>2021-10-10T07:40:05Z</time>
      </trkpt>
      <trkpt lat="45.03838" lon="5.53635">
        <ele>1091.6</ele>
        <time>2021-10-10T07:40:06Z</time>
      </trkpt>
      <trkpt lat="45.03841" lon="5.53639">
        <ele>1091.6</ele>
        <time>2021-10-10T07:40:07Z</time>
      </trkpt>
      <trkpt lat="45.03844" lon="5.53642">
        <ele>1091.6</ele>
        <time>2021-10-10T07:40:08Z</time>
      </trkpt>
      <trkpt lat="45.03848" lon="5.53647">
        <ele>1091.2</ele>
        <time>2021-10-10T07:40:09Z</time>
      </trkpt>
      <trkpt lat="45.03852" lon="5.53651">
        <ele>1090.8</ele>
        <time>2021-10-10T07:40:10Z</time>
      </trkpt>
      <trkpt lat="45.03857" lon="5.53655">
        <ele>1090.8</ele>
        <time>2021-10-10T07:40:11Z</time>
      </trkpt>
      <trkpt lat="45.03861" lon="5.5366">
        <ele>1090.8</ele>
        <time>2021-10-10T07:40:12Z</time>
      </trkpt>
      <trkpt lat="45.03865" lon="5.53664">
        <ele>1090.8</ele>
        <time>2021-10-10T07:40:13Z</time>
      </trkpt>
      <trkpt lat="45.03869" lon="5.53668">
        <ele>1090.8</ele>
        <time>2021-10-10T07:40:14Z</time>
      </trkpt>
      <trkpt lat="45.03873" lon="5.53672">
        <ele>1090.8</ele>
        <time>2021-10-10T07:40:15Z</time>
      </trkpt>
      <trkpt lat="45.03876" lon="5.53676">
        <ele>1090.8</ele>
        <time>2021-10-10T07:40:16Z</time>
      </trkpt>
      <trkpt lat="45.03879" lon="5.5368">
        <ele>1091.8</ele>
        <time>2021-10-10T07:40:17Z</time>
      </trkpt>
      <trkpt lat="45.03882" lon="5.53684">
        <ele>1092.8</ele>
        <time>2021-10-10T07:40:18Z</time>
      </trkpt>
      <trkpt lat="45.03884" lon="5.53687">
        <ele>1092.8</ele>
        <time>2021-10-10T07:40:19Z</time>
      </trkpt>
      <trkpt lat="45.03886" lon="5.53689">
        <ele>1092.8</ele>
        <time>2021-10-10T07:40:20Z</time>
      </trkpt>
      <trkpt lat="45.03888" lon="5.53691">
        <ele>1093.8</ele>
        <time>2021-10-10T07:40:21Z</time>
      </trkpt>
      <trkpt lat="45.03889" lon="5.53693">
        <ele>1094.4</ele>
        <time>2021-10-10T07:40:22Z</time>
      </trkpt>
      <trkpt lat="45.03891" lon="5.53695">
        <ele>1094.4</ele>
        <time>2021-10-10T07:40:23Z</time>
      </trkpt>
      <trkpt lat="45.03892" lon="5.53696">
        <ele>1094.4</ele>
        <time>2021-10-10T07:40:24Z</time>
      </trkpt>
      <trkpt lat="45.03894" lon="5.53698">
        <ele>1094.4</ele>
        <time>2021-10-10T07:40:25Z</time>
      </trkpt>
      <trkpt lat="45.03895" lon="5.537">
        <ele>1094.6</ele>
        <time>2021-10-10T07:40:26Z</time>
      </trkpt>
      <trkpt lat="45.03897" lon="5.53702">
        <ele>1094.6</ele>
        <time>2021-10-10T07:40:27Z</time>
      </trkpt>
      <trkpt lat="45.03899" lon="5.53704">
        <ele>1094.6</ele>
        <time>2021-10-10T07:40:28Z</time>
      </trkpt>
      <trkpt lat="45.039" lon="5.53706">
        <ele>1095.6</ele>
        <time>2021-10-10T07:40:29Z</time>
      </trkpt>
      <trkpt lat="45.03902" lon="5.53707">
        <ele>1095.6</ele>
        <time>2021-10-10T07:40:30Z</time>
      </trkpt>
      <trkpt lat="45.03903" lon="5.53709">
        <ele>1095.6</ele>
        <time>2021-10-10T07:40:31Z</time>
      </trkpt>
      <trkpt lat="45.03904" lon="5.5371">
        <ele>1095.6</ele>
        <time>2021-10-10T07:40:32Z</time>
      </trkpt>
      <trkpt lat="45.03906" lon="5.53711">
        <ele>1095.6</ele>
        <time>2021-10-10T07:40:33Z</time>
      </trkpt>
      <trkpt lat="45.03908" lon="5.53712">
        <ele>1096.6</ele>
        <time>2021-10-10T07:40:34Z</time>
      </trkpt>
      <trkpt lat="45.03909" lon="5.53712">
        <ele>1096.6</ele>
        <time>2021-10-10T07:40:35Z</time>
      </trkpt>
      <trkpt lat="45.03911" lon="5.53713">
        <ele>1096.6</ele>
        <time>2021-10-10T07:40:36Z</time>
      </trkpt>
      <trkpt lat="45.03912" lon="5.53713">
        <ele>1096</ele>
        <time>2021-10-10T07:40:37Z</time>
      </trkpt>
      <trkpt lat="45.03914" lon="5.53714">
        <ele>1096.4</ele>
        <time>2021-10-10T07:40:38Z</time>
      </trkpt>
      <trkpt lat="45.03915" lon="5.53715">
        <ele>1096.4</ele>
        <time>2021-10-10T07:40:39Z</time>
      </trkpt>
      <trkpt lat="45.03917" lon="5.53716">
        <ele>1096.4</ele>
        <time>2021-10-10T07:40:40Z</time>
      </trkpt>
      <trkpt lat="45.03918" lon="5.53718">
        <ele>1097.2</ele>
        <time>2021-10-10T07:40:41Z</time>
      </trkpt>
      <trkpt lat="45.0392" lon="5.53719">
        <ele>1097.2</ele>
        <time>2021-10-10T07:40:42Z</time>
      </trkpt>
      <trkpt lat="45.03922" lon="5.5372">
        <ele>1097.2</ele>
        <time>2021-10-10T07:40:43Z</time>
      </trkpt>
      <trkpt lat="45.03924" lon="5.53722">
        <ele>1097.2</ele>
        <time>2021-10-10T07:40:44Z</time>
      </trkpt>
      <trkpt lat="45.03926" lon="5.53723">
        <ele>1098</ele>
        <time>2021-10-10T07:40:45Z</time>
      </trkpt>
      <trkpt lat="45.03927" lon="5.53724">
        <ele>1098.4</ele>
        <time>2021-10-10T07:40:46Z</time>
      </trkpt>
      <trkpt lat="45.03929" lon="5.53725">
        <ele>1098.4</ele>
        <time>2021-10-10T07:40:47Z</time>
      </trkpt>
      <trkpt lat="45.0393" lon="5.53727">
        <ele>1098.4</ele>
        <time>2021-10-10T07:40:48Z</time>
      </trkpt>
      <trkpt lat="45.03932" lon="5.53729">
        <ele>1098.4</ele>
        <time>2021-10-10T07:40:49Z</time>
      </trkpt>
      <trkpt lat="45.03933" lon="5.5373">
        <ele>1098.6</ele>
        <time>2021-10-10T07:40:50Z</time>
      </trkpt>
      <trkpt lat="45.03934" lon="5.53732">
        <ele>1098.6</ele>
        <time>2021-10-10T07:40:51Z</time>
      </trkpt>
      <trkpt lat="45.03936" lon="5.53733">
        <ele>1098.6</ele>
        <time>2021-10-10T07:40:52Z</time>
      </trkpt>
      <trkpt lat="45.03937" lon="5.53735">
        <ele>1099.4</ele>
        <time>2021-10-10T07:40:53Z</time>
      </trkpt>
      <trkpt lat="45.03939" lon="5.53737">
        <ele>1099.2</ele>
        <time>2021-10-10T07:40:54Z</time>
      </trkpt>
      <trkpt lat="45.0394" lon="5.53738">
        <ele>1099.2</ele>
        <time>2021-10-10T07:40:55Z</time>
      </trkpt>
      <trkpt lat="45.03942" lon="5.5374">
        <ele>1099.2</ele>
        <time>2021-10-10T07:40:56Z</time>
      </trkpt>
      <trkpt lat="45.03944" lon="5.53741">
        <ele>1099.2</ele>
        <time>2021-10-10T07:40:57Z</time>
      </trkpt>
      <trkpt lat="45.03945" lon="5.53742">
        <ele>1099.6</ele>
        <time>2021-10-10T07:40:58Z</time>
      </trkpt>
      <trkpt lat="45.03946" lon="5.53744">
        <ele>1099.6</ele>
        <time>2021-10-10T07:40:59Z</time>
      </trkpt>
      <trkpt lat="45.03946" lon="5.53746">
        <ele>1099.6</ele>
        <time>2021-10-10T07:41:00Z</time>
      </trkpt>
      <trkpt lat="45.03947" lon="5.53747">
        <ele>1099.6</ele>
        <time>2021-10-10T07:41:01Z</time>
      </trkpt>
      <trkpt lat="45.03949" lon="5.53749">
        <ele>1099.8</ele>
        <time>2021-10-10T07:41:02Z</time>
      </trkpt>
      <trkpt lat="45.03951" lon="5.53751">
        <ele>1099.8</ele>
        <time>2021-10-10T07:41:03Z</time>
      </trkpt>
      <trkpt lat="45.03952" lon="5.53754">
        <ele>1099.8</ele>
        <time>2021-10-10T07:41:04Z</time>
      </trkpt>
      <trkpt lat="45.03953" lon="5.53756">
        <ele>1100.4</ele>
        <time>2021-10-10T07:41:05Z</time>
      </trkpt>
      <trkpt lat="45.03954" lon="5.53757">
        <ele>1100.4</ele>
        <time>2021-10-10T07:41:06Z</time>
      </trkpt>
      <trkpt lat="45.03956" lon="5.53759">
        <ele>1100.4</ele>
        <time>2021-10-10T07:41:07Z</time>
      </trkpt>
      <trkpt lat="45.03958" lon="5.53761">
        <ele>1100.4</ele>
        <time>2021-10-10T07:41:08Z</time>
      </trkpt>
      <trkpt lat="45.03959" lon="5.53764">
        <ele>1100.4</ele>
        <time>2021-10-10T07:41:09Z</time>
      </trkpt>
      <trkpt lat="45.03961" lon="5.53767">
        <ele>1100.2</ele>
        <time>2021-10-10T07:41:10Z</time>
      </trkpt>
      <trkpt lat="45.03962" lon="5.5377">
        <ele>1100.2</ele>
        <time>2021-10-10T07:41:11Z</time>
      </trkpt>
      <trkpt lat="45.03964" lon="5.53773">
        <ele>1100.2</ele>
        <time>2021-10-10T07:41:12Z</time>
      </trkpt>
      <trkpt lat="45.03966" lon="5.53775">
        <ele>1099.8</ele>
        <time>2021-10-10T07:41:13Z</time>
      </trkpt>
      <trkpt lat="45.03968" lon="5.53778">
        <ele>1099.8</ele>
        <time>2021-10-10T07:41:14Z</time>
      </trkpt>
      <trkpt lat="45.0397" lon="5.53781">
        <ele>1099.8</ele>
        <time>2021-10-10T07:41:15Z</time>
      </trkpt>
      <trkpt lat="45.03971" lon="5.53783">
        <ele>1099.8</ele>
        <time>2021-10-10T07:41:16Z</time>
      </trkpt>
      <trkpt lat="45.03973" lon="5.53785">
        <ele>1099.8</ele>
        <time>2021-10-10T07:41:17Z</time>
      </trkpt>
      <trkpt lat="45.03975" lon="5.53787">
        <ele>1100</ele>
        <time>2021-10-10T07:41:18Z</time>
      </trkpt>
      <trkpt lat="45.03979" lon="5.5379">
        <ele>1100</ele>
        <time>2021-10-10T07:41:19Z</time>
      </trkpt>
      <trkpt lat="45.03982" lon="5.53793">
        <ele>1100</ele>
        <time>2021-10-10T07:41:20Z</time>
      </trkpt>
      <trkpt lat="45.03986" lon="5.53796">
        <ele>1101</ele>
        <time>2021-10-10T07:41:21Z</time>
      </trkpt>
      <trkpt lat="45.0399" lon="5.538">
        <ele>1101</ele>
        <time>2021-10-10T07:41:22Z</time>
      </trkpt>
      <trkpt lat="45.03994" lon="5.53803">
        <ele>1101</ele>
        <time>2021-10-10T07:41:23Z</time>
      </trkpt>
      <trkpt lat="45.03998" lon="5.53805">
        <ele>1101</ele>
        <time>2021-10-10T07:41:24Z</time>
      </trkpt>
      <trkpt lat="45.04001" lon="5.53807">
        <ele>1101</ele>
        <time>2021-10-10T07:41:25Z</time>
      </trkpt>
      <trkpt lat="45.04004" lon="5.5381">
        <ele>1101.4</ele>
        <time>2021-10-10T07:41:26Z</time>
      </trkpt>
      <trkpt lat="45.04009" lon="5.53812">
        <ele>1101.4</ele>
        <time>2021-10-10T07:41:27Z</time>
      </trkpt>
      <trkpt lat="45.04012" lon="5.53815">
        <ele>1101.4</ele>
        <time>2021-10-10T07:41:28Z</time>
      </trkpt>
      <trkpt lat="45.04015" lon="5.53818">
        <ele>1101.4</ele>
        <time>2021-10-10T07:41:29Z</time>
      </trkpt>
      <trkpt lat="45.04017" lon="5.5382">
        <ele>1101</ele>
        <time>2021-10-10T07:41:30Z</time>
      </trkpt>
      <trkpt lat="45.0402" lon="5.53822">
        <ele>1101</ele>
        <time>2021-10-10T07:41:31Z</time>
      </trkpt>
      <trkpt lat="45.04023" lon="5.53824">
        <ele>1101</ele>
        <time>2021-10-10T07:41:32Z</time>
      </trkpt>
      <trkpt lat="45.04026" lon="5.53827">
        <ele>1100.2</ele>
        <time>2021-10-10T07:41:33Z</time>
      </trkpt>
      <trkpt lat="45.04028" lon="5.53829">
        <ele>1099.8</ele>
        <time>2021-10-10T07:41:34Z</time>
      </trkpt>
      <trkpt lat="45.04032" lon="5.53832">
        <ele>1099.8</ele>
        <time>2021-10-10T07:41:35Z</time>
      </trkpt>
      <trkpt lat="45.04035" lon="5.53835">
        <ele>1099.8</ele>
        <time>2021-10-10T07:41:36Z</time>
      </trkpt>
      <trkpt lat="45.04038" lon="5.53838">
        <ele>1099.8</ele>
        <time>2021-10-10T07:41:37Z</time>
      </trkpt>
      <trkpt lat="45.04041" lon="5.53841">
        <ele>1099.2</ele>
        <time>2021-10-10T07:41:38Z</time>
      </trkpt>
      <trkpt lat="45.04045" lon="5.53845">
        <ele>1099.2</ele>
        <time>2021-10-10T07:41:39Z</time>
      </trkpt>
      <trkpt lat="45.04048" lon="5.53848">
        <ele>1099.2</ele>
        <time>2021-10-10T07:41:40Z</time>
      </trkpt>
      <trkpt lat="45.04052" lon="5.53851">
        <ele>1098.2</ele>
        <time>2021-10-10T07:41:41Z</time>
      </trkpt>
      <trkpt lat="45.04058" lon="5.53853">
        <ele>1097</ele>
        <time>2021-10-10T07:41:42Z</time>
      </trkpt>
      <trkpt lat="45.04064" lon="5.53855">
        <ele>1097</ele>
        <time>2021-10-10T07:41:43Z</time>
      </trkpt>
      <trkpt lat="45.04069" lon="5.53857">
        <ele>1097</ele>
        <time>2021-10-10T07:41:44Z</time>
      </trkpt>
      <trkpt lat="45.04074" lon="5.5386">
        <ele>1097.6</ele>
        <time>2021-10-10T07:41:45Z</time>
      </trkpt>
      <trkpt lat="45.04077" lon="5.53863">
        <ele>1097.4</ele>
        <time>2021-10-10T07:41:46Z</time>
      </trkpt>
      <trkpt lat="45.04081" lon="5.53866">
        <ele>1097.4</ele>
        <time>2021-10-10T07:41:47Z</time>
      </trkpt>
      <trkpt lat="45.04083" lon="5.53869">
        <ele>1097.4</ele>
        <time>2021-10-10T07:41:48Z</time>
      </trkpt>
      <trkpt lat="45.04085" lon="5.53872">
        <ele>1097</ele>
        <time>2021-10-10T07:41:49Z</time>
      </trkpt>
      <trkpt lat="45.04089" lon="5.53876">
        <ele>1096.6</ele>
        <time>2021-10-10T07:41:50Z</time>
      </trkpt>
      <trkpt lat="45.04092" lon="5.5388">
        <ele>1096.6</ele>
        <time>2021-10-10T07:41:51Z</time>
      </trkpt>
      <trkpt lat="45.04096" lon="5.53885">
        <ele>1096.6</ele>
        <time>2021-10-10T07:41:52Z</time>
      </trkpt>
      <trkpt lat="45.04099" lon="5.5389">
        <ele>1095.6</ele>
        <time>2021-10-10T07:41:53Z</time>
      </trkpt>
      <trkpt lat="45.04101" lon="5.53896">
        <ele>1095.6</ele>
        <time>2021-10-10T07:41:54Z</time>
      </trkpt>
      <trkpt lat="45.04101" lon="5.53903">
        <ele>1095.6</ele>
        <time>2021-10-10T07:41:55Z</time>
      </trkpt>
      <trkpt lat="45.04101" lon="5.53909">
        <ele>1095.6</ele>
        <time>2021-10-10T07:41:56Z</time>
      </trkpt>
      <trkpt lat="45.04103" lon="5.53914">
        <ele>1095.8</ele>
        <time>2021-10-10T07:41:57Z</time>
      </trkpt>
      <trkpt lat="45.04104" lon="5.53918">
        <ele>1095.4</ele>
        <time>2021-10-10T07:41:58Z</time>
      </trkpt>
      <trkpt lat="45.04105" lon="5.53923">
        <ele>1095.4</ele>
        <time>2021-10-10T07:41:59Z</time>
      </trkpt>
      <trkpt lat="45.04106" lon="5.53927">
        <ele>1095.4</ele>
        <time>2021-10-10T07:42:00Z</time>
      </trkpt>
      <trkpt lat="45.04107" lon="5.5393">
        <ele>1094.8</ele>
        <time>2021-10-10T07:42:01Z</time>
      </trkpt>
      <trkpt lat="45.04107" lon="5.53934">
        <ele>1094.4</ele>
        <time>2021-10-10T07:42:02Z</time>
      </trkpt>
      <trkpt lat="45.04107" lon="5.53937">
        <ele>1094.4</ele>
        <time>2021-10-10T07:42:03Z</time>
      </trkpt>
      <trkpt lat="45.04107" lon="5.53941">
        <ele>1094.4</ele>
        <time>2021-10-10T07:42:04Z</time>
      </trkpt>
      <trkpt lat="45.04109" lon="5.53945">
        <ele>1093.6</ele>
        <time>2021-10-10T07:42:05Z</time>
      </trkpt>
      <trkpt lat="45.04111" lon="5.5395">
        <ele>1093.6</ele>
        <time>2021-10-10T07:42:06Z</time>
      </trkpt>
      <trkpt lat="45.04112" lon="5.53954">
        <ele>1093.6</ele>
        <time>2021-10-10T07:42:07Z</time>
      </trkpt>
      <trkpt lat="45.04112" lon="5.5396">
        <ele>1093.6</ele>
        <time>2021-10-10T07:42:08Z</time>
      </trkpt>
      <trkpt lat="45.04114" lon="5.53965">
        <ele>1093.6</ele>
        <time>2021-10-10T07:42:09Z</time>
      </trkpt>
      <trkpt lat="45.04116" lon="5.53971">
        <ele>1093.8</ele>
        <time>2021-10-10T07:42:10Z</time>
      </trkpt>
      <trkpt lat="45.04118" lon="5.53977">
        <ele>1093.8</ele>
        <time>2021-10-10T07:42:11Z</time>
      </trkpt>
      <trkpt lat="45.0412" lon="5.53983">
        <ele>1093.8</ele>
        <time>2021-10-10T07:42:12Z</time>
      </trkpt>
      <trkpt lat="45.04123" lon="5.53987">
        <ele>1093.8</ele>
        <time>2021-10-10T07:42:13Z</time>
      </trkpt>
      <trkpt lat="45.04126" lon="5.53992">
        <ele>1094.6</ele>
        <time>2021-10-10T07:42:14Z</time>
      </trkpt>
      <trkpt lat="45.04129" lon="5.53998">
        <ele>1094.6</ele>
        <time>2021-10-10T07:42:15Z</time>
      </trkpt>
      <trkpt lat="45.04131" lon="5.54003">
        <ele>1094.6</ele>
        <time>2021-10-10T07:42:16Z</time>
      </trkpt>
      <trkpt lat="45.04133" lon="5.5401">
        <ele>1094.6</ele>
        <time>2021-10-10T07:42:17Z</time>
      </trkpt>
      <trkpt lat="45.04134" lon="5.54016">
        <ele>1094.4</ele>
        <time>2021-10-10T07:42:18Z</time>
      </trkpt>
      <trkpt lat="45.04136" lon="5.54022">
        <ele>1094.4</ele>
        <time>2021-10-10T07:42:19Z</time>
      </trkpt>
      <trkpt lat="45.04137" lon="5.54029">
        <ele>1094.4</ele>
        <time>2021-10-10T07:42:20Z</time>
      </trkpt>
      <trkpt lat="45.04138" lon="5.54036">
        <ele>1094.4</ele>
        <time>2021-10-10T07:42:21Z</time>
      </trkpt>
      <trkpt lat="45.04139" lon="5.54044">
        <ele>1094.2</ele>
        <time>2021-10-10T07:42:22Z</time>
      </trkpt>
      <trkpt lat="45.04139" lon="5.54051">
        <ele>1094.2</ele>
        <time>2021-10-10T07:42:23Z</time>
      </trkpt>
      <trkpt lat="45.0414" lon="5.54058">
        <ele>1094.2</ele>
        <time>2021-10-10T07:42:24Z</time>
      </trkpt>
      <trkpt lat="45.04141" lon="5.54065">
        <ele>1094.2</ele>
        <time>2021-10-10T07:42:25Z</time>
      </trkpt>
      <trkpt lat="45.04141" lon="5.54072">
        <ele>1093.8</ele>
        <time>2021-10-10T07:42:26Z</time>
      </trkpt>
      <trkpt lat="45.04141" lon="5.54079">
        <ele>1093.8</ele>
        <time>2021-10-10T07:42:27Z</time>
      </trkpt>
      <trkpt lat="45.04142" lon="5.54085">
        <ele>1093.8</ele>
        <time>2021-10-10T07:42:28Z</time>
      </trkpt>
      <trkpt lat="45.04143" lon="5.54092">
        <ele>1092.8</ele>
        <time>2021-10-10T07:42:29Z</time>
      </trkpt>
      <trkpt lat="45.04143" lon="5.54098">
        <ele>1091</ele>
        <time>2021-10-10T07:42:30Z</time>
      </trkpt>
      <trkpt lat="45.04142" lon="5.54106">
        <ele>1091</ele>
        <time>2021-10-10T07:42:31Z</time>
      </trkpt>
      <trkpt lat="45.04141" lon="5.54113">
        <ele>1091</ele>
        <time>2021-10-10T07:42:32Z</time>
      </trkpt>
      <trkpt lat="45.04141" lon="5.54122">
        <ele>1090</ele>
        <time>2021-10-10T07:42:33Z</time>
      </trkpt>
      <trkpt lat="45.04142" lon="5.54131">
        <ele>1087.4</ele>
        <time>2021-10-10T07:42:34Z</time>
      </trkpt>
      <trkpt lat="45.04143" lon="5.54142">
        <ele>1087.4</ele>
        <time>2021-10-10T07:42:35Z</time>
      </trkpt>
      <trkpt lat="45.04147" lon="5.54152">
        <ele>1087.4</ele>
        <time>2021-10-10T07:42:36Z</time>
      </trkpt>
      <trkpt lat="45.04152" lon="5.5416">
        <ele>1086.4</ele>
        <time>2021-10-10T07:42:37Z</time>
      </trkpt>
      <trkpt lat="45.04159" lon="5.54167">
        <ele>1087.4</ele>
        <time>2021-10-10T07:42:38Z</time>
      </trkpt>
      <trkpt lat="45.04166" lon="5.54173">
        <ele>1087.4</ele>
        <time>2021-10-10T07:42:39Z</time>
      </trkpt>
      <trkpt lat="45.04174" lon="5.54177">
        <ele>1087.4</ele>
        <time>2021-10-10T07:42:40Z</time>
      </trkpt>
      <trkpt lat="45.04181" lon="5.54181">
        <ele>1088.4</ele>
        <time>2021-10-10T07:42:41Z</time>
      </trkpt>
      <trkpt lat="45.04185" lon="5.54186">
        <ele>1089.8</ele>
        <time>2021-10-10T07:42:42Z</time>
      </trkpt>
      <trkpt lat="45.04188" lon="5.54191">
        <ele>1089.8</ele>
        <time>2021-10-10T07:42:43Z</time>
      </trkpt>
      <trkpt lat="45.04191" lon="5.54197">
        <ele>1089.8</ele>
        <time>2021-10-10T07:42:44Z</time>
      </trkpt>
      <trkpt lat="45.04192" lon="5.54204">
        <ele>1090</ele>
        <time>2021-10-10T07:42:45Z</time>
      </trkpt>
      <trkpt lat="45.04193" lon="5.54211">
        <ele>1089.4</ele>
        <time>2021-10-10T07:42:46Z</time>
      </trkpt>
      <trkpt lat="45.04194" lon="5.54219">
        <ele>1089.4</ele>
        <time>2021-10-10T07:42:47Z</time>
      </trkpt>
      <trkpt lat="45.04194" lon="5.54227">
        <ele>1089.4</ele>
        <time>2021-10-10T07:42:48Z</time>
      </trkpt>
      <trkpt lat="45.04195" lon="5.54235">
        <ele>1088.4</ele>
        <time>2021-10-10T07:42:49Z</time>
      </trkpt>
      <trkpt lat="45.04197" lon="5.54244">
        <ele>1088.4</ele>
        <time>2021-10-10T07:42:50Z</time>
      </trkpt>
      <trkpt lat="45.04199" lon="5.54253">
        <ele>1088.4</ele>
        <time>2021-10-10T07:42:51Z</time>
      </trkpt>
      <trkpt lat="45.04201" lon="5.54261">
        <ele>1088.4</ele>
        <time>2021-10-10T07:42:52Z</time>
      </trkpt>
      <trkpt lat="45.04204" lon="5.5427">
        <ele>1089.4</ele>
        <time>2021-10-10T07:42:53Z</time>
      </trkpt>
      <trkpt lat="45.04207" lon="5.54278">
        <ele>1089</ele>
        <time>2021-10-10T07:42:54Z</time>
      </trkpt>
      <trkpt lat="45.04209" lon="5.54285">
        <ele>1089</ele>
        <time>2021-10-10T07:42:55Z</time>
      </trkpt>
      <trkpt lat="45.04211" lon="5.54293">
        <ele>1089</ele>
        <time>2021-10-10T07:42:56Z</time>
      </trkpt>
      <trkpt lat="45.04212" lon="5.543">
        <ele>1089.8</ele>
        <time>2021-10-10T07:42:57Z</time>
      </trkpt>
      <trkpt lat="45.04214" lon="5.54307">
        <ele>1089.8</ele>
        <time>2021-10-10T07:42:58Z</time>
      </trkpt>
      <trkpt lat="45.04216" lon="5.54314">
        <ele>1089.8</ele>
        <time>2021-10-10T07:42:59Z</time>
      </trkpt>
      <trkpt lat="45.04218" lon="5.54321">
        <ele>1089.8</ele>
        <time>2021-10-10T07:43:00Z</time>
      </trkpt>
      <trkpt lat="45.04219" lon="5.54327">
        <ele>1090.8</ele>
        <time>2021-10-10T07:43:01Z</time>
      </trkpt>
      <trkpt lat="45.04221" lon="5.54333">
        <ele>1092.2</ele>
        <time>2021-10-10T07:43:02Z</time>
      </trkpt>
      <trkpt lat="45.04222" lon="5.54338">
        <ele>1092.2</ele>
        <time>2021-10-10T07:43:03Z</time>
      </trkpt>
      <trkpt lat="45.04223" lon="5.54342">
        <ele>1092.2</ele>
        <time>2021-10-10T07:43:04Z</time>
      </trkpt>
      <trkpt lat="45.04223" lon="5.54346">
        <ele>1093</ele>
        <time>2021-10-10T07:43:05Z</time>
      </trkpt>
      <trkpt lat="45.04224" lon="5.5435">
        <ele>1093.6</ele>
        <time>2021-10-10T07:43:06Z</time>
      </trkpt>
      <trkpt lat="45.04225" lon="5.54353">
        <ele>1093.6</ele>
        <time>2021-10-10T07:43:07Z</time>
      </trkpt>
      <trkpt lat="45.04226" lon="5.54356">
        <ele>1093.6</ele>
        <time>2021-10-10T07:43:08Z</time>
      </trkpt>
      <trkpt lat="45.04227" lon="5.5436">
        <ele>1094.4</ele>
        <time>2021-10-10T07:43:09Z</time>
      </trkpt>
      <trkpt lat="45.04227" lon="5.54363">
        <ele>1094.4</ele>
        <time>2021-10-10T07:43:10Z</time>
      </trkpt>
      <trkpt lat="45.04229" lon="5.54367">
        <ele>1094.4</ele>
        <time>2021-10-10T07:43:11Z</time>
      </trkpt>
      <trkpt lat="45.0423" lon="5.5437">
        <ele>1094.4</ele>
        <time>2021-10-10T07:43:12Z</time>
      </trkpt>
      <trkpt lat="45.04231" lon="5.54373">
        <ele>1094.4</ele>
        <time>2021-10-10T07:43:13Z</time>
      </trkpt>
      <trkpt lat="45.04232" lon="5.54376">
        <ele>1095.4</ele>
        <time>2021-10-10T07:43:14Z</time>
      </trkpt>
      <trkpt lat="45.04232" lon="5.54378">
        <ele>1095.4</ele>
        <time>2021-10-10T07:43:15Z</time>
      </trkpt>
      <trkpt lat="45.04234" lon="5.54381">
        <ele>1095.4</ele>
        <time>2021-10-10T07:43:16Z</time>
      </trkpt>
      <trkpt lat="45.04235" lon="5.54383">
        <ele>1095.8</ele>
        <time>2021-10-10T07:43:17Z</time>
      </trkpt>
      <trkpt lat="45.04236" lon="5.54387">
        <ele>1096.2</ele>
        <time>2021-10-10T07:43:18Z</time>
      </trkpt>
      <trkpt lat="45.04237" lon="5.5439">
        <ele>1096.2</ele>
        <time>2021-10-10T07:43:19Z</time>
      </trkpt>
      <trkpt lat="45.04237" lon="5.54394">
        <ele>1096.2</ele>
        <time>2021-10-10T07:43:20Z</time>
      </trkpt>
      <trkpt lat="45.04238" lon="5.54397">
        <ele>1096.2</ele>
        <time>2021-10-10T07:43:21Z</time>
      </trkpt>
      <trkpt lat="45.04239" lon="5.54399">
        <ele>1096.6</ele>
        <time>2021-10-10T07:43:22Z</time>
      </trkpt>
      <trkpt lat="45.04238" lon="5.54402">
        <ele>1096.6</ele>
        <time>2021-10-10T07:43:23Z</time>
      </trkpt>
      <trkpt lat="45.04238" lon="5.54406">
        <ele>1096.6</ele>
        <time>2021-10-10T07:43:24Z</time>
      </trkpt>
      <trkpt lat="45.04239" lon="5.54408">
        <ele>1096.6</ele>
        <time>2021-10-10T07:43:25Z</time>
      </trkpt>
      <trkpt lat="45.0424" lon="5.54411">
        <ele>1097.6</ele>
        <time>2021-10-10T07:43:26Z</time>
      </trkpt>
      <trkpt lat="45.0424" lon="5.54413">
        <ele>1097.6</ele>
        <time>2021-10-10T07:43:27Z</time>
      </trkpt>
      <trkpt lat="45.04241" lon="5.54416">
        <ele>1097.6</ele>
        <time>2021-10-10T07:43:28Z</time>
      </trkpt>
      <trkpt lat="45.04242" lon="5.54419">
        <ele>1097.6</ele>
        <time>2021-10-10T07:43:29Z</time>
      </trkpt>
      <trkpt lat="45.04242" lon="5.54421">
        <ele>1098</ele>
        <time>2021-10-10T07:43:30Z</time>
      </trkpt>
      <trkpt lat="45.04242" lon="5.54423">
        <ele>1098</ele>
        <time>2021-10-10T07:43:31Z</time>
      </trkpt>
      <trkpt lat="45.04243" lon="5.54425">
        <ele>1098</ele>
        <time>2021-10-10T07:43:32Z</time>
      </trkpt>
      <trkpt lat="45.04243" lon="5.54426">
        <ele>1098</ele>
        <time>2021-10-10T07:43:33Z</time>
      </trkpt>
      <trkpt lat="45.04251" lon="5.54455">
        <ele>1099.4</ele>
        <time>2021-10-10T07:45:28Z</time>
      </trkpt>
      <trkpt lat="45.04251" lon="5.54457">
        <ele>1099.4</ele>
        <time>2021-10-10T07:45:29Z</time>
      </trkpt>
      <trkpt lat="45.04253" lon="5.54459">
        <ele>1099.6</ele>
        <time>2021-10-10T07:45:30Z</time>
      </trkpt>
      <trkpt lat="45.04254" lon="5.54462">
        <ele>1099.6</ele>
        <time>2021-10-10T07:45:31Z</time>
      </trkpt>
      <trkpt lat="45.04254" lon="5.54465">
        <ele>1099.6</ele>
        <time>2021-10-10T07:45:32Z</time>
      </trkpt>
      <trkpt lat="45.04254" lon="5.54468">
        <ele>1100.6</ele>
        <time>2021-10-10T07:45:33Z</time>
      </trkpt>
      <trkpt lat="45.04254" lon="5.5447">
        <ele>1100.6</ele>
        <time>2021-10-10T07:45:34Z</time>
      </trkpt>
      <trkpt lat="45.04254" lon="5.54472">
        <ele>1100.6</ele>
        <time>2021-10-10T07:45:35Z</time>
      </trkpt>
      <trkpt lat="45.04255" lon="5.54474">
        <ele>1100.6</ele>
        <time>2021-10-10T07:45:36Z</time>
      </trkpt>
      <trkpt lat="45.04255" lon="5.54475">
        <ele>1101.2</ele>
        <time>2021-10-10T07:45:37Z</time>
      </trkpt>
      <trkpt lat="45.04255" lon="5.54476">
        <ele>1101.2</ele>
        <time>2021-10-10T07:45:38Z</time>
      </trkpt>
      <trkpt lat="45.04254" lon="5.54478">
        <ele>1101.2</ele>
        <time>2021-10-10T07:45:39Z</time>
      </trkpt>
      <trkpt lat="45.04255" lon="5.54479">
        <ele>1101.2</ele>
        <time>2021-10-10T07:45:40Z</time>
      </trkpt>
      <trkpt lat="45.04255" lon="5.54482">
        <ele>1101.2</ele>
        <time>2021-10-10T07:45:41Z</time>
      </trkpt>
      <trkpt lat="45.04255" lon="5.54483">
        <ele>1101.8</ele>
        <time>2021-10-10T07:45:42Z</time>
      </trkpt>
      <trkpt lat="45.04255" lon="5.54485">
        <ele>1101.8</ele>
        <time>2021-10-10T07:45:43Z</time>
      </trkpt>
      <trkpt lat="45.04255" lon="5.54487">
        <ele>1101.8</ele>
        <time>2021-10-10T07:45:44Z</time>
      </trkpt>
      <trkpt lat="45.04256" lon="5.54489">
        <ele>1102.6</ele>
        <time>2021-10-10T07:45:45Z</time>
      </trkpt>
      <trkpt lat="45.04256" lon="5.54492">
        <ele>1102.4</ele>
        <time>2021-10-10T07:45:46Z</time>
      </trkpt>
      <trkpt lat="45.04256" lon="5.54494">
        <ele>1102.4</ele>
        <time>2021-10-10T07:45:47Z</time>
      </trkpt>
      <trkpt lat="45.04255" lon="5.54496">
        <ele>1102.4</ele>
        <time>2021-10-10T07:45:48Z</time>
      </trkpt>
      <trkpt lat="45.04255" lon="5.54498">
        <ele>1103</ele>
        <time>2021-10-10T07:45:49Z</time>
      </trkpt>
      <trkpt lat="45.04255" lon="5.54501">
        <ele>1103.4</ele>
        <time>2021-10-10T07:45:50Z</time>
      </trkpt>
      <trkpt lat="45.04254" lon="5.54503">
        <ele>1103.4</ele>
        <time>2021-10-10T07:45:51Z</time>
      </trkpt>
      <trkpt lat="45.04253" lon="5.54506">
        <ele>1103.4</ele>
        <time>2021-10-10T07:45:52Z</time>
      </trkpt>
      <trkpt lat="45.04254" lon="5.54508">
        <ele>1103.4</ele>
        <time>2021-10-10T07:45:53Z</time>
      </trkpt>
      <trkpt lat="45.04254" lon="5.54511">
        <ele>1104</ele>
        <time>2021-10-10T07:45:54Z</time>
      </trkpt>
      <trkpt lat="45.04254" lon="5.54514">
        <ele>1104</ele>
        <time>2021-10-10T07:45:55Z</time>
      </trkpt>
      <trkpt lat="45.04254" lon="5.54516">
        <ele>1104</ele>
        <time>2021-10-10T07:45:56Z</time>
      </trkpt>
      <trkpt lat="45.04254" lon="5.54519">
        <ele>1104</ele>
        <time>2021-10-10T07:45:57Z</time>
      </trkpt>
      <trkpt lat="45.04253" lon="5.54521">
        <ele>1104.6</ele>
        <time>2021-10-10T07:45:58Z</time>
      </trkpt>
      <trkpt lat="45.04251" lon="5.54524">
        <ele>1104.6</ele>
        <time>2021-10-10T07:45:59Z</time>
      </trkpt>
      <trkpt lat="45.04251" lon="5.54527">
        <ele>1104.6</ele>
        <time>2021-10-10T07:46:00Z</time>
      </trkpt>
      <trkpt lat="45.04251" lon="5.54529">
        <ele>1104.6</ele>
        <time>2021-10-10T07:46:01Z</time>
      </trkpt>
      <trkpt lat="45.04251" lon="5.54532">
        <ele>1104.8</ele>
        <time>2021-10-10T07:46:02Z</time>
      </trkpt>
      <trkpt lat="45.0425" lon="5.54534">
        <ele>1104.8</ele>
        <time>2021-10-10T07:46:03Z</time>
      </trkpt>
      <trkpt lat="45.0425" lon="5.54537">
        <ele>1104.8</ele>
        <time>2021-10-10T07:46:04Z</time>
      </trkpt>
      <trkpt lat="45.0425" lon="5.54539">
        <ele>1105.2</ele>
        <time>2021-10-10T07:46:05Z</time>
      </trkpt>
      <trkpt lat="45.04251" lon="5.54542">
        <ele>1106</ele>
        <time>2021-10-10T07:46:06Z</time>
      </trkpt>
      <trkpt lat="45.04251" lon="5.54545">
        <ele>1106</ele>
        <time>2021-10-10T07:46:07Z</time>
      </trkpt>
      <trkpt lat="45.0425" lon="5.54547">
        <ele>1106</ele>
        <time>2021-10-10T07:46:08Z</time>
      </trkpt>
      <trkpt lat="45.04249" lon="5.5455">
        <ele>1106.4</ele>
        <time>2021-10-10T07:46:09Z</time>
      </trkpt>
      <trkpt lat="45.04249" lon="5.54553">
        <ele>1106.8</ele>
        <time>2021-10-10T07:46:10Z</time>
      </trkpt>
      <trkpt lat="45.04249" lon="5.54556">
        <ele>1106.8</ele>
        <time>2021-10-10T07:46:11Z</time>
      </trkpt>
      <trkpt lat="45.04248" lon="5.54559">
        <ele>1106.8</ele>
        <time>2021-10-10T07:46:12Z</time>
      </trkpt>
      <trkpt lat="45.04247" lon="5.54561">
        <ele>1106.8</ele>
        <time>2021-10-10T07:46:13Z</time>
      </trkpt>
      <trkpt lat="45.04247" lon="5.54563">
        <ele>1107</ele>
        <time>2021-10-10T07:46:14Z</time>
      </trkpt>
      <trkpt lat="45.04246" lon="5.54565">
        <ele>1107</ele>
        <time>2021-10-10T07:46:15Z</time>
      </trkpt>
      <trkpt lat="45.04246" lon="5.54567">
        <ele>1107</ele>
        <time>2021-10-10T07:46:16Z</time>
      </trkpt>
      <trkpt lat="45.04246" lon="5.54569">
        <ele>1107.8</ele>
        <time>2021-10-10T07:46:17Z</time>
      </trkpt>
      <trkpt lat="45.04245" lon="5.54571">
        <ele>1107.8</ele>
        <time>2021-10-10T07:46:18Z</time>
      </trkpt>
      <trkpt lat="45.04245" lon="5.54574">
        <ele>1107.8</ele>
        <time>2021-10-10T07:46:19Z</time>
      </trkpt>
      <trkpt lat="45.04245" lon="5.54575">
        <ele>1107.8</ele>
        <time>2021-10-10T07:46:20Z</time>
      </trkpt>
      <trkpt lat="45.04244" lon="5.54578">
        <ele>1108</ele>
        <time>2021-10-10T07:46:21Z</time>
      </trkpt>
      <trkpt lat="45.04243" lon="5.5458">
        <ele>1108</ele>
        <time>2021-10-10T07:46:22Z</time>
      </trkpt>
      <trkpt lat="45.04243" lon="5.54582">
        <ele>1108</ele>
        <time>2021-10-10T07:46:23Z</time>
      </trkpt>
      <trkpt lat="45.04244" lon="5.54586">
        <ele>1108</ele>
        <time>2021-10-10T07:46:24Z</time>
      </trkpt>
      <trkpt lat="45.04243" lon="5.54588">
        <ele>1108.8</ele>
        <time>2021-10-10T07:46:25Z</time>
      </trkpt>
      <trkpt lat="45.04243" lon="5.54589">
        <ele>1109.2</ele>
        <time>2021-10-10T07:46:26Z</time>
      </trkpt>
      <trkpt lat="45.04241" lon="5.54592">
        <ele>1109.2</ele>
        <time>2021-10-10T07:46:27Z</time>
      </trkpt>
      <trkpt lat="45.04241" lon="5.54594">
        <ele>1109.2</ele>
        <time>2021-10-10T07:46:28Z</time>
      </trkpt>
      <trkpt lat="45.0424" lon="5.54596">
        <ele>1110</ele>
        <time>2021-10-10T07:46:29Z</time>
      </trkpt>
      <trkpt lat="45.04239" lon="5.54598">
        <ele>1109.8</ele>
        <time>2021-10-10T07:46:30Z</time>
      </trkpt>
      <trkpt lat="45.04238" lon="5.546">
        <ele>1109.8</ele>
        <time>2021-10-10T07:46:31Z</time>
      </trkpt>
      <trkpt lat="45.04237" lon="5.54602">
        <ele>1109.8</ele>
        <time>2021-10-10T07:46:32Z</time>
      </trkpt>
      <trkpt lat="45.04236" lon="5.54605">
        <ele>1110.6</ele>
        <time>2021-10-10T07:46:33Z</time>
      </trkpt>
      <trkpt lat="45.04235" lon="5.54607">
        <ele>1110.6</ele>
        <time>2021-10-10T07:46:34Z</time>
      </trkpt>
      <trkpt lat="45.04234" lon="5.54609">
        <ele>1110.6</ele>
        <time>2021-10-10T07:46:35Z</time>
      </trkpt>
      <trkpt lat="45.04233" lon="5.54611">
        <ele>1110.6</ele>
        <time>2021-10-10T07:46:36Z</time>
      </trkpt>
      <trkpt lat="45.04232" lon="5.54613">
        <ele>1111.2</ele>
        <time>2021-10-10T07:46:37Z</time>
      </trkpt>
      <trkpt lat="45.04231" lon="5.54615">
        <ele>1111</ele>
        <time>2021-10-10T07:46:38Z</time>
      </trkpt>
      <trkpt lat="45.04231" lon="5.54617">
        <ele>1111</ele>
        <time>2021-10-10T07:46:39Z</time>
      </trkpt>
      <trkpt lat="45.0423" lon="5.54619">
        <ele>1111</ele>
        <time>2021-10-10T07:46:40Z</time>
      </trkpt>
      <trkpt lat="45.04229" lon="5.5462">
        <ele>1111.4</ele>
        <time>2021-10-10T07:46:41Z</time>
      </trkpt>
      <trkpt lat="45.04228" lon="5.54621">
        <ele>1111.6</ele>
        <time>2021-10-10T07:46:42Z</time>
      </trkpt>
      <trkpt lat="45.04228" lon="5.54623">
        <ele>1111.6</ele>
        <time>2021-10-10T07:46:43Z</time>
      </trkpt>
      <trkpt lat="45.04227" lon="5.54624">
        <ele>1111.6</ele>
        <time>2021-10-10T07:46:44Z</time>
      </trkpt>
      <trkpt lat="45.04225" lon="5.54626">
        <ele>1112.2</ele>
        <time>2021-10-10T07:46:45Z</time>
      </trkpt>
      <trkpt lat="45.04224" lon="5.54628">
        <ele>1112.4</ele>
        <time>2021-10-10T07:46:46Z</time>
      </trkpt>
      <trkpt lat="45.04223" lon="5.5463">
        <ele>1112.4</ele>
        <time>2021-10-10T07:46:47Z</time>
      </trkpt>
      <trkpt lat="45.04221" lon="5.54632">
        <ele>1112.4</ele>
        <time>2021-10-10T07:46:48Z</time>
      </trkpt>
      <trkpt lat="45.04219" lon="5.54634">
        <ele>1113.4</ele>
        <time>2021-10-10T07:46:49Z</time>
      </trkpt>
      <trkpt lat="45.04218" lon="5.54635">
        <ele>1113.2</ele>
        <time>2021-10-10T07:46:50Z</time>
      </trkpt>
      <trkpt lat="45.04216" lon="5.54637">
        <ele>1113.2</ele>
        <time>2021-10-10T07:46:51Z</time>
      </trkpt>
      <trkpt lat="45.04215" lon="5.54639">
        <ele>1113.2</ele>
        <time>2021-10-10T07:46:52Z</time>
      </trkpt>
      <trkpt lat="45.04213" lon="5.54642">
        <ele>1113.6</ele>
        <time>2021-10-10T07:46:53Z</time>
      </trkpt>
      <trkpt lat="45.04212" lon="5.54644">
        <ele>1113.8</ele>
        <time>2021-10-10T07:46:54Z</time>
      </trkpt>
      <trkpt lat="45.04211" lon="5.54647">
        <ele>1113.8</ele>
        <time>2021-10-10T07:46:55Z</time>
      </trkpt>
      <trkpt lat="45.04209" lon="5.54649">
        <ele>1113.8</ele>
        <time>2021-10-10T07:46:56Z</time>
      </trkpt>
      <trkpt lat="45.04207" lon="5.5465">
        <ele>1113.8</ele>
        <time>2021-10-10T07:46:57Z</time>
      </trkpt>
      <trkpt lat="45.04206" lon="5.54652">
        <ele>1114.6</ele>
        <time>2021-10-10T07:46:58Z</time>
      </trkpt>
      <trkpt lat="45.04205" lon="5.54653">
        <ele>1114.6</ele>
        <time>2021-10-10T07:46:59Z</time>
      </trkpt>
      <trkpt lat="45.04203" lon="5.54655">
        <ele>1114.6</ele>
        <time>2021-10-10T07:47:00Z</time>
      </trkpt>
      <trkpt lat="45.04201" lon="5.54657">
        <ele>1114.6</ele>
        <time>2021-10-10T07:47:01Z</time>
      </trkpt>
      <trkpt lat="45.042" lon="5.54659">
        <ele>1115.4</ele>
        <time>2021-10-10T07:47:02Z</time>
      </trkpt>
      <trkpt lat="45.04198" lon="5.5466">
        <ele>1115.4</ele>
        <time>2021-10-10T07:47:03Z</time>
      </trkpt>
      <trkpt lat="45.04195" lon="5.54663">
        <ele>1115.4</ele>
        <time>2021-10-10T07:47:04Z</time>
      </trkpt>
      <trkpt lat="45.04192" lon="5.54665">
        <ele>1116</ele>
        <time>2021-10-10T07:47:05Z</time>
      </trkpt>
      <trkpt lat="45.04191" lon="5.54667">
        <ele>1116</ele>
        <time>2021-10-10T07:47:06Z</time>
      </trkpt>
      <trkpt lat="45.04189" lon="5.54668">
        <ele>1116</ele>
        <time>2021-10-10T07:47:07Z</time>
      </trkpt>
      <trkpt lat="45.04187" lon="5.5467">
        <ele>1116</ele>
        <time>2021-10-10T07:47:08Z</time>
      </trkpt>
      <trkpt lat="45.04186" lon="5.54672">
        <ele>1116.8</ele>
        <time>2021-10-10T07:47:09Z</time>
      </trkpt>
      <trkpt lat="45.04184" lon="5.54674">
        <ele>1117</ele>
        <time>2021-10-10T07:47:10Z</time>
      </trkpt>
      <trkpt lat="45.04182" lon="5.54677">
        <ele>1117</ele>
        <time>2021-10-10T07:47:11Z</time>
      </trkpt>
      <trkpt lat="45.04181" lon="5.54679">
        <ele>1117</ele>
        <time>2021-10-10T07:47:12Z</time>
      </trkpt>
      <trkpt lat="45.0418" lon="5.54682">
        <ele>1117</ele>
        <time>2021-10-10T07:47:13Z</time>
      </trkpt>
      <trkpt lat="45.04177" lon="5.54683">
        <ele>1117.6</ele>
        <time>2021-10-10T07:47:14Z</time>
      </trkpt>
      <trkpt lat="45.04176" lon="5.54687">
        <ele>1117.6</ele>
        <time>2021-10-10T07:47:15Z</time>
      </trkpt>
      <trkpt lat="45.04176" lon="5.54689">
        <ele>1117.6</ele>
        <time>2021-10-10T07:47:16Z</time>
      </trkpt>
      <trkpt lat="45.04175" lon="5.54692">
        <ele>1117.6</ele>
        <time>2021-10-10T07:47:17Z</time>
      </trkpt>
      <trkpt lat="45.04174" lon="5.54694">
        <ele>1118</ele>
        <time>2021-10-10T07:47:18Z</time>
      </trkpt>
      <trkpt lat="45.04174" lon="5.54696">
        <ele>1118</ele>
        <time>2021-10-10T07:47:19Z</time>
      </trkpt>
      <trkpt lat="45.04173" lon="5.54699">
        <ele>1118</ele>
        <time>2021-10-10T07:47:20Z</time>
      </trkpt>
      <trkpt lat="45.04172" lon="5.54701">
        <ele>1119</ele>
        <time>2021-10-10T07:47:21Z</time>
      </trkpt>
      <trkpt lat="45.04172" lon="5.54704">
        <ele>1119.2</ele>
        <time>2021-10-10T07:47:22Z</time>
      </trkpt>
      <trkpt lat="45.04172" lon="5.54706">
        <ele>1119.2</ele>
        <time>2021-10-10T07:47:23Z</time>
      </trkpt>
      <trkpt lat="45.04171" lon="5.54709">
        <ele>1119.2</ele>
        <time>2021-10-10T07:47:24Z</time>
      </trkpt>
      <trkpt lat="45.04171" lon="5.54711">
        <ele>1119.2</ele>
        <time>2021-10-10T07:47:25Z</time>
      </trkpt>
      <trkpt lat="45.04171" lon="5.54713">
        <ele>1119.6</ele>
        <time>2021-10-10T07:47:26Z</time>
      </trkpt>
      <trkpt lat="45.04171" lon="5.54715">
        <ele>1119.6</ele>
        <time>2021-10-10T07:47:27Z</time>
      </trkpt>
      <trkpt lat="45.04171" lon="5.54718">
        <ele>1119.6</ele>
        <time>2021-10-10T07:47:28Z</time>
      </trkpt>
      <trkpt lat="45.0417" lon="5.54721">
        <ele>1120.4</ele>
        <time>2021-10-10T07:47:29Z</time>
      </trkpt>
      <trkpt lat="45.0417" lon="5.54724">
        <ele>1120.6</ele>
        <time>2021-10-10T07:47:30Z</time>
      </trkpt>
      <trkpt lat="45.0417" lon="5.54727">
        <ele>1120.6</ele>
        <time>2021-10-10T07:47:31Z</time>
      </trkpt>
      <trkpt lat="45.04169" lon="5.5473">
        <ele>1120.6</ele>
        <time>2021-10-10T07:47:32Z</time>
      </trkpt>
      <trkpt lat="45.04169" lon="5.54733">
        <ele>1121.2</ele>
        <time>2021-10-10T07:47:33Z</time>
      </trkpt>
      <trkpt lat="45.04169" lon="5.54735">
        <ele>1121.2</ele>
        <time>2021-10-10T07:47:34Z</time>
      </trkpt>
      <trkpt lat="45.04169" lon="5.54738">
        <ele>1121.2</ele>
        <time>2021-10-10T07:47:35Z</time>
      </trkpt>
      <trkpt lat="45.04168" lon="5.54741">
        <ele>1121.2</ele>
        <time>2021-10-10T07:47:36Z</time>
      </trkpt>
      <trkpt lat="45.04168" lon="5.54743">
        <ele>1121.4</ele>
        <time>2021-10-10T07:47:37Z</time>
      </trkpt>
      <trkpt lat="45.04169" lon="5.54746">
        <ele>1122.2</ele>
        <time>2021-10-10T07:47:38Z</time>
      </trkpt>
      <trkpt lat="45.04168" lon="5.54749">
        <ele>1122.2</ele>
        <time>2021-10-10T07:47:39Z</time>
      </trkpt>
      <trkpt lat="45.04168" lon="5.54751">
        <ele>1122.2</ele>
        <time>2021-10-10T07:47:40Z</time>
      </trkpt>
      <trkpt lat="45.04168" lon="5.54754">
        <ele>1122.2</ele>
        <time>2021-10-10T07:47:41Z</time>
      </trkpt>
      <trkpt lat="45.04168" lon="5.54757">
        <ele>1123.4</ele>
        <time>2021-10-10T07:47:42Z</time>
      </trkpt>
      <trkpt lat="45.04168" lon="5.5476">
        <ele>1123.4</ele>
        <time>2021-10-10T07:47:43Z</time>
      </trkpt>
      <trkpt lat="45.04168" lon="5.54763">
        <ele>1123.4</ele>
        <time>2021-10-10T07:47:44Z</time>
      </trkpt>
      <trkpt lat="45.04168" lon="5.54765">
        <ele>1123.4</ele>
        <time>2021-10-10T07:47:45Z</time>
      </trkpt>
      <trkpt lat="45.04168" lon="5.54768">
        <ele>1123.6</ele>
        <time>2021-10-10T07:47:46Z</time>
      </trkpt>
      <trkpt lat="45.04168" lon="5.5477">
        <ele>1123.6</ele>
        <time>2021-10-10T07:47:47Z</time>
      </trkpt>
      <trkpt lat="45.04168" lon="5.54773">
        <ele>1123.6</ele>
        <time>2021-10-10T07:47:48Z</time>
      </trkpt>
      <trkpt lat="45.04167" lon="5.54776">
        <ele>1124.2</ele>
        <time>2021-10-10T07:47:49Z</time>
      </trkpt>
      <trkpt lat="45.04167" lon="5.54778">
        <ele>1124.4</ele>
        <time>2021-10-10T07:47:50Z</time>
      </trkpt>
      <trkpt lat="45.04167" lon="5.54781">
        <ele>1124.4</ele>
        <time>2021-10-10T07:47:51Z</time>
      </trkpt>
      <trkpt lat="45.04167" lon="5.54784">
        <ele>1124.4</ele>
        <time>2021-10-10T07:47:52Z</time>
      </trkpt>
      <trkpt lat="45.04168" lon="5.54786">
        <ele>1125.2</ele>
        <time>2021-10-10T07:47:53Z</time>
      </trkpt>
      <trkpt lat="45.04167" lon="5.54789">
        <ele>1125.2</ele>
        <time>2021-10-10T07:47:54Z</time>
      </trkpt>
      <trkpt lat="45.04168" lon="5.54791">
        <ele>1125.2</ele>
        <time>2021-10-10T07:47:55Z</time>
      </trkpt>
      <trkpt lat="45.04168" lon="5.54794">
        <ele>1125.2</ele>
        <time>2021-10-10T07:47:56Z</time>
      </trkpt>
      <trkpt lat="45.04168" lon="5.54796">
        <ele>1125.8</ele>
        <time>2021-10-10T07:47:57Z</time>
      </trkpt>
      <trkpt lat="45.04168" lon="5.54799">
        <ele>1126</ele>
        <time>2021-10-10T07:47:58Z</time>
      </trkpt>
      <trkpt lat="45.04169" lon="5.54801">
        <ele>1126</ele>
        <time>2021-10-10T07:47:59Z</time>
      </trkpt>
      <trkpt lat="45.0417" lon="5.54804">
        <ele>1126</ele>
        <time>2021-10-10T07:48:00Z</time>
      </trkpt>
      <trkpt lat="45.04171" lon="5.54806">
        <ele>1126</ele>
        <time>2021-10-10T07:48:01Z</time>
      </trkpt>
      <trkpt lat="45.04172" lon="5.54807">
        <ele>1126.6</ele>
        <time>2021-10-10T07:48:02Z</time>
      </trkpt>
      <trkpt lat="45.04173" lon="5.54809">
        <ele>1126.6</ele>
        <time>2021-10-10T07:48:03Z</time>
      </trkpt>
      <trkpt lat="45.04174" lon="5.5481">
        <ele>1126.6</ele>
        <time>2021-10-10T07:48:04Z</time>
      </trkpt>
      <trkpt lat="45.04176" lon="5.54811">
        <ele>1126.6</ele>
        <time>2021-10-10T07:48:05Z</time>
      </trkpt>
      <trkpt lat="45.04177" lon="5.54812">
        <ele>1127</ele>
        <time>2021-10-10T07:48:06Z</time>
      </trkpt>
      <trkpt lat="45.04179" lon="5.54813">
        <ele>1127</ele>
        <time>2021-10-10T07:48:07Z</time>
      </trkpt>
      <trkpt lat="45.04181" lon="5.54814">
        <ele>1127</ele>
        <time>2021-10-10T07:48:08Z</time>
      </trkpt>
      <trkpt lat="45.04183" lon="5.54814">
        <ele>1127.6</ele>
        <time>2021-10-10T07:48:09Z</time>
      </trkpt>
      <trkpt lat="45.04185" lon="5.54815">
        <ele>1127.6</ele>
        <time>2021-10-10T07:48:10Z</time>
      </trkpt>
      <trkpt lat="45.04186" lon="5.54815">
        <ele>1127.6</ele>
        <time>2021-10-10T07:48:11Z</time>
      </trkpt>
      <trkpt lat="45.04188" lon="5.54815">
        <ele>1127.6</ele>
        <time>2021-10-10T07:48:12Z</time>
      </trkpt>
      <trkpt lat="45.0419" lon="5.54815">
        <ele>1128.4</ele>
        <time>2021-10-10T07:48:13Z</time>
      </trkpt>
      <trkpt lat="45.04191" lon="5.54814">
        <ele>1128.6</ele>
        <time>2021-10-10T07:48:14Z</time>
      </trkpt>
      <trkpt lat="45.04193" lon="5.54813">
        <ele>1128.6</ele>
        <time>2021-10-10T07:48:15Z</time>
      </trkpt>
      <trkpt lat="45.04195" lon="5.54813">
        <ele>1128.6</ele>
        <time>2021-10-10T07:48:16Z</time>
      </trkpt>
      <trkpt lat="45.04197" lon="5.54812">
        <ele>1128.6</ele>
        <time>2021-10-10T07:48:17Z</time>
      </trkpt>
      <trkpt lat="45.04199" lon="5.54812">
        <ele>1129.2</ele>
        <time>2021-10-10T07:48:18Z</time>
      </trkpt>
      <trkpt lat="45.04201" lon="5.54812">
        <ele>1129.2</ele>
        <time>2021-10-10T07:48:19Z</time>
      </trkpt>
      <trkpt lat="45.04203" lon="5.54811">
        <ele>1129.2</ele>
        <time>2021-10-10T07:48:20Z</time>
      </trkpt>
      <trkpt lat="45.04205" lon="5.54811">
        <ele>1130.2</ele>
        <time>2021-10-10T07:48:21Z</time>
      </trkpt>
      <trkpt lat="45.04207" lon="5.54811">
        <ele>1130</ele>
        <time>2021-10-10T07:48:22Z</time>
      </trkpt>
      <trkpt lat="45.04208" lon="5.54811">
        <ele>1130</ele>
        <time>2021-10-10T07:48:23Z</time>
      </trkpt>
      <trkpt lat="45.0421" lon="5.54811">
        <ele>1130</ele>
        <time>2021-10-10T07:48:24Z</time>
      </trkpt>
      <trkpt lat="45.04212" lon="5.54811">
        <ele>1130</ele>
        <time>2021-10-10T07:48:25Z</time>
      </trkpt>
      <trkpt lat="45.04213" lon="5.54812">
        <ele>1130.8</ele>
        <time>2021-10-10T07:48:26Z</time>
      </trkpt>
      <trkpt lat="45.04215" lon="5.54812">
        <ele>1130.8</ele>
        <time>2021-10-10T07:48:27Z</time>
      </trkpt>
      <trkpt lat="45.04217" lon="5.54813">
        <ele>1130.8</ele>
        <time>2021-10-10T07:48:28Z</time>
      </trkpt>
      <trkpt lat="45.04218" lon="5.54813">
        <ele>1131.8</ele>
        <time>2021-10-10T07:48:29Z</time>
      </trkpt>
      <trkpt lat="45.0422" lon="5.54813">
        <ele>1132</ele>
        <time>2021-10-10T07:48:30Z</time>
      </trkpt>
      <trkpt lat="45.04222" lon="5.54813">
        <ele>1132</ele>
        <time>2021-10-10T07:48:31Z</time>
      </trkpt>
      <trkpt lat="45.04223" lon="5.54814">
        <ele>1132</ele>
        <time>2021-10-10T07:48:32Z</time>
      </trkpt>
      <trkpt lat="45.04225" lon="5.54814">
        <ele>1133</ele>
        <time>2021-10-10T07:48:33Z</time>
      </trkpt>
      <trkpt lat="45.04226" lon="5.54814">
        <ele>1133</ele>
        <time>2021-10-10T07:48:34Z</time>
      </trkpt>
      <trkpt lat="45.04228" lon="5.54815">
        <ele>1133</ele>
        <time>2021-10-10T07:48:35Z</time>
      </trkpt>
      <trkpt lat="45.04229" lon="5.54815">
        <ele>1133</ele>
        <time>2021-10-10T07:48:36Z</time>
      </trkpt>
      <trkpt lat="45.04231" lon="5.54815">
        <ele>1134</ele>
        <time>2021-10-10T07:48:37Z</time>
      </trkpt>
      <trkpt lat="45.04233" lon="5.54815">
        <ele>1134.4</ele>
        <time>2021-10-10T07:48:38Z</time>
      </trkpt>
      <trkpt lat="45.04234" lon="5.54816">
        <ele>1134.4</ele>
        <time>2021-10-10T07:48:39Z</time>
      </trkpt>
      <trkpt lat="45.04236" lon="5.54817">
        <ele>1134.4</ele>
        <time>2021-10-10T07:48:40Z</time>
      </trkpt>
      <trkpt lat="45.04237" lon="5.54817">
        <ele>1134.4</ele>
        <time>2021-10-10T07:48:41Z</time>
      </trkpt>
      <trkpt lat="45.04239" lon="5.54818">
        <ele>1134.6</ele>
        <time>2021-10-10T07:48:42Z</time>
      </trkpt>
      <trkpt lat="45.04241" lon="5.54818">
        <ele>1134.6</ele>
        <time>2021-10-10T07:48:43Z</time>
      </trkpt>
      <trkpt lat="45.04243" lon="5.54819">
        <ele>1134.6</ele>
        <time>2021-10-10T07:48:44Z</time>
      </trkpt>
      <trkpt lat="45.04245" lon="5.54819">
        <ele>1134.6</ele>
        <time>2021-10-10T07:48:45Z</time>
      </trkpt>
      <trkpt lat="45.04247" lon="5.54819">
        <ele>1135.4</ele>
        <time>2021-10-10T07:48:46Z</time>
      </trkpt>
      <trkpt lat="45.0425" lon="5.5482">
        <ele>1135.4</ele>
        <time>2021-10-10T07:48:47Z</time>
      </trkpt>
      <trkpt lat="45.04251" lon="5.5482">
        <ele>1135.4</ele>
        <time>2021-10-10T07:48:48Z</time>
      </trkpt>
      <trkpt lat="45.04253" lon="5.54821">
        <ele>1135.4</ele>
        <time>2021-10-10T07:48:49Z</time>
      </trkpt>
      <trkpt lat="45.04254" lon="5.54821">
        <ele>1135.6</ele>
        <time>2021-10-10T07:48:50Z</time>
      </trkpt>
      <trkpt lat="45.04256" lon="5.54822">
        <ele>1135.6</ele>
        <time>2021-10-10T07:48:51Z</time>
      </trkpt>
      <trkpt lat="45.04258" lon="5.54823">
        <ele>1135.6</ele>
        <time>2021-10-10T07:48:52Z</time>
      </trkpt>
      <trkpt lat="45.04259" lon="5.54824">
        <ele>1135.6</ele>
        <time>2021-10-10T07:48:53Z</time>
      </trkpt>
      <trkpt lat="45.04261" lon="5.54826">
        <ele>1135.6</ele>
        <time>2021-10-10T07:48:54Z</time>
      </trkpt>
      <trkpt lat="45.04262" lon="5.54827">
        <ele>1135.6</ele>
        <time>2021-10-10T07:48:55Z</time>
      </trkpt>
      <trkpt lat="45.04264" lon="5.54828">
        <ele>1135.6</ele>
        <time>2021-10-10T07:48:56Z</time>
      </trkpt>
      <trkpt lat="45.04265" lon="5.5483">
        <ele>1135.8</ele>
        <time>2021-10-10T07:48:57Z</time>
      </trkpt>
      <trkpt lat="45.04267" lon="5.54831">
        <ele>1135.6</ele>
        <time>2021-10-10T07:48:58Z</time>
      </trkpt>
      <trkpt lat="45.04269" lon="5.54832">
        <ele>1135.6</ele>
        <time>2021-10-10T07:48:59Z</time>
      </trkpt>
      <trkpt lat="45.0427" lon="5.54834">
        <ele>1135.6</ele>
        <time>2021-10-10T07:49:00Z</time>
      </trkpt>
      <trkpt lat="45.04271" lon="5.54837">
        <ele>1136</ele>
        <time>2021-10-10T07:49:01Z</time>
      </trkpt>
      <trkpt lat="45.04272" lon="5.5484">
        <ele>1136</ele>
        <time>2021-10-10T07:49:02Z</time>
      </trkpt>
      <trkpt lat="45.04272" lon="5.54843">
        <ele>1136</ele>
        <time>2021-10-10T07:49:03Z</time>
      </trkpt>
      <trkpt lat="45.04272" lon="5.54847">
        <ele>1136</ele>
        <time>2021-10-10T07:49:04Z</time>
      </trkpt>
      <trkpt lat="45.04272" lon="5.5485">
        <ele>1136.4</ele>
        <time>2021-10-10T07:49:05Z</time>
      </trkpt>
      <trkpt lat="45.04271" lon="5.54853">
        <ele>1136.6</ele>
        <time>2021-10-10T07:49:06Z</time>
      </trkpt>
      <trkpt lat="45.0427" lon="5.54856">
        <ele>1136.6</ele>
        <time>2021-10-10T07:49:07Z</time>
      </trkpt>
      <trkpt lat="45.04269" lon="5.54859">
        <ele>1136.6</ele>
        <time>2021-10-10T07:49:08Z</time>
      </trkpt>
      <trkpt lat="45.04268" lon="5.54862">
        <ele>1136.6</ele>
        <time>2021-10-10T07:49:09Z</time>
      </trkpt>
      <trkpt lat="45.04268" lon="5.54865">
        <ele>1136.8</ele>
        <time>2021-10-10T07:49:10Z</time>
      </trkpt>
      <trkpt lat="45.04267" lon="5.54868">
        <ele>1136.8</ele>
        <time>2021-10-10T07:49:11Z</time>
      </trkpt>
      <trkpt lat="45.04265" lon="5.54871">
        <ele>1136.8</ele>
        <time>2021-10-10T07:49:12Z</time>
      </trkpt>
      <trkpt lat="45.04264" lon="5.54873">
        <ele>1137.4</ele>
        <time>2021-10-10T07:49:13Z</time>
      </trkpt>
      <trkpt lat="45.04263" lon="5.54875">
        <ele>1137.8</ele>
        <time>2021-10-10T07:49:14Z</time>
      </trkpt>
      <trkpt lat="45.04261" lon="5.54878">
        <ele>1137.8</ele>
        <time>2021-10-10T07:49:15Z</time>
      </trkpt>
      <trkpt lat="45.0426" lon="5.5488">
        <ele>1137.8</ele>
        <time>2021-10-10T07:49:16Z</time>
      </trkpt>
      <trkpt lat="45.04259" lon="5.54881">
        <ele>1138.6</ele>
        <time>2021-10-10T07:49:17Z</time>
      </trkpt>
      <trkpt lat="45.04258" lon="5.54883">
        <ele>1139</ele>
        <time>2021-10-10T07:49:18Z</time>
      </trkpt>
      <trkpt lat="45.04257" lon="5.54885">
        <ele>1139</ele>
        <time>2021-10-10T07:49:19Z</time>
      </trkpt>
      <trkpt lat="45.04257" lon="5.54887">
        <ele>1139</ele>
        <time>2021-10-10T07:49:20Z</time>
      </trkpt>
      <trkpt lat="45.04256" lon="5.54889">
        <ele>1139.6</ele>
        <time>2021-10-10T07:49:21Z</time>
      </trkpt>
      <trkpt lat="45.04255" lon="5.54891">
        <ele>1139</ele>
        <time>2021-10-10T07:49:22Z</time>
      </trkpt>
      <trkpt lat="45.04255" lon="5.54892">
        <ele>1139</ele>
        <time>2021-10-10T07:49:23Z</time>
      </trkpt>
      <trkpt lat="45.04254" lon="5.54892">
        <ele>1139</ele>
        <time>2021-10-10T07:49:24Z</time>
      </trkpt>
      <trkpt lat="45.04252" lon="5.54897">
        <ele>1139.4</ele>
        <time>2021-10-10T07:49:35Z</time>
      </trkpt>
      <trkpt lat="45.04252" lon="5.54899">
        <ele>1139.4</ele>
        <time>2021-10-10T07:49:36Z</time>
      </trkpt>
      <trkpt lat="45.04252" lon="5.54903">
        <ele>1139</ele>
        <time>2021-10-10T07:49:37Z</time>
      </trkpt>
      <trkpt lat="45.0425" lon="5.54906">
        <ele>1138.6</ele>
        <time>2021-10-10T07:49:38Z</time>
      </trkpt>
      <trkpt lat="45.04249" lon="5.54909">
        <ele>1138.6</ele>
        <time>2021-10-10T07:49:39Z</time>
      </trkpt>
      <trkpt lat="45.04247" lon="5.54913">
        <ele>1138.6</ele>
        <time>2021-10-10T07:49:40Z</time>
      </trkpt>
      <trkpt lat="45.04245" lon="5.54917">
        <ele>1138</ele>
        <time>2021-10-10T07:49:41Z</time>
      </trkpt>
      <trkpt lat="45.04242" lon="5.54921">
        <ele>1137.8</ele>
        <time>2021-10-10T07:49:42Z</time>
      </trkpt>
      <trkpt lat="45.0424" lon="5.54924">
        <ele>1137.8</ele>
        <time>2021-10-10T07:49:43Z</time>
      </trkpt>
      <trkpt lat="45.04238" lon="5.54928">
        <ele>1137.8</ele>
        <time>2021-10-10T07:49:44Z</time>
      </trkpt>
      <trkpt lat="45.04236" lon="5.54931">
        <ele>1137.8</ele>
        <time>2021-10-10T07:49:45Z</time>
      </trkpt>
      <trkpt lat="45.04234" lon="5.54933">
        <ele>1138.8</ele>
        <time>2021-10-10T07:49:46Z</time>
      </trkpt>
      <trkpt lat="45.04233" lon="5.54937">
        <ele>1138.8</ele>
        <time>2021-10-10T07:49:47Z</time>
      </trkpt>
      <trkpt lat="45.0423" lon="5.54939">
        <ele>1138.8</ele>
        <time>2021-10-10T07:49:48Z</time>
      </trkpt>
      <trkpt lat="45.04229" lon="5.54941">
        <ele>1138.8</ele>
        <time>2021-10-10T07:49:49Z</time>
      </trkpt>
      <trkpt lat="45.04227" lon="5.54945">
        <ele>1139</ele>
        <time>2021-10-10T07:49:50Z</time>
      </trkpt>
      <trkpt lat="45.04225" lon="5.54948">
        <ele>1139</ele>
        <time>2021-10-10T07:49:51Z</time>
      </trkpt>
      <trkpt lat="45.04222" lon="5.54951">
        <ele>1139</ele>
        <time>2021-10-10T07:49:52Z</time>
      </trkpt>
      <trkpt lat="45.04219" lon="5.54954">
        <ele>1139</ele>
        <time>2021-10-10T07:49:53Z</time>
      </trkpt>
      <trkpt lat="45.04217" lon="5.54956">
        <ele>1139</ele>
        <time>2021-10-10T07:49:54Z</time>
      </trkpt>
      <trkpt lat="45.04214" lon="5.54959">
        <ele>1139</ele>
        <time>2021-10-10T07:49:55Z</time>
      </trkpt>
      <trkpt lat="45.04211" lon="5.54962">
        <ele>1139</ele>
        <time>2021-10-10T07:49:56Z</time>
      </trkpt>
      <trkpt lat="45.0421" lon="5.54964">
        <ele>1139</ele>
        <time>2021-10-10T07:49:57Z</time>
      </trkpt>
      <trkpt lat="45.04208" lon="5.54967">
        <ele>1140</ele>
        <time>2021-10-10T07:49:58Z</time>
      </trkpt>
      <trkpt lat="45.04206" lon="5.54968">
        <ele>1140</ele>
        <time>2021-10-10T07:49:59Z</time>
      </trkpt>
      <trkpt lat="45.04203" lon="5.54971">
        <ele>1140</ele>
        <time>2021-10-10T07:50:00Z</time>
      </trkpt>
      <trkpt lat="45.04201" lon="5.54973">
        <ele>1140</ele>
        <time>2021-10-10T07:50:01Z</time>
      </trkpt>
      <trkpt lat="45.04198" lon="5.54974">
        <ele>1140.4</ele>
        <time>2021-10-10T07:50:02Z</time>
      </trkpt>
      <trkpt lat="45.04196" lon="5.54976">
        <ele>1140.4</ele>
        <time>2021-10-10T07:50:03Z</time>
      </trkpt>
      <trkpt lat="45.04194" lon="5.54978">
        <ele>1140.4</ele>
        <time>2021-10-10T07:50:04Z</time>
      </trkpt>
      <trkpt lat="45.04193" lon="5.54979">
        <ele>1140.4</ele>
        <time>2021-10-10T07:50:05Z</time>
      </trkpt>
      <trkpt lat="45.04191" lon="5.5498">
        <ele>1139.2</ele>
        <time>2021-10-10T07:50:06Z</time>
      </trkpt>
      <trkpt lat="45.04187" lon="5.54982">
        <ele>1139.2</ele>
        <time>2021-10-10T07:50:07Z</time>
      </trkpt>
      <trkpt lat="45.04184" lon="5.54985">
        <ele>1139.2</ele>
        <time>2021-10-10T07:50:08Z</time>
      </trkpt>
      <trkpt lat="45.04181" lon="5.54988">
        <ele>1138.4</ele>
        <time>2021-10-10T07:50:09Z</time>
      </trkpt>
      <trkpt lat="45.04177" lon="5.54992">
        <ele>1138.8</ele>
        <time>2021-10-10T07:50:10Z</time>
      </trkpt>
      <trkpt lat="45.04173" lon="5.54995">
        <ele>1138.8</ele>
        <time>2021-10-10T07:50:11Z</time>
      </trkpt>
      <trkpt lat="45.0417" lon="5.54999">
        <ele>1138.8</ele>
        <time>2021-10-10T07:50:12Z</time>
      </trkpt>
      <trkpt lat="45.04167" lon="5.55002">
        <ele>1138.8</ele>
        <time>2021-10-10T07:50:13Z</time>
      </trkpt>
      <trkpt lat="45.04163" lon="5.55005">
        <ele>1139.2</ele>
        <time>2021-10-10T07:50:14Z</time>
      </trkpt>
      <trkpt lat="45.0416" lon="5.55009">
        <ele>1139.2</ele>
        <time>2021-10-10T07:50:15Z</time>
      </trkpt>
      <trkpt lat="45.04157" lon="5.55011">
        <ele>1139.2</ele>
        <time>2021-10-10T07:50:16Z</time>
      </trkpt>
      <trkpt lat="45.04154" lon="5.55013">
        <ele>1140.2</ele>
        <time>2021-10-10T07:50:17Z</time>
      </trkpt>
      <trkpt lat="45.04152" lon="5.55015">
        <ele>1141</ele>
        <time>2021-10-10T07:50:18Z</time>
      </trkpt>
      <trkpt lat="45.0415" lon="5.55017">
        <ele>1141</ele>
        <time>2021-10-10T07:50:19Z</time>
      </trkpt>
      <trkpt lat="45.04148" lon="5.5502">
        <ele>1141</ele>
        <time>2021-10-10T07:50:20Z</time>
      </trkpt>
      <trkpt lat="45.04146" lon="5.55022">
        <ele>1141.2</ele>
        <time>2021-10-10T07:50:21Z</time>
      </trkpt>
      <trkpt lat="45.04143" lon="5.55025">
        <ele>1141.2</ele>
        <time>2021-10-10T07:50:22Z</time>
      </trkpt>
      <trkpt lat="45.0414" lon="5.55028">
        <ele>1141.2</ele>
        <time>2021-10-10T07:50:23Z</time>
      </trkpt>
      <trkpt lat="45.04136" lon="5.55032">
        <ele>1141.2</ele>
        <time>2021-10-10T07:50:24Z</time>
      </trkpt>
      <trkpt lat="45.04135" lon="5.55038">
        <ele>1141.2</ele>
        <time>2021-10-10T07:50:25Z</time>
      </trkpt>
      <trkpt lat="45.04134" lon="5.55044">
        <ele>1141.2</ele>
        <time>2021-10-10T07:50:26Z</time>
      </trkpt>
      <trkpt lat="45.04133" lon="5.55049">
        <ele>1141.2</ele>
        <time>2021-10-10T07:50:27Z</time>
      </trkpt>
      <trkpt lat="45.04132" lon="5.55054">
        <ele>1141.2</ele>
        <time>2021-10-10T07:50:28Z</time>
      </trkpt>
      <trkpt lat="45.04131" lon="5.55063">
        <ele>1141.4</ele>
        <time>2021-10-10T07:50:29Z</time>
      </trkpt>
      <trkpt lat="45.04132" lon="5.55071">
        <ele>1141.8</ele>
        <time>2021-10-10T07:50:30Z</time>
      </trkpt>
      <trkpt lat="45.04132" lon="5.55079">
        <ele>1141.8</ele>
        <time>2021-10-10T07:50:31Z</time>
      </trkpt>
      <trkpt lat="45.04133" lon="5.55084">
        <ele>1141.8</ele>
        <time>2021-10-10T07:50:32Z</time>
      </trkpt>
      <trkpt lat="45.04135" lon="5.55089">
        <ele>1141.8</ele>
        <time>2021-10-10T07:50:33Z</time>
      </trkpt>
      <trkpt lat="45.04137" lon="5.55094">
        <ele>1142.2</ele>
        <time>2021-10-10T07:50:34Z</time>
      </trkpt>
      <trkpt lat="45.04138" lon="5.55098">
        <ele>1142.2</ele>
        <time>2021-10-10T07:50:35Z</time>
      </trkpt>
      <trkpt lat="45.0414" lon="5.55102">
        <ele>1142.2</ele>
        <time>2021-10-10T07:50:36Z</time>
      </trkpt>
      <trkpt lat="45.04142" lon="5.55104">
        <ele>1142.2</ele>
        <time>2021-10-10T07:50:37Z</time>
      </trkpt>
      <trkpt lat="45.04143" lon="5.55107">
        <ele>1143.4</ele>
        <time>2021-10-10T07:50:38Z</time>
      </trkpt>
      <trkpt lat="45.04144" lon="5.5511">
        <ele>1143.4</ele>
        <time>2021-10-10T07:50:39Z</time>
      </trkpt>
      <trkpt lat="45.04146" lon="5.55113">
        <ele>1143.4</ele>
        <time>2021-10-10T07:50:40Z</time>
      </trkpt>
      <trkpt lat="45.04147" lon="5.55115">
        <ele>1143.4</ele>
        <time>2021-10-10T07:50:41Z</time>
      </trkpt>
      <trkpt lat="45.04147" lon="5.55118">
        <ele>1144.2</ele>
        <time>2021-10-10T07:50:42Z</time>
      </trkpt>
      <trkpt lat="45.04149" lon="5.5512">
        <ele>1144.2</ele>
        <time>2021-10-10T07:50:43Z</time>
      </trkpt>
      <trkpt lat="45.04149" lon="5.55122">
        <ele>1144.2</ele>
        <time>2021-10-10T07:50:44Z</time>
      </trkpt>
      <trkpt lat="45.04149" lon="5.55124">
        <ele>1144.8</ele>
        <time>2021-10-10T07:50:45Z</time>
      </trkpt>
      <trkpt lat="45.0415" lon="5.55126">
        <ele>1144.8</ele>
        <time>2021-10-10T07:50:46Z</time>
      </trkpt>
      <trkpt lat="45.0415" lon="5.55128">
        <ele>1144.8</ele>
        <time>2021-10-10T07:50:47Z</time>
      </trkpt>
      <trkpt lat="45.0415" lon="5.5513">
        <ele>1144.8</ele>
        <time>2021-10-10T07:50:48Z</time>
      </trkpt>
      <trkpt lat="45.0415" lon="5.55132">
        <ele>1145.4</ele>
        <time>2021-10-10T07:50:49Z</time>
      </trkpt>
      <trkpt lat="45.0415" lon="5.55135">
        <ele>1145.6</ele>
        <time>2021-10-10T07:50:50Z</time>
      </trkpt>
      <trkpt lat="45.0415" lon="5.55137">
        <ele>1145.6</ele>
        <time>2021-10-10T07:50:51Z</time>
      </trkpt>
      <trkpt lat="45.0415" lon="5.55139">
        <ele>1145.6</ele>
        <time>2021-10-10T07:50:52Z</time>
      </trkpt>
      <trkpt lat="45.0415" lon="5.55141">
        <ele>1146.6</ele>
        <time>2021-10-10T07:50:53Z</time>
      </trkpt>
      <trkpt lat="45.04149" lon="5.55143">
        <ele>1147.2</ele>
        <time>2021-10-10T07:50:54Z</time>
      </trkpt>
      <trkpt lat="45.04148" lon="5.55144">
        <ele>1147.2</ele>
        <time>2021-10-10T07:50:55Z</time>
      </trkpt>
      <trkpt lat="45.04147" lon="5.55146">
        <ele>1147.2</ele>
        <time>2021-10-10T07:50:56Z</time>
      </trkpt>
      <trkpt lat="45.04145" lon="5.55148">
        <ele>1148</ele>
        <time>2021-10-10T07:50:57Z</time>
      </trkpt>
      <trkpt lat="45.04144" lon="5.55149">
        <ele>1147.8</ele>
        <time>2021-10-10T07:50:58Z</time>
      </trkpt>
      <trkpt lat="45.04143" lon="5.55151">
        <ele>1147.8</ele>
        <time>2021-10-10T07:50:59Z</time>
      </trkpt>
      <trkpt lat="45.04142" lon="5.55153">
        <ele>1147.8</ele>
        <time>2021-10-10T07:51:00Z</time>
      </trkpt>
      <trkpt lat="45.04142" lon="5.55154">
        <ele>1148.6</ele>
        <time>2021-10-10T07:51:01Z</time>
      </trkpt>
      <trkpt lat="45.04141" lon="5.55156">
        <ele>1149</ele>
        <time>2021-10-10T07:51:02Z</time>
      </trkpt>
      <trkpt lat="45.0414" lon="5.55157">
        <ele>1149</ele>
        <time>2021-10-10T07:51:03Z</time>
      </trkpt>
      <trkpt lat="45.0414" lon="5.55159">
        <ele>1149</ele>
        <time>2021-10-10T07:51:04Z</time>
      </trkpt>
      <trkpt lat="45.04139" lon="5.55161">
        <ele>1149</ele>
        <time>2021-10-10T07:51:05Z</time>
      </trkpt>
      <trkpt lat="45.04138" lon="5.55162">
        <ele>1149.2</ele>
        <time>2021-10-10T07:51:06Z</time>
      </trkpt>
      <trkpt lat="45.04138" lon="5.55163">
        <ele>1149.2</ele>
        <time>2021-10-10T07:51:07Z</time>
      </trkpt>
      <trkpt lat="45.04138" lon="5.55166">
        <ele>1149.2</ele>
        <time>2021-10-10T07:51:08Z</time>
      </trkpt>
      <trkpt lat="45.04138" lon="5.55167">
        <ele>1150</ele>
        <time>2021-10-10T07:51:09Z</time>
      </trkpt>
      <trkpt lat="45.04138" lon="5.55169">
        <ele>1149.8</ele>
        <time>2021-10-10T07:51:10Z</time>
      </trkpt>
      <trkpt lat="45.04138" lon="5.55171">
        <ele>1149.8</ele>
        <time>2021-10-10T07:51:11Z</time>
      </trkpt>
      <trkpt lat="45.04137" lon="5.55173">
        <ele>1149.8</ele>
        <time>2021-10-10T07:51:12Z</time>
      </trkpt>
      <trkpt lat="45.04138" lon="5.55175">
        <ele>1150.8</ele>
        <time>2021-10-10T07:51:13Z</time>
      </trkpt>
      <trkpt lat="45.04138" lon="5.55176">
        <ele>1150.8</ele>
        <time>2021-10-10T07:51:14Z</time>
      </trkpt>
      <trkpt lat="45.04137" lon="5.55177">
        <ele>1150.8</ele>
        <time>2021-10-10T07:51:15Z</time>
      </trkpt>
      <trkpt lat="45.04137" lon="5.55179">
        <ele>1150.8</ele>
        <time>2021-10-10T07:51:16Z</time>
      </trkpt>
      <trkpt lat="45.04137" lon="5.5518">
        <ele>1151.6</ele>
        <time>2021-10-10T07:51:17Z</time>
      </trkpt>
      <trkpt lat="45.04138" lon="5.55182">
        <ele>1151.8</ele>
        <time>2021-10-10T07:51:18Z</time>
      </trkpt>
      <trkpt lat="45.04138" lon="5.55185">
        <ele>1151.8</ele>
        <time>2021-10-10T07:51:19Z</time>
      </trkpt>
      <trkpt lat="45.04138" lon="5.55186">
        <ele>1151.8</ele>
        <time>2021-10-10T07:51:20Z</time>
      </trkpt>
      <trkpt lat="45.04138" lon="5.55188">
        <ele>1151.8</ele>
        <time>2021-10-10T07:51:21Z</time>
      </trkpt>
      <trkpt lat="45.04138" lon="5.5519">
        <ele>1152.6</ele>
        <time>2021-10-10T07:51:22Z</time>
      </trkpt>
      <trkpt lat="45.04139" lon="5.55192">
        <ele>1152.6</ele>
        <time>2021-10-10T07:51:23Z</time>
      </trkpt>
      <trkpt lat="45.0414" lon="5.55193">
        <ele>1152.6</ele>
        <time>2021-10-10T07:51:24Z</time>
      </trkpt>
      <trkpt lat="45.0414" lon="5.55195">
        <ele>1152.6</ele>
        <time>2021-10-10T07:51:25Z</time>
      </trkpt>
      <trkpt lat="45.04141" lon="5.55197">
        <ele>1153.4</ele>
        <time>2021-10-10T07:51:26Z</time>
      </trkpt>
      <trkpt lat="45.04142" lon="5.55198">
        <ele>1153.4</ele>
        <time>2021-10-10T07:51:27Z</time>
      </trkpt>
      <trkpt lat="45.04143" lon="5.552">
        <ele>1153.4</ele>
        <time>2021-10-10T07:51:28Z</time>
      </trkpt>
      <trkpt lat="45.04143" lon="5.55201">
        <ele>1154.4</ele>
        <time>2021-10-10T07:51:29Z</time>
      </trkpt>
      <trkpt lat="45.04144" lon="5.55203">
        <ele>1154.4</ele>
        <time>2021-10-10T07:51:30Z</time>
      </trkpt>
      <trkpt lat="45.04144" lon="5.55205">
        <ele>1154.4</ele>
        <time>2021-10-10T07:51:31Z</time>
      </trkpt>
      <trkpt lat="45.04145" lon="5.55206">
        <ele>1154.4</ele>
        <time>2021-10-10T07:51:32Z</time>
      </trkpt>
      <trkpt lat="45.04146" lon="5.55207">
        <ele>1154.8</ele>
        <time>2021-10-10T07:51:33Z</time>
      </trkpt>
      <trkpt lat="45.04147" lon="5.55208">
        <ele>1155.2</ele>
        <time>2021-10-10T07:51:34Z</time>
      </trkpt>
      <trkpt lat="45.04148" lon="5.5521">
        <ele>1155.2</ele>
        <time>2021-10-10T07:51:35Z</time>
      </trkpt>
      <trkpt lat="45.04149" lon="5.55212">
        <ele>1155.2</ele>
        <time>2021-10-10T07:51:36Z</time>
      </trkpt>
      <trkpt lat="45.0415" lon="5.55214">
        <ele>1155.4</ele>
        <time>2021-10-10T07:51:37Z</time>
      </trkpt>
      <trkpt lat="45.0415" lon="5.55216">
        <ele>1155.6</ele>
        <time>2021-10-10T07:51:38Z</time>
      </trkpt>
      <trkpt lat="45.04151" lon="5.55218">
        <ele>1155.6</ele>
        <time>2021-10-10T07:51:39Z</time>
      </trkpt>
      <trkpt lat="45.04152" lon="5.5522">
        <ele>1155.6</ele>
        <time>2021-10-10T07:51:40Z</time>
      </trkpt>
      <trkpt lat="45.04153" lon="5.55222">
        <ele>1155.6</ele>
        <time>2021-10-10T07:51:41Z</time>
      </trkpt>
      <trkpt lat="45.04154" lon="5.55223">
        <ele>1156</ele>
        <time>2021-10-10T07:51:42Z</time>
      </trkpt>
      <trkpt lat="45.04154" lon="5.55225">
        <ele>1156</ele>
        <time>2021-10-10T07:51:43Z</time>
      </trkpt>
      <trkpt lat="45.04154" lon="5.55227">
        <ele>1156</ele>
        <time>2021-10-10T07:51:44Z</time>
      </trkpt>
      <trkpt lat="45.04155" lon="5.55229">
        <ele>1156</ele>
        <time>2021-10-10T07:51:45Z</time>
      </trkpt>
      <trkpt lat="45.04156" lon="5.55231">
        <ele>1156.6</ele>
        <time>2021-10-10T07:51:46Z</time>
      </trkpt>
      <trkpt lat="45.04158" lon="5.55233">
        <ele>1156.6</ele>
        <time>2021-10-10T07:51:47Z</time>
      </trkpt>
      <trkpt lat="45.04159" lon="5.55234">
        <ele>1156.6</ele>
        <time>2021-10-10T07:51:48Z</time>
      </trkpt>
      <trkpt lat="45.0416" lon="5.55236">
        <ele>1156.6</ele>
        <time>2021-10-10T07:51:49Z</time>
      </trkpt>
      <trkpt lat="45.04161" lon="5.55238">
        <ele>1156.8</ele>
        <time>2021-10-10T07:51:50Z</time>
      </trkpt>
      <trkpt lat="45.04165" lon="5.55242">
        <ele>1156.8</ele>
        <time>2021-10-10T07:51:51Z</time>
      </trkpt>
      <trkpt lat="45.04166" lon="5.55244">
        <ele>1156.8</ele>
        <time>2021-10-10T07:51:52Z</time>
      </trkpt>
      <trkpt lat="45.04168" lon="5.55246">
        <ele>1156.8</ele>
        <time>2021-10-10T07:51:53Z</time>
      </trkpt>
      <trkpt lat="45.04168" lon="5.55246">
        <ele>1157</ele>
        <time>2021-10-10T07:51:54Z</time>
      </trkpt>
      <trkpt lat="45.0417" lon="5.55248">
        <ele>1157</ele>
        <time>2021-10-10T07:51:55Z</time>
      </trkpt>
      <trkpt lat="45.04171" lon="5.55249">
        <ele>1157</ele>
        <time>2021-10-10T07:51:56Z</time>
      </trkpt>
      <trkpt lat="45.04171" lon="5.5525">
        <ele>1157</ele>
        <time>2021-10-10T07:51:57Z</time>
      </trkpt>
      <trkpt lat="45.04173" lon="5.55252">
        <ele>1157.4</ele>
        <time>2021-10-10T07:51:58Z</time>
      </trkpt>
      <trkpt lat="45.04174" lon="5.55253">
        <ele>1157.4</ele>
        <time>2021-10-10T07:51:59Z</time>
      </trkpt>
      <trkpt lat="45.04175" lon="5.55255">
        <ele>1157.4</ele>
        <time>2021-10-10T07:52:00Z</time>
      </trkpt>
      <trkpt lat="45.04177" lon="5.55258">
        <ele>1157.4</ele>
        <time>2021-10-10T07:52:01Z</time>
      </trkpt>
      <trkpt lat="45.04178" lon="5.55259">
        <ele>1157.2</ele>
        <time>2021-10-10T07:52:02Z</time>
      </trkpt>
      <trkpt lat="45.0418" lon="5.55262">
        <ele>1157.2</ele>
        <time>2021-10-10T07:52:03Z</time>
      </trkpt>
      <trkpt lat="45.04181" lon="5.55264">
        <ele>1157.2</ele>
        <time>2021-10-10T07:52:04Z</time>
      </trkpt>
      <trkpt lat="45.04183" lon="5.55267">
        <ele>1158</ele>
        <time>2021-10-10T07:52:05Z</time>
      </trkpt>
      <trkpt lat="45.04184" lon="5.55269">
        <ele>1158</ele>
        <time>2021-10-10T07:52:06Z</time>
      </trkpt>
      <trkpt lat="45.04185" lon="5.55272">
        <ele>1158</ele>
        <time>2021-10-10T07:52:07Z</time>
      </trkpt>
      <trkpt lat="45.04187" lon="5.55274">
        <ele>1158</ele>
        <time>2021-10-10T07:52:08Z</time>
      </trkpt>
      <trkpt lat="45.04189" lon="5.55277">
        <ele>1157.8</ele>
        <time>2021-10-10T07:52:09Z</time>
      </trkpt>
      <trkpt lat="45.04191" lon="5.55281">
        <ele>1157.8</ele>
        <time>2021-10-10T07:52:10Z</time>
      </trkpt>
      <trkpt lat="45.04192" lon="5.55285">
        <ele>1157.8</ele>
        <time>2021-10-10T07:52:11Z</time>
      </trkpt>
      <trkpt lat="45.04194" lon="5.55289">
        <ele>1157.8</ele>
        <time>2021-10-10T07:52:12Z</time>
      </trkpt>
      <trkpt lat="45.04196" lon="5.55292">
        <ele>1157.8</ele>
        <time>2021-10-10T07:52:13Z</time>
      </trkpt>
      <trkpt lat="45.04199" lon="5.55295">
        <ele>1158</ele>
        <time>2021-10-10T07:52:14Z</time>
      </trkpt>
      <trkpt lat="45.04201" lon="5.55298">
        <ele>1158</ele>
        <time>2021-10-10T07:52:15Z</time>
      </trkpt>
      <trkpt lat="45.04203" lon="5.55301">
        <ele>1158</ele>
        <time>2021-10-10T07:52:16Z</time>
      </trkpt>
      <trkpt lat="45.04204" lon="5.55305">
        <ele>1158</ele>
        <time>2021-10-10T07:52:17Z</time>
      </trkpt>
      <trkpt lat="45.04205" lon="5.55308">
        <ele>1158</ele>
        <time>2021-10-10T07:52:18Z</time>
      </trkpt>
      <trkpt lat="45.04207" lon="5.55311">
        <ele>1158</ele>
        <time>2021-10-10T07:52:19Z</time>
      </trkpt>
      <trkpt lat="45.04208" lon="5.55315">
        <ele>1158</ele>
        <time>2021-10-10T07:52:20Z</time>
      </trkpt>
      <trkpt lat="45.04209" lon="5.55318">
        <ele>1158.8</ele>
        <time>2021-10-10T07:52:21Z</time>
      </trkpt>
      <trkpt lat="45.0421" lon="5.55322">
        <ele>1159.2</ele>
        <time>2021-10-10T07:52:22Z</time>
      </trkpt>
      <trkpt lat="45.04212" lon="5.55325">
        <ele>1159.2</ele>
        <time>2021-10-10T07:52:23Z</time>
      </trkpt>
      <trkpt lat="45.04213" lon="5.55327">
        <ele>1159.2</ele>
        <time>2021-10-10T07:52:24Z</time>
      </trkpt>
      <trkpt lat="45.04214" lon="5.5533">
        <ele>1159.4</ele>
        <time>2021-10-10T07:52:25Z</time>
      </trkpt>
      <trkpt lat="45.04216" lon="5.55332">
        <ele>1159.4</ele>
        <time>2021-10-10T07:52:26Z</time>
      </trkpt>
      <trkpt lat="45.04217" lon="5.55335">
        <ele>1159.4</ele>
        <time>2021-10-10T07:52:27Z</time>
      </trkpt>
      <trkpt lat="45.04218" lon="5.55338">
        <ele>1159.4</ele>
        <time>2021-10-10T07:52:28Z</time>
      </trkpt>
      <trkpt lat="45.04219" lon="5.55341">
        <ele>1159.4</ele>
        <time>2021-10-10T07:52:29Z</time>
      </trkpt>
      <trkpt lat="45.04221" lon="5.55344">
        <ele>1159.6</ele>
        <time>2021-10-10T07:52:30Z</time>
      </trkpt>
      <trkpt lat="45.04222" lon="5.55347">
        <ele>1159.6</ele>
        <time>2021-10-10T07:52:31Z</time>
      </trkpt>
      <trkpt lat="45.04224" lon="5.5535">
        <ele>1159.6</ele>
        <time>2021-10-10T07:52:32Z</time>
      </trkpt>
      <trkpt lat="45.04225" lon="5.55353">
        <ele>1160.4</ele>
        <time>2021-10-10T07:52:33Z</time>
      </trkpt>
      <trkpt lat="45.04226" lon="5.55356">
        <ele>1160.8</ele>
        <time>2021-10-10T07:52:34Z</time>
      </trkpt>
      <trkpt lat="45.04227" lon="5.55359">
        <ele>1160.8</ele>
        <time>2021-10-10T07:52:35Z</time>
      </trkpt>
      <trkpt lat="45.04228" lon="5.55361">
        <ele>1160.8</ele>
        <time>2021-10-10T07:52:36Z</time>
      </trkpt>
      <trkpt lat="45.04229" lon="5.55363">
        <ele>1160.8</ele>
        <time>2021-10-10T07:52:37Z</time>
      </trkpt>
      <trkpt lat="45.0423" lon="5.55366">
        <ele>1161.6</ele>
        <time>2021-10-10T07:52:38Z</time>
      </trkpt>
      <trkpt lat="45.04231" lon="5.55368">
        <ele>1161.6</ele>
        <time>2021-10-10T07:52:39Z</time>
      </trkpt>
      <trkpt lat="45.04232" lon="5.5537">
        <ele>1161.6</ele>
        <time>2021-10-10T07:52:40Z</time>
      </trkpt>
      <trkpt lat="45.04233" lon="5.55372">
        <ele>1162.2</ele>
        <time>2021-10-10T07:52:41Z</time>
      </trkpt>
      <trkpt lat="45.04233" lon="5.55374">
        <ele>1162.6</ele>
        <time>2021-10-10T07:52:42Z</time>
      </trkpt>
      <trkpt lat="45.04234" lon="5.55375">
        <ele>1162.6</ele>
        <time>2021-10-10T07:52:43Z</time>
      </trkpt>
      <trkpt lat="45.04235" lon="5.55377">
        <ele>1162.6</ele>
        <time>2021-10-10T07:52:44Z</time>
      </trkpt>
      <trkpt lat="45.04236" lon="5.55378">
        <ele>1162.6</ele>
        <time>2021-10-10T07:52:45Z</time>
      </trkpt>
      <trkpt lat="45.04237" lon="5.55379">
        <ele>1162.6</ele>
        <time>2021-10-10T07:52:46Z</time>
      </trkpt>
      <trkpt lat="45.04237" lon="5.5538">
        <ele>1162.6</ele>
        <time>2021-10-10T07:52:47Z</time>
      </trkpt>
      <trkpt lat="45.04237" lon="5.55381">
        <ele>1162.6</ele>
        <time>2021-10-10T07:52:48Z</time>
      </trkpt>
      <trkpt lat="45.04238" lon="5.55383">
        <ele>1162.4</ele>
        <time>2021-10-10T07:52:49Z</time>
      </trkpt>
      <trkpt lat="45.04239" lon="5.55384">
        <ele>1162.2</ele>
        <time>2021-10-10T07:52:50Z</time>
      </trkpt>
      <trkpt lat="45.0424" lon="5.55386">
        <ele>1162.2</ele>
        <time>2021-10-10T07:52:51Z</time>
      </trkpt>
      <trkpt lat="45.04241" lon="5.55387">
        <ele>1162.2</ele>
        <time>2021-10-10T07:52:52Z</time>
      </trkpt>
      <trkpt lat="45.04242" lon="5.55389">
        <ele>1161.8</ele>
        <time>2021-10-10T07:52:53Z</time>
      </trkpt>
      <trkpt lat="45.04243" lon="5.5539">
        <ele>1161.6</ele>
        <time>2021-10-10T07:52:54Z</time>
      </trkpt>
      <trkpt lat="45.04244" lon="5.55392">
        <ele>1161.6</ele>
        <time>2021-10-10T07:52:55Z</time>
      </trkpt>
      <trkpt lat="45.04245" lon="5.55394">
        <ele>1161.6</ele>
        <time>2021-10-10T07:52:56Z</time>
      </trkpt>
      <trkpt lat="45.04246" lon="5.55398">
        <ele>1160.8</ele>
        <time>2021-10-10T07:52:57Z</time>
      </trkpt>
      <trkpt lat="45.04248" lon="5.55401">
        <ele>1160.2</ele>
        <time>2021-10-10T07:52:58Z</time>
      </trkpt>
      <trkpt lat="45.0425" lon="5.55406">
        <ele>1160.2</ele>
        <time>2021-10-10T07:52:59Z</time>
      </trkpt>
      <trkpt lat="45.04253" lon="5.5541">
        <ele>1160.2</ele>
        <time>2021-10-10T07:53:00Z</time>
      </trkpt>
      <trkpt lat="45.04255" lon="5.55415">
        <ele>1159.2</ele>
        <time>2021-10-10T07:53:01Z</time>
      </trkpt>
      <trkpt lat="45.04257" lon="5.5542">
        <ele>1158.6</ele>
        <time>2021-10-10T07:53:02Z</time>
      </trkpt>
      <trkpt lat="45.04261" lon="5.55425">
        <ele>1158.6</ele>
        <time>2021-10-10T07:53:03Z</time>
      </trkpt>
      <trkpt lat="45.04263" lon="5.55431">
        <ele>1158.6</ele>
        <time>2021-10-10T07:53:04Z</time>
      </trkpt>
      <trkpt lat="45.04266" lon="5.55436">
        <ele>1159.6</ele>
        <time>2021-10-10T07:53:05Z</time>
      </trkpt>
      <trkpt lat="45.04269" lon="5.55443">
        <ele>1159.2</ele>
        <time>2021-10-10T07:53:06Z</time>
      </trkpt>
      <trkpt lat="45.04272" lon="5.55448">
        <ele>1159.2</ele>
        <time>2021-10-10T07:53:07Z</time>
      </trkpt>
      <trkpt lat="45.04274" lon="5.55452">
        <ele>1159.2</ele>
        <time>2021-10-10T07:53:08Z</time>
      </trkpt>
      <trkpt lat="45.04275" lon="5.55456">
        <ele>1160.2</ele>
        <time>2021-10-10T07:53:09Z</time>
      </trkpt>
      <trkpt lat="45.04276" lon="5.55457">
        <ele>1160.4</ele>
        <time>2021-10-10T07:53:10Z</time>
      </trkpt>
      <trkpt lat="45.04278" lon="5.5546">
        <ele>1160.4</ele>
        <time>2021-10-10T07:53:11Z</time>
      </trkpt>
      <trkpt lat="45.04278" lon="5.55462">
        <ele>1160.4</ele>
        <time>2021-10-10T07:53:12Z</time>
      </trkpt>
      <trkpt lat="45.04279" lon="5.55463">
        <ele>1160.4</ele>
        <time>2021-10-10T07:53:13Z</time>
      </trkpt>
      <trkpt lat="45.0428" lon="5.55465">
        <ele>1160.6</ele>
        <time>2021-10-10T07:53:14Z</time>
      </trkpt>
      <trkpt lat="45.0428" lon="5.55467">
        <ele>1160.6</ele>
        <time>2021-10-10T07:53:15Z</time>
      </trkpt>
      <trkpt lat="45.04281" lon="5.55469">
        <ele>1160.6</ele>
        <time>2021-10-10T07:53:16Z</time>
      </trkpt>
      <trkpt lat="45.04281" lon="5.55472">
        <ele>1160.6</ele>
        <time>2021-10-10T07:53:17Z</time>
      </trkpt>
      <trkpt lat="45.04281" lon="5.55475">
        <ele>1159.2</ele>
        <time>2021-10-10T07:53:18Z</time>
      </trkpt>
      <trkpt lat="45.04282" lon="5.55478">
        <ele>1159.2</ele>
        <time>2021-10-10T07:53:19Z</time>
      </trkpt>
      <trkpt lat="45.04283" lon="5.55482">
        <ele>1159.2</ele>
        <time>2021-10-10T07:53:20Z</time>
      </trkpt>
      <trkpt lat="45.04285" lon="5.55487">
        <ele>1158.2</ele>
        <time>2021-10-10T07:53:21Z</time>
      </trkpt>
      <trkpt lat="45.04287" lon="5.55493">
        <ele>1154.8</ele>
        <time>2021-10-10T07:53:22Z</time>
      </trkpt>
      <trkpt lat="45.0429" lon="5.55499">
        <ele>1154.8</ele>
        <time>2021-10-10T07:53:23Z</time>
      </trkpt>
      <trkpt lat="45.04294" lon="5.55506">
        <ele>1154.8</ele>
        <time>2021-10-10T07:53:24Z</time>
      </trkpt>
      <trkpt lat="45.043" lon="5.55513">
        <ele>1154.8</ele>
        <time>2021-10-10T07:53:25Z</time>
      </trkpt>
      <trkpt lat="45.04305" lon="5.5552">
        <ele>1152.2</ele>
        <time>2021-10-10T07:53:26Z</time>
      </trkpt>
      <trkpt lat="45.04311" lon="5.55527">
        <ele>1152.2</ele>
        <time>2021-10-10T07:53:27Z</time>
      </trkpt>
      <trkpt lat="45.04314" lon="5.55534">
        <ele>1152.2</ele>
        <time>2021-10-10T07:53:28Z</time>
      </trkpt>
      <trkpt lat="45.04317" lon="5.55539">
        <ele>1152.2</ele>
        <time>2021-10-10T07:53:29Z</time>
      </trkpt>
      <trkpt lat="45.0432" lon="5.55545">
        <ele>1150.2</ele>
        <time>2021-10-10T07:53:30Z</time>
      </trkpt>
      <trkpt lat="45.04323" lon="5.55552">
        <ele>1150.2</ele>
        <time>2021-10-10T07:53:31Z</time>
      </trkpt>
      <trkpt lat="45.04326" lon="5.55559">
        <ele>1150.2</ele>
        <time>2021-10-10T07:53:32Z</time>
      </trkpt>
      <trkpt lat="45.04329" lon="5.55566">
        <ele>1149.2</ele>
        <time>2021-10-10T07:53:33Z</time>
      </trkpt>
      <trkpt lat="45.04332" lon="5.55572">
        <ele>1144.6</ele>
        <time>2021-10-10T07:53:34Z</time>
      </trkpt>
      <trkpt lat="45.04336" lon="5.5558">
        <ele>1144.6</ele>
        <time>2021-10-10T07:53:35Z</time>
      </trkpt>
      <trkpt lat="45.04337" lon="5.55589">
        <ele>1144.6</ele>
        <time>2021-10-10T07:53:36Z</time>
      </trkpt>
      <trkpt lat="45.0434" lon="5.55597">
        <ele>1143.6</ele>
        <time>2021-10-10T07:53:37Z</time>
      </trkpt>
      <trkpt lat="45.04343" lon="5.55605">
        <ele>1141.2</ele>
        <time>2021-10-10T07:53:38Z</time>
      </trkpt>
      <trkpt lat="45.04345" lon="5.55613">
        <ele>1141.2</ele>
        <time>2021-10-10T07:53:39Z</time>
      </trkpt>
      <trkpt lat="45.04348" lon="5.55619">
        <ele>1141.2</ele>
        <time>2021-10-10T07:53:40Z</time>
      </trkpt>
      <trkpt lat="45.04352" lon="5.55628">
        <ele>1140.2</ele>
        <time>2021-10-10T07:53:41Z</time>
      </trkpt>
      <trkpt lat="45.04355" lon="5.55635">
        <ele>1136.4</ele>
        <time>2021-10-10T07:53:42Z</time>
      </trkpt>
      <trkpt lat="45.04359" lon="5.55641">
        <ele>1136.4</ele>
        <time>2021-10-10T07:53:43Z</time>
      </trkpt>
      <trkpt lat="45.04365" lon="5.55646">
        <ele>1136.4</ele>
        <time>2021-10-10T07:53:44Z</time>
      </trkpt>
      <trkpt lat="45.04368" lon="5.55652">
        <ele>1135.4</ele>
        <time>2021-10-10T07:53:45Z</time>
      </trkpt>
      <trkpt lat="45.0437" lon="5.55659">
        <ele>1134</ele>
        <time>2021-10-10T07:53:46Z</time>
      </trkpt>
      <trkpt lat="45.04374" lon="5.55666">
        <ele>1134</ele>
        <time>2021-10-10T07:53:47Z</time>
      </trkpt>
      <trkpt lat="45.04377" lon="5.55674">
        <ele>1134</ele>
        <time>2021-10-10T07:53:48Z</time>
      </trkpt>
      <trkpt lat="45.04382" lon="5.55683">
        <ele>1133</ele>
        <time>2021-10-10T07:53:49Z</time>
      </trkpt>
      <trkpt lat="45.04386" lon="5.55693">
        <ele>1128.8</ele>
        <time>2021-10-10T07:53:50Z</time>
      </trkpt>
      <trkpt lat="45.0439" lon="5.55703">
        <ele>1128.8</ele>
        <time>2021-10-10T07:53:51Z</time>
      </trkpt>
      <trkpt lat="45.04393" lon="5.55713">
        <ele>1128.8</ele>
        <time>2021-10-10T07:53:52Z</time>
      </trkpt>
      <trkpt lat="45.04396" lon="5.55725">
        <ele>1127.8</ele>
        <time>2021-10-10T07:53:53Z</time>
      </trkpt>
      <trkpt lat="45.04398" lon="5.55735">
        <ele>1127</ele>
        <time>2021-10-10T07:53:54Z</time>
      </trkpt>
      <trkpt lat="45.044" lon="5.55746">
        <ele>1127</ele>
        <time>2021-10-10T07:53:55Z</time>
      </trkpt>
      <trkpt lat="45.04404" lon="5.55756">
        <ele>1127</ele>
        <time>2021-10-10T07:53:56Z</time>
      </trkpt>
      <trkpt lat="45.04408" lon="5.55766">
        <ele>1126.2</ele>
        <time>2021-10-10T07:53:57Z</time>
      </trkpt>
      <trkpt lat="45.04413" lon="5.55775">
        <ele>1124.8</ele>
        <time>2021-10-10T07:53:58Z</time>
      </trkpt>
      <trkpt lat="45.04418" lon="5.55784">
        <ele>1124.8</ele>
        <time>2021-10-10T07:53:59Z</time>
      </trkpt>
      <trkpt lat="45.04424" lon="5.55792">
        <ele>1124.8</ele>
        <time>2021-10-10T07:54:00Z</time>
      </trkpt>
      <trkpt lat="45.04432" lon="5.558">
        <ele>1123.8</ele>
        <time>2021-10-10T07:54:01Z</time>
      </trkpt>
      <trkpt lat="45.04439" lon="5.55807">
        <ele>1121.4</ele>
        <time>2021-10-10T07:54:02Z</time>
      </trkpt>
      <trkpt lat="45.04445" lon="5.55815">
        <ele>1121.4</ele>
        <time>2021-10-10T07:54:03Z</time>
      </trkpt>
      <trkpt lat="45.04451" lon="5.55824">
        <ele>1121.4</ele>
        <time>2021-10-10T07:54:04Z</time>
      </trkpt>
      <trkpt lat="45.04455" lon="5.55832">
        <ele>1121.4</ele>
        <time>2021-10-10T07:54:05Z</time>
      </trkpt>
      <trkpt lat="45.0446" lon="5.55838">
        <ele>1122.6</ele>
        <time>2021-10-10T07:54:06Z</time>
      </trkpt>
      <trkpt lat="45.04464" lon="5.55841">
        <ele>1122.6</ele>
        <time>2021-10-10T07:54:07Z</time>
      </trkpt>
      <trkpt lat="45.04469" lon="5.55842">
        <ele>1122.6</ele>
        <time>2021-10-10T07:54:08Z</time>
      </trkpt>
      <trkpt lat="45.04474" lon="5.5584">
        <ele>1121.6</ele>
        <time>2021-10-10T07:54:09Z</time>
      </trkpt>
      <trkpt lat="45.04479" lon="5.55836">
        <ele>1119.8</ele>
        <time>2021-10-10T07:54:10Z</time>
      </trkpt>
      <trkpt lat="45.04485" lon="5.5583">
        <ele>1119.8</ele>
        <time>2021-10-10T07:54:11Z</time>
      </trkpt>
      <trkpt lat="45.04489" lon="5.55824">
        <ele>1119.8</ele>
        <time>2021-10-10T07:54:12Z</time>
      </trkpt>
      <trkpt lat="45.04493" lon="5.55816">
        <ele>1118.8</ele>
        <time>2021-10-10T07:54:13Z</time>
      </trkpt>
      <trkpt lat="45.04496" lon="5.55807">
        <ele>1118.8</ele>
        <time>2021-10-10T07:54:14Z</time>
      </trkpt>
      <trkpt lat="45.04499" lon="5.55799">
        <ele>1118.8</ele>
        <time>2021-10-10T07:54:15Z</time>
      </trkpt>
      <trkpt lat="45.04502" lon="5.55791">
        <ele>1118.8</ele>
        <time>2021-10-10T07:54:16Z</time>
      </trkpt>
      <trkpt lat="45.04506" lon="5.55784">
        <ele>1118.8</ele>
        <time>2021-10-10T07:54:17Z</time>
      </trkpt>
      <trkpt lat="45.04509" lon="5.55777">
        <ele>1119</ele>
        <time>2021-10-10T07:54:18Z</time>
      </trkpt>
      <trkpt lat="45.04513" lon="5.55771">
        <ele>1119</ele>
        <time>2021-10-10T07:54:19Z</time>
      </trkpt>
      <trkpt lat="45.04516" lon="5.55764">
        <ele>1119</ele>
        <time>2021-10-10T07:54:20Z</time>
      </trkpt>
      <trkpt lat="45.04519" lon="5.55758">
        <ele>1119</ele>
        <time>2021-10-10T07:54:21Z</time>
      </trkpt>
      <trkpt lat="45.04522" lon="5.55753">
        <ele>1119.2</ele>
        <time>2021-10-10T07:54:22Z</time>
      </trkpt>
      <trkpt lat="45.04526" lon="5.55747">
        <ele>1119.2</ele>
        <time>2021-10-10T07:54:23Z</time>
      </trkpt>
      <trkpt lat="45.04529" lon="5.5574">
        <ele>1119.2</ele>
        <time>2021-10-10T07:54:24Z</time>
      </trkpt>
      <trkpt lat="45.04533" lon="5.55734">
        <ele>1119.2</ele>
        <time>2021-10-10T07:54:25Z</time>
      </trkpt>
      <trkpt lat="45.04535" lon="5.55728">
        <ele>1119.8</ele>
        <time>2021-10-10T07:54:26Z</time>
      </trkpt>
      <trkpt lat="45.04537" lon="5.5572">
        <ele>1119.8</ele>
        <time>2021-10-10T07:54:27Z</time>
      </trkpt>
      <trkpt lat="45.04538" lon="5.55714">
        <ele>1119.8</ele>
        <time>2021-10-10T07:54:28Z</time>
      </trkpt>
      <trkpt lat="45.0454" lon="5.55708">
        <ele>1119.8</ele>
        <time>2021-10-10T07:54:29Z</time>
      </trkpt>
      <trkpt lat="45.04541" lon="5.55701">
        <ele>1120</ele>
        <time>2021-10-10T07:54:30Z</time>
      </trkpt>
      <trkpt lat="45.04542" lon="5.55694">
        <ele>1120</ele>
        <time>2021-10-10T07:54:31Z</time>
      </trkpt>
      <trkpt lat="45.04543" lon="5.55688">
        <ele>1120</ele>
        <time>2021-10-10T07:54:32Z</time>
      </trkpt>
      <trkpt lat="45.04543" lon="5.55681">
        <ele>1120</ele>
        <time>2021-10-10T07:54:33Z</time>
      </trkpt>
      <trkpt lat="45.04544" lon="5.55674">
        <ele>1120.2</ele>
        <time>2021-10-10T07:54:34Z</time>
      </trkpt>
      <trkpt lat="45.04545" lon="5.55668">
        <ele>1120.2</ele>
        <time>2021-10-10T07:54:35Z</time>
      </trkpt>
      <trkpt lat="45.04546" lon="5.55662">
        <ele>1120.2</ele>
        <time>2021-10-10T07:54:36Z</time>
      </trkpt>
      <trkpt lat="45.04547" lon="5.55656">
        <ele>1120.6</ele>
        <time>2021-10-10T07:54:37Z</time>
      </trkpt>
      <trkpt lat="45.04548" lon="5.5565">
        <ele>1120.6</ele>
        <time>2021-10-10T07:54:38Z</time>
      </trkpt>
      <trkpt lat="45.04549" lon="5.55643">
        <ele>1120.6</ele>
        <time>2021-10-10T07:54:39Z</time>
      </trkpt>
      <trkpt lat="45.04551" lon="5.55637">
        <ele>1120.6</ele>
        <time>2021-10-10T07:54:40Z</time>
      </trkpt>
      <trkpt lat="45.04552" lon="5.5563">
        <ele>1120.6</ele>
        <time>2021-10-10T07:54:41Z</time>
      </trkpt>
      <trkpt lat="45.04554" lon="5.55622">
        <ele>1120.8</ele>
        <time>2021-10-10T07:54:42Z</time>
      </trkpt>
      <trkpt lat="45.04556" lon="5.55615">
        <ele>1120.8</ele>
        <time>2021-10-10T07:54:43Z</time>
      </trkpt>
      <trkpt lat="45.04558" lon="5.55609">
        <ele>1120.8</ele>
        <time>2021-10-10T07:54:44Z</time>
      </trkpt>
      <trkpt lat="45.0456" lon="5.55603">
        <ele>1120.8</ele>
        <time>2021-10-10T07:54:45Z</time>
      </trkpt>
      <trkpt lat="45.04562" lon="5.55596">
        <ele>1121.4</ele>
        <time>2021-10-10T07:54:46Z</time>
      </trkpt>
      <trkpt lat="45.04564" lon="5.5559">
        <ele>1121.4</ele>
        <time>2021-10-10T07:54:47Z</time>
      </trkpt>
      <trkpt lat="45.04566" lon="5.55584">
        <ele>1121.4</ele>
        <time>2021-10-10T07:54:48Z</time>
      </trkpt>
      <trkpt lat="45.04568" lon="5.55578">
        <ele>1122.4</ele>
        <time>2021-10-10T07:54:49Z</time>
      </trkpt>
      <trkpt lat="45.0457" lon="5.55573">
        <ele>1122.8</ele>
        <time>2021-10-10T07:54:50Z</time>
      </trkpt>
      <trkpt lat="45.04572" lon="5.55568">
        <ele>1122.8</ele>
        <time>2021-10-10T07:54:51Z</time>
      </trkpt>
      <trkpt lat="45.04575" lon="5.55563">
        <ele>1122.8</ele>
        <time>2021-10-10T07:54:52Z</time>
      </trkpt>
      <trkpt lat="45.04577" lon="5.55559">
        <ele>1123.6</ele>
        <time>2021-10-10T07:54:53Z</time>
      </trkpt>
      <trkpt lat="45.0458" lon="5.55556">
        <ele>1124.4</ele>
        <time>2021-10-10T07:54:54Z</time>
      </trkpt>
      <trkpt lat="45.04582" lon="5.55552">
        <ele>1124.4</ele>
        <time>2021-10-10T07:54:55Z</time>
      </trkpt>
      <trkpt lat="45.04585" lon="5.55549">
        <ele>1124.4</ele>
        <time>2021-10-10T07:54:56Z</time>
      </trkpt>
      <trkpt lat="45.04588" lon="5.55547">
        <ele>1125.2</ele>
        <time>2021-10-10T07:54:57Z</time>
      </trkpt>
      <trkpt lat="45.0459" lon="5.55546">
        <ele>1126</ele>
        <time>2021-10-10T07:54:58Z</time>
      </trkpt>
      <trkpt lat="45.04593" lon="5.55544">
        <ele>1126</ele>
        <time>2021-10-10T07:54:59Z</time>
      </trkpt>
      <trkpt lat="45.04596" lon="5.55543">
        <ele>1126</ele>
        <time>2021-10-10T07:55:00Z</time>
      </trkpt>
      <trkpt lat="45.04598" lon="5.55542">
        <ele>1126</ele>
        <time>2021-10-10T07:55:01Z</time>
      </trkpt>
      <trkpt lat="45.04601" lon="5.5554">
        <ele>1126.8</ele>
        <time>2021-10-10T07:55:02Z</time>
      </trkpt>
      <trkpt lat="45.04603" lon="5.55539">
        <ele>1126.8</ele>
        <time>2021-10-10T07:55:03Z</time>
      </trkpt>
      <trkpt lat="45.04605" lon="5.55538">
        <ele>1126.8</ele>
        <time>2021-10-10T07:55:04Z</time>
      </trkpt>
      <trkpt lat="45.04607" lon="5.55538">
        <ele>1127</ele>
        <time>2021-10-10T07:55:05Z</time>
      </trkpt>
      <trkpt lat="45.04608" lon="5.55537">
        <ele>1126.8</ele>
        <time>2021-10-10T07:55:06Z</time>
      </trkpt>
      <trkpt lat="45.0461" lon="5.55537">
        <ele>1126.8</ele>
        <time>2021-10-10T07:55:07Z</time>
      </trkpt>
      <trkpt lat="45.04612" lon="5.55537">
        <ele>1126.8</ele>
        <time>2021-10-10T07:55:08Z</time>
      </trkpt>
      <trkpt lat="45.04614" lon="5.55537">
        <ele>1125.8</ele>
        <time>2021-10-10T07:55:09Z</time>
      </trkpt>
      <trkpt lat="45.04617" lon="5.55536">
        <ele>1125.4</ele>
        <time>2021-10-10T07:55:10Z</time>
      </trkpt>
      <trkpt lat="45.0462" lon="5.55537">
        <ele>1125.4</ele>
        <time>2021-10-10T07:55:11Z</time>
      </trkpt>
      <trkpt lat="45.04623" lon="5.55537">
        <ele>1125.4</ele>
        <time>2021-10-10T07:55:12Z</time>
      </trkpt>
      <trkpt lat="45.04626" lon="5.55536">
        <ele>1124.6</ele>
        <time>2021-10-10T07:55:13Z</time>
      </trkpt>
      <trkpt lat="45.04629" lon="5.55536">
        <ele>1124.2</ele>
        <time>2021-10-10T07:55:14Z</time>
      </trkpt>
      <trkpt lat="45.04633" lon="5.55535">
        <ele>1124.2</ele>
        <time>2021-10-10T07:55:15Z</time>
      </trkpt>
      <trkpt lat="45.04636" lon="5.55534">
        <ele>1124.2</ele>
        <time>2021-10-10T07:55:16Z</time>
      </trkpt>
      <trkpt lat="45.0464" lon="5.55531">
        <ele>1123.2</ele>
        <time>2021-10-10T07:55:17Z</time>
      </trkpt>
      <trkpt lat="45.04644" lon="5.55528">
        <ele>1120.6</ele>
        <time>2021-10-10T07:55:18Z</time>
      </trkpt>
      <trkpt lat="45.04649" lon="5.55523">
        <ele>1120.6</ele>
        <time>2021-10-10T07:55:19Z</time>
      </trkpt>
      <trkpt lat="45.04654" lon="5.55518">
        <ele>1120.6</ele>
        <time>2021-10-10T07:55:20Z</time>
      </trkpt>
      <trkpt lat="45.04658" lon="5.55515">
        <ele>1121.6</ele>
        <time>2021-10-10T07:55:21Z</time>
      </trkpt>
      <trkpt lat="45.04661" lon="5.5551">
        <ele>1121.2</ele>
        <time>2021-10-10T07:55:22Z</time>
      </trkpt>
      <trkpt lat="45.04664" lon="5.55504">
        <ele>1121.2</ele>
        <time>2021-10-10T07:55:23Z</time>
      </trkpt>
      <trkpt lat="45.04667" lon="5.55498">
        <ele>1121.2</ele>
        <time>2021-10-10T07:55:24Z</time>
      </trkpt>
      <trkpt lat="45.0467" lon="5.55492">
        <ele>1122.2</ele>
        <time>2021-10-10T07:55:25Z</time>
      </trkpt>
      <trkpt lat="45.04671" lon="5.55486">
        <ele>1123.6</ele>
        <time>2021-10-10T07:55:26Z</time>
      </trkpt>
      <trkpt lat="45.04672" lon="5.5548">
        <ele>1123.6</ele>
        <time>2021-10-10T07:55:27Z</time>
      </trkpt>
      <trkpt lat="45.04672" lon="5.55474">
        <ele>1123.6</ele>
        <time>2021-10-10T07:55:28Z</time>
      </trkpt>
      <trkpt lat="45.04672" lon="5.5547">
        <ele>1124.6</ele>
        <time>2021-10-10T07:55:29Z</time>
      </trkpt>
      <trkpt lat="45.04672" lon="5.55467">
        <ele>1125</ele>
        <time>2021-10-10T07:55:30Z</time>
      </trkpt>
      <trkpt lat="45.04671" lon="5.55465">
        <ele>1125</ele>
        <time>2021-10-10T07:55:31Z</time>
      </trkpt>
      <trkpt lat="45.04671" lon="5.55463">
        <ele>1125</ele>
        <time>2021-10-10T07:55:32Z</time>
      </trkpt>
      <trkpt lat="45.04672" lon="5.55461">
        <ele>1125</ele>
        <time>2021-10-10T07:55:33Z</time>
      </trkpt>
      <trkpt lat="45.04672" lon="5.55459">
        <ele>1125.2</ele>
        <time>2021-10-10T07:55:34Z</time>
      </trkpt>
      <trkpt lat="45.04672" lon="5.55457">
        <ele>1125.2</ele>
        <time>2021-10-10T07:55:35Z</time>
      </trkpt>
      <trkpt lat="45.04673" lon="5.55456">
        <ele>1125.2</ele>
        <time>2021-10-10T07:55:36Z</time>
      </trkpt>
      <trkpt lat="45.04673" lon="5.55454">
        <ele>1125.6</ele>
        <time>2021-10-10T07:55:37Z</time>
      </trkpt>
      <trkpt lat="45.04673" lon="5.55452">
        <ele>1125.8</ele>
        <time>2021-10-10T07:55:38Z</time>
      </trkpt>
      <trkpt lat="45.04674" lon="5.5545">
        <ele>1125.8</ele>
        <time>2021-10-10T07:55:39Z</time>
      </trkpt>
      <trkpt lat="45.04674" lon="5.55449">
        <ele>1125.8</ele>
        <time>2021-10-10T07:55:40Z</time>
      </trkpt>
      <trkpt lat="45.04675" lon="5.55447">
        <ele>1125.8</ele>
        <time>2021-10-10T07:55:41Z</time>
      </trkpt>
      <trkpt lat="45.04676" lon="5.55446">
        <ele>1126.2</ele>
        <time>2021-10-10T07:55:42Z</time>
      </trkpt>
      <trkpt lat="45.04676" lon="5.55447">
        <ele>1126.2</ele>
        <time>2021-10-10T07:55:43Z</time>
      </trkpt>
      <trkpt lat="45.04677" lon="5.55448">
        <ele>1126.2</ele>
        <time>2021-10-10T07:55:44Z</time>
      </trkpt>
      <trkpt lat="45.04677" lon="5.5545">
        <ele>1126.2</ele>
        <time>2021-10-10T07:55:45Z</time>
      </trkpt>
      <trkpt lat="45.04676" lon="5.55452">
        <ele>1125.4</ele>
        <time>2021-10-10T07:55:46Z</time>
      </trkpt>
      <trkpt lat="45.04675" lon="5.55454">
        <ele>1125.4</ele>
        <time>2021-10-10T07:55:47Z</time>
      </trkpt>
      <trkpt lat="45.04673" lon="5.55456">
        <ele>1125.4</ele>
        <time>2021-10-10T07:55:48Z</time>
      </trkpt>
      <trkpt lat="45.04673" lon="5.5546">
        <ele>1124.6</ele>
        <time>2021-10-10T07:55:49Z</time>
      </trkpt>
      <trkpt lat="45.04672" lon="5.55465">
        <ele>1124.6</ele>
        <time>2021-10-10T07:55:50Z</time>
      </trkpt>
      <trkpt lat="45.04672" lon="5.55469">
        <ele>1124.6</ele>
        <time>2021-10-10T07:55:51Z</time>
      </trkpt>
      <trkpt lat="45.04673" lon="5.55474">
        <ele>1124.6</ele>
        <time>2021-10-10T07:55:52Z</time>
      </trkpt>
      <trkpt lat="45.04673" lon="5.55476">
        <ele>1123.8</ele>
        <time>2021-10-10T07:55:53Z</time>
      </trkpt>
      <trkpt lat="45.04675" lon="5.55477">
        <ele>1124.2</ele>
        <time>2021-10-10T07:55:54Z</time>
      </trkpt>
      <trkpt lat="45.04678" lon="5.55478">
        <ele>1124.2</ele>
        <time>2021-10-10T07:55:55Z</time>
      </trkpt>
      <trkpt lat="45.0468" lon="5.55477">
        <ele>1124.2</ele>
        <time>2021-10-10T07:55:56Z</time>
      </trkpt>
      <trkpt lat="45.04683" lon="5.55477">
        <ele>1124.2</ele>
        <time>2021-10-10T07:55:57Z</time>
      </trkpt>
      <trkpt lat="45.04685" lon="5.55476">
        <ele>1125</ele>
        <time>2021-10-10T07:55:58Z</time>
      </trkpt>
      <trkpt lat="45.04687" lon="5.55476">
        <ele>1125</ele>
        <time>2021-10-10T07:55:59Z</time>
      </trkpt>
      <trkpt lat="45.0469" lon="5.55477">
        <ele>1125</ele>
        <time>2021-10-10T07:56:00Z</time>
      </trkpt>
      <trkpt lat="45.04692" lon="5.55479">
        <ele>1125.8</ele>
        <time>2021-10-10T07:56:01Z</time>
      </trkpt>
      <trkpt lat="45.04694" lon="5.5548">
        <ele>1126.8</ele>
        <time>2021-10-10T07:56:02Z</time>
      </trkpt>
      <trkpt lat="45.04696" lon="5.55482">
        <ele>1126.8</ele>
        <time>2021-10-10T07:56:03Z</time>
      </trkpt>
      <trkpt lat="45.04698" lon="5.55483">
        <ele>1126.8</ele>
        <time>2021-10-10T07:56:04Z</time>
      </trkpt>
      <trkpt lat="45.047" lon="5.55484">
        <ele>1126.8</ele>
        <time>2021-10-10T07:56:05Z</time>
      </trkpt>
      <trkpt lat="45.04703" lon="5.55486">
        <ele>1127.2</ele>
        <time>2021-10-10T07:56:06Z</time>
      </trkpt>
      <trkpt lat="45.04705" lon="5.55486">
        <ele>1127.2</ele>
        <time>2021-10-10T07:56:07Z</time>
      </trkpt>
      <trkpt lat="45.04706" lon="5.55486">
        <ele>1127.2</ele>
        <time>2021-10-10T07:56:08Z</time>
      </trkpt>
      <trkpt lat="45.04709" lon="5.55485">
        <ele>1127.2</ele>
        <time>2021-10-10T07:56:09Z</time>
      </trkpt>
      <trkpt lat="45.04711" lon="5.55484">
        <ele>1127</ele>
        <time>2021-10-10T07:56:10Z</time>
      </trkpt>
      <trkpt lat="45.04715" lon="5.55484">
        <ele>1127</ele>
        <time>2021-10-10T07:56:11Z</time>
      </trkpt>
      <trkpt lat="45.04718" lon="5.55486">
        <ele>1127</ele>
        <time>2021-10-10T07:56:12Z</time>
      </trkpt>
      <trkpt lat="45.0472" lon="5.55489">
        <ele>1127</ele>
        <time>2021-10-10T07:56:13Z</time>
      </trkpt>
      <trkpt lat="45.04722" lon="5.55493">
        <ele>1127.4</ele>
        <time>2021-10-10T07:56:14Z</time>
      </trkpt>
      <trkpt lat="45.04724" lon="5.55496">
        <ele>1127.4</ele>
        <time>2021-10-10T07:56:15Z</time>
      </trkpt>
      <trkpt lat="45.04726" lon="5.555">
        <ele>1127.4</ele>
        <time>2021-10-10T07:56:16Z</time>
      </trkpt>
      <trkpt lat="45.04728" lon="5.55503">
        <ele>1127.4</ele>
        <time>2021-10-10T07:56:17Z</time>
      </trkpt>
      <trkpt lat="45.0473" lon="5.55506">
        <ele>1127.4</ele>
        <time>2021-10-10T07:56:18Z</time>
      </trkpt>
      <trkpt lat="45.04732" lon="5.55509">
        <ele>1127.4</ele>
        <time>2021-10-10T07:56:19Z</time>
      </trkpt>
      <trkpt lat="45.04734" lon="5.55512">
        <ele>1127.4</ele>
        <time>2021-10-10T07:56:20Z</time>
      </trkpt>
      <trkpt lat="45.04737" lon="5.55516">
        <ele>1127.4</ele>
        <time>2021-10-10T07:56:21Z</time>
      </trkpt>
      <trkpt lat="45.0474" lon="5.55519">
        <ele>1126.2</ele>
        <time>2021-10-10T07:56:22Z</time>
      </trkpt>
      <trkpt lat="45.04743" lon="5.55524">
        <ele>1126.2</ele>
        <time>2021-10-10T07:56:23Z</time>
      </trkpt>
      <trkpt lat="45.04747" lon="5.55528">
        <ele>1126.2</ele>
        <time>2021-10-10T07:56:24Z</time>
      </trkpt>
      <trkpt lat="45.04751" lon="5.55533">
        <ele>1125.2</ele>
        <time>2021-10-10T07:56:25Z</time>
      </trkpt>
      <trkpt lat="45.04756" lon="5.55538">
        <ele>1123.4</ele>
        <time>2021-10-10T07:56:26Z</time>
      </trkpt>
      <trkpt lat="45.04761" lon="5.55543">
        <ele>1123.4</ele>
        <time>2021-10-10T07:56:27Z</time>
      </trkpt>
      <trkpt lat="45.04767" lon="5.55546">
        <ele>1123.4</ele>
        <time>2021-10-10T07:56:28Z</time>
      </trkpt>
      <trkpt lat="45.04773" lon="5.55549">
        <ele>1122.4</ele>
        <time>2021-10-10T07:56:29Z</time>
      </trkpt>
      <trkpt lat="45.0478" lon="5.55551">
        <ele>1122.6</ele>
        <time>2021-10-10T07:56:30Z</time>
      </trkpt>
      <trkpt lat="45.04787" lon="5.55551">
        <ele>1122.6</ele>
        <time>2021-10-10T07:56:31Z</time>
      </trkpt>
      <trkpt lat="45.04794" lon="5.55549">
        <ele>1122.6</ele>
        <time>2021-10-10T07:56:32Z</time>
      </trkpt>
      <trkpt lat="45.048" lon="5.55545">
        <ele>1122.6</ele>
        <time>2021-10-10T07:56:33Z</time>
      </trkpt>
      <trkpt lat="45.04805" lon="5.5554">
        <ele>1123.8</ele>
        <time>2021-10-10T07:56:34Z</time>
      </trkpt>
      <trkpt lat="45.0481" lon="5.55538">
        <ele>1123.8</ele>
        <time>2021-10-10T07:56:35Z</time>
      </trkpt>
      <trkpt lat="45.04812" lon="5.55536">
        <ele>1123.8</ele>
        <time>2021-10-10T07:56:36Z</time>
      </trkpt>
      <trkpt lat="45.04814" lon="5.55535">
        <ele>1124.4</ele>
        <time>2021-10-10T07:56:37Z</time>
      </trkpt>
      <trkpt lat="45.04814" lon="5.55533">
        <ele>1124.6</ele>
        <time>2021-10-10T07:56:38Z</time>
      </trkpt>
      <trkpt lat="45.04814" lon="5.55531">
        <ele>1124.6</ele>
        <time>2021-10-10T07:56:39Z</time>
      </trkpt>
      <trkpt lat="45.04814" lon="5.5553">
        <ele>1124.6</ele>
        <time>2021-10-10T07:56:40Z</time>
      </trkpt>
      <trkpt lat="45.04815" lon="5.55528">
        <ele>1124.4</ele>
        <time>2021-10-10T07:56:41Z</time>
      </trkpt>
      <trkpt lat="45.04816" lon="5.55526">
        <ele>1124.2</ele>
        <time>2021-10-10T07:56:42Z</time>
      </trkpt>
      <trkpt lat="45.04817" lon="5.55524">
        <ele>1124.2</ele>
        <time>2021-10-10T07:56:43Z</time>
      </trkpt>
      <trkpt lat="45.04819" lon="5.55523">
        <ele>1124.2</ele>
        <time>2021-10-10T07:56:44Z</time>
      </trkpt>
      <trkpt lat="45.0482" lon="5.55523">
        <ele>1124.4</ele>
        <time>2021-10-10T07:56:45Z</time>
      </trkpt>
      <trkpt lat="45.04821" lon="5.55523">
        <ele>1124.4</ele>
        <time>2021-10-10T07:56:46Z</time>
      </trkpt>
      <trkpt lat="45.04822" lon="5.55522">
        <ele>1124.4</ele>
        <time>2021-10-10T07:56:47Z</time>
      </trkpt>
      <trkpt lat="45.04823" lon="5.55522">
        <ele>1124.4</ele>
        <time>2021-10-10T07:56:48Z</time>
      </trkpt>
      <trkpt lat="45.04823" lon="5.55521">
        <ele>1124.4</ele>
        <time>2021-10-10T07:56:49Z</time>
      </trkpt>
      <trkpt lat="45.04824" lon="5.55521">
        <ele>1124</ele>
        <time>2021-10-10T07:57:02Z</time>
      </trkpt>
      <trkpt lat="45.04823" lon="5.55519">
        <ele>1124</ele>
        <time>2021-10-10T07:57:03Z</time>
      </trkpt>
      <trkpt lat="45.04823" lon="5.55514">
        <ele>1124</ele>
        <time>2021-10-10T07:57:04Z</time>
      </trkpt>
      <trkpt lat="45.04823" lon="5.5551">
        <ele>1123.4</ele>
        <time>2021-10-10T07:57:05Z</time>
      </trkpt>
      <trkpt lat="45.04822" lon="5.55505">
        <ele>1123.4</ele>
        <time>2021-10-10T07:57:06Z</time>
      </trkpt>
      <trkpt lat="45.04822" lon="5.555">
        <ele>1123.4</ele>
        <time>2021-10-10T07:57:07Z</time>
      </trkpt>
      <trkpt lat="45.04821" lon="5.55495">
        <ele>1123.4</ele>
        <time>2021-10-10T07:57:08Z</time>
      </trkpt>
      <trkpt lat="45.04821" lon="5.5549">
        <ele>1123.4</ele>
        <time>2021-10-10T07:57:09Z</time>
      </trkpt>
      <trkpt lat="45.0482" lon="5.55485">
        <ele>1122.6</ele>
        <time>2021-10-10T07:57:10Z</time>
      </trkpt>
      <trkpt lat="45.04819" lon="5.55479">
        <ele>1122.6</ele>
        <time>2021-10-10T07:57:11Z</time>
      </trkpt>
      <trkpt lat="45.04819" lon="5.55472">
        <ele>1122.6</ele>
        <time>2021-10-10T07:57:12Z</time>
      </trkpt>
      <trkpt lat="45.04818" lon="5.55465">
        <ele>1122</ele>
        <time>2021-10-10T07:57:13Z</time>
      </trkpt>
      <trkpt lat="45.04818" lon="5.55458">
        <ele>1122</ele>
        <time>2021-10-10T07:57:14Z</time>
      </trkpt>
      <trkpt lat="45.04817" lon="5.55451">
        <ele>1122</ele>
        <time>2021-10-10T07:57:15Z</time>
      </trkpt>
      <trkpt lat="45.04816" lon="5.55445">
        <ele>1122</ele>
        <time>2021-10-10T07:57:16Z</time>
      </trkpt>
      <trkpt lat="45.04816" lon="5.55437">
        <ele>1122</ele>
        <time>2021-10-10T07:57:17Z</time>
      </trkpt>
      <trkpt lat="45.04815" lon="5.5543">
        <ele>1121.4</ele>
        <time>2021-10-10T07:57:18Z</time>
      </trkpt>
      <trkpt lat="45.04814" lon="5.55423">
        <ele>1121.4</ele>
        <time>2021-10-10T07:57:19Z</time>
      </trkpt>
      <trkpt lat="45.04813" lon="5.55417">
        <ele>1121.4</ele>
        <time>2021-10-10T07:57:20Z</time>
      </trkpt>
      <trkpt lat="45.04813" lon="5.5541">
        <ele>1122.2</ele>
        <time>2021-10-10T07:57:21Z</time>
      </trkpt>
      <trkpt lat="45.04814" lon="5.55404">
        <ele>1123</ele>
        <time>2021-10-10T07:57:22Z</time>
      </trkpt>
      <trkpt lat="45.04815" lon="5.55398">
        <ele>1123</ele>
        <time>2021-10-10T07:57:23Z</time>
      </trkpt>
      <trkpt lat="45.04815" lon="5.55393">
        <ele>1123</ele>
        <time>2021-10-10T07:57:24Z</time>
      </trkpt>
      <trkpt lat="45.04815" lon="5.55388">
        <ele>1124</ele>
        <time>2021-10-10T07:57:25Z</time>
      </trkpt>
      <trkpt lat="45.04816" lon="5.55383">
        <ele>1124.6</ele>
        <time>2021-10-10T07:57:26Z</time>
      </trkpt>
      <trkpt lat="45.04816" lon="5.55379">
        <ele>1124.6</ele>
        <time>2021-10-10T07:57:27Z</time>
      </trkpt>
      <trkpt lat="45.04817" lon="5.55375">
        <ele>1124.6</ele>
        <time>2021-10-10T07:57:28Z</time>
      </trkpt>
      <trkpt lat="45.04817" lon="5.55371">
        <ele>1124.6</ele>
        <time>2021-10-10T07:57:29Z</time>
      </trkpt>
      <trkpt lat="45.04817" lon="5.55366">
        <ele>1125.2</ele>
        <time>2021-10-10T07:57:30Z</time>
      </trkpt>
      <trkpt lat="45.04818" lon="5.55362">
        <ele>1125.2</ele>
        <time>2021-10-10T07:57:31Z</time>
      </trkpt>
      <trkpt lat="45.04818" lon="5.55358">
        <ele>1125.2</ele>
        <time>2021-10-10T07:57:32Z</time>
      </trkpt>
      <trkpt lat="45.04819" lon="5.55353">
        <ele>1125.2</ele>
        <time>2021-10-10T07:57:33Z</time>
      </trkpt>
      <trkpt lat="45.04819" lon="5.55349">
        <ele>1126</ele>
        <time>2021-10-10T07:57:34Z</time>
      </trkpt>
      <trkpt lat="45.04819" lon="5.55344">
        <ele>1126</ele>
        <time>2021-10-10T07:57:35Z</time>
      </trkpt>
      <trkpt lat="45.0482" lon="5.5534">
        <ele>1126</ele>
        <time>2021-10-10T07:57:36Z</time>
      </trkpt>
      <trkpt lat="45.0482" lon="5.55335">
        <ele>1126.2</ele>
        <time>2021-10-10T07:57:37Z</time>
      </trkpt>
      <trkpt lat="45.0482" lon="5.55331">
        <ele>1126.6</ele>
        <time>2021-10-10T07:57:38Z</time>
      </trkpt>
      <trkpt lat="45.0482" lon="5.55326">
        <ele>1126.6</ele>
        <time>2021-10-10T07:57:39Z</time>
      </trkpt>
      <trkpt lat="45.04821" lon="5.55322">
        <ele>1126.6</ele>
        <time>2021-10-10T07:57:40Z</time>
      </trkpt>
      <trkpt lat="45.04821" lon="5.55318">
        <ele>1126.8</ele>
        <time>2021-10-10T07:57:41Z</time>
      </trkpt>
      <trkpt lat="45.04822" lon="5.55313">
        <ele>1127.4</ele>
        <time>2021-10-10T07:57:42Z</time>
      </trkpt>
      <trkpt lat="45.04822" lon="5.55309">
        <ele>1127.4</ele>
        <time>2021-10-10T07:57:43Z</time>
      </trkpt>
      <trkpt lat="45.04822" lon="5.55304">
        <ele>1127.4</ele>
        <time>2021-10-10T07:57:44Z</time>
      </trkpt>
      <trkpt lat="45.04823" lon="5.553">
        <ele>1128</ele>
        <time>2021-10-10T07:57:45Z</time>
      </trkpt>
      <trkpt lat="45.04823" lon="5.55296">
        <ele>1128</ele>
        <time>2021-10-10T07:57:46Z</time>
      </trkpt>
      <trkpt lat="45.04824" lon="5.55293">
        <ele>1128</ele>
        <time>2021-10-10T07:57:47Z</time>
      </trkpt>
      <trkpt lat="45.04825" lon="5.55289">
        <ele>1128</ele>
        <time>2021-10-10T07:57:48Z</time>
      </trkpt>
      <trkpt lat="45.04825" lon="5.55285">
        <ele>1129</ele>
        <time>2021-10-10T07:57:49Z</time>
      </trkpt>
      <trkpt lat="45.04826" lon="5.55281">
        <ele>1129.6</ele>
        <time>2021-10-10T07:57:50Z</time>
      </trkpt>
      <trkpt lat="45.04827" lon="5.55278">
        <ele>1129.6</ele>
        <time>2021-10-10T07:57:51Z</time>
      </trkpt>
      <trkpt lat="45.04828" lon="5.55275">
        <ele>1129.6</ele>
        <time>2021-10-10T07:57:52Z</time>
      </trkpt>
      <trkpt lat="45.04829" lon="5.55272">
        <ele>1130.6</ele>
        <time>2021-10-10T07:57:53Z</time>
      </trkpt>
      <trkpt lat="45.0483" lon="5.55269">
        <ele>1130.8</ele>
        <time>2021-10-10T07:57:54Z</time>
      </trkpt>
      <trkpt lat="45.0483" lon="5.55266">
        <ele>1130.8</ele>
        <time>2021-10-10T07:57:55Z</time>
      </trkpt>
      <trkpt lat="45.04831" lon="5.55263">
        <ele>1130.8</ele>
        <time>2021-10-10T07:57:56Z</time>
      </trkpt>
      <trkpt lat="45.04832" lon="5.5526">
        <ele>1130.8</ele>
        <time>2021-10-10T07:57:57Z</time>
      </trkpt>
      <trkpt lat="45.04832" lon="5.55257">
        <ele>1131.2</ele>
        <time>2021-10-10T07:57:58Z</time>
      </trkpt>
      <trkpt lat="45.04833" lon="5.55254">
        <ele>1131.2</ele>
        <time>2021-10-10T07:57:59Z</time>
      </trkpt>
      <trkpt lat="45.04834" lon="5.55251">
        <ele>1131.2</ele>
        <time>2021-10-10T07:58:00Z</time>
      </trkpt>
      <trkpt lat="45.04834" lon="5.55248">
        <ele>1132.2</ele>
        <time>2021-10-10T07:58:01Z</time>
      </trkpt>
      <trkpt lat="45.04835" lon="5.55245">
        <ele>1132.4</ele>
        <time>2021-10-10T07:58:02Z</time>
      </trkpt>
      <trkpt lat="45.04835" lon="5.55242">
        <ele>1132.4</ele>
        <time>2021-10-10T07:58:03Z</time>
      </trkpt>
      <trkpt lat="45.04836" lon="5.5524">
        <ele>1132.4</ele>
        <time>2021-10-10T07:58:04Z</time>
      </trkpt>
      <trkpt lat="45.04837" lon="5.55237">
        <ele>1133.4</ele>
        <time>2021-10-10T07:58:05Z</time>
      </trkpt>
      <trkpt lat="45.04838" lon="5.55235">
        <ele>1133</ele>
        <time>2021-10-10T07:58:06Z</time>
      </trkpt>
      <trkpt lat="45.04838" lon="5.55233">
        <ele>1133</ele>
        <time>2021-10-10T07:58:07Z</time>
      </trkpt>
      <trkpt lat="45.04839" lon="5.5523">
        <ele>1133</ele>
        <time>2021-10-10T07:58:08Z</time>
      </trkpt>
      <trkpt lat="45.0484" lon="5.55228">
        <ele>1133.6</ele>
        <time>2021-10-10T07:58:09Z</time>
      </trkpt>
      <trkpt lat="45.0484" lon="5.55226">
        <ele>1133.8</ele>
        <time>2021-10-10T07:58:10Z</time>
      </trkpt>
      <trkpt lat="45.0484" lon="5.55225">
        <ele>1133.8</ele>
        <time>2021-10-10T07:58:11Z</time>
      </trkpt>
      <trkpt lat="45.0484" lon="5.55223">
        <ele>1133.8</ele>
        <time>2021-10-10T07:58:12Z</time>
      </trkpt>
      <trkpt lat="45.04841" lon="5.55222">
        <ele>1133.8</ele>
        <time>2021-10-10T07:58:13Z</time>
      </trkpt>
      <trkpt lat="45.04841" lon="5.55222">
        <ele>1133.8</ele>
        <time>2021-10-10T07:58:14Z</time>
      </trkpt>
      <trkpt lat="45.04842" lon="5.55221">
        <ele>1133.8</ele>
        <time>2021-10-10T07:58:15Z</time>
      </trkpt>
      <trkpt lat="45.04842" lon="5.5522">
        <ele>1133.8</ele>
        <time>2021-10-10T07:58:16Z</time>
      </trkpt>
      <trkpt lat="45.04843" lon="5.55219">
        <ele>1133.8</ele>
        <time>2021-10-10T07:58:17Z</time>
      </trkpt>
      <trkpt lat="45.04843" lon="5.55218">
        <ele>1134</ele>
        <time>2021-10-10T07:58:18Z</time>
      </trkpt>
      <trkpt lat="45.04844" lon="5.55216">
        <ele>1134</ele>
        <time>2021-10-10T07:58:19Z</time>
      </trkpt>
      <trkpt lat="45.04844" lon="5.55215">
        <ele>1134</ele>
        <time>2021-10-10T07:58:20Z</time>
      </trkpt>
      <trkpt lat="45.04845" lon="5.55214">
        <ele>1134.2</ele>
        <time>2021-10-10T07:58:21Z</time>
      </trkpt>
      <trkpt lat="45.04845" lon="5.55212">
        <ele>1134.2</ele>
        <time>2021-10-10T07:58:22Z</time>
      </trkpt>
      <trkpt lat="45.04846" lon="5.55211">
        <ele>1134.2</ele>
        <time>2021-10-10T07:58:23Z</time>
      </trkpt>
      <trkpt lat="45.04847" lon="5.55209">
        <ele>1134.2</ele>
        <time>2021-10-10T07:58:24Z</time>
      </trkpt>
      <trkpt lat="45.04847" lon="5.55209">
        <ele>1134</ele>
        <time>2021-10-10T07:58:35Z</time>
      </trkpt>
      <trkpt lat="45.04849" lon="5.55209">
        <ele>1134</ele>
        <time>2021-10-10T07:58:36Z</time>
      </trkpt>
      <trkpt lat="45.04851" lon="5.55207">
        <ele>1133.4</ele>
        <time>2021-10-10T07:58:37Z</time>
      </trkpt>
      <trkpt lat="45.04854" lon="5.55206">
        <ele>1133.6</ele>
        <time>2021-10-10T07:58:38Z</time>
      </trkpt>
      <trkpt lat="45.04857" lon="5.55205">
        <ele>1133.6</ele>
        <time>2021-10-10T07:58:39Z</time>
      </trkpt>
      <trkpt lat="45.0486" lon="5.55204">
        <ele>1133.6</ele>
        <time>2021-10-10T07:58:40Z</time>
      </trkpt>
      <trkpt lat="45.04863" lon="5.55203">
        <ele>1133.4</ele>
        <time>2021-10-10T07:58:41Z</time>
      </trkpt>
      <trkpt lat="45.04866" lon="5.55203">
        <ele>1133</ele>
        <time>2021-10-10T07:58:42Z</time>
      </trkpt>
      <trkpt lat="45.0487" lon="5.55202">
        <ele>1133</ele>
        <time>2021-10-10T07:58:43Z</time>
      </trkpt>
      <trkpt lat="45.04873" lon="5.55202">
        <ele>1133</ele>
        <time>2021-10-10T07:58:44Z</time>
      </trkpt>
      <trkpt lat="45.04877" lon="5.55202">
        <ele>1133</ele>
        <time>2021-10-10T07:58:45Z</time>
      </trkpt>
      <trkpt lat="45.0488" lon="5.55202">
        <ele>1133</ele>
        <time>2021-10-10T07:58:46Z</time>
      </trkpt>
      <trkpt lat="45.04884" lon="5.55202">
        <ele>1133</ele>
        <time>2021-10-10T07:58:47Z</time>
      </trkpt>
      <trkpt lat="45.04888" lon="5.55202">
        <ele>1133</ele>
        <time>2021-10-10T07:58:48Z</time>
      </trkpt>
      <trkpt lat="45.04891" lon="5.55203">
        <ele>1133</ele>
        <time>2021-10-10T07:58:49Z</time>
      </trkpt>
      <trkpt lat="45.04895" lon="5.55203">
        <ele>1132.6</ele>
        <time>2021-10-10T07:58:50Z</time>
      </trkpt>
      <trkpt lat="45.04898" lon="5.55203">
        <ele>1132.6</ele>
        <time>2021-10-10T07:58:51Z</time>
      </trkpt>
      <trkpt lat="45.04902" lon="5.55203">
        <ele>1132.6</ele>
        <time>2021-10-10T07:58:52Z</time>
      </trkpt>
      <trkpt lat="45.04906" lon="5.55203">
        <ele>1131.6</ele>
        <time>2021-10-10T07:58:53Z</time>
      </trkpt>
      <trkpt lat="45.0491" lon="5.55203">
        <ele>1131.6</ele>
        <time>2021-10-10T07:58:54Z</time>
      </trkpt>
      <trkpt lat="45.04914" lon="5.55203">
        <ele>1131.6</ele>
        <time>2021-10-10T07:58:55Z</time>
      </trkpt>
      <trkpt lat="45.04918" lon="5.55203">
        <ele>1131.6</ele>
        <time>2021-10-10T07:58:56Z</time>
      </trkpt>
      <trkpt lat="45.04922" lon="5.55203">
        <ele>1130.6</ele>
        <time>2021-10-10T07:58:57Z</time>
      </trkpt>
      <trkpt lat="45.04927" lon="5.55203">
        <ele>1129</ele>
        <time>2021-10-10T07:58:58Z</time>
      </trkpt>
      <trkpt lat="45.04933" lon="5.55203">
        <ele>1129</ele>
        <time>2021-10-10T07:58:59Z</time>
      </trkpt>
      <trkpt lat="45.04938" lon="5.55202">
        <ele>1129</ele>
        <time>2021-10-10T07:59:00Z</time>
      </trkpt>
      <trkpt lat="45.04944" lon="5.55202">
        <ele>1128</ele>
        <time>2021-10-10T07:59:01Z</time>
      </trkpt>
      <trkpt lat="45.04951" lon="5.55201">
        <ele>1127.8</ele>
        <time>2021-10-10T07:59:02Z</time>
      </trkpt>
      <trkpt lat="45.04957" lon="5.552">
        <ele>1127.8</ele>
        <time>2021-10-10T07:59:03Z</time>
      </trkpt>
      <trkpt lat="45.04963" lon="5.55199">
        <ele>1127.8</ele>
        <time>2021-10-10T07:59:04Z</time>
      </trkpt>
      <trkpt lat="45.04969" lon="5.55198">
        <ele>1127.2</ele>
        <time>2021-10-10T07:59:05Z</time>
      </trkpt>
      <trkpt lat="45.04975" lon="5.55197">
        <ele>1127.2</ele>
        <time>2021-10-10T07:59:06Z</time>
      </trkpt>
      <trkpt lat="45.04981" lon="5.55196">
        <ele>1127.2</ele>
        <time>2021-10-10T07:59:07Z</time>
      </trkpt>
      <trkpt lat="45.04987" lon="5.55195">
        <ele>1127.2</ele>
        <time>2021-10-10T07:59:08Z</time>
      </trkpt>
      <trkpt lat="45.04993" lon="5.55194">
        <ele>1127.2</ele>
        <time>2021-10-10T07:59:09Z</time>
      </trkpt>
      <trkpt lat="45.04999" lon="5.55193">
        <ele>1126</ele>
        <time>2021-10-10T07:59:10Z</time>
      </trkpt>
      <trkpt lat="45.05004" lon="5.55191">
        <ele>1126</ele>
        <time>2021-10-10T07:59:11Z</time>
      </trkpt>
      <trkpt lat="45.0501" lon="5.55189">
        <ele>1126</ele>
        <time>2021-10-10T07:59:12Z</time>
      </trkpt>
      <trkpt lat="45.05015" lon="5.55186">
        <ele>1125</ele>
        <time>2021-10-10T07:59:13Z</time>
      </trkpt>
      <trkpt lat="45.05021" lon="5.55185">
        <ele>1123.6</ele>
        <time>2021-10-10T07:59:14Z</time>
      </trkpt>
      <trkpt lat="45.05027" lon="5.55183">
        <ele>1123.6</ele>
        <time>2021-10-10T07:59:15Z</time>
      </trkpt>
      <trkpt lat="45.05032" lon="5.55182">
        <ele>1123.6</ele>
        <time>2021-10-10T07:59:16Z</time>
      </trkpt>
      <trkpt lat="45.05038" lon="5.55182">
        <ele>1122.6</ele>
        <time>2021-10-10T07:59:17Z</time>
      </trkpt>
      <trkpt lat="45.05044" lon="5.55182">
        <ele>1122</ele>
        <time>2021-10-10T07:59:18Z</time>
      </trkpt>
      <trkpt lat="45.05049" lon="5.55182">
        <ele>1122</ele>
        <time>2021-10-10T07:59:19Z</time>
      </trkpt>
      <trkpt lat="45.05054" lon="5.55183">
        <ele>1122</ele>
        <time>2021-10-10T07:59:20Z</time>
      </trkpt>
      <trkpt lat="45.05058" lon="5.55184">
        <ele>1121</ele>
        <time>2021-10-10T07:59:21Z</time>
      </trkpt>
      <trkpt lat="45.05063" lon="5.55187">
        <ele>1119.4</ele>
        <time>2021-10-10T07:59:22Z</time>
      </trkpt>
      <trkpt lat="45.05068" lon="5.55192">
        <ele>1119.4</ele>
        <time>2021-10-10T07:59:23Z</time>
      </trkpt>
      <trkpt lat="45.05072" lon="5.55197">
        <ele>1119.4</ele>
        <time>2021-10-10T07:59:24Z</time>
      </trkpt>
      <trkpt lat="45.05078" lon="5.55203">
        <ele>1118.4</ele>
        <time>2021-10-10T07:59:25Z</time>
      </trkpt>
      <trkpt lat="45.05084" lon="5.55209">
        <ele>1115.2</ele>
        <time>2021-10-10T07:59:26Z</time>
      </trkpt>
      <trkpt lat="45.05091" lon="5.55215">
        <ele>1115.2</ele>
        <time>2021-10-10T07:59:27Z</time>
      </trkpt>
      <trkpt lat="45.05098" lon="5.55221">
        <ele>1115.2</ele>
        <time>2021-10-10T07:59:28Z</time>
      </trkpt>
      <trkpt lat="45.05106" lon="5.55227">
        <ele>1114.2</ele>
        <time>2021-10-10T07:59:29Z</time>
      </trkpt>
      <trkpt lat="45.05115" lon="5.55232">
        <ele>1112.4</ele>
        <time>2021-10-10T07:59:30Z</time>
      </trkpt>
      <trkpt lat="45.05123" lon="5.55237">
        <ele>1112.4</ele>
        <time>2021-10-10T07:59:31Z</time>
      </trkpt>
      <trkpt lat="45.05131" lon="5.55242">
        <ele>1112.4</ele>
        <time>2021-10-10T07:59:32Z</time>
      </trkpt>
      <trkpt lat="45.05139" lon="5.55246">
        <ele>1113.4</ele>
        <time>2021-10-10T07:59:33Z</time>
      </trkpt>
      <trkpt lat="45.05146" lon="5.5525">
        <ele>1116.2</ele>
        <time>2021-10-10T07:59:34Z</time>
      </trkpt>
      <trkpt lat="45.05153" lon="5.55253">
        <ele>1116.2</ele>
        <time>2021-10-10T07:59:35Z</time>
      </trkpt>
      <trkpt lat="45.05159" lon="5.55257">
        <ele>1116.2</ele>
        <time>2021-10-10T07:59:36Z</time>
      </trkpt>
      <trkpt lat="45.05165" lon="5.55261">
        <ele>1116.2</ele>
        <time>2021-10-10T07:59:37Z</time>
      </trkpt>
      <trkpt lat="45.0517" lon="5.55266">
        <ele>1115.8</ele>
        <time>2021-10-10T07:59:38Z</time>
      </trkpt>
      <trkpt lat="45.05176" lon="5.55271">
        <ele>1115.8</ele>
        <time>2021-10-10T07:59:39Z</time>
      </trkpt>
      <trkpt lat="45.05181" lon="5.55278">
        <ele>1115.8</ele>
        <time>2021-10-10T07:59:40Z</time>
      </trkpt>
      <trkpt lat="45.05187" lon="5.55285">
        <ele>1114.8</ele>
        <time>2021-10-10T07:59:41Z</time>
      </trkpt>
      <trkpt lat="45.05195" lon="5.5529">
        <ele>1113.8</ele>
        <time>2021-10-10T07:59:42Z</time>
      </trkpt>
      <trkpt lat="45.05203" lon="5.55293">
        <ele>1113.8</ele>
        <time>2021-10-10T07:59:43Z</time>
      </trkpt>
      <trkpt lat="45.05212" lon="5.55293">
        <ele>1113.8</ele>
        <time>2021-10-10T07:59:44Z</time>
      </trkpt>
      <trkpt lat="45.05219" lon="5.55291">
        <ele>1114.8</ele>
        <time>2021-10-10T07:59:45Z</time>
      </trkpt>
      <trkpt lat="45.05227" lon="5.55289">
        <ele>1116.6</ele>
        <time>2021-10-10T07:59:46Z</time>
      </trkpt>
      <trkpt lat="45.05234" lon="5.55288">
        <ele>1116.6</ele>
        <time>2021-10-10T07:59:47Z</time>
      </trkpt>
      <trkpt lat="45.0524" lon="5.55288">
        <ele>1116.6</ele>
        <time>2021-10-10T07:59:48Z</time>
      </trkpt>
      <trkpt lat="45.05246" lon="5.55288">
        <ele>1117.6</ele>
        <time>2021-10-10T07:59:49Z</time>
      </trkpt>
      <trkpt lat="45.05251" lon="5.55288">
        <ele>1120.2</ele>
        <time>2021-10-10T07:59:50Z</time>
      </trkpt>
      <trkpt lat="45.05255" lon="5.55289">
        <ele>1120.2</ele>
        <time>2021-10-10T07:59:51Z</time>
      </trkpt>
      <trkpt lat="45.05259" lon="5.5529">
        <ele>1120.2</ele>
        <time>2021-10-10T07:59:52Z</time>
      </trkpt>
      <trkpt lat="45.05261" lon="5.55291">
        <ele>1121.2</ele>
        <time>2021-10-10T07:59:53Z</time>
      </trkpt>
      <trkpt lat="45.05264" lon="5.55292">
        <ele>1122.8</ele>
        <time>2021-10-10T07:59:54Z</time>
      </trkpt>
      <trkpt lat="45.05266" lon="5.55293">
        <ele>1122.8</ele>
        <time>2021-10-10T07:59:55Z</time>
      </trkpt>
      <trkpt lat="45.05269" lon="5.55294">
        <ele>1122.8</ele>
        <time>2021-10-10T07:59:56Z</time>
      </trkpt>
      <trkpt lat="45.05271" lon="5.55294">
        <ele>1122.8</ele>
        <time>2021-10-10T07:59:57Z</time>
      </trkpt>
      <trkpt lat="45.05274" lon="5.55295">
        <ele>1123.6</ele>
        <time>2021-10-10T07:59:58Z</time>
      </trkpt>
      <trkpt lat="45.05276" lon="5.55296">
        <ele>1123.6</ele>
        <time>2021-10-10T07:59:59Z</time>
      </trkpt>
      <trkpt lat="45.05279" lon="5.55297">
        <ele>1123.6</ele>
        <time>2021-10-10T08:00:00Z</time>
      </trkpt>
      <trkpt lat="45.05281" lon="5.55298">
        <ele>1124.6</ele>
        <time>2021-10-10T08:00:01Z</time>
      </trkpt>
      <trkpt lat="45.05283" lon="5.55299">
        <ele>1124.8</ele>
        <time>2021-10-10T08:00:02Z</time>
      </trkpt>
      <trkpt lat="45.05286" lon="5.553">
        <ele>1124.8</ele>
        <time>2021-10-10T08:00:03Z</time>
      </trkpt>
      <trkpt lat="45.05288" lon="5.55301">
        <ele>1124.8</ele>
        <time>2021-10-10T08:00:04Z</time>
      </trkpt>
      <trkpt lat="45.0529" lon="5.55302">
        <ele>1125.8</ele>
        <time>2021-10-10T08:00:05Z</time>
      </trkpt>
      <trkpt lat="45.05292" lon="5.55303">
        <ele>1126.2</ele>
        <time>2021-10-10T08:00:06Z</time>
      </trkpt>
      <trkpt lat="45.05294" lon="5.55304">
        <ele>1126.2</ele>
        <time>2021-10-10T08:00:07Z</time>
      </trkpt>
      <trkpt lat="45.05296" lon="5.55304">
        <ele>1126.2</ele>
        <time>2021-10-10T08:00:08Z</time>
      </trkpt>
      <trkpt lat="45.05298" lon="5.55305">
        <ele>1127</ele>
        <time>2021-10-10T08:00:09Z</time>
      </trkpt>
      <trkpt lat="45.05299" lon="5.55306">
        <ele>1127.4</ele>
        <time>2021-10-10T08:00:10Z</time>
      </trkpt>
      <trkpt lat="45.05301" lon="5.55307">
        <ele>1127.4</ele>
        <time>2021-10-10T08:00:11Z</time>
      </trkpt>
      <trkpt lat="45.05303" lon="5.55307">
        <ele>1127.4</ele>
        <time>2021-10-10T08:00:12Z</time>
      </trkpt>
      <trkpt lat="45.05304" lon="5.55307">
        <ele>1128</ele>
        <time>2021-10-10T08:00:13Z</time>
      </trkpt>
      <trkpt lat="45.05306" lon="5.55308">
        <ele>1128.6</ele>
        <time>2021-10-10T08:00:14Z</time>
      </trkpt>
      <trkpt lat="45.05307" lon="5.55308">
        <ele>1128.6</ele>
        <time>2021-10-10T08:00:15Z</time>
      </trkpt>
      <trkpt lat="45.05309" lon="5.55308">
        <ele>1128.6</ele>
        <time>2021-10-10T08:00:16Z</time>
      </trkpt>
      <trkpt lat="45.0531" lon="5.55308">
        <ele>1129</ele>
        <time>2021-10-10T08:00:17Z</time>
      </trkpt>
      <trkpt lat="45.05312" lon="5.55308">
        <ele>1129</ele>
        <time>2021-10-10T08:00:18Z</time>
      </trkpt>
      <trkpt lat="45.05314" lon="5.55309">
        <ele>1129</ele>
        <time>2021-10-10T08:00:19Z</time>
      </trkpt>
      <trkpt lat="45.05315" lon="5.5531">
        <ele>1129</ele>
        <time>2021-10-10T08:00:20Z</time>
      </trkpt>
      <trkpt lat="45.05317" lon="5.55311">
        <ele>1129</ele>
        <time>2021-10-10T08:00:21Z</time>
      </trkpt>
      <trkpt lat="45.05319" lon="5.55312">
        <ele>1129.6</ele>
        <time>2021-10-10T08:00:22Z</time>
      </trkpt>
      <trkpt lat="45.0532" lon="5.55313">
        <ele>1129.6</ele>
        <time>2021-10-10T08:00:23Z</time>
      </trkpt>
      <trkpt lat="45.05322" lon="5.55313">
        <ele>1129.6</ele>
        <time>2021-10-10T08:00:24Z</time>
      </trkpt>
      <trkpt lat="45.05324" lon="5.55314">
        <ele>1130.4</ele>
        <time>2021-10-10T08:00:25Z</time>
      </trkpt>
      <trkpt lat="45.05326" lon="5.55314">
        <ele>1131</ele>
        <time>2021-10-10T08:00:26Z</time>
      </trkpt>
      <trkpt lat="45.05327" lon="5.55315">
        <ele>1131</ele>
        <time>2021-10-10T08:00:27Z</time>
      </trkpt>
      <trkpt lat="45.05329" lon="5.55316">
        <ele>1131</ele>
        <time>2021-10-10T08:00:28Z</time>
      </trkpt>
      <trkpt lat="45.05331" lon="5.55316">
        <ele>1131</ele>
        <time>2021-10-10T08:00:29Z</time>
      </trkpt>
      <trkpt lat="45.05332" lon="5.55318">
        <ele>1131.2</ele>
        <time>2021-10-10T08:00:30Z</time>
      </trkpt>
      <trkpt lat="45.05334" lon="5.55319">
        <ele>1131.2</ele>
        <time>2021-10-10T08:00:31Z</time>
      </trkpt>
      <trkpt lat="45.05336" lon="5.5532">
        <ele>1131.2</ele>
        <time>2021-10-10T08:00:32Z</time>
      </trkpt>
      <trkpt lat="45.05337" lon="5.5532">
        <ele>1131.6</ele>
        <time>2021-10-10T08:00:33Z</time>
      </trkpt>
      <trkpt lat="45.05339" lon="5.55321">
        <ele>1132.2</ele>
        <time>2021-10-10T08:00:34Z</time>
      </trkpt>
      <trkpt lat="45.0534" lon="5.55322">
        <ele>1132.2</ele>
        <time>2021-10-10T08:00:35Z</time>
      </trkpt>
      <trkpt lat="45.05342" lon="5.55323">
        <ele>1132.2</ele>
        <time>2021-10-10T08:00:36Z</time>
      </trkpt>
      <trkpt lat="45.05343" lon="5.55324">
        <ele>1132</ele>
        <time>2021-10-10T08:00:37Z</time>
      </trkpt>
      <trkpt lat="45.05345" lon="5.55325">
        <ele>1132</ele>
        <time>2021-10-10T08:00:38Z</time>
      </trkpt>
      <trkpt lat="45.05346" lon="5.55325">
        <ele>1132</ele>
        <time>2021-10-10T08:00:39Z</time>
      </trkpt>
      <trkpt lat="45.05348" lon="5.55326">
        <ele>1132</ele>
        <time>2021-10-10T08:00:40Z</time>
      </trkpt>
      <trkpt lat="45.05349" lon="5.55327">
        <ele>1132</ele>
        <time>2021-10-10T08:00:41Z</time>
      </trkpt>
      <trkpt lat="45.0535" lon="5.55328">
        <ele>1131.8</ele>
        <time>2021-10-10T08:00:42Z</time>
      </trkpt>
      <trkpt lat="45.05352" lon="5.5533">
        <ele>1131.8</ele>
        <time>2021-10-10T08:00:43Z</time>
      </trkpt>
      <trkpt lat="45.05353" lon="5.55331">
        <ele>1131.8</ele>
        <time>2021-10-10T08:00:44Z</time>
      </trkpt>
      <trkpt lat="45.05355" lon="5.55332">
        <ele>1131.8</ele>
        <time>2021-10-10T08:00:45Z</time>
      </trkpt>
      <trkpt lat="45.05357" lon="5.55333">
        <ele>1131.2</ele>
        <time>2021-10-10T08:00:46Z</time>
      </trkpt>
      <trkpt lat="45.05359" lon="5.55334">
        <ele>1131.2</ele>
        <time>2021-10-10T08:00:47Z</time>
      </trkpt>
      <trkpt lat="45.05361" lon="5.55336">
        <ele>1131.2</ele>
        <time>2021-10-10T08:00:48Z</time>
      </trkpt>
      <trkpt lat="45.05363" lon="5.55337">
        <ele>1131.4</ele>
        <time>2021-10-10T08:00:49Z</time>
      </trkpt>
      <trkpt lat="45.05365" lon="5.55338">
        <ele>1131.2</ele>
        <time>2021-10-10T08:00:50Z</time>
      </trkpt>
      <trkpt lat="45.05367" lon="5.55339">
        <ele>1131.2</ele>
        <time>2021-10-10T08:00:51Z</time>
      </trkpt>
      <trkpt lat="45.05369" lon="5.55341">
        <ele>1131.2</ele>
        <time>2021-10-10T08:00:52Z</time>
      </trkpt>
      <trkpt lat="45.05372" lon="5.55342">
        <ele>1130.8</ele>
        <time>2021-10-10T08:00:53Z</time>
      </trkpt>
      <trkpt lat="45.05374" lon="5.55343">
        <ele>1130.4</ele>
        <time>2021-10-10T08:00:54Z</time>
      </trkpt>
      <trkpt lat="45.05376" lon="5.55345">
        <ele>1130.4</ele>
        <time>2021-10-10T08:00:55Z</time>
      </trkpt>
      <trkpt lat="45.05378" lon="5.55346">
        <ele>1130.4</ele>
        <time>2021-10-10T08:00:56Z</time>
      </trkpt>
      <trkpt lat="45.05381" lon="5.55348">
        <ele>1129.4</ele>
        <time>2021-10-10T08:00:57Z</time>
      </trkpt>
      <trkpt lat="45.05384" lon="5.55349">
        <ele>1127.8</ele>
        <time>2021-10-10T08:00:58Z</time>
      </trkpt>
      <trkpt lat="45.05388" lon="5.55351">
        <ele>1127.8</ele>
        <time>2021-10-10T08:00:59Z</time>
      </trkpt>
      <trkpt lat="45.05392" lon="5.55353">
        <ele>1127.8</ele>
        <time>2021-10-10T08:01:00Z</time>
      </trkpt>
      <trkpt lat="45.05396" lon="5.55356">
        <ele>1126.8</ele>
        <time>2021-10-10T08:01:01Z</time>
      </trkpt>
      <trkpt lat="45.05401" lon="5.5536">
        <ele>1123.6</ele>
        <time>2021-10-10T08:01:02Z</time>
      </trkpt>
      <trkpt lat="45.05406" lon="5.55365">
        <ele>1123.6</ele>
        <time>2021-10-10T08:01:03Z</time>
      </trkpt>
      <trkpt lat="45.05411" lon="5.55371">
        <ele>1123.6</ele>
        <time>2021-10-10T08:01:04Z</time>
      </trkpt>
      <trkpt lat="45.05417" lon="5.55376">
        <ele>1122.6</ele>
        <time>2021-10-10T08:01:05Z</time>
      </trkpt>
      <trkpt lat="45.05421" lon="5.55382">
        <ele>1121.4</ele>
        <time>2021-10-10T08:01:06Z</time>
      </trkpt>
      <trkpt lat="45.05425" lon="5.55388">
        <ele>1121.4</ele>
        <time>2021-10-10T08:01:07Z</time>
      </trkpt>
      <trkpt lat="45.05429" lon="5.55393">
        <ele>1121.4</ele>
        <time>2021-10-10T08:01:08Z</time>
      </trkpt>
      <trkpt lat="45.05432" lon="5.55397">
        <ele>1120.4</ele>
        <time>2021-10-10T08:01:09Z</time>
      </trkpt>
      <trkpt lat="45.05434" lon="5.554">
        <ele>1119.6</ele>
        <time>2021-10-10T08:01:10Z</time>
      </trkpt>
      <trkpt lat="45.05436" lon="5.55403">
        <ele>1119.6</ele>
        <time>2021-10-10T08:01:11Z</time>
      </trkpt>
      <trkpt lat="45.05437" lon="5.55405">
        <ele>1119.6</ele>
        <time>2021-10-10T08:01:12Z</time>
      </trkpt>
      <trkpt lat="45.05437" lon="5.55406">
        <ele>1119.6</ele>
        <time>2021-10-10T08:01:13Z</time>
      </trkpt>
      <trkpt lat="45.05438" lon="5.55408">
        <ele>1119.6</ele>
        <time>2021-10-10T08:01:14Z</time>
      </trkpt>
      <trkpt lat="45.0544" lon="5.5541">
        <ele>1119.6</ele>
        <time>2021-10-10T08:01:15Z</time>
      </trkpt>
      <trkpt lat="45.05442" lon="5.55412">
        <ele>1119.6</ele>
        <time>2021-10-10T08:01:16Z</time>
      </trkpt>
      <trkpt lat="45.05443" lon="5.55414">
        <ele>1119</ele>
        <time>2021-10-10T08:01:17Z</time>
      </trkpt>
      <trkpt lat="45.05444" lon="5.55417">
        <ele>1117.8</ele>
        <time>2021-10-10T08:01:18Z</time>
      </trkpt>
      <trkpt lat="45.05446" lon="5.55421">
        <ele>1117.8</ele>
        <time>2021-10-10T08:01:19Z</time>
      </trkpt>
      <trkpt lat="45.0545" lon="5.55425">
        <ele>1117.8</ele>
        <time>2021-10-10T08:01:20Z</time>
      </trkpt>
      <trkpt lat="45.05452" lon="5.5543">
        <ele>1117.8</ele>
        <time>2021-10-10T08:01:21Z</time>
      </trkpt>
      <trkpt lat="45.05456" lon="5.55436">
        <ele>1114.4</ele>
        <time>2021-10-10T08:01:22Z</time>
      </trkpt>
      <trkpt lat="45.05459" lon="5.55441">
        <ele>1114.4</ele>
        <time>2021-10-10T08:01:23Z</time>
      </trkpt>
      <trkpt lat="45.05462" lon="5.55446">
        <ele>1114.4</ele>
        <time>2021-10-10T08:01:24Z</time>
      </trkpt>
      <trkpt lat="45.05465" lon="5.55451">
        <ele>1113.4</ele>
        <time>2021-10-10T08:01:25Z</time>
      </trkpt>
      <trkpt lat="45.05469" lon="5.55456">
        <ele>1111</ele>
        <time>2021-10-10T08:01:26Z</time>
      </trkpt>
      <trkpt lat="45.05473" lon="5.55461">
        <ele>1111</ele>
        <time>2021-10-10T08:01:27Z</time>
      </trkpt>
      <trkpt lat="45.05477" lon="5.55465">
        <ele>1111</ele>
        <time>2021-10-10T08:01:28Z</time>
      </trkpt>
      <trkpt lat="45.05479" lon="5.55468">
        <ele>1110</ele>
        <time>2021-10-10T08:01:29Z</time>
      </trkpt>
      <trkpt lat="45.05482" lon="5.55471">
        <ele>1108.6</ele>
        <time>2021-10-10T08:01:30Z</time>
      </trkpt>
      <trkpt lat="45.05485" lon="5.55475">
        <ele>1108.6</ele>
        <time>2021-10-10T08:01:31Z</time>
      </trkpt>
      <trkpt lat="45.05487" lon="5.55478">
        <ele>1108.6</ele>
        <time>2021-10-10T08:01:32Z</time>
      </trkpt>
      <trkpt lat="45.0549" lon="5.5548">
        <ele>1107.6</ele>
        <time>2021-10-10T08:01:33Z</time>
      </trkpt>
      <trkpt lat="45.05492" lon="5.55482">
        <ele>1106.2</ele>
        <time>2021-10-10T08:01:34Z</time>
      </trkpt>
      <trkpt lat="45.05493" lon="5.55484">
        <ele>1106.2</ele>
        <time>2021-10-10T08:01:35Z</time>
      </trkpt>
      <trkpt lat="45.05497" lon="5.55487">
        <ele>1106.2</ele>
        <time>2021-10-10T08:01:36Z</time>
      </trkpt>
      <trkpt lat="45.05501" lon="5.55489">
        <ele>1105.2</ele>
        <time>2021-10-10T08:01:37Z</time>
      </trkpt>
      <trkpt lat="45.05504" lon="5.55493">
        <ele>1103</ele>
        <time>2021-10-10T08:01:38Z</time>
      </trkpt>
      <trkpt lat="45.05508" lon="5.55495">
        <ele>1103</ele>
        <time>2021-10-10T08:01:39Z</time>
      </trkpt>
      <trkpt lat="45.0551" lon="5.55498">
        <ele>1103</ele>
        <time>2021-10-10T08:01:40Z</time>
      </trkpt>
      <trkpt lat="45.05514" lon="5.55501">
        <ele>1102</ele>
        <time>2021-10-10T08:01:41Z</time>
      </trkpt>
      <trkpt lat="45.05518" lon="5.55506">
        <ele>1098.4</ele>
        <time>2021-10-10T08:01:42Z</time>
      </trkpt>
      <trkpt lat="45.05523" lon="5.55511">
        <ele>1098.4</ele>
        <time>2021-10-10T08:01:43Z</time>
      </trkpt>
      <trkpt lat="45.05528" lon="5.55517">
        <ele>1098.4</ele>
        <time>2021-10-10T08:01:44Z</time>
      </trkpt>
      <trkpt lat="45.05532" lon="5.55523">
        <ele>1097.4</ele>
        <time>2021-10-10T08:01:45Z</time>
      </trkpt>
      <trkpt lat="45.0554" lon="5.5553">
        <ele>1096.2</ele>
        <time>2021-10-10T08:01:46Z</time>
      </trkpt>
      <trkpt lat="45.05546" lon="5.55535">
        <ele>1096.2</ele>
        <time>2021-10-10T08:01:47Z</time>
      </trkpt>
      <trkpt lat="45.0555" lon="5.55539">
        <ele>1096.2</ele>
        <time>2021-10-10T08:01:48Z</time>
      </trkpt>
      <trkpt lat="45.05555" lon="5.55543">
        <ele>1095.2</ele>
        <time>2021-10-10T08:01:49Z</time>
      </trkpt>
      <trkpt lat="45.0556" lon="5.55548">
        <ele>1090.6</ele>
        <time>2021-10-10T08:01:50Z</time>
      </trkpt>
      <trkpt lat="45.05566" lon="5.55554">
        <ele>1090.6</ele>
        <time>2021-10-10T08:01:51Z</time>
      </trkpt>
      <trkpt lat="45.05571" lon="5.55559">
        <ele>1090.6</ele>
        <time>2021-10-10T08:01:52Z</time>
      </trkpt>
      <trkpt lat="45.05577" lon="5.55565">
        <ele>1090.6</ele>
        <time>2021-10-10T08:01:53Z</time>
      </trkpt>
      <trkpt lat="45.05584" lon="5.5557">
        <ele>1086.2</ele>
        <time>2021-10-10T08:01:54Z</time>
      </trkpt>
      <trkpt lat="45.05591" lon="5.55576">
        <ele>1086.2</ele>
        <time>2021-10-10T08:01:55Z</time>
      </trkpt>
      <trkpt lat="45.05597" lon="5.55582">
        <ele>1086.2</ele>
        <time>2021-10-10T08:01:56Z</time>
      </trkpt>
      <trkpt lat="45.05604" lon="5.55587">
        <ele>1085.2</ele>
        <time>2021-10-10T08:01:57Z</time>
      </trkpt>
      <trkpt lat="45.05611" lon="5.55591">
        <ele>1082.4</ele>
        <time>2021-10-10T08:01:58Z</time>
      </trkpt>
      <trkpt lat="45.05617" lon="5.55596">
        <ele>1082.4</ele>
        <time>2021-10-10T08:01:59Z</time>
      </trkpt>
      <trkpt lat="45.05621" lon="5.55602">
        <ele>1082.4</ele>
        <time>2021-10-10T08:02:00Z</time>
      </trkpt>
      <trkpt lat="45.05626" lon="5.5561">
        <ele>1083.4</ele>
        <time>2021-10-10T08:02:01Z</time>
      </trkpt>
      <trkpt lat="45.0563" lon="5.55618">
        <ele>1084.6</ele>
        <time>2021-10-10T08:02:02Z</time>
      </trkpt>
      <trkpt lat="45.05633" lon="5.55625">
        <ele>1084.6</ele>
        <time>2021-10-10T08:02:03Z</time>
      </trkpt>
      <trkpt lat="45.05637" lon="5.55629">
        <ele>1084.6</ele>
        <time>2021-10-10T08:02:04Z</time>
      </trkpt>
      <trkpt lat="45.05638" lon="5.55632">
        <ele>1085.6</ele>
        <time>2021-10-10T08:02:05Z</time>
      </trkpt>
      <trkpt lat="45.0564" lon="5.55634">
        <ele>1085.6</ele>
        <time>2021-10-10T08:02:06Z</time>
      </trkpt>
      <trkpt lat="45.05642" lon="5.55636">
        <ele>1085.6</ele>
        <time>2021-10-10T08:02:07Z</time>
      </trkpt>
      <trkpt lat="45.05648" lon="5.55636">
        <ele>1085.6</ele>
        <time>2021-10-10T08:02:08Z</time>
      </trkpt>
      <trkpt lat="45.05651" lon="5.55636">
        <ele>1084.8</ele>
        <time>2021-10-10T08:02:09Z</time>
      </trkpt>
      <trkpt lat="45.05654" lon="5.55635">
        <ele>1084.8</ele>
        <time>2021-10-10T08:02:10Z</time>
      </trkpt>
      <trkpt lat="45.05657" lon="5.55634">
        <ele>1084.8</ele>
        <time>2021-10-10T08:02:11Z</time>
      </trkpt>
      <trkpt lat="45.0566" lon="5.55634">
        <ele>1084.8</ele>
        <time>2021-10-10T08:02:12Z</time>
      </trkpt>
      <trkpt lat="45.05664" lon="5.55635">
        <ele>1083.8</ele>
        <time>2021-10-10T08:02:13Z</time>
      </trkpt>
      <trkpt lat="45.05668" lon="5.55637">
        <ele>1082.8</ele>
        <time>2021-10-10T08:02:14Z</time>
      </trkpt>
      <trkpt lat="45.05671" lon="5.55639">
        <ele>1082.8</ele>
        <time>2021-10-10T08:02:15Z</time>
      </trkpt>
      <trkpt lat="45.05674" lon="5.55641">
        <ele>1082.8</ele>
        <time>2021-10-10T08:02:16Z</time>
      </trkpt>
      <trkpt lat="45.05676" lon="5.55642">
        <ele>1081.8</ele>
        <time>2021-10-10T08:02:17Z</time>
      </trkpt>
      <trkpt lat="45.05679" lon="5.55642">
        <ele>1080.8</ele>
        <time>2021-10-10T08:02:18Z</time>
      </trkpt>
      <trkpt lat="45.05683" lon="5.55642">
        <ele>1080.8</ele>
        <time>2021-10-10T08:02:19Z</time>
      </trkpt>
      <trkpt lat="45.05687" lon="5.55642">
        <ele>1080.8</ele>
        <time>2021-10-10T08:02:20Z</time>
      </trkpt>
      <trkpt lat="45.05691" lon="5.55642">
        <ele>1079.8</ele>
        <time>2021-10-10T08:02:21Z</time>
      </trkpt>
      <trkpt lat="45.05696" lon="5.55641">
        <ele>1079.8</ele>
        <time>2021-10-10T08:02:22Z</time>
      </trkpt>
      <trkpt lat="45.05701" lon="5.55641">
        <ele>1079.8</ele>
        <time>2021-10-10T08:02:23Z</time>
      </trkpt>
      <trkpt lat="45.05706" lon="5.5564">
        <ele>1079.8</ele>
        <time>2021-10-10T08:02:24Z</time>
      </trkpt>
      <trkpt lat="45.05711" lon="5.55639">
        <ele>1078.8</ele>
        <time>2021-10-10T08:02:25Z</time>
      </trkpt>
      <trkpt lat="45.05717" lon="5.55636">
        <ele>1077.6</ele>
        <time>2021-10-10T08:02:26Z</time>
      </trkpt>
      <trkpt lat="45.05723" lon="5.55634">
        <ele>1077.6</ele>
        <time>2021-10-10T08:02:27Z</time>
      </trkpt>
      <trkpt lat="45.05729" lon="5.55631">
        <ele>1077.6</ele>
        <time>2021-10-10T08:02:28Z</time>
      </trkpt>
      <trkpt lat="45.05735" lon="5.55627">
        <ele>1077.4</ele>
        <time>2021-10-10T08:02:29Z</time>
      </trkpt>
      <trkpt lat="45.05741" lon="5.55624">
        <ele>1076.4</ele>
        <time>2021-10-10T08:02:30Z</time>
      </trkpt>
      <trkpt lat="45.05747" lon="5.55621">
        <ele>1076.4</ele>
        <time>2021-10-10T08:02:31Z</time>
      </trkpt>
      <trkpt lat="45.05753" lon="5.55618">
        <ele>1076.4</ele>
        <time>2021-10-10T08:02:32Z</time>
      </trkpt>
      <trkpt lat="45.05758" lon="5.55615">
        <ele>1075.4</ele>
        <time>2021-10-10T08:02:33Z</time>
      </trkpt>
      <trkpt lat="45.05764" lon="5.55611">
        <ele>1075</ele>
        <time>2021-10-10T08:02:34Z</time>
      </trkpt>
      <trkpt lat="45.05769" lon="5.55608">
        <ele>1075</ele>
        <time>2021-10-10T08:02:35Z</time>
      </trkpt>
      <trkpt lat="45.05773" lon="5.55605">
        <ele>1075</ele>
        <time>2021-10-10T08:02:36Z</time>
      </trkpt>
      <trkpt lat="45.05778" lon="5.55601">
        <ele>1074.4</ele>
        <time>2021-10-10T08:02:37Z</time>
      </trkpt>
      <trkpt lat="45.05782" lon="5.55597">
        <ele>1074</ele>
        <time>2021-10-10T08:02:38Z</time>
      </trkpt>
      <trkpt lat="45.05786" lon="5.55594">
        <ele>1074</ele>
        <time>2021-10-10T08:02:39Z</time>
      </trkpt>
      <trkpt lat="45.0579" lon="5.5559">
        <ele>1074</ele>
        <time>2021-10-10T08:02:40Z</time>
      </trkpt>
      <trkpt lat="45.05793" lon="5.55586">
        <ele>1073</ele>
        <time>2021-10-10T08:02:41Z</time>
      </trkpt>
      <trkpt lat="45.05796" lon="5.55582">
        <ele>1071.6</ele>
        <time>2021-10-10T08:02:42Z</time>
      </trkpt>
      <trkpt lat="45.058" lon="5.55578">
        <ele>1071.6</ele>
        <time>2021-10-10T08:02:43Z</time>
      </trkpt>
      <trkpt lat="45.05803" lon="5.55574">
        <ele>1071.6</ele>
        <time>2021-10-10T08:02:44Z</time>
      </trkpt>
      <trkpt lat="45.05806" lon="5.5557">
        <ele>1071.6</ele>
        <time>2021-10-10T08:02:45Z</time>
      </trkpt>
      <trkpt lat="45.05809" lon="5.55566">
        <ele>1071.6</ele>
        <time>2021-10-10T08:02:46Z</time>
      </trkpt>
      <trkpt lat="45.05812" lon="5.55561">
        <ele>1071.6</ele>
        <time>2021-10-10T08:02:47Z</time>
      </trkpt>
      <trkpt lat="45.05815" lon="5.55557">
        <ele>1071.6</ele>
        <time>2021-10-10T08:02:48Z</time>
      </trkpt>
      <trkpt lat="45.05817" lon="5.55554">
        <ele>1071.4</ele>
        <time>2021-10-10T08:02:49Z</time>
      </trkpt>
      <trkpt lat="45.0582" lon="5.5555">
        <ele>1071.6</ele>
        <time>2021-10-10T08:02:50Z</time>
      </trkpt>
      <trkpt lat="45.05822" lon="5.55547">
        <ele>1071.6</ele>
        <time>2021-10-10T08:02:51Z</time>
      </trkpt>
      <trkpt lat="45.05823" lon="5.55546">
        <ele>1071.6</ele>
        <time>2021-10-10T08:02:52Z</time>
      </trkpt>
      <trkpt lat="45.05824" lon="5.55544">
        <ele>1071.4</ele>
        <time>2021-10-10T08:02:53Z</time>
      </trkpt>
      <trkpt lat="45.05825" lon="5.55542">
        <ele>1071</ele>
        <time>2021-10-10T08:02:54Z</time>
      </trkpt>
      <trkpt lat="45.05826" lon="5.5554">
        <ele>1071</ele>
        <time>2021-10-10T08:02:55Z</time>
      </trkpt>
      <trkpt lat="45.05826" lon="5.55538">
        <ele>1071</ele>
        <time>2021-10-10T08:02:56Z</time>
      </trkpt>
      <trkpt lat="45.05827" lon="5.55537">
        <ele>1071</ele>
        <time>2021-10-10T08:02:57Z</time>
      </trkpt>
      <trkpt lat="45.05827" lon="5.55536">
        <ele>1071.2</ele>
        <time>2021-10-10T08:04:09Z</time>
      </trkpt>
      <trkpt lat="45.05828" lon="5.55535">
        <ele>1070.2</ele>
        <time>2021-10-10T08:04:10Z</time>
      </trkpt>
      <trkpt lat="45.0583" lon="5.55534">
        <ele>1070.2</ele>
        <time>2021-10-10T08:04:11Z</time>
      </trkpt>
      <trkpt lat="45.05832" lon="5.55532">
        <ele>1070.2</ele>
        <time>2021-10-10T08:04:12Z</time>
      </trkpt>
      <trkpt lat="45.05834" lon="5.5553">
        <ele>1070.2</ele>
        <time>2021-10-10T08:04:13Z</time>
      </trkpt>
      <trkpt lat="45.05837" lon="5.55528">
        <ele>1069.4</ele>
        <time>2021-10-10T08:04:14Z</time>
      </trkpt>
      <trkpt lat="45.0584" lon="5.55527">
        <ele>1069.4</ele>
        <time>2021-10-10T08:04:15Z</time>
      </trkpt>
      <trkpt lat="45.05844" lon="5.55524">
        <ele>1069.4</ele>
        <time>2021-10-10T08:04:16Z</time>
      </trkpt>
      <trkpt lat="45.05847" lon="5.55521">
        <ele>1068.4</ele>
        <time>2021-10-10T08:04:17Z</time>
      </trkpt>
      <trkpt lat="45.05851" lon="5.55518">
        <ele>1067.4</ele>
        <time>2021-10-10T08:04:18Z</time>
      </trkpt>
      <trkpt lat="45.05855" lon="5.55515">
        <ele>1067.4</ele>
        <time>2021-10-10T08:04:19Z</time>
      </trkpt>
      <trkpt lat="45.0586" lon="5.55511">
        <ele>1067.4</ele>
        <time>2021-10-10T08:04:20Z</time>
      </trkpt>
      <trkpt lat="45.05864" lon="5.55508">
        <ele>1067.4</ele>
        <time>2021-10-10T08:04:21Z</time>
      </trkpt>
      <trkpt lat="45.05868" lon="5.55505">
        <ele>1067</ele>
        <time>2021-10-10T08:04:22Z</time>
      </trkpt>
      <trkpt lat="45.05872" lon="5.55503">
        <ele>1067</ele>
        <time>2021-10-10T08:04:23Z</time>
      </trkpt>
      <trkpt lat="45.05877" lon="5.555">
        <ele>1067</ele>
        <time>2021-10-10T08:04:24Z</time>
      </trkpt>
      <trkpt lat="45.05882" lon="5.55497">
        <ele>1066.6</ele>
        <time>2021-10-10T08:04:25Z</time>
      </trkpt>
      <trkpt lat="45.05888" lon="5.55495">
        <ele>1066.6</ele>
        <time>2021-10-10T08:04:26Z</time>
      </trkpt>
      <trkpt lat="45.05892" lon="5.55494">
        <ele>1066.6</ele>
        <time>2021-10-10T08:04:27Z</time>
      </trkpt>
      <trkpt lat="45.05897" lon="5.55493">
        <ele>1066.6</ele>
        <time>2021-10-10T08:04:28Z</time>
      </trkpt>
      <trkpt lat="45.05901" lon="5.55493">
        <ele>1066.2</ele>
        <time>2021-10-10T08:04:29Z</time>
      </trkpt>
      <trkpt lat="45.05904" lon="5.55493">
        <ele>1066.2</ele>
        <time>2021-10-10T08:04:30Z</time>
      </trkpt>
      <trkpt lat="45.05908" lon="5.55493">
        <ele>1066.2</ele>
        <time>2021-10-10T08:04:31Z</time>
      </trkpt>
      <trkpt lat="45.0591" lon="5.55494">
        <ele>1066.2</ele>
        <time>2021-10-10T08:04:32Z</time>
      </trkpt>
      <trkpt lat="45.05913" lon="5.55494">
        <ele>1066.2</ele>
        <time>2021-10-10T08:04:33Z</time>
      </trkpt>
      <trkpt lat="45.05914" lon="5.55496">
        <ele>1066.4</ele>
        <time>2021-10-10T08:04:34Z</time>
      </trkpt>
      <trkpt lat="45.05915" lon="5.55497">
        <ele>1066.4</ele>
        <time>2021-10-10T08:04:35Z</time>
      </trkpt>
      <trkpt lat="45.05915" lon="5.55497">
        <ele>1066.4</ele>
        <time>2021-10-10T08:04:36Z</time>
      </trkpt>
      <trkpt lat="45.05916" lon="5.55497">
        <ele>1066</ele>
        <time>2021-10-10T08:04:53Z</time>
      </trkpt>
      <trkpt lat="45.05918" lon="5.55499">
        <ele>1065.2</ele>
        <time>2021-10-10T08:04:54Z</time>
      </trkpt>
      <trkpt lat="45.0592" lon="5.55502">
        <ele>1065.2</ele>
        <time>2021-10-10T08:04:55Z</time>
      </trkpt>
      <trkpt lat="45.05923" lon="5.55506">
        <ele>1065.2</ele>
        <time>2021-10-10T08:04:56Z</time>
      </trkpt>
      <trkpt lat="45.05925" lon="5.5551">
        <ele>1064.2</ele>
        <time>2021-10-10T08:04:57Z</time>
      </trkpt>
      <trkpt lat="45.05927" lon="5.55514">
        <ele>1064</ele>
        <time>2021-10-10T08:04:58Z</time>
      </trkpt>
      <trkpt lat="45.0593" lon="5.55518">
        <ele>1064</ele>
        <time>2021-10-10T08:04:59Z</time>
      </trkpt>
      <trkpt lat="45.05933" lon="5.55523">
        <ele>1064</ele>
        <time>2021-10-10T08:05:00Z</time>
      </trkpt>
      <trkpt lat="45.05936" lon="5.55528">
        <ele>1063.4</ele>
        <time>2021-10-10T08:05:01Z</time>
      </trkpt>
      <trkpt lat="45.05939" lon="5.55533">
        <ele>1062.8</ele>
        <time>2021-10-10T08:05:02Z</time>
      </trkpt>
      <trkpt lat="45.05941" lon="5.55538">
        <ele>1062.8</ele>
        <time>2021-10-10T08:05:03Z</time>
      </trkpt>
      <trkpt lat="45.05944" lon="5.55544">
        <ele>1062.8</ele>
        <time>2021-10-10T08:05:04Z</time>
      </trkpt>
      <trkpt lat="45.05947" lon="5.55549">
        <ele>1062.6</ele>
        <time>2021-10-10T08:05:05Z</time>
      </trkpt>
      <trkpt lat="45.0595" lon="5.55553">
        <ele>1062.2</ele>
        <time>2021-10-10T08:05:06Z</time>
      </trkpt>
      <trkpt lat="45.05953" lon="5.55559">
        <ele>1062.2</ele>
        <time>2021-10-10T08:05:07Z</time>
      </trkpt>
      <trkpt lat="45.05956" lon="5.55564">
        <ele>1062.2</ele>
        <time>2021-10-10T08:05:08Z</time>
      </trkpt>
      <trkpt lat="45.05959" lon="5.5557">
        <ele>1061.4</ele>
        <time>2021-10-10T08:05:09Z</time>
      </trkpt>
      <trkpt lat="45.05962" lon="5.55575">
        <ele>1061</ele>
        <time>2021-10-10T08:05:10Z</time>
      </trkpt>
      <trkpt lat="45.05965" lon="5.5558">
        <ele>1061</ele>
        <time>2021-10-10T08:05:11Z</time>
      </trkpt>
      <trkpt lat="45.0597" lon="5.55585">
        <ele>1061</ele>
        <time>2021-10-10T08:05:12Z</time>
      </trkpt>
      <trkpt lat="45.05974" lon="5.55589">
        <ele>1061</ele>
        <time>2021-10-10T08:05:13Z</time>
      </trkpt>
      <trkpt lat="45.05977" lon="5.55592">
        <ele>1061</ele>
        <time>2021-10-10T08:05:14Z</time>
      </trkpt>
      <trkpt lat="45.05981" lon="5.55595">
        <ele>1061.4</ele>
        <time>2021-10-10T08:05:15Z</time>
      </trkpt>
      <trkpt lat="45.05984" lon="5.55597">
        <ele>1061.4</ele>
        <time>2021-10-10T08:05:16Z</time>
      </trkpt>
      <trkpt lat="45.05987" lon="5.556">
        <ele>1060.4</ele>
        <time>2021-10-10T08:05:17Z</time>
      </trkpt>
      <trkpt lat="45.05991" lon="5.55602">
        <ele>1059.4</ele>
        <time>2021-10-10T08:05:18Z</time>
      </trkpt>
      <trkpt lat="45.05995" lon="5.55605">
        <ele>1059.4</ele>
        <time>2021-10-10T08:05:19Z</time>
      </trkpt>
      <trkpt lat="45.06" lon="5.55607">
        <ele>1059.4</ele>
        <time>2021-10-10T08:05:20Z</time>
      </trkpt>
      <trkpt lat="45.06005" lon="5.5561">
        <ele>1058.4</ele>
        <time>2021-10-10T08:05:21Z</time>
      </trkpt>
      <trkpt lat="45.0601" lon="5.55613">
        <ele>1056.6</ele>
        <time>2021-10-10T08:05:22Z</time>
      </trkpt>
      <trkpt lat="45.06015" lon="5.55617">
        <ele>1056.6</ele>
        <time>2021-10-10T08:05:23Z</time>
      </trkpt>
      <trkpt lat="45.06021" lon="5.55621">
        <ele>1056.6</ele>
        <time>2021-10-10T08:05:24Z</time>
      </trkpt>
      <trkpt lat="45.06026" lon="5.55625">
        <ele>1055.6</ele>
        <time>2021-10-10T08:05:25Z</time>
      </trkpt>
      <trkpt lat="45.06032" lon="5.5563">
        <ele>1052.2</ele>
        <time>2021-10-10T08:05:26Z</time>
      </trkpt>
      <trkpt lat="45.06039" lon="5.55635">
        <ele>1052.2</ele>
        <time>2021-10-10T08:05:27Z</time>
      </trkpt>
      <trkpt lat="45.06046" lon="5.5564">
        <ele>1052.2</ele>
        <time>2021-10-10T08:05:28Z</time>
      </trkpt>
      <trkpt lat="45.06053" lon="5.55644">
        <ele>1051.2</ele>
        <time>2021-10-10T08:05:29Z</time>
      </trkpt>
      <trkpt lat="45.06062" lon="5.55648">
        <ele>1051.4</ele>
        <time>2021-10-10T08:05:30Z</time>
      </trkpt>
      <trkpt lat="45.06069" lon="5.55649">
        <ele>1051.4</ele>
        <time>2021-10-10T08:05:31Z</time>
      </trkpt>
      <trkpt lat="45.06077" lon="5.55648">
        <ele>1051.4</ele>
        <time>2021-10-10T08:05:32Z</time>
      </trkpt>
      <trkpt lat="45.06083" lon="5.55645">
        <ele>1051.4</ele>
        <time>2021-10-10T08:05:33Z</time>
      </trkpt>
      <trkpt lat="45.06089" lon="5.55639">
        <ele>1051.8</ele>
        <time>2021-10-10T08:05:34Z</time>
      </trkpt>
      <trkpt lat="45.06095" lon="5.55633">
        <ele>1051.8</ele>
        <time>2021-10-10T08:05:35Z</time>
      </trkpt>
      <trkpt lat="45.061" lon="5.55627">
        <ele>1051.8</ele>
        <time>2021-10-10T08:05:36Z</time>
      </trkpt>
      <trkpt lat="45.06106" lon="5.55621">
        <ele>1052.8</ele>
        <time>2021-10-10T08:05:37Z</time>
      </trkpt>
      <trkpt lat="45.0611" lon="5.55616">
        <ele>1054</ele>
        <time>2021-10-10T08:05:38Z</time>
      </trkpt>
      <trkpt lat="45.06114" lon="5.55611">
        <ele>1054</ele>
        <time>2021-10-10T08:05:39Z</time>
      </trkpt>
      <trkpt lat="45.06118" lon="5.55605">
        <ele>1054</ele>
        <time>2021-10-10T08:05:40Z</time>
      </trkpt>
      <trkpt lat="45.06122" lon="5.55601">
        <ele>1055</ele>
        <time>2021-10-10T08:05:41Z</time>
      </trkpt>
      <trkpt lat="45.06125" lon="5.55597">
        <ele>1056.4</ele>
        <time>2021-10-10T08:05:42Z</time>
      </trkpt>
      <trkpt lat="45.06128" lon="5.55593">
        <ele>1056.4</ele>
        <time>2021-10-10T08:05:43Z</time>
      </trkpt>
      <trkpt lat="45.06131" lon="5.5559">
        <ele>1056.4</ele>
        <time>2021-10-10T08:05:44Z</time>
      </trkpt>
      <trkpt lat="45.06133" lon="5.55586">
        <ele>1057.4</ele>
        <time>2021-10-10T08:05:45Z</time>
      </trkpt>
      <trkpt lat="45.06135" lon="5.55583">
        <ele>1058</ele>
        <time>2021-10-10T08:05:46Z</time>
      </trkpt>
      <trkpt lat="45.06137" lon="5.5558">
        <ele>1058</ele>
        <time>2021-10-10T08:05:47Z</time>
      </trkpt>
      <trkpt lat="45.06139" lon="5.55578">
        <ele>1058</ele>
        <time>2021-10-10T08:05:48Z</time>
      </trkpt>
      <trkpt lat="45.06141" lon="5.55575">
        <ele>1059</ele>
        <time>2021-10-10T08:05:49Z</time>
      </trkpt>
      <trkpt lat="45.06143" lon="5.55572">
        <ele>1059.6</ele>
        <time>2021-10-10T08:05:50Z</time>
      </trkpt>
      <trkpt lat="45.06145" lon="5.5557">
        <ele>1059.6</ele>
        <time>2021-10-10T08:05:51Z</time>
      </trkpt>
      <trkpt lat="45.06146" lon="5.55568">
        <ele>1059.6</ele>
        <time>2021-10-10T08:05:52Z</time>
      </trkpt>
      <trkpt lat="45.06148" lon="5.55567">
        <ele>1060</ele>
        <time>2021-10-10T08:05:53Z</time>
      </trkpt>
      <trkpt lat="45.0615" lon="5.55566">
        <ele>1060.2</ele>
        <time>2021-10-10T08:05:54Z</time>
      </trkpt>
      <trkpt lat="45.06152" lon="5.55564">
        <ele>1060.2</ele>
        <time>2021-10-10T08:05:55Z</time>
      </trkpt>
      <trkpt lat="45.06155" lon="5.55564">
        <ele>1060.2</ele>
        <time>2021-10-10T08:05:56Z</time>
      </trkpt>
      <trkpt lat="45.06157" lon="5.55564">
        <ele>1061</ele>
        <time>2021-10-10T08:05:57Z</time>
      </trkpt>
      <trkpt lat="45.06159" lon="5.55564">
        <ele>1061.4</ele>
        <time>2021-10-10T08:05:58Z</time>
      </trkpt>
      <trkpt lat="45.06161" lon="5.55565">
        <ele>1061.4</ele>
        <time>2021-10-10T08:05:59Z</time>
      </trkpt>
      <trkpt lat="45.06164" lon="5.55566">
        <ele>1061.4</ele>
        <time>2021-10-10T08:06:00Z</time>
      </trkpt>
      <trkpt lat="45.06165" lon="5.55567">
        <ele>1062.2</ele>
        <time>2021-10-10T08:06:01Z</time>
      </trkpt>
      <trkpt lat="45.06167" lon="5.55568">
        <ele>1062.4</ele>
        <time>2021-10-10T08:06:02Z</time>
      </trkpt>
      <trkpt lat="45.06169" lon="5.5557">
        <ele>1062.4</ele>
        <time>2021-10-10T08:06:03Z</time>
      </trkpt>
      <trkpt lat="45.0617" lon="5.55571">
        <ele>1062.4</ele>
        <time>2021-10-10T08:06:04Z</time>
      </trkpt>
      <trkpt lat="45.06172" lon="5.55573">
        <ele>1063</ele>
        <time>2021-10-10T08:06:05Z</time>
      </trkpt>
      <trkpt lat="45.06173" lon="5.55575">
        <ele>1063.2</ele>
        <time>2021-10-10T08:06:06Z</time>
      </trkpt>
      <trkpt lat="45.06175" lon="5.55577">
        <ele>1063.2</ele>
        <time>2021-10-10T08:06:07Z</time>
      </trkpt>
      <trkpt lat="45.06176" lon="5.55579">
        <ele>1063.2</ele>
        <time>2021-10-10T08:06:08Z</time>
      </trkpt>
      <trkpt lat="45.06177" lon="5.55581">
        <ele>1063.6</ele>
        <time>2021-10-10T08:06:09Z</time>
      </trkpt>
      <trkpt lat="45.06178" lon="5.55584">
        <ele>1063.8</ele>
        <time>2021-10-10T08:06:10Z</time>
      </trkpt>
      <trkpt lat="45.06179" lon="5.55586">
        <ele>1063.8</ele>
        <time>2021-10-10T08:06:11Z</time>
      </trkpt>
      <trkpt lat="45.0618" lon="5.55588">
        <ele>1063.8</ele>
        <time>2021-10-10T08:06:12Z</time>
      </trkpt>
      <trkpt lat="45.06181" lon="5.5559">
        <ele>1064.2</ele>
        <time>2021-10-10T08:06:13Z</time>
      </trkpt>
      <trkpt lat="45.06182" lon="5.55592">
        <ele>1064.4</ele>
        <time>2021-10-10T08:06:14Z</time>
      </trkpt>
      <trkpt lat="45.06183" lon="5.55594">
        <ele>1064.4</ele>
        <time>2021-10-10T08:06:15Z</time>
      </trkpt>
      <trkpt lat="45.06184" lon="5.55596">
        <ele>1064.4</ele>
        <time>2021-10-10T08:06:16Z</time>
      </trkpt>
      <trkpt lat="45.06185" lon="5.55598">
        <ele>1064.6</ele>
        <time>2021-10-10T08:06:17Z</time>
      </trkpt>
      <trkpt lat="45.06187" lon="5.556">
        <ele>1064.6</ele>
        <time>2021-10-10T08:06:18Z</time>
      </trkpt>
      <trkpt lat="45.06189" lon="5.55602">
        <ele>1064.6</ele>
        <time>2021-10-10T08:06:19Z</time>
      </trkpt>
      <trkpt lat="45.0619" lon="5.55604">
        <ele>1064.6</ele>
        <time>2021-10-10T08:06:20Z</time>
      </trkpt>
      <trkpt lat="45.06192" lon="5.55606">
        <ele>1065.2</ele>
        <time>2021-10-10T08:06:21Z</time>
      </trkpt>
      <trkpt lat="45.06193" lon="5.55608">
        <ele>1065.6</ele>
        <time>2021-10-10T08:06:22Z</time>
      </trkpt>
      <trkpt lat="45.06194" lon="5.5561">
        <ele>1065.6</ele>
        <time>2021-10-10T08:06:23Z</time>
      </trkpt>
      <trkpt lat="45.06196" lon="5.55613">
        <ele>1065.6</ele>
        <time>2021-10-10T08:06:24Z</time>
      </trkpt>
      <trkpt lat="45.06197" lon="5.55615">
        <ele>1065.6</ele>
        <time>2021-10-10T08:06:25Z</time>
      </trkpt>
      <trkpt lat="45.06198" lon="5.55617">
        <ele>1065.8</ele>
        <time>2021-10-10T08:06:26Z</time>
      </trkpt>
      <trkpt lat="45.062" lon="5.55619">
        <ele>1065.8</ele>
        <time>2021-10-10T08:06:27Z</time>
      </trkpt>
      <trkpt lat="45.06201" lon="5.55621">
        <ele>1065.8</ele>
        <time>2021-10-10T08:06:28Z</time>
      </trkpt>
      <trkpt lat="45.06202" lon="5.55623">
        <ele>1066.4</ele>
        <time>2021-10-10T08:06:29Z</time>
      </trkpt>
      <trkpt lat="45.06204" lon="5.55625">
        <ele>1067</ele>
        <time>2021-10-10T08:06:30Z</time>
      </trkpt>
      <trkpt lat="45.06205" lon="5.55627">
        <ele>1067</ele>
        <time>2021-10-10T08:06:31Z</time>
      </trkpt>
      <trkpt lat="45.06206" lon="5.55629">
        <ele>1067</ele>
        <time>2021-10-10T08:06:32Z</time>
      </trkpt>
      <trkpt lat="45.06207" lon="5.55631">
        <ele>1067.4</ele>
        <time>2021-10-10T08:06:33Z</time>
      </trkpt>
      <trkpt lat="45.06209" lon="5.55633">
        <ele>1067.8</ele>
        <time>2021-10-10T08:06:34Z</time>
      </trkpt>
      <trkpt lat="45.0621" lon="5.55635">
        <ele>1067.8</ele>
        <time>2021-10-10T08:06:35Z</time>
      </trkpt>
      <trkpt lat="45.06211" lon="5.55637">
        <ele>1067.8</ele>
        <time>2021-10-10T08:06:36Z</time>
      </trkpt>
      <trkpt lat="45.06212" lon="5.55639">
        <ele>1068.2</ele>
        <time>2021-10-10T08:06:37Z</time>
      </trkpt>
      <trkpt lat="45.06213" lon="5.55642">
        <ele>1068.2</ele>
        <time>2021-10-10T08:06:38Z</time>
      </trkpt>
      <trkpt lat="45.06214" lon="5.55644">
        <ele>1068.2</ele>
        <time>2021-10-10T08:06:39Z</time>
      </trkpt>
      <trkpt lat="45.06216" lon="5.55646">
        <ele>1068.2</ele>
        <time>2021-10-10T08:06:40Z</time>
      </trkpt>
      <trkpt lat="45.06217" lon="5.55648">
        <ele>1069</ele>
        <time>2021-10-10T08:06:41Z</time>
      </trkpt>
      <trkpt lat="45.06218" lon="5.5565">
        <ele>1069.4</ele>
        <time>2021-10-10T08:06:42Z</time>
      </trkpt>
      <trkpt lat="45.06219" lon="5.55652">
        <ele>1069.4</ele>
        <time>2021-10-10T08:06:43Z</time>
      </trkpt>
      <trkpt lat="45.06221" lon="5.55654">
        <ele>1069.4</ele>
        <time>2021-10-10T08:06:44Z</time>
      </trkpt>
      <trkpt lat="45.06222" lon="5.55656">
        <ele>1069.4</ele>
        <time>2021-10-10T08:06:45Z</time>
      </trkpt>
      <trkpt lat="45.06223" lon="5.55658">
        <ele>1070</ele>
        <time>2021-10-10T08:06:46Z</time>
      </trkpt>
      <trkpt lat="45.06224" lon="5.55661">
        <ele>1070</ele>
        <time>2021-10-10T08:06:47Z</time>
      </trkpt>
      <trkpt lat="45.06226" lon="5.55663">
        <ele>1070</ele>
        <time>2021-10-10T08:06:48Z</time>
      </trkpt>
      <trkpt lat="45.06227" lon="5.55665">
        <ele>1070.4</ele>
        <time>2021-10-10T08:06:49Z</time>
      </trkpt>
      <trkpt lat="45.06228" lon="5.55668">
        <ele>1071</ele>
        <time>2021-10-10T08:06:50Z</time>
      </trkpt>
      <trkpt lat="45.0623" lon="5.5567">
        <ele>1071</ele>
        <time>2021-10-10T08:06:51Z</time>
      </trkpt>
      <trkpt lat="45.06231" lon="5.55672">
        <ele>1071</ele>
        <time>2021-10-10T08:06:52Z</time>
      </trkpt>
      <trkpt lat="45.06232" lon="5.55674">
        <ele>1071.4</ele>
        <time>2021-10-10T08:06:53Z</time>
      </trkpt>
      <trkpt lat="45.06233" lon="5.55676">
        <ele>1071.4</ele>
        <time>2021-10-10T08:06:54Z</time>
      </trkpt>
      <trkpt lat="45.06234" lon="5.55678">
        <ele>1071.4</ele>
        <time>2021-10-10T08:06:55Z</time>
      </trkpt>
      <trkpt lat="45.06235" lon="5.5568">
        <ele>1071.4</ele>
        <time>2021-10-10T08:06:56Z</time>
      </trkpt>
      <trkpt lat="45.06237" lon="5.55682">
        <ele>1072.4</ele>
        <time>2021-10-10T08:06:57Z</time>
      </trkpt>
      <trkpt lat="45.06238" lon="5.55684">
        <ele>1072.8</ele>
        <time>2021-10-10T08:06:58Z</time>
      </trkpt>
      <trkpt lat="45.06239" lon="5.55686">
        <ele>1072.8</ele>
        <time>2021-10-10T08:06:59Z</time>
      </trkpt>
      <trkpt lat="45.0624" lon="5.55688">
        <ele>1072.8</ele>
        <time>2021-10-10T08:07:00Z</time>
      </trkpt>
      <trkpt lat="45.06241" lon="5.5569">
        <ele>1072.8</ele>
        <time>2021-10-10T08:07:01Z</time>
      </trkpt>
      <trkpt lat="45.06242" lon="5.55692">
        <ele>1073.4</ele>
        <time>2021-10-10T08:07:02Z</time>
      </trkpt>
      <trkpt lat="45.06243" lon="5.55694">
        <ele>1073.4</ele>
        <time>2021-10-10T08:07:03Z</time>
      </trkpt>
      <trkpt lat="45.06244" lon="5.55696">
        <ele>1073.4</ele>
        <time>2021-10-10T08:07:04Z</time>
      </trkpt>
      <trkpt lat="45.06245" lon="5.55698">
        <ele>1073.4</ele>
        <time>2021-10-10T08:07:05Z</time>
      </trkpt>
      <trkpt lat="45.06246" lon="5.557">
        <ele>1074.4</ele>
        <time>2021-10-10T08:07:06Z</time>
      </trkpt>
      <trkpt lat="45.06248" lon="5.55702">
        <ele>1074.4</ele>
        <time>2021-10-10T08:07:07Z</time>
      </trkpt>
      <trkpt lat="45.06249" lon="5.55704">
        <ele>1074.4</ele>
        <time>2021-10-10T08:07:08Z</time>
      </trkpt>
      <trkpt lat="45.0625" lon="5.55706">
        <ele>1074.4</ele>
        <time>2021-10-10T08:07:09Z</time>
      </trkpt>
      <trkpt lat="45.06251" lon="5.55708">
        <ele>1074.8</ele>
        <time>2021-10-10T08:07:10Z</time>
      </trkpt>
      <trkpt lat="45.06252" lon="5.5571">
        <ele>1074.8</ele>
        <time>2021-10-10T08:07:11Z</time>
      </trkpt>
      <trkpt lat="45.06254" lon="5.55712">
        <ele>1074.8</ele>
        <time>2021-10-10T08:07:12Z</time>
      </trkpt>
      <trkpt lat="45.06255" lon="5.55714">
        <ele>1075.8</ele>
        <time>2021-10-10T08:07:13Z</time>
      </trkpt>
      <trkpt lat="45.06256" lon="5.55716">
        <ele>1075.8</ele>
        <time>2021-10-10T08:07:14Z</time>
      </trkpt>
      <trkpt lat="45.06257" lon="5.55718">
        <ele>1075.8</ele>
        <time>2021-10-10T08:07:15Z</time>
      </trkpt>
      <trkpt lat="45.06259" lon="5.5572">
        <ele>1075.8</ele>
        <time>2021-10-10T08:07:16Z</time>
      </trkpt>
      <trkpt lat="45.0626" lon="5.55722">
        <ele>1076.6</ele>
        <time>2021-10-10T08:07:17Z</time>
      </trkpt>
      <trkpt lat="45.06261" lon="5.55724">
        <ele>1076.6</ele>
        <time>2021-10-10T08:07:18Z</time>
      </trkpt>
      <trkpt lat="45.06261" lon="5.55726">
        <ele>1076.6</ele>
        <time>2021-10-10T08:07:19Z</time>
      </trkpt>
      <trkpt lat="45.06263" lon="5.55729">
        <ele>1076.6</ele>
        <time>2021-10-10T08:07:20Z</time>
      </trkpt>
      <trkpt lat="45.06264" lon="5.55731">
        <ele>1076.6</ele>
        <time>2021-10-10T08:07:21Z</time>
      </trkpt>
      <trkpt lat="45.06265" lon="5.55734">
        <ele>1077.2</ele>
        <time>2021-10-10T08:07:22Z</time>
      </trkpt>
      <trkpt lat="45.06266" lon="5.55736">
        <ele>1077.2</ele>
        <time>2021-10-10T08:07:23Z</time>
      </trkpt>
      <trkpt lat="45.06267" lon="5.55739">
        <ele>1077.2</ele>
        <time>2021-10-10T08:07:24Z</time>
      </trkpt>
      <trkpt lat="45.06268" lon="5.55741">
        <ele>1077.2</ele>
        <time>2021-10-10T08:07:25Z</time>
      </trkpt>
      <trkpt lat="45.06269" lon="5.55744">
        <ele>1077.6</ele>
        <time>2021-10-10T08:07:26Z</time>
      </trkpt>
      <trkpt lat="45.0627" lon="5.55746">
        <ele>1077.6</ele>
        <time>2021-10-10T08:07:27Z</time>
      </trkpt>
      <trkpt lat="45.06271" lon="5.55749">
        <ele>1077.6</ele>
        <time>2021-10-10T08:07:28Z</time>
      </trkpt>
      <trkpt lat="45.06271" lon="5.55752">
        <ele>1077.6</ele>
        <time>2021-10-10T08:07:29Z</time>
      </trkpt>
      <trkpt lat="45.06271" lon="5.55755">
        <ele>1077.8</ele>
        <time>2021-10-10T08:07:30Z</time>
      </trkpt>
      <trkpt lat="45.06272" lon="5.55758">
        <ele>1077.8</ele>
        <time>2021-10-10T08:07:31Z</time>
      </trkpt>
      <trkpt lat="45.06272" lon="5.55761">
        <ele>1077.8</ele>
        <time>2021-10-10T08:07:32Z</time>
      </trkpt>
      <trkpt lat="45.06273" lon="5.55764">
        <ele>1078.2</ele>
        <time>2021-10-10T08:07:33Z</time>
      </trkpt>
      <trkpt lat="45.06273" lon="5.55766">
        <ele>1078</ele>
        <time>2021-10-10T08:07:34Z</time>
      </trkpt>
      <trkpt lat="45.06273" lon="5.55769">
        <ele>1078</ele>
        <time>2021-10-10T08:07:35Z</time>
      </trkpt>
      <trkpt lat="45.06273" lon="5.55772">
        <ele>1078</ele>
        <time>2021-10-10T08:07:36Z</time>
      </trkpt>
      <trkpt lat="45.06273" lon="5.55775">
        <ele>1078</ele>
        <time>2021-10-10T08:07:37Z</time>
      </trkpt>
      <trkpt lat="45.06274" lon="5.55779">
        <ele>1077.8</ele>
        <time>2021-10-10T08:07:38Z</time>
      </trkpt>
      <trkpt lat="45.06274" lon="5.55783">
        <ele>1077.8</ele>
        <time>2021-10-10T08:07:39Z</time>
      </trkpt>
      <trkpt lat="45.06274" lon="5.55786">
        <ele>1077.8</ele>
        <time>2021-10-10T08:07:40Z</time>
      </trkpt>
      <trkpt lat="45.06275" lon="5.5579">
        <ele>1077.6</ele>
        <time>2021-10-10T08:07:41Z</time>
      </trkpt>
      <trkpt lat="45.06275" lon="5.55793">
        <ele>1077.8</ele>
        <time>2021-10-10T08:07:42Z</time>
      </trkpt>
      <trkpt lat="45.06275" lon="5.55796">
        <ele>1077.8</ele>
        <time>2021-10-10T08:07:43Z</time>
      </trkpt>
      <trkpt lat="45.06275" lon="5.55799">
        <ele>1077.8</ele>
        <time>2021-10-10T08:07:44Z</time>
      </trkpt>
      <trkpt lat="45.06276" lon="5.55802">
        <ele>1077</ele>
        <time>2021-10-10T08:07:45Z</time>
      </trkpt>
      <trkpt lat="45.06277" lon="5.55805">
        <ele>1077</ele>
        <time>2021-10-10T08:07:46Z</time>
      </trkpt>
      <trkpt lat="45.06278" lon="5.55809">
        <ele>1077</ele>
        <time>2021-10-10T08:07:47Z</time>
      </trkpt>
      <trkpt lat="45.06279" lon="5.55812">
        <ele>1077</ele>
        <time>2021-10-10T08:07:48Z</time>
      </trkpt>
      <trkpt lat="45.0628" lon="5.55816">
        <ele>1077</ele>
        <time>2021-10-10T08:07:49Z</time>
      </trkpt>
      <trkpt lat="45.06282" lon="5.55819">
        <ele>1076.8</ele>
        <time>2021-10-10T08:07:50Z</time>
      </trkpt>
      <trkpt lat="45.06283" lon="5.55823">
        <ele>1076.8</ele>
        <time>2021-10-10T08:07:51Z</time>
      </trkpt>
      <trkpt lat="45.06285" lon="5.55827">
        <ele>1076.8</ele>
        <time>2021-10-10T08:07:52Z</time>
      </trkpt>
      <trkpt lat="45.06286" lon="5.55832">
        <ele>1076</ele>
        <time>2021-10-10T08:07:53Z</time>
      </trkpt>
      <trkpt lat="45.06288" lon="5.55836">
        <ele>1076</ele>
        <time>2021-10-10T08:07:54Z</time>
      </trkpt>
      <trkpt lat="45.06289" lon="5.5584">
        <ele>1076</ele>
        <time>2021-10-10T08:07:55Z</time>
      </trkpt>
      <trkpt lat="45.0629" lon="5.55843">
        <ele>1076</ele>
        <time>2021-10-10T08:07:56Z</time>
      </trkpt>
      <trkpt lat="45.06291" lon="5.55846">
        <ele>1075.6</ele>
        <time>2021-10-10T08:07:57Z</time>
      </trkpt>
      <trkpt lat="45.06292" lon="5.55849">
        <ele>1075.6</ele>
        <time>2021-10-10T08:07:58Z</time>
      </trkpt>
      <trkpt lat="45.06293" lon="5.55851">
        <ele>1075.6</ele>
        <time>2021-10-10T08:07:59Z</time>
      </trkpt>
      <trkpt lat="45.06294" lon="5.55853">
        <ele>1075.6</ele>
        <time>2021-10-10T08:08:00Z</time>
      </trkpt>
      <trkpt lat="45.06294" lon="5.55855">
        <ele>1075.6</ele>
        <time>2021-10-10T08:08:01Z</time>
      </trkpt>
      <trkpt lat="45.06295" lon="5.55857">
        <ele>1075.4</ele>
        <time>2021-10-10T08:08:02Z</time>
      </trkpt>
      <trkpt lat="45.06295" lon="5.55858">
        <ele>1075.4</ele>
        <time>2021-10-10T08:08:03Z</time>
      </trkpt>
      <trkpt lat="45.06296" lon="5.55859">
        <ele>1075.4</ele>
        <time>2021-10-10T08:08:04Z</time>
      </trkpt>
      <trkpt lat="45.06296" lon="5.5586">
        <ele>1075.6</ele>
        <time>2021-10-10T08:08:05Z</time>
      </trkpt>
      <trkpt lat="45.06292" lon="5.55858">
        <ele>1076.6</ele>
        <time>2021-10-10T08:08:55Z</time>
      </trkpt>
      <trkpt lat="45.06292" lon="5.5586">
        <ele>1076.6</ele>
        <time>2021-10-10T08:08:56Z</time>
      </trkpt>
      <trkpt lat="45.06292" lon="5.55863">
        <ele>1076.6</ele>
        <time>2021-10-10T08:08:57Z</time>
      </trkpt>
      <trkpt lat="45.06292" lon="5.55865">
        <ele>1076.6</ele>
        <time>2021-10-10T08:08:58Z</time>
      </trkpt>
      <trkpt lat="45.06292" lon="5.55867">
        <ele>1076.6</ele>
        <time>2021-10-10T08:08:59Z</time>
      </trkpt>
      <trkpt lat="45.06293" lon="5.55869">
        <ele>1076.6</ele>
        <time>2021-10-10T08:09:00Z</time>
      </trkpt>
      <trkpt lat="45.06293" lon="5.55872">
        <ele>1076.4</ele>
        <time>2021-10-10T08:09:01Z</time>
      </trkpt>
      <trkpt lat="45.06293" lon="5.55875">
        <ele>1076.6</ele>
        <time>2021-10-10T08:09:02Z</time>
      </trkpt>
      <trkpt lat="45.06294" lon="5.55878">
        <ele>1076.6</ele>
        <time>2021-10-10T08:09:03Z</time>
      </trkpt>
      <trkpt lat="45.06295" lon="5.55881">
        <ele>1076.6</ele>
        <time>2021-10-10T08:09:04Z</time>
      </trkpt>
      <trkpt lat="45.06296" lon="5.55884">
        <ele>1077.6</ele>
        <time>2021-10-10T08:09:05Z</time>
      </trkpt>
      <trkpt lat="45.06297" lon="5.55887">
        <ele>1078</ele>
        <time>2021-10-10T08:09:06Z</time>
      </trkpt>
      <trkpt lat="45.06297" lon="5.5589">
        <ele>1078</ele>
        <time>2021-10-10T08:09:07Z</time>
      </trkpt>
      <trkpt lat="45.06298" lon="5.55893">
        <ele>1078</ele>
        <time>2021-10-10T08:09:08Z</time>
      </trkpt>
      <trkpt lat="45.06299" lon="5.55895">
        <ele>1079</ele>
        <time>2021-10-10T08:09:09Z</time>
      </trkpt>
      <trkpt lat="45.06299" lon="5.55898">
        <ele>1079</ele>
        <time>2021-10-10T08:09:10Z</time>
      </trkpt>
      <trkpt lat="45.063" lon="5.559">
        <ele>1079.8</ele>
        <time>2021-10-10T08:09:11Z</time>
      </trkpt>
      <trkpt lat="45.063" lon="5.55902">
        <ele>1079.8</ele>
        <time>2021-10-10T08:09:12Z</time>
      </trkpt>
      <trkpt lat="45.06301" lon="5.55903">
        <ele>1079.8</ele>
        <time>2021-10-10T08:09:13Z</time>
      </trkpt>
      <trkpt lat="45.06301" lon="5.55905">
        <ele>1080.8</ele>
        <time>2021-10-10T08:09:14Z</time>
      </trkpt>
      <trkpt lat="45.063" lon="5.55906">
        <ele>1080.8</ele>
        <time>2021-10-10T08:09:15Z</time>
      </trkpt>
      <trkpt lat="45.063" lon="5.55908">
        <ele>1080.8</ele>
        <time>2021-10-10T08:09:16Z</time>
      </trkpt>
      <trkpt lat="45.06299" lon="5.55909">
        <ele>1080.8</ele>
        <time>2021-10-10T08:09:17Z</time>
      </trkpt>
      <trkpt lat="45.06299" lon="5.55911">
        <ele>1081.4</ele>
        <time>2021-10-10T08:09:18Z</time>
      </trkpt>
      <trkpt lat="45.06299" lon="5.55913">
        <ele>1081.4</ele>
        <time>2021-10-10T08:09:19Z</time>
      </trkpt>
      <trkpt lat="45.06298" lon="5.55915">
        <ele>1081.4</ele>
        <time>2021-10-10T08:09:20Z</time>
      </trkpt>
      <trkpt lat="45.06298" lon="5.55917">
        <ele>1081.4</ele>
        <time>2021-10-10T08:09:21Z</time>
      </trkpt>
      <trkpt lat="45.06297" lon="5.5592">
        <ele>1081.6</ele>
        <time>2021-10-10T08:09:22Z</time>
      </trkpt>
      <trkpt lat="45.06297" lon="5.55921">
        <ele>1081.6</ele>
        <time>2021-10-10T08:09:23Z</time>
      </trkpt>
      <trkpt lat="45.06296" lon="5.55923">
        <ele>1081.6</ele>
        <time>2021-10-10T08:09:24Z</time>
      </trkpt>
      <trkpt lat="45.06296" lon="5.55925">
        <ele>1082.6</ele>
        <time>2021-10-10T08:09:25Z</time>
      </trkpt>
      <trkpt lat="45.06296" lon="5.55927">
        <ele>1082.8</ele>
        <time>2021-10-10T08:09:26Z</time>
      </trkpt>
      <trkpt lat="45.06295" lon="5.55929">
        <ele>1082.8</ele>
        <time>2021-10-10T08:09:27Z</time>
      </trkpt>
      <trkpt lat="45.06295" lon="5.55931">
        <ele>1082.8</ele>
        <time>2021-10-10T08:09:28Z</time>
      </trkpt>
      <trkpt lat="45.06294" lon="5.55933">
        <ele>1083.6</ele>
        <time>2021-10-10T08:09:29Z</time>
      </trkpt>
      <trkpt lat="45.06294" lon="5.55934">
        <ele>1083.8</ele>
        <time>2021-10-10T08:09:30Z</time>
      </trkpt>
      <trkpt lat="45.06293" lon="5.55936">
        <ele>1083.8</ele>
        <time>2021-10-10T08:09:31Z</time>
      </trkpt>
      <trkpt lat="45.06293" lon="5.55938">
        <ele>1083.8</ele>
        <time>2021-10-10T08:09:32Z</time>
      </trkpt>
      <trkpt lat="45.06293" lon="5.5594">
        <ele>1084.6</ele>
        <time>2021-10-10T08:09:33Z</time>
      </trkpt>
      <trkpt lat="45.06292" lon="5.55942">
        <ele>1084.6</ele>
        <time>2021-10-10T08:09:34Z</time>
      </trkpt>
      <trkpt lat="45.06292" lon="5.55944">
        <ele>1084.6</ele>
        <time>2021-10-10T08:09:35Z</time>
      </trkpt>
      <trkpt lat="45.06292" lon="5.55945">
        <ele>1084.6</ele>
        <time>2021-10-10T08:09:36Z</time>
      </trkpt>
      <trkpt lat="45.06292" lon="5.55947">
        <ele>1085.6</ele>
        <time>2021-10-10T08:09:37Z</time>
      </trkpt>
      <trkpt lat="45.06291" lon="5.55949">
        <ele>1085.6</ele>
        <time>2021-10-10T08:09:38Z</time>
      </trkpt>
      <trkpt lat="45.0629" lon="5.55951">
        <ele>1085.6</ele>
        <time>2021-10-10T08:09:39Z</time>
      </trkpt>
      <trkpt lat="45.0629" lon="5.55952">
        <ele>1085.6</ele>
        <time>2021-10-10T08:09:40Z</time>
      </trkpt>
      <trkpt lat="45.0629" lon="5.55954">
        <ele>1086.4</ele>
        <time>2021-10-10T08:09:41Z</time>
      </trkpt>
      <trkpt lat="45.0629" lon="5.55956">
        <ele>1086.8</ele>
        <time>2021-10-10T08:09:42Z</time>
      </trkpt>
      <trkpt lat="45.0629" lon="5.55957">
        <ele>1086.8</ele>
        <time>2021-10-10T08:09:43Z</time>
      </trkpt>
      <trkpt lat="45.0629" lon="5.55959">
        <ele>1086.8</ele>
        <time>2021-10-10T08:09:44Z</time>
      </trkpt>
      <trkpt lat="45.0629" lon="5.55961">
        <ele>1087.6</ele>
        <time>2021-10-10T08:09:45Z</time>
      </trkpt>
      <trkpt lat="45.0629" lon="5.55963">
        <ele>1088.2</ele>
        <time>2021-10-10T08:09:46Z</time>
      </trkpt>
      <trkpt lat="45.0629" lon="5.55964">
        <ele>1088.2</ele>
        <time>2021-10-10T08:09:47Z</time>
      </trkpt>
      <trkpt lat="45.0629" lon="5.55966">
        <ele>1088.2</ele>
        <time>2021-10-10T08:09:48Z</time>
      </trkpt>
      <trkpt lat="45.0629" lon="5.55968">
        <ele>1088.2</ele>
        <time>2021-10-10T08:09:49Z</time>
      </trkpt>
      <trkpt lat="45.0629" lon="5.5597">
        <ele>1089</ele>
        <time>2021-10-10T08:09:50Z</time>
      </trkpt>
      <trkpt lat="45.06289" lon="5.55972">
        <ele>1089</ele>
        <time>2021-10-10T08:09:51Z</time>
      </trkpt>
      <trkpt lat="45.06289" lon="5.55974">
        <ele>1089</ele>
        <time>2021-10-10T08:09:52Z</time>
      </trkpt>
      <trkpt lat="45.06289" lon="5.55975">
        <ele>1089</ele>
        <time>2021-10-10T08:09:53Z</time>
      </trkpt>
      <trkpt lat="45.06289" lon="5.55977">
        <ele>1089.4</ele>
        <time>2021-10-10T08:09:54Z</time>
      </trkpt>
      <trkpt lat="45.06289" lon="5.55979">
        <ele>1089.4</ele>
        <time>2021-10-10T08:09:55Z</time>
      </trkpt>
      <trkpt lat="45.06289" lon="5.55981">
        <ele>1089.4</ele>
        <time>2021-10-10T08:09:56Z</time>
      </trkpt>
      <trkpt lat="45.06289" lon="5.55983">
        <ele>1089.6</ele>
        <time>2021-10-10T08:09:57Z</time>
      </trkpt>
      <trkpt lat="45.06289" lon="5.55984">
        <ele>1090</ele>
        <time>2021-10-10T08:09:58Z</time>
      </trkpt>
      <trkpt lat="45.06288" lon="5.55986">
        <ele>1090</ele>
        <time>2021-10-10T08:09:59Z</time>
      </trkpt>
      <trkpt lat="45.06288" lon="5.55988">
        <ele>1090</ele>
        <time>2021-10-10T08:10:00Z</time>
      </trkpt>
      <trkpt lat="45.06288" lon="5.5599">
        <ele>1090.8</ele>
        <time>2021-10-10T08:10:01Z</time>
      </trkpt>
      <trkpt lat="45.06288" lon="5.55992">
        <ele>1090.8</ele>
        <time>2021-10-10T08:10:02Z</time>
      </trkpt>
      <trkpt lat="45.06288" lon="5.55994">
        <ele>1090.8</ele>
        <time>2021-10-10T08:10:03Z</time>
      </trkpt>
      <trkpt lat="45.06288" lon="5.55996">
        <ele>1090.8</ele>
        <time>2021-10-10T08:10:04Z</time>
      </trkpt>
      <trkpt lat="45.06287" lon="5.55998">
        <ele>1090.8</ele>
        <time>2021-10-10T08:10:05Z</time>
      </trkpt>
      <trkpt lat="45.06287" lon="5.56">
        <ele>1091.6</ele>
        <time>2021-10-10T08:10:06Z</time>
      </trkpt>
      <trkpt lat="45.06287" lon="5.56001">
        <ele>1091.6</ele>
        <time>2021-10-10T08:10:07Z</time>
      </trkpt>
      <trkpt lat="45.06287" lon="5.56003">
        <ele>1091.6</ele>
        <time>2021-10-10T08:10:08Z</time>
      </trkpt>
      <trkpt lat="45.06286" lon="5.56005">
        <ele>1091.6</ele>
        <time>2021-10-10T08:10:09Z</time>
      </trkpt>
      <trkpt lat="45.06286" lon="5.56007">
        <ele>1092</ele>
        <time>2021-10-10T08:10:10Z</time>
      </trkpt>
      <trkpt lat="45.06286" lon="5.56008">
        <ele>1092</ele>
        <time>2021-10-10T08:10:11Z</time>
      </trkpt>
      <trkpt lat="45.06286" lon="5.5601">
        <ele>1092</ele>
        <time>2021-10-10T08:10:12Z</time>
      </trkpt>
      <trkpt lat="45.06285" lon="5.56011">
        <ele>1092.4</ele>
        <time>2021-10-10T08:10:13Z</time>
      </trkpt>
      <trkpt lat="45.06285" lon="5.56013">
        <ele>1092.6</ele>
        <time>2021-10-10T08:10:14Z</time>
      </trkpt>
      <trkpt lat="45.06285" lon="5.56014">
        <ele>1092.6</ele>
        <time>2021-10-10T08:10:15Z</time>
      </trkpt>
      <trkpt lat="45.06285" lon="5.56016">
        <ele>1092.6</ele>
        <time>2021-10-10T08:10:16Z</time>
      </trkpt>
      <trkpt lat="45.06285" lon="5.56017">
        <ele>1093.4</ele>
        <time>2021-10-10T08:10:17Z</time>
      </trkpt>
      <trkpt lat="45.06285" lon="5.56048">
        <ele>1095.8</ele>
        <time>2021-10-10T08:11:19Z</time>
      </trkpt>
      <trkpt lat="45.06285" lon="5.56051">
        <ele>1095.8</ele>
        <time>2021-10-10T08:11:20Z</time>
      </trkpt>
      <trkpt lat="45.06285" lon="5.56054">
        <ele>1096.8</ele>
        <time>2021-10-10T08:11:21Z</time>
      </trkpt>
      <trkpt lat="45.06285" lon="5.56056">
        <ele>1097.6</ele>
        <time>2021-10-10T08:11:22Z</time>
      </trkpt>
      <trkpt lat="45.06285" lon="5.56059">
        <ele>1097.6</ele>
        <time>2021-10-10T08:11:23Z</time>
      </trkpt>
      <trkpt lat="45.06285" lon="5.56061">
        <ele>1097.6</ele>
        <time>2021-10-10T08:11:24Z</time>
      </trkpt>
      <trkpt lat="45.06285" lon="5.56063">
        <ele>1098.6</ele>
        <time>2021-10-10T08:11:25Z</time>
      </trkpt>
      <trkpt lat="45.06285" lon="5.56064">
        <ele>1099</ele>
        <time>2021-10-10T08:11:26Z</time>
      </trkpt>
      <trkpt lat="45.06285" lon="5.56066">
        <ele>1099</ele>
        <time>2021-10-10T08:11:27Z</time>
      </trkpt>
      <trkpt lat="45.06285" lon="5.56068">
        <ele>1099</ele>
        <time>2021-10-10T08:11:28Z</time>
      </trkpt>
      <trkpt lat="45.06285" lon="5.5607">
        <ele>1099.4</ele>
        <time>2021-10-10T08:11:29Z</time>
      </trkpt>
      <trkpt lat="45.06284" lon="5.56072">
        <ele>1100.2</ele>
        <time>2021-10-10T08:11:30Z</time>
      </trkpt>
      <trkpt lat="45.06285" lon="5.56074">
        <ele>1100.2</ele>
        <time>2021-10-10T08:11:31Z</time>
      </trkpt>
      <trkpt lat="45.06285" lon="5.56076">
        <ele>1100.2</ele>
        <time>2021-10-10T08:11:32Z</time>
      </trkpt>
      <trkpt lat="45.06285" lon="5.56078">
        <ele>1100.2</ele>
        <time>2021-10-10T08:11:33Z</time>
      </trkpt>
      <trkpt lat="45.06286" lon="5.5608">
        <ele>1100.8</ele>
        <time>2021-10-10T08:11:34Z</time>
      </trkpt>
      <trkpt lat="45.06286" lon="5.56083">
        <ele>1100.8</ele>
        <time>2021-10-10T08:11:35Z</time>
      </trkpt>
      <trkpt lat="45.06286" lon="5.56085">
        <ele>1100.8</ele>
        <time>2021-10-10T08:11:36Z</time>
      </trkpt>
      <trkpt lat="45.06287" lon="5.56087">
        <ele>1100.4</ele>
        <time>2021-10-10T08:11:37Z</time>
      </trkpt>
      <trkpt lat="45.06288" lon="5.56089">
        <ele>1100.8</ele>
        <time>2021-10-10T08:11:38Z</time>
      </trkpt>
      <trkpt lat="45.0629" lon="5.56092">
        <ele>1100.8</ele>
        <time>2021-10-10T08:11:39Z</time>
      </trkpt>
      <trkpt lat="45.0629" lon="5.56094">
        <ele>1100.8</ele>
        <time>2021-10-10T08:11:40Z</time>
      </trkpt>
      <trkpt lat="45.0629" lon="5.56096">
        <ele>1100.8</ele>
        <time>2021-10-10T08:11:41Z</time>
      </trkpt>
      <trkpt lat="45.06291" lon="5.56099">
        <ele>1101.2</ele>
        <time>2021-10-10T08:11:42Z</time>
      </trkpt>
      <trkpt lat="45.06291" lon="5.56101">
        <ele>1101.2</ele>
        <time>2021-10-10T08:11:43Z</time>
      </trkpt>
      <trkpt lat="45.06292" lon="5.56104">
        <ele>1101.2</ele>
        <time>2021-10-10T08:11:44Z</time>
      </trkpt>
      <trkpt lat="45.06292" lon="5.56107">
        <ele>1101.2</ele>
        <time>2021-10-10T08:11:45Z</time>
      </trkpt>
      <trkpt lat="45.06293" lon="5.5611">
        <ele>1101.4</ele>
        <time>2021-10-10T08:11:46Z</time>
      </trkpt>
      <trkpt lat="45.06293" lon="5.56112">
        <ele>1101.4</ele>
        <time>2021-10-10T08:11:47Z</time>
      </trkpt>
      <trkpt lat="45.06293" lon="5.56114">
        <ele>1101.4</ele>
        <time>2021-10-10T08:11:48Z</time>
      </trkpt>
      <trkpt lat="45.06292" lon="5.56115">
        <ele>1101.8</ele>
        <time>2021-10-10T08:11:49Z</time>
      </trkpt>
      <trkpt lat="45.06293" lon="5.56117">
        <ele>1102</ele>
        <time>2021-10-10T08:11:50Z</time>
      </trkpt>
      <trkpt lat="45.06293" lon="5.5612">
        <ele>1102</ele>
        <time>2021-10-10T08:11:51Z</time>
      </trkpt>
      <trkpt lat="45.06293" lon="5.56122">
        <ele>1102</ele>
        <time>2021-10-10T08:11:52Z</time>
      </trkpt>
      <trkpt lat="45.06294" lon="5.56123">
        <ele>1102</ele>
        <time>2021-10-10T08:11:53Z</time>
      </trkpt>
      <trkpt lat="45.06294" lon="5.56125">
        <ele>1102.8</ele>
        <time>2021-10-10T08:11:54Z</time>
      </trkpt>
      <trkpt lat="45.06293" lon="5.56127">
        <ele>1102.8</ele>
        <time>2021-10-10T08:11:55Z</time>
      </trkpt>
      <trkpt lat="45.06293" lon="5.56128">
        <ele>1102.8</ele>
        <time>2021-10-10T08:11:56Z</time>
      </trkpt>
      <trkpt lat="45.06293" lon="5.56131">
        <ele>1103.6</ele>
        <time>2021-10-10T08:11:57Z</time>
      </trkpt>
      <trkpt lat="45.06293" lon="5.56133">
        <ele>1104</ele>
        <time>2021-10-10T08:11:58Z</time>
      </trkpt>
      <trkpt lat="45.06293" lon="5.56135">
        <ele>1104</ele>
        <time>2021-10-10T08:11:59Z</time>
      </trkpt>
      <trkpt lat="45.06293" lon="5.56137">
        <ele>1104</ele>
        <time>2021-10-10T08:12:00Z</time>
      </trkpt>
      <trkpt lat="45.06294" lon="5.56138">
        <ele>1104</ele>
        <time>2021-10-10T08:12:01Z</time>
      </trkpt>
      <trkpt lat="45.06293" lon="5.5614">
        <ele>1104.2</ele>
        <time>2021-10-10T08:12:02Z</time>
      </trkpt>
      <trkpt lat="45.06293" lon="5.56142">
        <ele>1104.2</ele>
        <time>2021-10-10T08:12:03Z</time>
      </trkpt>
      <trkpt lat="45.06293" lon="5.56143">
        <ele>1104.2</ele>
        <time>2021-10-10T08:12:04Z</time>
      </trkpt>
      <trkpt lat="45.06292" lon="5.56144">
        <ele>1104.2</ele>
        <time>2021-10-10T08:12:05Z</time>
      </trkpt>
      <trkpt lat="45.06292" lon="5.56146">
        <ele>1104.8</ele>
        <time>2021-10-10T08:12:06Z</time>
      </trkpt>
      <trkpt lat="45.06292" lon="5.56148">
        <ele>1104.8</ele>
        <time>2021-10-10T08:12:07Z</time>
      </trkpt>
      <trkpt lat="45.06291" lon="5.5615">
        <ele>1104.8</ele>
        <time>2021-10-10T08:12:08Z</time>
      </trkpt>
      <trkpt lat="45.06291" lon="5.56152">
        <ele>1105.2</ele>
        <time>2021-10-10T08:12:09Z</time>
      </trkpt>
      <trkpt lat="45.06291" lon="5.56153">
        <ele>1105.2</ele>
        <time>2021-10-10T08:12:10Z</time>
      </trkpt>
      <trkpt lat="45.06291" lon="5.56156">
        <ele>1105.2</ele>
        <time>2021-10-10T08:12:11Z</time>
      </trkpt>
      <trkpt lat="45.06291" lon="5.56158">
        <ele>1105.2</ele>
        <time>2021-10-10T08:12:12Z</time>
      </trkpt>
      <trkpt lat="45.06291" lon="5.56161">
        <ele>1105.6</ele>
        <time>2021-10-10T08:12:13Z</time>
      </trkpt>
      <trkpt lat="45.0629" lon="5.56162">
        <ele>1105.8</ele>
        <time>2021-10-10T08:12:14Z</time>
      </trkpt>
      <trkpt lat="45.06289" lon="5.56164">
        <ele>1105.8</ele>
        <time>2021-10-10T08:12:15Z</time>
      </trkpt>
      <trkpt lat="45.06288" lon="5.56166">
        <ele>1105.8</ele>
        <time>2021-10-10T08:12:16Z</time>
      </trkpt>
      <trkpt lat="45.06287" lon="5.5617">
        <ele>1105.6</ele>
        <time>2021-10-10T08:12:17Z</time>
      </trkpt>
      <trkpt lat="45.06285" lon="5.56173">
        <ele>1105.2</ele>
        <time>2021-10-10T08:12:18Z</time>
      </trkpt>
      <trkpt lat="45.06286" lon="5.56175">
        <ele>1105.2</ele>
        <time>2021-10-10T08:12:19Z</time>
      </trkpt>
      <trkpt lat="45.06285" lon="5.56177">
        <ele>1105.2</ele>
        <time>2021-10-10T08:12:20Z</time>
      </trkpt>
      <trkpt lat="45.06285" lon="5.5618">
        <ele>1105.2</ele>
        <time>2021-10-10T08:12:21Z</time>
      </trkpt>
      <trkpt lat="45.06285" lon="5.56184">
        <ele>1105.8</ele>
        <time>2021-10-10T08:12:22Z</time>
      </trkpt>
      <trkpt lat="45.06284" lon="5.56187">
        <ele>1105.8</ele>
        <time>2021-10-10T08:12:23Z</time>
      </trkpt>
      <trkpt lat="45.06283" lon="5.5619">
        <ele>1105.8</ele>
        <time>2021-10-10T08:12:24Z</time>
      </trkpt>
      <trkpt lat="45.06282" lon="5.56193">
        <ele>1105.8</ele>
        <time>2021-10-10T08:12:25Z</time>
      </trkpt>
      <trkpt lat="45.06281" lon="5.56196">
        <ele>1106</ele>
        <time>2021-10-10T08:12:26Z</time>
      </trkpt>
      <trkpt lat="45.06281" lon="5.56198">
        <ele>1106</ele>
        <time>2021-10-10T08:12:27Z</time>
      </trkpt>
      <trkpt lat="45.0628" lon="5.562">
        <ele>1106</ele>
        <time>2021-10-10T08:12:28Z</time>
      </trkpt>
      <trkpt lat="45.0628" lon="5.56201">
        <ele>1106</ele>
        <time>2021-10-10T08:12:29Z</time>
      </trkpt>
      <trkpt lat="45.0628" lon="5.56203">
        <ele>1106.6</ele>
        <time>2021-10-10T08:12:30Z</time>
      </trkpt>
      <trkpt lat="45.06279" lon="5.56208">
        <ele>1106.6</ele>
        <time>2021-10-10T08:12:31Z</time>
      </trkpt>
      <trkpt lat="45.06279" lon="5.56211">
        <ele>1106.6</ele>
        <time>2021-10-10T08:12:32Z</time>
      </trkpt>
      <trkpt lat="45.06278" lon="5.56214">
        <ele>1107.6</ele>
        <time>2021-10-10T08:12:33Z</time>
      </trkpt>
      <trkpt lat="45.06278" lon="5.56216">
        <ele>1108.2</ele>
        <time>2021-10-10T08:12:34Z</time>
      </trkpt>
      <trkpt lat="45.06277" lon="5.56218">
        <ele>1108.2</ele>
        <time>2021-10-10T08:12:35Z</time>
      </trkpt>
      <trkpt lat="45.06276" lon="5.5622">
        <ele>1108.2</ele>
        <time>2021-10-10T08:12:36Z</time>
      </trkpt>
      <trkpt lat="45.06275" lon="5.56223">
        <ele>1108.2</ele>
        <time>2021-10-10T08:12:37Z</time>
      </trkpt>
      <trkpt lat="45.06275" lon="5.56224">
        <ele>1108.4</ele>
        <time>2021-10-10T08:12:38Z</time>
      </trkpt>
      <trkpt lat="45.06274" lon="5.56226">
        <ele>1108.4</ele>
        <time>2021-10-10T08:12:39Z</time>
      </trkpt>
      <trkpt lat="45.06274" lon="5.56228">
        <ele>1108.4</ele>
        <time>2021-10-10T08:12:40Z</time>
      </trkpt>
      <trkpt lat="45.06274" lon="5.56231">
        <ele>1108.6</ele>
        <time>2021-10-10T08:12:41Z</time>
      </trkpt>
      <trkpt lat="45.06273" lon="5.56234">
        <ele>1108.6</ele>
        <time>2021-10-10T08:12:42Z</time>
      </trkpt>
      <trkpt lat="45.06272" lon="5.56237">
        <ele>1108.6</ele>
        <time>2021-10-10T08:12:43Z</time>
      </trkpt>
      <trkpt lat="45.06272" lon="5.5624">
        <ele>1108.6</ele>
        <time>2021-10-10T08:12:44Z</time>
      </trkpt>
      <trkpt lat="45.06272" lon="5.56243">
        <ele>1108</ele>
        <time>2021-10-10T08:12:45Z</time>
      </trkpt>
      <trkpt lat="45.06272" lon="5.56247">
        <ele>1107.6</ele>
        <time>2021-10-10T08:12:46Z</time>
      </trkpt>
      <trkpt lat="45.06271" lon="5.5625">
        <ele>1107.6</ele>
        <time>2021-10-10T08:12:47Z</time>
      </trkpt>
      <trkpt lat="45.06271" lon="5.56253">
        <ele>1107.6</ele>
        <time>2021-10-10T08:12:48Z</time>
      </trkpt>
      <trkpt lat="45.06269" lon="5.56256">
        <ele>1108</ele>
        <time>2021-10-10T08:12:49Z</time>
      </trkpt>
      <trkpt lat="45.06268" lon="5.56259">
        <ele>1108.2</ele>
        <time>2021-10-10T08:12:50Z</time>
      </trkpt>
      <trkpt lat="45.06267" lon="5.56262">
        <ele>1108.2</ele>
        <time>2021-10-10T08:12:51Z</time>
      </trkpt>
      <trkpt lat="45.06265" lon="5.56265">
        <ele>1108.2</ele>
        <time>2021-10-10T08:12:52Z</time>
      </trkpt>
      <trkpt lat="45.06264" lon="5.56268">
        <ele>1108.2</ele>
        <time>2021-10-10T08:12:53Z</time>
      </trkpt>
      <trkpt lat="45.06264" lon="5.56271">
        <ele>1108.6</ele>
        <time>2021-10-10T08:12:54Z</time>
      </trkpt>
      <trkpt lat="45.06264" lon="5.56274">
        <ele>1108.6</ele>
        <time>2021-10-10T08:12:55Z</time>
      </trkpt>
      <trkpt lat="45.06263" lon="5.56277">
        <ele>1108.6</ele>
        <time>2021-10-10T08:12:56Z</time>
      </trkpt>
      <trkpt lat="45.06262" lon="5.56279">
        <ele>1108.8</ele>
        <time>2021-10-10T08:12:57Z</time>
      </trkpt>
      <trkpt lat="45.06262" lon="5.56282">
        <ele>1109.8</ele>
        <time>2021-10-10T08:12:58Z</time>
      </trkpt>
      <trkpt lat="45.06261" lon="5.56284">
        <ele>1109.8</ele>
        <time>2021-10-10T08:12:59Z</time>
      </trkpt>
      <trkpt lat="45.06261" lon="5.56286">
        <ele>1109.8</ele>
        <time>2021-10-10T08:13:00Z</time>
      </trkpt>
      <trkpt lat="45.0626" lon="5.56288">
        <ele>1109.8</ele>
        <time>2021-10-10T08:13:01Z</time>
      </trkpt>
      <trkpt lat="45.0626" lon="5.56289">
        <ele>1110.4</ele>
        <time>2021-10-10T08:13:02Z</time>
      </trkpt>
      <trkpt lat="45.06259" lon="5.56291">
        <ele>1110.4</ele>
        <time>2021-10-10T08:13:03Z</time>
      </trkpt>
      <trkpt lat="45.06259" lon="5.56293">
        <ele>1110.4</ele>
        <time>2021-10-10T08:13:04Z</time>
      </trkpt>
      <trkpt lat="45.06259" lon="5.56296">
        <ele>1111.2</ele>
        <time>2021-10-10T08:13:05Z</time>
      </trkpt>
      <trkpt lat="45.06258" lon="5.56299">
        <ele>1111.6</ele>
        <time>2021-10-10T08:13:06Z</time>
      </trkpt>
      <trkpt lat="45.06258" lon="5.56301">
        <ele>1111.6</ele>
        <time>2021-10-10T08:13:07Z</time>
      </trkpt>
      <trkpt lat="45.06258" lon="5.56304">
        <ele>1111.6</ele>
        <time>2021-10-10T08:13:08Z</time>
      </trkpt>
      <trkpt lat="45.06258" lon="5.56306">
        <ele>1111.6</ele>
        <time>2021-10-10T08:13:09Z</time>
      </trkpt>
      <trkpt lat="45.06258" lon="5.56308">
        <ele>1111.8</ele>
        <time>2021-10-10T08:13:10Z</time>
      </trkpt>
      <trkpt lat="45.06258" lon="5.56311">
        <ele>1111.8</ele>
        <time>2021-10-10T08:13:11Z</time>
      </trkpt>
      <trkpt lat="45.06258" lon="5.56313">
        <ele>1111.8</ele>
        <time>2021-10-10T08:13:12Z</time>
      </trkpt>
      <trkpt lat="45.06259" lon="5.56314">
        <ele>1112.6</ele>
        <time>2021-10-10T08:13:13Z</time>
      </trkpt>
      <trkpt lat="45.06258" lon="5.56315">
        <ele>1112.8</ele>
        <time>2021-10-10T08:13:14Z</time>
      </trkpt>
      <trkpt lat="45.06258" lon="5.56316">
        <ele>1112.8</ele>
        <time>2021-10-10T08:13:15Z</time>
      </trkpt>
      <trkpt lat="45.06257" lon="5.56318">
        <ele>1112.8</ele>
        <time>2021-10-10T08:13:16Z</time>
      </trkpt>
      <trkpt lat="45.06257" lon="5.56319">
        <ele>1112.8</ele>
        <time>2021-10-10T08:13:17Z</time>
      </trkpt>
      <trkpt lat="45.06256" lon="5.56322">
        <ele>1113.4</ele>
        <time>2021-10-10T08:13:18Z</time>
      </trkpt>
      <trkpt lat="45.06255" lon="5.56324">
        <ele>1113.4</ele>
        <time>2021-10-10T08:13:19Z</time>
      </trkpt>
      <trkpt lat="45.06254" lon="5.56328">
        <ele>1113.4</ele>
        <time>2021-10-10T08:13:20Z</time>
      </trkpt>
      <trkpt lat="45.06254" lon="5.56331">
        <ele>1112.8</ele>
        <time>2021-10-10T08:13:21Z</time>
      </trkpt>
      <trkpt lat="45.06252" lon="5.56334">
        <ele>1113.2</ele>
        <time>2021-10-10T08:13:22Z</time>
      </trkpt>
      <trkpt lat="45.06252" lon="5.56337">
        <ele>1113.2</ele>
        <time>2021-10-10T08:13:23Z</time>
      </trkpt>
      <trkpt lat="45.06252" lon="5.56339">
        <ele>1113.2</ele>
        <time>2021-10-10T08:13:24Z</time>
      </trkpt>
      <trkpt lat="45.06252" lon="5.56341">
        <ele>1113</ele>
        <time>2021-10-10T08:13:25Z</time>
      </trkpt>
      <trkpt lat="45.06252" lon="5.56344">
        <ele>1112.8</ele>
        <time>2021-10-10T08:13:26Z</time>
      </trkpt>
      <trkpt lat="45.0625" lon="5.56348">
        <ele>1112.8</ele>
        <time>2021-10-10T08:13:27Z</time>
      </trkpt>
      <trkpt lat="45.06249" lon="5.56351">
        <ele>1112.8</ele>
        <time>2021-10-10T08:13:28Z</time>
      </trkpt>
      <trkpt lat="45.06248" lon="5.56354">
        <ele>1113.6</ele>
        <time>2021-10-10T08:13:29Z</time>
      </trkpt>
      <trkpt lat="45.06246" lon="5.56358">
        <ele>1113.6</ele>
        <time>2021-10-10T08:13:30Z</time>
      </trkpt>
      <trkpt lat="45.06246" lon="5.56361">
        <ele>1113.6</ele>
        <time>2021-10-10T08:13:31Z</time>
      </trkpt>
      <trkpt lat="45.06246" lon="5.56365">
        <ele>1113.6</ele>
        <time>2021-10-10T08:13:32Z</time>
      </trkpt>
      <trkpt lat="45.06245" lon="5.56368">
        <ele>1113.6</ele>
        <time>2021-10-10T08:13:33Z</time>
      </trkpt>
      <trkpt lat="45.06243" lon="5.56373">
        <ele>1113.6</ele>
        <time>2021-10-10T08:13:34Z</time>
      </trkpt>
      <trkpt lat="45.06243" lon="5.56377">
        <ele>1113.6</ele>
        <time>2021-10-10T08:13:35Z</time>
      </trkpt>
      <trkpt lat="45.06241" lon="5.56381">
        <ele>1113.6</ele>
        <time>2021-10-10T08:13:36Z</time>
      </trkpt>
      <trkpt lat="45.0624" lon="5.56384">
        <ele>1113.6</ele>
        <time>2021-10-10T08:13:37Z</time>
      </trkpt>
      <trkpt lat="45.06239" lon="5.56386">
        <ele>1114</ele>
        <time>2021-10-10T08:13:38Z</time>
      </trkpt>
      <trkpt lat="45.06239" lon="5.56389">
        <ele>1114</ele>
        <time>2021-10-10T08:13:39Z</time>
      </trkpt>
      <trkpt lat="45.06239" lon="5.56392">
        <ele>1114</ele>
        <time>2021-10-10T08:13:40Z</time>
      </trkpt>
      <trkpt lat="45.06239" lon="5.56395">
        <ele>1113</ele>
        <time>2021-10-10T08:13:41Z</time>
      </trkpt>
      <trkpt lat="45.06239" lon="5.56399">
        <ele>1112.8</ele>
        <time>2021-10-10T08:13:42Z</time>
      </trkpt>
      <trkpt lat="45.06239" lon="5.56403">
        <ele>1112.8</ele>
        <time>2021-10-10T08:13:43Z</time>
      </trkpt>
      <trkpt lat="45.06237" lon="5.56406">
        <ele>1112.8</ele>
        <time>2021-10-10T08:13:44Z</time>
      </trkpt>
      <trkpt lat="45.06235" lon="5.56411">
        <ele>1113.4</ele>
        <time>2021-10-10T08:13:45Z</time>
      </trkpt>
      <trkpt lat="45.06233" lon="5.56415">
        <ele>1113.6</ele>
        <time>2021-10-10T08:13:46Z</time>
      </trkpt>
      <trkpt lat="45.06234" lon="5.56419">
        <ele>1113.6</ele>
        <time>2021-10-10T08:13:47Z</time>
      </trkpt>
      <trkpt lat="45.06233" lon="5.56423">
        <ele>1113.6</ele>
        <time>2021-10-10T08:13:48Z</time>
      </trkpt>
      <trkpt lat="45.06233" lon="5.56428">
        <ele>1113.6</ele>
        <time>2021-10-10T08:13:49Z</time>
      </trkpt>
      <trkpt lat="45.06233" lon="5.56431">
        <ele>1113.4</ele>
        <time>2021-10-10T08:13:50Z</time>
      </trkpt>
      <trkpt lat="45.06234" lon="5.56434">
        <ele>1113.4</ele>
        <time>2021-10-10T08:13:51Z</time>
      </trkpt>
      <trkpt lat="45.06234" lon="5.56438">
        <ele>1113.4</ele>
        <time>2021-10-10T08:13:52Z</time>
      </trkpt>
      <trkpt lat="45.06235" lon="5.56442">
        <ele>1112.4</ele>
        <time>2021-10-10T08:13:53Z</time>
      </trkpt>
      <trkpt lat="45.06237" lon="5.56445">
        <ele>1113</ele>
        <time>2021-10-10T08:13:54Z</time>
      </trkpt>
      <trkpt lat="45.06236" lon="5.56449">
        <ele>1113</ele>
        <time>2021-10-10T08:13:55Z</time>
      </trkpt>
      <trkpt lat="45.06236" lon="5.56454">
        <ele>1113</ele>
        <time>2021-10-10T08:13:56Z</time>
      </trkpt>
      <trkpt lat="45.06236" lon="5.56459">
        <ele>1113</ele>
        <time>2021-10-10T08:13:57Z</time>
      </trkpt>
      <trkpt lat="45.06239" lon="5.56463">
        <ele>1113.2</ele>
        <time>2021-10-10T08:13:58Z</time>
      </trkpt>
      <trkpt lat="45.0624" lon="5.56467">
        <ele>1113.2</ele>
        <time>2021-10-10T08:13:59Z</time>
      </trkpt>
      <trkpt lat="45.06242" lon="5.56472">
        <ele>1113.2</ele>
        <time>2021-10-10T08:14:00Z</time>
      </trkpt>
      <trkpt lat="45.06243" lon="5.56477">
        <ele>1114.2</ele>
        <time>2021-10-10T08:14:01Z</time>
      </trkpt>
      <trkpt lat="45.06244" lon="5.56481">
        <ele>1114.6</ele>
        <time>2021-10-10T08:14:02Z</time>
      </trkpt>
      <trkpt lat="45.06242" lon="5.56485">
        <ele>1114.6</ele>
        <time>2021-10-10T08:14:03Z</time>
      </trkpt>
      <trkpt lat="45.06241" lon="5.5649">
        <ele>1114.6</ele>
        <time>2021-10-10T08:14:04Z</time>
      </trkpt>
      <trkpt lat="45.06241" lon="5.56494">
        <ele>1114.2</ele>
        <time>2021-10-10T08:14:05Z</time>
      </trkpt>
      <trkpt lat="45.06241" lon="5.56498">
        <ele>1114.2</ele>
        <time>2021-10-10T08:14:06Z</time>
      </trkpt>
      <trkpt lat="45.06242" lon="5.56504">
        <ele>1114.2</ele>
        <time>2021-10-10T08:14:07Z</time>
      </trkpt>
      <trkpt lat="45.0624" lon="5.56507">
        <ele>1114.2</ele>
        <time>2021-10-10T08:14:08Z</time>
      </trkpt>
      <trkpt lat="45.06241" lon="5.56513">
        <ele>1114.8</ele>
        <time>2021-10-10T08:14:09Z</time>
      </trkpt>
      <trkpt lat="45.0624" lon="5.56517">
        <ele>1114.6</ele>
        <time>2021-10-10T08:14:10Z</time>
      </trkpt>
      <trkpt lat="45.0624" lon="5.56523">
        <ele>1114.6</ele>
        <time>2021-10-10T08:14:11Z</time>
      </trkpt>
      <trkpt lat="45.0624" lon="5.56528">
        <ele>1114.6</ele>
        <time>2021-10-10T08:14:12Z</time>
      </trkpt>
      <trkpt lat="45.0624" lon="5.56533">
        <ele>1114.6</ele>
        <time>2021-10-10T08:14:13Z</time>
      </trkpt>
      <trkpt lat="45.0624" lon="5.56538">
        <ele>1114.2</ele>
        <time>2021-10-10T08:14:14Z</time>
      </trkpt>
      <trkpt lat="45.06239" lon="5.56542">
        <ele>1114.2</ele>
        <time>2021-10-10T08:14:15Z</time>
      </trkpt>
      <trkpt lat="45.0624" lon="5.56546">
        <ele>1114.2</ele>
        <time>2021-10-10T08:14:16Z</time>
      </trkpt>
      <trkpt lat="45.0624" lon="5.56551">
        <ele>1113.2</ele>
        <time>2021-10-10T08:14:17Z</time>
      </trkpt>
      <trkpt lat="45.06239" lon="5.56556">
        <ele>1112</ele>
        <time>2021-10-10T08:14:18Z</time>
      </trkpt>
      <trkpt lat="45.06239" lon="5.56561">
        <ele>1112</ele>
        <time>2021-10-10T08:14:19Z</time>
      </trkpt>
      <trkpt lat="45.06237" lon="5.56564">
        <ele>1112</ele>
        <time>2021-10-10T08:14:20Z</time>
      </trkpt>
      <trkpt lat="45.06236" lon="5.56569">
        <ele>1111</ele>
        <time>2021-10-10T08:14:21Z</time>
      </trkpt>
      <trkpt lat="45.06234" lon="5.56574">
        <ele>1107.8</ele>
        <time>2021-10-10T08:14:22Z</time>
      </trkpt>
      <trkpt lat="45.06231" lon="5.56577">
        <ele>1107.8</ele>
        <time>2021-10-10T08:14:23Z</time>
      </trkpt>
      <trkpt lat="45.0623" lon="5.56583">
        <ele>1107.8</ele>
        <time>2021-10-10T08:14:24Z</time>
      </trkpt>
      <trkpt lat="45.06227" lon="5.56589">
        <ele>1107.8</ele>
        <time>2021-10-10T08:14:25Z</time>
      </trkpt>
      <trkpt lat="45.06224" lon="5.56595">
        <ele>1106.6</ele>
        <time>2021-10-10T08:14:26Z</time>
      </trkpt>
      <trkpt lat="45.06221" lon="5.56602">
        <ele>1106.6</ele>
        <time>2021-10-10T08:14:27Z</time>
      </trkpt>
      <trkpt lat="45.06219" lon="5.56608">
        <ele>1106.6</ele>
        <time>2021-10-10T08:14:28Z</time>
      </trkpt>
      <trkpt lat="45.06216" lon="5.56616">
        <ele>1107.2</ele>
        <time>2021-10-10T08:14:29Z</time>
      </trkpt>
      <trkpt lat="45.06212" lon="5.56623">
        <ele>1108</ele>
        <time>2021-10-10T08:14:30Z</time>
      </trkpt>
      <trkpt lat="45.06209" lon="5.56631">
        <ele>1108</ele>
        <time>2021-10-10T08:14:31Z</time>
      </trkpt>
      <trkpt lat="45.06206" lon="5.56638">
        <ele>1108</ele>
        <time>2021-10-10T08:14:32Z</time>
      </trkpt>
      <trkpt lat="45.06204" lon="5.56645">
        <ele>1108</ele>
        <time>2021-10-10T08:14:33Z</time>
      </trkpt>
      <trkpt lat="45.06202" lon="5.56651">
        <ele>1107.4</ele>
        <time>2021-10-10T08:14:34Z</time>
      </trkpt>
      <trkpt lat="45.062" lon="5.56656">
        <ele>1107.4</ele>
        <time>2021-10-10T08:14:35Z</time>
      </trkpt>
      <trkpt lat="45.06196" lon="5.5666">
        <ele>1107.4</ele>
        <time>2021-10-10T08:14:36Z</time>
      </trkpt>
      <trkpt lat="45.06194" lon="5.56665">
        <ele>1108.4</ele>
        <time>2021-10-10T08:14:37Z</time>
      </trkpt>
      <trkpt lat="45.06191" lon="5.56668">
        <ele>1108.8</ele>
        <time>2021-10-10T08:14:38Z</time>
      </trkpt>
      <trkpt lat="45.0619" lon="5.56671">
        <ele>1108.8</ele>
        <time>2021-10-10T08:14:39Z</time>
      </trkpt>
      <trkpt lat="45.06187" lon="5.56675">
        <ele>1108.8</ele>
        <time>2021-10-10T08:14:40Z</time>
      </trkpt>
      <trkpt lat="45.06185" lon="5.56678">
        <ele>1108.8</ele>
        <time>2021-10-10T08:14:41Z</time>
      </trkpt>
      <trkpt lat="45.06183" lon="5.56682">
        <ele>1109.4</ele>
        <time>2021-10-10T08:14:42Z</time>
      </trkpt>
      <trkpt lat="45.06182" lon="5.56686">
        <ele>1109.4</ele>
        <time>2021-10-10T08:14:43Z</time>
      </trkpt>
      <trkpt lat="45.06182" lon="5.5669">
        <ele>1109.4</ele>
        <time>2021-10-10T08:14:44Z</time>
      </trkpt>
      <trkpt lat="45.06181" lon="5.56695">
        <ele>1109.4</ele>
        <time>2021-10-10T08:14:45Z</time>
      </trkpt>
      <trkpt lat="45.0618" lon="5.56699">
        <ele>1109.8</ele>
        <time>2021-10-10T08:14:46Z</time>
      </trkpt>
      <trkpt lat="45.06179" lon="5.56702">
        <ele>1109.8</ele>
        <time>2021-10-10T08:14:47Z</time>
      </trkpt>
      <trkpt lat="45.06179" lon="5.56706">
        <ele>1109.8</ele>
        <time>2021-10-10T08:14:48Z</time>
      </trkpt>
      <trkpt lat="45.06179" lon="5.56709">
        <ele>1109.8</ele>
        <time>2021-10-10T08:14:49Z</time>
      </trkpt>
      <trkpt lat="45.06178" lon="5.56712">
        <ele>1110.4</ele>
        <time>2021-10-10T08:14:50Z</time>
      </trkpt>
      <trkpt lat="45.06178" lon="5.56714">
        <ele>1110.4</ele>
        <time>2021-10-10T08:14:51Z</time>
      </trkpt>
      <trkpt lat="45.06178" lon="5.56716">
        <ele>1110.4</ele>
        <time>2021-10-10T08:14:52Z</time>
      </trkpt>
      <trkpt lat="45.06177" lon="5.56717">
        <ele>1111</ele>
        <time>2021-10-10T08:14:53Z</time>
      </trkpt>
      <trkpt lat="45.06177" lon="5.56718">
        <ele>1110.8</ele>
        <time>2021-10-10T08:14:54Z</time>
      </trkpt>
      <trkpt lat="45.06177" lon="5.5672">
        <ele>1110.8</ele>
        <time>2021-10-10T08:14:55Z</time>
      </trkpt>
      <trkpt lat="45.06177" lon="5.56721">
        <ele>1110.8</ele>
        <time>2021-10-10T08:14:56Z</time>
      </trkpt>
      <trkpt lat="45.06178" lon="5.56724">
        <ele>1110.8</ele>
        <time>2021-10-10T08:14:57Z</time>
      </trkpt>
      <trkpt lat="45.06192" lon="5.56737">
        <ele>1110</ele>
        <time>2021-10-10T08:17:50Z</time>
      </trkpt>
      <trkpt lat="45.06194" lon="5.56736">
        <ele>1110</ele>
        <time>2021-10-10T08:17:51Z</time>
      </trkpt>
      <trkpt lat="45.06195" lon="5.56734">
        <ele>1110</ele>
        <time>2021-10-10T08:17:52Z</time>
      </trkpt>
      <trkpt lat="45.06197" lon="5.56732">
        <ele>1109.8</ele>
        <time>2021-10-10T08:17:53Z</time>
      </trkpt>
      <trkpt lat="45.062" lon="5.5673">
        <ele>1108.6</ele>
        <time>2021-10-10T08:17:54Z</time>
      </trkpt>
      <trkpt lat="45.06202" lon="5.56728">
        <ele>1108.6</ele>
        <time>2021-10-10T08:17:55Z</time>
      </trkpt>
      <trkpt lat="45.06205" lon="5.56725">
        <ele>1108.6</ele>
        <time>2021-10-10T08:17:56Z</time>
      </trkpt>
      <trkpt lat="45.06208" lon="5.56723">
        <ele>1107.6</ele>
        <time>2021-10-10T08:17:57Z</time>
      </trkpt>
      <trkpt lat="45.06211" lon="5.5672">
        <ele>1108</ele>
        <time>2021-10-10T08:17:58Z</time>
      </trkpt>
      <trkpt lat="45.06214" lon="5.56716">
        <ele>1108</ele>
        <time>2021-10-10T08:17:59Z</time>
      </trkpt>
      <trkpt lat="45.06217" lon="5.56711">
        <ele>1108</ele>
        <time>2021-10-10T08:18:00Z</time>
      </trkpt>
      <trkpt lat="45.0622" lon="5.56707">
        <ele>1107.6</ele>
        <time>2021-10-10T08:18:01Z</time>
      </trkpt>
      <trkpt lat="45.06223" lon="5.56702">
        <ele>1107.2</ele>
        <time>2021-10-10T08:18:02Z</time>
      </trkpt>
      <trkpt lat="45.06226" lon="5.56697">
        <ele>1107.2</ele>
        <time>2021-10-10T08:18:03Z</time>
      </trkpt>
      <trkpt lat="45.06228" lon="5.56692">
        <ele>1107.2</ele>
        <time>2021-10-10T08:18:04Z</time>
      </trkpt>
      <trkpt lat="45.0623" lon="5.56687">
        <ele>1107.2</ele>
        <time>2021-10-10T08:18:05Z</time>
      </trkpt>
      <trkpt lat="45.06232" lon="5.56681">
        <ele>1106.8</ele>
        <time>2021-10-10T08:18:06Z</time>
      </trkpt>
      <trkpt lat="45.06233" lon="5.56677">
        <ele>1106.8</ele>
        <time>2021-10-10T08:18:07Z</time>
      </trkpt>
      <trkpt lat="45.06235" lon="5.56673">
        <ele>1106.8</ele>
        <time>2021-10-10T08:18:08Z</time>
      </trkpt>
      <trkpt lat="45.06237" lon="5.56669">
        <ele>1107.8</ele>
        <time>2021-10-10T08:18:09Z</time>
      </trkpt>
      <trkpt lat="45.06239" lon="5.56666">
        <ele>1108</ele>
        <time>2021-10-10T08:18:10Z</time>
      </trkpt>
      <trkpt lat="45.06242" lon="5.56664">
        <ele>1108</ele>
        <time>2021-10-10T08:18:11Z</time>
      </trkpt>
      <trkpt lat="45.06244" lon="5.56663">
        <ele>1108</ele>
        <time>2021-10-10T08:18:12Z</time>
      </trkpt>
      <trkpt lat="45.06246" lon="5.56661">
        <ele>1108.2</ele>
        <time>2021-10-10T08:18:13Z</time>
      </trkpt>
      <trkpt lat="45.06248" lon="5.5666">
        <ele>1108</ele>
        <time>2021-10-10T08:18:14Z</time>
      </trkpt>
      <trkpt lat="45.0625" lon="5.56659">
        <ele>1108</ele>
        <time>2021-10-10T08:18:15Z</time>
      </trkpt>
      <trkpt lat="45.06251" lon="5.5666">
        <ele>1108</ele>
        <time>2021-10-10T08:18:16Z</time>
      </trkpt>
      <trkpt lat="45.06469" lon="5.56624">
        <ele>1132.4</ele>
        <time>2021-10-10T08:22:39Z</time>
      </trkpt>
      <trkpt lat="45.06471" lon="5.56624">
        <ele>1132.4</ele>
        <time>2021-10-10T08:22:40Z</time>
      </trkpt>
      <trkpt lat="45.06473" lon="5.56626">
        <ele>1132.4</ele>
        <time>2021-10-10T08:22:41Z</time>
      </trkpt>
      <trkpt lat="45.06475" lon="5.56627">
        <ele>1131.8</ele>
        <time>2021-10-10T08:22:42Z</time>
      </trkpt>
      <trkpt lat="45.06477" lon="5.56628">
        <ele>1131.8</ele>
        <time>2021-10-10T08:22:43Z</time>
      </trkpt>
      <trkpt lat="45.0648" lon="5.5663">
        <ele>1131.8</ele>
        <time>2021-10-10T08:22:44Z</time>
      </trkpt>
      <trkpt lat="45.06483" lon="5.56631">
        <ele>1130.8</ele>
        <time>2021-10-10T08:22:45Z</time>
      </trkpt>
      <trkpt lat="45.06486" lon="5.56633">
        <ele>1130.6</ele>
        <time>2021-10-10T08:22:46Z</time>
      </trkpt>
      <trkpt lat="45.06488" lon="5.56634">
        <ele>1130.6</ele>
        <time>2021-10-10T08:22:47Z</time>
      </trkpt>
      <trkpt lat="45.06492" lon="5.56636">
        <ele>1130.6</ele>
        <time>2021-10-10T08:22:48Z</time>
      </trkpt>
      <trkpt lat="45.06494" lon="5.56636">
        <ele>1130.6</ele>
        <time>2021-10-10T08:22:49Z</time>
      </trkpt>
      <trkpt lat="45.06497" lon="5.56637">
        <ele>1129.6</ele>
        <time>2021-10-10T08:22:50Z</time>
      </trkpt>
      <trkpt lat="45.065" lon="5.56637">
        <ele>1129.6</ele>
        <time>2021-10-10T08:22:51Z</time>
      </trkpt>
      <trkpt lat="45.06503" lon="5.56638">
        <ele>1129.6</ele>
        <time>2021-10-10T08:22:52Z</time>
      </trkpt>
      <trkpt lat="45.06508" lon="5.56639">
        <ele>1128.6</ele>
        <time>2021-10-10T08:22:53Z</time>
      </trkpt>
      <trkpt lat="45.06511" lon="5.5664">
        <ele>1126.6</ele>
        <time>2021-10-10T08:22:54Z</time>
      </trkpt>
      <trkpt lat="45.06515" lon="5.56641">
        <ele>1126.6</ele>
        <time>2021-10-10T08:22:55Z</time>
      </trkpt>
      <trkpt lat="45.06519" lon="5.56642">
        <ele>1126.6</ele>
        <time>2021-10-10T08:22:56Z</time>
      </trkpt>
      <trkpt lat="45.06523" lon="5.56643">
        <ele>1126.6</ele>
        <time>2021-10-10T08:22:57Z</time>
      </trkpt>
      <trkpt lat="45.06528" lon="5.56644">
        <ele>1124.6</ele>
        <time>2021-10-10T08:22:58Z</time>
      </trkpt>
      <trkpt lat="45.06532" lon="5.56646">
        <ele>1124.6</ele>
        <time>2021-10-10T08:22:59Z</time>
      </trkpt>
      <trkpt lat="45.06535" lon="5.56648">
        <ele>1124.6</ele>
        <time>2021-10-10T08:23:00Z</time>
      </trkpt>
      <trkpt lat="45.06539" lon="5.5665">
        <ele>1123.6</ele>
        <time>2021-10-10T08:23:01Z</time>
      </trkpt>
      <trkpt lat="45.06543" lon="5.56652">
        <ele>1121.2</ele>
        <time>2021-10-10T08:23:02Z</time>
      </trkpt>
      <trkpt lat="45.06548" lon="5.56655">
        <ele>1121.2</ele>
        <time>2021-10-10T08:23:03Z</time>
      </trkpt>
      <trkpt lat="45.06553" lon="5.56657">
        <ele>1121.2</ele>
        <time>2021-10-10T08:23:04Z</time>
      </trkpt>
      <trkpt lat="45.06557" lon="5.5666">
        <ele>1120.2</ele>
        <time>2021-10-10T08:23:05Z</time>
      </trkpt>
      <trkpt lat="45.06561" lon="5.56662">
        <ele>1119.4</ele>
        <time>2021-10-10T08:23:06Z</time>
      </trkpt>
      <trkpt lat="45.06565" lon="5.56664">
        <ele>1119.4</ele>
        <time>2021-10-10T08:23:07Z</time>
      </trkpt>
      <trkpt lat="45.06568" lon="5.56666">
        <ele>1119.4</ele>
        <time>2021-10-10T08:23:08Z</time>
      </trkpt>
      <trkpt lat="45.06571" lon="5.56668">
        <ele>1119.4</ele>
        <time>2021-10-10T08:23:09Z</time>
      </trkpt>
      <trkpt lat="45.06573" lon="5.56671">
        <ele>1117.6</ele>
        <time>2021-10-10T08:23:10Z</time>
      </trkpt>
      <trkpt lat="45.06575" lon="5.56673">
        <ele>1117.6</ele>
        <time>2021-10-10T08:23:11Z</time>
      </trkpt>
      <trkpt lat="45.06577" lon="5.56674">
        <ele>1117.6</ele>
        <time>2021-10-10T08:23:12Z</time>
      </trkpt>
      <trkpt lat="45.06578" lon="5.56676">
        <ele>1117.8</ele>
        <time>2021-10-10T08:23:13Z</time>
      </trkpt>
      <trkpt lat="45.06578" lon="5.56676">
        <ele>1117.6</ele>
        <time>2021-10-10T08:23:14Z</time>
      </trkpt>
      <trkpt lat="45.06578" lon="5.56676">
        <ele>1117.2</ele>
        <time>2021-10-10T08:23:23Z</time>
      </trkpt>
      <trkpt lat="45.06579" lon="5.56676">
        <ele>1117.2</ele>
        <time>2021-10-10T08:23:24Z</time>
      </trkpt>
      <trkpt lat="45.06583" lon="5.56678">
        <ele>1116.2</ele>
        <time>2021-10-10T08:23:25Z</time>
      </trkpt>
      <trkpt lat="45.06586" lon="5.56683">
        <ele>1114.2</ele>
        <time>2021-10-10T08:23:26Z</time>
      </trkpt>
      <trkpt lat="45.0659" lon="5.56687">
        <ele>1114.2</ele>
        <time>2021-10-10T08:23:27Z</time>
      </trkpt>
      <trkpt lat="45.06596" lon="5.56691">
        <ele>1114.2</ele>
        <time>2021-10-10T08:23:28Z</time>
      </trkpt>
      <trkpt lat="45.06602" lon="5.56692">
        <ele>1113.2</ele>
        <time>2021-10-10T08:23:29Z</time>
      </trkpt>
      <trkpt lat="45.06608" lon="5.56691">
        <ele>1108.2</ele>
        <time>2021-10-10T08:23:30Z</time>
      </trkpt>
      <trkpt lat="45.06616" lon="5.56688">
        <ele>1108.2</ele>
        <time>2021-10-10T08:23:31Z</time>
      </trkpt>
      <trkpt lat="45.06623" lon="5.56685">
        <ele>1108.2</ele>
        <time>2021-10-10T08:23:32Z</time>
      </trkpt>
      <trkpt lat="45.06631" lon="5.56683">
        <ele>1107.2</ele>
        <time>2021-10-10T08:23:33Z</time>
      </trkpt>
      <trkpt lat="45.06638" lon="5.56682">
        <ele>1103.8</ele>
        <time>2021-10-10T08:23:34Z</time>
      </trkpt>
      <trkpt lat="45.06645" lon="5.56679">
        <ele>1103.8</ele>
        <time>2021-10-10T08:23:35Z</time>
      </trkpt>
      <trkpt lat="45.06652" lon="5.56676">
        <ele>1103.8</ele>
        <time>2021-10-10T08:23:36Z</time>
      </trkpt>
      <trkpt lat="45.06659" lon="5.56672">
        <ele>1102.8</ele>
        <time>2021-10-10T08:23:37Z</time>
      </trkpt>
      <trkpt lat="45.06667" lon="5.56669">
        <ele>1098.8</ele>
        <time>2021-10-10T08:23:38Z</time>
      </trkpt>
      <trkpt lat="45.06675" lon="5.56666">
        <ele>1098.8</ele>
        <time>2021-10-10T08:23:39Z</time>
      </trkpt>
      <trkpt lat="45.06682" lon="5.56663">
        <ele>1098.8</ele>
        <time>2021-10-10T08:23:40Z</time>
      </trkpt>
      <trkpt lat="45.06689" lon="5.5666">
        <ele>1097.8</ele>
        <time>2021-10-10T08:23:41Z</time>
      </trkpt>
      <trkpt lat="45.06696" lon="5.56659">
        <ele>1095.2</ele>
        <time>2021-10-10T08:23:42Z</time>
      </trkpt>
      <trkpt lat="45.06703" lon="5.56658">
        <ele>1095.2</ele>
        <time>2021-10-10T08:23:43Z</time>
      </trkpt>
      <trkpt lat="45.06709" lon="5.56658">
        <ele>1095.2</ele>
        <time>2021-10-10T08:23:44Z</time>
      </trkpt>
      <trkpt lat="45.06714" lon="5.56658">
        <ele>1094.2</ele>
        <time>2021-10-10T08:23:45Z</time>
      </trkpt>
      <trkpt lat="45.06719" lon="5.56658">
        <ele>1093</ele>
        <time>2021-10-10T08:23:46Z</time>
      </trkpt>
      <trkpt lat="45.06724" lon="5.5666">
        <ele>1093</ele>
        <time>2021-10-10T08:23:47Z</time>
      </trkpt>
      <trkpt lat="45.06728" lon="5.56665">
        <ele>1093</ele>
        <time>2021-10-10T08:23:48Z</time>
      </trkpt>
      <trkpt lat="45.0673" lon="5.56671">
        <ele>1092</ele>
        <time>2021-10-10T08:23:49Z</time>
      </trkpt>
      <trkpt lat="45.06731" lon="5.56677">
        <ele>1090.2</ele>
        <time>2021-10-10T08:23:50Z</time>
      </trkpt>
      <trkpt lat="45.06732" lon="5.56682">
        <ele>1090.2</ele>
        <time>2021-10-10T08:23:51Z</time>
      </trkpt>
      <trkpt lat="45.06736" lon="5.56686">
        <ele>1090.2</ele>
        <time>2021-10-10T08:23:52Z</time>
      </trkpt>
      <trkpt lat="45.06741" lon="5.56688">
        <ele>1089.2</ele>
        <time>2021-10-10T08:23:53Z</time>
      </trkpt>
      <trkpt lat="45.06747" lon="5.56688">
        <ele>1086.8</ele>
        <time>2021-10-10T08:23:54Z</time>
      </trkpt>
      <trkpt lat="45.06752" lon="5.56689">
        <ele>1086.8</ele>
        <time>2021-10-10T08:23:55Z</time>
      </trkpt>
      <trkpt lat="45.06758" lon="5.56689">
        <ele>1086.8</ele>
        <time>2021-10-10T08:23:56Z</time>
      </trkpt>
      <trkpt lat="45.06763" lon="5.56689">
        <ele>1085.8</ele>
        <time>2021-10-10T08:23:57Z</time>
      </trkpt>
      <trkpt lat="45.06767" lon="5.5669">
        <ele>1084.4</ele>
        <time>2021-10-10T08:23:58Z</time>
      </trkpt>
      <trkpt lat="45.06771" lon="5.56691">
        <ele>1084.4</ele>
        <time>2021-10-10T08:23:59Z</time>
      </trkpt>
      <trkpt lat="45.06774" lon="5.56692">
        <ele>1084.4</ele>
        <time>2021-10-10T08:24:00Z</time>
      </trkpt>
      <trkpt lat="45.06776" lon="5.56693">
        <ele>1083.4</ele>
        <time>2021-10-10T08:24:01Z</time>
      </trkpt>
      <trkpt lat="45.06778" lon="5.56694">
        <ele>1082.8</ele>
        <time>2021-10-10T08:24:02Z</time>
      </trkpt>
      <trkpt lat="45.06781" lon="5.56696">
        <ele>1082.8</ele>
        <time>2021-10-10T08:24:03Z</time>
      </trkpt>
      <trkpt lat="45.06783" lon="5.56699">
        <ele>1082.8</ele>
        <time>2021-10-10T08:24:04Z</time>
      </trkpt>
      <trkpt lat="45.06785" lon="5.56703">
        <ele>1081.8</ele>
        <time>2021-10-10T08:24:05Z</time>
      </trkpt>
      <trkpt lat="45.06787" lon="5.56708">
        <ele>1081.6</ele>
        <time>2021-10-10T08:24:06Z</time>
      </trkpt>
      <trkpt lat="45.06787" lon="5.56713">
        <ele>1081.6</ele>
        <time>2021-10-10T08:24:07Z</time>
      </trkpt>
      <trkpt lat="45.06787" lon="5.56717">
        <ele>1081.6</ele>
        <time>2021-10-10T08:24:08Z</time>
      </trkpt>
      <trkpt lat="45.06786" lon="5.56722">
        <ele>1081.6</ele>
        <time>2021-10-10T08:24:09Z</time>
      </trkpt>
      <trkpt lat="45.06786" lon="5.56726">
        <ele>1081.8</ele>
        <time>2021-10-10T08:24:10Z</time>
      </trkpt>
      <trkpt lat="45.06786" lon="5.5673">
        <ele>1081.8</ele>
        <time>2021-10-10T08:24:11Z</time>
      </trkpt>
      <trkpt lat="45.06787" lon="5.56734">
        <ele>1081.8</ele>
        <time>2021-10-10T08:24:12Z</time>
      </trkpt>
      <trkpt lat="45.06787" lon="5.56738">
        <ele>1081.8</ele>
        <time>2021-10-10T08:24:13Z</time>
      </trkpt>
      <trkpt lat="45.06788" lon="5.56742">
        <ele>1082</ele>
        <time>2021-10-10T08:24:14Z</time>
      </trkpt>
      <trkpt lat="45.06789" lon="5.56746">
        <ele>1082</ele>
        <time>2021-10-10T08:24:15Z</time>
      </trkpt>
      <trkpt lat="45.0679" lon="5.56749">
        <ele>1082</ele>
        <time>2021-10-10T08:24:16Z</time>
      </trkpt>
      <trkpt lat="45.0679" lon="5.56752">
        <ele>1082</ele>
        <time>2021-10-10T08:24:17Z</time>
      </trkpt>
      <trkpt lat="45.06791" lon="5.56754">
        <ele>1082.2</ele>
        <time>2021-10-10T08:24:18Z</time>
      </trkpt>
      <trkpt lat="45.06791" lon="5.56755">
        <ele>1082.2</ele>
        <time>2021-10-10T08:24:19Z</time>
      </trkpt>
      <trkpt lat="45.06791" lon="5.56756">
        <ele>1082</ele>
        <time>2021-10-10T08:24:30Z</time>
      </trkpt>
      <trkpt lat="45.06792" lon="5.56756">
        <ele>1082</ele>
        <time>2021-10-10T08:24:31Z</time>
      </trkpt>
      <trkpt lat="45.06793" lon="5.56758">
        <ele>1082</ele>
        <time>2021-10-10T08:24:32Z</time>
      </trkpt>
      <trkpt lat="45.06794" lon="5.56761">
        <ele>1082</ele>
        <time>2021-10-10T08:24:33Z</time>
      </trkpt>
      <trkpt lat="45.06795" lon="5.56764">
        <ele>1081.6</ele>
        <time>2021-10-10T08:24:34Z</time>
      </trkpt>
      <trkpt lat="45.06796" lon="5.56769">
        <ele>1081.6</ele>
        <time>2021-10-10T08:24:35Z</time>
      </trkpt>
      <trkpt lat="45.06796" lon="5.56774">
        <ele>1081.6</ele>
        <time>2021-10-10T08:24:36Z</time>
      </trkpt>
      <trkpt lat="45.06795" lon="5.56779">
        <ele>1081.4</ele>
        <time>2021-10-10T08:24:37Z</time>
      </trkpt>
      <trkpt lat="45.06794" lon="5.56783">
        <ele>1081</ele>
        <time>2021-10-10T08:24:38Z</time>
      </trkpt>
      <trkpt lat="45.06793" lon="5.56789">
        <ele>1081</ele>
        <time>2021-10-10T08:24:39Z</time>
      </trkpt>
      <trkpt lat="45.06792" lon="5.56794">
        <ele>1081</ele>
        <time>2021-10-10T08:24:40Z</time>
      </trkpt>
      <trkpt lat="45.06791" lon="5.56799">
        <ele>1081</ele>
        <time>2021-10-10T08:24:41Z</time>
      </trkpt>
      <trkpt lat="45.0679" lon="5.56804">
        <ele>1080.8</ele>
        <time>2021-10-10T08:24:42Z</time>
      </trkpt>
      <trkpt lat="45.06789" lon="5.56808">
        <ele>1080.8</ele>
        <time>2021-10-10T08:24:43Z</time>
      </trkpt>
      <trkpt lat="45.06788" lon="5.56812">
        <ele>1080.8</ele>
        <time>2021-10-10T08:24:44Z</time>
      </trkpt>
      <trkpt lat="45.06786" lon="5.56817">
        <ele>1080.8</ele>
        <time>2021-10-10T08:24:45Z</time>
      </trkpt>
      <trkpt lat="45.06786" lon="5.56822">
        <ele>1079.6</ele>
        <time>2021-10-10T08:24:46Z</time>
      </trkpt>
      <trkpt lat="45.06787" lon="5.56828">
        <ele>1079.6</ele>
        <time>2021-10-10T08:24:47Z</time>
      </trkpt>
      <trkpt lat="45.06787" lon="5.56834">
        <ele>1079.6</ele>
        <time>2021-10-10T08:24:48Z</time>
      </trkpt>
      <trkpt lat="45.06788" lon="5.5684">
        <ele>1078.6</ele>
        <time>2021-10-10T08:24:49Z</time>
      </trkpt>
      <trkpt lat="45.06789" lon="5.56847">
        <ele>1078.4</ele>
        <time>2021-10-10T08:24:50Z</time>
      </trkpt>
      <trkpt lat="45.06791" lon="5.56854">
        <ele>1078.4</ele>
        <time>2021-10-10T08:24:51Z</time>
      </trkpt>
      <trkpt lat="45.06793" lon="5.56861">
        <ele>1078.4</ele>
        <time>2021-10-10T08:24:52Z</time>
      </trkpt>
      <trkpt lat="45.06796" lon="5.56868">
        <ele>1078.4</ele>
        <time>2021-10-10T08:24:53Z</time>
      </trkpt>
      <trkpt lat="45.06798" lon="5.56873">
        <ele>1079</ele>
        <time>2021-10-10T08:24:54Z</time>
      </trkpt>
      <trkpt lat="45.06803" lon="5.56879">
        <ele>1079</ele>
        <time>2021-10-10T08:24:55Z</time>
      </trkpt>
      <trkpt lat="45.06806" lon="5.56886">
        <ele>1079</ele>
        <time>2021-10-10T08:24:56Z</time>
      </trkpt>
      <trkpt lat="45.06809" lon="5.56892">
        <ele>1079</ele>
        <time>2021-10-10T08:24:57Z</time>
      </trkpt>
      <trkpt lat="45.06813" lon="5.56897">
        <ele>1079</ele>
        <time>2021-10-10T08:24:58Z</time>
      </trkpt>
      <trkpt lat="45.06816" lon="5.56902">
        <ele>1079</ele>
        <time>2021-10-10T08:24:59Z</time>
      </trkpt>
      <trkpt lat="45.0682" lon="5.56907">
        <ele>1079</ele>
        <time>2021-10-10T08:25:00Z</time>
      </trkpt>
      <trkpt lat="45.06825" lon="5.56912">
        <ele>1079</ele>
        <time>2021-10-10T08:25:01Z</time>
      </trkpt>
      <trkpt lat="45.06829" lon="5.56917">
        <ele>1078.2</ele>
        <time>2021-10-10T08:25:02Z</time>
      </trkpt>
      <trkpt lat="45.06834" lon="5.56921">
        <ele>1078.2</ele>
        <time>2021-10-10T08:25:03Z</time>
      </trkpt>
      <trkpt lat="45.06839" lon="5.56925">
        <ele>1078.2</ele>
        <time>2021-10-10T08:25:04Z</time>
      </trkpt>
      <trkpt lat="45.06844" lon="5.56928">
        <ele>1078.2</ele>
        <time>2021-10-10T08:25:05Z</time>
      </trkpt>
      <trkpt lat="45.06848" lon="5.56931">
        <ele>1078.2</ele>
        <time>2021-10-10T08:25:06Z</time>
      </trkpt>
      <trkpt lat="45.06853" lon="5.56934">
        <ele>1078.2</ele>
        <time>2021-10-10T08:25:07Z</time>
      </trkpt>
      <trkpt lat="45.06857" lon="5.56936">
        <ele>1078.2</ele>
        <time>2021-10-10T08:25:08Z</time>
      </trkpt>
      <trkpt lat="45.06861" lon="5.56939">
        <ele>1078.2</ele>
        <time>2021-10-10T08:25:09Z</time>
      </trkpt>
      <trkpt lat="45.06866" lon="5.56941">
        <ele>1078.4</ele>
        <time>2021-10-10T08:25:10Z</time>
      </trkpt>
      <trkpt lat="45.0687" lon="5.56944">
        <ele>1078.4</ele>
        <time>2021-10-10T08:25:11Z</time>
      </trkpt>
      <trkpt lat="45.06874" lon="5.56947">
        <ele>1078.4</ele>
        <time>2021-10-10T08:25:12Z</time>
      </trkpt>
      <trkpt lat="45.06879" lon="5.5695">
        <ele>1079</ele>
        <time>2021-10-10T08:25:13Z</time>
      </trkpt>
      <trkpt lat="45.06885" lon="5.56953">
        <ele>1078.6</ele>
        <time>2021-10-10T08:25:14Z</time>
      </trkpt>
      <trkpt lat="45.0689" lon="5.56955">
        <ele>1078.6</ele>
        <time>2021-10-10T08:25:15Z</time>
      </trkpt>
      <trkpt lat="45.06894" lon="5.56957">
        <ele>1078.6</ele>
        <time>2021-10-10T08:25:16Z</time>
      </trkpt>
      <trkpt lat="45.06898" lon="5.5696">
        <ele>1078.6</ele>
        <time>2021-10-10T08:25:17Z</time>
      </trkpt>
      <trkpt lat="45.06903" lon="5.56962">
        <ele>1079.8</ele>
        <time>2021-10-10T08:25:18Z</time>
      </trkpt>
      <trkpt lat="45.06906" lon="5.56965">
        <ele>1079.8</ele>
        <time>2021-10-10T08:25:19Z</time>
      </trkpt>
      <trkpt lat="45.0691" lon="5.56969">
        <ele>1079.8</ele>
        <time>2021-10-10T08:25:20Z</time>
      </trkpt>
      <trkpt lat="45.06911" lon="5.56973">
        <ele>1080.6</ele>
        <time>2021-10-10T08:25:21Z</time>
      </trkpt>
      <trkpt lat="45.06912" lon="5.56978">
        <ele>1080.8</ele>
        <time>2021-10-10T08:25:22Z</time>
      </trkpt>
      <trkpt lat="45.06913" lon="5.56983">
        <ele>1080.8</ele>
        <time>2021-10-10T08:25:23Z</time>
      </trkpt>
      <trkpt lat="45.06913" lon="5.56989">
        <ele>1080.8</ele>
        <time>2021-10-10T08:25:24Z</time>
      </trkpt>
      <trkpt lat="45.06912" lon="5.56995">
        <ele>1079.8</ele>
        <time>2021-10-10T08:25:25Z</time>
      </trkpt>
      <trkpt lat="45.06911" lon="5.57001">
        <ele>1079.8</ele>
        <time>2021-10-10T08:25:26Z</time>
      </trkpt>
      <trkpt lat="45.06909" lon="5.57006">
        <ele>1079.8</ele>
        <time>2021-10-10T08:25:27Z</time>
      </trkpt>
      <trkpt lat="45.06906" lon="5.57012">
        <ele>1079.8</ele>
        <time>2021-10-10T08:25:28Z</time>
      </trkpt>
      <trkpt lat="45.06904" lon="5.57018">
        <ele>1079.8</ele>
        <time>2021-10-10T08:25:29Z</time>
      </trkpt>
      <trkpt lat="45.06901" lon="5.57024">
        <ele>1079.2</ele>
        <time>2021-10-10T08:25:30Z</time>
      </trkpt>
      <trkpt lat="45.06898" lon="5.5703">
        <ele>1079.2</ele>
        <time>2021-10-10T08:25:31Z</time>
      </trkpt>
      <trkpt lat="45.06896" lon="5.57036">
        <ele>1079.2</ele>
        <time>2021-10-10T08:25:32Z</time>
      </trkpt>
      <trkpt lat="45.06893" lon="5.57042">
        <ele>1079.2</ele>
        <time>2021-10-10T08:25:33Z</time>
      </trkpt>
      <trkpt lat="45.06891" lon="5.57047">
        <ele>1079.6</ele>
        <time>2021-10-10T08:25:34Z</time>
      </trkpt>
      <trkpt lat="45.06891" lon="5.57054">
        <ele>1079.6</ele>
        <time>2021-10-10T08:25:35Z</time>
      </trkpt>
      <trkpt lat="45.06893" lon="5.57061">
        <ele>1079.6</ele>
        <time>2021-10-10T08:25:36Z</time>
      </trkpt>
      <trkpt lat="45.06895" lon="5.57066">
        <ele>1080.6</ele>
        <time>2021-10-10T08:25:37Z</time>
      </trkpt>
      <trkpt lat="45.06896" lon="5.5707">
        <ele>1081.8</ele>
        <time>2021-10-10T08:25:38Z</time>
      </trkpt>
      <trkpt lat="45.06897" lon="5.57072">
        <ele>1081.8</ele>
        <time>2021-10-10T08:25:39Z</time>
      </trkpt>
      <trkpt lat="45.06898" lon="5.57073">
        <ele>1081.8</ele>
        <time>2021-10-10T08:25:40Z</time>
      </trkpt>
      <trkpt lat="45.069" lon="5.57075">
        <ele>1082.6</ele>
        <time>2021-10-10T08:25:41Z</time>
      </trkpt>
      <trkpt lat="45.06902" lon="5.57076">
        <ele>1082.6</ele>
        <time>2021-10-10T08:25:42Z</time>
      </trkpt>
      <trkpt lat="45.06904" lon="5.57077">
        <ele>1082.6</ele>
        <time>2021-10-10T08:25:43Z</time>
      </trkpt>
      <trkpt lat="45.06914" lon="5.57078">
        <ele>1082.6</ele>
        <time>2021-10-10T08:25:55Z</time>
      </trkpt>
      <trkpt lat="45.06916" lon="5.5708">
        <ele>1082.6</ele>
        <time>2021-10-10T08:25:56Z</time>
      </trkpt>
      <trkpt lat="45.06917" lon="5.57082">
        <ele>1082.8</ele>
        <time>2021-10-10T08:25:57Z</time>
      </trkpt>
      <trkpt lat="45.06917" lon="5.57085">
        <ele>1083</ele>
        <time>2021-10-10T08:25:58Z</time>
      </trkpt>
      <trkpt lat="45.06919" lon="5.57087">
        <ele>1083</ele>
        <time>2021-10-10T08:25:59Z</time>
      </trkpt>
      <trkpt lat="45.0692" lon="5.5709">
        <ele>1083</ele>
        <time>2021-10-10T08:26:00Z</time>
      </trkpt>
      <trkpt lat="45.06922" lon="5.57092">
        <ele>1083</ele>
        <time>2021-10-10T08:26:01Z</time>
      </trkpt>
      <trkpt lat="45.06923" lon="5.57096">
        <ele>1083</ele>
        <time>2021-10-10T08:26:02Z</time>
      </trkpt>
      <trkpt lat="45.06924" lon="5.57099">
        <ele>1083</ele>
        <time>2021-10-10T08:26:03Z</time>
      </trkpt>
      <trkpt lat="45.06926" lon="5.57102">
        <ele>1083</ele>
        <time>2021-10-10T08:26:04Z</time>
      </trkpt>
      <trkpt lat="45.06927" lon="5.57104">
        <ele>1083</ele>
        <time>2021-10-10T08:26:05Z</time>
      </trkpt>
      <trkpt lat="45.06928" lon="5.57107">
        <ele>1083.4</ele>
        <time>2021-10-10T08:26:06Z</time>
      </trkpt>
      <trkpt lat="45.06929" lon="5.5711">
        <ele>1083.4</ele>
        <time>2021-10-10T08:26:07Z</time>
      </trkpt>
      <trkpt lat="45.06931" lon="5.57113">
        <ele>1083.4</ele>
        <time>2021-10-10T08:26:08Z</time>
      </trkpt>
      <trkpt lat="45.06933" lon="5.57115">
        <ele>1083.4</ele>
        <time>2021-10-10T08:26:09Z</time>
      </trkpt>
      <trkpt lat="45.06935" lon="5.57118">
        <ele>1083.8</ele>
        <time>2021-10-10T08:26:10Z</time>
      </trkpt>
      <trkpt lat="45.06938" lon="5.5712">
        <ele>1083.8</ele>
        <time>2021-10-10T08:26:11Z</time>
      </trkpt>
      <trkpt lat="45.0694" lon="5.57122">
        <ele>1083.8</ele>
        <time>2021-10-10T08:26:12Z</time>
      </trkpt>
      <trkpt lat="45.06943" lon="5.57124">
        <ele>1083.8</ele>
        <time>2021-10-10T08:26:13Z</time>
      </trkpt>
      <trkpt lat="45.06945" lon="5.57126">
        <ele>1084.2</ele>
        <time>2021-10-10T08:26:14Z</time>
      </trkpt>
      <trkpt lat="45.06947" lon="5.57128">
        <ele>1084.2</ele>
        <time>2021-10-10T08:26:15Z</time>
      </trkpt>
      <trkpt lat="45.0695" lon="5.57131">
        <ele>1084.2</ele>
        <time>2021-10-10T08:26:16Z</time>
      </trkpt>
      <trkpt lat="45.06953" lon="5.57134">
        <ele>1084.4</ele>
        <time>2021-10-10T08:26:17Z</time>
      </trkpt>
      <trkpt lat="45.06957" lon="5.57136">
        <ele>1084.8</ele>
        <time>2021-10-10T08:26:18Z</time>
      </trkpt>
      <trkpt lat="45.0696" lon="5.57138">
        <ele>1084.8</ele>
        <time>2021-10-10T08:26:19Z</time>
      </trkpt>
      <trkpt lat="45.06962" lon="5.57142">
        <ele>1084.8</ele>
        <time>2021-10-10T08:26:20Z</time>
      </trkpt>
      <trkpt lat="45.06963" lon="5.57146">
        <ele>1085.2</ele>
        <time>2021-10-10T08:26:21Z</time>
      </trkpt>
      <trkpt lat="45.06964" lon="5.5715">
        <ele>1085.4</ele>
        <time>2021-10-10T08:26:22Z</time>
      </trkpt>
      <trkpt lat="45.06964" lon="5.57153">
        <ele>1085.4</ele>
        <time>2021-10-10T08:26:23Z</time>
      </trkpt>
      <trkpt lat="45.06963" lon="5.57157">
        <ele>1085.4</ele>
        <time>2021-10-10T08:26:24Z</time>
      </trkpt>
      <trkpt lat="45.06963" lon="5.5716">
        <ele>1086</ele>
        <time>2021-10-10T08:26:25Z</time>
      </trkpt>
      <trkpt lat="45.06963" lon="5.57164">
        <ele>1086</ele>
        <time>2021-10-10T08:26:26Z</time>
      </trkpt>
      <trkpt lat="45.06963" lon="5.57168">
        <ele>1086</ele>
        <time>2021-10-10T08:26:27Z</time>
      </trkpt>
      <trkpt lat="45.06963" lon="5.57172">
        <ele>1086</ele>
        <time>2021-10-10T08:26:28Z</time>
      </trkpt>
      <trkpt lat="45.06961" lon="5.57176">
        <ele>1086.2</ele>
        <time>2021-10-10T08:26:29Z</time>
      </trkpt>
      <trkpt lat="45.06961" lon="5.5718">
        <ele>1086.4</ele>
        <time>2021-10-10T08:26:30Z</time>
      </trkpt>
      <trkpt lat="45.06961" lon="5.57184">
        <ele>1086.4</ele>
        <time>2021-10-10T08:26:31Z</time>
      </trkpt>
      <trkpt lat="45.06961" lon="5.57189">
        <ele>1086.4</ele>
        <time>2021-10-10T08:26:32Z</time>
      </trkpt>
      <trkpt lat="45.06961" lon="5.57194">
        <ele>1086.4</ele>
        <time>2021-10-10T08:26:33Z</time>
      </trkpt>
      <trkpt lat="45.06963" lon="5.57199">
        <ele>1086.2</ele>
        <time>2021-10-10T08:26:34Z</time>
      </trkpt>
      <trkpt lat="45.06965" lon="5.57204">
        <ele>1086.2</ele>
        <time>2021-10-10T08:26:35Z</time>
      </trkpt>
      <trkpt lat="45.06966" lon="5.57209">
        <ele>1086.2</ele>
        <time>2021-10-10T08:26:36Z</time>
      </trkpt>
      <trkpt lat="45.06967" lon="5.57214">
        <ele>1086.4</ele>
        <time>2021-10-10T08:26:37Z</time>
      </trkpt>
      <trkpt lat="45.06969" lon="5.57218">
        <ele>1086.8</ele>
        <time>2021-10-10T08:26:38Z</time>
      </trkpt>
      <trkpt lat="45.06971" lon="5.57222">
        <ele>1086.8</ele>
        <time>2021-10-10T08:26:39Z</time>
      </trkpt>
      <trkpt lat="45.06973" lon="5.57225">
        <ele>1086.8</ele>
        <time>2021-10-10T08:26:40Z</time>
      </trkpt>
      <trkpt lat="45.06976" lon="5.57228">
        <ele>1087.2</ele>
        <time>2021-10-10T08:26:41Z</time>
      </trkpt>
      <trkpt lat="45.0698" lon="5.57231">
        <ele>1087.2</ele>
        <time>2021-10-10T08:26:42Z</time>
      </trkpt>
      <trkpt lat="45.06984" lon="5.57233">
        <ele>1087.2</ele>
        <time>2021-10-10T08:26:43Z</time>
      </trkpt>
      <trkpt lat="45.06983" lon="5.57235">
        <ele>1087.2</ele>
        <time>2021-10-10T08:26:44Z</time>
      </trkpt>
      <trkpt lat="45.06986" lon="5.57238">
        <ele>1087.2</ele>
        <time>2021-10-10T08:26:45Z</time>
      </trkpt>
      <trkpt lat="45.06989" lon="5.57241">
        <ele>1087.6</ele>
        <time>2021-10-10T08:26:46Z</time>
      </trkpt>
      <trkpt lat="45.06992" lon="5.57244">
        <ele>1087.6</ele>
        <time>2021-10-10T08:26:47Z</time>
      </trkpt>
      <trkpt lat="45.06996" lon="5.57246">
        <ele>1087.6</ele>
        <time>2021-10-10T08:26:48Z</time>
      </trkpt>
      <trkpt lat="45.06999" lon="5.57248">
        <ele>1087.6</ele>
        <time>2021-10-10T08:26:49Z</time>
      </trkpt>
      <trkpt lat="45.07002" lon="5.5725">
        <ele>1087.6</ele>
        <time>2021-10-10T08:26:50Z</time>
      </trkpt>
      <trkpt lat="45.07005" lon="5.57252">
        <ele>1087.6</ele>
        <time>2021-10-10T08:26:51Z</time>
      </trkpt>
      <trkpt lat="45.07009" lon="5.57254">
        <ele>1087.6</ele>
        <time>2021-10-10T08:26:52Z</time>
      </trkpt>
      <trkpt lat="45.07012" lon="5.57256">
        <ele>1088</ele>
        <time>2021-10-10T08:26:53Z</time>
      </trkpt>
      <trkpt lat="45.07015" lon="5.57256">
        <ele>1088.2</ele>
        <time>2021-10-10T08:26:54Z</time>
      </trkpt>
      <trkpt lat="45.07018" lon="5.57258">
        <ele>1088.2</ele>
        <time>2021-10-10T08:26:55Z</time>
      </trkpt>
      <trkpt lat="45.07023" lon="5.57259">
        <ele>1088.2</ele>
        <time>2021-10-10T08:26:56Z</time>
      </trkpt>
      <trkpt lat="45.07029" lon="5.5726">
        <ele>1088.2</ele>
        <time>2021-10-10T08:26:57Z</time>
      </trkpt>
      <trkpt lat="45.07032" lon="5.5726">
        <ele>1087.6</ele>
        <time>2021-10-10T08:26:58Z</time>
      </trkpt>
      <trkpt lat="45.07036" lon="5.5726">
        <ele>1087.6</ele>
        <time>2021-10-10T08:26:59Z</time>
      </trkpt>
      <trkpt lat="45.0704" lon="5.5726">
        <ele>1087.6</ele>
        <time>2021-10-10T08:27:00Z</time>
      </trkpt>
      <trkpt lat="45.07045" lon="5.57259">
        <ele>1088.2</ele>
        <time>2021-10-10T08:27:01Z</time>
      </trkpt>
      <trkpt lat="45.07048" lon="5.57257">
        <ele>1088.4</ele>
        <time>2021-10-10T08:27:02Z</time>
      </trkpt>
      <trkpt lat="45.07051" lon="5.57256">
        <ele>1088.4</ele>
        <time>2021-10-10T08:27:03Z</time>
      </trkpt>
      <trkpt lat="45.07055" lon="5.57254">
        <ele>1088.4</ele>
        <time>2021-10-10T08:27:04Z</time>
      </trkpt>
      <trkpt lat="45.07058" lon="5.57252">
        <ele>1088.4</ele>
        <time>2021-10-10T08:27:05Z</time>
      </trkpt>
      <trkpt lat="45.07062" lon="5.57251">
        <ele>1088.2</ele>
        <time>2021-10-10T08:27:06Z</time>
      </trkpt>
      <trkpt lat="45.07065" lon="5.5725">
        <ele>1088.2</ele>
        <time>2021-10-10T08:27:07Z</time>
      </trkpt>
      <trkpt lat="45.07069" lon="5.57249">
        <ele>1088.2</ele>
        <time>2021-10-10T08:27:08Z</time>
      </trkpt>
      <trkpt lat="45.07073" lon="5.57252">
        <ele>1088.2</ele>
        <time>2021-10-10T08:27:09Z</time>
      </trkpt>
      <trkpt lat="45.07076" lon="5.57255">
        <ele>1088.2</ele>
        <time>2021-10-10T08:27:10Z</time>
      </trkpt>
      <trkpt lat="45.07079" lon="5.57258">
        <ele>1088.2</ele>
        <time>2021-10-10T08:27:11Z</time>
      </trkpt>
      <trkpt lat="45.07083" lon="5.57262">
        <ele>1088.2</ele>
        <time>2021-10-10T08:27:12Z</time>
      </trkpt>
      <trkpt lat="45.07086" lon="5.57266">
        <ele>1088.2</ele>
        <time>2021-10-10T08:27:13Z</time>
      </trkpt>
      <trkpt lat="45.07088" lon="5.57272">
        <ele>1088</ele>
        <time>2021-10-10T08:27:14Z</time>
      </trkpt>
      <trkpt lat="45.0709" lon="5.57277">
        <ele>1088</ele>
        <time>2021-10-10T08:27:15Z</time>
      </trkpt>
      <trkpt lat="45.07093" lon="5.57283">
        <ele>1088</ele>
        <time>2021-10-10T08:27:16Z</time>
      </trkpt>
      <trkpt lat="45.07095" lon="5.5729">
        <ele>1087.2</ele>
        <time>2021-10-10T08:27:17Z</time>
      </trkpt>
      <trkpt lat="45.07097" lon="5.57296">
        <ele>1087</ele>
        <time>2021-10-10T08:27:18Z</time>
      </trkpt>
      <trkpt lat="45.071" lon="5.57302">
        <ele>1087</ele>
        <time>2021-10-10T08:27:19Z</time>
      </trkpt>
      <trkpt lat="45.07102" lon="5.57309">
        <ele>1087</ele>
        <time>2021-10-10T08:27:20Z</time>
      </trkpt>
      <trkpt lat="45.07103" lon="5.57315">
        <ele>1087</ele>
        <time>2021-10-10T08:27:21Z</time>
      </trkpt>
      <trkpt lat="45.07105" lon="5.57321">
        <ele>1086.2</ele>
        <time>2021-10-10T08:27:22Z</time>
      </trkpt>
      <trkpt lat="45.07107" lon="5.57327">
        <ele>1086.2</ele>
        <time>2021-10-10T08:27:23Z</time>
      </trkpt>
      <trkpt lat="45.07109" lon="5.57332">
        <ele>1086.2</ele>
        <time>2021-10-10T08:27:24Z</time>
      </trkpt>
      <trkpt lat="45.07111" lon="5.57338">
        <ele>1086.2</ele>
        <time>2021-10-10T08:27:25Z</time>
      </trkpt>
      <trkpt lat="45.07114" lon="5.57343">
        <ele>1086.6</ele>
        <time>2021-10-10T08:27:26Z</time>
      </trkpt>
      <trkpt lat="45.07116" lon="5.57349">
        <ele>1086.6</ele>
        <time>2021-10-10T08:27:27Z</time>
      </trkpt>
      <trkpt lat="45.07119" lon="5.57353">
        <ele>1086.6</ele>
        <time>2021-10-10T08:27:28Z</time>
      </trkpt>
      <trkpt lat="45.07122" lon="5.57356">
        <ele>1086.2</ele>
        <time>2021-10-10T08:27:29Z</time>
      </trkpt>
      <trkpt lat="45.07124" lon="5.57361">
        <ele>1086</ele>
        <time>2021-10-10T08:27:30Z</time>
      </trkpt>
      <trkpt lat="45.07127" lon="5.57365">
        <ele>1086</ele>
        <time>2021-10-10T08:27:31Z</time>
      </trkpt>
      <trkpt lat="45.07129" lon="5.5737">
        <ele>1086</ele>
        <time>2021-10-10T08:27:32Z</time>
      </trkpt>
      <trkpt lat="45.07131" lon="5.57375">
        <ele>1086</ele>
        <time>2021-10-10T08:27:33Z</time>
      </trkpt>
      <trkpt lat="45.07133" lon="5.57381">
        <ele>1085.2</ele>
        <time>2021-10-10T08:27:34Z</time>
      </trkpt>
      <trkpt lat="45.07136" lon="5.57387">
        <ele>1085.2</ele>
        <time>2021-10-10T08:27:35Z</time>
      </trkpt>
      <trkpt lat="45.07138" lon="5.57394">
        <ele>1085.2</ele>
        <time>2021-10-10T08:27:36Z</time>
      </trkpt>
      <trkpt lat="45.07138" lon="5.57401">
        <ele>1085.6</ele>
        <time>2021-10-10T08:27:37Z</time>
      </trkpt>
      <trkpt lat="45.07139" lon="5.57407">
        <ele>1085.4</ele>
        <time>2021-10-10T08:27:38Z</time>
      </trkpt>
      <trkpt lat="45.07139" lon="5.57414">
        <ele>1085.4</ele>
        <time>2021-10-10T08:27:39Z</time>
      </trkpt>
      <trkpt lat="45.07139" lon="5.57421">
        <ele>1085.4</ele>
        <time>2021-10-10T08:27:40Z</time>
      </trkpt>
      <trkpt lat="45.07138" lon="5.57428">
        <ele>1085.4</ele>
        <time>2021-10-10T08:27:41Z</time>
      </trkpt>
      <trkpt lat="45.07137" lon="5.57435">
        <ele>1085.4</ele>
        <time>2021-10-10T08:27:42Z</time>
      </trkpt>
      <trkpt lat="45.07137" lon="5.57442">
        <ele>1085.4</ele>
        <time>2021-10-10T08:27:43Z</time>
      </trkpt>
      <trkpt lat="45.07139" lon="5.57448">
        <ele>1085.4</ele>
        <time>2021-10-10T08:27:44Z</time>
      </trkpt>
      <trkpt lat="45.07141" lon="5.57454">
        <ele>1085.4</ele>
        <time>2021-10-10T08:27:45Z</time>
      </trkpt>
      <trkpt lat="45.07145" lon="5.5746">
        <ele>1085.6</ele>
        <time>2021-10-10T08:27:46Z</time>
      </trkpt>
      <trkpt lat="45.0715" lon="5.57463">
        <ele>1085.6</ele>
        <time>2021-10-10T08:27:47Z</time>
      </trkpt>
      <trkpt lat="45.07155" lon="5.57464">
        <ele>1085.6</ele>
        <time>2021-10-10T08:27:48Z</time>
      </trkpt>
      <trkpt lat="45.0716" lon="5.57464">
        <ele>1085.6</ele>
        <time>2021-10-10T08:27:49Z</time>
      </trkpt>
      <trkpt lat="45.07166" lon="5.57462">
        <ele>1085.4</ele>
        <time>2021-10-10T08:27:50Z</time>
      </trkpt>
      <trkpt lat="45.0717" lon="5.5746">
        <ele>1085.4</ele>
        <time>2021-10-10T08:27:51Z</time>
      </trkpt>
      <trkpt lat="45.07175" lon="5.57458">
        <ele>1085.4</ele>
        <time>2021-10-10T08:27:52Z</time>
      </trkpt>
      <trkpt lat="45.0718" lon="5.57456">
        <ele>1085.4</ele>
        <time>2021-10-10T08:27:53Z</time>
      </trkpt>
      <trkpt lat="45.07184" lon="5.57453">
        <ele>1085.6</ele>
        <time>2021-10-10T08:27:54Z</time>
      </trkpt>
      <trkpt lat="45.07189" lon="5.5745">
        <ele>1085.6</ele>
        <time>2021-10-10T08:27:55Z</time>
      </trkpt>
      <trkpt lat="45.07193" lon="5.57447">
        <ele>1085.6</ele>
        <time>2021-10-10T08:27:56Z</time>
      </trkpt>
      <trkpt lat="45.07198" lon="5.57444">
        <ele>1085.6</ele>
        <time>2021-10-10T08:27:57Z</time>
      </trkpt>
      <trkpt lat="45.07203" lon="5.57441">
        <ele>1086.2</ele>
        <time>2021-10-10T08:27:58Z</time>
      </trkpt>
      <trkpt lat="45.07208" lon="5.57439">
        <ele>1086.2</ele>
        <time>2021-10-10T08:27:59Z</time>
      </trkpt>
      <trkpt lat="45.07213" lon="5.57438">
        <ele>1086.2</ele>
        <time>2021-10-10T08:28:00Z</time>
      </trkpt>
      <trkpt lat="45.07218" lon="5.57438">
        <ele>1086.2</ele>
        <time>2021-10-10T08:28:01Z</time>
      </trkpt>
      <trkpt lat="45.07223" lon="5.57438">
        <ele>1086</ele>
        <time>2021-10-10T08:28:02Z</time>
      </trkpt>
      <trkpt lat="45.07228" lon="5.57439">
        <ele>1086</ele>
        <time>2021-10-10T08:28:03Z</time>
      </trkpt>
      <trkpt lat="45.07232" lon="5.57439">
        <ele>1086</ele>
        <time>2021-10-10T08:28:04Z</time>
      </trkpt>
      <trkpt lat="45.07237" lon="5.57439">
        <ele>1086</ele>
        <time>2021-10-10T08:28:05Z</time>
      </trkpt>
      <trkpt lat="45.07242" lon="5.57438">
        <ele>1086.6</ele>
        <time>2021-10-10T08:28:06Z</time>
      </trkpt>
      <trkpt lat="45.07247" lon="5.57437">
        <ele>1086.6</ele>
        <time>2021-10-10T08:28:07Z</time>
      </trkpt>
      <trkpt lat="45.07251" lon="5.57435">
        <ele>1086.6</ele>
        <time>2021-10-10T08:28:08Z</time>
      </trkpt>
      <trkpt lat="45.07255" lon="5.57432">
        <ele>1087</ele>
        <time>2021-10-10T08:28:09Z</time>
      </trkpt>
      <trkpt lat="45.07259" lon="5.57429">
        <ele>1087.2</ele>
        <time>2021-10-10T08:28:10Z</time>
      </trkpt>
      <trkpt lat="45.07262" lon="5.57425">
        <ele>1087.2</ele>
        <time>2021-10-10T08:28:11Z</time>
      </trkpt>
      <trkpt lat="45.07266" lon="5.5742">
        <ele>1087.2</ele>
        <time>2021-10-10T08:28:12Z</time>
      </trkpt>
      <trkpt lat="45.07269" lon="5.57416">
        <ele>1087.4</ele>
        <time>2021-10-10T08:28:13Z</time>
      </trkpt>
      <trkpt lat="45.07272" lon="5.57411">
        <ele>1087.6</ele>
        <time>2021-10-10T08:28:14Z</time>
      </trkpt>
      <trkpt lat="45.07275" lon="5.57406">
        <ele>1087.6</ele>
        <time>2021-10-10T08:28:15Z</time>
      </trkpt>
      <trkpt lat="45.07277" lon="5.57401">
        <ele>1087.6</ele>
        <time>2021-10-10T08:28:16Z</time>
      </trkpt>
      <trkpt lat="45.07279" lon="5.57396">
        <ele>1088.4</ele>
        <time>2021-10-10T08:28:17Z</time>
      </trkpt>
      <trkpt lat="45.07281" lon="5.57391">
        <ele>1088.6</ele>
        <time>2021-10-10T08:28:18Z</time>
      </trkpt>
      <trkpt lat="45.07283" lon="5.57385">
        <ele>1088.6</ele>
        <time>2021-10-10T08:28:19Z</time>
      </trkpt>
      <trkpt lat="45.07284" lon="5.5738">
        <ele>1088.6</ele>
        <time>2021-10-10T08:28:20Z</time>
      </trkpt>
      <trkpt lat="45.07286" lon="5.57375">
        <ele>1088.4</ele>
        <time>2021-10-10T08:28:21Z</time>
      </trkpt>
      <trkpt lat="45.07287" lon="5.57369">
        <ele>1089</ele>
        <time>2021-10-10T08:28:22Z</time>
      </trkpt>
      <trkpt lat="45.07288" lon="5.57364">
        <ele>1089</ele>
        <time>2021-10-10T08:28:23Z</time>
      </trkpt>
      <trkpt lat="45.0729" lon="5.57359">
        <ele>1089</ele>
        <time>2021-10-10T08:28:24Z</time>
      </trkpt>
      <trkpt lat="45.07291" lon="5.57353">
        <ele>1089.2</ele>
        <time>2021-10-10T08:28:25Z</time>
      </trkpt>
      <trkpt lat="45.07293" lon="5.57349">
        <ele>1089.2</ele>
        <time>2021-10-10T08:28:26Z</time>
      </trkpt>
      <trkpt lat="45.07294" lon="5.57343">
        <ele>1089.2</ele>
        <time>2021-10-10T08:28:27Z</time>
      </trkpt>
      <trkpt lat="45.07296" lon="5.57338">
        <ele>1089.2</ele>
        <time>2021-10-10T08:28:28Z</time>
      </trkpt>
      <trkpt lat="45.07297" lon="5.57332">
        <ele>1089.2</ele>
        <time>2021-10-10T08:28:29Z</time>
      </trkpt>
      <trkpt lat="45.07299" lon="5.57327">
        <ele>1089.2</ele>
        <time>2021-10-10T08:28:30Z</time>
      </trkpt>
      <trkpt lat="45.07301" lon="5.5732">
        <ele>1089.2</ele>
        <time>2021-10-10T08:28:31Z</time>
      </trkpt>
      <trkpt lat="45.07302" lon="5.57315">
        <ele>1089.2</ele>
        <time>2021-10-10T08:28:32Z</time>
      </trkpt>
      <trkpt lat="45.07303" lon="5.57309">
        <ele>1090</ele>
        <time>2021-10-10T08:28:33Z</time>
      </trkpt>
      <trkpt lat="45.07305" lon="5.57304">
        <ele>1090</ele>
        <time>2021-10-10T08:28:34Z</time>
      </trkpt>
      <trkpt lat="45.07307" lon="5.57299">
        <ele>1090</ele>
        <time>2021-10-10T08:28:35Z</time>
      </trkpt>
      <trkpt lat="45.07309" lon="5.57294">
        <ele>1090</ele>
        <time>2021-10-10T08:28:36Z</time>
      </trkpt>
      <trkpt lat="45.0731" lon="5.57289">
        <ele>1090.6</ele>
        <time>2021-10-10T08:28:37Z</time>
      </trkpt>
      <trkpt lat="45.07312" lon="5.57284">
        <ele>1090.4</ele>
        <time>2021-10-10T08:28:38Z</time>
      </trkpt>
      <trkpt lat="45.07314" lon="5.57279">
        <ele>1090.4</ele>
        <time>2021-10-10T08:28:39Z</time>
      </trkpt>
      <trkpt lat="45.07316" lon="5.57274">
        <ele>1090.4</ele>
        <time>2021-10-10T08:28:40Z</time>
      </trkpt>
      <trkpt lat="45.07318" lon="5.57269">
        <ele>1090.4</ele>
        <time>2021-10-10T08:28:41Z</time>
      </trkpt>
      <trkpt lat="45.07321" lon="5.57264">
        <ele>1090.6</ele>
        <time>2021-10-10T08:28:42Z</time>
      </trkpt>
      <trkpt lat="45.07323" lon="5.57259">
        <ele>1090.6</ele>
        <time>2021-10-10T08:28:43Z</time>
      </trkpt>
      <trkpt lat="45.07326" lon="5.57255">
        <ele>1090.6</ele>
        <time>2021-10-10T08:28:44Z</time>
      </trkpt>
      <trkpt lat="45.07329" lon="5.57251">
        <ele>1090.8</ele>
        <time>2021-10-10T08:28:45Z</time>
      </trkpt>
      <trkpt lat="45.07332" lon="5.57248">
        <ele>1091.2</ele>
        <time>2021-10-10T08:28:46Z</time>
      </trkpt>
      <trkpt lat="45.07336" lon="5.57245">
        <ele>1091.2</ele>
        <time>2021-10-10T08:28:47Z</time>
      </trkpt>
      <trkpt lat="45.07339" lon="5.57242">
        <ele>1091.2</ele>
        <time>2021-10-10T08:28:48Z</time>
      </trkpt>
      <trkpt lat="45.07343" lon="5.5724">
        <ele>1091.4</ele>
        <time>2021-10-10T08:28:49Z</time>
      </trkpt>
      <trkpt lat="45.07346" lon="5.57238">
        <ele>1092.2</ele>
        <time>2021-10-10T08:28:50Z</time>
      </trkpt>
      <trkpt lat="45.0735" lon="5.57236">
        <ele>1092.2</ele>
        <time>2021-10-10T08:28:51Z</time>
      </trkpt>
      <trkpt lat="45.07354" lon="5.57234">
        <ele>1092.2</ele>
        <time>2021-10-10T08:28:52Z</time>
      </trkpt>
      <trkpt lat="45.07357" lon="5.57232">
        <ele>1092.2</ele>
        <time>2021-10-10T08:28:53Z</time>
      </trkpt>
      <trkpt lat="45.07361" lon="5.57232">
        <ele>1092.4</ele>
        <time>2021-10-10T08:28:54Z</time>
      </trkpt>
      <trkpt lat="45.07365" lon="5.57231">
        <ele>1092.4</ele>
        <time>2021-10-10T08:28:55Z</time>
      </trkpt>
      <trkpt lat="45.07369" lon="5.5723">
        <ele>1092.4</ele>
        <time>2021-10-10T08:28:56Z</time>
      </trkpt>
      <trkpt lat="45.07373" lon="5.5723">
        <ele>1092.8</ele>
        <time>2021-10-10T08:28:57Z</time>
      </trkpt>
      <trkpt lat="45.07377" lon="5.5723">
        <ele>1092.6</ele>
        <time>2021-10-10T08:28:58Z</time>
      </trkpt>
      <trkpt lat="45.07381" lon="5.5723">
        <ele>1092.6</ele>
        <time>2021-10-10T08:28:59Z</time>
      </trkpt>
      <trkpt lat="45.07385" lon="5.5723">
        <ele>1092.6</ele>
        <time>2021-10-10T08:29:00Z</time>
      </trkpt>
      <trkpt lat="45.07388" lon="5.5723">
        <ele>1092.6</ele>
        <time>2021-10-10T08:29:01Z</time>
      </trkpt>
      <trkpt lat="45.07391" lon="5.5723">
        <ele>1092.6</ele>
        <time>2021-10-10T08:29:02Z</time>
      </trkpt>
      <trkpt lat="45.07394" lon="5.57231">
        <ele>1093.2</ele>
        <time>2021-10-10T08:29:03Z</time>
      </trkpt>
      <trkpt lat="45.07396" lon="5.57231">
        <ele>1093.2</ele>
        <time>2021-10-10T08:29:04Z</time>
      </trkpt>
      <trkpt lat="45.07397" lon="5.57231">
        <ele>1093.4</ele>
        <time>2021-10-10T08:29:05Z</time>
      </trkpt>
      <trkpt lat="45.07399" lon="5.57231">
        <ele>1093.6</ele>
        <time>2021-10-10T08:29:06Z</time>
      </trkpt>
      <trkpt lat="45.074" lon="5.57231">
        <ele>1093.6</ele>
        <time>2021-10-10T08:29:07Z</time>
      </trkpt>
      <trkpt lat="45.07401" lon="5.5723">
        <ele>1093.6</ele>
        <time>2021-10-10T08:29:08Z</time>
      </trkpt>
      <trkpt lat="45.074" lon="5.57228">
        <ele>1093.6</ele>
        <time>2021-10-10T08:29:09Z</time>
      </trkpt>
      <trkpt lat="45.07399" lon="5.57227">
        <ele>1093.2</ele>
        <time>2021-10-10T08:29:10Z</time>
      </trkpt>
      <trkpt lat="45.07398" lon="5.57227">
        <ele>1093.2</ele>
        <time>2021-10-10T08:29:11Z</time>
      </trkpt>
      <trkpt lat="45.07396" lon="5.57227">
        <ele>1093.2</ele>
        <time>2021-10-10T08:29:12Z</time>
      </trkpt>
      <trkpt lat="45.07394" lon="5.57227">
        <ele>1093</ele>
        <time>2021-10-10T08:29:13Z</time>
      </trkpt>
      <trkpt lat="45.07392" lon="5.57227">
        <ele>1093.4</ele>
        <time>2021-10-10T08:29:14Z</time>
      </trkpt>
      <trkpt lat="45.0739" lon="5.57228">
        <ele>1093.4</ele>
        <time>2021-10-10T08:29:15Z</time>
      </trkpt>
      <trkpt lat="45.07388" lon="5.57228">
        <ele>1093.4</ele>
        <time>2021-10-10T08:29:16Z</time>
      </trkpt>
      <trkpt lat="45.07386" lon="5.57229">
        <ele>1093.4</ele>
        <time>2021-10-10T08:29:17Z</time>
      </trkpt>
      <trkpt lat="45.07385" lon="5.57229">
        <ele>1092.8</ele>
        <time>2021-10-10T08:29:18Z</time>
      </trkpt>
      <trkpt lat="45.07383" lon="5.57229">
        <ele>1092.8</ele>
        <time>2021-10-10T08:29:19Z</time>
      </trkpt>
      <trkpt lat="45.07381" lon="5.57229">
        <ele>1092.8</ele>
        <time>2021-10-10T08:29:20Z</time>
      </trkpt>
      <trkpt lat="45.0738" lon="5.57228">
        <ele>1093.4</ele>
        <time>2021-10-10T08:29:21Z</time>
      </trkpt>
      <trkpt lat="45.07378" lon="5.57228">
        <ele>1093.4</ele>
        <time>2021-10-10T08:29:22Z</time>
      </trkpt>
      <trkpt lat="45.07376" lon="5.57228">
        <ele>1093.4</ele>
        <time>2021-10-10T08:29:23Z</time>
      </trkpt>
      <trkpt lat="45.07374" lon="5.57228">
        <ele>1093.4</ele>
        <time>2021-10-10T08:29:24Z</time>
      </trkpt>
      <trkpt lat="45.07371" lon="5.57228">
        <ele>1092.6</ele>
        <time>2021-10-10T08:29:25Z</time>
      </trkpt>
      <trkpt lat="45.07368" lon="5.57228">
        <ele>1092.4</ele>
        <time>2021-10-10T08:29:26Z</time>
      </trkpt>
      <trkpt lat="45.07365" lon="5.57229">
        <ele>1092.4</ele>
        <time>2021-10-10T08:29:27Z</time>
      </trkpt>
      <trkpt lat="45.07363" lon="5.57229">
        <ele>1092.4</ele>
        <time>2021-10-10T08:29:28Z</time>
      </trkpt>
      <trkpt lat="45.0736" lon="5.5723">
        <ele>1092.4</ele>
        <time>2021-10-10T08:29:29Z</time>
      </trkpt>
      <trkpt lat="45.07357" lon="5.57231">
        <ele>1092.4</ele>
        <time>2021-10-10T08:29:30Z</time>
      </trkpt>
      <trkpt lat="45.07355" lon="5.57232">
        <ele>1092.4</ele>
        <time>2021-10-10T08:29:31Z</time>
      </trkpt>
      <trkpt lat="45.07352" lon="5.57233">
        <ele>1092.4</ele>
        <time>2021-10-10T08:29:32Z</time>
      </trkpt>
      <trkpt lat="45.07349" lon="5.57234">
        <ele>1092</ele>
        <time>2021-10-10T08:29:33Z</time>
      </trkpt>
      <trkpt lat="45.07346" lon="5.57236">
        <ele>1091.6</ele>
        <time>2021-10-10T08:29:34Z</time>
      </trkpt>
      <trkpt lat="45.07343" lon="5.57238">
        <ele>1091.6</ele>
        <time>2021-10-10T08:29:35Z</time>
      </trkpt>
      <trkpt lat="45.07341" lon="5.5724">
        <ele>1091.6</ele>
        <time>2021-10-10T08:29:36Z</time>
      </trkpt>
      <trkpt lat="45.07338" lon="5.57242">
        <ele>1091.6</ele>
        <time>2021-10-10T08:29:37Z</time>
      </trkpt>
      <trkpt lat="45.07335" lon="5.57244">
        <ele>1091.6</ele>
        <time>2021-10-10T08:29:38Z</time>
      </trkpt>
      <trkpt lat="45.07333" lon="5.57246">
        <ele>1091.6</ele>
        <time>2021-10-10T08:29:39Z</time>
      </trkpt>
      <trkpt lat="45.0733" lon="5.57248">
        <ele>1091.6</ele>
        <time>2021-10-10T08:29:40Z</time>
      </trkpt>
      <trkpt lat="45.07327" lon="5.57251">
        <ele>1091.2</ele>
        <time>2021-10-10T08:29:41Z</time>
      </trkpt>
      <trkpt lat="45.07325" lon="5.57255">
        <ele>1091.4</ele>
        <time>2021-10-10T08:29:42Z</time>
      </trkpt>
      <trkpt lat="45.07323" lon="5.57257">
        <ele>1091.4</ele>
        <time>2021-10-10T08:29:43Z</time>
      </trkpt>
      <trkpt lat="45.07321" lon="5.57259">
        <ele>1091.4</ele>
        <time>2021-10-10T08:29:44Z</time>
      </trkpt>
      <trkpt lat="45.0732" lon="5.57262">
        <ele>1091</ele>
        <time>2021-10-10T08:29:45Z</time>
      </trkpt>
      <trkpt lat="45.07318" lon="5.57265">
        <ele>1091</ele>
        <time>2021-10-10T08:29:46Z</time>
      </trkpt>
      <trkpt lat="45.07317" lon="5.57269">
        <ele>1091</ele>
        <time>2021-10-10T08:29:47Z</time>
      </trkpt>
      <trkpt lat="45.07316" lon="5.57272">
        <ele>1091</ele>
        <time>2021-10-10T08:29:48Z</time>
      </trkpt>
      <trkpt lat="45.07315" lon="5.57276">
        <ele>1091</ele>
        <time>2021-10-10T08:29:49Z</time>
      </trkpt>
      <trkpt lat="45.07313" lon="5.5728">
        <ele>1091</ele>
        <time>2021-10-10T08:29:50Z</time>
      </trkpt>
      <trkpt lat="45.07312" lon="5.57284">
        <ele>1091</ele>
        <time>2021-10-10T08:29:51Z</time>
      </trkpt>
      <trkpt lat="45.07311" lon="5.57287">
        <ele>1091</ele>
        <time>2021-10-10T08:29:52Z</time>
      </trkpt>
      <trkpt lat="45.0731" lon="5.57291">
        <ele>1090</ele>
        <time>2021-10-10T08:29:53Z</time>
      </trkpt>
      <trkpt lat="45.07308" lon="5.57295">
        <ele>1090</ele>
        <time>2021-10-10T08:29:54Z</time>
      </trkpt>
      <trkpt lat="45.07307" lon="5.573">
        <ele>1090</ele>
        <time>2021-10-10T08:29:55Z</time>
      </trkpt>
      <trkpt lat="45.07305" lon="5.57304">
        <ele>1090</ele>
        <time>2021-10-10T08:29:56Z</time>
      </trkpt>
      <trkpt lat="45.07304" lon="5.57309">
        <ele>1090</ele>
        <time>2021-10-10T08:29:57Z</time>
      </trkpt>
      <trkpt lat="45.07303" lon="5.57313">
        <ele>1090</ele>
        <time>2021-10-10T08:29:58Z</time>
      </trkpt>
      <trkpt lat="45.07301" lon="5.57318">
        <ele>1090</ele>
        <time>2021-10-10T08:29:59Z</time>
      </trkpt>
      <trkpt lat="45.073" lon="5.57323">
        <ele>1090</ele>
        <time>2021-10-10T08:30:00Z</time>
      </trkpt>
      <trkpt lat="45.07299" lon="5.57327">
        <ele>1090</ele>
        <time>2021-10-10T08:30:01Z</time>
      </trkpt>
      <trkpt lat="45.07297" lon="5.57331">
        <ele>1089.2</ele>
        <time>2021-10-10T08:30:02Z</time>
      </trkpt>
      <trkpt lat="45.07296" lon="5.57336">
        <ele>1089.2</ele>
        <time>2021-10-10T08:30:03Z</time>
      </trkpt>
      <trkpt lat="45.07294" lon="5.57341">
        <ele>1089.2</ele>
        <time>2021-10-10T08:30:04Z</time>
      </trkpt>
      <trkpt lat="45.07293" lon="5.57347">
        <ele>1089.2</ele>
        <time>2021-10-10T08:30:05Z</time>
      </trkpt>
      <trkpt lat="45.07292" lon="5.57352">
        <ele>1089.2</ele>
        <time>2021-10-10T08:30:06Z</time>
      </trkpt>
      <trkpt lat="45.07291" lon="5.57357">
        <ele>1089.2</ele>
        <time>2021-10-10T08:30:07Z</time>
      </trkpt>
      <trkpt lat="45.0729" lon="5.57362">
        <ele>1089.2</ele>
        <time>2021-10-10T08:30:08Z</time>
      </trkpt>
      <trkpt lat="45.07288" lon="5.57368">
        <ele>1089.2</ele>
        <time>2021-10-10T08:30:09Z</time>
      </trkpt>
      <trkpt lat="45.07286" lon="5.57373">
        <ele>1089</ele>
        <time>2021-10-10T08:30:10Z</time>
      </trkpt>
      <trkpt lat="45.07285" lon="5.57379">
        <ele>1089</ele>
        <time>2021-10-10T08:30:11Z</time>
      </trkpt>
      <trkpt lat="45.07283" lon="5.57385">
        <ele>1089</ele>
        <time>2021-10-10T08:30:12Z</time>
      </trkpt>
      <trkpt lat="45.07281" lon="5.57391">
        <ele>1088</ele>
        <time>2021-10-10T08:30:13Z</time>
      </trkpt>
      <trkpt lat="45.0728" lon="5.57397">
        <ele>1087.8</ele>
        <time>2021-10-10T08:30:14Z</time>
      </trkpt>
      <trkpt lat="45.07277" lon="5.57403">
        <ele>1087.8</ele>
        <time>2021-10-10T08:30:15Z</time>
      </trkpt>
      <trkpt lat="45.07273" lon="5.57408">
        <ele>1087.8</ele>
        <time>2021-10-10T08:30:16Z</time>
      </trkpt>
      <trkpt lat="45.0727" lon="5.57412">
        <ele>1087.8</ele>
        <time>2021-10-10T08:30:17Z</time>
      </trkpt>
      <trkpt lat="45.07267" lon="5.57415">
        <ele>1087.2</ele>
        <time>2021-10-10T08:30:18Z</time>
      </trkpt>
      <trkpt lat="45.07265" lon="5.57418">
        <ele>1087.2</ele>
        <time>2021-10-10T08:30:19Z</time>
      </trkpt>
      <trkpt lat="45.07263" lon="5.5742">
        <ele>1087.2</ele>
        <time>2021-10-10T08:30:20Z</time>
      </trkpt>
      <trkpt lat="45.0726" lon="5.57422">
        <ele>1087.8</ele>
        <time>2021-10-10T08:30:21Z</time>
      </trkpt>
      <trkpt lat="45.07258" lon="5.57424">
        <ele>1087.4</ele>
        <time>2021-10-10T08:30:22Z</time>
      </trkpt>
      <trkpt lat="45.07256" lon="5.57426">
        <ele>1087.4</ele>
        <time>2021-10-10T08:30:23Z</time>
      </trkpt>
      <trkpt lat="45.07254" lon="5.57428">
        <ele>1087.4</ele>
        <time>2021-10-10T08:30:24Z</time>
      </trkpt>
      <trkpt lat="45.07251" lon="5.5743">
        <ele>1087.2</ele>
        <time>2021-10-10T08:30:25Z</time>
      </trkpt>
      <trkpt lat="45.07249" lon="5.57431">
        <ele>1087.4</ele>
        <time>2021-10-10T08:30:26Z</time>
      </trkpt>
      <trkpt lat="45.07248" lon="5.57433">
        <ele>1087.4</ele>
        <time>2021-10-10T08:30:27Z</time>
      </trkpt>
      <trkpt lat="45.07246" lon="5.57434">
        <ele>1087.4</ele>
        <time>2021-10-10T08:30:28Z</time>
      </trkpt>
      <trkpt lat="45.07245" lon="5.57435">
        <ele>1087.4</ele>
        <time>2021-10-10T08:30:29Z</time>
      </trkpt>
      <trkpt lat="45.07244" lon="5.57435">
        <ele>1087.4</ele>
        <time>2021-10-10T08:30:30Z</time>
      </trkpt>
      <trkpt lat="45.07243" lon="5.57436">
        <ele>1087.4</ele>
        <time>2021-10-10T08:30:31Z</time>
      </trkpt>
      <trkpt lat="45.07242" lon="5.57437">
        <ele>1087.4</ele>
        <time>2021-10-10T08:30:32Z</time>
      </trkpt>
      <trkpt lat="45.07242" lon="5.57438">
        <ele>1087.4</ele>
        <time>2021-10-10T08:30:33Z</time>
      </trkpt>
      <trkpt lat="45.07242" lon="5.57439">
        <ele>1087.4</ele>
        <time>2021-10-10T08:30:34Z</time>
      </trkpt>
      <trkpt lat="45.07242" lon="5.5744">
        <ele>1087.4</ele>
        <time>2021-10-10T08:30:35Z</time>
      </trkpt>
      <trkpt lat="45.07244" lon="5.5744">
        <ele>1087.4</ele>
        <time>2021-10-10T08:30:36Z</time>
      </trkpt>
      <trkpt lat="45.07244" lon="5.57441">
        <ele>1087.8</ele>
        <time>2021-10-10T08:30:37Z</time>
      </trkpt>
      <trkpt lat="45.07245" lon="5.57441">
        <ele>1087.6</ele>
        <time>2021-10-10T08:30:38Z</time>
      </trkpt>
      <trkpt lat="45.07246" lon="5.57442">
        <ele>1087.6</ele>
        <time>2021-10-10T08:30:39Z</time>
      </trkpt>
      <trkpt lat="45.07248" lon="5.57443">
        <ele>1087.6</ele>
        <time>2021-10-10T08:30:40Z</time>
      </trkpt>
      <trkpt lat="45.07249" lon="5.57443">
        <ele>1087.6</ele>
        <time>2021-10-10T08:30:41Z</time>
      </trkpt>
      <trkpt lat="45.07249" lon="5.57444">
        <ele>1087.8</ele>
        <time>2021-10-10T08:30:42Z</time>
      </trkpt>
      <trkpt lat="45.07204" lon="5.57883">
        <ele>1174.2</ele>
        <time>2021-10-10T08:45:20Z</time>
      </trkpt>
      <trkpt lat="45.07206" lon="5.57883">
        <ele>1174.2</ele>
        <time>2021-10-10T08:45:21Z</time>
      </trkpt>
      <trkpt lat="45.07207" lon="5.57882">
        <ele>1174.4</ele>
        <time>2021-10-10T08:45:22Z</time>
      </trkpt>
      <trkpt lat="45.07209" lon="5.57883">
        <ele>1174.4</ele>
        <time>2021-10-10T08:45:23Z</time>
      </trkpt>
      <trkpt lat="45.0721" lon="5.57884">
        <ele>1174.4</ele>
        <time>2021-10-10T08:45:24Z</time>
      </trkpt>
      <trkpt lat="45.07212" lon="5.57885">
        <ele>1174.4</ele>
        <time>2021-10-10T08:45:25Z</time>
      </trkpt>
      <trkpt lat="45.07213" lon="5.57885">
        <ele>1174.8</ele>
        <time>2021-10-10T08:45:26Z</time>
      </trkpt>
      <trkpt lat="45.07215" lon="5.57886">
        <ele>1174.8</ele>
        <time>2021-10-10T08:45:27Z</time>
      </trkpt>
      <trkpt lat="45.07216" lon="5.57886">
        <ele>1174.8</ele>
        <time>2021-10-10T08:45:28Z</time>
      </trkpt>
      <trkpt lat="45.07217" lon="5.57887">
        <ele>1174.8</ele>
        <time>2021-10-10T08:45:29Z</time>
      </trkpt>
      <trkpt lat="45.07218" lon="5.57887">
        <ele>1174.8</ele>
        <time>2021-10-10T08:45:30Z</time>
      </trkpt>
      <trkpt lat="45.07219" lon="5.57888">
        <ele>1174.8</ele>
        <time>2021-10-10T08:45:31Z</time>
      </trkpt>
      <trkpt lat="45.0722" lon="5.57888">
        <ele>1174.8</ele>
        <time>2021-10-10T08:45:32Z</time>
      </trkpt>
      <trkpt lat="45.0722" lon="5.57889">
        <ele>1174.8</ele>
        <time>2021-10-10T08:45:33Z</time>
      </trkpt>
      <trkpt lat="45.07221" lon="5.57889">
        <ele>1175.2</ele>
        <time>2021-10-10T08:45:34Z</time>
      </trkpt>
      <trkpt lat="45.07222" lon="5.5789">
        <ele>1175.2</ele>
        <time>2021-10-10T08:45:35Z</time>
      </trkpt>
      <trkpt lat="45.07223" lon="5.5789">
        <ele>1175.2</ele>
        <time>2021-10-10T08:45:36Z</time>
      </trkpt>
      <trkpt lat="45.07225" lon="5.5789">
        <ele>1175.2</ele>
        <time>2021-10-10T08:45:37Z</time>
      </trkpt>
      <trkpt lat="45.07226" lon="5.5789">
        <ele>1175.4</ele>
        <time>2021-10-10T08:45:38Z</time>
      </trkpt>
      <trkpt lat="45.07227" lon="5.57891">
        <ele>1175.4</ele>
        <time>2021-10-10T08:45:39Z</time>
      </trkpt>
      <trkpt lat="45.07228" lon="5.57891">
        <ele>1175.4</ele>
        <time>2021-10-10T08:45:40Z</time>
      </trkpt>
      <trkpt lat="45.0723" lon="5.57892">
        <ele>1175.4</ele>
        <time>2021-10-10T08:45:41Z</time>
      </trkpt>
      <trkpt lat="45.07232" lon="5.57892">
        <ele>1175.2</ele>
        <time>2021-10-10T08:45:42Z</time>
      </trkpt>
      <trkpt lat="45.07233" lon="5.57893">
        <ele>1175.2</ele>
        <time>2021-10-10T08:45:43Z</time>
      </trkpt>
      <trkpt lat="45.07235" lon="5.57893">
        <ele>1175.2</ele>
        <time>2021-10-10T08:45:44Z</time>
      </trkpt>
      <trkpt lat="45.07236" lon="5.57894">
        <ele>1175.4</ele>
        <time>2021-10-10T08:45:45Z</time>
      </trkpt>
      <trkpt lat="45.07237" lon="5.57894">
        <ele>1175.4</ele>
        <time>2021-10-10T08:45:46Z</time>
      </trkpt>
      <trkpt lat="45.07239" lon="5.57895">
        <ele>1175.4</ele>
        <time>2021-10-10T08:45:47Z</time>
      </trkpt>
      <trkpt lat="45.0724" lon="5.57895">
        <ele>1175.4</ele>
        <time>2021-10-10T08:45:48Z</time>
      </trkpt>
      <trkpt lat="45.07242" lon="5.57896">
        <ele>1175.4</ele>
        <time>2021-10-10T08:45:49Z</time>
      </trkpt>
      <trkpt lat="45.07243" lon="5.57896">
        <ele>1175.4</ele>
        <time>2021-10-10T08:45:50Z</time>
      </trkpt>
      <trkpt lat="45.07245" lon="5.57896">
        <ele>1175.4</ele>
        <time>2021-10-10T08:45:51Z</time>
      </trkpt>
      <trkpt lat="45.07246" lon="5.57896">
        <ele>1175.4</ele>
        <time>2021-10-10T08:45:52Z</time>
      </trkpt>
      <trkpt lat="45.07247" lon="5.57896">
        <ele>1175.6</ele>
        <time>2021-10-10T08:45:53Z</time>
      </trkpt>
      <trkpt lat="45.07248" lon="5.57897">
        <ele>1175.4</ele>
        <time>2021-10-10T08:45:54Z</time>
      </trkpt>
      <trkpt lat="45.07249" lon="5.57898">
        <ele>1175.4</ele>
        <time>2021-10-10T08:45:55Z</time>
      </trkpt>
      <trkpt lat="45.07252" lon="5.57899">
        <ele>1174.8</ele>
        <time>2021-10-10T08:46:17Z</time>
      </trkpt>
      <trkpt lat="45.07254" lon="5.57899">
        <ele>1174.8</ele>
        <time>2021-10-10T08:46:18Z</time>
      </trkpt>
      <trkpt lat="45.07256" lon="5.57899">
        <ele>1174.8</ele>
        <time>2021-10-10T08:46:19Z</time>
      </trkpt>
      <trkpt lat="45.07258" lon="5.57899">
        <ele>1174.8</ele>
        <time>2021-10-10T08:46:20Z</time>
      </trkpt>
      <trkpt lat="45.0726" lon="5.57899">
        <ele>1173.8</ele>
        <time>2021-10-10T08:46:21Z</time>
      </trkpt>
      <trkpt lat="45.07263" lon="5.579">
        <ele>1173.8</ele>
        <time>2021-10-10T08:46:22Z</time>
      </trkpt>
      <trkpt lat="45.07266" lon="5.57901">
        <ele>1173.8</ele>
        <time>2021-10-10T08:46:23Z</time>
      </trkpt>
      <trkpt lat="45.0727" lon="5.57903">
        <ele>1173.8</ele>
        <time>2021-10-10T08:46:24Z</time>
      </trkpt>
      <trkpt lat="45.07273" lon="5.57905">
        <ele>1173</ele>
        <time>2021-10-10T08:46:25Z</time>
      </trkpt>
      <trkpt lat="45.07277" lon="5.57907">
        <ele>1172.6</ele>
        <time>2021-10-10T08:46:26Z</time>
      </trkpt>
      <trkpt lat="45.0728" lon="5.5791">
        <ele>1172.6</ele>
        <time>2021-10-10T08:46:27Z</time>
      </trkpt>
      <trkpt lat="45.07283" lon="5.57912">
        <ele>1172.6</ele>
        <time>2021-10-10T08:46:28Z</time>
      </trkpt>
      <trkpt lat="45.07286" lon="5.57915">
        <ele>1172.6</ele>
        <time>2021-10-10T08:46:29Z</time>
      </trkpt>
      <trkpt lat="45.07288" lon="5.57917">
        <ele>1171.8</ele>
        <time>2021-10-10T08:46:30Z</time>
      </trkpt>
      <trkpt lat="45.07291" lon="5.57919">
        <ele>1171.8</ele>
        <time>2021-10-10T08:46:31Z</time>
      </trkpt>
      <trkpt lat="45.07294" lon="5.57921">
        <ele>1171.8</ele>
        <time>2021-10-10T08:46:32Z</time>
      </trkpt>
      <trkpt lat="45.07296" lon="5.57923">
        <ele>1171.8</ele>
        <time>2021-10-10T08:46:33Z</time>
      </trkpt>
      <trkpt lat="45.07299" lon="5.57925">
        <ele>1171.6</ele>
        <time>2021-10-10T08:46:34Z</time>
      </trkpt>
      <trkpt lat="45.07301" lon="5.57927">
        <ele>1171.6</ele>
        <time>2021-10-10T08:46:35Z</time>
      </trkpt>
      <trkpt lat="45.07304" lon="5.57931">
        <ele>1171.6</ele>
        <time>2021-10-10T08:46:36Z</time>
      </trkpt>
      <trkpt lat="45.07305" lon="5.57935">
        <ele>1171.6</ele>
        <time>2021-10-10T08:46:37Z</time>
      </trkpt>
      <trkpt lat="45.07306" lon="5.57939">
        <ele>1172.6</ele>
        <time>2021-10-10T08:46:38Z</time>
      </trkpt>
      <trkpt lat="45.07307" lon="5.57943">
        <ele>1172.6</ele>
        <time>2021-10-10T08:46:39Z</time>
      </trkpt>
      <trkpt lat="45.07307" lon="5.57946">
        <ele>1172.6</ele>
        <time>2021-10-10T08:46:40Z</time>
      </trkpt>
      <trkpt lat="45.07306" lon="5.57949">
        <ele>1173.6</ele>
        <time>2021-10-10T08:46:41Z</time>
      </trkpt>
      <trkpt lat="45.07306" lon="5.5795">
        <ele>1173.8</ele>
        <time>2021-10-10T08:46:42Z</time>
      </trkpt>
      <trkpt lat="45.07305" lon="5.57951">
        <ele>1173.8</ele>
        <time>2021-10-10T08:46:43Z</time>
      </trkpt>
      <trkpt lat="45.07305" lon="5.57952">
        <ele>1173.8</ele>
        <time>2021-10-10T08:46:44Z</time>
      </trkpt>
      <trkpt lat="45.07305" lon="5.57953">
        <ele>1173.8</ele>
        <time>2021-10-10T08:46:45Z</time>
      </trkpt>
      <trkpt lat="45.07304" lon="5.57954">
        <ele>1174.2</ele>
        <time>2021-10-10T08:46:46Z</time>
      </trkpt>
      <trkpt lat="45.07305" lon="5.57955">
        <ele>1174.2</ele>
        <time>2021-10-10T08:46:47Z</time>
      </trkpt>
      <trkpt lat="45.07273" lon="5.58085">
        <ele>1188.8</ele>
        <time>2021-10-10T08:48:37Z</time>
      </trkpt>
      <trkpt lat="45.07274" lon="5.58086">
        <ele>1189</ele>
        <time>2021-10-10T08:48:38Z</time>
      </trkpt>
      <trkpt lat="45.07274" lon="5.58088">
        <ele>1189</ele>
        <time>2021-10-10T08:48:39Z</time>
      </trkpt>
      <trkpt lat="45.07275" lon="5.58089">
        <ele>1189</ele>
        <time>2021-10-10T08:48:40Z</time>
      </trkpt>
      <trkpt lat="45.07276" lon="5.5809">
        <ele>1189.6</ele>
        <time>2021-10-10T08:48:41Z</time>
      </trkpt>
      <trkpt lat="45.07277" lon="5.58091">
        <ele>1190</ele>
        <time>2021-10-10T08:48:42Z</time>
      </trkpt>
      <trkpt lat="45.07277" lon="5.58093">
        <ele>1190</ele>
        <time>2021-10-10T08:48:43Z</time>
      </trkpt>
      <trkpt lat="45.07278" lon="5.58095">
        <ele>1190</ele>
        <time>2021-10-10T08:48:44Z</time>
      </trkpt>
      <trkpt lat="45.07279" lon="5.58096">
        <ele>1190.4</ele>
        <time>2021-10-10T08:48:45Z</time>
      </trkpt>
      <trkpt lat="45.0728" lon="5.58098">
        <ele>1190.4</ele>
        <time>2021-10-10T08:48:46Z</time>
      </trkpt>
      <trkpt lat="45.0728" lon="5.581">
        <ele>1190.4</ele>
        <time>2021-10-10T08:48:47Z</time>
      </trkpt>
      <trkpt lat="45.07281" lon="5.58101">
        <ele>1190.4</ele>
        <time>2021-10-10T08:48:48Z</time>
      </trkpt>
      <trkpt lat="45.07282" lon="5.58102">
        <ele>1191.2</ele>
        <time>2021-10-10T08:48:49Z</time>
      </trkpt>
      <trkpt lat="45.07283" lon="5.58103">
        <ele>1191.4</ele>
        <time>2021-10-10T08:48:50Z</time>
      </trkpt>
      <trkpt lat="45.07284" lon="5.58105">
        <ele>1191.4</ele>
        <time>2021-10-10T08:48:51Z</time>
      </trkpt>
      <trkpt lat="45.07285" lon="5.58106">
        <ele>1191.4</ele>
        <time>2021-10-10T08:48:52Z</time>
      </trkpt>
      <trkpt lat="45.07286" lon="5.58107">
        <ele>1192</ele>
        <time>2021-10-10T08:48:53Z</time>
      </trkpt>
      <trkpt lat="45.07287" lon="5.58108">
        <ele>1192.2</ele>
        <time>2021-10-10T08:48:54Z</time>
      </trkpt>
      <trkpt lat="45.07288" lon="5.58109">
        <ele>1192.2</ele>
        <time>2021-10-10T08:48:55Z</time>
      </trkpt>
      <trkpt lat="45.07289" lon="5.5811">
        <ele>1192.2</ele>
        <time>2021-10-10T08:48:56Z</time>
      </trkpt>
      <trkpt lat="45.07289" lon="5.58111">
        <ele>1192.6</ele>
        <time>2021-10-10T08:48:57Z</time>
      </trkpt>
      <trkpt lat="45.0729" lon="5.58112">
        <ele>1193</ele>
        <time>2021-10-10T08:48:58Z</time>
      </trkpt>
      <trkpt lat="45.07291" lon="5.58113">
        <ele>1193</ele>
        <time>2021-10-10T08:48:59Z</time>
      </trkpt>
      <trkpt lat="45.07291" lon="5.58114">
        <ele>1193</ele>
        <time>2021-10-10T08:49:00Z</time>
      </trkpt>
      <trkpt lat="45.07292" lon="5.58115">
        <ele>1193.2</ele>
        <time>2021-10-10T08:49:01Z</time>
      </trkpt>
      <trkpt lat="45.07293" lon="5.58116">
        <ele>1193.6</ele>
        <time>2021-10-10T08:49:02Z</time>
      </trkpt>
      <trkpt lat="45.07293" lon="5.58117">
        <ele>1193.6</ele>
        <time>2021-10-10T08:49:03Z</time>
      </trkpt>
      <trkpt lat="45.07294" lon="5.58118">
        <ele>1193.6</ele>
        <time>2021-10-10T08:49:04Z</time>
      </trkpt>
      <trkpt lat="45.07295" lon="5.58119">
        <ele>1194.2</ele>
        <time>2021-10-10T08:49:05Z</time>
      </trkpt>
      <trkpt lat="45.07296" lon="5.5812">
        <ele>1194.2</ele>
        <time>2021-10-10T08:49:06Z</time>
      </trkpt>
      <trkpt lat="45.07296" lon="5.58121">
        <ele>1194.2</ele>
        <time>2021-10-10T08:49:07Z</time>
      </trkpt>
      <trkpt lat="45.07297" lon="5.58123">
        <ele>1194.2</ele>
        <time>2021-10-10T08:49:08Z</time>
      </trkpt>
      <trkpt lat="45.07297" lon="5.58124">
        <ele>1194.8</ele>
        <time>2021-10-10T08:49:09Z</time>
      </trkpt>
      <trkpt lat="45.07298" lon="5.58125">
        <ele>1194.8</ele>
        <time>2021-10-10T08:49:10Z</time>
      </trkpt>
      <trkpt lat="45.07299" lon="5.58126">
        <ele>1194.8</ele>
        <time>2021-10-10T08:49:11Z</time>
      </trkpt>
      <trkpt lat="45.073" lon="5.58127">
        <ele>1194.8</ele>
        <time>2021-10-10T08:49:12Z</time>
      </trkpt>
      <trkpt lat="45.073" lon="5.58128">
        <ele>1195.2</ele>
        <time>2021-10-10T08:49:13Z</time>
      </trkpt>
      <trkpt lat="45.07301" lon="5.5813">
        <ele>1195.6</ele>
        <time>2021-10-10T08:49:14Z</time>
      </trkpt>
      <trkpt lat="45.07302" lon="5.58131">
        <ele>1195.6</ele>
        <time>2021-10-10T08:49:15Z</time>
      </trkpt>
      <trkpt lat="45.07302" lon="5.58133">
        <ele>1195.6</ele>
        <time>2021-10-10T08:49:16Z</time>
      </trkpt>
      <trkpt lat="45.07303" lon="5.58134">
        <ele>1196</ele>
        <time>2021-10-10T08:49:17Z</time>
      </trkpt>
      <trkpt lat="45.07304" lon="5.58136">
        <ele>1196.2</ele>
        <time>2021-10-10T08:49:18Z</time>
      </trkpt>
      <trkpt lat="45.07305" lon="5.58137">
        <ele>1196.2</ele>
        <time>2021-10-10T08:49:19Z</time>
      </trkpt>
      <trkpt lat="45.07305" lon="5.58139">
        <ele>1196.2</ele>
        <time>2021-10-10T08:49:20Z</time>
      </trkpt>
      <trkpt lat="45.07306" lon="5.5814">
        <ele>1196.6</ele>
        <time>2021-10-10T08:49:21Z</time>
      </trkpt>
      <trkpt lat="45.07307" lon="5.58142">
        <ele>1196.6</ele>
        <time>2021-10-10T08:49:22Z</time>
      </trkpt>
      <trkpt lat="45.07307" lon="5.58143">
        <ele>1196.6</ele>
        <time>2021-10-10T08:49:23Z</time>
      </trkpt>
      <trkpt lat="45.07308" lon="5.58144">
        <ele>1196.6</ele>
        <time>2021-10-10T08:49:24Z</time>
      </trkpt>
      <trkpt lat="45.07309" lon="5.58146">
        <ele>1197.4</ele>
        <time>2021-10-10T08:49:25Z</time>
      </trkpt>
      <trkpt lat="45.0731" lon="5.58147">
        <ele>1197.8</ele>
        <time>2021-10-10T08:49:26Z</time>
      </trkpt>
      <trkpt lat="45.0731" lon="5.58148">
        <ele>1197.8</ele>
        <time>2021-10-10T08:49:27Z</time>
      </trkpt>
      <trkpt lat="45.07311" lon="5.58149">
        <ele>1197.8</ele>
        <time>2021-10-10T08:49:28Z</time>
      </trkpt>
      <trkpt lat="45.07312" lon="5.5815">
        <ele>1198.2</ele>
        <time>2021-10-10T08:49:29Z</time>
      </trkpt>
      <trkpt lat="45.07313" lon="5.58152">
        <ele>1198.6</ele>
        <time>2021-10-10T08:49:30Z</time>
      </trkpt>
      <trkpt lat="45.07314" lon="5.58153">
        <ele>1198.6</ele>
        <time>2021-10-10T08:49:31Z</time>
      </trkpt>
      <trkpt lat="45.07314" lon="5.58155">
        <ele>1198.6</ele>
        <time>2021-10-10T08:49:32Z</time>
      </trkpt>
      <trkpt lat="45.07315" lon="5.58156">
        <ele>1199.2</ele>
        <time>2021-10-10T08:49:33Z</time>
      </trkpt>
      <trkpt lat="45.07315" lon="5.58158">
        <ele>1199.4</ele>
        <time>2021-10-10T08:49:34Z</time>
      </trkpt>
      <trkpt lat="45.07316" lon="5.58159">
        <ele>1199.4</ele>
        <time>2021-10-10T08:49:35Z</time>
      </trkpt>
      <trkpt lat="45.07317" lon="5.5816">
        <ele>1199.4</ele>
        <time>2021-10-10T08:49:36Z</time>
      </trkpt>
      <trkpt lat="45.07317" lon="5.58162">
        <ele>1199.6</ele>
        <time>2021-10-10T08:49:37Z</time>
      </trkpt>
      <trkpt lat="45.07318" lon="5.58163">
        <ele>1200.2</ele>
        <time>2021-10-10T08:49:38Z</time>
      </trkpt>
      <trkpt lat="45.07318" lon="5.58165">
        <ele>1200.2</ele>
        <time>2021-10-10T08:49:39Z</time>
      </trkpt>
      <trkpt lat="45.07319" lon="5.58166">
        <ele>1200.2</ele>
        <time>2021-10-10T08:49:40Z</time>
      </trkpt>
      <trkpt lat="45.07319" lon="5.58168">
        <ele>1200.2</ele>
        <time>2021-10-10T08:49:41Z</time>
      </trkpt>
      <trkpt lat="45.0732" lon="5.5817">
        <ele>1200.6</ele>
        <time>2021-10-10T08:49:42Z</time>
      </trkpt>
      <trkpt lat="45.07321" lon="5.58171">
        <ele>1200.6</ele>
        <time>2021-10-10T08:49:43Z</time>
      </trkpt>
      <trkpt lat="45.07322" lon="5.58173">
        <ele>1200.6</ele>
        <time>2021-10-10T08:49:44Z</time>
      </trkpt>
      <trkpt lat="45.07322" lon="5.58175">
        <ele>1201.2</ele>
        <time>2021-10-10T08:49:45Z</time>
      </trkpt>
      <trkpt lat="45.07323" lon="5.58176">
        <ele>1201.8</ele>
        <time>2021-10-10T08:49:46Z</time>
      </trkpt>
      <trkpt lat="45.07324" lon="5.58178">
        <ele>1201.8</ele>
        <time>2021-10-10T08:49:47Z</time>
      </trkpt>
      <trkpt lat="45.07324" lon="5.5818">
        <ele>1201.8</ele>
        <time>2021-10-10T08:49:48Z</time>
      </trkpt>
      <trkpt lat="45.07325" lon="5.58181">
        <ele>1201.8</ele>
        <time>2021-10-10T08:49:49Z</time>
      </trkpt>
      <trkpt lat="45.07326" lon="5.58183">
        <ele>1202.2</ele>
        <time>2021-10-10T08:49:50Z</time>
      </trkpt>
      <trkpt lat="45.07326" lon="5.58184">
        <ele>1202.2</ele>
        <time>2021-10-10T08:49:51Z</time>
      </trkpt>
      <trkpt lat="45.07327" lon="5.58186">
        <ele>1202.2</ele>
        <time>2021-10-10T08:49:52Z</time>
      </trkpt>
      <trkpt lat="45.07328" lon="5.58187">
        <ele>1202.2</ele>
        <time>2021-10-10T08:49:53Z</time>
      </trkpt>
      <trkpt lat="45.07329" lon="5.58189">
        <ele>1202.6</ele>
        <time>2021-10-10T08:49:54Z</time>
      </trkpt>
      <trkpt lat="45.0733" lon="5.58191">
        <ele>1202.6</ele>
        <time>2021-10-10T08:49:55Z</time>
      </trkpt>
      <trkpt lat="45.0733" lon="5.58192">
        <ele>1202.6</ele>
        <time>2021-10-10T08:49:56Z</time>
      </trkpt>
      <trkpt lat="45.07331" lon="5.58194">
        <ele>1203.4</ele>
        <time>2021-10-10T08:49:57Z</time>
      </trkpt>
      <trkpt lat="45.07331" lon="5.58196">
        <ele>1203.6</ele>
        <time>2021-10-10T08:49:58Z</time>
      </trkpt>
      <trkpt lat="45.07332" lon="5.58198">
        <ele>1203.6</ele>
        <time>2021-10-10T08:49:59Z</time>
      </trkpt>
      <trkpt lat="45.07333" lon="5.58199">
        <ele>1203.6</ele>
        <time>2021-10-10T08:50:00Z</time>
      </trkpt>
      <trkpt lat="45.07333" lon="5.58201">
        <ele>1204.2</ele>
        <time>2021-10-10T08:50:01Z</time>
      </trkpt>
      <trkpt lat="45.07334" lon="5.58203">
        <ele>1204.2</ele>
        <time>2021-10-10T08:50:02Z</time>
      </trkpt>
      <trkpt lat="45.07335" lon="5.58204">
        <ele>1204.2</ele>
        <time>2021-10-10T08:50:03Z</time>
      </trkpt>
      <trkpt lat="45.07336" lon="5.58206">
        <ele>1204.2</ele>
        <time>2021-10-10T08:50:04Z</time>
      </trkpt>
      <trkpt lat="45.07336" lon="5.58208">
        <ele>1205.2</ele>
        <time>2021-10-10T08:50:05Z</time>
      </trkpt>
      <trkpt lat="45.07337" lon="5.58209">
        <ele>1205.4</ele>
        <time>2021-10-10T08:50:06Z</time>
      </trkpt>
      <trkpt lat="45.07338" lon="5.58211">
        <ele>1205.4</ele>
        <time>2021-10-10T08:50:07Z</time>
      </trkpt>
      <trkpt lat="45.07338" lon="5.58212">
        <ele>1205.4</ele>
        <time>2021-10-10T08:50:08Z</time>
      </trkpt>
      <trkpt lat="45.07339" lon="5.58214">
        <ele>1205.4</ele>
        <time>2021-10-10T08:50:09Z</time>
      </trkpt>
      <trkpt lat="45.0734" lon="5.58216">
        <ele>1206.2</ele>
        <time>2021-10-10T08:50:10Z</time>
      </trkpt>
      <trkpt lat="45.0734" lon="5.58217">
        <ele>1206.2</ele>
        <time>2021-10-10T08:50:11Z</time>
      </trkpt>
      <trkpt lat="45.07341" lon="5.58219">
        <ele>1206.2</ele>
        <time>2021-10-10T08:50:12Z</time>
      </trkpt>
      <trkpt lat="45.07342" lon="5.58221">
        <ele>1206.2</ele>
        <time>2021-10-10T08:50:13Z</time>
      </trkpt>
      <trkpt lat="45.07342" lon="5.58223">
        <ele>1207.4</ele>
        <time>2021-10-10T08:50:14Z</time>
      </trkpt>
      <trkpt lat="45.07343" lon="5.58224">
        <ele>1207.4</ele>
        <time>2021-10-10T08:50:15Z</time>
      </trkpt>
      <trkpt lat="45.07344" lon="5.58225">
        <ele>1207.4</ele>
        <time>2021-10-10T08:50:16Z</time>
      </trkpt>
      <trkpt lat="45.07344" lon="5.58227">
        <ele>1208.2</ele>
        <time>2021-10-10T08:50:17Z</time>
      </trkpt>
      <trkpt lat="45.07345" lon="5.58229">
        <ele>1208.6</ele>
        <time>2021-10-10T08:50:18Z</time>
      </trkpt>
      <trkpt lat="45.07346" lon="5.5823">
        <ele>1208.6</ele>
        <time>2021-10-10T08:50:19Z</time>
      </trkpt>
      <trkpt lat="45.07347" lon="5.58232">
        <ele>1208.6</ele>
        <time>2021-10-10T08:50:20Z</time>
      </trkpt>
      <trkpt lat="45.07347" lon="5.58233">
        <ele>1209.2</ele>
        <time>2021-10-10T08:50:21Z</time>
      </trkpt>
      <trkpt lat="45.07348" lon="5.58235">
        <ele>1209.4</ele>
        <time>2021-10-10T08:50:22Z</time>
      </trkpt>
      <trkpt lat="45.07349" lon="5.58236">
        <ele>1209.4</ele>
        <time>2021-10-10T08:50:23Z</time>
      </trkpt>
      <trkpt lat="45.0735" lon="5.58238">
        <ele>1209.4</ele>
        <time>2021-10-10T08:50:24Z</time>
      </trkpt>
      <trkpt lat="45.07351" lon="5.58239">
        <ele>1209.4</ele>
        <time>2021-10-10T08:50:25Z</time>
      </trkpt>
      <trkpt lat="45.07351" lon="5.58241">
        <ele>1210</ele>
        <time>2021-10-10T08:50:26Z</time>
      </trkpt>
      <trkpt lat="45.07352" lon="5.58243">
        <ele>1210</ele>
        <time>2021-10-10T08:50:27Z</time>
      </trkpt>
      <trkpt lat="45.07353" lon="5.58244">
        <ele>1210</ele>
        <time>2021-10-10T08:50:28Z</time>
      </trkpt>
      <trkpt lat="45.07354" lon="5.58245">
        <ele>1210</ele>
        <time>2021-10-10T08:50:29Z</time>
      </trkpt>
      <trkpt lat="45.07354" lon="5.58247">
        <ele>1210.4</ele>
        <time>2021-10-10T08:50:30Z</time>
      </trkpt>
      <trkpt lat="45.07355" lon="5.58248">
        <ele>1210.4</ele>
        <time>2021-10-10T08:50:31Z</time>
      </trkpt>
      <trkpt lat="45.07356" lon="5.5825">
        <ele>1210.4</ele>
        <time>2021-10-10T08:50:32Z</time>
      </trkpt>
      <trkpt lat="45.07357" lon="5.58251">
        <ele>1211</ele>
        <time>2021-10-10T08:50:33Z</time>
      </trkpt>
      <trkpt lat="45.07357" lon="5.58253">
        <ele>1211.2</ele>
        <time>2021-10-10T08:50:34Z</time>
      </trkpt>
      <trkpt lat="45.07358" lon="5.58254">
        <ele>1211.2</ele>
        <time>2021-10-10T08:50:35Z</time>
      </trkpt>
      <trkpt lat="45.07359" lon="5.58256">
        <ele>1211.2</ele>
        <time>2021-10-10T08:50:36Z</time>
      </trkpt>
      <trkpt lat="45.0736" lon="5.58257">
        <ele>1211.2</ele>
        <time>2021-10-10T08:50:37Z</time>
      </trkpt>
      <trkpt lat="45.0736" lon="5.58258">
        <ele>1212.2</ele>
        <time>2021-10-10T08:50:38Z</time>
      </trkpt>
      <trkpt lat="45.07361" lon="5.5826">
        <ele>1212.2</ele>
        <time>2021-10-10T08:50:39Z</time>
      </trkpt>
      <trkpt lat="45.07361" lon="5.58261">
        <ele>1212.2</ele>
        <time>2021-10-10T08:50:40Z</time>
      </trkpt>
      <trkpt lat="45.07362" lon="5.58263">
        <ele>1212.2</ele>
        <time>2021-10-10T08:50:41Z</time>
      </trkpt>
      <trkpt lat="45.07363" lon="5.58265">
        <ele>1213.2</ele>
        <time>2021-10-10T08:50:42Z</time>
      </trkpt>
      <trkpt lat="45.07363" lon="5.58266">
        <ele>1213.2</ele>
        <time>2021-10-10T08:50:43Z</time>
      </trkpt>
      <trkpt lat="45.07364" lon="5.58267">
        <ele>1213.2</ele>
        <time>2021-10-10T08:50:44Z</time>
      </trkpt>
      <trkpt lat="45.07364" lon="5.58269">
        <ele>1213.2</ele>
        <time>2021-10-10T08:50:45Z</time>
      </trkpt>
      <trkpt lat="45.07365" lon="5.5827">
        <ele>1213.6</ele>
        <time>2021-10-10T08:50:46Z</time>
      </trkpt>
      <trkpt lat="45.07365" lon="5.58272">
        <ele>1213.6</ele>
        <time>2021-10-10T08:50:47Z</time>
      </trkpt>
      <trkpt lat="45.07366" lon="5.58273">
        <ele>1213.6</ele>
        <time>2021-10-10T08:50:48Z</time>
      </trkpt>
      <trkpt lat="45.07367" lon="5.58274">
        <ele>1213.6</ele>
        <time>2021-10-10T08:50:49Z</time>
      </trkpt>
      <trkpt lat="45.07368" lon="5.58276">
        <ele>1214.4</ele>
        <time>2021-10-10T08:50:50Z</time>
      </trkpt>
      <trkpt lat="45.07368" lon="5.58277">
        <ele>1214.4</ele>
        <time>2021-10-10T08:50:51Z</time>
      </trkpt>
      <trkpt lat="45.07369" lon="5.58278">
        <ele>1214.4</ele>
        <time>2021-10-10T08:50:52Z</time>
      </trkpt>
      <trkpt lat="45.0737" lon="5.5828">
        <ele>1214.4</ele>
        <time>2021-10-10T08:50:53Z</time>
      </trkpt>
      <trkpt lat="45.0737" lon="5.58281">
        <ele>1215</ele>
        <time>2021-10-10T08:50:54Z</time>
      </trkpt>
      <trkpt lat="45.07371" lon="5.58282">
        <ele>1215</ele>
        <time>2021-10-10T08:50:55Z</time>
      </trkpt>
      <trkpt lat="45.07372" lon="5.58284">
        <ele>1215</ele>
        <time>2021-10-10T08:50:56Z</time>
      </trkpt>
      <trkpt lat="45.07372" lon="5.58285">
        <ele>1215</ele>
        <time>2021-10-10T08:50:57Z</time>
      </trkpt>
      <trkpt lat="45.07372" lon="5.58286">
        <ele>1214.8</ele>
        <time>2021-10-10T08:50:58Z</time>
      </trkpt>
      <trkpt lat="45.07373" lon="5.58287">
        <ele>1214.8</ele>
        <time>2021-10-10T08:50:59Z</time>
      </trkpt>
      <trkpt lat="45.07373" lon="5.58288">
        <ele>1214.8</ele>
        <time>2021-10-10T08:51:00Z</time>
      </trkpt>
      <trkpt lat="45.07374" lon="5.58288">
        <ele>1215.6</ele>
        <time>2021-10-10T08:51:01Z</time>
      </trkpt>
      <trkpt lat="45.07375" lon="5.58289">
        <ele>1215.6</ele>
        <time>2021-10-10T08:51:02Z</time>
      </trkpt>
      <trkpt lat="45.07376" lon="5.5829">
        <ele>1215.6</ele>
        <time>2021-10-10T08:51:03Z</time>
      </trkpt>
      <trkpt lat="45.07376" lon="5.58291">
        <ele>1215.6</ele>
        <time>2021-10-10T08:51:04Z</time>
      </trkpt>
      <trkpt lat="45.07377" lon="5.58291">
        <ele>1215.8</ele>
        <time>2021-10-10T08:51:05Z</time>
      </trkpt>
      <trkpt lat="45.07378" lon="5.58291">
        <ele>1216</ele>
        <time>2021-10-10T08:51:06Z</time>
      </trkpt>
      <trkpt lat="45.07379" lon="5.58292">
        <ele>1216</ele>
        <time>2021-10-10T08:51:07Z</time>
      </trkpt>
      <trkpt lat="45.0738" lon="5.58292">
        <ele>1216</ele>
        <time>2021-10-10T08:51:08Z</time>
      </trkpt>
      <trkpt lat="45.07381" lon="5.58293">
        <ele>1216</ele>
        <time>2021-10-10T08:51:09Z</time>
      </trkpt>
      <trkpt lat="45.07382" lon="5.58294">
        <ele>1216</ele>
        <time>2021-10-10T08:51:10Z</time>
      </trkpt>
      <trkpt lat="45.07383" lon="5.58295">
        <ele>1216</ele>
        <time>2021-10-10T08:51:11Z</time>
      </trkpt>
      <trkpt lat="45.07383" lon="5.58297">
        <ele>1216</ele>
        <time>2021-10-10T08:51:12Z</time>
      </trkpt>
      <trkpt lat="45.07384" lon="5.58298">
        <ele>1215.8</ele>
        <time>2021-10-10T08:51:13Z</time>
      </trkpt>
      <trkpt lat="45.07385" lon="5.583">
        <ele>1215.4</ele>
        <time>2021-10-10T08:51:14Z</time>
      </trkpt>
      <trkpt lat="45.07386" lon="5.58302">
        <ele>1215.4</ele>
        <time>2021-10-10T08:51:15Z</time>
      </trkpt>
      <trkpt lat="45.07387" lon="5.58304">
        <ele>1215.4</ele>
        <time>2021-10-10T08:51:16Z</time>
      </trkpt>
      <trkpt lat="45.07388" lon="5.58305">
        <ele>1215.8</ele>
        <time>2021-10-10T08:51:17Z</time>
      </trkpt>
      <trkpt lat="45.07389" lon="5.58306">
        <ele>1215.6</ele>
        <time>2021-10-10T08:51:18Z</time>
      </trkpt>
      <trkpt lat="45.0739" lon="5.58307">
        <ele>1215.6</ele>
        <time>2021-10-10T08:51:19Z</time>
      </trkpt>
      <trkpt lat="45.07392" lon="5.58308">
        <ele>1215.6</ele>
        <time>2021-10-10T08:51:20Z</time>
      </trkpt>
      <trkpt lat="45.07393" lon="5.5831">
        <ele>1215.6</ele>
        <time>2021-10-10T08:51:21Z</time>
      </trkpt>
      <trkpt lat="45.07394" lon="5.58311">
        <ele>1215</ele>
        <time>2021-10-10T08:51:22Z</time>
      </trkpt>
      <trkpt lat="45.07396" lon="5.58314">
        <ele>1215</ele>
        <time>2021-10-10T08:51:23Z</time>
      </trkpt>
      <trkpt lat="45.07398" lon="5.58316">
        <ele>1215</ele>
        <time>2021-10-10T08:51:24Z</time>
      </trkpt>
      <trkpt lat="45.074" lon="5.58319">
        <ele>1215</ele>
        <time>2021-10-10T08:51:25Z</time>
      </trkpt>
      <trkpt lat="45.07402" lon="5.58322">
        <ele>1214</ele>
        <time>2021-10-10T08:51:26Z</time>
      </trkpt>
      <trkpt lat="45.07405" lon="5.58325">
        <ele>1214</ele>
        <time>2021-10-10T08:51:27Z</time>
      </trkpt>
      <trkpt lat="45.07408" lon="5.58328">
        <ele>1214</ele>
        <time>2021-10-10T08:51:28Z</time>
      </trkpt>
      <trkpt lat="45.07412" lon="5.58332">
        <ele>1213</ele>
        <time>2021-10-10T08:51:29Z</time>
      </trkpt>
      <trkpt lat="45.07416" lon="5.58335">
        <ele>1212.4</ele>
        <time>2021-10-10T08:51:30Z</time>
      </trkpt>
      <trkpt lat="45.0742" lon="5.58339">
        <ele>1212.4</ele>
        <time>2021-10-10T08:51:31Z</time>
      </trkpt>
      <trkpt lat="45.07424" lon="5.58342">
        <ele>1212.4</ele>
        <time>2021-10-10T08:51:32Z</time>
      </trkpt>
      <trkpt lat="45.07428" lon="5.58346">
        <ele>1211.4</ele>
        <time>2021-10-10T08:51:33Z</time>
      </trkpt>
      <trkpt lat="45.07432" lon="5.58351">
        <ele>1211.6</ele>
        <time>2021-10-10T08:51:34Z</time>
      </trkpt>
      <trkpt lat="45.07436" lon="5.58355">
        <ele>1211.6</ele>
        <time>2021-10-10T08:51:35Z</time>
      </trkpt>
      <trkpt lat="45.07439" lon="5.5836">
        <ele>1211.6</ele>
        <time>2021-10-10T08:51:36Z</time>
      </trkpt>
      <trkpt lat="45.07443" lon="5.58364">
        <ele>1211.6</ele>
        <time>2021-10-10T08:51:37Z</time>
      </trkpt>
      <trkpt lat="45.07446" lon="5.58369">
        <ele>1212.2</ele>
        <time>2021-10-10T08:51:38Z</time>
      </trkpt>
      <trkpt lat="45.0745" lon="5.58375">
        <ele>1212.2</ele>
        <time>2021-10-10T08:51:39Z</time>
      </trkpt>
      <trkpt lat="45.07454" lon="5.58381">
        <ele>1212.2</ele>
        <time>2021-10-10T08:51:40Z</time>
      </trkpt>
      <trkpt lat="45.07458" lon="5.58386">
        <ele>1212.2</ele>
        <time>2021-10-10T08:51:41Z</time>
      </trkpt>
      <trkpt lat="45.07462" lon="5.58393">
        <ele>1211.6</ele>
        <time>2021-10-10T08:51:42Z</time>
      </trkpt>
      <trkpt lat="45.07466" lon="5.58399">
        <ele>1211.6</ele>
        <time>2021-10-10T08:51:43Z</time>
      </trkpt>
      <trkpt lat="45.07469" lon="5.58406">
        <ele>1211.6</ele>
        <time>2021-10-10T08:51:44Z</time>
      </trkpt>
      <trkpt lat="45.07473" lon="5.58413">
        <ele>1212.6</ele>
        <time>2021-10-10T08:51:45Z</time>
      </trkpt>
      <trkpt lat="45.07477" lon="5.58419">
        <ele>1214</ele>
        <time>2021-10-10T08:51:46Z</time>
      </trkpt>
      <trkpt lat="45.0748" lon="5.58424">
        <ele>1214</ele>
        <time>2021-10-10T08:51:47Z</time>
      </trkpt>
      <trkpt lat="45.07483" lon="5.58429">
        <ele>1214</ele>
        <time>2021-10-10T08:51:48Z</time>
      </trkpt>
      <trkpt lat="45.07486" lon="5.58434">
        <ele>1214.4</ele>
        <time>2021-10-10T08:51:49Z</time>
      </trkpt>
      <trkpt lat="45.07488" lon="5.58438">
        <ele>1215.4</ele>
        <time>2021-10-10T08:51:50Z</time>
      </trkpt>
      <trkpt lat="45.07491" lon="5.58442">
        <ele>1215.4</ele>
        <time>2021-10-10T08:51:51Z</time>
      </trkpt>
      <trkpt lat="45.07493" lon="5.58446">
        <ele>1215.4</ele>
        <time>2021-10-10T08:51:52Z</time>
      </trkpt>
      <trkpt lat="45.07495" lon="5.58449">
        <ele>1216.2</ele>
        <time>2021-10-10T08:51:53Z</time>
      </trkpt>
      <trkpt lat="45.07498" lon="5.58452">
        <ele>1216.8</ele>
        <time>2021-10-10T08:51:54Z</time>
      </trkpt>
      <trkpt lat="45.075" lon="5.58455">
        <ele>1216.8</ele>
        <time>2021-10-10T08:51:55Z</time>
      </trkpt>
      <trkpt lat="45.07502" lon="5.58458">
        <ele>1216.8</ele>
        <time>2021-10-10T08:51:56Z</time>
      </trkpt>
      <trkpt lat="45.07504" lon="5.58462">
        <ele>1217.8</ele>
        <time>2021-10-10T08:51:57Z</time>
      </trkpt>
      <trkpt lat="45.07505" lon="5.58464">
        <ele>1218.4</ele>
        <time>2021-10-10T08:51:58Z</time>
      </trkpt>
      <trkpt lat="45.07507" lon="5.58467">
        <ele>1218.4</ele>
        <time>2021-10-10T08:51:59Z</time>
      </trkpt>
      <trkpt lat="45.07508" lon="5.58469">
        <ele>1218.4</ele>
        <time>2021-10-10T08:52:00Z</time>
      </trkpt>
      <trkpt lat="45.07509" lon="5.58471">
        <ele>1219.2</ele>
        <time>2021-10-10T08:52:01Z</time>
      </trkpt>
      <trkpt lat="45.07508" lon="5.58471">
        <ele>1219.6</ele>
        <time>2021-10-10T08:52:02Z</time>
      </trkpt>
      <trkpt lat="45.07509" lon="5.58473">
        <ele>1219.6</ele>
        <time>2021-10-10T08:52:03Z</time>
      </trkpt>
      <trkpt lat="45.07509" lon="5.58474">
        <ele>1219.6</ele>
        <time>2021-10-10T08:52:04Z</time>
      </trkpt>
      <trkpt lat="45.07511" lon="5.58476">
        <ele>1220.2</ele>
        <time>2021-10-10T08:52:05Z</time>
      </trkpt>
      <trkpt lat="45.07512" lon="5.58478">
        <ele>1220.4</ele>
        <time>2021-10-10T08:52:06Z</time>
      </trkpt>
      <trkpt lat="45.07513" lon="5.58479">
        <ele>1220.4</ele>
        <time>2021-10-10T08:52:07Z</time>
      </trkpt>
      <trkpt lat="45.07516" lon="5.58482">
        <ele>1220.4</ele>
        <time>2021-10-10T08:52:08Z</time>
      </trkpt>
      <trkpt lat="45.07519" lon="5.58484">
        <ele>1220.4</ele>
        <time>2021-10-10T08:52:09Z</time>
      </trkpt>
      <trkpt lat="45.07521" lon="5.58486">
        <ele>1220.4</ele>
        <time>2021-10-10T08:52:10Z</time>
      </trkpt>
      <trkpt lat="45.07524" lon="5.58488">
        <ele>1220.4</ele>
        <time>2021-10-10T08:52:11Z</time>
      </trkpt>
      <trkpt lat="45.07527" lon="5.5849">
        <ele>1220.4</ele>
        <time>2021-10-10T08:52:12Z</time>
      </trkpt>
      <trkpt lat="45.07529" lon="5.58492">
        <ele>1220.4</ele>
        <time>2021-10-10T08:52:13Z</time>
      </trkpt>
      <trkpt lat="45.07532" lon="5.58493">
        <ele>1220.8</ele>
        <time>2021-10-10T08:52:14Z</time>
      </trkpt>
      <trkpt lat="45.07534" lon="5.58496">
        <ele>1220.8</ele>
        <time>2021-10-10T08:52:15Z</time>
      </trkpt>
      <trkpt lat="45.07536" lon="5.58498">
        <ele>1220.8</ele>
        <time>2021-10-10T08:52:16Z</time>
      </trkpt>
      <trkpt lat="45.07539" lon="5.585">
        <ele>1220.8</ele>
        <time>2021-10-10T08:52:17Z</time>
      </trkpt>
      <trkpt lat="45.07541" lon="5.58502">
        <ele>1221.8</ele>
        <time>2021-10-10T08:52:18Z</time>
      </trkpt>
      <trkpt lat="45.07545" lon="5.58505">
        <ele>1221.8</ele>
        <time>2021-10-10T08:52:19Z</time>
      </trkpt>
      <trkpt lat="45.07548" lon="5.58507">
        <ele>1221.8</ele>
        <time>2021-10-10T08:52:20Z</time>
      </trkpt>
      <trkpt lat="45.07551" lon="5.5851">
        <ele>1221.8</ele>
        <time>2021-10-10T08:52:21Z</time>
      </trkpt>
      <trkpt lat="45.07553" lon="5.58512">
        <ele>1221.4</ele>
        <time>2021-10-10T08:52:22Z</time>
      </trkpt>
      <trkpt lat="45.07556" lon="5.58515">
        <ele>1221.4</ele>
        <time>2021-10-10T08:52:23Z</time>
      </trkpt>
      <trkpt lat="45.07558" lon="5.58518">
        <ele>1221.4</ele>
        <time>2021-10-10T08:52:24Z</time>
      </trkpt>
      <trkpt lat="45.0756" lon="5.58521">
        <ele>1221.4</ele>
        <time>2021-10-10T08:52:25Z</time>
      </trkpt>
      <trkpt lat="45.07563" lon="5.58524">
        <ele>1221.6</ele>
        <time>2021-10-10T08:52:26Z</time>
      </trkpt>
      <trkpt lat="45.07565" lon="5.58527">
        <ele>1221.6</ele>
        <time>2021-10-10T08:52:27Z</time>
      </trkpt>
      <trkpt lat="45.07567" lon="5.5853">
        <ele>1221.6</ele>
        <time>2021-10-10T08:52:28Z</time>
      </trkpt>
      <trkpt lat="45.07569" lon="5.58533">
        <ele>1222.4</ele>
        <time>2021-10-10T08:52:29Z</time>
      </trkpt>
      <trkpt lat="45.07571" lon="5.58535">
        <ele>1223.2</ele>
        <time>2021-10-10T08:52:30Z</time>
      </trkpt>
      <trkpt lat="45.07573" lon="5.58537">
        <ele>1223.2</ele>
        <time>2021-10-10T08:52:31Z</time>
      </trkpt>
      <trkpt lat="45.07575" lon="5.5854">
        <ele>1223.2</ele>
        <time>2021-10-10T08:52:32Z</time>
      </trkpt>
      <trkpt lat="45.07577" lon="5.58542">
        <ele>1223.2</ele>
        <time>2021-10-10T08:52:33Z</time>
      </trkpt>
      <trkpt lat="45.07579" lon="5.58544">
        <ele>1223.2</ele>
        <time>2021-10-10T08:52:34Z</time>
      </trkpt>
      <trkpt lat="45.07582" lon="5.58547">
        <ele>1223.2</ele>
        <time>2021-10-10T08:52:35Z</time>
      </trkpt>
      <trkpt lat="45.07583" lon="5.58549">
        <ele>1223.2</ele>
        <time>2021-10-10T08:52:36Z</time>
      </trkpt>
      <trkpt lat="45.07584" lon="5.58551">
        <ele>1224.2</ele>
        <time>2021-10-10T08:52:37Z</time>
      </trkpt>
      <trkpt lat="45.07586" lon="5.58553">
        <ele>1224.4</ele>
        <time>2021-10-10T08:52:38Z</time>
      </trkpt>
      <trkpt lat="45.07587" lon="5.58555">
        <ele>1224.4</ele>
        <time>2021-10-10T08:52:39Z</time>
      </trkpt>
      <trkpt lat="45.07588" lon="5.58556">
        <ele>1224.4</ele>
        <time>2021-10-10T08:52:40Z</time>
      </trkpt>
      <trkpt lat="45.07589" lon="5.58558">
        <ele>1224.8</ele>
        <time>2021-10-10T08:52:41Z</time>
      </trkpt>
      <trkpt lat="45.0759" lon="5.5856">
        <ele>1225.2</ele>
        <time>2021-10-10T08:52:42Z</time>
      </trkpt>
      <trkpt lat="45.07591" lon="5.58561">
        <ele>1225.2</ele>
        <time>2021-10-10T08:52:43Z</time>
      </trkpt>
      <trkpt lat="45.07592" lon="5.58563">
        <ele>1225.2</ele>
        <time>2021-10-10T08:52:44Z</time>
      </trkpt>
      <trkpt lat="45.07593" lon="5.58564">
        <ele>1225.8</ele>
        <time>2021-10-10T08:52:45Z</time>
      </trkpt>
      <trkpt lat="45.07594" lon="5.58566">
        <ele>1225.8</ele>
        <time>2021-10-10T08:52:46Z</time>
      </trkpt>
      <trkpt lat="45.07595" lon="5.58567">
        <ele>1225.8</ele>
        <time>2021-10-10T08:52:47Z</time>
      </trkpt>
      <trkpt lat="45.07595" lon="5.58569">
        <ele>1225.8</ele>
        <time>2021-10-10T08:52:48Z</time>
      </trkpt>
      <trkpt lat="45.07596" lon="5.5857">
        <ele>1226.8</ele>
        <time>2021-10-10T08:52:49Z</time>
      </trkpt>
      <trkpt lat="45.07596" lon="5.58572">
        <ele>1227</ele>
        <time>2021-10-10T08:52:50Z</time>
      </trkpt>
      <trkpt lat="45.07597" lon="5.58573">
        <ele>1227</ele>
        <time>2021-10-10T08:52:51Z</time>
      </trkpt>
      <trkpt lat="45.07598" lon="5.58575">
        <ele>1227</ele>
        <time>2021-10-10T08:52:52Z</time>
      </trkpt>
      <trkpt lat="45.07598" lon="5.58576">
        <ele>1227.2</ele>
        <time>2021-10-10T08:52:53Z</time>
      </trkpt>
      <trkpt lat="45.07599" lon="5.58578">
        <ele>1227.8</ele>
        <time>2021-10-10T08:52:54Z</time>
      </trkpt>
      <trkpt lat="45.07599" lon="5.58579">
        <ele>1227.8</ele>
        <time>2021-10-10T08:52:55Z</time>
      </trkpt>
      <trkpt lat="45.076" lon="5.58581">
        <ele>1227.8</ele>
        <time>2021-10-10T08:52:56Z</time>
      </trkpt>
      <trkpt lat="45.07601" lon="5.58583">
        <ele>1228.2</ele>
        <time>2021-10-10T08:52:57Z</time>
      </trkpt>
      <trkpt lat="45.07601" lon="5.58584">
        <ele>1228.2</ele>
        <time>2021-10-10T08:52:58Z</time>
      </trkpt>
      <trkpt lat="45.07602" lon="5.58586">
        <ele>1228.2</ele>
        <time>2021-10-10T08:52:59Z</time>
      </trkpt>
      <trkpt lat="45.07603" lon="5.58587">
        <ele>1228.2</ele>
        <time>2021-10-10T08:53:00Z</time>
      </trkpt>
      <trkpt lat="45.07603" lon="5.58588">
        <ele>1229.2</ele>
        <time>2021-10-10T08:53:01Z</time>
      </trkpt>
      <trkpt lat="45.07603" lon="5.5859">
        <ele>1229.2</ele>
        <time>2021-10-10T08:53:02Z</time>
      </trkpt>
      <trkpt lat="45.07603" lon="5.58591">
        <ele>1229.2</ele>
        <time>2021-10-10T08:53:03Z</time>
      </trkpt>
      <trkpt lat="45.07604" lon="5.58592">
        <ele>1229.2</ele>
        <time>2021-10-10T08:53:04Z</time>
      </trkpt>
      <trkpt lat="45.07605" lon="5.58594">
        <ele>1230</ele>
        <time>2021-10-10T08:53:05Z</time>
      </trkpt>
      <trkpt lat="45.07606" lon="5.58595">
        <ele>1230.2</ele>
        <time>2021-10-10T08:53:06Z</time>
      </trkpt>
      <trkpt lat="45.07607" lon="5.58597">
        <ele>1230.2</ele>
        <time>2021-10-10T08:53:07Z</time>
      </trkpt>
      <trkpt lat="45.07607" lon="5.58598">
        <ele>1230.2</ele>
        <time>2021-10-10T08:53:08Z</time>
      </trkpt>
      <trkpt lat="45.07608" lon="5.58599">
        <ele>1230.4</ele>
        <time>2021-10-10T08:53:09Z</time>
      </trkpt>
      <trkpt lat="45.07609" lon="5.58601">
        <ele>1231.2</ele>
        <time>2021-10-10T08:53:10Z</time>
      </trkpt>
      <trkpt lat="45.07609" lon="5.58602">
        <ele>1231.2</ele>
        <time>2021-10-10T08:53:11Z</time>
      </trkpt>
      <trkpt lat="45.0761" lon="5.58603">
        <ele>1231.2</ele>
        <time>2021-10-10T08:53:12Z</time>
      </trkpt>
      <trkpt lat="45.07611" lon="5.58605">
        <ele>1231.2</ele>
        <time>2021-10-10T08:53:13Z</time>
      </trkpt>
      <trkpt lat="45.07611" lon="5.58606">
        <ele>1232</ele>
        <time>2021-10-10T08:53:14Z</time>
      </trkpt>
      <trkpt lat="45.07612" lon="5.58608">
        <ele>1232</ele>
        <time>2021-10-10T08:53:15Z</time>
      </trkpt>
      <trkpt lat="45.07612" lon="5.58609">
        <ele>1232</ele>
        <time>2021-10-10T08:53:16Z</time>
      </trkpt>
      <trkpt lat="45.07612" lon="5.5861">
        <ele>1232</ele>
        <time>2021-10-10T08:53:17Z</time>
      </trkpt>
      <trkpt lat="45.07613" lon="5.58612">
        <ele>1232.4</ele>
        <time>2021-10-10T08:53:18Z</time>
      </trkpt>
      <trkpt lat="45.07613" lon="5.58613">
        <ele>1232.4</ele>
        <time>2021-10-10T08:53:19Z</time>
      </trkpt>
      <trkpt lat="45.07613" lon="5.58615">
        <ele>1232.4</ele>
        <time>2021-10-10T08:53:20Z</time>
      </trkpt>
      <trkpt lat="45.07614" lon="5.58616">
        <ele>1233.4</ele>
        <time>2021-10-10T08:53:21Z</time>
      </trkpt>
      <trkpt lat="45.07615" lon="5.58617">
        <ele>1233.4</ele>
        <time>2021-10-10T08:53:22Z</time>
      </trkpt>
      <trkpt lat="45.07615" lon="5.58619">
        <ele>1233.4</ele>
        <time>2021-10-10T08:53:23Z</time>
      </trkpt>
      <trkpt lat="45.07616" lon="5.5862">
        <ele>1233.4</ele>
        <time>2021-10-10T08:53:24Z</time>
      </trkpt>
      <trkpt lat="45.07617" lon="5.58621">
        <ele>1233.6</ele>
        <time>2021-10-10T08:53:25Z</time>
      </trkpt>
      <trkpt lat="45.07617" lon="5.58622">
        <ele>1234</ele>
        <time>2021-10-10T08:53:26Z</time>
      </trkpt>
      <trkpt lat="45.07617" lon="5.58624">
        <ele>1234</ele>
        <time>2021-10-10T08:53:27Z</time>
      </trkpt>
      <trkpt lat="45.07617" lon="5.58625">
        <ele>1234</ele>
        <time>2021-10-10T08:53:28Z</time>
      </trkpt>
      <trkpt lat="45.07618" lon="5.58627">
        <ele>1234</ele>
        <time>2021-10-10T08:53:29Z</time>
      </trkpt>
      <trkpt lat="45.07618" lon="5.58628">
        <ele>1234.4</ele>
        <time>2021-10-10T08:53:30Z</time>
      </trkpt>
      <trkpt lat="45.07619" lon="5.5863">
        <ele>1234.4</ele>
        <time>2021-10-10T08:53:31Z</time>
      </trkpt>
      <trkpt lat="45.0762" lon="5.58631">
        <ele>1234.4</ele>
        <time>2021-10-10T08:53:32Z</time>
      </trkpt>
      <trkpt lat="45.0762" lon="5.58633">
        <ele>1235.4</ele>
        <time>2021-10-10T08:53:33Z</time>
      </trkpt>
      <trkpt lat="45.0762" lon="5.58634">
        <ele>1235.6</ele>
        <time>2021-10-10T08:53:34Z</time>
      </trkpt>
      <trkpt lat="45.0762" lon="5.58636">
        <ele>1235.6</ele>
        <time>2021-10-10T08:53:35Z</time>
      </trkpt>
      <trkpt lat="45.0762" lon="5.58637">
        <ele>1235.6</ele>
        <time>2021-10-10T08:53:36Z</time>
      </trkpt>
      <trkpt lat="45.0762" lon="5.58639">
        <ele>1235.6</ele>
        <time>2021-10-10T08:53:37Z</time>
      </trkpt>
      <trkpt lat="45.0762" lon="5.5864">
        <ele>1236.6</ele>
        <time>2021-10-10T08:53:38Z</time>
      </trkpt>
      <trkpt lat="45.0762" lon="5.58642">
        <ele>1236.6</ele>
        <time>2021-10-10T08:53:39Z</time>
      </trkpt>
      <trkpt lat="45.0762" lon="5.58644">
        <ele>1236.6</ele>
        <time>2021-10-10T08:53:40Z</time>
      </trkpt>
      <trkpt lat="45.07622" lon="5.58646">
        <ele>1236.6</ele>
        <time>2021-10-10T08:53:41Z</time>
      </trkpt>
      <trkpt lat="45.07622" lon="5.58648">
        <ele>1237</ele>
        <time>2021-10-10T08:53:42Z</time>
      </trkpt>
      <trkpt lat="45.07623" lon="5.5865">
        <ele>1237</ele>
        <time>2021-10-10T08:53:43Z</time>
      </trkpt>
      <trkpt lat="45.07624" lon="5.58651">
        <ele>1237</ele>
        <time>2021-10-10T08:53:44Z</time>
      </trkpt>
      <trkpt lat="45.07625" lon="5.58653">
        <ele>1237</ele>
        <time>2021-10-10T08:53:45Z</time>
      </trkpt>
      <trkpt lat="45.07626" lon="5.58655">
        <ele>1237.4</ele>
        <time>2021-10-10T08:53:46Z</time>
      </trkpt>
      <trkpt lat="45.07627" lon="5.58657">
        <ele>1237.4</ele>
        <time>2021-10-10T08:53:47Z</time>
      </trkpt>
      <trkpt lat="45.07627" lon="5.58659">
        <ele>1237.4</ele>
        <time>2021-10-10T08:53:48Z</time>
      </trkpt>
      <trkpt lat="45.07629" lon="5.58661">
        <ele>1238.2</ele>
        <time>2021-10-10T08:53:49Z</time>
      </trkpt>
      <trkpt lat="45.07629" lon="5.58662">
        <ele>1238.4</ele>
        <time>2021-10-10T08:53:50Z</time>
      </trkpt>
      <trkpt lat="45.0763" lon="5.58664">
        <ele>1238.4</ele>
        <time>2021-10-10T08:53:51Z</time>
      </trkpt>
      <trkpt lat="45.07631" lon="5.58666">
        <ele>1238.4</ele>
        <time>2021-10-10T08:53:52Z</time>
      </trkpt>
      <trkpt lat="45.07631" lon="5.58667">
        <ele>1238.4</ele>
        <time>2021-10-10T08:53:53Z</time>
      </trkpt>
      <trkpt lat="45.07632" lon="5.58669">
        <ele>1238.4</ele>
        <time>2021-10-10T08:53:54Z</time>
      </trkpt>
      <trkpt lat="45.07632" lon="5.5867">
        <ele>1238.4</ele>
        <time>2021-10-10T08:53:55Z</time>
      </trkpt>
      <trkpt lat="45.07633" lon="5.58672">
        <ele>1238.4</ele>
        <time>2021-10-10T08:53:56Z</time>
      </trkpt>
      <trkpt lat="45.07633" lon="5.58673">
        <ele>1239.4</ele>
        <time>2021-10-10T08:53:57Z</time>
      </trkpt>
      <trkpt lat="45.07634" lon="5.58675">
        <ele>1239.4</ele>
        <time>2021-10-10T08:53:58Z</time>
      </trkpt>
      <trkpt lat="45.07635" lon="5.58676">
        <ele>1239.4</ele>
        <time>2021-10-10T08:53:59Z</time>
      </trkpt>
      <trkpt lat="45.07636" lon="5.58678">
        <ele>1239.4</ele>
        <time>2021-10-10T08:54:00Z</time>
      </trkpt>
      <trkpt lat="45.07636" lon="5.5868">
        <ele>1239.6</ele>
        <time>2021-10-10T08:54:01Z</time>
      </trkpt>
      <trkpt lat="45.07637" lon="5.58682">
        <ele>1239.6</ele>
        <time>2021-10-10T08:54:02Z</time>
      </trkpt>
      <trkpt lat="45.07637" lon="5.58683">
        <ele>1239.6</ele>
        <time>2021-10-10T08:54:03Z</time>
      </trkpt>
      <trkpt lat="45.07637" lon="5.58685">
        <ele>1239.6</ele>
        <time>2021-10-10T08:54:04Z</time>
      </trkpt>
      <trkpt lat="45.07637" lon="5.58686">
        <ele>1239.6</ele>
        <time>2021-10-10T08:54:05Z</time>
      </trkpt>
      <trkpt lat="45.07638" lon="5.58688">
        <ele>1239.8</ele>
        <time>2021-10-10T08:54:06Z</time>
      </trkpt>
      <trkpt lat="45.07639" lon="5.5869">
        <ele>1239.8</ele>
        <time>2021-10-10T08:54:07Z</time>
      </trkpt>
      <trkpt lat="45.07639" lon="5.58692">
        <ele>1239.8</ele>
        <time>2021-10-10T08:54:08Z</time>
      </trkpt>
      <trkpt lat="45.07639" lon="5.58694">
        <ele>1239.8</ele>
        <time>2021-10-10T08:54:09Z</time>
      </trkpt>
      <trkpt lat="45.07639" lon="5.58696">
        <ele>1239.8</ele>
        <time>2021-10-10T08:54:10Z</time>
      </trkpt>
      <trkpt lat="45.07639" lon="5.58697">
        <ele>1239.8</ele>
        <time>2021-10-10T08:54:11Z</time>
      </trkpt>
      <trkpt lat="45.07639" lon="5.58698">
        <ele>1239.8</ele>
        <time>2021-10-10T08:54:12Z</time>
      </trkpt>
      <trkpt lat="45.07638" lon="5.58699">
        <ele>1240</ele>
        <time>2021-10-10T08:54:13Z</time>
      </trkpt>
      <trkpt lat="45.07639" lon="5.587">
        <ele>1240.4</ele>
        <time>2021-10-10T08:54:14Z</time>
      </trkpt>
      <trkpt lat="45.07639" lon="5.587">
        <ele>1240.4</ele>
        <time>2021-10-10T08:54:15Z</time>
      </trkpt>
      <trkpt lat="45.07639" lon="5.58701">
        <ele>1240.4</ele>
        <time>2021-10-10T08:54:16Z</time>
      </trkpt>
      <trkpt lat="45.0764" lon="5.58702">
        <ele>1240.4</ele>
        <time>2021-10-10T08:54:17Z</time>
      </trkpt>
      <trkpt lat="45.0764" lon="5.58703">
        <ele>1240.4</ele>
        <time>2021-10-10T08:54:18Z</time>
      </trkpt>
      <trkpt lat="45.0764" lon="5.58704">
        <ele>1240.4</ele>
        <time>2021-10-10T08:54:19Z</time>
      </trkpt>
      <trkpt lat="45.0764" lon="5.58706">
        <ele>1240.4</ele>
        <time>2021-10-10T08:54:20Z</time>
      </trkpt>
      <trkpt lat="45.07641" lon="5.58708">
        <ele>1240.4</ele>
        <time>2021-10-10T08:54:21Z</time>
      </trkpt>
      <trkpt lat="45.0764" lon="5.5871">
        <ele>1240.4</ele>
        <time>2021-10-10T08:54:22Z</time>
      </trkpt>
      <trkpt lat="45.07641" lon="5.58712">
        <ele>1240.4</ele>
        <time>2021-10-10T08:54:23Z</time>
      </trkpt>
      <trkpt lat="45.07641" lon="5.58714">
        <ele>1240.4</ele>
        <time>2021-10-10T08:54:24Z</time>
      </trkpt>
      <trkpt lat="45.07641" lon="5.58716">
        <ele>1240.8</ele>
        <time>2021-10-10T08:54:25Z</time>
      </trkpt>
      <trkpt lat="45.07641" lon="5.58719">
        <ele>1240.6</ele>
        <time>2021-10-10T08:54:26Z</time>
      </trkpt>
      <trkpt lat="45.07642" lon="5.58721">
        <ele>1240.6</ele>
        <time>2021-10-10T08:54:27Z</time>
      </trkpt>
      <trkpt lat="45.07642" lon="5.58723">
        <ele>1240.6</ele>
        <time>2021-10-10T08:54:28Z</time>
      </trkpt>
      <trkpt lat="45.07642" lon="5.58726">
        <ele>1240.6</ele>
        <time>2021-10-10T08:54:29Z</time>
      </trkpt>
      <trkpt lat="45.07643" lon="5.58729">
        <ele>1240.4</ele>
        <time>2021-10-10T08:54:30Z</time>
      </trkpt>
      <trkpt lat="45.07643" lon="5.58732">
        <ele>1240.4</ele>
        <time>2021-10-10T08:54:31Z</time>
      </trkpt>
      <trkpt lat="45.07643" lon="5.58735">
        <ele>1240.4</ele>
        <time>2021-10-10T08:54:32Z</time>
      </trkpt>
      <trkpt lat="45.07644" lon="5.58738">
        <ele>1240.4</ele>
        <time>2021-10-10T08:54:33Z</time>
      </trkpt>
      <trkpt lat="45.07644" lon="5.58741">
        <ele>1241</ele>
        <time>2021-10-10T08:54:34Z</time>
      </trkpt>
      <trkpt lat="45.07645" lon="5.58744">
        <ele>1241</ele>
        <time>2021-10-10T08:54:35Z</time>
      </trkpt>
      <trkpt lat="45.07645" lon="5.58747">
        <ele>1241</ele>
        <time>2021-10-10T08:54:36Z</time>
      </trkpt>
      <trkpt lat="45.07646" lon="5.58749">
        <ele>1241</ele>
        <time>2021-10-10T08:54:37Z</time>
      </trkpt>
      <trkpt lat="45.07647" lon="5.58752">
        <ele>1241.6</ele>
        <time>2021-10-10T08:54:38Z</time>
      </trkpt>
      <trkpt lat="45.07648" lon="5.58755">
        <ele>1241.6</ele>
        <time>2021-10-10T08:54:39Z</time>
      </trkpt>
      <trkpt lat="45.07649" lon="5.58757">
        <ele>1241.6</ele>
        <time>2021-10-10T08:54:40Z</time>
      </trkpt>
      <trkpt lat="45.0765" lon="5.5876">
        <ele>1241</ele>
        <time>2021-10-10T08:54:41Z</time>
      </trkpt>
      <trkpt lat="45.07651" lon="5.58762">
        <ele>1241.2</ele>
        <time>2021-10-10T08:54:42Z</time>
      </trkpt>
      <trkpt lat="45.07652" lon="5.58764">
        <ele>1241.2</ele>
        <time>2021-10-10T08:54:43Z</time>
      </trkpt>
      <trkpt lat="45.07654" lon="5.58767">
        <ele>1241.2</ele>
        <time>2021-10-10T08:54:44Z</time>
      </trkpt>
      <trkpt lat="45.07655" lon="5.58769">
        <ele>1241.2</ele>
        <time>2021-10-10T08:54:45Z</time>
      </trkpt>
      <trkpt lat="45.07656" lon="5.58772">
        <ele>1241</ele>
        <time>2021-10-10T08:54:46Z</time>
      </trkpt>
      <trkpt lat="45.07657" lon="5.58774">
        <ele>1241</ele>
        <time>2021-10-10T08:54:47Z</time>
      </trkpt>
      <trkpt lat="45.07658" lon="5.58776">
        <ele>1241</ele>
        <time>2021-10-10T08:54:48Z</time>
      </trkpt>
      <trkpt lat="45.0766" lon="5.58778">
        <ele>1241.4</ele>
        <time>2021-10-10T08:54:49Z</time>
      </trkpt>
      <trkpt lat="45.07661" lon="5.5878">
        <ele>1240.8</ele>
        <time>2021-10-10T08:54:50Z</time>
      </trkpt>
      <trkpt lat="45.07662" lon="5.58783">
        <ele>1240.8</ele>
        <time>2021-10-10T08:54:51Z</time>
      </trkpt>
      <trkpt lat="45.07664" lon="5.58785">
        <ele>1240.8</ele>
        <time>2021-10-10T08:54:52Z</time>
      </trkpt>
      <trkpt lat="45.07665" lon="5.58788">
        <ele>1241.8</ele>
        <time>2021-10-10T08:54:53Z</time>
      </trkpt>
      <trkpt lat="45.07667" lon="5.5879">
        <ele>1242</ele>
        <time>2021-10-10T08:54:54Z</time>
      </trkpt>
      <trkpt lat="45.07668" lon="5.58793">
        <ele>1242</ele>
        <time>2021-10-10T08:54:55Z</time>
      </trkpt>
      <trkpt lat="45.07669" lon="5.58795">
        <ele>1242</ele>
        <time>2021-10-10T08:54:56Z</time>
      </trkpt>
      <trkpt lat="45.0767" lon="5.58798">
        <ele>1242</ele>
        <time>2021-10-10T08:54:57Z</time>
      </trkpt>
      <trkpt lat="45.07671" lon="5.588">
        <ele>1242.4</ele>
        <time>2021-10-10T08:54:58Z</time>
      </trkpt>
      <trkpt lat="45.07671" lon="5.58803">
        <ele>1242.4</ele>
        <time>2021-10-10T08:54:59Z</time>
      </trkpt>
      <trkpt lat="45.07672" lon="5.58806">
        <ele>1242.4</ele>
        <time>2021-10-10T08:55:00Z</time>
      </trkpt>
      <trkpt lat="45.07672" lon="5.58808">
        <ele>1243.2</ele>
        <time>2021-10-10T08:55:01Z</time>
      </trkpt>
      <trkpt lat="45.07672" lon="5.58811">
        <ele>1243.4</ele>
        <time>2021-10-10T08:55:02Z</time>
      </trkpt>
      <trkpt lat="45.07673" lon="5.58813">
        <ele>1243.4</ele>
        <time>2021-10-10T08:55:03Z</time>
      </trkpt>
      <trkpt lat="45.07673" lon="5.58815">
        <ele>1243.4</ele>
        <time>2021-10-10T08:55:04Z</time>
      </trkpt>
      <trkpt lat="45.07673" lon="5.58817">
        <ele>1244.2</ele>
        <time>2021-10-10T08:55:05Z</time>
      </trkpt>
      <trkpt lat="45.07673" lon="5.58819">
        <ele>1244.2</ele>
        <time>2021-10-10T08:55:06Z</time>
      </trkpt>
      <trkpt lat="45.07673" lon="5.5882">
        <ele>1244.2</ele>
        <time>2021-10-10T08:55:07Z</time>
      </trkpt>
      <trkpt lat="45.07674" lon="5.58822">
        <ele>1244.2</ele>
        <time>2021-10-10T08:55:08Z</time>
      </trkpt>
      <trkpt lat="45.07674" lon="5.58824">
        <ele>1244.8</ele>
        <time>2021-10-10T08:55:09Z</time>
      </trkpt>
      <trkpt lat="45.07675" lon="5.58826">
        <ele>1245.2</ele>
        <time>2021-10-10T08:55:10Z</time>
      </trkpt>
      <trkpt lat="45.07676" lon="5.58828">
        <ele>1245.2</ele>
        <time>2021-10-10T08:55:11Z</time>
      </trkpt>
      <trkpt lat="45.07677" lon="5.5883">
        <ele>1245.2</ele>
        <time>2021-10-10T08:55:12Z</time>
      </trkpt>
      <trkpt lat="45.07677" lon="5.58832">
        <ele>1245.6</ele>
        <time>2021-10-10T08:55:13Z</time>
      </trkpt>
      <trkpt lat="45.07678" lon="5.58834">
        <ele>1245.8</ele>
        <time>2021-10-10T08:55:14Z</time>
      </trkpt>
      <trkpt lat="45.07679" lon="5.58836">
        <ele>1245.8</ele>
        <time>2021-10-10T08:55:15Z</time>
      </trkpt>
      <trkpt lat="45.07679" lon="5.58838">
        <ele>1245.8</ele>
        <time>2021-10-10T08:55:16Z</time>
      </trkpt>
      <trkpt lat="45.0768" lon="5.58839">
        <ele>1246.6</ele>
        <time>2021-10-10T08:55:17Z</time>
      </trkpt>
      <trkpt lat="45.07681" lon="5.5884">
        <ele>1246.6</ele>
        <time>2021-10-10T08:55:18Z</time>
      </trkpt>
      <trkpt lat="45.07682" lon="5.58842">
        <ele>1246.6</ele>
        <time>2021-10-10T08:55:19Z</time>
      </trkpt>
      <trkpt lat="45.07682" lon="5.58842">
        <ele>1246.6</ele>
        <time>2021-10-10T08:55:20Z</time>
      </trkpt>
      <trkpt lat="45.07683" lon="5.58844">
        <ele>1247.2</ele>
        <time>2021-10-10T08:55:21Z</time>
      </trkpt>
      <trkpt lat="45.07683" lon="5.58846">
        <ele>1247.2</ele>
        <time>2021-10-10T08:55:22Z</time>
      </trkpt>
      <trkpt lat="45.07683" lon="5.58848">
        <ele>1247.2</ele>
        <time>2021-10-10T08:55:23Z</time>
      </trkpt>
      <trkpt lat="45.07683" lon="5.5885">
        <ele>1247.2</ele>
        <time>2021-10-10T08:55:24Z</time>
      </trkpt>
      <trkpt lat="45.07683" lon="5.58851">
        <ele>1247.6</ele>
        <time>2021-10-10T08:55:25Z</time>
      </trkpt>
      <trkpt lat="45.07683" lon="5.58852">
        <ele>1247.6</ele>
        <time>2021-10-10T08:55:26Z</time>
      </trkpt>
      <trkpt lat="45.07683" lon="5.58853">
        <ele>1247.6</ele>
        <time>2021-10-10T08:55:27Z</time>
      </trkpt>
      <trkpt lat="45.07683" lon="5.58853">
        <ele>1247.6</ele>
        <time>2021-10-10T08:55:28Z</time>
      </trkpt>
      <trkpt lat="45.07683" lon="5.58855">
        <ele>1248</ele>
        <time>2021-10-10T08:55:29Z</time>
      </trkpt>
      <trkpt lat="45.07683" lon="5.58856">
        <ele>1248.4</ele>
        <time>2021-10-10T08:55:30Z</time>
      </trkpt>
      <trkpt lat="45.07683" lon="5.58857">
        <ele>1248.4</ele>
        <time>2021-10-10T08:55:31Z</time>
      </trkpt>
      <trkpt lat="45.07682" lon="5.58858">
        <ele>1248.4</ele>
        <time>2021-10-10T08:55:32Z</time>
      </trkpt>
      <trkpt lat="45.07683" lon="5.58859">
        <ele>1248.4</ele>
        <time>2021-10-10T08:55:33Z</time>
      </trkpt>
      <trkpt lat="45.07689" lon="5.58923">
        <ele>1257.8</ele>
        <time>2021-10-10T08:56:40Z</time>
      </trkpt>
      <trkpt lat="45.07689" lon="5.58925">
        <ele>1257.8</ele>
        <time>2021-10-10T08:56:41Z</time>
      </trkpt>
      <trkpt lat="45.07689" lon="5.58927">
        <ele>1257.4</ele>
        <time>2021-10-10T08:56:42Z</time>
      </trkpt>
      <trkpt lat="45.0769" lon="5.58929">
        <ele>1257.4</ele>
        <time>2021-10-10T08:56:43Z</time>
      </trkpt>
      <trkpt lat="45.0769" lon="5.58932">
        <ele>1257.4</ele>
        <time>2021-10-10T08:56:44Z</time>
      </trkpt>
      <trkpt lat="45.07691" lon="5.58935">
        <ele>1257.4</ele>
        <time>2021-10-10T08:56:45Z</time>
      </trkpt>
      <trkpt lat="45.07693" lon="5.58938">
        <ele>1257.2</ele>
        <time>2021-10-10T08:56:46Z</time>
      </trkpt>
      <trkpt lat="45.07694" lon="5.58942">
        <ele>1257.2</ele>
        <time>2021-10-10T08:56:47Z</time>
      </trkpt>
      <trkpt lat="45.07696" lon="5.58945">
        <ele>1257.2</ele>
        <time>2021-10-10T08:56:48Z</time>
      </trkpt>
      <trkpt lat="45.07697" lon="5.58949">
        <ele>1257.2</ele>
        <time>2021-10-10T08:56:49Z</time>
      </trkpt>
      <trkpt lat="45.07698" lon="5.58952">
        <ele>1257.4</ele>
        <time>2021-10-10T08:56:50Z</time>
      </trkpt>
      <trkpt lat="45.07698" lon="5.58956">
        <ele>1257.4</ele>
        <time>2021-10-10T08:56:51Z</time>
      </trkpt>
      <trkpt lat="45.077" lon="5.5896">
        <ele>1257.4</ele>
        <time>2021-10-10T08:56:52Z</time>
      </trkpt>
      <trkpt lat="45.07701" lon="5.58964">
        <ele>1257.4</ele>
        <time>2021-10-10T08:56:53Z</time>
      </trkpt>
      <trkpt lat="45.07703" lon="5.58967">
        <ele>1257.2</ele>
        <time>2021-10-10T08:56:54Z</time>
      </trkpt>
      <trkpt lat="45.07704" lon="5.58971">
        <ele>1257.2</ele>
        <time>2021-10-10T08:56:55Z</time>
      </trkpt>
      <trkpt lat="45.07705" lon="5.58974">
        <ele>1257.2</ele>
        <time>2021-10-10T08:56:56Z</time>
      </trkpt>
      <trkpt lat="45.07705" lon="5.58977">
        <ele>1257.2</ele>
        <time>2021-10-10T08:56:57Z</time>
      </trkpt>
      <trkpt lat="45.07707" lon="5.58981">
        <ele>1256.6</ele>
        <time>2021-10-10T08:56:58Z</time>
      </trkpt>
      <trkpt lat="45.07709" lon="5.58985">
        <ele>1256.6</ele>
        <time>2021-10-10T08:56:59Z</time>
      </trkpt>
      <trkpt lat="45.07711" lon="5.5899">
        <ele>1256.6</ele>
        <time>2021-10-10T08:57:00Z</time>
      </trkpt>
      <trkpt lat="45.07713" lon="5.58995">
        <ele>1256.6</ele>
        <time>2021-10-10T08:57:01Z</time>
      </trkpt>
      <trkpt lat="45.07714" lon="5.58999">
        <ele>1256.4</ele>
        <time>2021-10-10T08:57:02Z</time>
      </trkpt>
      <trkpt lat="45.07715" lon="5.59004">
        <ele>1256.4</ele>
        <time>2021-10-10T08:57:03Z</time>
      </trkpt>
      <trkpt lat="45.07715" lon="5.59009">
        <ele>1256.4</ele>
        <time>2021-10-10T08:57:04Z</time>
      </trkpt>
      <trkpt lat="45.07716" lon="5.59013">
        <ele>1256.6</ele>
        <time>2021-10-10T08:57:05Z</time>
      </trkpt>
      <trkpt lat="45.07717" lon="5.59019">
        <ele>1256.4</ele>
        <time>2021-10-10T08:57:06Z</time>
      </trkpt>
      <trkpt lat="45.07718" lon="5.59024">
        <ele>1256.4</ele>
        <time>2021-10-10T08:57:07Z</time>
      </trkpt>
      <trkpt lat="45.07719" lon="5.59029">
        <ele>1256.4</ele>
        <time>2021-10-10T08:57:08Z</time>
      </trkpt>
      <trkpt lat="45.0772" lon="5.59033">
        <ele>1257.4</ele>
        <time>2021-10-10T08:57:09Z</time>
      </trkpt>
      <trkpt lat="45.07721" lon="5.59038">
        <ele>1258</ele>
        <time>2021-10-10T08:57:10Z</time>
      </trkpt>
      <trkpt lat="45.07722" lon="5.59041">
        <ele>1258</ele>
        <time>2021-10-10T08:57:11Z</time>
      </trkpt>
      <trkpt lat="45.07722" lon="5.59044">
        <ele>1258</ele>
        <time>2021-10-10T08:57:12Z</time>
      </trkpt>
      <trkpt lat="45.07723" lon="5.59047">
        <ele>1258</ele>
        <time>2021-10-10T08:57:13Z</time>
      </trkpt>
      <trkpt lat="45.07724" lon="5.5905">
        <ele>1258.6</ele>
        <time>2021-10-10T08:57:14Z</time>
      </trkpt>
      <trkpt lat="45.07725" lon="5.59052">
        <ele>1258.6</ele>
        <time>2021-10-10T08:57:15Z</time>
      </trkpt>
      <trkpt lat="45.07726" lon="5.59055">
        <ele>1258.6</ele>
        <time>2021-10-10T08:57:16Z</time>
      </trkpt>
      <trkpt lat="45.07727" lon="5.59057">
        <ele>1259</ele>
        <time>2021-10-10T08:57:17Z</time>
      </trkpt>
      <trkpt lat="45.07728" lon="5.59058">
        <ele>1259.4</ele>
        <time>2021-10-10T08:57:18Z</time>
      </trkpt>
      <trkpt lat="45.07729" lon="5.5906">
        <ele>1259.4</ele>
        <time>2021-10-10T08:57:19Z</time>
      </trkpt>
      <trkpt lat="45.0773" lon="5.59062">
        <ele>1259.4</ele>
        <time>2021-10-10T08:57:20Z</time>
      </trkpt>
      <trkpt lat="45.07731" lon="5.59064">
        <ele>1260.4</ele>
        <time>2021-10-10T08:57:21Z</time>
      </trkpt>
      <trkpt lat="45.07732" lon="5.59066">
        <ele>1260.6</ele>
        <time>2021-10-10T08:57:22Z</time>
      </trkpt>
      <trkpt lat="45.07734" lon="5.59068">
        <ele>1260.6</ele>
        <time>2021-10-10T08:57:23Z</time>
      </trkpt>
      <trkpt lat="45.07734" lon="5.5907">
        <ele>1260.6</ele>
        <time>2021-10-10T08:57:24Z</time>
      </trkpt>
      <trkpt lat="45.07737" lon="5.59071">
        <ele>1260.8</ele>
        <time>2021-10-10T08:57:25Z</time>
      </trkpt>
      <trkpt lat="45.07737" lon="5.59072">
        <ele>1261</ele>
        <time>2021-10-10T08:57:26Z</time>
      </trkpt>
      <trkpt lat="45.07738" lon="5.59074">
        <ele>1261</ele>
        <time>2021-10-10T08:57:27Z</time>
      </trkpt>
      <trkpt lat="45.07739" lon="5.59076">
        <ele>1261</ele>
        <time>2021-10-10T08:57:28Z</time>
      </trkpt>
      <trkpt lat="45.07741" lon="5.59078">
        <ele>1261</ele>
        <time>2021-10-10T08:57:29Z</time>
      </trkpt>
      <trkpt lat="45.07742" lon="5.59081">
        <ele>1261.4</ele>
        <time>2021-10-10T08:57:30Z</time>
      </trkpt>
      <trkpt lat="45.07743" lon="5.59083">
        <ele>1261.4</ele>
        <time>2021-10-10T08:57:31Z</time>
      </trkpt>
      <trkpt lat="45.07744" lon="5.59086">
        <ele>1261.4</ele>
        <time>2021-10-10T08:57:32Z</time>
      </trkpt>
      <trkpt lat="45.07745" lon="5.59087">
        <ele>1261.4</ele>
        <time>2021-10-10T08:57:33Z</time>
      </trkpt>
      <trkpt lat="45.07747" lon="5.59089">
        <ele>1261.8</ele>
        <time>2021-10-10T08:57:34Z</time>
      </trkpt>
      <trkpt lat="45.07749" lon="5.59091">
        <ele>1261.8</ele>
        <time>2021-10-10T08:57:35Z</time>
      </trkpt>
      <trkpt lat="45.0775" lon="5.59093">
        <ele>1261.8</ele>
        <time>2021-10-10T08:57:36Z</time>
      </trkpt>
      <trkpt lat="45.07751" lon="5.59095">
        <ele>1261.8</ele>
        <time>2021-10-10T08:57:37Z</time>
      </trkpt>
      <trkpt lat="45.07752" lon="5.59097">
        <ele>1262.8</ele>
        <time>2021-10-10T08:57:38Z</time>
      </trkpt>
      <trkpt lat="45.07752" lon="5.59099">
        <ele>1262.8</ele>
        <time>2021-10-10T08:57:39Z</time>
      </trkpt>
      <trkpt lat="45.07753" lon="5.59101">
        <ele>1262.8</ele>
        <time>2021-10-10T08:57:40Z</time>
      </trkpt>
      <trkpt lat="45.07754" lon="5.59103">
        <ele>1262.2</ele>
        <time>2021-10-10T08:57:41Z</time>
      </trkpt>
      <trkpt lat="45.07754" lon="5.59105">
        <ele>1262.2</ele>
        <time>2021-10-10T08:57:42Z</time>
      </trkpt>
      <trkpt lat="45.07755" lon="5.59107">
        <ele>1262.2</ele>
        <time>2021-10-10T08:57:43Z</time>
      </trkpt>
      <trkpt lat="45.07756" lon="5.59108">
        <ele>1262.2</ele>
        <time>2021-10-10T08:57:44Z</time>
      </trkpt>
      <trkpt lat="45.07756" lon="5.5911">
        <ele>1262.2</ele>
        <time>2021-10-10T08:57:45Z</time>
      </trkpt>
      <trkpt lat="45.07757" lon="5.59111">
        <ele>1261.4</ele>
        <time>2021-10-10T08:57:46Z</time>
      </trkpt>
      <trkpt lat="45.07758" lon="5.59113">
        <ele>1261.4</ele>
        <time>2021-10-10T08:57:47Z</time>
      </trkpt>
      <trkpt lat="45.07759" lon="5.59116">
        <ele>1261.4</ele>
        <time>2021-10-10T08:57:48Z</time>
      </trkpt>
      <trkpt lat="45.0776" lon="5.59119">
        <ele>1261.4</ele>
        <time>2021-10-10T08:57:49Z</time>
      </trkpt>
      <trkpt lat="45.0776" lon="5.59121">
        <ele>1261.6</ele>
        <time>2021-10-10T08:57:50Z</time>
      </trkpt>
      <trkpt lat="45.07761" lon="5.59124">
        <ele>1261.6</ele>
        <time>2021-10-10T08:57:51Z</time>
      </trkpt>
      <trkpt lat="45.07762" lon="5.59126">
        <ele>1261.6</ele>
        <time>2021-10-10T08:57:52Z</time>
      </trkpt>
      <trkpt lat="45.07762" lon="5.59129">
        <ele>1261.6</ele>
        <time>2021-10-10T08:57:53Z</time>
      </trkpt>
      <trkpt lat="45.07763" lon="5.59131">
        <ele>1262</ele>
        <time>2021-10-10T08:57:54Z</time>
      </trkpt>
      <trkpt lat="45.07763" lon="5.59134">
        <ele>1262</ele>
        <time>2021-10-10T08:57:55Z</time>
      </trkpt>
      <trkpt lat="45.07763" lon="5.59138">
        <ele>1262</ele>
        <time>2021-10-10T08:57:56Z</time>
      </trkpt>
      <trkpt lat="45.07764" lon="5.59143">
        <ele>1261.6</ele>
        <time>2021-10-10T08:57:57Z</time>
      </trkpt>
      <trkpt lat="45.07766" lon="5.59147">
        <ele>1261.4</ele>
        <time>2021-10-10T08:57:58Z</time>
      </trkpt>
      <trkpt lat="45.07766" lon="5.59151">
        <ele>1261.4</ele>
        <time>2021-10-10T08:57:59Z</time>
      </trkpt>
      <trkpt lat="45.07766" lon="5.59155">
        <ele>1261.4</ele>
        <time>2021-10-10T08:58:00Z</time>
      </trkpt>
      <trkpt lat="45.07767" lon="5.59159">
        <ele>1261.4</ele>
        <time>2021-10-10T08:58:01Z</time>
      </trkpt>
      <trkpt lat="45.07769" lon="5.59163">
        <ele>1261</ele>
        <time>2021-10-10T08:58:02Z</time>
      </trkpt>
      <trkpt lat="45.0777" lon="5.59168">
        <ele>1261</ele>
        <time>2021-10-10T08:58:03Z</time>
      </trkpt>
      <trkpt lat="45.0777" lon="5.59173">
        <ele>1261</ele>
        <time>2021-10-10T08:58:04Z</time>
      </trkpt>
      <trkpt lat="45.07771" lon="5.59178">
        <ele>1260</ele>
        <time>2021-10-10T08:58:05Z</time>
      </trkpt>
      <trkpt lat="45.07771" lon="5.59181">
        <ele>1260.2</ele>
        <time>2021-10-10T08:58:06Z</time>
      </trkpt>
      <trkpt lat="45.07772" lon="5.59187">
        <ele>1260.2</ele>
        <time>2021-10-10T08:58:07Z</time>
      </trkpt>
      <trkpt lat="45.07774" lon="5.59192">
        <ele>1260.2</ele>
        <time>2021-10-10T08:58:08Z</time>
      </trkpt>
      <trkpt lat="45.07775" lon="5.59199">
        <ele>1259.8</ele>
        <time>2021-10-10T08:58:09Z</time>
      </trkpt>
      <trkpt lat="45.07775" lon="5.59205">
        <ele>1259.8</ele>
        <time>2021-10-10T08:58:10Z</time>
      </trkpt>
      <trkpt lat="45.07776" lon="5.59211">
        <ele>1259.8</ele>
        <time>2021-10-10T08:58:11Z</time>
      </trkpt>
      <trkpt lat="45.07778" lon="5.59216">
        <ele>1259.8</ele>
        <time>2021-10-10T08:58:12Z</time>
      </trkpt>
      <trkpt lat="45.07777" lon="5.59221">
        <ele>1260.8</ele>
        <time>2021-10-10T08:58:13Z</time>
      </trkpt>
      <trkpt lat="45.07777" lon="5.59226">
        <ele>1260.4</ele>
        <time>2021-10-10T08:58:14Z</time>
      </trkpt>
      <trkpt lat="45.07777" lon="5.59229">
        <ele>1260.4</ele>
        <time>2021-10-10T08:58:15Z</time>
      </trkpt>
      <trkpt lat="45.07777" lon="5.59233">
        <ele>1260.4</ele>
        <time>2021-10-10T08:58:16Z</time>
      </trkpt>
      <trkpt lat="45.07777" lon="5.59237">
        <ele>1261.4</ele>
        <time>2021-10-10T08:58:17Z</time>
      </trkpt>
      <trkpt lat="45.07776" lon="5.5924">
        <ele>1262</ele>
        <time>2021-10-10T08:58:18Z</time>
      </trkpt>
      <trkpt lat="45.07775" lon="5.59243">
        <ele>1262</ele>
        <time>2021-10-10T08:58:19Z</time>
      </trkpt>
      <trkpt lat="45.07775" lon="5.59245">
        <ele>1262</ele>
        <time>2021-10-10T08:58:20Z</time>
      </trkpt>
      <trkpt lat="45.07776" lon="5.59248">
        <ele>1262.8</ele>
        <time>2021-10-10T08:58:21Z</time>
      </trkpt>
      <trkpt lat="45.07776" lon="5.59251">
        <ele>1262.8</ele>
        <time>2021-10-10T08:58:22Z</time>
      </trkpt>
      <trkpt lat="45.07775" lon="5.59254">
        <ele>1262.8</ele>
        <time>2021-10-10T08:58:23Z</time>
      </trkpt>
      <trkpt lat="45.07775" lon="5.59257">
        <ele>1262.8</ele>
        <time>2021-10-10T08:58:24Z</time>
      </trkpt>
      <trkpt lat="45.07776" lon="5.5926">
        <ele>1263.8</ele>
        <time>2021-10-10T08:58:25Z</time>
      </trkpt>
      <trkpt lat="45.07777" lon="5.59261">
        <ele>1264.4</ele>
        <time>2021-10-10T08:58:26Z</time>
      </trkpt>
      <trkpt lat="45.07777" lon="5.59263">
        <ele>1264.4</ele>
        <time>2021-10-10T08:58:27Z</time>
      </trkpt>
      <trkpt lat="45.07778" lon="5.59264">
        <ele>1264.4</ele>
        <time>2021-10-10T08:58:28Z</time>
      </trkpt>
      <trkpt lat="45.07778" lon="5.59264">
        <ele>1265</ele>
        <time>2021-10-10T08:58:29Z</time>
      </trkpt>
      <trkpt lat="45.07778" lon="5.59266">
        <ele>1265.6</ele>
        <time>2021-10-10T08:58:30Z</time>
      </trkpt>
      <trkpt lat="45.07779" lon="5.59268">
        <ele>1265.6</ele>
        <time>2021-10-10T08:58:31Z</time>
      </trkpt>
      <trkpt lat="45.07779" lon="5.59269">
        <ele>1265.6</ele>
        <time>2021-10-10T08:58:32Z</time>
      </trkpt>
      <trkpt lat="45.07779" lon="5.59271">
        <ele>1265.6</ele>
        <time>2021-10-10T08:58:33Z</time>
      </trkpt>
      <trkpt lat="45.0778" lon="5.59273">
        <ele>1265.8</ele>
        <time>2021-10-10T08:58:34Z</time>
      </trkpt>
      <trkpt lat="45.0778" lon="5.59275">
        <ele>1265.8</ele>
        <time>2021-10-10T08:58:35Z</time>
      </trkpt>
      <trkpt lat="45.07778" lon="5.59276">
        <ele>1265.8</ele>
        <time>2021-10-10T08:58:36Z</time>
      </trkpt>
      <trkpt lat="45.0778" lon="5.59279">
        <ele>1266.4</ele>
        <time>2021-10-10T08:58:37Z</time>
      </trkpt>
      <trkpt lat="45.07782" lon="5.59282">
        <ele>1266.4</ele>
        <time>2021-10-10T08:58:38Z</time>
      </trkpt>
      <trkpt lat="45.07783" lon="5.59285">
        <ele>1266.4</ele>
        <time>2021-10-10T08:58:39Z</time>
      </trkpt>
      <trkpt lat="45.07784" lon="5.59289">
        <ele>1266.4</ele>
        <time>2021-10-10T08:58:40Z</time>
      </trkpt>
      <trkpt lat="45.07786" lon="5.59292">
        <ele>1266.4</ele>
        <time>2021-10-10T08:58:41Z</time>
      </trkpt>
      <trkpt lat="45.07787" lon="5.59295">
        <ele>1266.6</ele>
        <time>2021-10-10T08:58:42Z</time>
      </trkpt>
      <trkpt lat="45.07788" lon="5.59298">
        <ele>1266.6</ele>
        <time>2021-10-10T08:58:43Z</time>
      </trkpt>
      <trkpt lat="45.07789" lon="5.593">
        <ele>1266.6</ele>
        <time>2021-10-10T08:58:44Z</time>
      </trkpt>
      <trkpt lat="45.07792" lon="5.59303">
        <ele>1266.6</ele>
        <time>2021-10-10T08:58:45Z</time>
      </trkpt>
      <trkpt lat="45.07793" lon="5.59306">
        <ele>1266.8</ele>
        <time>2021-10-10T08:58:46Z</time>
      </trkpt>
      <trkpt lat="45.07793" lon="5.59309">
        <ele>1266.8</ele>
        <time>2021-10-10T08:58:47Z</time>
      </trkpt>
      <trkpt lat="45.07794" lon="5.59311">
        <ele>1266.8</ele>
        <time>2021-10-10T08:58:48Z</time>
      </trkpt>
      <trkpt lat="45.07795" lon="5.59314">
        <ele>1266.8</ele>
        <time>2021-10-10T08:58:49Z</time>
      </trkpt>
      <trkpt lat="45.07796" lon="5.59317">
        <ele>1266.8</ele>
        <time>2021-10-10T08:58:50Z</time>
      </trkpt>
      <trkpt lat="45.07798" lon="5.59319">
        <ele>1266.8</ele>
        <time>2021-10-10T08:58:51Z</time>
      </trkpt>
      <trkpt lat="45.07799" lon="5.5932">
        <ele>1266.8</ele>
        <time>2021-10-10T08:58:52Z</time>
      </trkpt>
      <trkpt lat="45.07799" lon="5.59322">
        <ele>1266.8</ele>
        <time>2021-10-10T08:58:53Z</time>
      </trkpt>
      <trkpt lat="45.07882" lon="5.59391">
        <ele>1282.2</ele>
        <time>2021-10-10T09:01:44Z</time>
      </trkpt>
      <trkpt lat="45.07883" lon="5.59393">
        <ele>1282.2</ele>
        <time>2021-10-10T09:01:45Z</time>
      </trkpt>
      <trkpt lat="45.07884" lon="5.59395">
        <ele>1282.2</ele>
        <time>2021-10-10T09:01:46Z</time>
      </trkpt>
      <trkpt lat="45.07885" lon="5.59396">
        <ele>1282.2</ele>
        <time>2021-10-10T09:01:47Z</time>
      </trkpt>
      <trkpt lat="45.07885" lon="5.59398">
        <ele>1282.2</ele>
        <time>2021-10-10T09:01:48Z</time>
      </trkpt>
      <trkpt lat="45.07886" lon="5.594">
        <ele>1283.2</ele>
        <time>2021-10-10T09:01:49Z</time>
      </trkpt>
      <trkpt lat="45.07887" lon="5.59401">
        <ele>1283.2</ele>
        <time>2021-10-10T09:01:50Z</time>
      </trkpt>
      <trkpt lat="45.07887" lon="5.59403">
        <ele>1283.2</ele>
        <time>2021-10-10T09:01:51Z</time>
      </trkpt>
      <trkpt lat="45.07889" lon="5.59405">
        <ele>1283.2</ele>
        <time>2021-10-10T09:01:52Z</time>
      </trkpt>
      <trkpt lat="45.07889" lon="5.59407">
        <ele>1284</ele>
        <time>2021-10-10T09:01:53Z</time>
      </trkpt>
      <trkpt lat="45.0789" lon="5.59409">
        <ele>1283.8</ele>
        <time>2021-10-10T09:01:54Z</time>
      </trkpt>
      <trkpt lat="45.07891" lon="5.5941">
        <ele>1283.8</ele>
        <time>2021-10-10T09:01:55Z</time>
      </trkpt>
      <trkpt lat="45.07892" lon="5.5941">
        <ele>1283.8</ele>
        <time>2021-10-10T09:01:56Z</time>
      </trkpt>
      <trkpt lat="45.07893" lon="5.59412">
        <ele>1284.6</ele>
        <time>2021-10-10T09:01:57Z</time>
      </trkpt>
      <trkpt lat="45.07894" lon="5.59413">
        <ele>1284.8</ele>
        <time>2021-10-10T09:01:58Z</time>
      </trkpt>
      <trkpt lat="45.07894" lon="5.59414">
        <ele>1284.8</ele>
        <time>2021-10-10T09:01:59Z</time>
      </trkpt>
      <trkpt lat="45.07895" lon="5.59416">
        <ele>1284.8</ele>
        <time>2021-10-10T09:02:00Z</time>
      </trkpt>
      <trkpt lat="45.07896" lon="5.59417">
        <ele>1284.8</ele>
        <time>2021-10-10T09:02:01Z</time>
      </trkpt>
      <trkpt lat="45.07897" lon="5.59419">
        <ele>1285</ele>
        <time>2021-10-10T09:02:02Z</time>
      </trkpt>
      <trkpt lat="45.07898" lon="5.59421">
        <ele>1285</ele>
        <time>2021-10-10T09:02:03Z</time>
      </trkpt>
      <trkpt lat="45.079" lon="5.59423">
        <ele>1285</ele>
        <time>2021-10-10T09:02:04Z</time>
      </trkpt>
      <trkpt lat="45.07901" lon="5.59425">
        <ele>1285</ele>
        <time>2021-10-10T09:02:05Z</time>
      </trkpt>
      <trkpt lat="45.07902" lon="5.59426">
        <ele>1285.2</ele>
        <time>2021-10-10T09:02:06Z</time>
      </trkpt>
      <trkpt lat="45.07903" lon="5.59428">
        <ele>1285.2</ele>
        <time>2021-10-10T09:02:07Z</time>
      </trkpt>
      <trkpt lat="45.07904" lon="5.5943">
        <ele>1285.2</ele>
        <time>2021-10-10T09:02:08Z</time>
      </trkpt>
      <trkpt lat="45.07904" lon="5.59432">
        <ele>1285.2</ele>
        <time>2021-10-10T09:02:09Z</time>
      </trkpt>
      <trkpt lat="45.07905" lon="5.59433">
        <ele>1284.6</ele>
        <time>2021-10-10T09:02:10Z</time>
      </trkpt>
      <trkpt lat="45.07906" lon="5.59436">
        <ele>1284.6</ele>
        <time>2021-10-10T09:02:11Z</time>
      </trkpt>
      <trkpt lat="45.07907" lon="5.59439">
        <ele>1284.6</ele>
        <time>2021-10-10T09:02:12Z</time>
      </trkpt>
      <trkpt lat="45.07908" lon="5.59442">
        <ele>1284.2</ele>
        <time>2021-10-10T09:02:13Z</time>
      </trkpt>
      <trkpt lat="45.0791" lon="5.59447">
        <ele>1284</ele>
        <time>2021-10-10T09:02:14Z</time>
      </trkpt>
      <trkpt lat="45.07911" lon="5.5945">
        <ele>1284</ele>
        <time>2021-10-10T09:02:15Z</time>
      </trkpt>
      <trkpt lat="45.07913" lon="5.59453">
        <ele>1284</ele>
        <time>2021-10-10T09:02:16Z</time>
      </trkpt>
      <trkpt lat="45.07914" lon="5.59455">
        <ele>1284</ele>
        <time>2021-10-10T09:02:17Z</time>
      </trkpt>
      <trkpt lat="45.07915" lon="5.59456">
        <ele>1285</ele>
        <time>2021-10-10T09:02:18Z</time>
      </trkpt>
      <trkpt lat="45.07917" lon="5.59458">
        <ele>1285</ele>
        <time>2021-10-10T09:02:19Z</time>
      </trkpt>
      <trkpt lat="45.07919" lon="5.59459">
        <ele>1285</ele>
        <time>2021-10-10T09:02:20Z</time>
      </trkpt>
      <trkpt lat="45.0792" lon="5.5946">
        <ele>1286</ele>
        <time>2021-10-10T09:02:21Z</time>
      </trkpt>
      <trkpt lat="45.07921" lon="5.5946">
        <ele>1286.2</ele>
        <time>2021-10-10T09:02:22Z</time>
      </trkpt>
      <trkpt lat="45.07922" lon="5.5946">
        <ele>1286.2</ele>
        <time>2021-10-10T09:02:23Z</time>
      </trkpt>
      <trkpt lat="45.07923" lon="5.59461">
        <ele>1286.2</ele>
        <time>2021-10-10T09:02:24Z</time>
      </trkpt>
      <trkpt lat="45.07924" lon="5.59461">
        <ele>1287.2</ele>
        <time>2021-10-10T09:02:25Z</time>
      </trkpt>
      <trkpt lat="45.07925" lon="5.59461">
        <ele>1288</ele>
        <time>2021-10-10T09:02:26Z</time>
      </trkpt>
      <trkpt lat="45.07927" lon="5.59462">
        <ele>1288</ele>
        <time>2021-10-10T09:02:27Z</time>
      </trkpt>
      <trkpt lat="45.07928" lon="5.59462">
        <ele>1288</ele>
        <time>2021-10-10T09:02:28Z</time>
      </trkpt>
      <trkpt lat="45.07929" lon="5.59462">
        <ele>1288.6</ele>
        <time>2021-10-10T09:02:29Z</time>
      </trkpt>
      <trkpt lat="45.0793" lon="5.59462">
        <ele>1289</ele>
        <time>2021-10-10T09:02:30Z</time>
      </trkpt>
      <trkpt lat="45.07931" lon="5.59463">
        <ele>1289</ele>
        <time>2021-10-10T09:02:31Z</time>
      </trkpt>
      <trkpt lat="45.07933" lon="5.59465">
        <ele>1289</ele>
        <time>2021-10-10T09:02:32Z</time>
      </trkpt>
      <trkpt lat="45.07934" lon="5.59466">
        <ele>1289</ele>
        <time>2021-10-10T09:02:33Z</time>
      </trkpt>
      <trkpt lat="45.07935" lon="5.59467">
        <ele>1289.4</ele>
        <time>2021-10-10T09:02:34Z</time>
      </trkpt>
      <trkpt lat="45.07936" lon="5.59468">
        <ele>1289.4</ele>
        <time>2021-10-10T09:02:35Z</time>
      </trkpt>
      <trkpt lat="45.07937" lon="5.59469">
        <ele>1289.4</ele>
        <time>2021-10-10T09:02:36Z</time>
      </trkpt>
      <trkpt lat="45.07938" lon="5.5947">
        <ele>1289.6</ele>
        <time>2021-10-10T09:02:37Z</time>
      </trkpt>
      <trkpt lat="45.08049" lon="5.59601">
        <ele>1315.6</ele>
        <time>2021-10-10T09:06:07Z</time>
      </trkpt>
      <trkpt lat="45.0805" lon="5.59602">
        <ele>1315.6</ele>
        <time>2021-10-10T09:06:08Z</time>
      </trkpt>
      <trkpt lat="45.08051" lon="5.59603">
        <ele>1315.6</ele>
        <time>2021-10-10T09:06:09Z</time>
      </trkpt>
      <trkpt lat="45.08053" lon="5.59605">
        <ele>1314.8</ele>
        <time>2021-10-10T09:06:10Z</time>
      </trkpt>
      <trkpt lat="45.08055" lon="5.59606">
        <ele>1314.8</ele>
        <time>2021-10-10T09:06:11Z</time>
      </trkpt>
      <trkpt lat="45.08058" lon="5.59609">
        <ele>1314.8</ele>
        <time>2021-10-10T09:06:12Z</time>
      </trkpt>
      <trkpt lat="45.08061" lon="5.59612">
        <ele>1314.8</ele>
        <time>2021-10-10T09:06:13Z</time>
      </trkpt>
      <trkpt lat="45.08064" lon="5.59614">
        <ele>1315</ele>
        <time>2021-10-10T09:06:14Z</time>
      </trkpt>
      <trkpt lat="45.08067" lon="5.59615">
        <ele>1315</ele>
        <time>2021-10-10T09:06:15Z</time>
      </trkpt>
      <trkpt lat="45.08069" lon="5.59617">
        <ele>1315</ele>
        <time>2021-10-10T09:06:16Z</time>
      </trkpt>
      <trkpt lat="45.08071" lon="5.59619">
        <ele>1315.2</ele>
        <time>2021-10-10T09:06:17Z</time>
      </trkpt>
      <trkpt lat="45.08073" lon="5.5962">
        <ele>1315.4</ele>
        <time>2021-10-10T09:06:18Z</time>
      </trkpt>
      <trkpt lat="45.08074" lon="5.59621">
        <ele>1315.4</ele>
        <time>2021-10-10T09:06:19Z</time>
      </trkpt>
      <trkpt lat="45.08077" lon="5.59624">
        <ele>1315.4</ele>
        <time>2021-10-10T09:06:20Z</time>
      </trkpt>
      <trkpt lat="45.0808" lon="5.59626">
        <ele>1314.4</ele>
        <time>2021-10-10T09:06:21Z</time>
      </trkpt>
      <trkpt lat="45.08082" lon="5.59626">
        <ele>1314.4</ele>
        <time>2021-10-10T09:06:22Z</time>
      </trkpt>
      <trkpt lat="45.08085" lon="5.59628">
        <ele>1314.4</ele>
        <time>2021-10-10T09:06:23Z</time>
      </trkpt>
      <trkpt lat="45.08086" lon="5.59627">
        <ele>1314.4</ele>
        <time>2021-10-10T09:06:24Z</time>
      </trkpt>
      <trkpt lat="45.08088" lon="5.59628">
        <ele>1315</ele>
        <time>2021-10-10T09:06:25Z</time>
      </trkpt>
      <trkpt lat="45.08089" lon="5.59628">
        <ele>1315.2</ele>
        <time>2021-10-10T09:06:26Z</time>
      </trkpt>
      <trkpt lat="45.0809" lon="5.59628">
        <ele>1315.2</ele>
        <time>2021-10-10T09:06:27Z</time>
      </trkpt>
      <trkpt lat="45.08091" lon="5.59628">
        <ele>1315.2</ele>
        <time>2021-10-10T09:06:28Z</time>
      </trkpt>
      <trkpt lat="45.08092" lon="5.59627">
        <ele>1315.2</ele>
        <time>2021-10-10T09:06:29Z</time>
      </trkpt>
      <trkpt lat="45.08094" lon="5.59627">
        <ele>1315.2</ele>
        <time>2021-10-10T09:06:30Z</time>
      </trkpt>
      <trkpt lat="45.08097" lon="5.59626">
        <ele>1315.2</ele>
        <time>2021-10-10T09:06:31Z</time>
      </trkpt>
      <trkpt lat="45.08099" lon="5.59627">
        <ele>1315.2</ele>
        <time>2021-10-10T09:06:32Z</time>
      </trkpt>
      <trkpt lat="45.08101" lon="5.59629">
        <ele>1315.2</ele>
        <time>2021-10-10T09:06:33Z</time>
      </trkpt>
      <trkpt lat="45.08103" lon="5.59631">
        <ele>1314.8</ele>
        <time>2021-10-10T09:06:34Z</time>
      </trkpt>
      <trkpt lat="45.08105" lon="5.59634">
        <ele>1314.8</ele>
        <time>2021-10-10T09:06:35Z</time>
      </trkpt>
      <trkpt lat="45.08109" lon="5.59636">
        <ele>1314.8</ele>
        <time>2021-10-10T09:06:36Z</time>
      </trkpt>
      <trkpt lat="45.08113" lon="5.59637">
        <ele>1314.8</ele>
        <time>2021-10-10T09:06:37Z</time>
      </trkpt>
      <trkpt lat="45.08117" lon="5.59638">
        <ele>1314.2</ele>
        <time>2021-10-10T09:06:38Z</time>
      </trkpt>
      <trkpt lat="45.08124" lon="5.59641">
        <ele>1314.2</ele>
        <time>2021-10-10T09:06:39Z</time>
      </trkpt>
      <trkpt lat="45.08129" lon="5.59642">
        <ele>1314.2</ele>
        <time>2021-10-10T09:06:40Z</time>
      </trkpt>
      <trkpt lat="45.08133" lon="5.59644">
        <ele>1314.2</ele>
        <time>2021-10-10T09:06:41Z</time>
      </trkpt>
      <trkpt lat="45.08137" lon="5.59645">
        <ele>1314</ele>
        <time>2021-10-10T09:06:42Z</time>
      </trkpt>
      <trkpt lat="45.08141" lon="5.59647">
        <ele>1314</ele>
        <time>2021-10-10T09:06:43Z</time>
      </trkpt>
      <trkpt lat="45.08144" lon="5.5965">
        <ele>1314</ele>
        <time>2021-10-10T09:06:44Z</time>
      </trkpt>
      <trkpt lat="45.08148" lon="5.59653">
        <ele>1315</ele>
        <time>2021-10-10T09:06:45Z</time>
      </trkpt>
      <trkpt lat="45.08151" lon="5.59655">
        <ele>1314.8</ele>
        <time>2021-10-10T09:06:46Z</time>
      </trkpt>
      <trkpt lat="45.08154" lon="5.59658">
        <ele>1314.8</ele>
        <time>2021-10-10T09:06:47Z</time>
      </trkpt>
      <trkpt lat="45.08157" lon="5.5966">
        <ele>1314.8</ele>
        <time>2021-10-10T09:06:48Z</time>
      </trkpt>
      <trkpt lat="45.0816" lon="5.59662">
        <ele>1314.8</ele>
        <time>2021-10-10T09:06:49Z</time>
      </trkpt>
      <trkpt lat="45.08162" lon="5.59664">
        <ele>1315.8</ele>
        <time>2021-10-10T09:06:50Z</time>
      </trkpt>
      <trkpt lat="45.08165" lon="5.59667">
        <ele>1315.8</ele>
        <time>2021-10-10T09:06:51Z</time>
      </trkpt>
      <trkpt lat="45.08167" lon="5.59669">
        <ele>1315.8</ele>
        <time>2021-10-10T09:06:52Z</time>
      </trkpt>
      <trkpt lat="45.0817" lon="5.5967">
        <ele>1316.8</ele>
        <time>2021-10-10T09:06:53Z</time>
      </trkpt>
      <trkpt lat="45.08171" lon="5.59671">
        <ele>1317</ele>
        <time>2021-10-10T09:06:54Z</time>
      </trkpt>
      <trkpt lat="45.08173" lon="5.59672">
        <ele>1317</ele>
        <time>2021-10-10T09:06:55Z</time>
      </trkpt>
      <trkpt lat="45.08175" lon="5.59673">
        <ele>1317</ele>
        <time>2021-10-10T09:06:56Z</time>
      </trkpt>
      <trkpt lat="45.08177" lon="5.59675">
        <ele>1317.6</ele>
        <time>2021-10-10T09:06:57Z</time>
      </trkpt>
      <trkpt lat="45.08179" lon="5.59676">
        <ele>1318</ele>
        <time>2021-10-10T09:06:58Z</time>
      </trkpt>
      <trkpt lat="45.0818" lon="5.59678">
        <ele>1318</ele>
        <time>2021-10-10T09:06:59Z</time>
      </trkpt>
      <trkpt lat="45.08182" lon="5.59679">
        <ele>1318</ele>
        <time>2021-10-10T09:07:00Z</time>
      </trkpt>
      <trkpt lat="45.08184" lon="5.5968">
        <ele>1318</ele>
        <time>2021-10-10T09:07:01Z</time>
      </trkpt>
      <trkpt lat="45.08186" lon="5.59681">
        <ele>1319</ele>
        <time>2021-10-10T09:07:02Z</time>
      </trkpt>
      <trkpt lat="45.08188" lon="5.59683">
        <ele>1319</ele>
        <time>2021-10-10T09:07:03Z</time>
      </trkpt>
      <trkpt lat="45.0819" lon="5.59684">
        <ele>1319</ele>
        <time>2021-10-10T09:07:04Z</time>
      </trkpt>
      <trkpt lat="45.08192" lon="5.59685">
        <ele>1319</ele>
        <time>2021-10-10T09:07:05Z</time>
      </trkpt>
      <trkpt lat="45.08193" lon="5.59687">
        <ele>1319.2</ele>
        <time>2021-10-10T09:07:06Z</time>
      </trkpt>
      <trkpt lat="45.08195" lon="5.59689">
        <ele>1319.2</ele>
        <time>2021-10-10T09:07:07Z</time>
      </trkpt>
      <trkpt lat="45.08197" lon="5.5969">
        <ele>1319.2</ele>
        <time>2021-10-10T09:07:08Z</time>
      </trkpt>
      <trkpt lat="45.08199" lon="5.59692">
        <ele>1319.2</ele>
        <time>2021-10-10T09:07:09Z</time>
      </trkpt>
      <trkpt lat="45.08201" lon="5.59693">
        <ele>1319.4</ele>
        <time>2021-10-10T09:07:10Z</time>
      </trkpt>
      <trkpt lat="45.08203" lon="5.59695">
        <ele>1319.4</ele>
        <time>2021-10-10T09:07:11Z</time>
      </trkpt>
      <trkpt lat="45.08205" lon="5.59697">
        <ele>1319.4</ele>
        <time>2021-10-10T09:07:12Z</time>
      </trkpt>
      <trkpt lat="45.08207" lon="5.59699">
        <ele>1319.4</ele>
        <time>2021-10-10T09:07:13Z</time>
      </trkpt>
      <trkpt lat="45.08209" lon="5.597">
        <ele>1319.2</ele>
        <time>2021-10-10T09:07:14Z</time>
      </trkpt>
      <trkpt lat="45.08211" lon="5.59702">
        <ele>1319.2</ele>
        <time>2021-10-10T09:07:15Z</time>
      </trkpt>
      <trkpt lat="45.08214" lon="5.59704">
        <ele>1319.2</ele>
        <time>2021-10-10T09:07:16Z</time>
      </trkpt>
      <trkpt lat="45.08215" lon="5.59705">
        <ele>1319.2</ele>
        <time>2021-10-10T09:07:17Z</time>
      </trkpt>
      <trkpt lat="45.08217" lon="5.59707">
        <ele>1320.2</ele>
        <time>2021-10-10T09:07:18Z</time>
      </trkpt>
      <trkpt lat="45.08219" lon="5.59709">
        <ele>1320.2</ele>
        <time>2021-10-10T09:07:19Z</time>
      </trkpt>
      <trkpt lat="45.08221" lon="5.5971">
        <ele>1320.2</ele>
        <time>2021-10-10T09:07:20Z</time>
      </trkpt>
      <trkpt lat="45.08222" lon="5.59712">
        <ele>1320.2</ele>
        <time>2021-10-10T09:07:21Z</time>
      </trkpt>
      <trkpt lat="45.08224" lon="5.59713">
        <ele>1320.2</ele>
        <time>2021-10-10T09:07:22Z</time>
      </trkpt>
      <trkpt lat="45.08225" lon="5.59715">
        <ele>1320.2</ele>
        <time>2021-10-10T09:07:23Z</time>
      </trkpt>
      <trkpt lat="45.08226" lon="5.59716">
        <ele>1320.2</ele>
        <time>2021-10-10T09:07:24Z</time>
      </trkpt>
      <trkpt lat="45.08228" lon="5.59718">
        <ele>1320.8</ele>
        <time>2021-10-10T09:07:25Z</time>
      </trkpt>
      <trkpt lat="45.08229" lon="5.59719">
        <ele>1321.2</ele>
        <time>2021-10-10T09:07:26Z</time>
      </trkpt>
      <trkpt lat="45.08229" lon="5.59721">
        <ele>1321.2</ele>
        <time>2021-10-10T09:07:27Z</time>
      </trkpt>
      <trkpt lat="45.0823" lon="5.59723">
        <ele>1321.2</ele>
        <time>2021-10-10T09:07:28Z</time>
      </trkpt>
      <trkpt lat="45.08231" lon="5.59724">
        <ele>1321.2</ele>
        <time>2021-10-10T09:07:29Z</time>
      </trkpt>
      <trkpt lat="45.08232" lon="5.59725">
        <ele>1321.6</ele>
        <time>2021-10-10T09:07:30Z</time>
      </trkpt>
      <trkpt lat="45.08234" lon="5.59726">
        <ele>1321.6</ele>
        <time>2021-10-10T09:07:31Z</time>
      </trkpt>
      <trkpt lat="45.08235" lon="5.59728">
        <ele>1321.6</ele>
        <time>2021-10-10T09:07:32Z</time>
      </trkpt>
      <trkpt lat="45.08236" lon="5.5973">
        <ele>1321.4</ele>
        <time>2021-10-10T09:07:33Z</time>
      </trkpt>
      <trkpt lat="45.08238" lon="5.59732">
        <ele>1322</ele>
        <time>2021-10-10T09:07:34Z</time>
      </trkpt>
      <trkpt lat="45.08239" lon="5.59734">
        <ele>1322</ele>
        <time>2021-10-10T09:07:35Z</time>
      </trkpt>
      <trkpt lat="45.0824" lon="5.59736">
        <ele>1322</ele>
        <time>2021-10-10T09:07:36Z</time>
      </trkpt>
      <trkpt lat="45.08242" lon="5.59738">
        <ele>1322</ele>
        <time>2021-10-10T09:07:37Z</time>
      </trkpt>
      <trkpt lat="45.08243" lon="5.5974">
        <ele>1322.2</ele>
        <time>2021-10-10T09:07:38Z</time>
      </trkpt>
      <trkpt lat="45.08244" lon="5.59742">
        <ele>1322.2</ele>
        <time>2021-10-10T09:07:39Z</time>
      </trkpt>
      <trkpt lat="45.08245" lon="5.59743">
        <ele>1322.2</ele>
        <time>2021-10-10T09:07:40Z</time>
      </trkpt>
      <trkpt lat="45.08246" lon="5.59745">
        <ele>1323.2</ele>
        <time>2021-10-10T09:07:41Z</time>
      </trkpt>
      <trkpt lat="45.08247" lon="5.59746">
        <ele>1323</ele>
        <time>2021-10-10T09:07:42Z</time>
      </trkpt>
      <trkpt lat="45.08246" lon="5.59747">
        <ele>1323</ele>
        <time>2021-10-10T09:07:43Z</time>
      </trkpt>
      <trkpt lat="45.08246" lon="5.59749">
        <ele>1323</ele>
        <time>2021-10-10T09:07:44Z</time>
      </trkpt>
      <trkpt lat="45.08412" lon="5.59766">
        <ele>1355.2</ele>
        <time>2021-10-10T09:12:26Z</time>
      </trkpt>
      <trkpt lat="45.08413" lon="5.59766">
        <ele>1355.2</ele>
        <time>2021-10-10T09:12:27Z</time>
      </trkpt>
      <trkpt lat="45.08415" lon="5.59767">
        <ele>1355.2</ele>
        <time>2021-10-10T09:12:28Z</time>
      </trkpt>
      <trkpt lat="45.08417" lon="5.59767">
        <ele>1355.2</ele>
        <time>2021-10-10T09:12:29Z</time>
      </trkpt>
      <trkpt lat="45.08419" lon="5.59769">
        <ele>1355.6</ele>
        <time>2021-10-10T09:12:30Z</time>
      </trkpt>
      <trkpt lat="45.0842" lon="5.59769">
        <ele>1355.6</ele>
        <time>2021-10-10T09:12:31Z</time>
      </trkpt>
      <trkpt lat="45.08422" lon="5.59771">
        <ele>1355.6</ele>
        <time>2021-10-10T09:12:32Z</time>
      </trkpt>
      <trkpt lat="45.08423" lon="5.59772">
        <ele>1355.6</ele>
        <time>2021-10-10T09:12:33Z</time>
      </trkpt>
      <trkpt lat="45.08425" lon="5.59773">
        <ele>1356</ele>
        <time>2021-10-10T09:12:34Z</time>
      </trkpt>
      <trkpt lat="45.08426" lon="5.59773">
        <ele>1356</ele>
        <time>2021-10-10T09:12:35Z</time>
      </trkpt>
      <trkpt lat="45.08428" lon="5.59774">
        <ele>1356</ele>
        <time>2021-10-10T09:12:36Z</time>
      </trkpt>
      <trkpt lat="45.08429" lon="5.59774">
        <ele>1356</ele>
        <time>2021-10-10T09:12:37Z</time>
      </trkpt>
      <trkpt lat="45.0843" lon="5.59775">
        <ele>1356.8</ele>
        <time>2021-10-10T09:12:38Z</time>
      </trkpt>
      <trkpt lat="45.08431" lon="5.59776">
        <ele>1356.8</ele>
        <time>2021-10-10T09:12:39Z</time>
      </trkpt>
      <trkpt lat="45.08433" lon="5.59777">
        <ele>1356.8</ele>
        <time>2021-10-10T09:12:40Z</time>
      </trkpt>
      <trkpt lat="45.08435" lon="5.59778">
        <ele>1356.8</ele>
        <time>2021-10-10T09:12:41Z</time>
      </trkpt>
      <trkpt lat="45.08436" lon="5.59777">
        <ele>1357.2</ele>
        <time>2021-10-10T09:12:42Z</time>
      </trkpt>
      <trkpt lat="45.08438" lon="5.59777">
        <ele>1357.2</ele>
        <time>2021-10-10T09:12:43Z</time>
      </trkpt>
      <trkpt lat="45.08438" lon="5.59777">
        <ele>1357.2</ele>
        <time>2021-10-10T09:12:44Z</time>
      </trkpt>
      <trkpt lat="45.0844" lon="5.59777">
        <ele>1357.2</ele>
        <time>2021-10-10T09:12:45Z</time>
      </trkpt>
      <trkpt lat="45.08441" lon="5.59776">
        <ele>1357.8</ele>
        <time>2021-10-10T09:12:46Z</time>
      </trkpt>
      <trkpt lat="45.08442" lon="5.59777">
        <ele>1357.8</ele>
        <time>2021-10-10T09:12:47Z</time>
      </trkpt>
      <trkpt lat="45.08444" lon="5.59777">
        <ele>1357.8</ele>
        <time>2021-10-10T09:12:48Z</time>
      </trkpt>
      <trkpt lat="45.08445" lon="5.59776">
        <ele>1357.8</ele>
        <time>2021-10-10T09:12:49Z</time>
      </trkpt>
      <trkpt lat="45.08446" lon="5.59775">
        <ele>1358.4</ele>
        <time>2021-10-10T09:12:50Z</time>
      </trkpt>
      <trkpt lat="45.08447" lon="5.59774">
        <ele>1358.4</ele>
        <time>2021-10-10T09:12:51Z</time>
      </trkpt>
      <trkpt lat="45.08448" lon="5.59772">
        <ele>1358.4</ele>
        <time>2021-10-10T09:12:52Z</time>
      </trkpt>
      <trkpt lat="45.0845" lon="5.59772">
        <ele>1359</ele>
        <time>2021-10-10T09:12:53Z</time>
      </trkpt>
      <trkpt lat="45.08451" lon="5.59772">
        <ele>1359.2</ele>
        <time>2021-10-10T09:12:54Z</time>
      </trkpt>
      <trkpt lat="45.08452" lon="5.59771">
        <ele>1359.2</ele>
        <time>2021-10-10T09:12:55Z</time>
      </trkpt>
      <trkpt lat="45.08452" lon="5.59769">
        <ele>1359.2</ele>
        <time>2021-10-10T09:12:56Z</time>
      </trkpt>
      <trkpt lat="45.08454" lon="5.59767">
        <ele>1359.2</ele>
        <time>2021-10-10T09:12:57Z</time>
      </trkpt>
      <trkpt lat="45.08455" lon="5.59767">
        <ele>1359.4</ele>
        <time>2021-10-10T09:12:58Z</time>
      </trkpt>
      <trkpt lat="45.08457" lon="5.59765">
        <ele>1359.4</ele>
        <time>2021-10-10T09:12:59Z</time>
      </trkpt>
      <trkpt lat="45.08458" lon="5.59763">
        <ele>1359.4</ele>
        <time>2021-10-10T09:13:00Z</time>
      </trkpt>
      <trkpt lat="45.0846" lon="5.59761">
        <ele>1359.4</ele>
        <time>2021-10-10T09:13:01Z</time>
      </trkpt>
      <trkpt lat="45.08461" lon="5.59759">
        <ele>1359.4</ele>
        <time>2021-10-10T09:13:02Z</time>
      </trkpt>
      <trkpt lat="45.08463" lon="5.59757">
        <ele>1359.4</ele>
        <time>2021-10-10T09:13:03Z</time>
      </trkpt>
      <trkpt lat="45.08463" lon="5.59755">
        <ele>1359.4</ele>
        <time>2021-10-10T09:13:04Z</time>
      </trkpt>
      <trkpt lat="45.08464" lon="5.59753">
        <ele>1360.4</ele>
        <time>2021-10-10T09:13:05Z</time>
      </trkpt>
      <trkpt lat="45.08464" lon="5.59751">
        <ele>1361</ele>
        <time>2021-10-10T09:13:06Z</time>
      </trkpt>
      <trkpt lat="45.08465" lon="5.5975">
        <ele>1361</ele>
        <time>2021-10-10T09:13:07Z</time>
      </trkpt>
      <trkpt lat="45.08466" lon="5.59748">
        <ele>1361</ele>
        <time>2021-10-10T09:13:08Z</time>
      </trkpt>
      <trkpt lat="45.08466" lon="5.59747">
        <ele>1361</ele>
        <time>2021-10-10T09:13:09Z</time>
      </trkpt>
      <trkpt lat="45.08466" lon="5.59745">
        <ele>1361.8</ele>
        <time>2021-10-10T09:13:10Z</time>
      </trkpt>
      <trkpt lat="45.08467" lon="5.59743">
        <ele>1361.8</ele>
        <time>2021-10-10T09:13:11Z</time>
      </trkpt>
      <trkpt lat="45.08467" lon="5.59741">
        <ele>1361.8</ele>
        <time>2021-10-10T09:13:12Z</time>
      </trkpt>
      <trkpt lat="45.08467" lon="5.59739">
        <ele>1361.8</ele>
        <time>2021-10-10T09:13:13Z</time>
      </trkpt>
      <trkpt lat="45.08468" lon="5.59737">
        <ele>1362.6</ele>
        <time>2021-10-10T09:13:14Z</time>
      </trkpt>
      <trkpt lat="45.08468" lon="5.59736">
        <ele>1362.6</ele>
        <time>2021-10-10T09:13:15Z</time>
      </trkpt>
      <trkpt lat="45.08469" lon="5.59735">
        <ele>1362.6</ele>
        <time>2021-10-10T09:13:16Z</time>
      </trkpt>
      <trkpt lat="45.0847" lon="5.59734">
        <ele>1363.6</ele>
        <time>2021-10-10T09:13:17Z</time>
      </trkpt>
      <trkpt lat="45.0847" lon="5.59732">
        <ele>1363.4</ele>
        <time>2021-10-10T09:13:18Z</time>
      </trkpt>
      <trkpt lat="45.0847" lon="5.59731">
        <ele>1363.4</ele>
        <time>2021-10-10T09:13:19Z</time>
      </trkpt>
      <trkpt lat="45.08472" lon="5.59729">
        <ele>1363.4</ele>
        <time>2021-10-10T09:13:20Z</time>
      </trkpt>
      <trkpt lat="45.08473" lon="5.59728">
        <ele>1364</ele>
        <time>2021-10-10T09:13:21Z</time>
      </trkpt>
      <trkpt lat="45.08473" lon="5.59726">
        <ele>1364</ele>
        <time>2021-10-10T09:13:22Z</time>
      </trkpt>
      <trkpt lat="45.08472" lon="5.59723">
        <ele>1364</ele>
        <time>2021-10-10T09:13:23Z</time>
      </trkpt>
      <trkpt lat="45.08474" lon="5.59721">
        <ele>1364</ele>
        <time>2021-10-10T09:13:24Z</time>
      </trkpt>
      <trkpt lat="45.08475" lon="5.5972">
        <ele>1364.4</ele>
        <time>2021-10-10T09:13:25Z</time>
      </trkpt>
      <trkpt lat="45.08476" lon="5.59718">
        <ele>1364.8</ele>
        <time>2021-10-10T09:13:26Z</time>
      </trkpt>
      <trkpt lat="45.08476" lon="5.59717">
        <ele>1364.8</ele>
        <time>2021-10-10T09:13:27Z</time>
      </trkpt>
      <trkpt lat="45.08476" lon="5.59714">
        <ele>1364.8</ele>
        <time>2021-10-10T09:13:28Z</time>
      </trkpt>
      <trkpt lat="45.08478" lon="5.59713">
        <ele>1364.8</ele>
        <time>2021-10-10T09:13:29Z</time>
      </trkpt>
      <trkpt lat="45.08479" lon="5.59712">
        <ele>1365.4</ele>
        <time>2021-10-10T09:13:30Z</time>
      </trkpt>
      <trkpt lat="45.0848" lon="5.5971">
        <ele>1365.4</ele>
        <time>2021-10-10T09:13:31Z</time>
      </trkpt>
      <trkpt lat="45.08481" lon="5.59709">
        <ele>1365.4</ele>
        <time>2021-10-10T09:13:32Z</time>
      </trkpt>
      <trkpt lat="45.08482" lon="5.59709">
        <ele>1366.4</ele>
        <time>2021-10-10T09:13:33Z</time>
      </trkpt>
      <trkpt lat="45.08484" lon="5.59709">
        <ele>1365.6</ele>
        <time>2021-10-10T09:13:34Z</time>
      </trkpt>
      <trkpt lat="45.08485" lon="5.59709">
        <ele>1365.6</ele>
        <time>2021-10-10T09:13:35Z</time>
      </trkpt>
      <trkpt lat="45.08486" lon="5.59709">
        <ele>1365.6</ele>
        <time>2021-10-10T09:13:36Z</time>
      </trkpt>
      <trkpt lat="45.08487" lon="5.59708">
        <ele>1366.6</ele>
        <time>2021-10-10T09:13:37Z</time>
      </trkpt>
      <trkpt lat="45.08487" lon="5.59707">
        <ele>1367</ele>
        <time>2021-10-10T09:13:38Z</time>
      </trkpt>
      <trkpt lat="45.08488" lon="5.59707">
        <ele>1367</ele>
        <time>2021-10-10T09:13:39Z</time>
      </trkpt>
      <trkpt lat="45.08489" lon="5.59706">
        <ele>1367</ele>
        <time>2021-10-10T09:13:40Z</time>
      </trkpt>
      <trkpt lat="45.08489" lon="5.59706">
        <ele>1367</ele>
        <time>2021-10-10T09:13:41Z</time>
      </trkpt>
      <trkpt lat="45.0849" lon="5.59705">
        <ele>1367</ele>
        <time>2021-10-10T09:13:42Z</time>
      </trkpt>
      <trkpt lat="45.08491" lon="5.59705">
        <ele>1367.2</ele>
        <time>2021-10-10T09:13:43Z</time>
      </trkpt>
      <trkpt lat="45.08492" lon="5.59704">
        <ele>1367.2</ele>
        <time>2021-10-10T09:13:44Z</time>
      </trkpt>
      <trkpt lat="45.08492" lon="5.59703">
        <ele>1367.2</ele>
        <time>2021-10-10T09:13:45Z</time>
      </trkpt>
      <trkpt lat="45.08523" lon="5.59689">
        <ele>1372.2</ele>
        <time>2021-10-10T09:14:24Z</time>
      </trkpt>
      <trkpt lat="45.08523" lon="5.59689">
        <ele>1372.2</ele>
        <time>2021-10-10T09:14:25Z</time>
      </trkpt>
      <trkpt lat="45.08527" lon="5.5969">
        <ele>1372.8</ele>
        <time>2021-10-10T09:14:26Z</time>
      </trkpt>
      <trkpt lat="45.08527" lon="5.5969">
        <ele>1372.8</ele>
        <time>2021-10-10T09:14:27Z</time>
      </trkpt>
      <trkpt lat="45.08527" lon="5.5969">
        <ele>1372.8</ele>
        <time>2021-10-10T09:14:28Z</time>
      </trkpt>
      <trkpt lat="45.08528" lon="5.5969">
        <ele>1373.2</ele>
        <time>2021-10-10T09:14:29Z</time>
      </trkpt>
      <trkpt lat="45.08528" lon="5.59689">
        <ele>1373</ele>
        <time>2021-10-10T09:14:30Z</time>
      </trkpt>
      <trkpt lat="45.08529" lon="5.5969">
        <ele>1373</ele>
        <time>2021-10-10T09:14:31Z</time>
      </trkpt>
      <trkpt lat="45.0853" lon="5.5969">
        <ele>1373</ele>
        <time>2021-10-10T09:14:32Z</time>
      </trkpt>
      <trkpt lat="45.0853" lon="5.5969">
        <ele>1373.6</ele>
        <time>2021-10-10T09:14:33Z</time>
      </trkpt>
      <trkpt lat="45.08531" lon="5.5969">
        <ele>1374</ele>
        <time>2021-10-10T09:14:34Z</time>
      </trkpt>
      <trkpt lat="45.08532" lon="5.5969">
        <ele>1374</ele>
        <time>2021-10-10T09:14:35Z</time>
      </trkpt>
      <trkpt lat="45.08532" lon="5.5969">
        <ele>1374</ele>
        <time>2021-10-10T09:14:36Z</time>
      </trkpt>
      <trkpt lat="45.08533" lon="5.59689">
        <ele>1374</ele>
        <time>2021-10-10T09:14:37Z</time>
      </trkpt>
      <trkpt lat="45.08534" lon="5.5969">
        <ele>1374.2</ele>
        <time>2021-10-10T09:14:38Z</time>
      </trkpt>
      <trkpt lat="45.08535" lon="5.5969">
        <ele>1374.2</ele>
        <time>2021-10-10T09:14:39Z</time>
      </trkpt>
      <trkpt lat="45.08535" lon="5.59689">
        <ele>1374.2</ele>
        <time>2021-10-10T09:14:40Z</time>
      </trkpt>
      <trkpt lat="45.08536" lon="5.59689">
        <ele>1374.6</ele>
        <time>2021-10-10T09:14:41Z</time>
      </trkpt>
      <trkpt lat="45.08545" lon="5.59687">
        <ele>1374.4</ele>
        <time>2021-10-10T09:14:52Z</time>
      </trkpt>
      <trkpt lat="45.08546" lon="5.59687">
        <ele>1374.6</ele>
        <time>2021-10-10T09:14:53Z</time>
      </trkpt>
      <trkpt lat="45.08548" lon="5.59687">
        <ele>1374.4</ele>
        <time>2021-10-10T09:14:54Z</time>
      </trkpt>
      <trkpt lat="45.08549" lon="5.59688">
        <ele>1374.4</ele>
        <time>2021-10-10T09:14:55Z</time>
      </trkpt>
      <trkpt lat="45.08551" lon="5.59689">
        <ele>1374.4</ele>
        <time>2021-10-10T09:14:56Z</time>
      </trkpt>
      <trkpt lat="45.08553" lon="5.59691">
        <ele>1375.4</ele>
        <time>2021-10-10T09:14:57Z</time>
      </trkpt>
      <trkpt lat="45.08555" lon="5.59692">
        <ele>1375.4</ele>
        <time>2021-10-10T09:14:58Z</time>
      </trkpt>
      <trkpt lat="45.08556" lon="5.59693">
        <ele>1375.4</ele>
        <time>2021-10-10T09:14:59Z</time>
      </trkpt>
      <trkpt lat="45.08558" lon="5.59693">
        <ele>1375.4</ele>
        <time>2021-10-10T09:15:00Z</time>
      </trkpt>
      <trkpt lat="45.08559" lon="5.59693">
        <ele>1375.4</ele>
        <time>2021-10-10T09:15:01Z</time>
      </trkpt>
      <trkpt lat="45.08561" lon="5.59693">
        <ele>1376</ele>
        <time>2021-10-10T09:15:02Z</time>
      </trkpt>
      <trkpt lat="45.08563" lon="5.59692">
        <ele>1376</ele>
        <time>2021-10-10T09:15:03Z</time>
      </trkpt>
      <trkpt lat="45.08565" lon="5.59692">
        <ele>1376</ele>
        <time>2021-10-10T09:15:04Z</time>
      </trkpt>
      <trkpt lat="45.08566" lon="5.59691">
        <ele>1376</ele>
        <time>2021-10-10T09:15:05Z</time>
      </trkpt>
      <trkpt lat="45.08568" lon="5.59691">
        <ele>1376.4</ele>
        <time>2021-10-10T09:15:06Z</time>
      </trkpt>
      <trkpt lat="45.08569" lon="5.5969">
        <ele>1376.4</ele>
        <time>2021-10-10T09:15:07Z</time>
      </trkpt>
      <trkpt lat="45.08571" lon="5.5969">
        <ele>1376.4</ele>
        <time>2021-10-10T09:15:08Z</time>
      </trkpt>
      <trkpt lat="45.08572" lon="5.59688">
        <ele>1376.4</ele>
        <time>2021-10-10T09:15:09Z</time>
      </trkpt>
      <trkpt lat="45.08572" lon="5.59687">
        <ele>1376.6</ele>
        <time>2021-10-10T09:15:10Z</time>
      </trkpt>
      <trkpt lat="45.08573" lon="5.59685">
        <ele>1376.6</ele>
        <time>2021-10-10T09:15:11Z</time>
      </trkpt>
      <trkpt lat="45.08574" lon="5.59683">
        <ele>1376.6</ele>
        <time>2021-10-10T09:15:12Z</time>
      </trkpt>
      <trkpt lat="45.08574" lon="5.59681">
        <ele>1377.2</ele>
        <time>2021-10-10T09:15:13Z</time>
      </trkpt>
      <trkpt lat="45.08575" lon="5.59678">
        <ele>1377.8</ele>
        <time>2021-10-10T09:15:14Z</time>
      </trkpt>
      <trkpt lat="45.08575" lon="5.59677">
        <ele>1377.8</ele>
        <time>2021-10-10T09:15:15Z</time>
      </trkpt>
      <trkpt lat="45.08576" lon="5.59676">
        <ele>1377.8</ele>
        <time>2021-10-10T09:15:16Z</time>
      </trkpt>
      <trkpt lat="45.08576" lon="5.59675">
        <ele>1377.8</ele>
        <time>2021-10-10T09:15:17Z</time>
      </trkpt>
      <trkpt lat="45.08576" lon="5.59674">
        <ele>1378.2</ele>
        <time>2021-10-10T09:15:18Z</time>
      </trkpt>
      <trkpt lat="45.08576" lon="5.59673">
        <ele>1378.2</ele>
        <time>2021-10-10T09:15:19Z</time>
      </trkpt>
      <trkpt lat="45.08576" lon="5.59672">
        <ele>1378.2</ele>
        <time>2021-10-10T09:15:20Z</time>
      </trkpt>
      <trkpt lat="45.08576" lon="5.59671">
        <ele>1378.2</ele>
        <time>2021-10-10T09:15:21Z</time>
      </trkpt>
      <trkpt lat="45.08577" lon="5.5967">
        <ele>1378.8</ele>
        <time>2021-10-10T09:15:22Z</time>
      </trkpt>
      <trkpt lat="45.08577" lon="5.59669">
        <ele>1378.8</ele>
        <time>2021-10-10T09:15:23Z</time>
      </trkpt>
      <trkpt lat="45.08576" lon="5.59668">
        <ele>1378.8</ele>
        <time>2021-10-10T09:15:24Z</time>
      </trkpt>
      <trkpt lat="45.08577" lon="5.59667">
        <ele>1379.2</ele>
        <time>2021-10-10T09:15:25Z</time>
      </trkpt>
      <trkpt lat="45.08577" lon="5.59666">
        <ele>1379.4</ele>
        <time>2021-10-10T09:15:26Z</time>
      </trkpt>
      <trkpt lat="45.08577" lon="5.59665">
        <ele>1379.4</ele>
        <time>2021-10-10T09:15:27Z</time>
      </trkpt>
      <trkpt lat="45.08577" lon="5.59664">
        <ele>1379.4</ele>
        <time>2021-10-10T09:15:28Z</time>
      </trkpt>
      <trkpt lat="45.08578" lon="5.59663">
        <ele>1380.4</ele>
        <time>2021-10-10T09:15:29Z</time>
      </trkpt>
      <trkpt lat="45.08578" lon="5.59662">
        <ele>1380.4</ele>
        <time>2021-10-10T09:15:30Z</time>
      </trkpt>
      <trkpt lat="45.08578" lon="5.59661">
        <ele>1380.4</ele>
        <time>2021-10-10T09:15:31Z</time>
      </trkpt>
      <trkpt lat="45.08579" lon="5.59661">
        <ele>1380.4</ele>
        <time>2021-10-10T09:15:32Z</time>
      </trkpt>
      <trkpt lat="45.0858" lon="5.59661">
        <ele>1380.4</ele>
        <time>2021-10-10T09:15:33Z</time>
      </trkpt>
      <trkpt lat="45.0858" lon="5.5966">
        <ele>1380.8</ele>
        <time>2021-10-10T09:15:34Z</time>
      </trkpt>
      <trkpt lat="45.0858" lon="5.59659">
        <ele>1380.8</ele>
        <time>2021-10-10T09:15:35Z</time>
      </trkpt>
      <trkpt lat="45.0858" lon="5.59658">
        <ele>1380.8</ele>
        <time>2021-10-10T09:15:36Z</time>
      </trkpt>
      <trkpt lat="45.08581" lon="5.59657">
        <ele>1381</ele>
        <time>2021-10-10T09:15:37Z</time>
      </trkpt>
      <trkpt lat="45.08581" lon="5.59656">
        <ele>1381.2</ele>
        <time>2021-10-10T09:15:38Z</time>
      </trkpt>
      <trkpt lat="45.08581" lon="5.59655">
        <ele>1381.2</ele>
        <time>2021-10-10T09:15:39Z</time>
      </trkpt>
      <trkpt lat="45.08581" lon="5.59654">
        <ele>1381.2</ele>
        <time>2021-10-10T09:15:40Z</time>
      </trkpt>
      <trkpt lat="45.08581" lon="5.59653">
        <ele>1381.2</ele>
        <time>2021-10-10T09:15:41Z</time>
      </trkpt>
      <trkpt lat="45.08581" lon="5.59652">
        <ele>1381.6</ele>
        <time>2021-10-10T09:15:42Z</time>
      </trkpt>
      <trkpt lat="45.08582" lon="5.59651">
        <ele>1381.6</ele>
        <time>2021-10-10T09:15:43Z</time>
      </trkpt>
      <trkpt lat="45.08583" lon="5.5965">
        <ele>1381.6</ele>
        <time>2021-10-10T09:15:44Z</time>
      </trkpt>
      <trkpt lat="45.08583" lon="5.59649">
        <ele>1382.2</ele>
        <time>2021-10-10T09:15:45Z</time>
      </trkpt>
      <trkpt lat="45.08583" lon="5.59648">
        <ele>1382</ele>
        <time>2021-10-10T09:15:46Z</time>
      </trkpt>
      <trkpt lat="45.08583" lon="5.59647">
        <ele>1382</ele>
        <time>2021-10-10T09:15:47Z</time>
      </trkpt>
      <trkpt lat="45.08583" lon="5.59646">
        <ele>1382</ele>
        <time>2021-10-10T09:15:48Z</time>
      </trkpt>
      <trkpt lat="45.08583" lon="5.59645">
        <ele>1382.4</ele>
        <time>2021-10-10T09:15:49Z</time>
      </trkpt>
      <trkpt lat="45.08584" lon="5.59644">
        <ele>1382.4</ele>
        <time>2021-10-10T09:15:50Z</time>
      </trkpt>
      <trkpt lat="45.08584" lon="5.59643">
        <ele>1382.4</ele>
        <time>2021-10-10T09:15:51Z</time>
      </trkpt>
      <trkpt lat="45.08584" lon="5.59641">
        <ele>1382.4</ele>
        <time>2021-10-10T09:15:52Z</time>
      </trkpt>
      <trkpt lat="45.08584" lon="5.5964">
        <ele>1382.8</ele>
        <time>2021-10-10T09:15:53Z</time>
      </trkpt>
      <trkpt lat="45.08585" lon="5.59638">
        <ele>1383</ele>
        <time>2021-10-10T09:15:54Z</time>
      </trkpt>
      <trkpt lat="45.08585" lon="5.59637">
        <ele>1383</ele>
        <time>2021-10-10T09:15:55Z</time>
      </trkpt>
      <trkpt lat="45.08586" lon="5.59636">
        <ele>1383</ele>
        <time>2021-10-10T09:15:56Z</time>
      </trkpt>
      <trkpt lat="45.08586" lon="5.59635">
        <ele>1383</ele>
        <time>2021-10-10T09:15:57Z</time>
      </trkpt>
      <trkpt lat="45.08586" lon="5.59634">
        <ele>1383.6</ele>
        <time>2021-10-10T09:15:58Z</time>
      </trkpt>
      <trkpt lat="45.08586" lon="5.59633">
        <ele>1383.6</ele>
        <time>2021-10-10T09:15:59Z</time>
      </trkpt>
      <trkpt lat="45.08587" lon="5.59632">
        <ele>1383.6</ele>
        <time>2021-10-10T09:16:00Z</time>
      </trkpt>
      <trkpt lat="45.08588" lon="5.59631">
        <ele>1384</ele>
        <time>2021-10-10T09:16:01Z</time>
      </trkpt>
      <trkpt lat="45.08589" lon="5.5963">
        <ele>1384.2</ele>
        <time>2021-10-10T09:16:02Z</time>
      </trkpt>
      <trkpt lat="45.0859" lon="5.59629">
        <ele>1384.2</ele>
        <time>2021-10-10T09:16:03Z</time>
      </trkpt>
      <trkpt lat="45.0859" lon="5.59628">
        <ele>1384.2</ele>
        <time>2021-10-10T09:16:04Z</time>
      </trkpt>
      <trkpt lat="45.08591" lon="5.59628">
        <ele>1385</ele>
        <time>2021-10-10T09:16:05Z</time>
      </trkpt>
      <trkpt lat="45.08592" lon="5.59627">
        <ele>1384.6</ele>
        <time>2021-10-10T09:16:06Z</time>
      </trkpt>
      <trkpt lat="45.08592" lon="5.59627">
        <ele>1384.6</ele>
        <time>2021-10-10T09:16:07Z</time>
      </trkpt>
      <trkpt lat="45.08593" lon="5.59627">
        <ele>1384.6</ele>
        <time>2021-10-10T09:16:08Z</time>
      </trkpt>
      <trkpt lat="45.08593" lon="5.59626">
        <ele>1385.2</ele>
        <time>2021-10-10T09:16:09Z</time>
      </trkpt>
      <trkpt lat="45.08594" lon="5.59626">
        <ele>1384.8</ele>
        <time>2021-10-10T09:16:10Z</time>
      </trkpt>
      <trkpt lat="45.08595" lon="5.59625">
        <ele>1384.8</ele>
        <time>2021-10-10T09:16:11Z</time>
      </trkpt>
      <trkpt lat="45.08595" lon="5.59623">
        <ele>1384.8</ele>
        <time>2021-10-10T09:16:12Z</time>
      </trkpt>
      <trkpt lat="45.08596" lon="5.59623">
        <ele>1385.4</ele>
        <time>2021-10-10T09:16:13Z</time>
      </trkpt>
      <trkpt lat="45.08597" lon="5.59623">
        <ele>1385.8</ele>
        <time>2021-10-10T09:16:14Z</time>
      </trkpt>
      <trkpt lat="45.08597" lon="5.59622">
        <ele>1385.8</ele>
        <time>2021-10-10T09:16:15Z</time>
      </trkpt>
      <trkpt lat="45.08597" lon="5.59621">
        <ele>1385.8</ele>
        <time>2021-10-10T09:16:16Z</time>
      </trkpt>
      <trkpt lat="45.08598" lon="5.59621">
        <ele>1385.6</ele>
        <time>2021-10-10T09:16:17Z</time>
      </trkpt>
      <trkpt lat="45.08599" lon="5.5962">
        <ele>1385.8</ele>
        <time>2021-10-10T09:16:18Z</time>
      </trkpt>
      <trkpt lat="45.08599" lon="5.59619">
        <ele>1385.8</ele>
        <time>2021-10-10T09:16:19Z</time>
      </trkpt>
      <trkpt lat="45.086" lon="5.59618">
        <ele>1385.8</ele>
        <time>2021-10-10T09:16:20Z</time>
      </trkpt>
      <trkpt lat="45.08601" lon="5.59617">
        <ele>1385.8</ele>
        <time>2021-10-10T09:16:21Z</time>
      </trkpt>
      <trkpt lat="45.08601" lon="5.59616">
        <ele>1386</ele>
        <time>2021-10-10T09:16:22Z</time>
      </trkpt>
      <trkpt lat="45.08601" lon="5.59615">
        <ele>1386</ele>
        <time>2021-10-10T09:16:23Z</time>
      </trkpt>
      <trkpt lat="45.08601" lon="5.59615">
        <ele>1386</ele>
        <time>2021-10-10T09:16:24Z</time>
      </trkpt>
      <trkpt lat="45.08602" lon="5.59614">
        <ele>1386.8</ele>
        <time>2021-10-10T09:16:25Z</time>
      </trkpt>
      <trkpt lat="45.08603" lon="5.59613">
        <ele>1387.4</ele>
        <time>2021-10-10T09:16:26Z</time>
      </trkpt>
      <trkpt lat="45.08604" lon="5.59613">
        <ele>1387.4</ele>
        <time>2021-10-10T09:16:27Z</time>
      </trkpt>
      <trkpt lat="45.08604" lon="5.59612">
        <ele>1387.4</ele>
        <time>2021-10-10T09:16:28Z</time>
      </trkpt>
      <trkpt lat="45.08605" lon="5.59611">
        <ele>1387.4</ele>
        <time>2021-10-10T09:16:29Z</time>
      </trkpt>
      <trkpt lat="45.08606" lon="5.59611">
        <ele>1387.4</ele>
        <time>2021-10-10T09:16:30Z</time>
      </trkpt>
      <trkpt lat="45.08607" lon="5.5961">
        <ele>1387.4</ele>
        <time>2021-10-10T09:16:31Z</time>
      </trkpt>
      <trkpt lat="45.08607" lon="5.59609">
        <ele>1387.4</ele>
        <time>2021-10-10T09:16:32Z</time>
      </trkpt>
      <trkpt lat="45.08607" lon="5.59608">
        <ele>1388.4</ele>
        <time>2021-10-10T09:16:33Z</time>
      </trkpt>
      <trkpt lat="45.08607" lon="5.59607">
        <ele>1387.6</ele>
        <time>2021-10-10T09:16:34Z</time>
      </trkpt>
      <trkpt lat="45.08608" lon="5.59606">
        <ele>1387.6</ele>
        <time>2021-10-10T09:16:35Z</time>
      </trkpt>
      <trkpt lat="45.08609" lon="5.59605">
        <ele>1387.6</ele>
        <time>2021-10-10T09:16:36Z</time>
      </trkpt>
      <trkpt lat="45.0861" lon="5.59604">
        <ele>1388.6</ele>
        <time>2021-10-10T09:16:37Z</time>
      </trkpt>
      <trkpt lat="45.08611" lon="5.59604">
        <ele>1388.6</ele>
        <time>2021-10-10T09:16:38Z</time>
      </trkpt>
      <trkpt lat="45.08613" lon="5.59603">
        <ele>1388.6</ele>
        <time>2021-10-10T09:16:39Z</time>
      </trkpt>
      <trkpt lat="45.08614" lon="5.59603">
        <ele>1388.6</ele>
        <time>2021-10-10T09:16:40Z</time>
      </trkpt>
      <trkpt lat="45.08615" lon="5.59602">
        <ele>1388.6</ele>
        <time>2021-10-10T09:16:41Z</time>
      </trkpt>
      <trkpt lat="45.08615" lon="5.59601">
        <ele>1389.2</ele>
        <time>2021-10-10T09:16:42Z</time>
      </trkpt>
      <trkpt lat="45.08616" lon="5.596">
        <ele>1389.2</ele>
        <time>2021-10-10T09:16:43Z</time>
      </trkpt>
      <trkpt lat="45.08616" lon="5.59599">
        <ele>1389.2</ele>
        <time>2021-10-10T09:16:44Z</time>
      </trkpt>
      <trkpt lat="45.08617" lon="5.59598">
        <ele>1389.2</ele>
        <time>2021-10-10T09:16:45Z</time>
      </trkpt>
      <trkpt lat="45.08617" lon="5.59598">
        <ele>1389.6</ele>
        <time>2021-10-10T09:16:46Z</time>
      </trkpt>
      <trkpt lat="45.08618" lon="5.59597">
        <ele>1389.6</ele>
        <time>2021-10-10T09:16:47Z</time>
      </trkpt>
      <trkpt lat="45.08618" lon="5.59595">
        <ele>1389.6</ele>
        <time>2021-10-10T09:16:48Z</time>
      </trkpt>
      <trkpt lat="45.08619" lon="5.59594">
        <ele>1389.6</ele>
        <time>2021-10-10T09:16:49Z</time>
      </trkpt>
      <trkpt lat="45.08619" lon="5.59594">
        <ele>1390.4</ele>
        <time>2021-10-10T09:16:50Z</time>
      </trkpt>
      <trkpt lat="45.0862" lon="5.59593">
        <ele>1390.4</ele>
        <time>2021-10-10T09:16:51Z</time>
      </trkpt>
      <trkpt lat="45.0862" lon="5.59592">
        <ele>1390.4</ele>
        <time>2021-10-10T09:16:52Z</time>
      </trkpt>
      <trkpt lat="45.08621" lon="5.59591">
        <ele>1390.2</ele>
        <time>2021-10-10T09:16:53Z</time>
      </trkpt>
      <trkpt lat="45.08621" lon="5.5959">
        <ele>1390.4</ele>
        <time>2021-10-10T09:16:54Z</time>
      </trkpt>
      <trkpt lat="45.08622" lon="5.59589">
        <ele>1390.4</ele>
        <time>2021-10-10T09:16:55Z</time>
      </trkpt>
      <trkpt lat="45.08622" lon="5.59588">
        <ele>1390.4</ele>
        <time>2021-10-10T09:16:56Z</time>
      </trkpt>
      <trkpt lat="45.08623" lon="5.59588">
        <ele>1390.8</ele>
        <time>2021-10-10T09:16:57Z</time>
      </trkpt>
      <trkpt lat="45.08623" lon="5.59586">
        <ele>1391.2</ele>
        <time>2021-10-10T09:16:58Z</time>
      </trkpt>
      <trkpt lat="45.08624" lon="5.59585">
        <ele>1391.2</ele>
        <time>2021-10-10T09:16:59Z</time>
      </trkpt>
      <trkpt lat="45.08625" lon="5.59585">
        <ele>1391.2</ele>
        <time>2021-10-10T09:17:00Z</time>
      </trkpt>
      <trkpt lat="45.08625" lon="5.59584">
        <ele>1391.2</ele>
        <time>2021-10-10T09:17:01Z</time>
      </trkpt>
      <trkpt lat="45.08626" lon="5.59583">
        <ele>1391.4</ele>
        <time>2021-10-10T09:17:02Z</time>
      </trkpt>
      <trkpt lat="45.08627" lon="5.59583">
        <ele>1391.4</ele>
        <time>2021-10-10T09:17:03Z</time>
      </trkpt>
      <trkpt lat="45.08628" lon="5.59583">
        <ele>1391.4</ele>
        <time>2021-10-10T09:17:04Z</time>
      </trkpt>
      <trkpt lat="45.08628" lon="5.59582">
        <ele>1391.4</ele>
        <time>2021-10-10T09:17:05Z</time>
      </trkpt>
      <trkpt lat="45.08629" lon="5.59582">
        <ele>1391.4</ele>
        <time>2021-10-10T09:17:06Z</time>
      </trkpt>
      <trkpt lat="45.0863" lon="5.59581">
        <ele>1391.4</ele>
        <time>2021-10-10T09:17:07Z</time>
      </trkpt>
      <trkpt lat="45.08631" lon="5.59581">
        <ele>1391.4</ele>
        <time>2021-10-10T09:17:08Z</time>
      </trkpt>
      <trkpt lat="45.08631" lon="5.5958">
        <ele>1391.6</ele>
        <time>2021-10-10T09:17:09Z</time>
      </trkpt>
      <trkpt lat="45.08632" lon="5.59579">
        <ele>1391.8</ele>
        <time>2021-10-10T09:17:10Z</time>
      </trkpt>
      <trkpt lat="45.08632" lon="5.59578">
        <ele>1391.8</ele>
        <time>2021-10-10T09:17:11Z</time>
      </trkpt>
      <trkpt lat="45.08636" lon="5.59574">
        <ele>1391.6</ele>
        <time>2021-10-10T09:21:49Z</time>
      </trkpt>
      <trkpt lat="45.08636" lon="5.59573">
        <ele>1391.6</ele>
        <time>2021-10-10T09:21:50Z</time>
      </trkpt>
      <trkpt lat="45.08637" lon="5.59571">
        <ele>1391.6</ele>
        <time>2021-10-10T09:21:51Z</time>
      </trkpt>
      <trkpt lat="45.08638" lon="5.59569">
        <ele>1391.6</ele>
        <time>2021-10-10T09:21:52Z</time>
      </trkpt>
      <trkpt lat="45.08639" lon="5.59567">
        <ele>1390.6</ele>
        <time>2021-10-10T09:21:53Z</time>
      </trkpt>
      <trkpt lat="45.08639" lon="5.59564">
        <ele>1390.6</ele>
        <time>2021-10-10T09:21:54Z</time>
      </trkpt>
      <trkpt lat="45.08639" lon="5.5956">
        <ele>1390.6</ele>
        <time>2021-10-10T09:21:55Z</time>
      </trkpt>
      <trkpt lat="45.0864" lon="5.59556">
        <ele>1390.6</ele>
        <time>2021-10-10T09:21:56Z</time>
      </trkpt>
      <trkpt lat="45.08641" lon="5.59553">
        <ele>1390.6</ele>
        <time>2021-10-10T09:21:57Z</time>
      </trkpt>
      <trkpt lat="45.08642" lon="5.59548">
        <ele>1387.8</ele>
        <time>2021-10-10T09:21:58Z</time>
      </trkpt>
      <trkpt lat="45.08643" lon="5.59542">
        <ele>1387.8</ele>
        <time>2021-10-10T09:21:59Z</time>
      </trkpt>
      <trkpt lat="45.08645" lon="5.59537">
        <ele>1387.8</ele>
        <time>2021-10-10T09:22:00Z</time>
      </trkpt>
      <trkpt lat="45.08646" lon="5.5953">
        <ele>1386.8</ele>
        <time>2021-10-10T09:22:01Z</time>
      </trkpt>
      <trkpt lat="45.08648" lon="5.59522">
        <ele>1385.2</ele>
        <time>2021-10-10T09:22:02Z</time>
      </trkpt>
      <trkpt lat="45.0865" lon="5.59514">
        <ele>1385.2</ele>
        <time>2021-10-10T09:22:03Z</time>
      </trkpt>
      <trkpt lat="45.08653" lon="5.59507">
        <ele>1385.2</ele>
        <time>2021-10-10T09:22:04Z</time>
      </trkpt>
      <trkpt lat="45.08655" lon="5.595">
        <ele>1384.2</ele>
        <time>2021-10-10T09:22:05Z</time>
      </trkpt>
      <trkpt lat="45.08657" lon="5.59494">
        <ele>1383.8</ele>
        <time>2021-10-10T09:22:06Z</time>
      </trkpt>
      <trkpt lat="45.08657" lon="5.59488">
        <ele>1383.8</ele>
        <time>2021-10-10T09:22:07Z</time>
      </trkpt>
      <trkpt lat="45.08659" lon="5.59482">
        <ele>1383.8</ele>
        <time>2021-10-10T09:22:08Z</time>
      </trkpt>
      <trkpt lat="45.08662" lon="5.59477">
        <ele>1383.8</ele>
        <time>2021-10-10T09:22:09Z</time>
      </trkpt>
      <trkpt lat="45.08664" lon="5.59474">
        <ele>1384</ele>
        <time>2021-10-10T09:22:10Z</time>
      </trkpt>
      <trkpt lat="45.08665" lon="5.59473">
        <ele>1384</ele>
        <time>2021-10-10T09:22:11Z</time>
      </trkpt>
      <trkpt lat="45.08667" lon="5.59473">
        <ele>1384.2</ele>
        <time>2021-10-10T09:22:18Z</time>
      </trkpt>
      <trkpt lat="45.08667" lon="5.59471">
        <ele>1384.2</ele>
        <time>2021-10-10T09:22:19Z</time>
      </trkpt>
      <trkpt lat="45.08667" lon="5.5947">
        <ele>1384.2</ele>
        <time>2021-10-10T09:22:20Z</time>
      </trkpt>
      <trkpt lat="45.08668" lon="5.59467">
        <ele>1384</ele>
        <time>2021-10-10T09:22:21Z</time>
      </trkpt>
      <trkpt lat="45.08669" lon="5.59466">
        <ele>1383.8</ele>
        <time>2021-10-10T09:22:22Z</time>
      </trkpt>
      <trkpt lat="45.0867" lon="5.59465">
        <ele>1383.8</ele>
        <time>2021-10-10T09:22:23Z</time>
      </trkpt>
      <trkpt lat="45.08671" lon="5.59464">
        <ele>1383.8</ele>
        <time>2021-10-10T09:22:24Z</time>
      </trkpt>
      <trkpt lat="45.08672" lon="5.59463">
        <ele>1383.8</ele>
        <time>2021-10-10T09:22:25Z</time>
      </trkpt>
      <trkpt lat="45.08674" lon="5.59462">
        <ele>1383</ele>
        <time>2021-10-10T09:22:26Z</time>
      </trkpt>
      <trkpt lat="45.08676" lon="5.59461">
        <ele>1383</ele>
        <time>2021-10-10T09:22:27Z</time>
      </trkpt>
      <trkpt lat="45.08679" lon="5.5946">
        <ele>1383</ele>
        <time>2021-10-10T09:22:28Z</time>
      </trkpt>
      <trkpt lat="45.08681" lon="5.59459">
        <ele>1382</ele>
        <time>2021-10-10T09:22:29Z</time>
      </trkpt>
      <trkpt lat="45.08685" lon="5.5946">
        <ele>1382</ele>
        <time>2021-10-10T09:22:30Z</time>
      </trkpt>
      <trkpt lat="45.08688" lon="5.5946">
        <ele>1382</ele>
        <time>2021-10-10T09:22:31Z</time>
      </trkpt>
      <trkpt lat="45.08691" lon="5.5946">
        <ele>1382</ele>
        <time>2021-10-10T09:22:32Z</time>
      </trkpt>
      <trkpt lat="45.08694" lon="5.5946">
        <ele>1382</ele>
        <time>2021-10-10T09:22:33Z</time>
      </trkpt>
      <trkpt lat="45.08696" lon="5.59461">
        <ele>1382</ele>
        <time>2021-10-10T09:22:34Z</time>
      </trkpt>
      <trkpt lat="45.08697" lon="5.59461">
        <ele>1382</ele>
        <time>2021-10-10T09:22:35Z</time>
      </trkpt>
      <trkpt lat="45.08699" lon="5.59461">
        <ele>1382</ele>
        <time>2021-10-10T09:22:36Z</time>
      </trkpt>
      <trkpt lat="45.087" lon="5.59461">
        <ele>1382.8</ele>
        <time>2021-10-10T09:22:37Z</time>
      </trkpt>
      <trkpt lat="45.08701" lon="5.59461">
        <ele>1382.6</ele>
        <time>2021-10-10T09:22:38Z</time>
      </trkpt>
      <trkpt lat="45.08702" lon="5.59462">
        <ele>1382.6</ele>
        <time>2021-10-10T09:22:39Z</time>
      </trkpt>
      <trkpt lat="45.08703" lon="5.59463">
        <ele>1382.6</ele>
        <time>2021-10-10T09:22:40Z</time>
      </trkpt>
      <trkpt lat="45.08704" lon="5.59462">
        <ele>1382.6</ele>
        <time>2021-10-10T09:22:41Z</time>
      </trkpt>
      <trkpt lat="45.08705" lon="5.59462">
        <ele>1383</ele>
        <time>2021-10-10T09:22:42Z</time>
      </trkpt>
      <trkpt lat="45.08707" lon="5.59463">
        <ele>1383</ele>
        <time>2021-10-10T09:22:43Z</time>
      </trkpt>
      <trkpt lat="45.08708" lon="5.59464">
        <ele>1383</ele>
        <time>2021-10-10T09:22:44Z</time>
      </trkpt>
      <trkpt lat="45.08709" lon="5.59464">
        <ele>1383</ele>
        <time>2021-10-10T09:22:45Z</time>
      </trkpt>
      <trkpt lat="45.0871" lon="5.59465">
        <ele>1383.2</ele>
        <time>2021-10-10T09:22:46Z</time>
      </trkpt>
      <trkpt lat="45.08711" lon="5.59465">
        <ele>1383.2</ele>
        <time>2021-10-10T09:22:47Z</time>
      </trkpt>
      <trkpt lat="45.08712" lon="5.59465">
        <ele>1383.2</ele>
        <time>2021-10-10T09:22:48Z</time>
      </trkpt>
      <trkpt lat="45.08713" lon="5.59466">
        <ele>1383.4</ele>
        <time>2021-10-10T09:22:49Z</time>
      </trkpt>
      <trkpt lat="45.08714" lon="5.59467">
        <ele>1383.8</ele>
        <time>2021-10-10T09:22:50Z</time>
      </trkpt>
      <trkpt lat="45.08714" lon="5.59467">
        <ele>1383.8</ele>
        <time>2021-10-10T09:22:51Z</time>
      </trkpt>
      <trkpt lat="45.08724" lon="5.59467">
        <ele>1384.6</ele>
        <time>2021-10-10T09:23:19Z</time>
      </trkpt>
      <trkpt lat="45.08725" lon="5.59468">
        <ele>1384.6</ele>
        <time>2021-10-10T09:23:20Z</time>
      </trkpt>
      <trkpt lat="45.08726" lon="5.59469">
        <ele>1385.2</ele>
        <time>2021-10-10T09:23:21Z</time>
      </trkpt>
      <trkpt lat="45.08727" lon="5.5947">
        <ele>1386.2</ele>
        <time>2021-10-10T09:23:22Z</time>
      </trkpt>
      <trkpt lat="45.08729" lon="5.59471">
        <ele>1386.2</ele>
        <time>2021-10-10T09:23:23Z</time>
      </trkpt>
      <trkpt lat="45.0873" lon="5.59472">
        <ele>1386.2</ele>
        <time>2021-10-10T09:23:24Z</time>
      </trkpt>
      <trkpt lat="45.08732" lon="5.59472">
        <ele>1386.4</ele>
        <time>2021-10-10T09:23:25Z</time>
      </trkpt>
      <trkpt lat="45.08733" lon="5.59472">
        <ele>1387</ele>
        <time>2021-10-10T09:23:26Z</time>
      </trkpt>
      <trkpt lat="45.08735" lon="5.59473">
        <ele>1387</ele>
        <time>2021-10-10T09:23:27Z</time>
      </trkpt>
      <trkpt lat="45.08736" lon="5.59475">
        <ele>1387</ele>
        <time>2021-10-10T09:23:28Z</time>
      </trkpt>
      <trkpt lat="45.08738" lon="5.59476">
        <ele>1387.6</ele>
        <time>2021-10-10T09:23:29Z</time>
      </trkpt>
      <trkpt lat="45.08739" lon="5.59477">
        <ele>1387.4</ele>
        <time>2021-10-10T09:23:30Z</time>
      </trkpt>
      <trkpt lat="45.0874" lon="5.59478">
        <ele>1387.4</ele>
        <time>2021-10-10T09:23:31Z</time>
      </trkpt>
      <trkpt lat="45.08742" lon="5.59479">
        <ele>1387.4</ele>
        <time>2021-10-10T09:23:32Z</time>
      </trkpt>
      <trkpt lat="45.08744" lon="5.59481">
        <ele>1388.2</ele>
        <time>2021-10-10T09:23:33Z</time>
      </trkpt>
      <trkpt lat="45.08745" lon="5.59483">
        <ele>1388.2</ele>
        <time>2021-10-10T09:23:34Z</time>
      </trkpt>
      <trkpt lat="45.08746" lon="5.59484">
        <ele>1388.2</ele>
        <time>2021-10-10T09:23:35Z</time>
      </trkpt>
      <trkpt lat="45.08747" lon="5.59485">
        <ele>1388.2</ele>
        <time>2021-10-10T09:23:36Z</time>
      </trkpt>
      <trkpt lat="45.08748" lon="5.59486">
        <ele>1388.8</ele>
        <time>2021-10-10T09:23:37Z</time>
      </trkpt>
      <trkpt lat="45.0875" lon="5.59487">
        <ele>1388.8</ele>
        <time>2021-10-10T09:23:38Z</time>
      </trkpt>
      <trkpt lat="45.08751" lon="5.59488">
        <ele>1388.8</ele>
        <time>2021-10-10T09:23:39Z</time>
      </trkpt>
      <trkpt lat="45.08752" lon="5.59489">
        <ele>1388.8</ele>
        <time>2021-10-10T09:23:40Z</time>
      </trkpt>
      <trkpt lat="45.08753" lon="5.59489">
        <ele>1389.4</ele>
        <time>2021-10-10T09:23:41Z</time>
      </trkpt>
      <trkpt lat="45.08754" lon="5.59489">
        <ele>1389.8</ele>
        <time>2021-10-10T09:23:42Z</time>
      </trkpt>
      <trkpt lat="45.08755" lon="5.5949">
        <ele>1389.8</ele>
        <time>2021-10-10T09:23:43Z</time>
      </trkpt>
      <trkpt lat="45.08756" lon="5.59491">
        <ele>1389.8</ele>
        <time>2021-10-10T09:23:44Z</time>
      </trkpt>
      <trkpt lat="45.08757" lon="5.59491">
        <ele>1390.4</ele>
        <time>2021-10-10T09:23:45Z</time>
      </trkpt>
      <trkpt lat="45.08758" lon="5.59492">
        <ele>1390.6</ele>
        <time>2021-10-10T09:23:46Z</time>
      </trkpt>
      <trkpt lat="45.08759" lon="5.59493">
        <ele>1390.6</ele>
        <time>2021-10-10T09:23:47Z</time>
      </trkpt>
      <trkpt lat="45.0876" lon="5.59493">
        <ele>1390.6</ele>
        <time>2021-10-10T09:23:48Z</time>
      </trkpt>
      <trkpt lat="45.08761" lon="5.59494">
        <ele>1391.4</ele>
        <time>2021-10-10T09:23:49Z</time>
      </trkpt>
      <trkpt lat="45.08763" lon="5.59494">
        <ele>1391.6</ele>
        <time>2021-10-10T09:23:50Z</time>
      </trkpt>
      <trkpt lat="45.08764" lon="5.59495">
        <ele>1391.6</ele>
        <time>2021-10-10T09:23:51Z</time>
      </trkpt>
      <trkpt lat="45.08765" lon="5.59495">
        <ele>1391.6</ele>
        <time>2021-10-10T09:23:52Z</time>
      </trkpt>
      <trkpt lat="45.08766" lon="5.59496">
        <ele>1392.2</ele>
        <time>2021-10-10T09:23:53Z</time>
      </trkpt>
      <trkpt lat="45.08767" lon="5.59497">
        <ele>1393</ele>
        <time>2021-10-10T09:23:54Z</time>
      </trkpt>
      <trkpt lat="45.08768" lon="5.59497">
        <ele>1393</ele>
        <time>2021-10-10T09:23:55Z</time>
      </trkpt>
      <trkpt lat="45.08769" lon="5.59497">
        <ele>1393</ele>
        <time>2021-10-10T09:23:56Z</time>
      </trkpt>
      <trkpt lat="45.0877" lon="5.59498">
        <ele>1393</ele>
        <time>2021-10-10T09:23:57Z</time>
      </trkpt>
      <trkpt lat="45.08772" lon="5.59498">
        <ele>1393.8</ele>
        <time>2021-10-10T09:23:58Z</time>
      </trkpt>
      <trkpt lat="45.08773" lon="5.59499">
        <ele>1393.8</ele>
        <time>2021-10-10T09:23:59Z</time>
      </trkpt>
      <trkpt lat="45.08774" lon="5.59499">
        <ele>1393.8</ele>
        <time>2021-10-10T09:24:00Z</time>
      </trkpt>
      <trkpt lat="45.08775" lon="5.59499">
        <ele>1393.8</ele>
        <time>2021-10-10T09:24:01Z</time>
      </trkpt>
      <trkpt lat="45.08777" lon="5.59499">
        <ele>1394</ele>
        <time>2021-10-10T09:24:02Z</time>
      </trkpt>
      <trkpt lat="45.08778" lon="5.59499">
        <ele>1394</ele>
        <time>2021-10-10T09:24:03Z</time>
      </trkpt>
      <trkpt lat="45.08779" lon="5.59499">
        <ele>1394</ele>
        <time>2021-10-10T09:24:04Z</time>
      </trkpt>
      <trkpt lat="45.08781" lon="5.595">
        <ele>1394.6</ele>
        <time>2021-10-10T09:24:05Z</time>
      </trkpt>
      <trkpt lat="45.08782" lon="5.595">
        <ele>1394.6</ele>
        <time>2021-10-10T09:24:06Z</time>
      </trkpt>
      <trkpt lat="45.08783" lon="5.595">
        <ele>1394.6</ele>
        <time>2021-10-10T09:24:07Z</time>
      </trkpt>
      <trkpt lat="45.08785" lon="5.595">
        <ele>1394.6</ele>
        <time>2021-10-10T09:24:08Z</time>
      </trkpt>
      <trkpt lat="45.08786" lon="5.595">
        <ele>1395</ele>
        <time>2021-10-10T09:24:09Z</time>
      </trkpt>
      <trkpt lat="45.08787" lon="5.595">
        <ele>1395</ele>
        <time>2021-10-10T09:24:10Z</time>
      </trkpt>
      <trkpt lat="45.08788" lon="5.595">
        <ele>1395</ele>
        <time>2021-10-10T09:24:11Z</time>
      </trkpt>
      <trkpt lat="45.0879" lon="5.595">
        <ele>1395</ele>
        <time>2021-10-10T09:24:12Z</time>
      </trkpt>
      <trkpt lat="45.08791" lon="5.59501">
        <ele>1396</ele>
        <time>2021-10-10T09:24:13Z</time>
      </trkpt>
      <trkpt lat="45.08792" lon="5.595">
        <ele>1395.8</ele>
        <time>2021-10-10T09:24:14Z</time>
      </trkpt>
      <trkpt lat="45.08794" lon="5.59501">
        <ele>1395.8</ele>
        <time>2021-10-10T09:24:15Z</time>
      </trkpt>
      <trkpt lat="45.08795" lon="5.595">
        <ele>1395.8</ele>
        <time>2021-10-10T09:24:16Z</time>
      </trkpt>
      <trkpt lat="45.08797" lon="5.595">
        <ele>1396.2</ele>
        <time>2021-10-10T09:24:17Z</time>
      </trkpt>
      <trkpt lat="45.08798" lon="5.595">
        <ele>1396.4</ele>
        <time>2021-10-10T09:24:18Z</time>
      </trkpt>
      <trkpt lat="45.08799" lon="5.59499">
        <ele>1396.4</ele>
        <time>2021-10-10T09:24:19Z</time>
      </trkpt>
      <trkpt lat="45.08801" lon="5.59499">
        <ele>1396.4</ele>
        <time>2021-10-10T09:24:20Z</time>
      </trkpt>
      <trkpt lat="45.08802" lon="5.59498">
        <ele>1396.4</ele>
        <time>2021-10-10T09:24:21Z</time>
      </trkpt>
      <trkpt lat="45.08803" lon="5.59497">
        <ele>1397.4</ele>
        <time>2021-10-10T09:24:22Z</time>
      </trkpt>
      <trkpt lat="45.08805" lon="5.59496">
        <ele>1397.4</ele>
        <time>2021-10-10T09:24:23Z</time>
      </trkpt>
      <trkpt lat="45.08806" lon="5.59496">
        <ele>1397.4</ele>
        <time>2021-10-10T09:24:24Z</time>
      </trkpt>
      <trkpt lat="45.08807" lon="5.59495">
        <ele>1397.2</ele>
        <time>2021-10-10T09:24:25Z</time>
      </trkpt>
      <trkpt lat="45.08809" lon="5.59494">
        <ele>1397.4</ele>
        <time>2021-10-10T09:24:26Z</time>
      </trkpt>
      <trkpt lat="45.0881" lon="5.59494">
        <ele>1397.4</ele>
        <time>2021-10-10T09:24:27Z</time>
      </trkpt>
      <trkpt lat="45.08812" lon="5.59493">
        <ele>1397.4</ele>
        <time>2021-10-10T09:24:28Z</time>
      </trkpt>
      <trkpt lat="45.08813" lon="5.59492">
        <ele>1398.2</ele>
        <time>2021-10-10T09:24:29Z</time>
      </trkpt>
      <trkpt lat="45.08814" lon="5.59491">
        <ele>1398.6</ele>
        <time>2021-10-10T09:24:30Z</time>
      </trkpt>
      <trkpt lat="45.08816" lon="5.59491">
        <ele>1398.6</ele>
        <time>2021-10-10T09:24:31Z</time>
      </trkpt>
      <trkpt lat="45.08818" lon="5.5949">
        <ele>1398.6</ele>
        <time>2021-10-10T09:24:32Z</time>
      </trkpt>
      <trkpt lat="45.08819" lon="5.59489">
        <ele>1398.6</ele>
        <time>2021-10-10T09:24:33Z</time>
      </trkpt>
      <trkpt lat="45.08821" lon="5.59488">
        <ele>1399.2</ele>
        <time>2021-10-10T09:24:34Z</time>
      </trkpt>
      <trkpt lat="45.08822" lon="5.59488">
        <ele>1399.2</ele>
        <time>2021-10-10T09:24:35Z</time>
      </trkpt>
      <trkpt lat="45.08823" lon="5.59487">
        <ele>1399.2</ele>
        <time>2021-10-10T09:24:36Z</time>
      </trkpt>
      <trkpt lat="45.08824" lon="5.59486">
        <ele>1399.4</ele>
        <time>2021-10-10T09:24:37Z</time>
      </trkpt>
      <trkpt lat="45.08826" lon="5.59485">
        <ele>1399.4</ele>
        <time>2021-10-10T09:24:38Z</time>
      </trkpt>
      <trkpt lat="45.08827" lon="5.59484">
        <ele>1399.4</ele>
        <time>2021-10-10T09:24:39Z</time>
      </trkpt>
      <trkpt lat="45.08828" lon="5.59483">
        <ele>1399.4</ele>
        <time>2021-10-10T09:24:40Z</time>
      </trkpt>
      <trkpt lat="45.0883" lon="5.59482">
        <ele>1399.6</ele>
        <time>2021-10-10T09:24:41Z</time>
      </trkpt>
      <trkpt lat="45.08831" lon="5.59482">
        <ele>1400.2</ele>
        <time>2021-10-10T09:24:42Z</time>
      </trkpt>
      <trkpt lat="45.08833" lon="5.59481">
        <ele>1400.2</ele>
        <time>2021-10-10T09:24:43Z</time>
      </trkpt>
      <trkpt lat="45.08834" lon="5.59481">
        <ele>1400.2</ele>
        <time>2021-10-10T09:24:44Z</time>
      </trkpt>
      <trkpt lat="45.08835" lon="5.5948">
        <ele>1400.2</ele>
        <time>2021-10-10T09:24:45Z</time>
      </trkpt>
      <trkpt lat="45.08837" lon="5.5948">
        <ele>1400.4</ele>
        <time>2021-10-10T09:24:46Z</time>
      </trkpt>
      <trkpt lat="45.08838" lon="5.59479">
        <ele>1400.4</ele>
        <time>2021-10-10T09:24:47Z</time>
      </trkpt>
      <trkpt lat="45.08839" lon="5.59479">
        <ele>1400.4</ele>
        <time>2021-10-10T09:24:48Z</time>
      </trkpt>
      <trkpt lat="45.0884" lon="5.59478">
        <ele>1400.4</ele>
        <time>2021-10-10T09:24:49Z</time>
      </trkpt>
      <trkpt lat="45.08842" lon="5.59477">
        <ele>1400.8</ele>
        <time>2021-10-10T09:24:50Z</time>
      </trkpt>
      <trkpt lat="45.08843" lon="5.59477">
        <ele>1400.8</ele>
        <time>2021-10-10T09:24:51Z</time>
      </trkpt>
      <trkpt lat="45.08844" lon="5.59476">
        <ele>1400.8</ele>
        <time>2021-10-10T09:24:52Z</time>
      </trkpt>
      <trkpt lat="45.08846" lon="5.59476">
        <ele>1400.8</ele>
        <time>2021-10-10T09:24:53Z</time>
      </trkpt>
      <trkpt lat="45.08847" lon="5.59476">
        <ele>1400.8</ele>
        <time>2021-10-10T09:24:54Z</time>
      </trkpt>
      <trkpt lat="45.08848" lon="5.59475">
        <ele>1400.8</ele>
        <time>2021-10-10T09:24:55Z</time>
      </trkpt>
      <trkpt lat="45.08848" lon="5.59476">
        <ele>1400.8</ele>
        <time>2021-10-10T09:24:56Z</time>
      </trkpt>
      <trkpt lat="45.08849" lon="5.59475">
        <ele>1400.8</ele>
        <time>2021-10-10T09:24:57Z</time>
      </trkpt>
      <trkpt lat="45.08851" lon="5.59475">
        <ele>1400.8</ele>
        <time>2021-10-10T09:24:58Z</time>
      </trkpt>
      <trkpt lat="45.08852" lon="5.59474">
        <ele>1400.8</ele>
        <time>2021-10-10T09:24:59Z</time>
      </trkpt>
      <trkpt lat="45.08854" lon="5.59474">
        <ele>1400.8</ele>
        <time>2021-10-10T09:25:00Z</time>
      </trkpt>
      <trkpt lat="45.08855" lon="5.59473">
        <ele>1401.6</ele>
        <time>2021-10-10T09:25:01Z</time>
      </trkpt>
      <trkpt lat="45.08856" lon="5.59473">
        <ele>1401</ele>
        <time>2021-10-10T09:25:02Z</time>
      </trkpt>
      <trkpt lat="45.08857" lon="5.59473">
        <ele>1401</ele>
        <time>2021-10-10T09:25:03Z</time>
      </trkpt>
      <trkpt lat="45.08857" lon="5.59472">
        <ele>1401</ele>
        <time>2021-10-10T09:25:04Z</time>
      </trkpt>
      <trkpt lat="45.08858" lon="5.59472">
        <ele>1401</ele>
        <time>2021-10-10T09:25:05Z</time>
      </trkpt>
      <trkpt lat="45.08859" lon="5.59471">
        <ele>1400.8</ele>
        <time>2021-10-10T09:25:06Z</time>
      </trkpt>
      <trkpt lat="45.0886" lon="5.5947">
        <ele>1400.8</ele>
        <time>2021-10-10T09:25:07Z</time>
      </trkpt>
      <trkpt lat="45.08861" lon="5.59469">
        <ele>1400.8</ele>
        <time>2021-10-10T09:25:08Z</time>
      </trkpt>
      <trkpt lat="45.08862" lon="5.59469">
        <ele>1400.8</ele>
        <time>2021-10-10T09:25:09Z</time>
      </trkpt>
      <trkpt lat="45.08864" lon="5.59468">
        <ele>1400.4</ele>
        <time>2021-10-10T09:25:10Z</time>
      </trkpt>
      <trkpt lat="45.08865" lon="5.59467">
        <ele>1400.4</ele>
        <time>2021-10-10T09:25:11Z</time>
      </trkpt>
      <trkpt lat="45.08865" lon="5.59467">
        <ele>1400.4</ele>
        <time>2021-10-10T09:25:12Z</time>
      </trkpt>
      <trkpt lat="45.08867" lon="5.59466">
        <ele>1400</ele>
        <time>2021-10-10T09:25:13Z</time>
      </trkpt>
      <trkpt lat="45.08868" lon="5.59465">
        <ele>1400</ele>
        <time>2021-10-10T09:25:14Z</time>
      </trkpt>
      <trkpt lat="45.08869" lon="5.59464">
        <ele>1400</ele>
        <time>2021-10-10T09:25:15Z</time>
      </trkpt>
      <trkpt lat="45.08871" lon="5.59463">
        <ele>1400</ele>
        <time>2021-10-10T09:25:16Z</time>
      </trkpt>
      <trkpt lat="45.08873" lon="5.59463">
        <ele>1400</ele>
        <time>2021-10-10T09:25:17Z</time>
      </trkpt>
      <trkpt lat="45.08874" lon="5.59462">
        <ele>1399.6</ele>
        <time>2021-10-10T09:25:18Z</time>
      </trkpt>
      <trkpt lat="45.08875" lon="5.59461">
        <ele>1399.6</ele>
        <time>2021-10-10T09:25:19Z</time>
      </trkpt>
      <trkpt lat="45.08876" lon="5.5946">
        <ele>1399.6</ele>
        <time>2021-10-10T09:25:20Z</time>
      </trkpt>
      <trkpt lat="45.08877" lon="5.59459">
        <ele>1399.6</ele>
        <time>2021-10-10T09:25:21Z</time>
      </trkpt>
      <trkpt lat="45.08878" lon="5.59458">
        <ele>1399.4</ele>
        <time>2021-10-10T09:25:22Z</time>
      </trkpt>
      <trkpt lat="45.08879" lon="5.59456">
        <ele>1399.4</ele>
        <time>2021-10-10T09:25:23Z</time>
      </trkpt>
      <trkpt lat="45.0888" lon="5.59454">
        <ele>1399.4</ele>
        <time>2021-10-10T09:25:24Z</time>
      </trkpt>
      <trkpt lat="45.08881" lon="5.59453">
        <ele>1399.4</ele>
        <time>2021-10-10T09:25:25Z</time>
      </trkpt>
      <trkpt lat="45.08882" lon="5.59452">
        <ele>1399.6</ele>
        <time>2021-10-10T09:25:26Z</time>
      </trkpt>
      <trkpt lat="45.08883" lon="5.59451">
        <ele>1399.6</ele>
        <time>2021-10-10T09:25:27Z</time>
      </trkpt>
      <trkpt lat="45.08884" lon="5.59451">
        <ele>1399.6</ele>
        <time>2021-10-10T09:25:28Z</time>
      </trkpt>
      <trkpt lat="45.08886" lon="5.5945">
        <ele>1399</ele>
        <time>2021-10-10T09:25:29Z</time>
      </trkpt>
      <trkpt lat="45.08887" lon="5.59448">
        <ele>1398.6</ele>
        <time>2021-10-10T09:25:30Z</time>
      </trkpt>
      <trkpt lat="45.08888" lon="5.59447">
        <ele>1398.6</ele>
        <time>2021-10-10T09:25:31Z</time>
      </trkpt>
      <trkpt lat="45.08889" lon="5.59446">
        <ele>1398.6</ele>
        <time>2021-10-10T09:25:32Z</time>
      </trkpt>
      <trkpt lat="45.08891" lon="5.59445">
        <ele>1398.4</ele>
        <time>2021-10-10T09:25:33Z</time>
      </trkpt>
      <trkpt lat="45.08891" lon="5.59444">
        <ele>1397.6</ele>
        <time>2021-10-10T09:25:34Z</time>
      </trkpt>
      <trkpt lat="45.08892" lon="5.59444">
        <ele>1397.6</ele>
        <time>2021-10-10T09:25:35Z</time>
      </trkpt>
      <trkpt lat="45.08893" lon="5.59442">
        <ele>1397.6</ele>
        <time>2021-10-10T09:25:36Z</time>
      </trkpt>
      <trkpt lat="45.08894" lon="5.59441">
        <ele>1396.8</ele>
        <time>2021-10-10T09:25:37Z</time>
      </trkpt>
      <trkpt lat="45.08896" lon="5.5944">
        <ele>1397.4</ele>
        <time>2021-10-10T09:25:38Z</time>
      </trkpt>
      <trkpt lat="45.08899" lon="5.59439">
        <ele>1397.4</ele>
        <time>2021-10-10T09:25:39Z</time>
      </trkpt>
      <trkpt lat="45.08902" lon="5.59437">
        <ele>1397.4</ele>
        <time>2021-10-10T09:25:40Z</time>
      </trkpt>
      <trkpt lat="45.08905" lon="5.59436">
        <ele>1396.4</ele>
        <time>2021-10-10T09:25:41Z</time>
      </trkpt>
      <trkpt lat="45.08907" lon="5.59434">
        <ele>1395</ele>
        <time>2021-10-10T09:25:42Z</time>
      </trkpt>
      <trkpt lat="45.08909" lon="5.59432">
        <ele>1395</ele>
        <time>2021-10-10T09:25:43Z</time>
      </trkpt>
      <trkpt lat="45.08911" lon="5.5943">
        <ele>1395</ele>
        <time>2021-10-10T09:25:44Z</time>
      </trkpt>
      <trkpt lat="45.08913" lon="5.59428">
        <ele>1394.8</ele>
        <time>2021-10-10T09:25:45Z</time>
      </trkpt>
      <trkpt lat="45.08916" lon="5.59426">
        <ele>1394</ele>
        <time>2021-10-10T09:25:46Z</time>
      </trkpt>
      <trkpt lat="45.0892" lon="5.59424">
        <ele>1394</ele>
        <time>2021-10-10T09:25:47Z</time>
      </trkpt>
      <trkpt lat="45.08923" lon="5.59422">
        <ele>1394</ele>
        <time>2021-10-10T09:25:48Z</time>
      </trkpt>
      <trkpt lat="45.08927" lon="5.59421">
        <ele>1393.2</ele>
        <time>2021-10-10T09:25:49Z</time>
      </trkpt>
      <trkpt lat="45.0893" lon="5.5942">
        <ele>1393.6</ele>
        <time>2021-10-10T09:25:50Z</time>
      </trkpt>
      <trkpt lat="45.08932" lon="5.59421">
        <ele>1393.6</ele>
        <time>2021-10-10T09:25:51Z</time>
      </trkpt>
      <trkpt lat="45.08934" lon="5.5942">
        <ele>1393.6</ele>
        <time>2021-10-10T09:25:52Z</time>
      </trkpt>
      <trkpt lat="45.08935" lon="5.5942">
        <ele>1393.4</ele>
        <time>2021-10-10T09:26:20Z</time>
      </trkpt>
      <trkpt lat="45.08939" lon="5.59421">
        <ele>1393.4</ele>
        <time>2021-10-10T09:26:21Z</time>
      </trkpt>
      <trkpt lat="45.08942" lon="5.59422">
        <ele>1391.6</ele>
        <time>2021-10-10T09:26:22Z</time>
      </trkpt>
      <trkpt lat="45.08945" lon="5.59424">
        <ele>1391.6</ele>
        <time>2021-10-10T09:26:23Z</time>
      </trkpt>
      <trkpt lat="45.08947" lon="5.59425">
        <ele>1391.6</ele>
        <time>2021-10-10T09:26:24Z</time>
      </trkpt>
      <trkpt lat="45.0895" lon="5.59427">
        <ele>1391.6</ele>
        <time>2021-10-10T09:26:25Z</time>
      </trkpt>
      <trkpt lat="45.08953" lon="5.59429">
        <ele>1391.2</ele>
        <time>2021-10-10T09:26:26Z</time>
      </trkpt>
      <trkpt lat="45.08956" lon="5.59431">
        <ele>1391.2</ele>
        <time>2021-10-10T09:26:27Z</time>
      </trkpt>
      <trkpt lat="45.08959" lon="5.59434">
        <ele>1391.2</ele>
        <time>2021-10-10T09:26:28Z</time>
      </trkpt>
      <trkpt lat="45.08962" lon="5.59437">
        <ele>1391.2</ele>
        <time>2021-10-10T09:26:29Z</time>
      </trkpt>
      <trkpt lat="45.08964" lon="5.59439">
        <ele>1391.6</ele>
        <time>2021-10-10T09:26:30Z</time>
      </trkpt>
      <trkpt lat="45.08967" lon="5.59441">
        <ele>1391.6</ele>
        <time>2021-10-10T09:26:31Z</time>
      </trkpt>
      <trkpt lat="45.08969" lon="5.59444">
        <ele>1391.6</ele>
        <time>2021-10-10T09:26:32Z</time>
      </trkpt>
      <trkpt lat="45.08972" lon="5.59447">
        <ele>1391.8</ele>
        <time>2021-10-10T09:26:33Z</time>
      </trkpt>
      <trkpt lat="45.08974" lon="5.5945">
        <ele>1393.2</ele>
        <time>2021-10-10T09:26:34Z</time>
      </trkpt>
      <trkpt lat="45.08978" lon="5.59453">
        <ele>1393.2</ele>
        <time>2021-10-10T09:26:35Z</time>
      </trkpt>
      <trkpt lat="45.0898" lon="5.59455">
        <ele>1393.2</ele>
        <time>2021-10-10T09:26:36Z</time>
      </trkpt>
      <trkpt lat="45.08983" lon="5.59457">
        <ele>1394</ele>
        <time>2021-10-10T09:26:37Z</time>
      </trkpt>
      <trkpt lat="45.08985" lon="5.59459">
        <ele>1394.4</ele>
        <time>2021-10-10T09:26:38Z</time>
      </trkpt>
      <trkpt lat="45.08987" lon="5.5946">
        <ele>1394.4</ele>
        <time>2021-10-10T09:26:39Z</time>
      </trkpt>
      <trkpt lat="45.08989" lon="5.59462">
        <ele>1394.4</ele>
        <time>2021-10-10T09:26:40Z</time>
      </trkpt>
      <trkpt lat="45.0899" lon="5.59463">
        <ele>1395.4</ele>
        <time>2021-10-10T09:26:41Z</time>
      </trkpt>
      <trkpt lat="45.08992" lon="5.59465">
        <ele>1396</ele>
        <time>2021-10-10T09:26:42Z</time>
      </trkpt>
      <trkpt lat="45.08994" lon="5.59466">
        <ele>1396</ele>
        <time>2021-10-10T09:26:43Z</time>
      </trkpt>
      <trkpt lat="45.08996" lon="5.59468">
        <ele>1396</ele>
        <time>2021-10-10T09:26:44Z</time>
      </trkpt>
      <trkpt lat="45.08998" lon="5.5947">
        <ele>1396</ele>
        <time>2021-10-10T09:26:45Z</time>
      </trkpt>
      <trkpt lat="45.09" lon="5.59472">
        <ele>1396.6</ele>
        <time>2021-10-10T09:26:46Z</time>
      </trkpt>
      <trkpt lat="45.09002" lon="5.59474">
        <ele>1396.6</ele>
        <time>2021-10-10T09:26:47Z</time>
      </trkpt>
      <trkpt lat="45.09004" lon="5.59475">
        <ele>1396.6</ele>
        <time>2021-10-10T09:26:48Z</time>
      </trkpt>
      <trkpt lat="45.09005" lon="5.59477">
        <ele>1397.4</ele>
        <time>2021-10-10T09:26:49Z</time>
      </trkpt>
      <trkpt lat="45.09007" lon="5.59479">
        <ele>1397.8</ele>
        <time>2021-10-10T09:26:50Z</time>
      </trkpt>
      <trkpt lat="45.09009" lon="5.59481">
        <ele>1397.8</ele>
        <time>2021-10-10T09:26:51Z</time>
      </trkpt>
      <trkpt lat="45.09011" lon="5.59482">
        <ele>1397.8</ele>
        <time>2021-10-10T09:26:52Z</time>
      </trkpt>
      <trkpt lat="45.09012" lon="5.59484">
        <ele>1398</ele>
        <time>2021-10-10T09:26:53Z</time>
      </trkpt>
      <trkpt lat="45.09014" lon="5.59485">
        <ele>1398.4</ele>
        <time>2021-10-10T09:26:54Z</time>
      </trkpt>
      <trkpt lat="45.09016" lon="5.59487">
        <ele>1398.4</ele>
        <time>2021-10-10T09:26:55Z</time>
      </trkpt>
      <trkpt lat="45.09017" lon="5.59489">
        <ele>1398.4</ele>
        <time>2021-10-10T09:26:56Z</time>
      </trkpt>
      <trkpt lat="45.09019" lon="5.5949">
        <ele>1398.6</ele>
        <time>2021-10-10T09:26:57Z</time>
      </trkpt>
      <trkpt lat="45.09021" lon="5.59492">
        <ele>1399.2</ele>
        <time>2021-10-10T09:26:58Z</time>
      </trkpt>
      <trkpt lat="45.09023" lon="5.59493">
        <ele>1399.2</ele>
        <time>2021-10-10T09:26:59Z</time>
      </trkpt>
      <trkpt lat="45.09024" lon="5.59495">
        <ele>1399.2</ele>
        <time>2021-10-10T09:27:00Z</time>
      </trkpt>
      <trkpt lat="45.09025" lon="5.59495">
        <ele>1399.2</ele>
        <time>2021-10-10T09:27:01Z</time>
      </trkpt>
      <trkpt lat="45.09027" lon="5.59497">
        <ele>1399.8</ele>
        <time>2021-10-10T09:27:02Z</time>
      </trkpt>
      <trkpt lat="45.09028" lon="5.59498">
        <ele>1399.8</ele>
        <time>2021-10-10T09:27:03Z</time>
      </trkpt>
      <trkpt lat="45.0903" lon="5.595">
        <ele>1399.8</ele>
        <time>2021-10-10T09:27:04Z</time>
      </trkpt>
      <trkpt lat="45.09031" lon="5.59502">
        <ele>1399.8</ele>
        <time>2021-10-10T09:27:05Z</time>
      </trkpt>
      <trkpt lat="45.09033" lon="5.59503">
        <ele>1400.2</ele>
        <time>2021-10-10T09:27:06Z</time>
      </trkpt>
      <trkpt lat="45.09034" lon="5.59504">
        <ele>1400.2</ele>
        <time>2021-10-10T09:27:07Z</time>
      </trkpt>
      <trkpt lat="45.09036" lon="5.59505">
        <ele>1400.2</ele>
        <time>2021-10-10T09:27:08Z</time>
      </trkpt>
      <trkpt lat="45.09038" lon="5.59506">
        <ele>1400.2</ele>
        <time>2021-10-10T09:27:09Z</time>
      </trkpt>
      <trkpt lat="45.0904" lon="5.59507">
        <ele>1400.2</ele>
        <time>2021-10-10T09:27:10Z</time>
      </trkpt>
      <trkpt lat="45.09041" lon="5.59508">
        <ele>1400.2</ele>
        <time>2021-10-10T09:27:11Z</time>
      </trkpt>
      <trkpt lat="45.09043" lon="5.5951">
        <ele>1400.2</ele>
        <time>2021-10-10T09:27:12Z</time>
      </trkpt>
      <trkpt lat="45.09046" lon="5.59512">
        <ele>1399.2</ele>
        <time>2021-10-10T09:27:13Z</time>
      </trkpt>
      <trkpt lat="45.09048" lon="5.59513">
        <ele>1398.8</ele>
        <time>2021-10-10T09:27:14Z</time>
      </trkpt>
      <trkpt lat="45.09051" lon="5.59515">
        <ele>1398.8</ele>
        <time>2021-10-10T09:27:15Z</time>
      </trkpt>
      <trkpt lat="45.09054" lon="5.59516">
        <ele>1398.8</ele>
        <time>2021-10-10T09:27:16Z</time>
      </trkpt>
      <trkpt lat="45.09058" lon="5.59518">
        <ele>1397.8</ele>
        <time>2021-10-10T09:27:17Z</time>
      </trkpt>
      <trkpt lat="45.09061" lon="5.5952">
        <ele>1396.2</ele>
        <time>2021-10-10T09:27:18Z</time>
      </trkpt>
      <trkpt lat="45.09066" lon="5.59523">
        <ele>1396.2</ele>
        <time>2021-10-10T09:27:19Z</time>
      </trkpt>
      <trkpt lat="45.09071" lon="5.59526">
        <ele>1396.2</ele>
        <time>2021-10-10T09:27:20Z</time>
      </trkpt>
      <trkpt lat="45.09076" lon="5.59529">
        <ele>1396</ele>
        <time>2021-10-10T09:27:21Z</time>
      </trkpt>
      <trkpt lat="45.09081" lon="5.59532">
        <ele>1396.2</ele>
        <time>2021-10-10T09:27:22Z</time>
      </trkpt>
      <trkpt lat="45.09086" lon="5.59534">
        <ele>1396.2</ele>
        <time>2021-10-10T09:27:23Z</time>
      </trkpt>
      <trkpt lat="45.09091" lon="5.59536">
        <ele>1396.2</ele>
        <time>2021-10-10T09:27:24Z</time>
      </trkpt>
      <trkpt lat="45.09095" lon="5.59538">
        <ele>1396.4</ele>
        <time>2021-10-10T09:27:25Z</time>
      </trkpt>
      <trkpt lat="45.09099" lon="5.59539">
        <ele>1395.8</ele>
        <time>2021-10-10T09:27:26Z</time>
      </trkpt>
      <trkpt lat="45.09102" lon="5.5954">
        <ele>1395.8</ele>
        <time>2021-10-10T09:27:27Z</time>
      </trkpt>
      <trkpt lat="45.09107" lon="5.59542">
        <ele>1395.8</ele>
        <time>2021-10-10T09:27:28Z</time>
      </trkpt>
      <trkpt lat="45.09111" lon="5.59543">
        <ele>1395.2</ele>
        <time>2021-10-10T09:27:29Z</time>
      </trkpt>
      <trkpt lat="45.09116" lon="5.59543">
        <ele>1395.8</ele>
        <time>2021-10-10T09:27:30Z</time>
      </trkpt>
      <trkpt lat="45.0912" lon="5.59541">
        <ele>1395.8</ele>
        <time>2021-10-10T09:27:31Z</time>
      </trkpt>
      <trkpt lat="45.09123" lon="5.59539">
        <ele>1395.8</ele>
        <time>2021-10-10T09:27:32Z</time>
      </trkpt>
      <trkpt lat="45.09127" lon="5.59537">
        <ele>1396.2</ele>
        <time>2021-10-10T09:27:33Z</time>
      </trkpt>
      <trkpt lat="45.09131" lon="5.59535">
        <ele>1396.6</ele>
        <time>2021-10-10T09:27:34Z</time>
      </trkpt>
      <trkpt lat="45.09134" lon="5.59533">
        <ele>1396.6</ele>
        <time>2021-10-10T09:27:35Z</time>
      </trkpt>
      <trkpt lat="45.09137" lon="5.59532">
        <ele>1396.6</ele>
        <time>2021-10-10T09:27:36Z</time>
      </trkpt>
      <trkpt lat="45.0914" lon="5.59532">
        <ele>1396.6</ele>
        <time>2021-10-10T09:27:37Z</time>
      </trkpt>
      <trkpt lat="45.09143" lon="5.5953">
        <ele>1396.4</ele>
        <time>2021-10-10T09:27:38Z</time>
      </trkpt>
      <trkpt lat="45.09146" lon="5.59529">
        <ele>1396.4</ele>
        <time>2021-10-10T09:27:39Z</time>
      </trkpt>
      <trkpt lat="45.09149" lon="5.59528">
        <ele>1396.4</ele>
        <time>2021-10-10T09:27:40Z</time>
      </trkpt>
      <trkpt lat="45.09152" lon="5.59526">
        <ele>1396.4</ele>
        <time>2021-10-10T09:27:41Z</time>
      </trkpt>
      <trkpt lat="45.09155" lon="5.59524">
        <ele>1396.4</ele>
        <time>2021-10-10T09:27:42Z</time>
      </trkpt>
      <trkpt lat="45.09159" lon="5.59523">
        <ele>1396.4</ele>
        <time>2021-10-10T09:27:43Z</time>
      </trkpt>
      <trkpt lat="45.09161" lon="5.59521">
        <ele>1396.4</ele>
        <time>2021-10-10T09:27:44Z</time>
      </trkpt>
      <trkpt lat="45.09163" lon="5.59519">
        <ele>1396.4</ele>
        <time>2021-10-10T09:27:45Z</time>
      </trkpt>
      <trkpt lat="45.09165" lon="5.59517">
        <ele>1396</ele>
        <time>2021-10-10T09:27:46Z</time>
      </trkpt>
      <trkpt lat="45.09168" lon="5.59516">
        <ele>1396</ele>
        <time>2021-10-10T09:27:47Z</time>
      </trkpt>
      <trkpt lat="45.0917" lon="5.59514">
        <ele>1396</ele>
        <time>2021-10-10T09:27:48Z</time>
      </trkpt>
      <trkpt lat="45.09173" lon="5.59513">
        <ele>1396</ele>
        <time>2021-10-10T09:27:49Z</time>
      </trkpt>
      <trkpt lat="45.09176" lon="5.59512">
        <ele>1395.4</ele>
        <time>2021-10-10T09:27:50Z</time>
      </trkpt>
      <trkpt lat="45.0918" lon="5.59511">
        <ele>1395.4</ele>
        <time>2021-10-10T09:27:51Z</time>
      </trkpt>
      <trkpt lat="45.09183" lon="5.59511">
        <ele>1395.4</ele>
        <time>2021-10-10T09:27:52Z</time>
      </trkpt>
      <trkpt lat="45.09186" lon="5.5951">
        <ele>1395.4</ele>
        <time>2021-10-10T09:27:53Z</time>
      </trkpt>
      <trkpt lat="45.09189" lon="5.59509">
        <ele>1395</ele>
        <time>2021-10-10T09:27:54Z</time>
      </trkpt>
      <trkpt lat="45.09193" lon="5.59509">
        <ele>1395</ele>
        <time>2021-10-10T09:27:55Z</time>
      </trkpt>
      <trkpt lat="45.09196" lon="5.5951">
        <ele>1395</ele>
        <time>2021-10-10T09:27:56Z</time>
      </trkpt>
      <trkpt lat="45.09199" lon="5.5951">
        <ele>1395</ele>
        <time>2021-10-10T09:27:57Z</time>
      </trkpt>
      <trkpt lat="45.09203" lon="5.59511">
        <ele>1394.4</ele>
        <time>2021-10-10T09:27:58Z</time>
      </trkpt>
      <trkpt lat="45.09206" lon="5.59512">
        <ele>1394.4</ele>
        <time>2021-10-10T09:27:59Z</time>
      </trkpt>
      <trkpt lat="45.09209" lon="5.59512">
        <ele>1394.4</ele>
        <time>2021-10-10T09:28:00Z</time>
      </trkpt>
      <trkpt lat="45.09213" lon="5.59512">
        <ele>1394.4</ele>
        <time>2021-10-10T09:28:01Z</time>
      </trkpt>
      <trkpt lat="45.09218" lon="5.59512">
        <ele>1393.4</ele>
        <time>2021-10-10T09:28:02Z</time>
      </trkpt>
      <trkpt lat="45.09223" lon="5.59512">
        <ele>1393.4</ele>
        <time>2021-10-10T09:28:03Z</time>
      </trkpt>
      <trkpt lat="45.09228" lon="5.59512">
        <ele>1393.4</ele>
        <time>2021-10-10T09:28:04Z</time>
      </trkpt>
      <trkpt lat="45.09234" lon="5.59511">
        <ele>1392.4</ele>
        <time>2021-10-10T09:28:05Z</time>
      </trkpt>
      <trkpt lat="45.0924" lon="5.5951">
        <ele>1390.4</ele>
        <time>2021-10-10T09:28:06Z</time>
      </trkpt>
      <trkpt lat="45.09245" lon="5.59509">
        <ele>1390.4</ele>
        <time>2021-10-10T09:28:07Z</time>
      </trkpt>
      <trkpt lat="45.0925" lon="5.59507">
        <ele>1390.4</ele>
        <time>2021-10-10T09:28:08Z</time>
      </trkpt>
      <trkpt lat="45.09257" lon="5.59506">
        <ele>1390.4</ele>
        <time>2021-10-10T09:28:09Z</time>
      </trkpt>
      <trkpt lat="45.09263" lon="5.59503">
        <ele>1388.2</ele>
        <time>2021-10-10T09:28:10Z</time>
      </trkpt>
      <trkpt lat="45.09269" lon="5.59499">
        <ele>1388.2</ele>
        <time>2021-10-10T09:28:11Z</time>
      </trkpt>
      <trkpt lat="45.09276" lon="5.59496">
        <ele>1388.2</ele>
        <time>2021-10-10T09:28:12Z</time>
      </trkpt>
      <trkpt lat="45.09282" lon="5.59493">
        <ele>1388.2</ele>
        <time>2021-10-10T09:28:13Z</time>
      </trkpt>
      <trkpt lat="45.09289" lon="5.5949">
        <ele>1386.8</ele>
        <time>2021-10-10T09:28:14Z</time>
      </trkpt>
      <trkpt lat="45.09296" lon="5.59488">
        <ele>1386.8</ele>
        <time>2021-10-10T09:28:15Z</time>
      </trkpt>
      <trkpt lat="45.09303" lon="5.59485">
        <ele>1386.8</ele>
        <time>2021-10-10T09:28:16Z</time>
      </trkpt>
      <trkpt lat="45.09311" lon="5.59482">
        <ele>1386.2</ele>
        <time>2021-10-10T09:28:17Z</time>
      </trkpt>
      <trkpt lat="45.09317" lon="5.59479">
        <ele>1383.6</ele>
        <time>2021-10-10T09:28:18Z</time>
      </trkpt>
      <trkpt lat="45.09325" lon="5.59476">
        <ele>1383.6</ele>
        <time>2021-10-10T09:28:19Z</time>
      </trkpt>
      <trkpt lat="45.09334" lon="5.59473">
        <ele>1383.6</ele>
        <time>2021-10-10T09:28:20Z</time>
      </trkpt>
      <trkpt lat="45.09342" lon="5.59471">
        <ele>1382.8</ele>
        <time>2021-10-10T09:28:21Z</time>
      </trkpt>
      <trkpt lat="45.09349" lon="5.59468">
        <ele>1383.2</ele>
        <time>2021-10-10T09:28:22Z</time>
      </trkpt>
      <trkpt lat="45.09358" lon="5.59466">
        <ele>1383.2</ele>
        <time>2021-10-10T09:28:23Z</time>
      </trkpt>
      <trkpt lat="45.09366" lon="5.59466">
        <ele>1383.2</ele>
        <time>2021-10-10T09:28:24Z</time>
      </trkpt>
      <trkpt lat="45.09373" lon="5.59466">
        <ele>1384.2</ele>
        <time>2021-10-10T09:28:25Z</time>
      </trkpt>
      <trkpt lat="45.09378" lon="5.59468">
        <ele>1386.4</ele>
        <time>2021-10-10T09:28:26Z</time>
      </trkpt>
      <trkpt lat="45.09383" lon="5.5947">
        <ele>1386.4</ele>
        <time>2021-10-10T09:28:27Z</time>
      </trkpt>
      <trkpt lat="45.09388" lon="5.59472">
        <ele>1386.4</ele>
        <time>2021-10-10T09:28:28Z</time>
      </trkpt>
      <trkpt lat="45.09392" lon="5.59474">
        <ele>1387.4</ele>
        <time>2021-10-10T09:28:29Z</time>
      </trkpt>
      <trkpt lat="45.09395" lon="5.59476">
        <ele>1387.6</ele>
        <time>2021-10-10T09:28:30Z</time>
      </trkpt>
      <trkpt lat="45.09398" lon="5.59479">
        <ele>1387.6</ele>
        <time>2021-10-10T09:28:31Z</time>
      </trkpt>
      <trkpt lat="45.09401" lon="5.59483">
        <ele>1387.6</ele>
        <time>2021-10-10T09:28:32Z</time>
      </trkpt>
      <trkpt lat="45.09405" lon="5.59486">
        <ele>1388.6</ele>
        <time>2021-10-10T09:28:33Z</time>
      </trkpt>
      <trkpt lat="45.09408" lon="5.5949">
        <ele>1389.4</ele>
        <time>2021-10-10T09:28:34Z</time>
      </trkpt>
      <trkpt lat="45.09412" lon="5.59494">
        <ele>1389.4</ele>
        <time>2021-10-10T09:28:35Z</time>
      </trkpt>
      <trkpt lat="45.09415" lon="5.59498">
        <ele>1389.4</ele>
        <time>2021-10-10T09:28:36Z</time>
      </trkpt>
      <trkpt lat="45.09418" lon="5.59502">
        <ele>1389.4</ele>
        <time>2021-10-10T09:28:37Z</time>
      </trkpt>
      <trkpt lat="45.0942" lon="5.59507">
        <ele>1390.2</ele>
        <time>2021-10-10T09:28:38Z</time>
      </trkpt>
      <trkpt lat="45.09423" lon="5.59512">
        <ele>1390.2</ele>
        <time>2021-10-10T09:28:39Z</time>
      </trkpt>
      <trkpt lat="45.09425" lon="5.59517">
        <ele>1390.2</ele>
        <time>2021-10-10T09:28:40Z</time>
      </trkpt>
      <trkpt lat="45.09427" lon="5.59522">
        <ele>1391</ele>
        <time>2021-10-10T09:28:41Z</time>
      </trkpt>
      <trkpt lat="45.09427" lon="5.59528">
        <ele>1390.6</ele>
        <time>2021-10-10T09:28:42Z</time>
      </trkpt>
      <trkpt lat="45.09428" lon="5.59533">
        <ele>1390.6</ele>
        <time>2021-10-10T09:28:43Z</time>
      </trkpt>
      <trkpt lat="45.09429" lon="5.59538">
        <ele>1390.6</ele>
        <time>2021-10-10T09:28:44Z</time>
      </trkpt>
      <trkpt lat="45.09429" lon="5.59543">
        <ele>1390.6</ele>
        <time>2021-10-10T09:28:45Z</time>
      </trkpt>
      <trkpt lat="45.09429" lon="5.59548">
        <ele>1390.6</ele>
        <time>2021-10-10T09:28:46Z</time>
      </trkpt>
      <trkpt lat="45.0943" lon="5.59555">
        <ele>1390.6</ele>
        <time>2021-10-10T09:28:47Z</time>
      </trkpt>
      <trkpt lat="45.09432" lon="5.59561">
        <ele>1390.6</ele>
        <time>2021-10-10T09:28:48Z</time>
      </trkpt>
      <trkpt lat="45.09433" lon="5.59567">
        <ele>1390</ele>
        <time>2021-10-10T09:28:49Z</time>
      </trkpt>
      <trkpt lat="45.09434" lon="5.59573">
        <ele>1390.4</ele>
        <time>2021-10-10T09:28:50Z</time>
      </trkpt>
      <trkpt lat="45.09435" lon="5.59578">
        <ele>1390.4</ele>
        <time>2021-10-10T09:28:51Z</time>
      </trkpt>
      <trkpt lat="45.09437" lon="5.59583">
        <ele>1390.4</ele>
        <time>2021-10-10T09:28:52Z</time>
      </trkpt>
      <trkpt lat="45.09439" lon="5.59588">
        <ele>1391.4</ele>
        <time>2021-10-10T09:28:53Z</time>
      </trkpt>
      <trkpt lat="45.09441" lon="5.59593">
        <ele>1392.2</ele>
        <time>2021-10-10T09:28:54Z</time>
      </trkpt>
      <trkpt lat="45.09443" lon="5.59597">
        <ele>1392.2</ele>
        <time>2021-10-10T09:28:55Z</time>
      </trkpt>
      <trkpt lat="45.09445" lon="5.59601">
        <ele>1392.2</ele>
        <time>2021-10-10T09:28:56Z</time>
      </trkpt>
      <trkpt lat="45.09447" lon="5.59605">
        <ele>1392.2</ele>
        <time>2021-10-10T09:28:57Z</time>
      </trkpt>
      <trkpt lat="45.09449" lon="5.59608">
        <ele>1393.6</ele>
        <time>2021-10-10T09:28:58Z</time>
      </trkpt>
      <trkpt lat="45.09451" lon="5.59609">
        <ele>1393.6</ele>
        <time>2021-10-10T09:28:59Z</time>
      </trkpt>
      <trkpt lat="45.09454" lon="5.59611">
        <ele>1393.6</ele>
        <time>2021-10-10T09:29:00Z</time>
      </trkpt>
      <trkpt lat="45.09455" lon="5.59612">
        <ele>1393.6</ele>
        <time>2021-10-10T09:29:01Z</time>
      </trkpt>
      <trkpt lat="45.09457" lon="5.59612">
        <ele>1394.6</ele>
        <time>2021-10-10T09:29:02Z</time>
      </trkpt>
      <trkpt lat="45.09459" lon="5.59612">
        <ele>1394.6</ele>
        <time>2021-10-10T09:29:03Z</time>
      </trkpt>
      <trkpt lat="45.09462" lon="5.59612">
        <ele>1394.6</ele>
        <time>2021-10-10T09:29:04Z</time>
      </trkpt>
      <trkpt lat="45.09465" lon="5.59612">
        <ele>1395</ele>
        <time>2021-10-10T09:29:05Z</time>
      </trkpt>
      <trkpt lat="45.09466" lon="5.59611">
        <ele>1395</ele>
        <time>2021-10-10T09:29:06Z</time>
      </trkpt>
      <trkpt lat="45.09469" lon="5.59611">
        <ele>1395</ele>
        <time>2021-10-10T09:29:07Z</time>
      </trkpt>
      <trkpt lat="45.09471" lon="5.59611">
        <ele>1395</ele>
        <time>2021-10-10T09:29:08Z</time>
      </trkpt>
      <trkpt lat="45.09474" lon="5.59611">
        <ele>1395.2</ele>
        <time>2021-10-10T09:29:09Z</time>
      </trkpt>
      <trkpt lat="45.09476" lon="5.5961">
        <ele>1395.4</ele>
        <time>2021-10-10T09:29:10Z</time>
      </trkpt>
      <trkpt lat="45.09479" lon="5.59611">
        <ele>1395.4</ele>
        <time>2021-10-10T09:29:11Z</time>
      </trkpt>
      <trkpt lat="45.09483" lon="5.59611">
        <ele>1395.4</ele>
        <time>2021-10-10T09:29:12Z</time>
      </trkpt>
      <trkpt lat="45.09485" lon="5.59611">
        <ele>1395.8</ele>
        <time>2021-10-10T09:29:13Z</time>
      </trkpt>
      <trkpt lat="45.09488" lon="5.59611">
        <ele>1396</ele>
        <time>2021-10-10T09:29:14Z</time>
      </trkpt>
      <trkpt lat="45.09491" lon="5.59611">
        <ele>1396</ele>
        <time>2021-10-10T09:29:15Z</time>
      </trkpt>
      <trkpt lat="45.09493" lon="5.59612">
        <ele>1396</ele>
        <time>2021-10-10T09:29:16Z</time>
      </trkpt>
      <trkpt lat="45.09495" lon="5.59612">
        <ele>1396.6</ele>
        <time>2021-10-10T09:29:17Z</time>
      </trkpt>
      <trkpt lat="45.09497" lon="5.59613">
        <ele>1396.8</ele>
        <time>2021-10-10T09:29:18Z</time>
      </trkpt>
      <trkpt lat="45.095" lon="5.59614">
        <ele>1396.8</ele>
        <time>2021-10-10T09:29:19Z</time>
      </trkpt>
      <trkpt lat="45.09503" lon="5.59615">
        <ele>1396.8</ele>
        <time>2021-10-10T09:29:20Z</time>
      </trkpt>
      <trkpt lat="45.09505" lon="5.59615">
        <ele>1396.8</ele>
        <time>2021-10-10T09:29:21Z</time>
      </trkpt>
      <trkpt lat="45.09507" lon="5.59616">
        <ele>1397.2</ele>
        <time>2021-10-10T09:29:22Z</time>
      </trkpt>
      <trkpt lat="45.0951" lon="5.59616">
        <ele>1397.2</ele>
        <time>2021-10-10T09:29:23Z</time>
      </trkpt>
      <trkpt lat="45.09512" lon="5.59618">
        <ele>1397.2</ele>
        <time>2021-10-10T09:29:24Z</time>
      </trkpt>
      <trkpt lat="45.09514" lon="5.59619">
        <ele>1397.8</ele>
        <time>2021-10-10T09:29:25Z</time>
      </trkpt>
      <trkpt lat="45.09516" lon="5.59622">
        <ele>1398.4</ele>
        <time>2021-10-10T09:29:26Z</time>
      </trkpt>
      <trkpt lat="45.09517" lon="5.59623">
        <ele>1398.4</ele>
        <time>2021-10-10T09:29:27Z</time>
      </trkpt>
      <trkpt lat="45.09519" lon="5.59625">
        <ele>1398.4</ele>
        <time>2021-10-10T09:29:28Z</time>
      </trkpt>
      <trkpt lat="45.0952" lon="5.59627">
        <ele>1398.4</ele>
        <time>2021-10-10T09:29:29Z</time>
      </trkpt>
      <trkpt lat="45.09522" lon="5.59628">
        <ele>1398.6</ele>
        <time>2021-10-10T09:29:30Z</time>
      </trkpt>
      <trkpt lat="45.09524" lon="5.5963">
        <ele>1398.6</ele>
        <time>2021-10-10T09:29:31Z</time>
      </trkpt>
      <trkpt lat="45.09525" lon="5.59632">
        <ele>1398.6</ele>
        <time>2021-10-10T09:29:32Z</time>
      </trkpt>
      <trkpt lat="45.09527" lon="5.59634">
        <ele>1398.2</ele>
        <time>2021-10-10T09:29:33Z</time>
      </trkpt>
      <trkpt lat="45.09528" lon="5.59635">
        <ele>1398</ele>
        <time>2021-10-10T09:29:34Z</time>
      </trkpt>
      <trkpt lat="45.0953" lon="5.59637">
        <ele>1398</ele>
        <time>2021-10-10T09:29:35Z</time>
      </trkpt>
      <trkpt lat="45.09532" lon="5.5964">
        <ele>1398</ele>
        <time>2021-10-10T09:29:36Z</time>
      </trkpt>
      <trkpt lat="45.09535" lon="5.59643">
        <ele>1398</ele>
        <time>2021-10-10T09:29:37Z</time>
      </trkpt>
      <trkpt lat="45.09538" lon="5.59647">
        <ele>1395.2</ele>
        <time>2021-10-10T09:29:38Z</time>
      </trkpt>
      <trkpt lat="45.09542" lon="5.59651">
        <ele>1395.2</ele>
        <time>2021-10-10T09:29:39Z</time>
      </trkpt>
      <trkpt lat="45.09547" lon="5.59654">
        <ele>1395.2</ele>
        <time>2021-10-10T09:29:40Z</time>
      </trkpt>
      <trkpt lat="45.09552" lon="5.59657">
        <ele>1395</ele>
        <time>2021-10-10T09:29:41Z</time>
      </trkpt>
      <trkpt lat="45.09558" lon="5.59659">
        <ele>1396.6</ele>
        <time>2021-10-10T09:29:42Z</time>
      </trkpt>
      <trkpt lat="45.09563" lon="5.59661">
        <ele>1396.6</ele>
        <time>2021-10-10T09:29:43Z</time>
      </trkpt>
      <trkpt lat="45.09567" lon="5.59662">
        <ele>1396.6</ele>
        <time>2021-10-10T09:29:44Z</time>
      </trkpt>
      <trkpt lat="45.0957" lon="5.59663">
        <ele>1396.6</ele>
        <time>2021-10-10T09:29:45Z</time>
      </trkpt>
      <trkpt lat="45.09573" lon="5.59663">
        <ele>1397.2</ele>
        <time>2021-10-10T09:29:46Z</time>
      </trkpt>
      <trkpt lat="45.09576" lon="5.59664">
        <ele>1397.2</ele>
        <time>2021-10-10T09:29:47Z</time>
      </trkpt>
      <trkpt lat="45.09579" lon="5.59665">
        <ele>1397.2</ele>
        <time>2021-10-10T09:29:48Z</time>
      </trkpt>
      <trkpt lat="45.09581" lon="5.59665">
        <ele>1398.2</ele>
        <time>2021-10-10T09:29:49Z</time>
      </trkpt>
      <trkpt lat="45.09584" lon="5.59664">
        <ele>1398.4</ele>
        <time>2021-10-10T09:29:50Z</time>
      </trkpt>
      <trkpt lat="45.09587" lon="5.59663">
        <ele>1398.4</ele>
        <time>2021-10-10T09:29:51Z</time>
      </trkpt>
      <trkpt lat="45.09589" lon="5.59662">
        <ele>1398.4</ele>
        <time>2021-10-10T09:29:52Z</time>
      </trkpt>
      <trkpt lat="45.09592" lon="5.59661">
        <ele>1398.2</ele>
        <time>2021-10-10T09:29:53Z</time>
      </trkpt>
      <trkpt lat="45.09593" lon="5.5966">
        <ele>1398.2</ele>
        <time>2021-10-10T09:29:54Z</time>
      </trkpt>
      <trkpt lat="45.09595" lon="5.5966">
        <ele>1398.2</ele>
        <time>2021-10-10T09:29:55Z</time>
      </trkpt>
      <trkpt lat="45.09598" lon="5.59659">
        <ele>1398.2</ele>
        <time>2021-10-10T09:29:56Z</time>
      </trkpt>
      <trkpt lat="45.09601" lon="5.59658">
        <ele>1397.8</ele>
        <time>2021-10-10T09:29:57Z</time>
      </trkpt>
      <trkpt lat="45.09603" lon="5.59658">
        <ele>1398.4</ele>
        <time>2021-10-10T09:29:58Z</time>
      </trkpt>
      <trkpt lat="45.09605" lon="5.59656">
        <ele>1398.4</ele>
        <time>2021-10-10T09:29:59Z</time>
      </trkpt>
      <trkpt lat="45.09609" lon="5.59658">
        <ele>1398.4</ele>
        <time>2021-10-10T09:30:00Z</time>
      </trkpt>
      <trkpt lat="45.09612" lon="5.59658">
        <ele>1398.4</ele>
        <time>2021-10-10T09:30:01Z</time>
      </trkpt>
      <trkpt lat="45.09615" lon="5.59657">
        <ele>1399</ele>
        <time>2021-10-10T09:30:02Z</time>
      </trkpt>
      <trkpt lat="45.09617" lon="5.59657">
        <ele>1399</ele>
        <time>2021-10-10T09:30:03Z</time>
      </trkpt>
      <trkpt lat="45.0962" lon="5.59658">
        <ele>1399</ele>
        <time>2021-10-10T09:30:04Z</time>
      </trkpt>
      <trkpt lat="45.09624" lon="5.59658">
        <ele>1399.4</ele>
        <time>2021-10-10T09:30:05Z</time>
      </trkpt>
      <trkpt lat="45.09627" lon="5.59658">
        <ele>1400.2</ele>
        <time>2021-10-10T09:30:06Z</time>
      </trkpt>
      <trkpt lat="45.09631" lon="5.5966">
        <ele>1400.2</ele>
        <time>2021-10-10T09:30:07Z</time>
      </trkpt>
      <trkpt lat="45.09633" lon="5.59661">
        <ele>1400.2</ele>
        <time>2021-10-10T09:30:08Z</time>
      </trkpt>
      <trkpt lat="45.09636" lon="5.59662">
        <ele>1400</ele>
        <time>2021-10-10T09:30:09Z</time>
      </trkpt>
      <trkpt lat="45.09639" lon="5.59662">
        <ele>1399.6</ele>
        <time>2021-10-10T09:30:10Z</time>
      </trkpt>
      <trkpt lat="45.09642" lon="5.59663">
        <ele>1399.6</ele>
        <time>2021-10-10T09:30:11Z</time>
      </trkpt>
      <trkpt lat="45.09645" lon="5.59664">
        <ele>1399.6</ele>
        <time>2021-10-10T09:30:12Z</time>
      </trkpt>
      <trkpt lat="45.09649" lon="5.59666">
        <ele>1399.6</ele>
        <time>2021-10-10T09:30:13Z</time>
      </trkpt>
      <trkpt lat="45.09652" lon="5.59667">
        <ele>1400.4</ele>
        <time>2021-10-10T09:30:14Z</time>
      </trkpt>
      <trkpt lat="45.09656" lon="5.5967">
        <ele>1400.4</ele>
        <time>2021-10-10T09:30:15Z</time>
      </trkpt>
      <trkpt lat="45.09658" lon="5.59671">
        <ele>1400.4</ele>
        <time>2021-10-10T09:30:16Z</time>
      </trkpt>
      <trkpt lat="45.09661" lon="5.59672">
        <ele>1401.2</ele>
        <time>2021-10-10T09:30:17Z</time>
      </trkpt>
      <trkpt lat="45.09664" lon="5.59672">
        <ele>1400.8</ele>
        <time>2021-10-10T09:30:18Z</time>
      </trkpt>
      <trkpt lat="45.09667" lon="5.59673">
        <ele>1400.8</ele>
        <time>2021-10-10T09:30:19Z</time>
      </trkpt>
      <trkpt lat="45.0967" lon="5.59675">
        <ele>1400.8</ele>
        <time>2021-10-10T09:30:20Z</time>
      </trkpt>
      <trkpt lat="45.09672" lon="5.59676">
        <ele>1401.6</ele>
        <time>2021-10-10T09:30:21Z</time>
      </trkpt>
      <trkpt lat="45.09674" lon="5.59677">
        <ele>1402.2</ele>
        <time>2021-10-10T09:30:22Z</time>
      </trkpt>
      <trkpt lat="45.09676" lon="5.59678">
        <ele>1402.2</ele>
        <time>2021-10-10T09:30:23Z</time>
      </trkpt>
      <trkpt lat="45.09679" lon="5.59676">
        <ele>1402.2</ele>
        <time>2021-10-10T09:30:24Z</time>
      </trkpt>
      <trkpt lat="45.09681" lon="5.59677">
        <ele>1402.2</ele>
        <time>2021-10-10T09:30:25Z</time>
      </trkpt>
      <trkpt lat="45.09684" lon="5.59678">
        <ele>1402.4</ele>
        <time>2021-10-10T09:30:26Z</time>
      </trkpt>
      <trkpt lat="45.09686" lon="5.59679">
        <ele>1402.4</ele>
        <time>2021-10-10T09:30:27Z</time>
      </trkpt>
      <trkpt lat="45.09688" lon="5.5968">
        <ele>1402.4</ele>
        <time>2021-10-10T09:30:28Z</time>
      </trkpt>
      <trkpt lat="45.09691" lon="5.59682">
        <ele>1403.4</ele>
        <time>2021-10-10T09:30:29Z</time>
      </trkpt>
      <trkpt lat="45.09693" lon="5.59683">
        <ele>1403.4</ele>
        <time>2021-10-10T09:30:30Z</time>
      </trkpt>
      <trkpt lat="45.09695" lon="5.59685">
        <ele>1403.4</ele>
        <time>2021-10-10T09:30:31Z</time>
      </trkpt>
      <trkpt lat="45.09697" lon="5.59686">
        <ele>1403.4</ele>
        <time>2021-10-10T09:30:32Z</time>
      </trkpt>
      <trkpt lat="45.09699" lon="5.59688">
        <ele>1403.8</ele>
        <time>2021-10-10T09:30:33Z</time>
      </trkpt>
      <trkpt lat="45.09701" lon="5.59689">
        <ele>1404.8</ele>
        <time>2021-10-10T09:30:34Z</time>
      </trkpt>
      <trkpt lat="45.09703" lon="5.59691">
        <ele>1404.8</ele>
        <time>2021-10-10T09:30:35Z</time>
      </trkpt>
      <trkpt lat="45.09704" lon="5.59692">
        <ele>1404.8</ele>
        <time>2021-10-10T09:30:36Z</time>
      </trkpt>
      <trkpt lat="45.09706" lon="5.59692">
        <ele>1405.8</ele>
        <time>2021-10-10T09:30:37Z</time>
      </trkpt>
      <trkpt lat="45.09708" lon="5.59694">
        <ele>1406</ele>
        <time>2021-10-10T09:30:38Z</time>
      </trkpt>
      <trkpt lat="45.0971" lon="5.59694">
        <ele>1406</ele>
        <time>2021-10-10T09:30:39Z</time>
      </trkpt>
      <trkpt lat="45.09712" lon="5.59695">
        <ele>1406</ele>
        <time>2021-10-10T09:30:40Z</time>
      </trkpt>
      <trkpt lat="45.09713" lon="5.59696">
        <ele>1406</ele>
        <time>2021-10-10T09:30:41Z</time>
      </trkpt>
      <trkpt lat="45.09715" lon="5.59697">
        <ele>1405.8</ele>
        <time>2021-10-10T09:30:42Z</time>
      </trkpt>
      <trkpt lat="45.09718" lon="5.59698">
        <ele>1405.8</ele>
        <time>2021-10-10T09:30:43Z</time>
      </trkpt>
      <trkpt lat="45.0972" lon="5.59698">
        <ele>1405.8</ele>
        <time>2021-10-10T09:30:44Z</time>
      </trkpt>
      <trkpt lat="45.09723" lon="5.59699">
        <ele>1404.8</ele>
        <time>2021-10-10T09:30:45Z</time>
      </trkpt>
      <trkpt lat="45.09726" lon="5.59699">
        <ele>1404.6</ele>
        <time>2021-10-10T09:30:46Z</time>
      </trkpt>
      <trkpt lat="45.0973" lon="5.59701">
        <ele>1404.6</ele>
        <time>2021-10-10T09:30:47Z</time>
      </trkpt>
      <trkpt lat="45.09733" lon="5.59701">
        <ele>1404.6</ele>
        <time>2021-10-10T09:30:48Z</time>
      </trkpt>
      <trkpt lat="45.09737" lon="5.59701">
        <ele>1404.6</ele>
        <time>2021-10-10T09:30:49Z</time>
      </trkpt>
      <trkpt lat="45.09741" lon="5.59701">
        <ele>1404.2</ele>
        <time>2021-10-10T09:30:50Z</time>
      </trkpt>
      <trkpt lat="45.09745" lon="5.59701">
        <ele>1404.2</ele>
        <time>2021-10-10T09:30:51Z</time>
      </trkpt>
      <trkpt lat="45.09749" lon="5.59701">
        <ele>1404.2</ele>
        <time>2021-10-10T09:30:52Z</time>
      </trkpt>
      <trkpt lat="45.09751" lon="5.59702">
        <ele>1405.2</ele>
        <time>2021-10-10T09:30:53Z</time>
      </trkpt>
      <trkpt lat="45.09754" lon="5.59702">
        <ele>1405.4</ele>
        <time>2021-10-10T09:30:54Z</time>
      </trkpt>
      <trkpt lat="45.09757" lon="5.59702">
        <ele>1405.4</ele>
        <time>2021-10-10T09:30:55Z</time>
      </trkpt>
      <trkpt lat="45.0976" lon="5.59702">
        <ele>1405.4</ele>
        <time>2021-10-10T09:30:56Z</time>
      </trkpt>
      <trkpt lat="45.09763" lon="5.59702">
        <ele>1406.2</ele>
        <time>2021-10-10T09:30:57Z</time>
      </trkpt>
      <trkpt lat="45.09765" lon="5.59702">
        <ele>1405.8</ele>
        <time>2021-10-10T09:30:58Z</time>
      </trkpt>
      <trkpt lat="45.09768" lon="5.59702">
        <ele>1405.8</ele>
        <time>2021-10-10T09:30:59Z</time>
      </trkpt>
      <trkpt lat="45.0977" lon="5.59702">
        <ele>1405.8</ele>
        <time>2021-10-10T09:31:00Z</time>
      </trkpt>
      <trkpt lat="45.09773" lon="5.59702">
        <ele>1405.8</ele>
        <time>2021-10-10T09:31:01Z</time>
      </trkpt>
      <trkpt lat="45.09776" lon="5.59702">
        <ele>1405.6</ele>
        <time>2021-10-10T09:31:02Z</time>
      </trkpt>
      <trkpt lat="45.09779" lon="5.59701">
        <ele>1405.6</ele>
        <time>2021-10-10T09:31:03Z</time>
      </trkpt>
      <trkpt lat="45.09783" lon="5.59701">
        <ele>1405.6</ele>
        <time>2021-10-10T09:31:04Z</time>
      </trkpt>
      <trkpt lat="45.09787" lon="5.59701">
        <ele>1405.6</ele>
        <time>2021-10-10T09:31:05Z</time>
      </trkpt>
      <trkpt lat="45.09791" lon="5.59701">
        <ele>1405.8</ele>
        <time>2021-10-10T09:31:06Z</time>
      </trkpt>
      <trkpt lat="45.09794" lon="5.59701">
        <ele>1405.8</ele>
        <time>2021-10-10T09:31:07Z</time>
      </trkpt>
      <trkpt lat="45.09798" lon="5.597">
        <ele>1405.8</ele>
        <time>2021-10-10T09:31:08Z</time>
      </trkpt>
      <trkpt lat="45.09801" lon="5.597">
        <ele>1405.8</ele>
        <time>2021-10-10T09:31:09Z</time>
      </trkpt>
      <trkpt lat="45.09805" lon="5.597">
        <ele>1406.2</ele>
        <time>2021-10-10T09:31:10Z</time>
      </trkpt>
      <trkpt lat="45.09808" lon="5.59699">
        <ele>1406.2</ele>
        <time>2021-10-10T09:31:11Z</time>
      </trkpt>
      <trkpt lat="45.09812" lon="5.59697">
        <ele>1406.2</ele>
        <time>2021-10-10T09:31:12Z</time>
      </trkpt>
      <trkpt lat="45.09816" lon="5.59694">
        <ele>1406.2</ele>
        <time>2021-10-10T09:31:13Z</time>
      </trkpt>
      <trkpt lat="45.09818" lon="5.59691">
        <ele>1406.4</ele>
        <time>2021-10-10T09:31:14Z</time>
      </trkpt>
      <trkpt lat="45.09821" lon="5.59688">
        <ele>1406.4</ele>
        <time>2021-10-10T09:31:15Z</time>
      </trkpt>
      <trkpt lat="45.09823" lon="5.59684">
        <ele>1406.4</ele>
        <time>2021-10-10T09:31:16Z</time>
      </trkpt>
      <trkpt lat="45.09824" lon="5.5968">
        <ele>1406.4</ele>
        <time>2021-10-10T09:31:17Z</time>
      </trkpt>
      <trkpt lat="45.09825" lon="5.59677">
        <ele>1407.6</ele>
        <time>2021-10-10T09:31:18Z</time>
      </trkpt>
      <trkpt lat="45.09826" lon="5.59673">
        <ele>1407.6</ele>
        <time>2021-10-10T09:31:19Z</time>
      </trkpt>
      <trkpt lat="45.09826" lon="5.59668">
        <ele>1407.6</ele>
        <time>2021-10-10T09:31:20Z</time>
      </trkpt>
      <trkpt lat="45.09825" lon="5.59664">
        <ele>1407.6</ele>
        <time>2021-10-10T09:31:21Z</time>
      </trkpt>
      <trkpt lat="45.09826" lon="5.5966">
        <ele>1408</ele>
        <time>2021-10-10T09:31:22Z</time>
      </trkpt>
      <trkpt lat="45.09826" lon="5.59656">
        <ele>1408</ele>
        <time>2021-10-10T09:31:23Z</time>
      </trkpt>
      <trkpt lat="45.09826" lon="5.59652">
        <ele>1408</ele>
        <time>2021-10-10T09:31:24Z</time>
      </trkpt>
      <trkpt lat="45.09826" lon="5.59648">
        <ele>1408.6</ele>
        <time>2021-10-10T09:31:25Z</time>
      </trkpt>
      <trkpt lat="45.09827" lon="5.59644">
        <ele>1409</ele>
        <time>2021-10-10T09:31:26Z</time>
      </trkpt>
      <trkpt lat="45.09827" lon="5.5964">
        <ele>1409</ele>
        <time>2021-10-10T09:31:27Z</time>
      </trkpt>
      <trkpt lat="45.09828" lon="5.59637">
        <ele>1409</ele>
        <time>2021-10-10T09:31:28Z</time>
      </trkpt>
      <trkpt lat="45.09829" lon="5.59633">
        <ele>1409</ele>
        <time>2021-10-10T09:31:29Z</time>
      </trkpt>
      <trkpt lat="45.0983" lon="5.5963">
        <ele>1409.2</ele>
        <time>2021-10-10T09:31:30Z</time>
      </trkpt>
      <trkpt lat="45.0983" lon="5.59626">
        <ele>1409.2</ele>
        <time>2021-10-10T09:31:31Z</time>
      </trkpt>
      <trkpt lat="45.09832" lon="5.59623">
        <ele>1409.2</ele>
        <time>2021-10-10T09:31:32Z</time>
      </trkpt>
      <trkpt lat="45.09834" lon="5.59619">
        <ele>1410.2</ele>
        <time>2021-10-10T09:31:33Z</time>
      </trkpt>
      <trkpt lat="45.09835" lon="5.59616">
        <ele>1410.4</ele>
        <time>2021-10-10T09:31:34Z</time>
      </trkpt>
      <trkpt lat="45.09836" lon="5.59613">
        <ele>1410.4</ele>
        <time>2021-10-10T09:31:35Z</time>
      </trkpt>
      <trkpt lat="45.09838" lon="5.5961">
        <ele>1410.4</ele>
        <time>2021-10-10T09:31:36Z</time>
      </trkpt>
      <trkpt lat="45.09839" lon="5.59606">
        <ele>1411.4</ele>
        <time>2021-10-10T09:31:37Z</time>
      </trkpt>
      <trkpt lat="45.0984" lon="5.59603">
        <ele>1411.8</ele>
        <time>2021-10-10T09:31:38Z</time>
      </trkpt>
      <trkpt lat="45.09841" lon="5.596">
        <ele>1411.8</ele>
        <time>2021-10-10T09:31:39Z</time>
      </trkpt>
      <trkpt lat="45.09842" lon="5.59597">
        <ele>1411.8</ele>
        <time>2021-10-10T09:31:40Z</time>
      </trkpt>
      <trkpt lat="45.09844" lon="5.59594">
        <ele>1411.8</ele>
        <time>2021-10-10T09:31:41Z</time>
      </trkpt>
      <trkpt lat="45.09845" lon="5.59591">
        <ele>1412.6</ele>
        <time>2021-10-10T09:31:42Z</time>
      </trkpt>
      <trkpt lat="45.09846" lon="5.59589">
        <ele>1412.6</ele>
        <time>2021-10-10T09:31:43Z</time>
      </trkpt>
      <trkpt lat="45.09847" lon="5.59587">
        <ele>1412.6</ele>
        <time>2021-10-10T09:31:44Z</time>
      </trkpt>
      <trkpt lat="45.09847" lon="5.59585">
        <ele>1413.4</ele>
        <time>2021-10-10T09:31:45Z</time>
      </trkpt>
      <trkpt lat="45.09848" lon="5.59583">
        <ele>1413.6</ele>
        <time>2021-10-10T09:31:46Z</time>
      </trkpt>
      <trkpt lat="45.09849" lon="5.59582">
        <ele>1413.6</ele>
        <time>2021-10-10T09:31:47Z</time>
      </trkpt>
      <trkpt lat="45.09849" lon="5.5958">
        <ele>1413.6</ele>
        <time>2021-10-10T09:31:48Z</time>
      </trkpt>
      <trkpt lat="45.0985" lon="5.59578">
        <ele>1414</ele>
        <time>2021-10-10T09:31:49Z</time>
      </trkpt>
      <trkpt lat="45.09851" lon="5.59576">
        <ele>1414</ele>
        <time>2021-10-10T09:31:50Z</time>
      </trkpt>
      <trkpt lat="45.09852" lon="5.59575">
        <ele>1414</ele>
        <time>2021-10-10T09:31:51Z</time>
      </trkpt>
      <trkpt lat="45.09854" lon="5.59574">
        <ele>1414</ele>
        <time>2021-10-10T09:31:52Z</time>
      </trkpt>
      <trkpt lat="45.09855" lon="5.59572">
        <ele>1414.6</ele>
        <time>2021-10-10T09:31:53Z</time>
      </trkpt>
      <trkpt lat="45.09857" lon="5.59571">
        <ele>1414.6</ele>
        <time>2021-10-10T09:31:54Z</time>
      </trkpt>
      <trkpt lat="45.09859" lon="5.59569">
        <ele>1414.6</ele>
        <time>2021-10-10T09:31:55Z</time>
      </trkpt>
      <trkpt lat="45.0986" lon="5.59567">
        <ele>1414.6</ele>
        <time>2021-10-10T09:31:56Z</time>
      </trkpt>
      <trkpt lat="45.09862" lon="5.59565">
        <ele>1414.6</ele>
        <time>2021-10-10T09:31:57Z</time>
      </trkpt>
      <trkpt lat="45.09864" lon="5.59564">
        <ele>1414.6</ele>
        <time>2021-10-10T09:31:58Z</time>
      </trkpt>
      <trkpt lat="45.09866" lon="5.59562">
        <ele>1414.6</ele>
        <time>2021-10-10T09:31:59Z</time>
      </trkpt>
      <trkpt lat="45.09868" lon="5.5956">
        <ele>1414.6</ele>
        <time>2021-10-10T09:32:00Z</time>
      </trkpt>
      <trkpt lat="45.0987" lon="5.59558">
        <ele>1414.6</ele>
        <time>2021-10-10T09:32:01Z</time>
      </trkpt>
      <trkpt lat="45.09872" lon="5.59557">
        <ele>1414.4</ele>
        <time>2021-10-10T09:32:02Z</time>
      </trkpt>
      <trkpt lat="45.09874" lon="5.59555">
        <ele>1414.4</ele>
        <time>2021-10-10T09:32:03Z</time>
      </trkpt>
      <trkpt lat="45.09876" lon="5.59553">
        <ele>1414.4</ele>
        <time>2021-10-10T09:32:04Z</time>
      </trkpt>
      <trkpt lat="45.09878" lon="5.59551">
        <ele>1414.6</ele>
        <time>2021-10-10T09:32:05Z</time>
      </trkpt>
      <trkpt lat="45.0988" lon="5.5955">
        <ele>1414.6</ele>
        <time>2021-10-10T09:32:06Z</time>
      </trkpt>
      <trkpt lat="45.09883" lon="5.59549">
        <ele>1414.6</ele>
        <time>2021-10-10T09:32:07Z</time>
      </trkpt>
      <trkpt lat="45.09885" lon="5.59547">
        <ele>1414.6</ele>
        <time>2021-10-10T09:32:08Z</time>
      </trkpt>
      <trkpt lat="45.09887" lon="5.59545">
        <ele>1414.6</ele>
        <time>2021-10-10T09:32:09Z</time>
      </trkpt>
      <trkpt lat="45.09889" lon="5.59544">
        <ele>1415.4</ele>
        <time>2021-10-10T09:32:10Z</time>
      </trkpt>
      <trkpt lat="45.0989" lon="5.59543">
        <ele>1415.4</ele>
        <time>2021-10-10T09:32:11Z</time>
      </trkpt>
      <trkpt lat="45.09892" lon="5.59544">
        <ele>1415.4</ele>
        <time>2021-10-10T09:32:12Z</time>
      </trkpt>
      <trkpt lat="45.09894" lon="5.59544">
        <ele>1416.2</ele>
        <time>2021-10-10T09:32:13Z</time>
      </trkpt>
      <trkpt lat="45.09895" lon="5.59543">
        <ele>1416.2</ele>
        <time>2021-10-10T09:32:14Z</time>
      </trkpt>
      <trkpt lat="45.09896" lon="5.59544">
        <ele>1416.2</ele>
        <time>2021-10-10T09:32:15Z</time>
      </trkpt>
      <trkpt lat="45.09898" lon="5.59544">
        <ele>1416.2</ele>
        <time>2021-10-10T09:32:16Z</time>
      </trkpt>
      <trkpt lat="45.09899" lon="5.59545">
        <ele>1417</ele>
        <time>2021-10-10T09:32:17Z</time>
      </trkpt>
      <trkpt lat="45.099" lon="5.59546">
        <ele>1417.4</ele>
        <time>2021-10-10T09:32:18Z</time>
      </trkpt>
      <trkpt lat="45.09901" lon="5.59547">
        <ele>1417.4</ele>
        <time>2021-10-10T09:32:19Z</time>
      </trkpt>
      <trkpt lat="45.09902" lon="5.59548">
        <ele>1417.4</ele>
        <time>2021-10-10T09:32:20Z</time>
      </trkpt>
      <trkpt lat="45.09903" lon="5.59549">
        <ele>1417.4</ele>
        <time>2021-10-10T09:32:21Z</time>
      </trkpt>
      <trkpt lat="45.09904" lon="5.59551">
        <ele>1417.4</ele>
        <time>2021-10-10T09:32:22Z</time>
      </trkpt>
      <trkpt lat="45.09905" lon="5.59552">
        <ele>1417.4</ele>
        <time>2021-10-10T09:32:23Z</time>
      </trkpt>
      <trkpt lat="45.09906" lon="5.59554">
        <ele>1417.4</ele>
        <time>2021-10-10T09:32:24Z</time>
      </trkpt>
      <trkpt lat="45.09906" lon="5.59555">
        <ele>1418.4</ele>
        <time>2021-10-10T09:32:25Z</time>
      </trkpt>
      <trkpt lat="45.09907" lon="5.59557">
        <ele>1418.4</ele>
        <time>2021-10-10T09:32:26Z</time>
      </trkpt>
      <trkpt lat="45.09908" lon="5.59558">
        <ele>1418.6</ele>
        <time>2021-10-10T09:32:27Z</time>
      </trkpt>
      <trkpt lat="45.09909" lon="5.5956">
        <ele>1418.6</ele>
        <time>2021-10-10T09:32:28Z</time>
      </trkpt>
      <trkpt lat="45.0991" lon="5.59561">
        <ele>1419.2</ele>
        <time>2021-10-10T09:32:29Z</time>
      </trkpt>
      <trkpt lat="45.09911" lon="5.59562">
        <ele>1419.6</ele>
        <time>2021-10-10T09:32:30Z</time>
      </trkpt>
      <trkpt lat="45.09912" lon="5.59564">
        <ele>1419.6</ele>
        <time>2021-10-10T09:32:31Z</time>
      </trkpt>
      <trkpt lat="45.09912" lon="5.59565">
        <ele>1419.6</ele>
        <time>2021-10-10T09:32:32Z</time>
      </trkpt>
      <trkpt lat="45.09912" lon="5.59567">
        <ele>1420.4</ele>
        <time>2021-10-10T09:32:33Z</time>
      </trkpt>
      <trkpt lat="45.09913" lon="5.59569">
        <ele>1420.6</ele>
        <time>2021-10-10T09:32:34Z</time>
      </trkpt>
      <trkpt lat="45.09913" lon="5.59571">
        <ele>1420.6</ele>
        <time>2021-10-10T09:32:35Z</time>
      </trkpt>
      <trkpt lat="45.09913" lon="5.59572">
        <ele>1420.6</ele>
        <time>2021-10-10T09:32:36Z</time>
      </trkpt>
      <trkpt lat="45.09914" lon="5.59574">
        <ele>1421.2</ele>
        <time>2021-10-10T09:32:37Z</time>
      </trkpt>
      <trkpt lat="45.09915" lon="5.59576">
        <ele>1421.6</ele>
        <time>2021-10-10T09:32:38Z</time>
      </trkpt>
      <trkpt lat="45.09915" lon="5.59578">
        <ele>1421.6</ele>
        <time>2021-10-10T09:32:39Z</time>
      </trkpt>
      <trkpt lat="45.09916" lon="5.5958">
        <ele>1421.6</ele>
        <time>2021-10-10T09:32:40Z</time>
      </trkpt>
      <trkpt lat="45.09916" lon="5.59582">
        <ele>1421.6</ele>
        <time>2021-10-10T09:32:41Z</time>
      </trkpt>
      <trkpt lat="45.09917" lon="5.59584">
        <ele>1421.8</ele>
        <time>2021-10-10T09:32:42Z</time>
      </trkpt>
      <trkpt lat="45.09918" lon="5.59586">
        <ele>1421.8</ele>
        <time>2021-10-10T09:32:43Z</time>
      </trkpt>
      <trkpt lat="45.09919" lon="5.59587">
        <ele>1421.8</ele>
        <time>2021-10-10T09:32:44Z</time>
      </trkpt>
      <trkpt lat="45.09919" lon="5.59589">
        <ele>1422.6</ele>
        <time>2021-10-10T09:32:45Z</time>
      </trkpt>
      <trkpt lat="45.0992" lon="5.59591">
        <ele>1422.6</ele>
        <time>2021-10-10T09:32:46Z</time>
      </trkpt>
      <trkpt lat="45.09921" lon="5.59592">
        <ele>1422.6</ele>
        <time>2021-10-10T09:32:47Z</time>
      </trkpt>
      <trkpt lat="45.09922" lon="5.59594">
        <ele>1422.6</ele>
        <time>2021-10-10T09:32:48Z</time>
      </trkpt>
      <trkpt lat="45.09923" lon="5.59595">
        <ele>1423.4</ele>
        <time>2021-10-10T09:32:49Z</time>
      </trkpt>
      <trkpt lat="45.09924" lon="5.59597">
        <ele>1423.4</ele>
        <time>2021-10-10T09:32:50Z</time>
      </trkpt>
      <trkpt lat="45.09925" lon="5.59598">
        <ele>1423.4</ele>
        <time>2021-10-10T09:32:51Z</time>
      </trkpt>
      <trkpt lat="45.09926" lon="5.596">
        <ele>1423.4</ele>
        <time>2021-10-10T09:32:52Z</time>
      </trkpt>
      <trkpt lat="45.09927" lon="5.59602">
        <ele>1423.4</ele>
        <time>2021-10-10T09:32:53Z</time>
      </trkpt>
      <trkpt lat="45.09929" lon="5.59603">
        <ele>1423.8</ele>
        <time>2021-10-10T09:32:54Z</time>
      </trkpt>
      <trkpt lat="45.0993" lon="5.59604">
        <ele>1423.8</ele>
        <time>2021-10-10T09:32:55Z</time>
      </trkpt>
      <trkpt lat="45.09931" lon="5.59606">
        <ele>1423.8</ele>
        <time>2021-10-10T09:32:56Z</time>
      </trkpt>
      <trkpt lat="45.09932" lon="5.59607">
        <ele>1424.4</ele>
        <time>2021-10-10T09:32:57Z</time>
      </trkpt>
      <trkpt lat="45.09933" lon="5.59608">
        <ele>1424</ele>
        <time>2021-10-10T09:32:58Z</time>
      </trkpt>
      <trkpt lat="45.09935" lon="5.5961">
        <ele>1424</ele>
        <time>2021-10-10T09:32:59Z</time>
      </trkpt>
      <trkpt lat="45.09936" lon="5.59611">
        <ele>1424</ele>
        <time>2021-10-10T09:33:00Z</time>
      </trkpt>
      <trkpt lat="45.09937" lon="5.59612">
        <ele>1424.8</ele>
        <time>2021-10-10T09:33:01Z</time>
      </trkpt>
      <trkpt lat="45.09938" lon="5.59613">
        <ele>1425</ele>
        <time>2021-10-10T09:33:02Z</time>
      </trkpt>
      <trkpt lat="45.09939" lon="5.59614">
        <ele>1425</ele>
        <time>2021-10-10T09:33:03Z</time>
      </trkpt>
      <trkpt lat="45.0994" lon="5.59615">
        <ele>1425</ele>
        <time>2021-10-10T09:33:04Z</time>
      </trkpt>
      <trkpt lat="45.09941" lon="5.59616">
        <ele>1425.6</ele>
        <time>2021-10-10T09:33:05Z</time>
      </trkpt>
      <trkpt lat="45.09942" lon="5.59617">
        <ele>1425.6</ele>
        <time>2021-10-10T09:33:06Z</time>
      </trkpt>
      <trkpt lat="45.09944" lon="5.59618">
        <ele>1425.6</ele>
        <time>2021-10-10T09:33:07Z</time>
      </trkpt>
      <trkpt lat="45.09945" lon="5.59619">
        <ele>1425.6</ele>
        <time>2021-10-10T09:33:08Z</time>
      </trkpt>
      <trkpt lat="45.09946" lon="5.5962">
        <ele>1425.6</ele>
        <time>2021-10-10T09:33:09Z</time>
      </trkpt>
      <trkpt lat="45.09948" lon="5.59621">
        <ele>1426.2</ele>
        <time>2021-10-10T09:33:10Z</time>
      </trkpt>
      <trkpt lat="45.09949" lon="5.59621">
        <ele>1426.2</ele>
        <time>2021-10-10T09:33:11Z</time>
      </trkpt>
      <trkpt lat="45.0995" lon="5.59622">
        <ele>1426.2</ele>
        <time>2021-10-10T09:33:12Z</time>
      </trkpt>
      <trkpt lat="45.09952" lon="5.59622">
        <ele>1426.2</ele>
        <time>2021-10-10T09:33:13Z</time>
      </trkpt>
      <trkpt lat="45.09953" lon="5.59622">
        <ele>1426.8</ele>
        <time>2021-10-10T09:33:14Z</time>
      </trkpt>
      <trkpt lat="45.09955" lon="5.59622">
        <ele>1426.8</ele>
        <time>2021-10-10T09:33:15Z</time>
      </trkpt>
      <trkpt lat="45.09956" lon="5.59623">
        <ele>1426.8</ele>
        <time>2021-10-10T09:33:16Z</time>
      </trkpt>
      <trkpt lat="45.09957" lon="5.59623">
        <ele>1427.8</ele>
        <time>2021-10-10T09:33:17Z</time>
      </trkpt>
      <trkpt lat="45.09958" lon="5.59623">
        <ele>1427.8</ele>
        <time>2021-10-10T09:33:18Z</time>
      </trkpt>
      <trkpt lat="45.09959" lon="5.59624">
        <ele>1427.8</ele>
        <time>2021-10-10T09:33:19Z</time>
      </trkpt>
      <trkpt lat="45.0996" lon="5.59624">
        <ele>1427.8</ele>
        <time>2021-10-10T09:33:20Z</time>
      </trkpt>
      <trkpt lat="45.09962" lon="5.59624">
        <ele>1427.8</ele>
        <time>2021-10-10T09:33:21Z</time>
      </trkpt>
      <trkpt lat="45.09963" lon="5.59624">
        <ele>1428.6</ele>
        <time>2021-10-10T09:33:22Z</time>
      </trkpt>
      <trkpt lat="45.09964" lon="5.59624">
        <ele>1428.6</ele>
        <time>2021-10-10T09:33:23Z</time>
      </trkpt>
      <trkpt lat="45.09965" lon="5.59624">
        <ele>1428.6</ele>
        <time>2021-10-10T09:33:24Z</time>
      </trkpt>
      <trkpt lat="45.09967" lon="5.59625">
        <ele>1429.4</ele>
        <time>2021-10-10T09:33:25Z</time>
      </trkpt>
      <trkpt lat="45.09968" lon="5.59626">
        <ele>1429.4</ele>
        <time>2021-10-10T09:33:26Z</time>
      </trkpt>
      <trkpt lat="45.0997" lon="5.59626">
        <ele>1429.4</ele>
        <time>2021-10-10T09:33:27Z</time>
      </trkpt>
      <trkpt lat="45.09971" lon="5.59627">
        <ele>1429.4</ele>
        <time>2021-10-10T09:33:28Z</time>
      </trkpt>
      <trkpt lat="45.09973" lon="5.59627">
        <ele>1430</ele>
        <time>2021-10-10T09:33:29Z</time>
      </trkpt>
      <trkpt lat="45.09974" lon="5.59628">
        <ele>1430.2</ele>
        <time>2021-10-10T09:33:30Z</time>
      </trkpt>
      <trkpt lat="45.09976" lon="5.5963">
        <ele>1430.2</ele>
        <time>2021-10-10T09:33:31Z</time>
      </trkpt>
      <trkpt lat="45.09977" lon="5.59631">
        <ele>1430.2</ele>
        <time>2021-10-10T09:33:32Z</time>
      </trkpt>
      <trkpt lat="45.09978" lon="5.59632">
        <ele>1430.8</ele>
        <time>2021-10-10T09:33:33Z</time>
      </trkpt>
      <trkpt lat="45.09979" lon="5.59632">
        <ele>1431</ele>
        <time>2021-10-10T09:33:34Z</time>
      </trkpt>
      <trkpt lat="45.0998" lon="5.59633">
        <ele>1431</ele>
        <time>2021-10-10T09:33:35Z</time>
      </trkpt>
      <trkpt lat="45.09982" lon="5.59634">
        <ele>1431</ele>
        <time>2021-10-10T09:33:36Z</time>
      </trkpt>
      <trkpt lat="45.09983" lon="5.59635">
        <ele>1431</ele>
        <time>2021-10-10T09:33:37Z</time>
      </trkpt>
      <trkpt lat="45.09984" lon="5.59636">
        <ele>1431.4</ele>
        <time>2021-10-10T09:33:38Z</time>
      </trkpt>
      <trkpt lat="45.09985" lon="5.59637">
        <ele>1431.4</ele>
        <time>2021-10-10T09:33:39Z</time>
      </trkpt>
      <trkpt lat="45.09986" lon="5.59638">
        <ele>1431.4</ele>
        <time>2021-10-10T09:33:40Z</time>
      </trkpt>
      <trkpt lat="45.09987" lon="5.59639">
        <ele>1432.2</ele>
        <time>2021-10-10T09:33:41Z</time>
      </trkpt>
      <trkpt lat="45.09988" lon="5.5964">
        <ele>1432.2</ele>
        <time>2021-10-10T09:33:42Z</time>
      </trkpt>
      <trkpt lat="45.09989" lon="5.59641">
        <ele>1432.2</ele>
        <time>2021-10-10T09:33:43Z</time>
      </trkpt>
      <trkpt lat="45.0999" lon="5.59641">
        <ele>1432.2</ele>
        <time>2021-10-10T09:33:44Z</time>
      </trkpt>
      <trkpt lat="45.09991" lon="5.59642">
        <ele>1432.2</ele>
        <time>2021-10-10T09:33:45Z</time>
      </trkpt>
      <trkpt lat="45.09991" lon="5.59643">
        <ele>1432.2</ele>
        <time>2021-10-10T09:33:46Z</time>
      </trkpt>
      <trkpt lat="45.09992" lon="5.59644">
        <ele>1432.2</ele>
        <time>2021-10-10T09:33:47Z</time>
      </trkpt>
      <trkpt lat="45.09993" lon="5.59646">
        <ele>1432.2</ele>
        <time>2021-10-10T09:33:48Z</time>
      </trkpt>
      <trkpt lat="45.09993" lon="5.59646">
        <ele>1432.2</ele>
        <time>2021-10-10T09:33:49Z</time>
      </trkpt>
      <trkpt lat="45.09994" lon="5.59647">
        <ele>1432</ele>
        <time>2021-10-10T09:33:50Z</time>
      </trkpt>
      <trkpt lat="45.09994" lon="5.59648">
        <ele>1432</ele>
        <time>2021-10-10T09:33:51Z</time>
      </trkpt>
      <trkpt lat="45.09995" lon="5.59648">
        <ele>1432</ele>
        <time>2021-10-10T09:33:52Z</time>
      </trkpt>
      <trkpt lat="45.09995" lon="5.59649">
        <ele>1432</ele>
        <time>2021-10-10T09:33:53Z</time>
      </trkpt>
      <trkpt lat="45.09997" lon="5.5965">
        <ele>1431.6</ele>
        <time>2021-10-10T09:33:54Z</time>
      </trkpt>
      <trkpt lat="45.09998" lon="5.59652">
        <ele>1431.6</ele>
        <time>2021-10-10T09:33:55Z</time>
      </trkpt>
      <trkpt lat="45.1" lon="5.59653">
        <ele>1431.6</ele>
        <time>2021-10-10T09:33:56Z</time>
      </trkpt>
      <trkpt lat="45.10002" lon="5.59654">
        <ele>1431.6</ele>
        <time>2021-10-10T09:33:57Z</time>
      </trkpt>
      <trkpt lat="45.10003" lon="5.59656">
        <ele>1431.4</ele>
        <time>2021-10-10T09:33:58Z</time>
      </trkpt>
      <trkpt lat="45.10005" lon="5.59657">
        <ele>1431.4</ele>
        <time>2021-10-10T09:33:59Z</time>
      </trkpt>
      <trkpt lat="45.10007" lon="5.59659">
        <ele>1431.4</ele>
        <time>2021-10-10T09:34:00Z</time>
      </trkpt>
      <trkpt lat="45.10008" lon="5.5966">
        <ele>1431.4</ele>
        <time>2021-10-10T09:34:01Z</time>
      </trkpt>
      <trkpt lat="45.10011" lon="5.59661">
        <ele>1432</ele>
        <time>2021-10-10T09:34:02Z</time>
      </trkpt>
      <trkpt lat="45.10013" lon="5.59663">
        <ele>1432</ele>
        <time>2021-10-10T09:34:03Z</time>
      </trkpt>
      <trkpt lat="45.10014" lon="5.59665">
        <ele>1432</ele>
        <time>2021-10-10T09:34:04Z</time>
      </trkpt>
      <trkpt lat="45.10016" lon="5.59667">
        <ele>1432.2</ele>
        <time>2021-10-10T09:34:05Z</time>
      </trkpt>
      <trkpt lat="45.10018" lon="5.59669">
        <ele>1432.2</ele>
        <time>2021-10-10T09:34:06Z</time>
      </trkpt>
      <trkpt lat="45.10019" lon="5.59671">
        <ele>1432.2</ele>
        <time>2021-10-10T09:34:07Z</time>
      </trkpt>
      <trkpt lat="45.10022" lon="5.59673">
        <ele>1432.2</ele>
        <time>2021-10-10T09:34:08Z</time>
      </trkpt>
      <trkpt lat="45.10024" lon="5.59675">
        <ele>1432.2</ele>
        <time>2021-10-10T09:34:09Z</time>
      </trkpt>
      <trkpt lat="45.10026" lon="5.59678">
        <ele>1431</ele>
        <time>2021-10-10T09:34:10Z</time>
      </trkpt>
      <trkpt lat="45.10027" lon="5.59681">
        <ele>1431</ele>
        <time>2021-10-10T09:34:11Z</time>
      </trkpt>
      <trkpt lat="45.10027" lon="5.59685">
        <ele>1431</ele>
        <time>2021-10-10T09:34:12Z</time>
      </trkpt>
      <trkpt lat="45.10029" lon="5.59689">
        <ele>1431</ele>
        <time>2021-10-10T09:34:13Z</time>
      </trkpt>
      <trkpt lat="45.10031" lon="5.59693">
        <ele>1429.6</ele>
        <time>2021-10-10T09:34:14Z</time>
      </trkpt>
      <trkpt lat="45.10033" lon="5.59697">
        <ele>1429.6</ele>
        <time>2021-10-10T09:34:15Z</time>
      </trkpt>
      <trkpt lat="45.10036" lon="5.59701">
        <ele>1429.6</ele>
        <time>2021-10-10T09:34:16Z</time>
      </trkpt>
      <trkpt lat="45.10039" lon="5.59705">
        <ele>1428.6</ele>
        <time>2021-10-10T09:34:17Z</time>
      </trkpt>
      <trkpt lat="45.10043" lon="5.59708">
        <ele>1427.6</ele>
        <time>2021-10-10T09:34:18Z</time>
      </trkpt>
      <trkpt lat="45.10046" lon="5.59711">
        <ele>1427.6</ele>
        <time>2021-10-10T09:34:19Z</time>
      </trkpt>
      <trkpt lat="45.1005" lon="5.59712">
        <ele>1427.6</ele>
        <time>2021-10-10T09:34:20Z</time>
      </trkpt>
      <trkpt lat="45.10055" lon="5.59711">
        <ele>1426.6</ele>
        <time>2021-10-10T09:34:21Z</time>
      </trkpt>
      <trkpt lat="45.1006" lon="5.59709">
        <ele>1425.4</ele>
        <time>2021-10-10T09:34:22Z</time>
      </trkpt>
      <trkpt lat="45.10065" lon="5.59706">
        <ele>1425.4</ele>
        <time>2021-10-10T09:34:23Z</time>
      </trkpt>
      <trkpt lat="45.1007" lon="5.59702">
        <ele>1425.4</ele>
        <time>2021-10-10T09:34:24Z</time>
      </trkpt>
      <trkpt lat="45.10074" lon="5.59699">
        <ele>1424.4</ele>
        <time>2021-10-10T09:34:25Z</time>
      </trkpt>
      <trkpt lat="45.10079" lon="5.59696">
        <ele>1423.6</ele>
        <time>2021-10-10T09:34:26Z</time>
      </trkpt>
      <trkpt lat="45.10082" lon="5.59694">
        <ele>1423.6</ele>
        <time>2021-10-10T09:34:27Z</time>
      </trkpt>
      <trkpt lat="45.10085" lon="5.59691">
        <ele>1423.6</ele>
        <time>2021-10-10T09:34:28Z</time>
      </trkpt>
      <trkpt lat="45.10087" lon="5.59689">
        <ele>1423.6</ele>
        <time>2021-10-10T09:34:29Z</time>
      </trkpt>
      <trkpt lat="45.10088" lon="5.59688">
        <ele>1422.6</ele>
        <time>2021-10-10T09:34:30Z</time>
      </trkpt>
      <trkpt lat="45.1009" lon="5.59687">
        <ele>1422.6</ele>
        <time>2021-10-10T09:34:31Z</time>
      </trkpt>
      <trkpt lat="45.10092" lon="5.59686">
        <ele>1422.6</ele>
        <time>2021-10-10T09:34:32Z</time>
      </trkpt>
      <trkpt lat="45.10093" lon="5.59684">
        <ele>1422.6</ele>
        <time>2021-10-10T09:34:33Z</time>
      </trkpt>
      <trkpt lat="45.10095" lon="5.59683">
        <ele>1422.6</ele>
        <time>2021-10-10T09:34:34Z</time>
      </trkpt>
      <trkpt lat="45.10096" lon="5.59682">
        <ele>1422.6</ele>
        <time>2021-10-10T09:34:35Z</time>
      </trkpt>
      <trkpt lat="45.10097" lon="5.59681">
        <ele>1422.6</ele>
        <time>2021-10-10T09:34:36Z</time>
      </trkpt>
      <trkpt lat="45.10098" lon="5.59681">
        <ele>1422.6</ele>
        <time>2021-10-10T09:34:37Z</time>
      </trkpt>
      <trkpt lat="45.101" lon="5.5968">
        <ele>1421.8</ele>
        <time>2021-10-10T09:34:38Z</time>
      </trkpt>
      <trkpt lat="45.10101" lon="5.59679">
        <ele>1421.8</ele>
        <time>2021-10-10T09:34:39Z</time>
      </trkpt>
      <trkpt lat="45.10103" lon="5.59679">
        <ele>1421.8</ele>
        <time>2021-10-10T09:34:40Z</time>
      </trkpt>
      <trkpt lat="45.10105" lon="5.59679">
        <ele>1421.8</ele>
        <time>2021-10-10T09:34:41Z</time>
      </trkpt>
      <trkpt lat="45.10107" lon="5.59678">
        <ele>1421.4</ele>
        <time>2021-10-10T09:34:42Z</time>
      </trkpt>
      <trkpt lat="45.10109" lon="5.59677">
        <ele>1421.4</ele>
        <time>2021-10-10T09:34:43Z</time>
      </trkpt>
      <trkpt lat="45.10111" lon="5.59677">
        <ele>1421.4</ele>
        <time>2021-10-10T09:34:44Z</time>
      </trkpt>
      <trkpt lat="45.10113" lon="5.59675">
        <ele>1421</ele>
        <time>2021-10-10T09:34:45Z</time>
      </trkpt>
      <trkpt lat="45.10114" lon="5.59673">
        <ele>1421.2</ele>
        <time>2021-10-10T09:34:46Z</time>
      </trkpt>
      <trkpt lat="45.10114" lon="5.59672">
        <ele>1421.2</ele>
        <time>2021-10-10T09:34:47Z</time>
      </trkpt>
      <trkpt lat="45.10115" lon="5.59671">
        <ele>1421.2</ele>
        <time>2021-10-10T09:34:48Z</time>
      </trkpt>
      <trkpt lat="45.10116" lon="5.5967">
        <ele>1420.2</ele>
        <time>2021-10-10T09:34:49Z</time>
      </trkpt>
      <trkpt lat="45.10117" lon="5.59667">
        <ele>1420.2</ele>
        <time>2021-10-10T09:34:50Z</time>
      </trkpt>
      <trkpt lat="45.10118" lon="5.59665">
        <ele>1420.2</ele>
        <time>2021-10-10T09:34:51Z</time>
      </trkpt>
      <trkpt lat="45.10119" lon="5.59662">
        <ele>1420.2</ele>
        <time>2021-10-10T09:34:52Z</time>
      </trkpt>
      <trkpt lat="45.10121" lon="5.59659">
        <ele>1420.2</ele>
        <time>2021-10-10T09:34:53Z</time>
      </trkpt>
      <trkpt lat="45.10122" lon="5.59655">
        <ele>1419.4</ele>
        <time>2021-10-10T09:34:54Z</time>
      </trkpt>
      <trkpt lat="45.10123" lon="5.59652">
        <ele>1419.4</ele>
        <time>2021-10-10T09:34:55Z</time>
      </trkpt>
      <trkpt lat="45.10124" lon="5.59647">
        <ele>1419.4</ele>
        <time>2021-10-10T09:34:56Z</time>
      </trkpt>
      <trkpt lat="45.10126" lon="5.59644">
        <ele>1419.4</ele>
        <time>2021-10-10T09:34:57Z</time>
      </trkpt>
      <trkpt lat="45.10128" lon="5.59639">
        <ele>1419</ele>
        <time>2021-10-10T09:34:58Z</time>
      </trkpt>
      <trkpt lat="45.10129" lon="5.59634">
        <ele>1419</ele>
        <time>2021-10-10T09:34:59Z</time>
      </trkpt>
      <trkpt lat="45.10131" lon="5.59629">
        <ele>1419</ele>
        <time>2021-10-10T09:35:00Z</time>
      </trkpt>
      <trkpt lat="45.10132" lon="5.59625">
        <ele>1418.8</ele>
        <time>2021-10-10T09:35:01Z</time>
      </trkpt>
      <trkpt lat="45.10135" lon="5.59622">
        <ele>1418.8</ele>
        <time>2021-10-10T09:35:02Z</time>
      </trkpt>
      <trkpt lat="45.10137" lon="5.59618">
        <ele>1418.8</ele>
        <time>2021-10-10T09:35:03Z</time>
      </trkpt>
      <trkpt lat="45.10139" lon="5.59615">
        <ele>1418.8</ele>
        <time>2021-10-10T09:35:04Z</time>
      </trkpt>
      <trkpt lat="45.10141" lon="5.59612">
        <ele>1419.6</ele>
        <time>2021-10-10T09:35:05Z</time>
      </trkpt>
      <trkpt lat="45.10143" lon="5.59608">
        <ele>1419.8</ele>
        <time>2021-10-10T09:35:06Z</time>
      </trkpt>
      <trkpt lat="45.10146" lon="5.59606">
        <ele>1419.8</ele>
        <time>2021-10-10T09:35:07Z</time>
      </trkpt>
      <trkpt lat="45.10148" lon="5.59603">
        <ele>1419.8</ele>
        <time>2021-10-10T09:35:08Z</time>
      </trkpt>
      <trkpt lat="45.10151" lon="5.59601">
        <ele>1419.8</ele>
        <time>2021-10-10T09:35:09Z</time>
      </trkpt>
      <trkpt lat="45.10154" lon="5.59599">
        <ele>1419.6</ele>
        <time>2021-10-10T09:35:10Z</time>
      </trkpt>
      <trkpt lat="45.10156" lon="5.59597">
        <ele>1419.6</ele>
        <time>2021-10-10T09:35:11Z</time>
      </trkpt>
      <trkpt lat="45.10159" lon="5.59596">
        <ele>1419.6</ele>
        <time>2021-10-10T09:35:12Z</time>
      </trkpt>
      <trkpt lat="45.10162" lon="5.59595">
        <ele>1419.2</ele>
        <time>2021-10-10T09:35:13Z</time>
      </trkpt>
      <trkpt lat="45.10165" lon="5.59594">
        <ele>1419.2</ele>
        <time>2021-10-10T09:35:14Z</time>
      </trkpt>
      <trkpt lat="45.10169" lon="5.59593">
        <ele>1419.2</ele>
        <time>2021-10-10T09:35:15Z</time>
      </trkpt>
      <trkpt lat="45.10173" lon="5.59593">
        <ele>1419.2</ele>
        <time>2021-10-10T09:35:16Z</time>
      </trkpt>
      <trkpt lat="45.10177" lon="5.59594">
        <ele>1418.4</ele>
        <time>2021-10-10T09:35:17Z</time>
      </trkpt>
      <trkpt lat="45.10181" lon="5.59595">
        <ele>1418.2</ele>
        <time>2021-10-10T09:35:18Z</time>
      </trkpt>
      <trkpt lat="45.10184" lon="5.59597">
        <ele>1418.2</ele>
        <time>2021-10-10T09:35:19Z</time>
      </trkpt>
      <trkpt lat="45.10187" lon="5.59598">
        <ele>1418.2</ele>
        <time>2021-10-10T09:35:20Z</time>
      </trkpt>
      <trkpt lat="45.10191" lon="5.596">
        <ele>1418.2</ele>
        <time>2021-10-10T09:35:21Z</time>
      </trkpt>
      <trkpt lat="45.10194" lon="5.59603">
        <ele>1418.6</ele>
        <time>2021-10-10T09:35:22Z</time>
      </trkpt>
      <trkpt lat="45.10198" lon="5.59605">
        <ele>1418.6</ele>
        <time>2021-10-10T09:35:23Z</time>
      </trkpt>
      <trkpt lat="45.10201" lon="5.59608">
        <ele>1418.6</ele>
        <time>2021-10-10T09:35:24Z</time>
      </trkpt>
      <trkpt lat="45.10204" lon="5.59611">
        <ele>1418</ele>
        <time>2021-10-10T09:35:25Z</time>
      </trkpt>
      <trkpt lat="45.10208" lon="5.59613">
        <ele>1418</ele>
        <time>2021-10-10T09:35:26Z</time>
      </trkpt>
      <trkpt lat="45.10212" lon="5.59616">
        <ele>1418</ele>
        <time>2021-10-10T09:35:27Z</time>
      </trkpt>
      <trkpt lat="45.10215" lon="5.59618">
        <ele>1418</ele>
        <time>2021-10-10T09:35:28Z</time>
      </trkpt>
      <trkpt lat="45.10218" lon="5.5962">
        <ele>1417</ele>
        <time>2021-10-10T09:35:29Z</time>
      </trkpt>
      <trkpt lat="45.10222" lon="5.59623">
        <ele>1416.2</ele>
        <time>2021-10-10T09:35:30Z</time>
      </trkpt>
      <trkpt lat="45.10226" lon="5.59625">
        <ele>1416.2</ele>
        <time>2021-10-10T09:35:31Z</time>
      </trkpt>
      <trkpt lat="45.10229" lon="5.59627">
        <ele>1416.2</ele>
        <time>2021-10-10T09:35:32Z</time>
      </trkpt>
      <trkpt lat="45.10233" lon="5.59629">
        <ele>1416.2</ele>
        <time>2021-10-10T09:35:33Z</time>
      </trkpt>
      <trkpt lat="45.10236" lon="5.59631">
        <ele>1414.8</ele>
        <time>2021-10-10T09:35:34Z</time>
      </trkpt>
      <trkpt lat="45.1024" lon="5.59633">
        <ele>1414.8</ele>
        <time>2021-10-10T09:35:35Z</time>
      </trkpt>
      <trkpt lat="45.10244" lon="5.59635">
        <ele>1414.8</ele>
        <time>2021-10-10T09:35:36Z</time>
      </trkpt>
      <trkpt lat="45.10249" lon="5.59637">
        <ele>1413.8</ele>
        <time>2021-10-10T09:35:37Z</time>
      </trkpt>
      <trkpt lat="45.10254" lon="5.59637">
        <ele>1410.8</ele>
        <time>2021-10-10T09:35:38Z</time>
      </trkpt>
      <trkpt lat="45.1026" lon="5.59639">
        <ele>1410.8</ele>
        <time>2021-10-10T09:35:39Z</time>
      </trkpt>
      <trkpt lat="45.10266" lon="5.5964">
        <ele>1410.8</ele>
        <time>2021-10-10T09:35:40Z</time>
      </trkpt>
      <trkpt lat="45.10272" lon="5.59641">
        <ele>1409.8</ele>
        <time>2021-10-10T09:35:41Z</time>
      </trkpt>
      <trkpt lat="45.10278" lon="5.59642">
        <ele>1408.2</ele>
        <time>2021-10-10T09:35:42Z</time>
      </trkpt>
      <trkpt lat="45.10285" lon="5.59642">
        <ele>1408.2</ele>
        <time>2021-10-10T09:35:43Z</time>
      </trkpt>
      <trkpt lat="45.10291" lon="5.59641">
        <ele>1408.2</ele>
        <time>2021-10-10T09:35:44Z</time>
      </trkpt>
      <trkpt lat="45.10296" lon="5.59641">
        <ele>1407.2</ele>
        <time>2021-10-10T09:35:45Z</time>
      </trkpt>
      <trkpt lat="45.10302" lon="5.59642">
        <ele>1405</ele>
        <time>2021-10-10T09:35:46Z</time>
      </trkpt>
      <trkpt lat="45.10307" lon="5.59643">
        <ele>1405</ele>
        <time>2021-10-10T09:35:47Z</time>
      </trkpt>
      <trkpt lat="45.10314" lon="5.59643">
        <ele>1405</ele>
        <time>2021-10-10T09:35:48Z</time>
      </trkpt>
      <trkpt lat="45.10321" lon="5.59644">
        <ele>1404</ele>
        <time>2021-10-10T09:35:49Z</time>
      </trkpt>
      <trkpt lat="45.10328" lon="5.59645">
        <ele>1401.6</ele>
        <time>2021-10-10T09:35:50Z</time>
      </trkpt>
      <trkpt lat="45.10334" lon="5.59646">
        <ele>1401.6</ele>
        <time>2021-10-10T09:35:51Z</time>
      </trkpt>
      <trkpt lat="45.1034" lon="5.59647">
        <ele>1401.6</ele>
        <time>2021-10-10T09:35:52Z</time>
      </trkpt>
      <trkpt lat="45.10345" lon="5.59649">
        <ele>1400.6</ele>
        <time>2021-10-10T09:35:53Z</time>
      </trkpt>
      <trkpt lat="45.10351" lon="5.5965">
        <ele>1399</ele>
        <time>2021-10-10T09:35:54Z</time>
      </trkpt>
      <trkpt lat="45.10358" lon="5.59652">
        <ele>1399</ele>
        <time>2021-10-10T09:35:55Z</time>
      </trkpt>
      <trkpt lat="45.10364" lon="5.59652">
        <ele>1399</ele>
        <time>2021-10-10T09:35:56Z</time>
      </trkpt>
      <trkpt lat="45.1037" lon="5.59654">
        <ele>1398</ele>
        <time>2021-10-10T09:35:57Z</time>
      </trkpt>
      <trkpt lat="45.10377" lon="5.59654">
        <ele>1395.2</ele>
        <time>2021-10-10T09:35:58Z</time>
      </trkpt>
      <trkpt lat="45.10384" lon="5.59654">
        <ele>1395.2</ele>
        <time>2021-10-10T09:35:59Z</time>
      </trkpt>
      <trkpt lat="45.10391" lon="5.59655">
        <ele>1395.2</ele>
        <time>2021-10-10T09:36:00Z</time>
      </trkpt>
      <trkpt lat="45.10398" lon="5.59655">
        <ele>1394.2</ele>
        <time>2021-10-10T09:36:01Z</time>
      </trkpt>
      <trkpt lat="45.10406" lon="5.59655">
        <ele>1389.6</ele>
        <time>2021-10-10T09:36:02Z</time>
      </trkpt>
      <trkpt lat="45.10414" lon="5.59655">
        <ele>1389.6</ele>
        <time>2021-10-10T09:36:03Z</time>
      </trkpt>
      <trkpt lat="45.10421" lon="5.59654">
        <ele>1389.6</ele>
        <time>2021-10-10T09:36:04Z</time>
      </trkpt>
      <trkpt lat="45.10429" lon="5.59653">
        <ele>1389.6</ele>
        <time>2021-10-10T09:36:05Z</time>
      </trkpt>
      <trkpt lat="45.10435" lon="5.59651">
        <ele>1386.4</ele>
        <time>2021-10-10T09:36:06Z</time>
      </trkpt>
      <trkpt lat="45.10442" lon="5.59649">
        <ele>1386.4</ele>
        <time>2021-10-10T09:36:07Z</time>
      </trkpt>
      <trkpt lat="45.10449" lon="5.59648">
        <ele>1386.4</ele>
        <time>2021-10-10T09:36:08Z</time>
      </trkpt>
      <trkpt lat="45.10457" lon="5.59648">
        <ele>1385.4</ele>
        <time>2021-10-10T09:36:09Z</time>
      </trkpt>
      <trkpt lat="45.10465" lon="5.59646">
        <ele>1382.2</ele>
        <time>2021-10-10T09:36:10Z</time>
      </trkpt>
      <trkpt lat="45.10474" lon="5.59646">
        <ele>1382.2</ele>
        <time>2021-10-10T09:36:11Z</time>
      </trkpt>
      <trkpt lat="45.10482" lon="5.59646">
        <ele>1382.2</ele>
        <time>2021-10-10T09:36:12Z</time>
      </trkpt>
      <trkpt lat="45.1049" lon="5.59645">
        <ele>1381.2</ele>
        <time>2021-10-10T09:36:13Z</time>
      </trkpt>
      <trkpt lat="45.10499" lon="5.59644">
        <ele>1378.2</ele>
        <time>2021-10-10T09:36:14Z</time>
      </trkpt>
      <trkpt lat="45.10508" lon="5.59644">
        <ele>1378.2</ele>
        <time>2021-10-10T09:36:15Z</time>
      </trkpt>
      <trkpt lat="45.10514" lon="5.59646">
        <ele>1378.2</ele>
        <time>2021-10-10T09:36:16Z</time>
      </trkpt>
      <trkpt lat="45.1052" lon="5.59647">
        <ele>1378.2</ele>
        <time>2021-10-10T09:36:17Z</time>
      </trkpt>
      <trkpt lat="45.10527" lon="5.59647">
        <ele>1376.4</ele>
        <time>2021-10-10T09:36:18Z</time>
      </trkpt>
      <trkpt lat="45.10533" lon="5.59648">
        <ele>1376.4</ele>
        <time>2021-10-10T09:36:19Z</time>
      </trkpt>
      <trkpt lat="45.10539" lon="5.59651">
        <ele>1376.4</ele>
        <time>2021-10-10T09:36:20Z</time>
      </trkpt>
      <trkpt lat="45.10547" lon="5.59652">
        <ele>1375.4</ele>
        <time>2021-10-10T09:36:21Z</time>
      </trkpt>
      <trkpt lat="45.10554" lon="5.59653">
        <ele>1373</ele>
        <time>2021-10-10T09:36:22Z</time>
      </trkpt>
      <trkpt lat="45.10561" lon="5.59654">
        <ele>1373</ele>
        <time>2021-10-10T09:36:23Z</time>
      </trkpt>
      <trkpt lat="45.10569" lon="5.59655">
        <ele>1373</ele>
        <time>2021-10-10T09:36:24Z</time>
      </trkpt>
      <trkpt lat="45.10577" lon="5.59657">
        <ele>1372</ele>
        <time>2021-10-10T09:36:25Z</time>
      </trkpt>
      <trkpt lat="45.10585" lon="5.59658">
        <ele>1370</ele>
        <time>2021-10-10T09:36:26Z</time>
      </trkpt>
      <trkpt lat="45.10593" lon="5.59658">
        <ele>1370</ele>
        <time>2021-10-10T09:36:27Z</time>
      </trkpt>
      <trkpt lat="45.10602" lon="5.59659">
        <ele>1370</ele>
        <time>2021-10-10T09:36:28Z</time>
      </trkpt>
      <trkpt lat="45.10611" lon="5.59659">
        <ele>1369</ele>
        <time>2021-10-10T09:36:29Z</time>
      </trkpt>
      <trkpt lat="45.1062" lon="5.59659">
        <ele>1366.4</ele>
        <time>2021-10-10T09:36:30Z</time>
      </trkpt>
      <trkpt lat="45.10629" lon="5.59659">
        <ele>1366.4</ele>
        <time>2021-10-10T09:36:31Z</time>
      </trkpt>
      <trkpt lat="45.10639" lon="5.5966">
        <ele>1366.4</ele>
        <time>2021-10-10T09:36:32Z</time>
      </trkpt>
      <trkpt lat="45.10649" lon="5.59661">
        <ele>1365.4</ele>
        <time>2021-10-10T09:36:33Z</time>
      </trkpt>
      <trkpt lat="45.1066" lon="5.59663">
        <ele>1362</ele>
        <time>2021-10-10T09:36:34Z</time>
      </trkpt>
      <trkpt lat="45.1067" lon="5.59663">
        <ele>1362</ele>
        <time>2021-10-10T09:36:35Z</time>
      </trkpt>
      <trkpt lat="45.10677" lon="5.59663">
        <ele>1362</ele>
        <time>2021-10-10T09:36:36Z</time>
      </trkpt>
      <trkpt lat="45.10684" lon="5.59662">
        <ele>1361</ele>
        <time>2021-10-10T09:36:37Z</time>
      </trkpt>
      <trkpt lat="45.10694" lon="5.59661">
        <ele>1358.6</ele>
        <time>2021-10-10T09:36:38Z</time>
      </trkpt>
      <trkpt lat="45.10704" lon="5.59659">
        <ele>1358.6</ele>
        <time>2021-10-10T09:36:39Z</time>
      </trkpt>
      <trkpt lat="45.10712" lon="5.59658">
        <ele>1358.6</ele>
        <time>2021-10-10T09:36:40Z</time>
      </trkpt>
      <trkpt lat="45.10723" lon="5.59656">
        <ele>1357.6</ele>
        <time>2021-10-10T09:36:41Z</time>
      </trkpt>
      <trkpt lat="45.10733" lon="5.59655">
        <ele>1355.2</ele>
        <time>2021-10-10T09:36:42Z</time>
      </trkpt>
      <trkpt lat="45.10744" lon="5.59653">
        <ele>1355.2</ele>
        <time>2021-10-10T09:36:43Z</time>
      </trkpt>
      <trkpt lat="45.10755" lon="5.59652">
        <ele>1355.2</ele>
        <time>2021-10-10T09:36:44Z</time>
      </trkpt>
      <trkpt lat="45.10765" lon="5.59651">
        <ele>1355.2</ele>
        <time>2021-10-10T09:36:45Z</time>
      </trkpt>
      <trkpt lat="45.10774" lon="5.59651">
        <ele>1352.8</ele>
        <time>2021-10-10T09:36:46Z</time>
      </trkpt>
      <trkpt lat="45.10784" lon="5.59651">
        <ele>1352.8</ele>
        <time>2021-10-10T09:36:47Z</time>
      </trkpt>
      <trkpt lat="45.10793" lon="5.59651">
        <ele>1352.8</ele>
        <time>2021-10-10T09:36:48Z</time>
      </trkpt>
      <trkpt lat="45.10803" lon="5.59651">
        <ele>1351.8</ele>
        <time>2021-10-10T09:36:49Z</time>
      </trkpt>
      <trkpt lat="45.10813" lon="5.59652">
        <ele>1349</ele>
        <time>2021-10-10T09:36:50Z</time>
      </trkpt>
      <trkpt lat="45.10822" lon="5.59653">
        <ele>1349</ele>
        <time>2021-10-10T09:36:51Z</time>
      </trkpt>
      <trkpt lat="45.10832" lon="5.59655">
        <ele>1349</ele>
        <time>2021-10-10T09:36:52Z</time>
      </trkpt>
      <trkpt lat="45.10842" lon="5.59657">
        <ele>1348</ele>
        <time>2021-10-10T09:36:53Z</time>
      </trkpt>
      <trkpt lat="45.10852" lon="5.5966">
        <ele>1344.4</ele>
        <time>2021-10-10T09:36:54Z</time>
      </trkpt>
      <trkpt lat="45.10863" lon="5.59662">
        <ele>1344.4</ele>
        <time>2021-10-10T09:36:55Z</time>
      </trkpt>
      <trkpt lat="45.10874" lon="5.59663">
        <ele>1344.4</ele>
        <time>2021-10-10T09:36:56Z</time>
      </trkpt>
      <trkpt lat="45.10883" lon="5.59664">
        <ele>1343.4</ele>
        <time>2021-10-10T09:36:57Z</time>
      </trkpt>
      <trkpt lat="45.10893" lon="5.59665">
        <ele>1340</ele>
        <time>2021-10-10T09:36:58Z</time>
      </trkpt>
      <trkpt lat="45.10905" lon="5.59666">
        <ele>1340</ele>
        <time>2021-10-10T09:36:59Z</time>
      </trkpt>
      <trkpt lat="45.10914" lon="5.59666">
        <ele>1340</ele>
        <time>2021-10-10T09:37:00Z</time>
      </trkpt>
      <trkpt lat="45.10923" lon="5.59667">
        <ele>1339</ele>
        <time>2021-10-10T09:37:01Z</time>
      </trkpt>
      <trkpt lat="45.10932" lon="5.59667">
        <ele>1338.2</ele>
        <time>2021-10-10T09:37:02Z</time>
      </trkpt>
      <trkpt lat="45.10942" lon="5.59667">
        <ele>1338.2</ele>
        <time>2021-10-10T09:37:03Z</time>
      </trkpt>
      <trkpt lat="45.1095" lon="5.59667">
        <ele>1338.2</ele>
        <time>2021-10-10T09:37:04Z</time>
      </trkpt>
      <trkpt lat="45.10959" lon="5.59666">
        <ele>1337.2</ele>
        <time>2021-10-10T09:37:05Z</time>
      </trkpt>
      <trkpt lat="45.10968" lon="5.59667">
        <ele>1335.4</ele>
        <time>2021-10-10T09:37:06Z</time>
      </trkpt>
      <trkpt lat="45.10975" lon="5.59668">
        <ele>1335.4</ele>
        <time>2021-10-10T09:37:07Z</time>
      </trkpt>
      <trkpt lat="45.10983" lon="5.59669">
        <ele>1335.4</ele>
        <time>2021-10-10T09:37:08Z</time>
      </trkpt>
      <trkpt lat="45.10992" lon="5.59671">
        <ele>1334.4</ele>
        <time>2021-10-10T09:37:09Z</time>
      </trkpt>
      <trkpt lat="45.11001" lon="5.59674">
        <ele>1331.8</ele>
        <time>2021-10-10T09:37:10Z</time>
      </trkpt>
      <trkpt lat="45.1101" lon="5.59679">
        <ele>1331.8</ele>
        <time>2021-10-10T09:37:11Z</time>
      </trkpt>
      <trkpt lat="45.11019" lon="5.59684">
        <ele>1331.8</ele>
        <time>2021-10-10T09:37:12Z</time>
      </trkpt>
      <trkpt lat="45.11027" lon="5.59691">
        <ele>1330.8</ele>
        <time>2021-10-10T09:37:13Z</time>
      </trkpt>
      <trkpt lat="45.11035" lon="5.59698">
        <ele>1327.4</ele>
        <time>2021-10-10T09:37:14Z</time>
      </trkpt>
      <trkpt lat="45.11043" lon="5.59705">
        <ele>1327.4</ele>
        <time>2021-10-10T09:37:15Z</time>
      </trkpt>
      <trkpt lat="45.11052" lon="5.59714">
        <ele>1327.4</ele>
        <time>2021-10-10T09:37:16Z</time>
      </trkpt>
      <trkpt lat="45.1106" lon="5.59721">
        <ele>1327.4</ele>
        <time>2021-10-10T09:37:17Z</time>
      </trkpt>
      <trkpt lat="45.11066" lon="5.5973">
        <ele>1326</ele>
        <time>2021-10-10T09:37:18Z</time>
      </trkpt>
      <trkpt lat="45.11071" lon="5.59738">
        <ele>1326</ele>
        <time>2021-10-10T09:37:19Z</time>
      </trkpt>
      <trkpt lat="45.11077" lon="5.59747">
        <ele>1326</ele>
        <time>2021-10-10T09:37:20Z</time>
      </trkpt>
      <trkpt lat="45.11083" lon="5.59756">
        <ele>1325</ele>
        <time>2021-10-10T09:37:21Z</time>
      </trkpt>
      <trkpt lat="45.11087" lon="5.59765">
        <ele>1324.8</ele>
        <time>2021-10-10T09:37:22Z</time>
      </trkpt>
      <trkpt lat="45.11092" lon="5.59772">
        <ele>1324.8</ele>
        <time>2021-10-10T09:37:23Z</time>
      </trkpt>
      <trkpt lat="45.11096" lon="5.59779">
        <ele>1324.8</ele>
        <time>2021-10-10T09:37:24Z</time>
      </trkpt>
      <trkpt lat="45.11101" lon="5.59783">
        <ele>1323.8</ele>
        <time>2021-10-10T09:37:25Z</time>
      </trkpt>
      <trkpt lat="45.11105" lon="5.59788">
        <ele>1323.2</ele>
        <time>2021-10-10T09:37:26Z</time>
      </trkpt>
      <trkpt lat="45.1111" lon="5.59793">
        <ele>1323.2</ele>
        <time>2021-10-10T09:37:27Z</time>
      </trkpt>
      <trkpt lat="45.11115" lon="5.59798">
        <ele>1323.2</ele>
        <time>2021-10-10T09:37:28Z</time>
      </trkpt>
      <trkpt lat="45.11118" lon="5.59805">
        <ele>1322.4</ele>
        <time>2021-10-10T09:37:29Z</time>
      </trkpt>
      <trkpt lat="45.1112" lon="5.59811">
        <ele>1321.6</ele>
        <time>2021-10-10T09:37:30Z</time>
      </trkpt>
      <trkpt lat="45.11121" lon="5.59818">
        <ele>1321.6</ele>
        <time>2021-10-10T09:37:31Z</time>
      </trkpt>
      <trkpt lat="45.1112" lon="5.59826">
        <ele>1321.6</ele>
        <time>2021-10-10T09:37:32Z</time>
      </trkpt>
      <trkpt lat="45.11119" lon="5.59834">
        <ele>1320.6</ele>
        <time>2021-10-10T09:37:33Z</time>
      </trkpt>
      <trkpt lat="45.11119" lon="5.59844">
        <ele>1317.6</ele>
        <time>2021-10-10T09:37:34Z</time>
      </trkpt>
      <trkpt lat="45.11118" lon="5.59853">
        <ele>1317.6</ele>
        <time>2021-10-10T09:37:35Z</time>
      </trkpt>
      <trkpt lat="45.11119" lon="5.59863">
        <ele>1317.6</ele>
        <time>2021-10-10T09:37:36Z</time>
      </trkpt>
      <trkpt lat="45.11121" lon="5.59873">
        <ele>1317.6</ele>
        <time>2021-10-10T09:37:37Z</time>
      </trkpt>
      <trkpt lat="45.11121" lon="5.59882">
        <ele>1317.6</ele>
        <time>2021-10-10T09:37:38Z</time>
      </trkpt>
      <trkpt lat="45.11122" lon="5.59889">
        <ele>1317.6</ele>
        <time>2021-10-10T09:37:39Z</time>
      </trkpt>
      <trkpt lat="45.11123" lon="5.59894">
        <ele>1317.6</ele>
        <time>2021-10-10T09:37:40Z</time>
      </trkpt>
      <trkpt lat="45.11125" lon="5.59897">
        <ele>1317.6</ele>
        <time>2021-10-10T09:37:41Z</time>
      </trkpt>
      <trkpt lat="45.11128" lon="5.59898">
        <ele>1317</ele>
        <time>2021-10-10T09:37:42Z</time>
      </trkpt>
      <trkpt lat="45.1113" lon="5.59897">
        <ele>1317</ele>
        <time>2021-10-10T09:37:43Z</time>
      </trkpt>
      <trkpt lat="45.11131" lon="5.59895">
        <ele>1317</ele>
        <time>2021-10-10T09:37:44Z</time>
      </trkpt>
      <trkpt lat="45.11132" lon="5.59893">
        <ele>1316.4</ele>
        <time>2021-10-10T09:37:45Z</time>
      </trkpt>
      <trkpt lat="45.11134" lon="5.59892">
        <ele>1316.2</ele>
        <time>2021-10-10T09:37:46Z</time>
      </trkpt>
      <trkpt lat="45.11135" lon="5.59889">
        <ele>1316.2</ele>
        <time>2021-10-10T09:37:47Z</time>
      </trkpt>
      <trkpt lat="45.11135" lon="5.59887">
        <ele>1316.2</ele>
        <time>2021-10-10T09:37:48Z</time>
      </trkpt>
      <trkpt lat="45.11135" lon="5.59885">
        <ele>1316.2</ele>
        <time>2021-10-10T09:37:49Z</time>
      </trkpt>
      <trkpt lat="45.11134" lon="5.59883">
        <ele>1315.8</ele>
        <time>2021-10-10T09:37:50Z</time>
      </trkpt>
      <trkpt lat="45.11134" lon="5.59881">
        <ele>1315.8</ele>
        <time>2021-10-10T09:37:51Z</time>
      </trkpt>
      <trkpt lat="45.11133" lon="5.59879">
        <ele>1315.8</ele>
        <time>2021-10-10T09:37:52Z</time>
      </trkpt>
      <trkpt lat="45.11133" lon="5.59878">
        <ele>1315.8</ele>
        <time>2021-10-10T09:37:53Z</time>
      </trkpt>
      <trkpt lat="45.11133" lon="5.59877">
        <ele>1316</ele>
        <time>2021-10-10T09:37:54Z</time>
      </trkpt>
      <trkpt lat="45.11133" lon="5.59875">
        <ele>1316</ele>
        <time>2021-10-10T09:37:55Z</time>
      </trkpt>
      <trkpt lat="45.11133" lon="5.59872">
        <ele>1316</ele>
        <time>2021-10-10T09:37:56Z</time>
      </trkpt>
      <trkpt lat="45.11134" lon="5.59869">
        <ele>1315</ele>
        <time>2021-10-10T09:37:57Z</time>
      </trkpt>
      <trkpt lat="45.11133" lon="5.59865">
        <ele>1314.4</ele>
        <time>2021-10-10T09:37:58Z</time>
      </trkpt>
      <trkpt lat="45.11134" lon="5.59861">
        <ele>1314.4</ele>
        <time>2021-10-10T09:37:59Z</time>
      </trkpt>
      <trkpt lat="45.11134" lon="5.59855">
        <ele>1314.4</ele>
        <time>2021-10-10T09:38:00Z</time>
      </trkpt>
      <trkpt lat="45.11134" lon="5.5985">
        <ele>1314.4</ele>
        <time>2021-10-10T09:38:01Z</time>
      </trkpt>
      <trkpt lat="45.11134" lon="5.59845">
        <ele>1313.2</ele>
        <time>2021-10-10T09:38:02Z</time>
      </trkpt>
      <trkpt lat="45.11135" lon="5.5984">
        <ele>1313.2</ele>
        <time>2021-10-10T09:38:03Z</time>
      </trkpt>
      <trkpt lat="45.11136" lon="5.59835">
        <ele>1313.2</ele>
        <time>2021-10-10T09:38:04Z</time>
      </trkpt>
      <trkpt lat="45.11136" lon="5.59829">
        <ele>1312.2</ele>
        <time>2021-10-10T09:38:05Z</time>
      </trkpt>
      <trkpt lat="45.11138" lon="5.59824">
        <ele>1310.6</ele>
        <time>2021-10-10T09:38:06Z</time>
      </trkpt>
      <trkpt lat="45.11139" lon="5.59819">
        <ele>1310.6</ele>
        <time>2021-10-10T09:38:07Z</time>
      </trkpt>
      <trkpt lat="45.1114" lon="5.59813">
        <ele>1310.6</ele>
        <time>2021-10-10T09:38:08Z</time>
      </trkpt>
      <trkpt lat="45.11141" lon="5.59806">
        <ele>1310.6</ele>
        <time>2021-10-10T09:38:09Z</time>
      </trkpt>
      <trkpt lat="45.11141" lon="5.598">
        <ele>1309.4</ele>
        <time>2021-10-10T09:38:10Z</time>
      </trkpt>
      <trkpt lat="45.11141" lon="5.59793">
        <ele>1309.4</ele>
        <time>2021-10-10T09:38:11Z</time>
      </trkpt>
      <trkpt lat="45.1114" lon="5.59787">
        <ele>1309.4</ele>
        <time>2021-10-10T09:38:12Z</time>
      </trkpt>
      <trkpt lat="45.11139" lon="5.5978">
        <ele>1309.4</ele>
        <time>2021-10-10T09:38:13Z</time>
      </trkpt>
      <trkpt lat="45.11138" lon="5.59773">
        <ele>1306.4</ele>
        <time>2021-10-10T09:38:14Z</time>
      </trkpt>
      <trkpt lat="45.11136" lon="5.59765">
        <ele>1306.4</ele>
        <time>2021-10-10T09:38:15Z</time>
      </trkpt>
      <trkpt lat="45.11133" lon="5.59757">
        <ele>1306.4</ele>
        <time>2021-10-10T09:38:16Z</time>
      </trkpt>
      <trkpt lat="45.1113" lon="5.59748">
        <ele>1305.4</ele>
        <time>2021-10-10T09:38:17Z</time>
      </trkpt>
      <trkpt lat="45.11128" lon="5.59739">
        <ele>1302.2</ele>
        <time>2021-10-10T09:38:18Z</time>
      </trkpt>
      <trkpt lat="45.11125" lon="5.59729">
        <ele>1302.2</ele>
        <time>2021-10-10T09:38:19Z</time>
      </trkpt>
      <trkpt lat="45.11124" lon="5.59719">
        <ele>1302.2</ele>
        <time>2021-10-10T09:38:20Z</time>
      </trkpt>
      <trkpt lat="45.11123" lon="5.5971">
        <ele>1301.6</ele>
        <time>2021-10-10T09:38:21Z</time>
      </trkpt>
      <trkpt lat="45.11124" lon="5.59702">
        <ele>1300.4</ele>
        <time>2021-10-10T09:38:22Z</time>
      </trkpt>
      <trkpt lat="45.11125" lon="5.59694">
        <ele>1300.4</ele>
        <time>2021-10-10T09:38:23Z</time>
      </trkpt>
      <trkpt lat="45.11126" lon="5.59686">
        <ele>1300.4</ele>
        <time>2021-10-10T09:38:24Z</time>
      </trkpt>
      <trkpt lat="45.11127" lon="5.59678">
        <ele>1299.4</ele>
        <time>2021-10-10T09:38:25Z</time>
      </trkpt>
      <trkpt lat="45.11128" lon="5.59671">
        <ele>1298</ele>
        <time>2021-10-10T09:38:26Z</time>
      </trkpt>
      <trkpt lat="45.11131" lon="5.59664">
        <ele>1298</ele>
        <time>2021-10-10T09:38:27Z</time>
      </trkpt>
      <trkpt lat="45.11135" lon="5.5966">
        <ele>1298</ele>
        <time>2021-10-10T09:38:28Z</time>
      </trkpt>
      <trkpt lat="45.1114" lon="5.59657">
        <ele>1297</ele>
        <time>2021-10-10T09:38:29Z</time>
      </trkpt>
      <trkpt lat="45.11145" lon="5.59654">
        <ele>1294.8</ele>
        <time>2021-10-10T09:38:30Z</time>
      </trkpt>
      <trkpt lat="45.11152" lon="5.59649">
        <ele>1294.8</ele>
        <time>2021-10-10T09:38:31Z</time>
      </trkpt>
      <trkpt lat="45.11158" lon="5.59646">
        <ele>1294.8</ele>
        <time>2021-10-10T09:38:32Z</time>
      </trkpt>
      <trkpt lat="45.11165" lon="5.59642">
        <ele>1293.8</ele>
        <time>2021-10-10T09:38:33Z</time>
      </trkpt>
      <trkpt lat="45.11172" lon="5.59637">
        <ele>1291.2</ele>
        <time>2021-10-10T09:38:34Z</time>
      </trkpt>
      <trkpt lat="45.1118" lon="5.59632">
        <ele>1291.2</ele>
        <time>2021-10-10T09:38:35Z</time>
      </trkpt>
      <trkpt lat="45.11186" lon="5.59626">
        <ele>1291.2</ele>
        <time>2021-10-10T09:38:36Z</time>
      </trkpt>
      <trkpt lat="45.11192" lon="5.59618">
        <ele>1290.2</ele>
        <time>2021-10-10T09:38:37Z</time>
      </trkpt>
      <trkpt lat="45.11199" lon="5.59612">
        <ele>1288.4</ele>
        <time>2021-10-10T09:38:38Z</time>
      </trkpt>
      <trkpt lat="45.11205" lon="5.59605">
        <ele>1288.4</ele>
        <time>2021-10-10T09:38:39Z</time>
      </trkpt>
      <trkpt lat="45.11211" lon="5.59598">
        <ele>1288.4</ele>
        <time>2021-10-10T09:38:40Z</time>
      </trkpt>
      <trkpt lat="45.11217" lon="5.59589">
        <ele>1287.4</ele>
        <time>2021-10-10T09:38:41Z</time>
      </trkpt>
      <trkpt lat="45.11223" lon="5.59582">
        <ele>1284.4</ele>
        <time>2021-10-10T09:38:42Z</time>
      </trkpt>
      <trkpt lat="45.11228" lon="5.59573">
        <ele>1284.4</ele>
        <time>2021-10-10T09:38:43Z</time>
      </trkpt>
      <trkpt lat="45.11234" lon="5.59564">
        <ele>1284.4</ele>
        <time>2021-10-10T09:38:44Z</time>
      </trkpt>
      <trkpt lat="45.1124" lon="5.59555">
        <ele>1283.4</ele>
        <time>2021-10-10T09:38:45Z</time>
      </trkpt>
      <trkpt lat="45.11245" lon="5.59545">
        <ele>1279.6</ele>
        <time>2021-10-10T09:38:46Z</time>
      </trkpt>
      <trkpt lat="45.11249" lon="5.59534">
        <ele>1279.6</ele>
        <time>2021-10-10T09:38:47Z</time>
      </trkpt>
      <trkpt lat="45.11253" lon="5.59523">
        <ele>1279.6</ele>
        <time>2021-10-10T09:38:48Z</time>
      </trkpt>
      <trkpt lat="45.11257" lon="5.59511">
        <ele>1278.6</ele>
        <time>2021-10-10T09:38:49Z</time>
      </trkpt>
      <trkpt lat="45.1126" lon="5.595">
        <ele>1273.6</ele>
        <time>2021-10-10T09:38:50Z</time>
      </trkpt>
      <trkpt lat="45.11261" lon="5.59488">
        <ele>1273.6</ele>
        <time>2021-10-10T09:38:51Z</time>
      </trkpt>
      <trkpt lat="45.11261" lon="5.59478">
        <ele>1273.6</ele>
        <time>2021-10-10T09:38:52Z</time>
      </trkpt>
      <trkpt lat="45.11263" lon="5.59468">
        <ele>1274.6</ele>
        <time>2021-10-10T09:38:53Z</time>
      </trkpt>
      <trkpt lat="45.11265" lon="5.5946">
        <ele>1273.2</ele>
        <time>2021-10-10T09:38:54Z</time>
      </trkpt>
      <trkpt lat="45.11266" lon="5.59453">
        <ele>1273.2</ele>
        <time>2021-10-10T09:38:55Z</time>
      </trkpt>
      <trkpt lat="45.11265" lon="5.59444">
        <ele>1273.2</ele>
        <time>2021-10-10T09:38:56Z</time>
      </trkpt>
      <trkpt lat="45.11265" lon="5.59437">
        <ele>1273.2</ele>
        <time>2021-10-10T09:38:57Z</time>
      </trkpt>
      <trkpt lat="45.11263" lon="5.5943">
        <ele>1271</ele>
        <time>2021-10-10T09:38:58Z</time>
      </trkpt>
      <trkpt lat="45.11261" lon="5.59423">
        <ele>1271</ele>
        <time>2021-10-10T09:38:59Z</time>
      </trkpt>
      <trkpt lat="45.11258" lon="5.59417">
        <ele>1271</ele>
        <time>2021-10-10T09:39:00Z</time>
      </trkpt>
      <trkpt lat="45.11253" lon="5.5941">
        <ele>1270</ele>
        <time>2021-10-10T09:39:01Z</time>
      </trkpt>
      <trkpt lat="45.11249" lon="5.59405">
        <ele>1267.4</ele>
        <time>2021-10-10T09:39:02Z</time>
      </trkpt>
      <trkpt lat="45.11245" lon="5.59401">
        <ele>1267.4</ele>
        <time>2021-10-10T09:39:03Z</time>
      </trkpt>
      <trkpt lat="45.1124" lon="5.59396">
        <ele>1267.4</ele>
        <time>2021-10-10T09:39:04Z</time>
      </trkpt>
      <trkpt lat="45.11234" lon="5.59392">
        <ele>1266.4</ele>
        <time>2021-10-10T09:39:05Z</time>
      </trkpt>
      <trkpt lat="45.11228" lon="5.59389">
        <ele>1263</ele>
        <time>2021-10-10T09:39:06Z</time>
      </trkpt>
      <trkpt lat="45.11222" lon="5.59384">
        <ele>1263</ele>
        <time>2021-10-10T09:39:07Z</time>
      </trkpt>
      <trkpt lat="45.11216" lon="5.5938">
        <ele>1263</ele>
        <time>2021-10-10T09:39:08Z</time>
      </trkpt>
      <trkpt lat="45.1121" lon="5.59375">
        <ele>1263</ele>
        <time>2021-10-10T09:39:09Z</time>
      </trkpt>
      <trkpt lat="45.11204" lon="5.5937">
        <ele>1261.4</ele>
        <time>2021-10-10T09:39:10Z</time>
      </trkpt>
      <trkpt lat="45.11197" lon="5.59366">
        <ele>1261.4</ele>
        <time>2021-10-10T09:39:11Z</time>
      </trkpt>
      <trkpt lat="45.1119" lon="5.59362">
        <ele>1261.4</ele>
        <time>2021-10-10T09:39:12Z</time>
      </trkpt>
      <trkpt lat="45.11183" lon="5.5936">
        <ele>1260.4</ele>
        <time>2021-10-10T09:39:13Z</time>
      </trkpt>
      <trkpt lat="45.11177" lon="5.59356">
        <ele>1258.2</ele>
        <time>2021-10-10T09:39:14Z</time>
      </trkpt>
      <trkpt lat="45.11171" lon="5.59352">
        <ele>1258.2</ele>
        <time>2021-10-10T09:39:15Z</time>
      </trkpt>
      <trkpt lat="45.11164" lon="5.59349">
        <ele>1258.2</ele>
        <time>2021-10-10T09:39:16Z</time>
      </trkpt>
      <trkpt lat="45.11157" lon="5.59346">
        <ele>1257.2</ele>
        <time>2021-10-10T09:39:17Z</time>
      </trkpt>
      <trkpt lat="45.11151" lon="5.59343">
        <ele>1254.2</ele>
        <time>2021-10-10T09:39:18Z</time>
      </trkpt>
      <trkpt lat="45.11144" lon="5.5934">
        <ele>1254.2</ele>
        <time>2021-10-10T09:39:19Z</time>
      </trkpt>
      <trkpt lat="45.11137" lon="5.59337">
        <ele>1254.2</ele>
        <time>2021-10-10T09:39:20Z</time>
      </trkpt>
      <trkpt lat="45.1113" lon="5.59335">
        <ele>1253.2</ele>
        <time>2021-10-10T09:39:21Z</time>
      </trkpt>
      <trkpt lat="45.11123" lon="5.59333">
        <ele>1250.8</ele>
        <time>2021-10-10T09:39:22Z</time>
      </trkpt>
      <trkpt lat="45.11116" lon="5.59332">
        <ele>1250.8</ele>
        <time>2021-10-10T09:39:23Z</time>
      </trkpt>
      <trkpt lat="45.11109" lon="5.5933">
        <ele>1250.8</ele>
        <time>2021-10-10T09:39:24Z</time>
      </trkpt>
      <trkpt lat="45.11103" lon="5.59329">
        <ele>1250.8</ele>
        <time>2021-10-10T09:39:25Z</time>
      </trkpt>
      <trkpt lat="45.11097" lon="5.59328">
        <ele>1249.4</ele>
        <time>2021-10-10T09:39:26Z</time>
      </trkpt>
      <trkpt lat="45.11091" lon="5.59327">
        <ele>1249.4</ele>
        <time>2021-10-10T09:39:27Z</time>
      </trkpt>
      <trkpt lat="45.11085" lon="5.59326">
        <ele>1249.4</ele>
        <time>2021-10-10T09:39:28Z</time>
      </trkpt>
      <trkpt lat="45.11079" lon="5.59326">
        <ele>1248.4</ele>
        <time>2021-10-10T09:39:29Z</time>
      </trkpt>
      <trkpt lat="45.11073" lon="5.59325">
        <ele>1246.8</ele>
        <time>2021-10-10T09:39:30Z</time>
      </trkpt>
      <trkpt lat="45.11067" lon="5.59324">
        <ele>1246.8</ele>
        <time>2021-10-10T09:39:31Z</time>
      </trkpt>
      <trkpt lat="45.11061" lon="5.59323">
        <ele>1246.8</ele>
        <time>2021-10-10T09:39:32Z</time>
      </trkpt>
      <trkpt lat="45.11054" lon="5.59322">
        <ele>1245.8</ele>
        <time>2021-10-10T09:39:33Z</time>
      </trkpt>
      <trkpt lat="45.11049" lon="5.59321">
        <ele>1244.4</ele>
        <time>2021-10-10T09:39:34Z</time>
      </trkpt>
      <trkpt lat="45.11043" lon="5.5932">
        <ele>1244.4</ele>
        <time>2021-10-10T09:39:35Z</time>
      </trkpt>
      <trkpt lat="45.11039" lon="5.5932">
        <ele>1244.4</ele>
        <time>2021-10-10T09:39:36Z</time>
      </trkpt>
      <trkpt lat="45.11033" lon="5.59319">
        <ele>1243.4</ele>
        <time>2021-10-10T09:39:37Z</time>
      </trkpt>
      <trkpt lat="45.11028" lon="5.59319">
        <ele>1242.6</ele>
        <time>2021-10-10T09:39:38Z</time>
      </trkpt>
      <trkpt lat="45.11024" lon="5.59319">
        <ele>1242.6</ele>
        <time>2021-10-10T09:39:39Z</time>
      </trkpt>
      <trkpt lat="45.11019" lon="5.59318">
        <ele>1242.6</ele>
        <time>2021-10-10T09:39:40Z</time>
      </trkpt>
      <trkpt lat="45.11014" lon="5.59318">
        <ele>1242.6</ele>
        <time>2021-10-10T09:39:41Z</time>
      </trkpt>
      <trkpt lat="45.11009" lon="5.59319">
        <ele>1239.8</ele>
        <time>2021-10-10T09:39:42Z</time>
      </trkpt>
      <trkpt lat="45.11005" lon="5.59318">
        <ele>1239.8</ele>
        <time>2021-10-10T09:39:43Z</time>
      </trkpt>
      <trkpt lat="45.11" lon="5.59318">
        <ele>1239.8</ele>
        <time>2021-10-10T09:39:44Z</time>
      </trkpt>
      <trkpt lat="45.10996" lon="5.59318">
        <ele>1238.8</ele>
        <time>2021-10-10T09:39:45Z</time>
      </trkpt>
      <trkpt lat="45.10991" lon="5.59318">
        <ele>1236.4</ele>
        <time>2021-10-10T09:39:46Z</time>
      </trkpt>
      <trkpt lat="45.10986" lon="5.59318">
        <ele>1236.4</ele>
        <time>2021-10-10T09:39:47Z</time>
      </trkpt>
      <trkpt lat="45.1098" lon="5.59317">
        <ele>1236.4</ele>
        <time>2021-10-10T09:39:48Z</time>
      </trkpt>
      <trkpt lat="45.10975" lon="5.59318">
        <ele>1235.4</ele>
        <time>2021-10-10T09:39:49Z</time>
      </trkpt>
      <trkpt lat="45.10969" lon="5.59317">
        <ele>1233.6</ele>
        <time>2021-10-10T09:39:50Z</time>
      </trkpt>
      <trkpt lat="45.10964" lon="5.59316">
        <ele>1233.6</ele>
        <time>2021-10-10T09:39:51Z</time>
      </trkpt>
      <trkpt lat="45.10957" lon="5.59316">
        <ele>1233.6</ele>
        <time>2021-10-10T09:39:52Z</time>
      </trkpt>
      <trkpt lat="45.10952" lon="5.59316">
        <ele>1232.6</ele>
        <time>2021-10-10T09:39:53Z</time>
      </trkpt>
      <trkpt lat="45.10946" lon="5.59315">
        <ele>1231.2</ele>
        <time>2021-10-10T09:39:54Z</time>
      </trkpt>
      <trkpt lat="45.1094" lon="5.59315">
        <ele>1231.2</ele>
        <time>2021-10-10T09:39:55Z</time>
      </trkpt>
      <trkpt lat="45.10933" lon="5.59314">
        <ele>1231.2</ele>
        <time>2021-10-10T09:39:56Z</time>
      </trkpt>
      <trkpt lat="45.10927" lon="5.59314">
        <ele>1230.2</ele>
        <time>2021-10-10T09:39:57Z</time>
      </trkpt>
      <trkpt lat="45.10922" lon="5.59313">
        <ele>1228.4</ele>
        <time>2021-10-10T09:39:58Z</time>
      </trkpt>
      <trkpt lat="45.10916" lon="5.59311">
        <ele>1228.4</ele>
        <time>2021-10-10T09:39:59Z</time>
      </trkpt>
      <trkpt lat="45.10911" lon="5.5931">
        <ele>1228.4</ele>
        <time>2021-10-10T09:40:00Z</time>
      </trkpt>
      <trkpt lat="45.10905" lon="5.5931">
        <ele>1227.4</ele>
        <time>2021-10-10T09:40:01Z</time>
      </trkpt>
      <trkpt lat="45.109" lon="5.59308">
        <ele>1225.4</ele>
        <time>2021-10-10T09:40:02Z</time>
      </trkpt>
      <trkpt lat="45.10894" lon="5.59307">
        <ele>1225.4</ele>
        <time>2021-10-10T09:40:03Z</time>
      </trkpt>
      <trkpt lat="45.10888" lon="5.59305">
        <ele>1225.4</ele>
        <time>2021-10-10T09:40:04Z</time>
      </trkpt>
      <trkpt lat="45.10882" lon="5.59303">
        <ele>1224.4</ele>
        <time>2021-10-10T09:40:05Z</time>
      </trkpt>
      <trkpt lat="45.10877" lon="5.59301">
        <ele>1223.4</ele>
        <time>2021-10-10T09:40:06Z</time>
      </trkpt>
      <trkpt lat="45.10872" lon="5.593">
        <ele>1223.4</ele>
        <time>2021-10-10T09:40:07Z</time>
      </trkpt>
      <trkpt lat="45.10868" lon="5.59298">
        <ele>1223.4</ele>
        <time>2021-10-10T09:40:08Z</time>
      </trkpt>
      <trkpt lat="45.10864" lon="5.59296">
        <ele>1223.4</ele>
        <time>2021-10-10T09:40:09Z</time>
      </trkpt>
      <trkpt lat="45.10861" lon="5.59294">
        <ele>1222.2</ele>
        <time>2021-10-10T09:40:10Z</time>
      </trkpt>
      <trkpt lat="45.10858" lon="5.59291">
        <ele>1222.2</ele>
        <time>2021-10-10T09:40:11Z</time>
      </trkpt>
      <trkpt lat="45.10855" lon="5.59289">
        <ele>1222.2</ele>
        <time>2021-10-10T09:40:12Z</time>
      </trkpt>
      <trkpt lat="45.10852" lon="5.59286">
        <ele>1221.2</ele>
        <time>2021-10-10T09:40:13Z</time>
      </trkpt>
      <trkpt lat="45.10849" lon="5.59283">
        <ele>1220.6</ele>
        <time>2021-10-10T09:40:14Z</time>
      </trkpt>
      <trkpt lat="45.10845" lon="5.59281">
        <ele>1220.6</ele>
        <time>2021-10-10T09:40:15Z</time>
      </trkpt>
      <trkpt lat="45.10843" lon="5.59279">
        <ele>1220.6</ele>
        <time>2021-10-10T09:40:16Z</time>
      </trkpt>
      <trkpt lat="45.10839" lon="5.59277">
        <ele>1219.6</ele>
        <time>2021-10-10T09:40:17Z</time>
      </trkpt>
      <trkpt lat="45.10836" lon="5.59274">
        <ele>1218.4</ele>
        <time>2021-10-10T09:40:18Z</time>
      </trkpt>
      <trkpt lat="45.10833" lon="5.59271">
        <ele>1218.4</ele>
        <time>2021-10-10T09:40:19Z</time>
      </trkpt>
      <trkpt lat="45.10829" lon="5.59268">
        <ele>1218.4</ele>
        <time>2021-10-10T09:40:20Z</time>
      </trkpt>
      <trkpt lat="45.10825" lon="5.59265">
        <ele>1218.4</ele>
        <time>2021-10-10T09:40:21Z</time>
      </trkpt>
      <trkpt lat="45.10821" lon="5.59262">
        <ele>1216.6</ele>
        <time>2021-10-10T09:40:22Z</time>
      </trkpt>
      <trkpt lat="45.10816" lon="5.59258">
        <ele>1216.6</ele>
        <time>2021-10-10T09:40:23Z</time>
      </trkpt>
      <trkpt lat="45.10812" lon="5.59255">
        <ele>1216.6</ele>
        <time>2021-10-10T09:40:24Z</time>
      </trkpt>
      <trkpt lat="45.10808" lon="5.59252">
        <ele>1215.6</ele>
        <time>2021-10-10T09:40:25Z</time>
      </trkpt>
      <trkpt lat="45.10804" lon="5.59249">
        <ele>1213.4</ele>
        <time>2021-10-10T09:40:26Z</time>
      </trkpt>
      <trkpt lat="45.10799" lon="5.59247">
        <ele>1213.4</ele>
        <time>2021-10-10T09:40:27Z</time>
      </trkpt>
      <trkpt lat="45.10795" lon="5.59245">
        <ele>1213.4</ele>
        <time>2021-10-10T09:40:28Z</time>
      </trkpt>
      <trkpt lat="45.10791" lon="5.59243">
        <ele>1212.4</ele>
        <time>2021-10-10T09:40:29Z</time>
      </trkpt>
      <trkpt lat="45.10787" lon="5.5924">
        <ele>1211.2</ele>
        <time>2021-10-10T09:40:30Z</time>
      </trkpt>
      <trkpt lat="45.10781" lon="5.59237">
        <ele>1211.2</ele>
        <time>2021-10-10T09:40:31Z</time>
      </trkpt>
      <trkpt lat="45.10776" lon="5.59235">
        <ele>1211.2</ele>
        <time>2021-10-10T09:40:32Z</time>
      </trkpt>
      <trkpt lat="45.10771" lon="5.59231">
        <ele>1210.2</ele>
        <time>2021-10-10T09:40:33Z</time>
      </trkpt>
      <trkpt lat="45.10765" lon="5.59229">
        <ele>1210.2</ele>
        <time>2021-10-10T09:40:34Z</time>
      </trkpt>
      <trkpt lat="45.1076" lon="5.59227">
        <ele>1207.4</ele>
        <time>2021-10-10T09:40:35Z</time>
      </trkpt>
      <trkpt lat="45.10754" lon="5.59225">
        <ele>1207.4</ele>
        <time>2021-10-10T09:40:36Z</time>
      </trkpt>
      <trkpt lat="45.10748" lon="5.59222">
        <ele>1206.4</ele>
        <time>2021-10-10T09:40:37Z</time>
      </trkpt>
      <trkpt lat="45.10742" lon="5.5922">
        <ele>1204.4</ele>
        <time>2021-10-10T09:40:38Z</time>
      </trkpt>
      <trkpt lat="45.10736" lon="5.59218">
        <ele>1204.4</ele>
        <time>2021-10-10T09:40:39Z</time>
      </trkpt>
      <trkpt lat="45.10729" lon="5.59216">
        <ele>1204.4</ele>
        <time>2021-10-10T09:40:40Z</time>
      </trkpt>
      <trkpt lat="45.10723" lon="5.59215">
        <ele>1203.4</ele>
        <time>2021-10-10T09:40:41Z</time>
      </trkpt>
      <trkpt lat="45.10717" lon="5.59215">
        <ele>1202.6</ele>
        <time>2021-10-10T09:40:42Z</time>
      </trkpt>
      <trkpt lat="45.10712" lon="5.59214">
        <ele>1202.6</ele>
        <time>2021-10-10T09:40:43Z</time>
      </trkpt>
      <trkpt lat="45.10706" lon="5.59212">
        <ele>1202.6</ele>
        <time>2021-10-10T09:40:44Z</time>
      </trkpt>
      <trkpt lat="45.107" lon="5.59209">
        <ele>1201.6</ele>
        <time>2021-10-10T09:40:45Z</time>
      </trkpt>
      <trkpt lat="45.10695" lon="5.59204">
        <ele>1197.2</ele>
        <time>2021-10-10T09:40:46Z</time>
      </trkpt>
      <trkpt lat="45.10689" lon="5.59199">
        <ele>1197.2</ele>
        <time>2021-10-10T09:40:47Z</time>
      </trkpt>
      <trkpt lat="45.10683" lon="5.59193">
        <ele>1197.2</ele>
        <time>2021-10-10T09:40:48Z</time>
      </trkpt>
      <trkpt lat="45.10678" lon="5.59187">
        <ele>1196.2</ele>
        <time>2021-10-10T09:40:49Z</time>
      </trkpt>
      <trkpt lat="45.10673" lon="5.59182">
        <ele>1194.2</ele>
        <time>2021-10-10T09:40:50Z</time>
      </trkpt>
      <trkpt lat="45.10667" lon="5.59177">
        <ele>1194.2</ele>
        <time>2021-10-10T09:40:51Z</time>
      </trkpt>
      <trkpt lat="45.10661" lon="5.59172">
        <ele>1194.2</ele>
        <time>2021-10-10T09:40:52Z</time>
      </trkpt>
      <trkpt lat="45.10655" lon="5.59166">
        <ele>1193.2</ele>
        <time>2021-10-10T09:40:53Z</time>
      </trkpt>
      <trkpt lat="45.10649" lon="5.59161">
        <ele>1190.2</ele>
        <time>2021-10-10T09:40:54Z</time>
      </trkpt>
      <trkpt lat="45.10643" lon="5.59156">
        <ele>1190.2</ele>
        <time>2021-10-10T09:40:55Z</time>
      </trkpt>
      <trkpt lat="45.10636" lon="5.59151">
        <ele>1190.2</ele>
        <time>2021-10-10T09:40:56Z</time>
      </trkpt>
      <trkpt lat="45.10629" lon="5.59146">
        <ele>1190.2</ele>
        <time>2021-10-10T09:40:57Z</time>
      </trkpt>
      <trkpt lat="45.10622" lon="5.5914">
        <ele>1184.6</ele>
        <time>2021-10-10T09:40:58Z</time>
      </trkpt>
      <trkpt lat="45.10615" lon="5.59135">
        <ele>1184.6</ele>
        <time>2021-10-10T09:40:59Z</time>
      </trkpt>
      <trkpt lat="45.10607" lon="5.5913">
        <ele>1184.6</ele>
        <time>2021-10-10T09:41:00Z</time>
      </trkpt>
      <trkpt lat="45.10599" lon="5.59125">
        <ele>1183.6</ele>
        <time>2021-10-10T09:41:01Z</time>
      </trkpt>
      <trkpt lat="45.10591" lon="5.59121">
        <ele>1180.4</ele>
        <time>2021-10-10T09:41:02Z</time>
      </trkpt>
      <trkpt lat="45.10583" lon="5.59116">
        <ele>1180.4</ele>
        <time>2021-10-10T09:41:03Z</time>
      </trkpt>
      <trkpt lat="45.10576" lon="5.59113">
        <ele>1180.4</ele>
        <time>2021-10-10T09:41:04Z</time>
      </trkpt>
      <trkpt lat="45.10568" lon="5.5911">
        <ele>1179.4</ele>
        <time>2021-10-10T09:41:05Z</time>
      </trkpt>
      <trkpt lat="45.10562" lon="5.59105">
        <ele>1176.8</ele>
        <time>2021-10-10T09:41:06Z</time>
      </trkpt>
      <trkpt lat="45.10555" lon="5.591">
        <ele>1176.8</ele>
        <time>2021-10-10T09:41:07Z</time>
      </trkpt>
      <trkpt lat="45.10548" lon="5.59095">
        <ele>1176.8</ele>
        <time>2021-10-10T09:41:08Z</time>
      </trkpt>
      <trkpt lat="45.1054" lon="5.5909">
        <ele>1175.8</ele>
        <time>2021-10-10T09:41:09Z</time>
      </trkpt>
      <trkpt lat="45.10532" lon="5.59085">
        <ele>1172.2</ele>
        <time>2021-10-10T09:41:10Z</time>
      </trkpt>
      <trkpt lat="45.10524" lon="5.5908">
        <ele>1172.2</ele>
        <time>2021-10-10T09:41:11Z</time>
      </trkpt>
      <trkpt lat="45.10516" lon="5.59077">
        <ele>1172.2</ele>
        <time>2021-10-10T09:41:12Z</time>
      </trkpt>
      <trkpt lat="45.10508" lon="5.59073">
        <ele>1171.2</ele>
        <time>2021-10-10T09:41:13Z</time>
      </trkpt>
      <trkpt lat="45.105" lon="5.59071">
        <ele>1167.4</ele>
        <time>2021-10-10T09:41:14Z</time>
      </trkpt>
      <trkpt lat="45.10493" lon="5.59069">
        <ele>1167.4</ele>
        <time>2021-10-10T09:41:15Z</time>
      </trkpt>
      <trkpt lat="45.10486" lon="5.59065">
        <ele>1167.4</ele>
        <time>2021-10-10T09:41:16Z</time>
      </trkpt>
      <trkpt lat="45.10479" lon="5.5906">
        <ele>1166.4</ele>
        <time>2021-10-10T09:41:17Z</time>
      </trkpt>
      <trkpt lat="45.10473" lon="5.59052">
        <ele>1163.8</ele>
        <time>2021-10-10T09:41:18Z</time>
      </trkpt>
      <trkpt lat="45.10466" lon="5.59044">
        <ele>1163.8</ele>
        <time>2021-10-10T09:41:19Z</time>
      </trkpt>
      <trkpt lat="45.10459" lon="5.59037">
        <ele>1163.8</ele>
        <time>2021-10-10T09:41:20Z</time>
      </trkpt>
      <trkpt lat="45.10451" lon="5.59031">
        <ele>1162.8</ele>
        <time>2021-10-10T09:41:21Z</time>
      </trkpt>
      <trkpt lat="45.10443" lon="5.59026">
        <ele>1159.4</ele>
        <time>2021-10-10T09:41:22Z</time>
      </trkpt>
      <trkpt lat="45.10435" lon="5.5902">
        <ele>1159.4</ele>
        <time>2021-10-10T09:41:23Z</time>
      </trkpt>
      <trkpt lat="45.10426" lon="5.59014">
        <ele>1159.4</ele>
        <time>2021-10-10T09:41:24Z</time>
      </trkpt>
      <trkpt lat="45.10417" lon="5.5901">
        <ele>1158.4</ele>
        <time>2021-10-10T09:41:25Z</time>
      </trkpt>
      <trkpt lat="45.10409" lon="5.59003">
        <ele>1155.2</ele>
        <time>2021-10-10T09:41:26Z</time>
      </trkpt>
      <trkpt lat="45.10401" lon="5.58998">
        <ele>1155.2</ele>
        <time>2021-10-10T09:41:27Z</time>
      </trkpt>
      <trkpt lat="45.10392" lon="5.58994">
        <ele>1155.2</ele>
        <time>2021-10-10T09:41:28Z</time>
      </trkpt>
      <trkpt lat="45.10382" lon="5.58993">
        <ele>1154.2</ele>
        <time>2021-10-10T09:41:29Z</time>
      </trkpt>
      <trkpt lat="45.10372" lon="5.58992">
        <ele>1150.6</ele>
        <time>2021-10-10T09:41:30Z</time>
      </trkpt>
      <trkpt lat="45.10362" lon="5.58991">
        <ele>1150.6</ele>
        <time>2021-10-10T09:41:31Z</time>
      </trkpt>
      <trkpt lat="45.10352" lon="5.58991">
        <ele>1150.6</ele>
        <time>2021-10-10T09:41:32Z</time>
      </trkpt>
      <trkpt lat="45.10343" lon="5.58992">
        <ele>1150.6</ele>
        <time>2021-10-10T09:41:33Z</time>
      </trkpt>
      <trkpt lat="45.10332" lon="5.58992">
        <ele>1148.4</ele>
        <time>2021-10-10T09:41:34Z</time>
      </trkpt>
      <trkpt lat="45.10323" lon="5.58992">
        <ele>1148.4</ele>
        <time>2021-10-10T09:41:35Z</time>
      </trkpt>
      <trkpt lat="45.10313" lon="5.58992">
        <ele>1148.4</ele>
        <time>2021-10-10T09:41:36Z</time>
      </trkpt>
      <trkpt lat="45.10304" lon="5.58989">
        <ele>1148.4</ele>
        <time>2021-10-10T09:41:37Z</time>
      </trkpt>
      <trkpt lat="45.10294" lon="5.58986">
        <ele>1146.6</ele>
        <time>2021-10-10T09:41:38Z</time>
      </trkpt>
      <trkpt lat="45.10285" lon="5.58983">
        <ele>1146.6</ele>
        <time>2021-10-10T09:41:39Z</time>
      </trkpt>
      <trkpt lat="45.10275" lon="5.5898">
        <ele>1146.6</ele>
        <time>2021-10-10T09:41:40Z</time>
      </trkpt>
      <trkpt lat="45.10266" lon="5.58978">
        <ele>1146.6</ele>
        <time>2021-10-10T09:41:41Z</time>
      </trkpt>
      <trkpt lat="45.10256" lon="5.58975">
        <ele>1145.6</ele>
        <time>2021-10-10T09:41:42Z</time>
      </trkpt>
      <trkpt lat="45.10247" lon="5.58973">
        <ele>1145.6</ele>
        <time>2021-10-10T09:41:43Z</time>
      </trkpt>
      <trkpt lat="45.10238" lon="5.5897">
        <ele>1145.6</ele>
        <time>2021-10-10T09:41:44Z</time>
      </trkpt>
      <trkpt lat="45.10229" lon="5.58968">
        <ele>1144.6</ele>
        <time>2021-10-10T09:41:45Z</time>
      </trkpt>
      <trkpt lat="45.1022" lon="5.58966">
        <ele>1142.2</ele>
        <time>2021-10-10T09:41:46Z</time>
      </trkpt>
      <trkpt lat="45.1021" lon="5.58963">
        <ele>1142.2</ele>
        <time>2021-10-10T09:41:47Z</time>
      </trkpt>
      <trkpt lat="45.10201" lon="5.5896">
        <ele>1142.2</ele>
        <time>2021-10-10T09:41:48Z</time>
      </trkpt>
      <trkpt lat="45.10193" lon="5.58957">
        <ele>1142.2</ele>
        <time>2021-10-10T09:41:49Z</time>
      </trkpt>
      <trkpt lat="45.10184" lon="5.58954">
        <ele>1141.8</ele>
        <time>2021-10-10T09:41:50Z</time>
      </trkpt>
      <trkpt lat="45.10175" lon="5.5895">
        <ele>1141.8</ele>
        <time>2021-10-10T09:41:51Z</time>
      </trkpt>
      <trkpt lat="45.10167" lon="5.58947">
        <ele>1141.8</ele>
        <time>2021-10-10T09:41:52Z</time>
      </trkpt>
      <trkpt lat="45.10159" lon="5.58944">
        <ele>1141.8</ele>
        <time>2021-10-10T09:41:53Z</time>
      </trkpt>
      <trkpt lat="45.10151" lon="5.58941">
        <ele>1141.4</ele>
        <time>2021-10-10T09:41:54Z</time>
      </trkpt>
      <trkpt lat="45.10143" lon="5.5894">
        <ele>1141.4</ele>
        <time>2021-10-10T09:41:55Z</time>
      </trkpt>
      <trkpt lat="45.10136" lon="5.5894">
        <ele>1141.4</ele>
        <time>2021-10-10T09:41:56Z</time>
      </trkpt>
      <trkpt lat="45.1013" lon="5.5894">
        <ele>1141.4</ele>
        <time>2021-10-10T09:41:57Z</time>
      </trkpt>
      <trkpt lat="45.10124" lon="5.5894">
        <ele>1138.6</ele>
        <time>2021-10-10T09:41:58Z</time>
      </trkpt>
      <trkpt lat="45.10119" lon="5.58942">
        <ele>1138.6</ele>
        <time>2021-10-10T09:41:59Z</time>
      </trkpt>
      <trkpt lat="45.10114" lon="5.58945">
        <ele>1138.6</ele>
        <time>2021-10-10T09:42:00Z</time>
      </trkpt>
      <trkpt lat="45.10107" lon="5.58948">
        <ele>1137.6</ele>
        <time>2021-10-10T09:42:01Z</time>
      </trkpt>
      <trkpt lat="45.101" lon="5.58951">
        <ele>1134</ele>
        <time>2021-10-10T09:42:02Z</time>
      </trkpt>
      <trkpt lat="45.10093" lon="5.58953">
        <ele>1134</ele>
        <time>2021-10-10T09:42:03Z</time>
      </trkpt>
      <trkpt lat="45.10085" lon="5.58953">
        <ele>1134</ele>
        <time>2021-10-10T09:42:04Z</time>
      </trkpt>
      <trkpt lat="45.10077" lon="5.58952">
        <ele>1133</ele>
        <time>2021-10-10T09:42:05Z</time>
      </trkpt>
      <trkpt lat="45.1007" lon="5.58949">
        <ele>1132.2</ele>
        <time>2021-10-10T09:42:06Z</time>
      </trkpt>
      <trkpt lat="45.10064" lon="5.58948">
        <ele>1132.2</ele>
        <time>2021-10-10T09:42:07Z</time>
      </trkpt>
      <trkpt lat="45.10059" lon="5.58943">
        <ele>1132.2</ele>
        <time>2021-10-10T09:42:08Z</time>
      </trkpt>
      <trkpt lat="45.10055" lon="5.58937">
        <ele>1131.8</ele>
        <time>2021-10-10T09:42:09Z</time>
      </trkpt>
      <trkpt lat="45.10052" lon="5.58931">
        <ele>1129.2</ele>
        <time>2021-10-10T09:42:10Z</time>
      </trkpt>
      <trkpt lat="45.10049" lon="5.58924">
        <ele>1129.2</ele>
        <time>2021-10-10T09:42:11Z</time>
      </trkpt>
      <trkpt lat="45.10047" lon="5.58917">
        <ele>1129.2</ele>
        <time>2021-10-10T09:42:12Z</time>
      </trkpt>
      <trkpt lat="45.10046" lon="5.58911">
        <ele>1129.2</ele>
        <time>2021-10-10T09:42:13Z</time>
      </trkpt>
      <trkpt lat="45.10043" lon="5.58905">
        <ele>1129.2</ele>
        <time>2021-10-10T09:42:14Z</time>
      </trkpt>
      <trkpt lat="45.1004" lon="5.58901">
        <ele>1129.2</ele>
        <time>2021-10-10T09:42:15Z</time>
      </trkpt>
      <trkpt lat="45.10038" lon="5.58896">
        <ele>1129.2</ele>
        <time>2021-10-10T09:42:16Z</time>
      </trkpt>
      <trkpt lat="45.10035" lon="5.58891">
        <ele>1128.2</ele>
        <time>2021-10-10T09:42:17Z</time>
      </trkpt>
      <trkpt lat="45.10032" lon="5.58888">
        <ele>1126.8</ele>
        <time>2021-10-10T09:42:18Z</time>
      </trkpt>
      <trkpt lat="45.10029" lon="5.58884">
        <ele>1126.8</ele>
        <time>2021-10-10T09:42:19Z</time>
      </trkpt>
      <trkpt lat="45.10026" lon="5.5888">
        <ele>1126.8</ele>
        <time>2021-10-10T09:42:20Z</time>
      </trkpt>
      <trkpt lat="45.10024" lon="5.58877">
        <ele>1126.8</ele>
        <time>2021-10-10T09:42:21Z</time>
      </trkpt>
      <trkpt lat="45.10022" lon="5.58874">
        <ele>1125.8</ele>
        <time>2021-10-10T09:42:22Z</time>
      </trkpt>
      <trkpt lat="45.1002" lon="5.58871">
        <ele>1125.8</ele>
        <time>2021-10-10T09:42:23Z</time>
      </trkpt>
      <trkpt lat="45.10018" lon="5.5887">
        <ele>1125.8</ele>
        <time>2021-10-10T09:42:24Z</time>
      </trkpt>
      <trkpt lat="45.10017" lon="5.58868">
        <ele>1125.6</ele>
        <time>2021-10-10T09:42:25Z</time>
      </trkpt>
      <trkpt lat="45.10015" lon="5.58867">
        <ele>1125.6</ele>
        <time>2021-10-10T09:42:26Z</time>
      </trkpt>
      <trkpt lat="45.10014" lon="5.58866">
        <ele>1125.6</ele>
        <time>2021-10-10T09:42:27Z</time>
      </trkpt>
      <trkpt lat="45.10012" lon="5.58866">
        <ele>1125.6</ele>
        <time>2021-10-10T09:42:28Z</time>
      </trkpt>
      <trkpt lat="45.10011" lon="5.58864">
        <ele>1125</ele>
        <time>2021-10-10T09:42:29Z</time>
      </trkpt>
      <trkpt lat="45.1001" lon="5.58863">
        <ele>1124.6</ele>
        <time>2021-10-10T09:42:30Z</time>
      </trkpt>
      <trkpt lat="45.10008" lon="5.58861">
        <ele>1124.6</ele>
        <time>2021-10-10T09:42:31Z</time>
      </trkpt>
      <trkpt lat="45.10006" lon="5.58861">
        <ele>1124.6</ele>
        <time>2021-10-10T09:42:32Z</time>
      </trkpt>
      <trkpt lat="45.10003" lon="5.5886">
        <ele>1124.6</ele>
        <time>2021-10-10T09:42:33Z</time>
      </trkpt>
      <trkpt lat="45.1" lon="5.5886">
        <ele>1123.6</ele>
        <time>2021-10-10T09:42:34Z</time>
      </trkpt>
      <trkpt lat="45.09997" lon="5.58861">
        <ele>1123.6</ele>
        <time>2021-10-10T09:42:35Z</time>
      </trkpt>
      <trkpt lat="45.09994" lon="5.58862">
        <ele>1123.6</ele>
        <time>2021-10-10T09:42:36Z</time>
      </trkpt>
      <trkpt lat="45.09992" lon="5.58862">
        <ele>1123.6</ele>
        <time>2021-10-10T09:42:37Z</time>
      </trkpt>
      <trkpt lat="45.0999" lon="5.58861">
        <ele>1123.4</ele>
        <time>2021-10-10T09:42:38Z</time>
      </trkpt>
      <trkpt lat="45.09988" lon="5.58861">
        <ele>1123.4</ele>
        <time>2021-10-10T09:42:39Z</time>
      </trkpt>
      <trkpt lat="45.09987" lon="5.5886">
        <ele>1123.4</ele>
        <time>2021-10-10T09:42:40Z</time>
      </trkpt>
      <trkpt lat="45.09986" lon="5.58859">
        <ele>1123.4</ele>
        <time>2021-10-10T09:42:41Z</time>
      </trkpt>
      <trkpt lat="45.09985" lon="5.58858">
        <ele>1122.8</ele>
        <time>2021-10-10T09:42:42Z</time>
      </trkpt>
      <trkpt lat="45.09985" lon="5.58857">
        <ele>1122.8</ele>
        <time>2021-10-10T09:42:43Z</time>
      </trkpt>
      <trkpt lat="45.09984" lon="5.58856">
        <ele>1122.8</ele>
        <time>2021-10-10T09:42:44Z</time>
      </trkpt>
      <trkpt lat="45.09984" lon="5.58855">
        <ele>1122.8</ele>
        <time>2021-10-10T09:42:45Z</time>
      </trkpt>
      <trkpt lat="45.09983" lon="5.58853">
        <ele>1122.4</ele>
        <time>2021-10-10T09:43:38Z</time>
      </trkpt>
      <trkpt lat="45.09979" lon="5.58849">
        <ele>1122.4</ele>
        <time>2021-10-10T09:43:39Z</time>
      </trkpt>
      <trkpt lat="45.09977" lon="5.5885">
        <ele>1122.4</ele>
        <time>2021-10-10T09:43:40Z</time>
      </trkpt>
      <trkpt lat="45.09975" lon="5.5885">
        <ele>1121.8</ele>
        <time>2021-10-10T09:43:41Z</time>
      </trkpt>
      <trkpt lat="45.09973" lon="5.5885">
        <ele>1122</ele>
        <time>2021-10-10T09:43:42Z</time>
      </trkpt>
      <trkpt lat="45.09971" lon="5.5885">
        <ele>1122</ele>
        <time>2021-10-10T09:43:43Z</time>
      </trkpt>
      <trkpt lat="45.0997" lon="5.58851">
        <ele>1122</ele>
        <time>2021-10-10T09:43:44Z</time>
      </trkpt>
      <trkpt lat="45.09968" lon="5.58851">
        <ele>1122</ele>
        <time>2021-10-10T09:43:45Z</time>
      </trkpt>
      <trkpt lat="45.09965" lon="5.58852">
        <ele>1122.4</ele>
        <time>2021-10-10T09:43:46Z</time>
      </trkpt>
      <trkpt lat="45.09963" lon="5.58852">
        <ele>1122.4</ele>
        <time>2021-10-10T09:43:47Z</time>
      </trkpt>
      <trkpt lat="45.09961" lon="5.58853">
        <ele>1122.4</ele>
        <time>2021-10-10T09:43:48Z</time>
      </trkpt>
      <trkpt lat="45.0996" lon="5.58854">
        <ele>1122.4</ele>
        <time>2021-10-10T09:43:49Z</time>
      </trkpt>
      <trkpt lat="45.09957" lon="5.58853">
        <ele>1121.4</ele>
        <time>2021-10-10T09:43:50Z</time>
      </trkpt>
      <trkpt lat="45.09955" lon="5.58852">
        <ele>1121.4</ele>
        <time>2021-10-10T09:43:51Z</time>
      </trkpt>
      <trkpt lat="45.09953" lon="5.58852">
        <ele>1121.4</ele>
        <time>2021-10-10T09:43:52Z</time>
      </trkpt>
      <trkpt lat="45.09952" lon="5.58851">
        <ele>1121.4</ele>
        <time>2021-10-10T09:43:53Z</time>
      </trkpt>
      <trkpt lat="45.09949" lon="5.58848">
        <ele>1121.2</ele>
        <time>2021-10-10T09:44:36Z</time>
      </trkpt>
      <trkpt lat="45.09949" lon="5.58845">
        <ele>1120.2</ele>
        <time>2021-10-10T09:44:37Z</time>
      </trkpt>
      <trkpt lat="45.09948" lon="5.58843">
        <ele>1119</ele>
        <time>2021-10-10T09:44:38Z</time>
      </trkpt>
      <trkpt lat="45.09948" lon="5.58841">
        <ele>1119</ele>
        <time>2021-10-10T09:44:39Z</time>
      </trkpt>
      <trkpt lat="45.09947" lon="5.58838">
        <ele>1119</ele>
        <time>2021-10-10T09:44:40Z</time>
      </trkpt>
      <trkpt lat="45.09946" lon="5.58836">
        <ele>1118</ele>
        <time>2021-10-10T09:44:41Z</time>
      </trkpt>
      <trkpt lat="45.09945" lon="5.58834">
        <ele>1117</ele>
        <time>2021-10-10T09:44:42Z</time>
      </trkpt>
      <trkpt lat="45.09944" lon="5.58831">
        <ele>1117</ele>
        <time>2021-10-10T09:44:43Z</time>
      </trkpt>
      <trkpt lat="45.09944" lon="5.5883">
        <ele>1117</ele>
        <time>2021-10-10T09:44:44Z</time>
      </trkpt>
      <trkpt lat="45.09943" lon="5.58828">
        <ele>1116</ele>
        <time>2021-10-10T09:44:45Z</time>
      </trkpt>
      <trkpt lat="45.09942" lon="5.58825">
        <ele>1115</ele>
        <time>2021-10-10T09:44:46Z</time>
      </trkpt>
      <trkpt lat="45.09941" lon="5.58822">
        <ele>1115</ele>
        <time>2021-10-10T09:44:47Z</time>
      </trkpt>
      <trkpt lat="45.09941" lon="5.5882">
        <ele>1115</ele>
        <time>2021-10-10T09:44:48Z</time>
      </trkpt>
      <trkpt lat="45.0994" lon="5.58817">
        <ele>1115</ele>
        <time>2021-10-10T09:44:49Z</time>
      </trkpt>
      <trkpt lat="45.09939" lon="5.58814">
        <ele>1113</ele>
        <time>2021-10-10T09:44:50Z</time>
      </trkpt>
      <trkpt lat="45.09938" lon="5.58811">
        <ele>1113</ele>
        <time>2021-10-10T09:44:51Z</time>
      </trkpt>
      <trkpt lat="45.09938" lon="5.58808">
        <ele>1113</ele>
        <time>2021-10-10T09:44:52Z</time>
      </trkpt>
      <trkpt lat="45.09937" lon="5.58804">
        <ele>1112</ele>
        <time>2021-10-10T09:44:53Z</time>
      </trkpt>
      <trkpt lat="45.09936" lon="5.58801">
        <ele>1110</ele>
        <time>2021-10-10T09:44:54Z</time>
      </trkpt>
      <trkpt lat="45.09935" lon="5.58798">
        <ele>1110</ele>
        <time>2021-10-10T09:44:55Z</time>
      </trkpt>
      <trkpt lat="45.09934" lon="5.58795">
        <ele>1110</ele>
        <time>2021-10-10T09:44:56Z</time>
      </trkpt>
      <trkpt lat="45.09933" lon="5.58791">
        <ele>1109</ele>
        <time>2021-10-10T09:44:57Z</time>
      </trkpt>
      <trkpt lat="45.09931" lon="5.58786">
        <ele>1107</ele>
        <time>2021-10-10T09:44:58Z</time>
      </trkpt>
      <trkpt lat="45.09931" lon="5.58783">
        <ele>1107</ele>
        <time>2021-10-10T09:44:59Z</time>
      </trkpt>
      <trkpt lat="45.09929" lon="5.5878">
        <ele>1107</ele>
        <time>2021-10-10T09:45:00Z</time>
      </trkpt>
      <trkpt lat="45.09928" lon="5.58775">
        <ele>1106</ele>
        <time>2021-10-10T09:45:01Z</time>
      </trkpt>
      <trkpt lat="45.09927" lon="5.5877">
        <ele>1104</ele>
        <time>2021-10-10T09:45:02Z</time>
      </trkpt>
      <trkpt lat="45.09926" lon="5.58765">
        <ele>1104</ele>
        <time>2021-10-10T09:45:03Z</time>
      </trkpt>
      <trkpt lat="45.09924" lon="5.5876">
        <ele>1104</ele>
        <time>2021-10-10T09:45:04Z</time>
      </trkpt>
      <trkpt lat="45.09923" lon="5.58756">
        <ele>1103</ele>
        <time>2021-10-10T09:45:05Z</time>
      </trkpt>
      <trkpt lat="45.09922" lon="5.58751">
        <ele>1100.2</ele>
        <time>2021-10-10T09:45:06Z</time>
      </trkpt>
      <trkpt lat="45.09921" lon="5.58745">
        <ele>1100.2</ele>
        <time>2021-10-10T09:45:07Z</time>
      </trkpt>
      <trkpt lat="45.09922" lon="5.58738">
        <ele>1100.2</ele>
        <time>2021-10-10T09:45:08Z</time>
      </trkpt>
      <trkpt lat="45.09923" lon="5.58734">
        <ele>1100.2</ele>
        <time>2021-10-10T09:45:09Z</time>
      </trkpt>
      <trkpt lat="45.09923" lon="5.5873">
        <ele>1098.8</ele>
        <time>2021-10-10T09:45:10Z</time>
      </trkpt>
      <trkpt lat="45.09924" lon="5.58727">
        <ele>1098.8</ele>
        <time>2021-10-10T09:45:11Z</time>
      </trkpt>
      <trkpt lat="45.09924" lon="5.58723">
        <ele>1098.8</ele>
        <time>2021-10-10T09:45:12Z</time>
      </trkpt>
      <trkpt lat="45.09925" lon="5.58717">
        <ele>1097.8</ele>
        <time>2021-10-10T09:45:13Z</time>
      </trkpt>
      <trkpt lat="45.09926" lon="5.5871">
        <ele>1095.6</ele>
        <time>2021-10-10T09:45:14Z</time>
      </trkpt>
      <trkpt lat="45.09926" lon="5.58703">
        <ele>1095.6</ele>
        <time>2021-10-10T09:45:15Z</time>
      </trkpt>
      <trkpt lat="45.09926" lon="5.58697">
        <ele>1095.6</ele>
        <time>2021-10-10T09:45:16Z</time>
      </trkpt>
      <trkpt lat="45.09927" lon="5.58692">
        <ele>1094.6</ele>
        <time>2021-10-10T09:45:17Z</time>
      </trkpt>
      <trkpt lat="45.09927" lon="5.58686">
        <ele>1094</ele>
        <time>2021-10-10T09:45:18Z</time>
      </trkpt>
      <trkpt lat="45.09929" lon="5.58682">
        <ele>1094</ele>
        <time>2021-10-10T09:45:19Z</time>
      </trkpt>
      <trkpt lat="45.09929" lon="5.58676">
        <ele>1094</ele>
        <time>2021-10-10T09:45:20Z</time>
      </trkpt>
      <trkpt lat="45.0993" lon="5.58671">
        <ele>1093</ele>
        <time>2021-10-10T09:45:21Z</time>
      </trkpt>
      <trkpt lat="45.09931" lon="5.58666">
        <ele>1090.6</ele>
        <time>2021-10-10T09:45:22Z</time>
      </trkpt>
      <trkpt lat="45.09932" lon="5.5866">
        <ele>1090.6</ele>
        <time>2021-10-10T09:45:23Z</time>
      </trkpt>
      <trkpt lat="45.09933" lon="5.58654">
        <ele>1090.6</ele>
        <time>2021-10-10T09:45:24Z</time>
      </trkpt>
      <trkpt lat="45.09933" lon="5.58649">
        <ele>1089.6</ele>
        <time>2021-10-10T09:45:25Z</time>
      </trkpt>
      <trkpt lat="45.09933" lon="5.58644">
        <ele>1088.8</ele>
        <time>2021-10-10T09:45:26Z</time>
      </trkpt>
      <trkpt lat="45.09933" lon="5.58641">
        <ele>1088.8</ele>
        <time>2021-10-10T09:45:27Z</time>
      </trkpt>
      <trkpt lat="45.09933" lon="5.58638">
        <ele>1088.8</ele>
        <time>2021-10-10T09:45:28Z</time>
      </trkpt>
      <trkpt lat="45.09933" lon="5.58634">
        <ele>1088.8</ele>
        <time>2021-10-10T09:45:29Z</time>
      </trkpt>
      <trkpt lat="45.09933" lon="5.58631">
        <ele>1087.6</ele>
        <time>2021-10-10T09:45:30Z</time>
      </trkpt>
      <trkpt lat="45.09932" lon="5.58627">
        <ele>1087.6</ele>
        <time>2021-10-10T09:45:31Z</time>
      </trkpt>
      <trkpt lat="45.09931" lon="5.58625">
        <ele>1087.6</ele>
        <time>2021-10-10T09:45:32Z</time>
      </trkpt>
      <trkpt lat="45.09928" lon="5.58622">
        <ele>1087.6</ele>
        <time>2021-10-10T09:45:33Z</time>
      </trkpt>
      <trkpt lat="45.09926" lon="5.5862">
        <ele>1086</ele>
        <time>2021-10-10T09:45:34Z</time>
      </trkpt>
      <trkpt lat="45.09922" lon="5.58617">
        <ele>1086</ele>
        <time>2021-10-10T09:45:35Z</time>
      </trkpt>
      <trkpt lat="45.09919" lon="5.58614">
        <ele>1086</ele>
        <time>2021-10-10T09:45:36Z</time>
      </trkpt>
      <trkpt lat="45.09915" lon="5.58611">
        <ele>1085</ele>
        <time>2021-10-10T09:45:37Z</time>
      </trkpt>
      <trkpt lat="45.09911" lon="5.58607">
        <ele>1083.8</ele>
        <time>2021-10-10T09:45:38Z</time>
      </trkpt>
      <trkpt lat="45.09907" lon="5.58605">
        <ele>1083.8</ele>
        <time>2021-10-10T09:45:39Z</time>
      </trkpt>
      <trkpt lat="45.09902" lon="5.58604">
        <ele>1083.8</ele>
        <time>2021-10-10T09:45:40Z</time>
      </trkpt>
      <trkpt lat="45.09898" lon="5.58604">
        <ele>1082.8</ele>
        <time>2021-10-10T09:45:41Z</time>
      </trkpt>
      <trkpt lat="45.09893" lon="5.58604">
        <ele>1081.8</ele>
        <time>2021-10-10T09:45:42Z</time>
      </trkpt>
      <trkpt lat="45.09889" lon="5.58605">
        <ele>1081.8</ele>
        <time>2021-10-10T09:45:43Z</time>
      </trkpt>
      <trkpt lat="45.09886" lon="5.58605">
        <ele>1081.8</ele>
        <time>2021-10-10T09:45:44Z</time>
      </trkpt>
      <trkpt lat="45.09883" lon="5.58605">
        <ele>1081.8</ele>
        <time>2021-10-10T09:45:45Z</time>
      </trkpt>
      <trkpt lat="45.09881" lon="5.58606">
        <ele>1081</ele>
        <time>2021-10-10T09:45:46Z</time>
      </trkpt>
      <trkpt lat="45.09879" lon="5.58607">
        <ele>1081</ele>
        <time>2021-10-10T09:45:47Z</time>
      </trkpt>
      <trkpt lat="45.09877" lon="5.58607">
        <ele>1081</ele>
        <time>2021-10-10T09:45:48Z</time>
      </trkpt>
      <trkpt lat="45.09875" lon="5.58608">
        <ele>1081</ele>
        <time>2021-10-10T09:45:49Z</time>
      </trkpt>
      <trkpt lat="45.09873" lon="5.58609">
        <ele>1080.6</ele>
        <time>2021-10-10T09:45:50Z</time>
      </trkpt>
      <trkpt lat="45.09871" lon="5.5861">
        <ele>1080.6</ele>
        <time>2021-10-10T09:45:51Z</time>
      </trkpt>
      <trkpt lat="45.09868" lon="5.58612">
        <ele>1080.6</ele>
        <time>2021-10-10T09:45:52Z</time>
      </trkpt>
      <trkpt lat="45.09865" lon="5.58613">
        <ele>1079.6</ele>
        <time>2021-10-10T09:45:53Z</time>
      </trkpt>
      <trkpt lat="45.09862" lon="5.58614">
        <ele>1078.8</ele>
        <time>2021-10-10T09:45:54Z</time>
      </trkpt>
      <trkpt lat="45.09858" lon="5.58614">
        <ele>1078.8</ele>
        <time>2021-10-10T09:45:55Z</time>
      </trkpt>
      <trkpt lat="45.09854" lon="5.58614">
        <ele>1078.8</ele>
        <time>2021-10-10T09:45:56Z</time>
      </trkpt>
      <trkpt lat="45.09851" lon="5.58614">
        <ele>1078.8</ele>
        <time>2021-10-10T09:45:57Z</time>
      </trkpt>
      <trkpt lat="45.09847" lon="5.58612">
        <ele>1078.8</ele>
        <time>2021-10-10T09:45:58Z</time>
      </trkpt>
      <trkpt lat="45.09845" lon="5.5861">
        <ele>1078.8</ele>
        <time>2021-10-10T09:45:59Z</time>
      </trkpt>
      <trkpt lat="45.09844" lon="5.58607">
        <ele>1078.8</ele>
        <time>2021-10-10T09:46:00Z</time>
      </trkpt>
      <trkpt lat="45.09843" lon="5.58605">
        <ele>1078.2</ele>
        <time>2021-10-10T09:46:01Z</time>
      </trkpt>
      <trkpt lat="45.09843" lon="5.58603">
        <ele>1078.4</ele>
        <time>2021-10-10T09:46:02Z</time>
      </trkpt>
      <trkpt lat="45.09842" lon="5.58602">
        <ele>1078</ele>
        <time>2021-10-10T09:46:06Z</time>
      </trkpt>
      <trkpt lat="45.09842" lon="5.58602">
        <ele>1078</ele>
        <time>2021-10-10T09:46:07Z</time>
      </trkpt>
      <trkpt lat="45.09842" lon="5.58601">
        <ele>1078</ele>
        <time>2021-10-10T09:46:08Z</time>
      </trkpt>
      <trkpt lat="45.09841" lon="5.58596">
        <ele>1077</ele>
        <time>2021-10-10T09:46:09Z</time>
      </trkpt>
      <trkpt lat="45.09842" lon="5.58591">
        <ele>1074.4</ele>
        <time>2021-10-10T09:46:10Z</time>
      </trkpt>
      <trkpt lat="45.09843" lon="5.58585">
        <ele>1074.4</ele>
        <time>2021-10-10T09:46:11Z</time>
      </trkpt>
      <trkpt lat="45.09845" lon="5.58579">
        <ele>1074.4</ele>
        <time>2021-10-10T09:46:12Z</time>
      </trkpt>
      <trkpt lat="45.09848" lon="5.58573">
        <ele>1073.4</ele>
        <time>2021-10-10T09:46:13Z</time>
      </trkpt>
      <trkpt lat="45.09852" lon="5.58566">
        <ele>1072.8</ele>
        <time>2021-10-10T09:46:14Z</time>
      </trkpt>
      <trkpt lat="45.09856" lon="5.5856">
        <ele>1072.8</ele>
        <time>2021-10-10T09:46:15Z</time>
      </trkpt>
      <trkpt lat="45.09859" lon="5.58554">
        <ele>1072.8</ele>
        <time>2021-10-10T09:46:16Z</time>
      </trkpt>
      <trkpt lat="45.09862" lon="5.58549">
        <ele>1073.4</ele>
        <time>2021-10-10T09:46:17Z</time>
      </trkpt>
      <trkpt lat="45.09864" lon="5.58543">
        <ele>1072.8</ele>
        <time>2021-10-10T09:46:18Z</time>
      </trkpt>
      <trkpt lat="45.09867" lon="5.58537">
        <ele>1072.8</ele>
        <time>2021-10-10T09:46:19Z</time>
      </trkpt>
      <trkpt lat="45.09869" lon="5.58532">
        <ele>1072.8</ele>
        <time>2021-10-10T09:46:20Z</time>
      </trkpt>
      <trkpt lat="45.0987" lon="5.58525">
        <ele>1071.8</ele>
        <time>2021-10-10T09:46:21Z</time>
      </trkpt>
      <trkpt lat="45.0987" lon="5.58519">
        <ele>1070.8</ele>
        <time>2021-10-10T09:46:22Z</time>
      </trkpt>
      <trkpt lat="45.09871" lon="5.58512">
        <ele>1070.8</ele>
        <time>2021-10-10T09:46:23Z</time>
      </trkpt>
      <trkpt lat="45.09872" lon="5.58505">
        <ele>1070.8</ele>
        <time>2021-10-10T09:46:24Z</time>
      </trkpt>
      <trkpt lat="45.09873" lon="5.58498">
        <ele>1069.8</ele>
        <time>2021-10-10T09:46:25Z</time>
      </trkpt>
      <trkpt lat="45.09875" lon="5.5849">
        <ele>1067.4</ele>
        <time>2021-10-10T09:46:26Z</time>
      </trkpt>
      <trkpt lat="45.09878" lon="5.58483">
        <ele>1067.4</ele>
        <time>2021-10-10T09:46:27Z</time>
      </trkpt>
      <trkpt lat="45.0988" lon="5.58476">
        <ele>1067.4</ele>
        <time>2021-10-10T09:46:28Z</time>
      </trkpt>
      <trkpt lat="45.09882" lon="5.5847">
        <ele>1067.4</ele>
        <time>2021-10-10T09:46:29Z</time>
      </trkpt>
      <trkpt lat="45.09886" lon="5.58465">
        <ele>1067.4</ele>
        <time>2021-10-10T09:46:30Z</time>
      </trkpt>
      <trkpt lat="45.0989" lon="5.58463">
        <ele>1067.4</ele>
        <time>2021-10-10T09:46:31Z</time>
      </trkpt>
      <trkpt lat="45.09894" lon="5.58462">
        <ele>1067.4</ele>
        <time>2021-10-10T09:46:32Z</time>
      </trkpt>
      <trkpt lat="45.09898" lon="5.58462">
        <ele>1068</ele>
        <time>2021-10-10T09:46:33Z</time>
      </trkpt>
      <trkpt lat="45.09901" lon="5.58462">
        <ele>1068.4</ele>
        <time>2021-10-10T09:46:34Z</time>
      </trkpt>
      <trkpt lat="45.09903" lon="5.58461">
        <ele>1067.8</ele>
        <time>2021-10-10T09:47:47Z</time>
      </trkpt>
      <trkpt lat="45.09903" lon="5.58461">
        <ele>1067.8</ele>
        <time>2021-10-10T09:47:48Z</time>
      </trkpt>
      <trkpt lat="45.09903" lon="5.58461">
        <ele>1067.8</ele>
        <time>2021-10-10T09:47:49Z</time>
      </trkpt>
      <trkpt lat="45.09905" lon="5.58461">
        <ele>1067.4</ele>
        <time>2021-10-10T09:47:50Z</time>
      </trkpt>
      <trkpt lat="45.09906" lon="5.58462">
        <ele>1067.4</ele>
        <time>2021-10-10T09:47:51Z</time>
      </trkpt>
      <trkpt lat="45.09908" lon="5.58462">
        <ele>1067.4</ele>
        <time>2021-10-10T09:47:52Z</time>
      </trkpt>
      <trkpt lat="45.0991" lon="5.58462">
        <ele>1067.4</ele>
        <time>2021-10-10T09:47:53Z</time>
      </trkpt>
      <trkpt lat="45.09912" lon="5.58463">
        <ele>1067.2</ele>
        <time>2021-10-10T09:47:54Z</time>
      </trkpt>
      <trkpt lat="45.09915" lon="5.58464">
        <ele>1067.2</ele>
        <time>2021-10-10T09:47:55Z</time>
      </trkpt>
      <trkpt lat="45.09918" lon="5.58465">
        <ele>1067.2</ele>
        <time>2021-10-10T09:47:56Z</time>
      </trkpt>
      <trkpt lat="45.09922" lon="5.58466">
        <ele>1066.2</ele>
        <time>2021-10-10T09:47:57Z</time>
      </trkpt>
      <trkpt lat="45.09926" lon="5.58467">
        <ele>1064.8</ele>
        <time>2021-10-10T09:47:58Z</time>
      </trkpt>
      <trkpt lat="45.0993" lon="5.58467">
        <ele>1064.8</ele>
        <time>2021-10-10T09:47:59Z</time>
      </trkpt>
      <trkpt lat="45.09935" lon="5.58466">
        <ele>1064.8</ele>
        <time>2021-10-10T09:48:00Z</time>
      </trkpt>
      <trkpt lat="45.09941" lon="5.58466">
        <ele>1063.8</ele>
        <time>2021-10-10T09:48:01Z</time>
      </trkpt>
      <trkpt lat="45.09947" lon="5.58465">
        <ele>1062.8</ele>
        <time>2021-10-10T09:48:02Z</time>
      </trkpt>
      <trkpt lat="45.09953" lon="5.58465">
        <ele>1062.8</ele>
        <time>2021-10-10T09:48:03Z</time>
      </trkpt>
      <trkpt lat="45.09959" lon="5.58463">
        <ele>1062.8</ele>
        <time>2021-10-10T09:48:04Z</time>
      </trkpt>
      <trkpt lat="45.09964" lon="5.58462">
        <ele>1062.8</ele>
        <time>2021-10-10T09:48:05Z</time>
      </trkpt>
      <trkpt lat="45.09969" lon="5.5846">
        <ele>1062.6</ele>
        <time>2021-10-10T09:48:06Z</time>
      </trkpt>
      <trkpt lat="45.09973" lon="5.58459">
        <ele>1062.6</ele>
        <time>2021-10-10T09:48:07Z</time>
      </trkpt>
      <trkpt lat="45.09976" lon="5.58457">
        <ele>1062.6</ele>
        <time>2021-10-10T09:48:08Z</time>
      </trkpt>
      <trkpt lat="45.0998" lon="5.58455">
        <ele>1062.4</ele>
        <time>2021-10-10T09:48:09Z</time>
      </trkpt>
      <trkpt lat="45.09982" lon="5.58453">
        <ele>1062.2</ele>
        <time>2021-10-10T09:48:10Z</time>
      </trkpt>
      <trkpt lat="45.09984" lon="5.58452">
        <ele>1062.2</ele>
        <time>2021-10-10T09:48:11Z</time>
      </trkpt>
      <trkpt lat="45.09986" lon="5.58451">
        <ele>1062.2</ele>
        <time>2021-10-10T09:48:12Z</time>
      </trkpt>
      <trkpt lat="45.09987" lon="5.5845">
        <ele>1062.2</ele>
        <time>2021-10-10T09:48:13Z</time>
      </trkpt>
      <trkpt lat="45.09988" lon="5.58448">
        <ele>1061.4</ele>
        <time>2021-10-10T09:48:14Z</time>
      </trkpt>
      <trkpt lat="45.09989" lon="5.58445">
        <ele>1061.4</ele>
        <time>2021-10-10T09:48:15Z</time>
      </trkpt>
      <trkpt lat="45.09988" lon="5.58441">
        <ele>1061.4</ele>
        <time>2021-10-10T09:48:16Z</time>
      </trkpt>
      <trkpt lat="45.09986" lon="5.58436">
        <ele>1060.4</ele>
        <time>2021-10-10T09:48:17Z</time>
      </trkpt>
      <trkpt lat="45.09983" lon="5.58431">
        <ele>1058.2</ele>
        <time>2021-10-10T09:48:18Z</time>
      </trkpt>
      <trkpt lat="45.09979" lon="5.58425">
        <ele>1058.2</ele>
        <time>2021-10-10T09:48:19Z</time>
      </trkpt>
      <trkpt lat="45.09975" lon="5.58419">
        <ele>1058.2</ele>
        <time>2021-10-10T09:48:20Z</time>
      </trkpt>
      <trkpt lat="45.09971" lon="5.58412">
        <ele>1057.2</ele>
        <time>2021-10-10T09:48:21Z</time>
      </trkpt>
      <trkpt lat="45.09967" lon="5.58404">
        <ele>1053.6</ele>
        <time>2021-10-10T09:48:22Z</time>
      </trkpt>
      <trkpt lat="45.09962" lon="5.58395">
        <ele>1053.6</ele>
        <time>2021-10-10T09:48:23Z</time>
      </trkpt>
      <trkpt lat="45.09958" lon="5.58386">
        <ele>1053.6</ele>
        <time>2021-10-10T09:48:24Z</time>
      </trkpt>
      <trkpt lat="45.09953" lon="5.58376">
        <ele>1052.6</ele>
        <time>2021-10-10T09:48:25Z</time>
      </trkpt>
      <trkpt lat="45.09949" lon="5.58366">
        <ele>1050.2</ele>
        <time>2021-10-10T09:48:26Z</time>
      </trkpt>
      <trkpt lat="45.09944" lon="5.58356">
        <ele>1050.2</ele>
        <time>2021-10-10T09:48:27Z</time>
      </trkpt>
      <trkpt lat="45.09938" lon="5.58347">
        <ele>1050.2</ele>
        <time>2021-10-10T09:48:28Z</time>
      </trkpt>
      <trkpt lat="45.09932" lon="5.58339">
        <ele>1049.2</ele>
        <time>2021-10-10T09:48:29Z</time>
      </trkpt>
      <trkpt lat="45.09924" lon="5.58333">
        <ele>1048.2</ele>
        <time>2021-10-10T09:48:30Z</time>
      </trkpt>
      <trkpt lat="45.09917" lon="5.58327">
        <ele>1048.2</ele>
        <time>2021-10-10T09:48:31Z</time>
      </trkpt>
      <trkpt lat="45.09909" lon="5.58322">
        <ele>1048.2</ele>
        <time>2021-10-10T09:48:32Z</time>
      </trkpt>
      <trkpt lat="45.09901" lon="5.58317">
        <ele>1048.2</ele>
        <time>2021-10-10T09:48:33Z</time>
      </trkpt>
      <trkpt lat="45.09893" lon="5.58311">
        <ele>1047.8</ele>
        <time>2021-10-10T09:48:34Z</time>
      </trkpt>
      <trkpt lat="45.09885" lon="5.58306">
        <ele>1047.8</ele>
        <time>2021-10-10T09:48:35Z</time>
      </trkpt>
      <trkpt lat="45.09877" lon="5.583">
        <ele>1047.8</ele>
        <time>2021-10-10T09:48:36Z</time>
      </trkpt>
      <trkpt lat="45.09869" lon="5.58293">
        <ele>1046.8</ele>
        <time>2021-10-10T09:48:37Z</time>
      </trkpt>
      <trkpt lat="45.09862" lon="5.58286">
        <ele>1043.2</ele>
        <time>2021-10-10T09:48:38Z</time>
      </trkpt>
      <trkpt lat="45.09856" lon="5.58277">
        <ele>1043.2</ele>
        <time>2021-10-10T09:48:39Z</time>
      </trkpt>
      <trkpt lat="45.09849" lon="5.58267">
        <ele>1043.2</ele>
        <time>2021-10-10T09:48:40Z</time>
      </trkpt>
      <trkpt lat="45.09843" lon="5.58258">
        <ele>1042.2</ele>
        <time>2021-10-10T09:48:41Z</time>
      </trkpt>
      <trkpt lat="45.09837" lon="5.58249">
        <ele>1041.2</ele>
        <time>2021-10-10T09:48:42Z</time>
      </trkpt>
      <trkpt lat="45.09832" lon="5.58241">
        <ele>1041.2</ele>
        <time>2021-10-10T09:48:43Z</time>
      </trkpt>
      <trkpt lat="45.09827" lon="5.58234">
        <ele>1041.2</ele>
        <time>2021-10-10T09:48:44Z</time>
      </trkpt>
      <trkpt lat="45.09822" lon="5.58226">
        <ele>1040.2</ele>
        <time>2021-10-10T09:48:45Z</time>
      </trkpt>
      <trkpt lat="45.09819" lon="5.58218">
        <ele>1038.2</ele>
        <time>2021-10-10T09:48:46Z</time>
      </trkpt>
      <trkpt lat="45.09817" lon="5.58208">
        <ele>1038.2</ele>
        <time>2021-10-10T09:48:47Z</time>
      </trkpt>
      <trkpt lat="45.09819" lon="5.58197">
        <ele>1038.2</ele>
        <time>2021-10-10T09:48:48Z</time>
      </trkpt>
      <trkpt lat="45.09823" lon="5.58186">
        <ele>1037.2</ele>
        <time>2021-10-10T09:48:49Z</time>
      </trkpt>
      <trkpt lat="45.09828" lon="5.58176">
        <ele>1031.4</ele>
        <time>2021-10-10T09:48:50Z</time>
      </trkpt>
      <trkpt lat="45.09834" lon="5.58165">
        <ele>1031.4</ele>
        <time>2021-10-10T09:48:51Z</time>
      </trkpt>
      <trkpt lat="45.0984" lon="5.58154">
        <ele>1031.4</ele>
        <time>2021-10-10T09:48:52Z</time>
      </trkpt>
      <trkpt lat="45.09845" lon="5.58142">
        <ele>1030.4</ele>
        <time>2021-10-10T09:48:53Z</time>
      </trkpt>
      <trkpt lat="45.0985" lon="5.58129">
        <ele>1027.4</ele>
        <time>2021-10-10T09:48:54Z</time>
      </trkpt>
      <trkpt lat="45.09855" lon="5.58115">
        <ele>1027.4</ele>
        <time>2021-10-10T09:48:55Z</time>
      </trkpt>
      <trkpt lat="45.09859" lon="5.58102">
        <ele>1027.4</ele>
        <time>2021-10-10T09:48:56Z</time>
      </trkpt>
      <trkpt lat="45.09862" lon="5.58088">
        <ele>1026.4</ele>
        <time>2021-10-10T09:48:57Z</time>
      </trkpt>
      <trkpt lat="45.09865" lon="5.58074">
        <ele>1025.2</ele>
        <time>2021-10-10T09:48:58Z</time>
      </trkpt>
      <trkpt lat="45.09867" lon="5.5806">
        <ele>1025.2</ele>
        <time>2021-10-10T09:48:59Z</time>
      </trkpt>
      <trkpt lat="45.09868" lon="5.58048">
        <ele>1025.2</ele>
        <time>2021-10-10T09:49:00Z</time>
      </trkpt>
      <trkpt lat="45.09869" lon="5.58036">
        <ele>1025.2</ele>
        <time>2021-10-10T09:49:01Z</time>
      </trkpt>
      <trkpt lat="45.09871" lon="5.58025">
        <ele>1025.4</ele>
        <time>2021-10-10T09:49:02Z</time>
      </trkpt>
      <trkpt lat="45.09873" lon="5.58015">
        <ele>1025.4</ele>
        <time>2021-10-10T09:49:03Z</time>
      </trkpt>
      <trkpt lat="45.09876" lon="5.58006">
        <ele>1025.4</ele>
        <time>2021-10-10T09:49:04Z</time>
      </trkpt>
      <trkpt lat="45.09878" lon="5.57997">
        <ele>1025.4</ele>
        <time>2021-10-10T09:49:05Z</time>
      </trkpt>
      <trkpt lat="45.0988" lon="5.5799">
        <ele>1024.8</ele>
        <time>2021-10-10T09:49:06Z</time>
      </trkpt>
      <trkpt lat="45.09883" lon="5.57984">
        <ele>1024.8</ele>
        <time>2021-10-10T09:49:07Z</time>
      </trkpt>
      <trkpt lat="45.09884" lon="5.57979">
        <ele>1024.8</ele>
        <time>2021-10-10T09:49:08Z</time>
      </trkpt>
      <trkpt lat="45.09887" lon="5.57974">
        <ele>1024.8</ele>
        <time>2021-10-10T09:49:09Z</time>
      </trkpt>
      <trkpt lat="45.0989" lon="5.57969">
        <ele>1025.8</ele>
        <time>2021-10-10T09:49:10Z</time>
      </trkpt>
      <trkpt lat="45.09893" lon="5.57967">
        <ele>1025.8</ele>
        <time>2021-10-10T09:49:11Z</time>
      </trkpt>
      <trkpt lat="45.09897" lon="5.57965">
        <ele>1025.8</ele>
        <time>2021-10-10T09:49:12Z</time>
      </trkpt>
      <trkpt lat="45.099" lon="5.57964">
        <ele>1025.8</ele>
        <time>2021-10-10T09:49:13Z</time>
      </trkpt>
      <trkpt lat="45.09903" lon="5.57963">
        <ele>1026.2</ele>
        <time>2021-10-10T09:49:14Z</time>
      </trkpt>
      <trkpt lat="45.09905" lon="5.57962">
        <ele>1026.2</ele>
        <time>2021-10-10T09:49:15Z</time>
      </trkpt>
      <trkpt lat="45.09908" lon="5.57961">
        <ele>1026.2</ele>
        <time>2021-10-10T09:49:16Z</time>
      </trkpt>
      <trkpt lat="45.0991" lon="5.5796">
        <ele>1026.2</ele>
        <time>2021-10-10T09:49:17Z</time>
      </trkpt>
      <trkpt lat="45.09912" lon="5.5796">
        <ele>1026.8</ele>
        <time>2021-10-10T09:49:18Z</time>
      </trkpt>
      <trkpt lat="45.09914" lon="5.57959">
        <ele>1026.8</ele>
        <time>2021-10-10T09:49:19Z</time>
      </trkpt>
      <trkpt lat="45.09916" lon="5.57958">
        <ele>1026.8</ele>
        <time>2021-10-10T09:49:20Z</time>
      </trkpt>
      <trkpt lat="45.09918" lon="5.57958">
        <ele>1026.8</ele>
        <time>2021-10-10T09:49:21Z</time>
      </trkpt>
      <trkpt lat="45.0992" lon="5.57957">
        <ele>1026.6</ele>
        <time>2021-10-10T09:49:22Z</time>
      </trkpt>
      <trkpt lat="45.09922" lon="5.57957">
        <ele>1026.6</ele>
        <time>2021-10-10T09:49:23Z</time>
      </trkpt>
      <trkpt lat="45.09924" lon="5.57956">
        <ele>1026.6</ele>
        <time>2021-10-10T09:49:24Z</time>
      </trkpt>
      <trkpt lat="45.09926" lon="5.57955">
        <ele>1026.6</ele>
        <time>2021-10-10T09:49:25Z</time>
      </trkpt>
      <trkpt lat="45.09928" lon="5.57954">
        <ele>1026.4</ele>
        <time>2021-10-10T09:49:26Z</time>
      </trkpt>
      <trkpt lat="45.0993" lon="5.57954">
        <ele>1026.4</ele>
        <time>2021-10-10T09:49:27Z</time>
      </trkpt>
      <trkpt lat="45.09932" lon="5.57954">
        <ele>1026.4</ele>
        <time>2021-10-10T09:49:28Z</time>
      </trkpt>
      <trkpt lat="45.09934" lon="5.57954">
        <ele>1026.4</ele>
        <time>2021-10-10T09:49:29Z</time>
      </trkpt>
      <trkpt lat="45.09935" lon="5.57954">
        <ele>1026.6</ele>
        <time>2021-10-10T09:49:30Z</time>
      </trkpt>
      <trkpt lat="45.09937" lon="5.57953">
        <ele>1026.6</ele>
        <time>2021-10-10T09:49:31Z</time>
      </trkpt>
      <trkpt lat="45.09938" lon="5.57951">
        <ele>1026.6</ele>
        <time>2021-10-10T09:49:32Z</time>
      </trkpt>
      <trkpt lat="45.0994" lon="5.57949">
        <ele>1026.6</ele>
        <time>2021-10-10T09:49:33Z</time>
      </trkpt>
      <trkpt lat="45.09941" lon="5.57947">
        <ele>1026</ele>
        <time>2021-10-10T09:49:34Z</time>
      </trkpt>
      <trkpt lat="45.09942" lon="5.57944">
        <ele>1026</ele>
        <time>2021-10-10T09:49:35Z</time>
      </trkpt>
      <trkpt lat="45.09942" lon="5.5794">
        <ele>1026</ele>
        <time>2021-10-10T09:49:36Z</time>
      </trkpt>
      <trkpt lat="45.09942" lon="5.57936">
        <ele>1025</ele>
        <time>2021-10-10T09:49:37Z</time>
      </trkpt>
      <trkpt lat="45.09942" lon="5.57931">
        <ele>1024.4</ele>
        <time>2021-10-10T09:49:38Z</time>
      </trkpt>
      <trkpt lat="45.09942" lon="5.57926">
        <ele>1024.4</ele>
        <time>2021-10-10T09:49:39Z</time>
      </trkpt>
      <trkpt lat="45.09942" lon="5.57921">
        <ele>1024.4</ele>
        <time>2021-10-10T09:49:40Z</time>
      </trkpt>
      <trkpt lat="45.09942" lon="5.57915">
        <ele>1023.4</ele>
        <time>2021-10-10T09:49:41Z</time>
      </trkpt>
      <trkpt lat="45.09942" lon="5.57908">
        <ele>1022</ele>
        <time>2021-10-10T09:49:42Z</time>
      </trkpt>
      <trkpt lat="45.09943" lon="5.57901">
        <ele>1022</ele>
        <time>2021-10-10T09:49:43Z</time>
      </trkpt>
      <trkpt lat="45.09943" lon="5.57894">
        <ele>1022</ele>
        <time>2021-10-10T09:49:44Z</time>
      </trkpt>
      <trkpt lat="45.09943" lon="5.57886">
        <ele>1021</ele>
        <time>2021-10-10T09:49:45Z</time>
      </trkpt>
      <trkpt lat="45.09944" lon="5.57879">
        <ele>1019.8</ele>
        <time>2021-10-10T09:49:46Z</time>
      </trkpt>
      <trkpt lat="45.09945" lon="5.57872">
        <ele>1019.8</ele>
        <time>2021-10-10T09:49:47Z</time>
      </trkpt>
      <trkpt lat="45.09946" lon="5.57864">
        <ele>1019.8</ele>
        <time>2021-10-10T09:49:48Z</time>
      </trkpt>
      <trkpt lat="45.09948" lon="5.57856">
        <ele>1019.2</ele>
        <time>2021-10-10T09:49:49Z</time>
      </trkpt>
      <trkpt lat="45.0995" lon="5.57848">
        <ele>1018.4</ele>
        <time>2021-10-10T09:49:50Z</time>
      </trkpt>
      <trkpt lat="45.09953" lon="5.5784">
        <ele>1018.4</ele>
        <time>2021-10-10T09:49:51Z</time>
      </trkpt>
      <trkpt lat="45.09956" lon="5.5783">
        <ele>1018.4</ele>
        <time>2021-10-10T09:49:52Z</time>
      </trkpt>
      <trkpt lat="45.0996" lon="5.5782">
        <ele>1017.4</ele>
        <time>2021-10-10T09:49:53Z</time>
      </trkpt>
      <trkpt lat="45.09962" lon="5.5781">
        <ele>1014.6</ele>
        <time>2021-10-10T09:49:54Z</time>
      </trkpt>
      <trkpt lat="45.09966" lon="5.57799">
        <ele>1014.6</ele>
        <time>2021-10-10T09:49:55Z</time>
      </trkpt>
      <trkpt lat="45.09969" lon="5.57788">
        <ele>1014.6</ele>
        <time>2021-10-10T09:49:56Z</time>
      </trkpt>
      <trkpt lat="45.09972" lon="5.57776">
        <ele>1013.6</ele>
        <time>2021-10-10T09:49:57Z</time>
      </trkpt>
      <trkpt lat="45.09975" lon="5.57765">
        <ele>1011.6</ele>
        <time>2021-10-10T09:49:58Z</time>
      </trkpt>
      <trkpt lat="45.09979" lon="5.57753">
        <ele>1011.6</ele>
        <time>2021-10-10T09:49:59Z</time>
      </trkpt>
      <trkpt lat="45.09982" lon="5.57741">
        <ele>1011.6</ele>
        <time>2021-10-10T09:50:00Z</time>
      </trkpt>
      <trkpt lat="45.09985" lon="5.57729">
        <ele>1011.6</ele>
        <time>2021-10-10T09:50:01Z</time>
      </trkpt>
      <trkpt lat="45.09989" lon="5.57717">
        <ele>1011</ele>
        <time>2021-10-10T09:50:02Z</time>
      </trkpt>
      <trkpt lat="45.09992" lon="5.57705">
        <ele>1011</ele>
        <time>2021-10-10T09:50:03Z</time>
      </trkpt>
      <trkpt lat="45.09996" lon="5.57693">
        <ele>1011</ele>
        <time>2021-10-10T09:50:04Z</time>
      </trkpt>
      <trkpt lat="45.1" lon="5.57682">
        <ele>1011</ele>
        <time>2021-10-10T09:50:05Z</time>
      </trkpt>
      <trkpt lat="45.10003" lon="5.5767">
        <ele>1009.4</ele>
        <time>2021-10-10T09:50:06Z</time>
      </trkpt>
      <trkpt lat="45.10006" lon="5.57659">
        <ele>1009.4</ele>
        <time>2021-10-10T09:50:07Z</time>
      </trkpt>
      <trkpt lat="45.1001" lon="5.57647">
        <ele>1009.4</ele>
        <time>2021-10-10T09:50:08Z</time>
      </trkpt>
      <trkpt lat="45.10013" lon="5.57636">
        <ele>1008.4</ele>
        <time>2021-10-10T09:50:09Z</time>
      </trkpt>
      <trkpt lat="45.10016" lon="5.57624">
        <ele>1008</ele>
        <time>2021-10-10T09:50:10Z</time>
      </trkpt>
      <trkpt lat="45.1002" lon="5.57613">
        <ele>1008</ele>
        <time>2021-10-10T09:50:11Z</time>
      </trkpt>
      <trkpt lat="45.10024" lon="5.57602">
        <ele>1008</ele>
        <time>2021-10-10T09:50:12Z</time>
      </trkpt>
      <trkpt lat="45.10028" lon="5.57591">
        <ele>1007</ele>
        <time>2021-10-10T09:50:13Z</time>
      </trkpt>
      <trkpt lat="45.10033" lon="5.5758">
        <ele>1005.8</ele>
        <time>2021-10-10T09:50:14Z</time>
      </trkpt>
      <trkpt lat="45.10038" lon="5.57569">
        <ele>1005.8</ele>
        <time>2021-10-10T09:50:15Z</time>
      </trkpt>
      <trkpt lat="45.10042" lon="5.57556">
        <ele>1005.8</ele>
        <time>2021-10-10T09:50:16Z</time>
      </trkpt>
      <trkpt lat="45.10046" lon="5.57543">
        <ele>1004.8</ele>
        <time>2021-10-10T09:50:17Z</time>
      </trkpt>
      <trkpt lat="45.10047" lon="5.57529">
        <ele>1002.6</ele>
        <time>2021-10-10T09:50:18Z</time>
      </trkpt>
      <trkpt lat="45.10046" lon="5.57515">
        <ele>1002.6</ele>
        <time>2021-10-10T09:50:19Z</time>
      </trkpt>
      <trkpt lat="45.10044" lon="5.57501">
        <ele>1002.6</ele>
        <time>2021-10-10T09:50:20Z</time>
      </trkpt>
      <trkpt lat="45.10041" lon="5.57488">
        <ele>1002.6</ele>
        <time>2021-10-10T09:50:21Z</time>
      </trkpt>
      <trkpt lat="45.10039" lon="5.57475">
        <ele>999.6</ele>
        <time>2021-10-10T09:50:22Z</time>
      </trkpt>
      <trkpt lat="45.10037" lon="5.57461">
        <ele>999.6</ele>
        <time>2021-10-10T09:50:23Z</time>
      </trkpt>
      <trkpt lat="45.10035" lon="5.57448">
        <ele>999.6</ele>
        <time>2021-10-10T09:50:24Z</time>
      </trkpt>
      <trkpt lat="45.10033" lon="5.57434">
        <ele>999.6</ele>
        <time>2021-10-10T09:50:25Z</time>
      </trkpt>
      <trkpt lat="45.10031" lon="5.57421">
        <ele>1000.4</ele>
        <time>2021-10-10T09:50:26Z</time>
      </trkpt>
      <trkpt lat="45.1003" lon="5.57408">
        <ele>1000.4</ele>
        <time>2021-10-10T09:50:27Z</time>
      </trkpt>
      <trkpt lat="45.10029" lon="5.57396">
        <ele>1000.4</ele>
        <time>2021-10-10T09:50:28Z</time>
      </trkpt>
      <trkpt lat="45.10027" lon="5.57384">
        <ele>1001.2</ele>
        <time>2021-10-10T09:50:29Z</time>
      </trkpt>
      <trkpt lat="45.10026" lon="5.57373">
        <ele>1001</ele>
        <time>2021-10-10T09:50:30Z</time>
      </trkpt>
      <trkpt lat="45.10025" lon="5.57361">
        <ele>1001</ele>
        <time>2021-10-10T09:50:31Z</time>
      </trkpt>
      <trkpt lat="45.10025" lon="5.5735">
        <ele>1001</ele>
        <time>2021-10-10T09:50:32Z</time>
      </trkpt>
      <trkpt lat="45.10024" lon="5.57339">
        <ele>1001</ele>
        <time>2021-10-10T09:50:33Z</time>
      </trkpt>
      <trkpt lat="45.10024" lon="5.57328">
        <ele>1001.2</ele>
        <time>2021-10-10T09:50:34Z</time>
      </trkpt>
      <trkpt lat="45.10024" lon="5.57318">
        <ele>1001.2</ele>
        <time>2021-10-10T09:50:35Z</time>
      </trkpt>
      <trkpt lat="45.10024" lon="5.57307">
        <ele>1001.2</ele>
        <time>2021-10-10T09:50:36Z</time>
      </trkpt>
      <trkpt lat="45.10025" lon="5.57297">
        <ele>1001.2</ele>
        <time>2021-10-10T09:50:37Z</time>
      </trkpt>
      <trkpt lat="45.10026" lon="5.57287">
        <ele>1000.6</ele>
        <time>2021-10-10T09:50:38Z</time>
      </trkpt>
      <trkpt lat="45.10027" lon="5.57276">
        <ele>1000.6</ele>
        <time>2021-10-10T09:50:39Z</time>
      </trkpt>
      <trkpt lat="45.10029" lon="5.57266">
        <ele>1000.6</ele>
        <time>2021-10-10T09:50:40Z</time>
      </trkpt>
      <trkpt lat="45.1003" lon="5.57256">
        <ele>999.6</ele>
        <time>2021-10-10T09:50:41Z</time>
      </trkpt>
      <trkpt lat="45.10032" lon="5.57246">
        <ele>998.6</ele>
        <time>2021-10-10T09:50:42Z</time>
      </trkpt>
      <trkpt lat="45.10033" lon="5.57236">
        <ele>998.6</ele>
        <time>2021-10-10T09:50:43Z</time>
      </trkpt>
      <trkpt lat="45.10035" lon="5.57227">
        <ele>998.6</ele>
        <time>2021-10-10T09:50:44Z</time>
      </trkpt>
      <trkpt lat="45.10037" lon="5.57217">
        <ele>998.6</ele>
        <time>2021-10-10T09:50:45Z</time>
      </trkpt>
      <trkpt lat="45.10038" lon="5.57208">
        <ele>999</ele>
        <time>2021-10-10T09:50:46Z</time>
      </trkpt>
      <trkpt lat="45.10039" lon="5.572">
        <ele>999</ele>
        <time>2021-10-10T09:50:47Z</time>
      </trkpt>
      <trkpt lat="45.10041" lon="5.57191">
        <ele>999</ele>
        <time>2021-10-10T09:50:48Z</time>
      </trkpt>
      <trkpt lat="45.10042" lon="5.57183">
        <ele>999</ele>
        <time>2021-10-10T09:50:49Z</time>
      </trkpt>
      <trkpt lat="45.10043" lon="5.57175">
        <ele>998.8</ele>
        <time>2021-10-10T09:50:50Z</time>
      </trkpt>
      <trkpt lat="45.10045" lon="5.57167">
        <ele>998.8</ele>
        <time>2021-10-10T09:50:51Z</time>
      </trkpt>
      <trkpt lat="45.10046" lon="5.57159">
        <ele>998.8</ele>
        <time>2021-10-10T09:50:52Z</time>
      </trkpt>
      <trkpt lat="45.10048" lon="5.57151">
        <ele>998.8</ele>
        <time>2021-10-10T09:50:53Z</time>
      </trkpt>
      <trkpt lat="45.10049" lon="5.57144">
        <ele>998.8</ele>
        <time>2021-10-10T09:50:54Z</time>
      </trkpt>
      <trkpt lat="45.1005" lon="5.57137">
        <ele>998.8</ele>
        <time>2021-10-10T09:50:55Z</time>
      </trkpt>
      <trkpt lat="45.10051" lon="5.57129">
        <ele>998.8</ele>
        <time>2021-10-10T09:50:56Z</time>
      </trkpt>
      <trkpt lat="45.10052" lon="5.57122">
        <ele>999.8</ele>
        <time>2021-10-10T09:50:57Z</time>
      </trkpt>
      <trkpt lat="45.10053" lon="5.57115">
        <ele>999.8</ele>
        <time>2021-10-10T09:50:58Z</time>
      </trkpt>
      <trkpt lat="45.10054" lon="5.57108">
        <ele>999.8</ele>
        <time>2021-10-10T09:50:59Z</time>
      </trkpt>
      <trkpt lat="45.10055" lon="5.57101">
        <ele>999.8</ele>
        <time>2021-10-10T09:51:00Z</time>
      </trkpt>
      <trkpt lat="45.10056" lon="5.57095">
        <ele>1000.4</ele>
        <time>2021-10-10T09:51:01Z</time>
      </trkpt>
      <trkpt lat="45.10057" lon="5.57088">
        <ele>1000.2</ele>
        <time>2021-10-10T09:51:02Z</time>
      </trkpt>
      <trkpt lat="45.10058" lon="5.57081">
        <ele>1000.2</ele>
        <time>2021-10-10T09:51:03Z</time>
      </trkpt>
      <trkpt lat="45.10058" lon="5.57075">
        <ele>1000.2</ele>
        <time>2021-10-10T09:51:04Z</time>
      </trkpt>
      <trkpt lat="45.10059" lon="5.57069">
        <ele>1000.2</ele>
        <time>2021-10-10T09:51:05Z</time>
      </trkpt>
      <trkpt lat="45.10059" lon="5.57064">
        <ele>1000.2</ele>
        <time>2021-10-10T09:51:06Z</time>
      </trkpt>
      <trkpt lat="45.1006" lon="5.57059">
        <ele>1000.2</ele>
        <time>2021-10-10T09:51:07Z</time>
      </trkpt>
      <trkpt lat="45.10061" lon="5.57055">
        <ele>1000.2</ele>
        <time>2021-10-10T09:51:08Z</time>
      </trkpt>
      <trkpt lat="45.10062" lon="5.5705">
        <ele>1000.6</ele>
        <time>2021-10-10T09:51:09Z</time>
      </trkpt>
      <trkpt lat="45.10062" lon="5.57045">
        <ele>1000.8</ele>
        <time>2021-10-10T09:51:10Z</time>
      </trkpt>
      <trkpt lat="45.10062" lon="5.57039">
        <ele>1000.8</ele>
        <time>2021-10-10T09:51:11Z</time>
      </trkpt>
      <trkpt lat="45.10062" lon="5.57033">
        <ele>1000.8</ele>
        <time>2021-10-10T09:51:12Z</time>
      </trkpt>
      <trkpt lat="45.10063" lon="5.57027">
        <ele>1000.8</ele>
        <time>2021-10-10T09:51:13Z</time>
      </trkpt>
      <trkpt lat="45.10064" lon="5.57022">
        <ele>1001</ele>
        <time>2021-10-10T09:51:14Z</time>
      </trkpt>
      <trkpt lat="45.10064" lon="5.57016">
        <ele>1001</ele>
        <time>2021-10-10T09:51:15Z</time>
      </trkpt>
      <trkpt lat="45.10064" lon="5.57011">
        <ele>1001</ele>
        <time>2021-10-10T09:51:16Z</time>
      </trkpt>
      <trkpt lat="45.10065" lon="5.57006">
        <ele>1001.4</ele>
        <time>2021-10-10T09:51:17Z</time>
      </trkpt>
      <trkpt lat="45.10066" lon="5.57001">
        <ele>1001.8</ele>
        <time>2021-10-10T09:51:18Z</time>
      </trkpt>
      <trkpt lat="45.10066" lon="5.56997">
        <ele>1001.8</ele>
        <time>2021-10-10T09:51:19Z</time>
      </trkpt>
      <trkpt lat="45.10067" lon="5.56992">
        <ele>1001.8</ele>
        <time>2021-10-10T09:51:20Z</time>
      </trkpt>
      <trkpt lat="45.10068" lon="5.56987">
        <ele>1001.6</ele>
        <time>2021-10-10T09:51:21Z</time>
      </trkpt>
      <trkpt lat="45.10068" lon="5.56983">
        <ele>1001.6</ele>
        <time>2021-10-10T09:51:22Z</time>
      </trkpt>
      <trkpt lat="45.10069" lon="5.56977">
        <ele>1001.6</ele>
        <time>2021-10-10T09:51:23Z</time>
      </trkpt>
      <trkpt lat="45.1007" lon="5.56972">
        <ele>1001.6</ele>
        <time>2021-10-10T09:51:24Z</time>
      </trkpt>
      <trkpt lat="45.10071" lon="5.56967">
        <ele>1001.2</ele>
        <time>2021-10-10T09:51:25Z</time>
      </trkpt>
      <trkpt lat="45.10071" lon="5.56962">
        <ele>1001</ele>
        <time>2021-10-10T09:51:26Z</time>
      </trkpt>
      <trkpt lat="45.10072" lon="5.56956">
        <ele>1001</ele>
        <time>2021-10-10T09:51:27Z</time>
      </trkpt>
      <trkpt lat="45.10073" lon="5.5695">
        <ele>1001</ele>
        <time>2021-10-10T09:51:28Z</time>
      </trkpt>
      <trkpt lat="45.10074" lon="5.56944">
        <ele>1001</ele>
        <time>2021-10-10T09:51:29Z</time>
      </trkpt>
      <trkpt lat="45.10075" lon="5.56938">
        <ele>1001.2</ele>
        <time>2021-10-10T09:51:30Z</time>
      </trkpt>
      <trkpt lat="45.10076" lon="5.56932">
        <ele>1001.2</ele>
        <time>2021-10-10T09:51:31Z</time>
      </trkpt>
      <trkpt lat="45.10077" lon="5.56925">
        <ele>1001.2</ele>
        <time>2021-10-10T09:51:32Z</time>
      </trkpt>
      <trkpt lat="45.10078" lon="5.56918">
        <ele>1000.2</ele>
        <time>2021-10-10T09:51:33Z</time>
      </trkpt>
      <trkpt lat="45.10079" lon="5.56911">
        <ele>1000.4</ele>
        <time>2021-10-10T09:51:34Z</time>
      </trkpt>
      <trkpt lat="45.1008" lon="5.56904">
        <ele>1000.4</ele>
        <time>2021-10-10T09:51:35Z</time>
      </trkpt>
      <trkpt lat="45.1008" lon="5.56897">
        <ele>1000.4</ele>
        <time>2021-10-10T09:51:36Z</time>
      </trkpt>
      <trkpt lat="45.10081" lon="5.5689">
        <ele>999.8</ele>
        <time>2021-10-10T09:51:37Z</time>
      </trkpt>
      <trkpt lat="45.10082" lon="5.56883">
        <ele>999.6</ele>
        <time>2021-10-10T09:51:38Z</time>
      </trkpt>
      <trkpt lat="45.10083" lon="5.56876">
        <ele>999.6</ele>
        <time>2021-10-10T09:51:39Z</time>
      </trkpt>
      <trkpt lat="45.10084" lon="5.56869">
        <ele>999.6</ele>
        <time>2021-10-10T09:51:40Z</time>
      </trkpt>
      <trkpt lat="45.10084" lon="5.56863">
        <ele>999.6</ele>
        <time>2021-10-10T09:51:41Z</time>
      </trkpt>
      <trkpt lat="45.10085" lon="5.56856">
        <ele>999.6</ele>
        <time>2021-10-10T09:51:42Z</time>
      </trkpt>
      <trkpt lat="45.10086" lon="5.5685">
        <ele>999.6</ele>
        <time>2021-10-10T09:51:43Z</time>
      </trkpt>
      <trkpt lat="45.10087" lon="5.56843">
        <ele>999.6</ele>
        <time>2021-10-10T09:51:44Z</time>
      </trkpt>
      <trkpt lat="45.10088" lon="5.56837">
        <ele>999.6</ele>
        <time>2021-10-10T09:51:45Z</time>
      </trkpt>
      <trkpt lat="45.1009" lon="5.56831">
        <ele>998.8</ele>
        <time>2021-10-10T09:51:46Z</time>
      </trkpt>
      <trkpt lat="45.10091" lon="5.56824">
        <ele>998.8</ele>
        <time>2021-10-10T09:51:47Z</time>
      </trkpt>
      <trkpt lat="45.10092" lon="5.56818">
        <ele>998.8</ele>
        <time>2021-10-10T09:51:48Z</time>
      </trkpt>
      <trkpt lat="45.10093" lon="5.56811">
        <ele>998.8</ele>
        <time>2021-10-10T09:51:49Z</time>
      </trkpt>
      <trkpt lat="45.10094" lon="5.56805">
        <ele>998</ele>
        <time>2021-10-10T09:51:50Z</time>
      </trkpt>
      <trkpt lat="45.10095" lon="5.56798">
        <ele>998</ele>
        <time>2021-10-10T09:51:51Z</time>
      </trkpt>
      <trkpt lat="45.10096" lon="5.5679">
        <ele>998</ele>
        <time>2021-10-10T09:51:52Z</time>
      </trkpt>
      <trkpt lat="45.10098" lon="5.56783">
        <ele>997</ele>
        <time>2021-10-10T09:51:53Z</time>
      </trkpt>
      <trkpt lat="45.10099" lon="5.56775">
        <ele>995.8</ele>
        <time>2021-10-10T09:51:54Z</time>
      </trkpt>
      <trkpt lat="45.101" lon="5.56767">
        <ele>995.8</ele>
        <time>2021-10-10T09:51:55Z</time>
      </trkpt>
      <trkpt lat="45.10101" lon="5.56759">
        <ele>995.8</ele>
        <time>2021-10-10T09:51:56Z</time>
      </trkpt>
      <trkpt lat="45.10102" lon="5.5675">
        <ele>994.8</ele>
        <time>2021-10-10T09:51:57Z</time>
      </trkpt>
      <trkpt lat="45.10102" lon="5.56741">
        <ele>993.8</ele>
        <time>2021-10-10T09:51:58Z</time>
      </trkpt>
      <trkpt lat="45.10103" lon="5.56732">
        <ele>993.8</ele>
        <time>2021-10-10T09:51:59Z</time>
      </trkpt>
      <trkpt lat="45.10103" lon="5.56722">
        <ele>993.8</ele>
        <time>2021-10-10T09:52:00Z</time>
      </trkpt>
      <trkpt lat="45.10104" lon="5.56712">
        <ele>992.8</ele>
        <time>2021-10-10T09:52:01Z</time>
      </trkpt>
      <trkpt lat="45.10104" lon="5.56701">
        <ele>991.4</ele>
        <time>2021-10-10T09:52:02Z</time>
      </trkpt>
      <trkpt lat="45.10104" lon="5.5669">
        <ele>991.4</ele>
        <time>2021-10-10T09:52:03Z</time>
      </trkpt>
      <trkpt lat="45.10103" lon="5.56679">
        <ele>991.4</ele>
        <time>2021-10-10T09:52:04Z</time>
      </trkpt>
      <trkpt lat="45.10103" lon="5.56669">
        <ele>991.4</ele>
        <time>2021-10-10T09:52:05Z</time>
      </trkpt>
      <trkpt lat="45.10103" lon="5.56658">
        <ele>991.6</ele>
        <time>2021-10-10T09:52:06Z</time>
      </trkpt>
      <trkpt lat="45.10103" lon="5.56646">
        <ele>991.6</ele>
        <time>2021-10-10T09:52:07Z</time>
      </trkpt>
      <trkpt lat="45.10103" lon="5.56634">
        <ele>991.6</ele>
        <time>2021-10-10T09:52:08Z</time>
      </trkpt>
      <trkpt lat="45.10103" lon="5.56622">
        <ele>990.6</ele>
        <time>2021-10-10T09:52:09Z</time>
      </trkpt>
      <trkpt lat="45.10104" lon="5.5661">
        <ele>988.2</ele>
        <time>2021-10-10T09:52:10Z</time>
      </trkpt>
      <trkpt lat="45.10104" lon="5.56597">
        <ele>988.2</ele>
        <time>2021-10-10T09:52:11Z</time>
      </trkpt>
      <trkpt lat="45.10105" lon="5.56585">
        <ele>988.2</ele>
        <time>2021-10-10T09:52:12Z</time>
      </trkpt>
      <trkpt lat="45.10106" lon="5.56573">
        <ele>987.2</ele>
        <time>2021-10-10T09:52:13Z</time>
      </trkpt>
      <trkpt lat="45.10108" lon="5.5656">
        <ele>985.8</ele>
        <time>2021-10-10T09:52:14Z</time>
      </trkpt>
      <trkpt lat="45.10111" lon="5.56549">
        <ele>985.8</ele>
        <time>2021-10-10T09:52:15Z</time>
      </trkpt>
      <trkpt lat="45.10114" lon="5.56538">
        <ele>985.8</ele>
        <time>2021-10-10T09:52:16Z</time>
      </trkpt>
      <trkpt lat="45.10117" lon="5.56526">
        <ele>986.8</ele>
        <time>2021-10-10T09:52:17Z</time>
      </trkpt>
      <trkpt lat="45.10119" lon="5.56515">
        <ele>985.8</ele>
        <time>2021-10-10T09:52:18Z</time>
      </trkpt>
      <trkpt lat="45.10121" lon="5.56505">
        <ele>985.8</ele>
        <time>2021-10-10T09:52:19Z</time>
      </trkpt>
      <trkpt lat="45.10122" lon="5.56494">
        <ele>985.8</ele>
        <time>2021-10-10T09:52:20Z</time>
      </trkpt>
      <trkpt lat="45.10122" lon="5.56484">
        <ele>985.8</ele>
        <time>2021-10-10T09:52:21Z</time>
      </trkpt>
      <trkpt lat="45.10122" lon="5.56474">
        <ele>986</ele>
        <time>2021-10-10T09:52:22Z</time>
      </trkpt>
      <trkpt lat="45.10121" lon="5.56464">
        <ele>986</ele>
        <time>2021-10-10T09:52:23Z</time>
      </trkpt>
      <trkpt lat="45.10121" lon="5.56455">
        <ele>986</ele>
        <time>2021-10-10T09:52:24Z</time>
      </trkpt>
      <trkpt lat="45.1012" lon="5.56446">
        <ele>986</ele>
        <time>2021-10-10T09:52:25Z</time>
      </trkpt>
      <trkpt lat="45.10118" lon="5.56437">
        <ele>985.8</ele>
        <time>2021-10-10T09:52:26Z</time>
      </trkpt>
      <trkpt lat="45.10117" lon="5.56428">
        <ele>985.8</ele>
        <time>2021-10-10T09:52:27Z</time>
      </trkpt>
      <trkpt lat="45.10114" lon="5.56419">
        <ele>985.8</ele>
        <time>2021-10-10T09:52:28Z</time>
      </trkpt>
      <trkpt lat="45.10111" lon="5.5641">
        <ele>984.8</ele>
        <time>2021-10-10T09:52:29Z</time>
      </trkpt>
      <trkpt lat="45.10109" lon="5.564">
        <ele>983.8</ele>
        <time>2021-10-10T09:52:30Z</time>
      </trkpt>
      <trkpt lat="45.10106" lon="5.5639">
        <ele>983.8</ele>
        <time>2021-10-10T09:52:31Z</time>
      </trkpt>
      <trkpt lat="45.10104" lon="5.5638">
        <ele>983.8</ele>
        <time>2021-10-10T09:52:32Z</time>
      </trkpt>
      <trkpt lat="45.10102" lon="5.56369">
        <ele>982.8</ele>
        <time>2021-10-10T09:52:33Z</time>
      </trkpt>
      <trkpt lat="45.101" lon="5.56359">
        <ele>983.2</ele>
        <time>2021-10-10T09:52:34Z</time>
      </trkpt>
      <trkpt lat="45.10099" lon="5.56348">
        <ele>983.2</ele>
        <time>2021-10-10T09:52:35Z</time>
      </trkpt>
      <trkpt lat="45.10098" lon="5.56339">
        <ele>983.2</ele>
        <time>2021-10-10T09:52:36Z</time>
      </trkpt>
      <trkpt lat="45.10098" lon="5.5633">
        <ele>984</ele>
        <time>2021-10-10T09:52:37Z</time>
      </trkpt>
      <trkpt lat="45.10098" lon="5.56323">
        <ele>984</ele>
        <time>2021-10-10T09:52:38Z</time>
      </trkpt>
      <trkpt lat="45.10099" lon="5.56316">
        <ele>984</ele>
        <time>2021-10-10T09:52:39Z</time>
      </trkpt>
      <trkpt lat="45.101" lon="5.56311">
        <ele>984</ele>
        <time>2021-10-10T09:52:40Z</time>
      </trkpt>
      <trkpt lat="45.101" lon="5.56304">
        <ele>984</ele>
        <time>2021-10-10T09:52:41Z</time>
      </trkpt>
      <trkpt lat="45.101" lon="5.56298">
        <ele>983.4</ele>
        <time>2021-10-10T09:52:42Z</time>
      </trkpt>
      <trkpt lat="45.101" lon="5.56291">
        <ele>983.4</ele>
        <time>2021-10-10T09:52:43Z</time>
      </trkpt>
      <trkpt lat="45.101" lon="5.56284">
        <ele>983.4</ele>
        <time>2021-10-10T09:52:44Z</time>
      </trkpt>
      <trkpt lat="45.101" lon="5.56276">
        <ele>982.4</ele>
        <time>2021-10-10T09:52:45Z</time>
      </trkpt>
      <trkpt lat="45.101" lon="5.56268">
        <ele>982</ele>
        <time>2021-10-10T09:52:46Z</time>
      </trkpt>
      <trkpt lat="45.10099" lon="5.56259">
        <ele>982</ele>
        <time>2021-10-10T09:52:47Z</time>
      </trkpt>
      <trkpt lat="45.10097" lon="5.56251">
        <ele>982</ele>
        <time>2021-10-10T09:52:48Z</time>
      </trkpt>
      <trkpt lat="45.10096" lon="5.56242">
        <ele>981.8</ele>
        <time>2021-10-10T09:52:49Z</time>
      </trkpt>
      <trkpt lat="45.10094" lon="5.56234">
        <ele>981.2</ele>
        <time>2021-10-10T09:52:50Z</time>
      </trkpt>
      <trkpt lat="45.10092" lon="5.56225">
        <ele>981.2</ele>
        <time>2021-10-10T09:52:51Z</time>
      </trkpt>
      <trkpt lat="45.10089" lon="5.56217">
        <ele>981.2</ele>
        <time>2021-10-10T09:52:52Z</time>
      </trkpt>
      <trkpt lat="45.10087" lon="5.56209">
        <ele>980.8</ele>
        <time>2021-10-10T09:52:53Z</time>
      </trkpt>
      <trkpt lat="45.10084" lon="5.56202">
        <ele>981.2</ele>
        <time>2021-10-10T09:52:54Z</time>
      </trkpt>
      <trkpt lat="45.10081" lon="5.56195">
        <ele>981.2</ele>
        <time>2021-10-10T09:52:55Z</time>
      </trkpt>
      <trkpt lat="45.10079" lon="5.56188">
        <ele>981.2</ele>
        <time>2021-10-10T09:52:56Z</time>
      </trkpt>
      <trkpt lat="45.10077" lon="5.56181">
        <ele>981.8</ele>
        <time>2021-10-10T09:52:57Z</time>
      </trkpt>
      <trkpt lat="45.10076" lon="5.56174">
        <ele>981.6</ele>
        <time>2021-10-10T09:52:58Z</time>
      </trkpt>
      <trkpt lat="45.10075" lon="5.56168">
        <ele>981.6</ele>
        <time>2021-10-10T09:52:59Z</time>
      </trkpt>
      <trkpt lat="45.10074" lon="5.56161">
        <ele>981.6</ele>
        <time>2021-10-10T09:53:00Z</time>
      </trkpt>
      <trkpt lat="45.10074" lon="5.56154">
        <ele>981.6</ele>
        <time>2021-10-10T09:53:01Z</time>
      </trkpt>
      <trkpt lat="45.10073" lon="5.56148">
        <ele>981.8</ele>
        <time>2021-10-10T09:53:02Z</time>
      </trkpt>
      <trkpt lat="45.10073" lon="5.56141">
        <ele>981.8</ele>
        <time>2021-10-10T09:53:03Z</time>
      </trkpt>
      <trkpt lat="45.10072" lon="5.56134">
        <ele>981.8</ele>
        <time>2021-10-10T09:53:04Z</time>
      </trkpt>
      <trkpt lat="45.10071" lon="5.56127">
        <ele>981.8</ele>
        <time>2021-10-10T09:53:05Z</time>
      </trkpt>
      <trkpt lat="45.1007" lon="5.56119">
        <ele>981.2</ele>
        <time>2021-10-10T09:53:06Z</time>
      </trkpt>
      <trkpt lat="45.1007" lon="5.56112">
        <ele>981.2</ele>
        <time>2021-10-10T09:53:07Z</time>
      </trkpt>
      <trkpt lat="45.10069" lon="5.56104">
        <ele>981.2</ele>
        <time>2021-10-10T09:53:08Z</time>
      </trkpt>
      <trkpt lat="45.10067" lon="5.56097">
        <ele>981</ele>
        <time>2021-10-10T09:53:09Z</time>
      </trkpt>
      <trkpt lat="45.10066" lon="5.56089">
        <ele>980.8</ele>
        <time>2021-10-10T09:53:10Z</time>
      </trkpt>
      <trkpt lat="45.10064" lon="5.56081">
        <ele>980.8</ele>
        <time>2021-10-10T09:53:11Z</time>
      </trkpt>
      <trkpt lat="45.10062" lon="5.56074">
        <ele>980.8</ele>
        <time>2021-10-10T09:53:12Z</time>
      </trkpt>
      <trkpt lat="45.1006" lon="5.56066">
        <ele>980.8</ele>
        <time>2021-10-10T09:53:13Z</time>
      </trkpt>
      <trkpt lat="45.10059" lon="5.56059">
        <ele>980.2</ele>
        <time>2021-10-10T09:53:14Z</time>
      </trkpt>
      <trkpt lat="45.10056" lon="5.56052">
        <ele>980.2</ele>
        <time>2021-10-10T09:53:15Z</time>
      </trkpt>
      <trkpt lat="45.10054" lon="5.56045">
        <ele>980.2</ele>
        <time>2021-10-10T09:53:16Z</time>
      </trkpt>
      <trkpt lat="45.10053" lon="5.56038">
        <ele>980.2</ele>
        <time>2021-10-10T09:53:17Z</time>
      </trkpt>
      <trkpt lat="45.10052" lon="5.56031">
        <ele>981.4</ele>
        <time>2021-10-10T09:53:18Z</time>
      </trkpt>
      <trkpt lat="45.10051" lon="5.56025">
        <ele>981.4</ele>
        <time>2021-10-10T09:53:19Z</time>
      </trkpt>
      <trkpt lat="45.10051" lon="5.5602">
        <ele>981.4</ele>
        <time>2021-10-10T09:53:20Z</time>
      </trkpt>
      <trkpt lat="45.10052" lon="5.56016">
        <ele>982.4</ele>
        <time>2021-10-10T09:53:21Z</time>
      </trkpt>
      <trkpt lat="45.10052" lon="5.56013">
        <ele>982.4</ele>
        <time>2021-10-10T09:53:22Z</time>
      </trkpt>
      <trkpt lat="45.10052" lon="5.5601">
        <ele>982.4</ele>
        <time>2021-10-10T09:53:23Z</time>
      </trkpt>
      <trkpt lat="45.10052" lon="5.56009">
        <ele>982.4</ele>
        <time>2021-10-10T09:53:24Z</time>
      </trkpt>
      <trkpt lat="45.10053" lon="5.56007">
        <ele>983</ele>
        <time>2021-10-10T09:53:25Z</time>
      </trkpt>
      <trkpt lat="45.10053" lon="5.56004">
        <ele>982.6</ele>
        <time>2021-10-10T09:54:10Z</time>
      </trkpt>
      <trkpt lat="45.10054" lon="5.56002">
        <ele>982.6</ele>
        <time>2021-10-10T09:54:11Z</time>
      </trkpt>
      <trkpt lat="45.10053" lon="5.56">
        <ele>982.6</ele>
        <time>2021-10-10T09:54:12Z</time>
      </trkpt>
      <trkpt lat="45.10052" lon="5.55996">
        <ele>982.6</ele>
        <time>2021-10-10T09:54:13Z</time>
      </trkpt>
      <trkpt lat="45.10051" lon="5.55993">
        <ele>982.4</ele>
        <time>2021-10-10T09:54:14Z</time>
      </trkpt>
      <trkpt lat="45.10049" lon="5.5599">
        <ele>982.4</ele>
        <time>2021-10-10T09:54:15Z</time>
      </trkpt>
      <trkpt lat="45.10047" lon="5.55987">
        <ele>982.4</ele>
        <time>2021-10-10T09:54:16Z</time>
      </trkpt>
      <trkpt lat="45.10045" lon="5.55984">
        <ele>982.6</ele>
        <time>2021-10-10T09:54:17Z</time>
      </trkpt>
      <trkpt lat="45.10044" lon="5.55981">
        <ele>982.2</ele>
        <time>2021-10-10T09:54:18Z</time>
      </trkpt>
      <trkpt lat="45.10042" lon="5.55978">
        <ele>982.2</ele>
        <time>2021-10-10T09:54:19Z</time>
      </trkpt>
      <trkpt lat="45.10041" lon="5.55975">
        <ele>982.2</ele>
        <time>2021-10-10T09:54:20Z</time>
      </trkpt>
      <trkpt lat="45.10041" lon="5.55971">
        <ele>983</ele>
        <time>2021-10-10T09:54:21Z</time>
      </trkpt>
      <trkpt lat="45.1004" lon="5.55968">
        <ele>982.8</ele>
        <time>2021-10-10T09:54:22Z</time>
      </trkpt>
      <trkpt lat="45.10039" lon="5.55966">
        <ele>982.8</ele>
        <time>2021-10-10T09:54:23Z</time>
      </trkpt>
      <trkpt lat="45.10039" lon="5.55964">
        <ele>982.8</ele>
        <time>2021-10-10T09:54:24Z</time>
      </trkpt>
      <trkpt lat="45.10038" lon="5.55961">
        <ele>982.8</ele>
        <time>2021-10-10T09:54:25Z</time>
      </trkpt>
      <trkpt lat="45.10038" lon="5.55959">
        <ele>983.6</ele>
        <time>2021-10-10T09:54:26Z</time>
      </trkpt>
      <trkpt lat="45.10037" lon="5.55957">
        <ele>983.6</ele>
        <time>2021-10-10T09:54:27Z</time>
      </trkpt>
      <trkpt lat="45.10037" lon="5.55955">
        <ele>983.6</ele>
        <time>2021-10-10T09:54:28Z</time>
      </trkpt>
      <trkpt lat="45.10036" lon="5.55953">
        <ele>984.2</ele>
        <time>2021-10-10T09:54:29Z</time>
      </trkpt>
      <trkpt lat="45.10035" lon="5.55951">
        <ele>985</ele>
        <time>2021-10-10T09:54:30Z</time>
      </trkpt>
      <trkpt lat="45.10035" lon="5.55949">
        <ele>985</ele>
        <time>2021-10-10T09:54:31Z</time>
      </trkpt>
      <trkpt lat="45.10035" lon="5.55947">
        <ele>985</ele>
        <time>2021-10-10T09:54:32Z</time>
      </trkpt>
      <trkpt lat="45.10034" lon="5.55945">
        <ele>986</ele>
        <time>2021-10-10T09:54:33Z</time>
      </trkpt>
      <trkpt lat="45.10034" lon="5.55943">
        <ele>986.4</ele>
        <time>2021-10-10T09:54:34Z</time>
      </trkpt>
      <trkpt lat="45.10034" lon="5.55941">
        <ele>986.4</ele>
        <time>2021-10-10T09:54:35Z</time>
      </trkpt>
      <trkpt lat="45.10033" lon="5.55939">
        <ele>986.4</ele>
        <time>2021-10-10T09:54:36Z</time>
      </trkpt>
      <trkpt lat="45.10033" lon="5.55937">
        <ele>986.4</ele>
        <time>2021-10-10T09:54:37Z</time>
      </trkpt>
      <trkpt lat="45.10032" lon="5.55935">
        <ele>986.8</ele>
        <time>2021-10-10T09:54:38Z</time>
      </trkpt>
      <trkpt lat="45.10032" lon="5.55933">
        <ele>986.8</ele>
        <time>2021-10-10T09:54:39Z</time>
      </trkpt>
      <trkpt lat="45.10032" lon="5.55931">
        <ele>986.8</ele>
        <time>2021-10-10T09:54:40Z</time>
      </trkpt>
      <trkpt lat="45.10031" lon="5.5593">
        <ele>987.4</ele>
        <time>2021-10-10T09:54:41Z</time>
      </trkpt>
      <trkpt lat="45.10031" lon="5.55928">
        <ele>987.2</ele>
        <time>2021-10-10T09:54:42Z</time>
      </trkpt>
      <trkpt lat="45.10031" lon="5.55926">
        <ele>987.2</ele>
        <time>2021-10-10T09:54:43Z</time>
      </trkpt>
      <trkpt lat="45.1003" lon="5.55924">
        <ele>987.2</ele>
        <time>2021-10-10T09:54:44Z</time>
      </trkpt>
      <trkpt lat="45.1003" lon="5.55923">
        <ele>988.2</ele>
        <time>2021-10-10T09:54:45Z</time>
      </trkpt>
      <trkpt lat="45.10029" lon="5.55921">
        <ele>988.2</ele>
        <time>2021-10-10T09:54:46Z</time>
      </trkpt>
      <trkpt lat="45.10029" lon="5.55919">
        <ele>988.2</ele>
        <time>2021-10-10T09:54:47Z</time>
      </trkpt>
      <trkpt lat="45.10028" lon="5.55918">
        <ele>988.2</ele>
        <time>2021-10-10T09:54:48Z</time>
      </trkpt>
      <trkpt lat="45.10027" lon="5.55916">
        <ele>989</ele>
        <time>2021-10-10T09:54:49Z</time>
      </trkpt>
      <trkpt lat="45.10027" lon="5.55915">
        <ele>989.4</ele>
        <time>2021-10-10T09:54:50Z</time>
      </trkpt>
      <trkpt lat="45.10026" lon="5.55913">
        <ele>989.4</ele>
        <time>2021-10-10T09:54:51Z</time>
      </trkpt>
      <trkpt lat="45.10026" lon="5.55911">
        <ele>989.4</ele>
        <time>2021-10-10T09:54:52Z</time>
      </trkpt>
      <trkpt lat="45.10026" lon="5.5591">
        <ele>990</ele>
        <time>2021-10-10T09:54:53Z</time>
      </trkpt>
      <trkpt lat="45.10026" lon="5.55908">
        <ele>989.8</ele>
        <time>2021-10-10T09:54:54Z</time>
      </trkpt>
      <trkpt lat="45.10026" lon="5.55906">
        <ele>989.8</ele>
        <time>2021-10-10T09:54:55Z</time>
      </trkpt>
      <trkpt lat="45.10026" lon="5.55905">
        <ele>989.8</ele>
        <time>2021-10-10T09:54:56Z</time>
      </trkpt>
      <trkpt lat="45.10025" lon="5.55903">
        <ele>990.4</ele>
        <time>2021-10-10T09:54:57Z</time>
      </trkpt>
      <trkpt lat="45.10025" lon="5.55902">
        <ele>990.8</ele>
        <time>2021-10-10T09:54:58Z</time>
      </trkpt>
      <trkpt lat="45.10025" lon="5.559">
        <ele>990.8</ele>
        <time>2021-10-10T09:54:59Z</time>
      </trkpt>
      <trkpt lat="45.10101" lon="5.55801">
        <ele>1008.4</ele>
        <time>2021-10-10T09:57:29Z</time>
      </trkpt>
      <trkpt lat="45.10103" lon="5.55801">
        <ele>1007.8</ele>
        <time>2021-10-10T09:57:30Z</time>
      </trkpt>
      <trkpt lat="45.10105" lon="5.558">
        <ele>1007.8</ele>
        <time>2021-10-10T09:57:31Z</time>
      </trkpt>
      <trkpt lat="45.10108" lon="5.558">
        <ele>1007.8</ele>
        <time>2021-10-10T09:57:32Z</time>
      </trkpt>
      <trkpt lat="45.10111" lon="5.558">
        <ele>1007.6</ele>
        <time>2021-10-10T09:57:33Z</time>
      </trkpt>
      <trkpt lat="45.10114" lon="5.558">
        <ele>1007.8</ele>
        <time>2021-10-10T09:57:34Z</time>
      </trkpt>
      <trkpt lat="45.10117" lon="5.55801">
        <ele>1007.8</ele>
        <time>2021-10-10T09:57:35Z</time>
      </trkpt>
      <trkpt lat="45.1012" lon="5.55802">
        <ele>1007.8</ele>
        <time>2021-10-10T09:57:36Z</time>
      </trkpt>
      <trkpt lat="45.10122" lon="5.55804">
        <ele>1007.8</ele>
        <time>2021-10-10T09:57:37Z</time>
      </trkpt>
      <trkpt lat="45.10124" lon="5.55805">
        <ele>1008</ele>
        <time>2021-10-10T09:57:38Z</time>
      </trkpt>
      <trkpt lat="45.10126" lon="5.55807">
        <ele>1008</ele>
        <time>2021-10-10T09:57:39Z</time>
      </trkpt>
      <trkpt lat="45.10127" lon="5.55808">
        <ele>1008</ele>
        <time>2021-10-10T09:57:40Z</time>
      </trkpt>
      <trkpt lat="45.10129" lon="5.55809">
        <ele>1008</ele>
        <time>2021-10-10T09:57:41Z</time>
      </trkpt>
      <trkpt lat="45.1013" lon="5.55811">
        <ele>1008.6</ele>
        <time>2021-10-10T09:57:42Z</time>
      </trkpt>
      <trkpt lat="45.10132" lon="5.55812">
        <ele>1008.6</ele>
        <time>2021-10-10T09:57:43Z</time>
      </trkpt>
      <trkpt lat="45.10133" lon="5.55813">
        <ele>1008.6</ele>
        <time>2021-10-10T09:57:44Z</time>
      </trkpt>
      <trkpt lat="45.10135" lon="5.55815">
        <ele>1008.6</ele>
        <time>2021-10-10T09:57:45Z</time>
      </trkpt>
      <trkpt lat="45.10136" lon="5.55816">
        <ele>1009.4</ele>
        <time>2021-10-10T09:57:46Z</time>
      </trkpt>
      <trkpt lat="45.10137" lon="5.55817">
        <ele>1009.4</ele>
        <time>2021-10-10T09:57:47Z</time>
      </trkpt>
      <trkpt lat="45.10138" lon="5.55819">
        <ele>1009.4</ele>
        <time>2021-10-10T09:57:48Z</time>
      </trkpt>
      <trkpt lat="45.1014" lon="5.5582">
        <ele>1009.4</ele>
        <time>2021-10-10T09:57:49Z</time>
      </trkpt>
      <trkpt lat="45.10141" lon="5.55821">
        <ele>1011</ele>
        <time>2021-10-10T09:57:50Z</time>
      </trkpt>
      <trkpt lat="45.10142" lon="5.55822">
        <ele>1011</ele>
        <time>2021-10-10T09:57:51Z</time>
      </trkpt>
      <trkpt lat="45.10143" lon="5.55823">
        <ele>1011</ele>
        <time>2021-10-10T09:57:52Z</time>
      </trkpt>
      <trkpt lat="45.10143" lon="5.55824">
        <ele>1011</ele>
        <time>2021-10-10T09:57:53Z</time>
      </trkpt>
      <trkpt lat="45.10144" lon="5.55824">
        <ele>1010.8</ele>
        <time>2021-10-10T09:57:54Z</time>
      </trkpt>
      <trkpt lat="45.10146" lon="5.55825">
        <ele>1010.8</ele>
        <time>2021-10-10T09:57:55Z</time>
      </trkpt>
      <trkpt lat="45.10146" lon="5.55826">
        <ele>1010.8</ele>
        <time>2021-10-10T09:57:56Z</time>
      </trkpt>
      <trkpt lat="45.10147" lon="5.55827">
        <ele>1011.6</ele>
        <time>2021-10-10T09:57:57Z</time>
      </trkpt>
      <trkpt lat="45.10148" lon="5.55828">
        <ele>1012.2</ele>
        <time>2021-10-10T09:57:58Z</time>
      </trkpt>
      <trkpt lat="45.1015" lon="5.55829">
        <ele>1012.2</ele>
        <time>2021-10-10T09:57:59Z</time>
      </trkpt>
      <trkpt lat="45.10151" lon="5.5583">
        <ele>1012.2</ele>
        <time>2021-10-10T09:58:00Z</time>
      </trkpt>
      <trkpt lat="45.10152" lon="5.55831">
        <ele>1012.6</ele>
        <time>2021-10-10T09:58:01Z</time>
      </trkpt>
      <trkpt lat="45.10153" lon="5.55832">
        <ele>1012.4</ele>
        <time>2021-10-10T09:58:02Z</time>
      </trkpt>
      <trkpt lat="45.10155" lon="5.55833">
        <ele>1012.4</ele>
        <time>2021-10-10T09:58:03Z</time>
      </trkpt>
      <trkpt lat="45.10156" lon="5.55834">
        <ele>1012.4</ele>
        <time>2021-10-10T09:58:04Z</time>
      </trkpt>
      <trkpt lat="45.10158" lon="5.55836">
        <ele>1012.8</ele>
        <time>2021-10-10T09:58:05Z</time>
      </trkpt>
      <trkpt lat="45.10159" lon="5.55837">
        <ele>1013.4</ele>
        <time>2021-10-10T09:58:06Z</time>
      </trkpt>
      <trkpt lat="45.1016" lon="5.55838">
        <ele>1013.4</ele>
        <time>2021-10-10T09:58:07Z</time>
      </trkpt>
      <trkpt lat="45.1016" lon="5.5584">
        <ele>1013.4</ele>
        <time>2021-10-10T09:58:08Z</time>
      </trkpt>
      <trkpt lat="45.10161" lon="5.55841">
        <ele>1013.6</ele>
        <time>2021-10-10T09:58:09Z</time>
      </trkpt>
      <trkpt lat="45.10163" lon="5.55843">
        <ele>1013.8</ele>
        <time>2021-10-10T09:58:10Z</time>
      </trkpt>
      <trkpt lat="45.10164" lon="5.55844">
        <ele>1013.8</ele>
        <time>2021-10-10T09:58:11Z</time>
      </trkpt>
      <trkpt lat="45.10165" lon="5.55846">
        <ele>1013.8</ele>
        <time>2021-10-10T09:58:12Z</time>
      </trkpt>
      <trkpt lat="45.10167" lon="5.55847">
        <ele>1013.8</ele>
        <time>2021-10-10T09:58:13Z</time>
      </trkpt>
      <trkpt lat="45.10168" lon="5.55849">
        <ele>1014.4</ele>
        <time>2021-10-10T09:58:14Z</time>
      </trkpt>
      <trkpt lat="45.10169" lon="5.55851">
        <ele>1014.4</ele>
        <time>2021-10-10T09:58:15Z</time>
      </trkpt>
      <trkpt lat="45.10169" lon="5.55853">
        <ele>1014.4</ele>
        <time>2021-10-10T09:58:16Z</time>
      </trkpt>
      <trkpt lat="45.1017" lon="5.55855">
        <ele>1013.8</ele>
        <time>2021-10-10T09:58:17Z</time>
      </trkpt>
      <trkpt lat="45.10171" lon="5.55858">
        <ele>1013.6</ele>
        <time>2021-10-10T09:58:18Z</time>
      </trkpt>
      <trkpt lat="45.10171" lon="5.5586">
        <ele>1013.6</ele>
        <time>2021-10-10T09:58:19Z</time>
      </trkpt>
      <trkpt lat="45.10172" lon="5.55861">
        <ele>1013.6</ele>
        <time>2021-10-10T09:58:20Z</time>
      </trkpt>
      <trkpt lat="45.10173" lon="5.55864">
        <ele>1013.6</ele>
        <time>2021-10-10T09:58:21Z</time>
      </trkpt>
      <trkpt lat="45.10174" lon="5.55867">
        <ele>1013.6</ele>
        <time>2021-10-10T09:58:22Z</time>
      </trkpt>
      <trkpt lat="45.10174" lon="5.5587">
        <ele>1013.6</ele>
        <time>2021-10-10T09:58:23Z</time>
      </trkpt>
      <trkpt lat="45.10175" lon="5.55873">
        <ele>1013.6</ele>
        <time>2021-10-10T09:58:24Z</time>
      </trkpt>
      <trkpt lat="45.10176" lon="5.55876">
        <ele>1013.6</ele>
        <time>2021-10-10T09:58:25Z</time>
      </trkpt>
      <trkpt lat="45.10177" lon="5.55879">
        <ele>1013.6</ele>
        <time>2021-10-10T09:58:26Z</time>
      </trkpt>
      <trkpt lat="45.10178" lon="5.55881">
        <ele>1013.6</ele>
        <time>2021-10-10T09:58:27Z</time>
      </trkpt>
      <trkpt lat="45.10179" lon="5.55884">
        <ele>1013.6</ele>
        <time>2021-10-10T09:58:28Z</time>
      </trkpt>
      <trkpt lat="45.1018" lon="5.55887">
        <ele>1014.2</ele>
        <time>2021-10-10T09:58:29Z</time>
      </trkpt>
      <trkpt lat="45.10181" lon="5.5589">
        <ele>1014.2</ele>
        <time>2021-10-10T09:58:30Z</time>
      </trkpt>
      <trkpt lat="45.10182" lon="5.55894">
        <ele>1014.2</ele>
        <time>2021-10-10T09:58:31Z</time>
      </trkpt>
      <trkpt lat="45.10183" lon="5.55897">
        <ele>1014.2</ele>
        <time>2021-10-10T09:58:32Z</time>
      </trkpt>
      <trkpt lat="45.10184" lon="5.559">
        <ele>1014.6</ele>
        <time>2021-10-10T09:58:33Z</time>
      </trkpt>
      <trkpt lat="45.10185" lon="5.55903">
        <ele>1014.6</ele>
        <time>2021-10-10T09:58:34Z</time>
      </trkpt>
      <trkpt lat="45.10186" lon="5.55905">
        <ele>1014.6</ele>
        <time>2021-10-10T09:58:35Z</time>
      </trkpt>
      <trkpt lat="45.10187" lon="5.55908">
        <ele>1014.6</ele>
        <time>2021-10-10T09:58:36Z</time>
      </trkpt>
      <trkpt lat="45.10188" lon="5.5591">
        <ele>1014.6</ele>
        <time>2021-10-10T09:58:37Z</time>
      </trkpt>
      <trkpt lat="45.1019" lon="5.55913">
        <ele>1014.4</ele>
        <time>2021-10-10T09:58:38Z</time>
      </trkpt>
      <trkpt lat="45.10192" lon="5.55915">
        <ele>1014.4</ele>
        <time>2021-10-10T09:58:39Z</time>
      </trkpt>
      <trkpt lat="45.10194" lon="5.55917">
        <ele>1014.4</ele>
        <time>2021-10-10T09:58:40Z</time>
      </trkpt>
      <trkpt lat="45.10196" lon="5.55919">
        <ele>1014.4</ele>
        <time>2021-10-10T09:58:41Z</time>
      </trkpt>
      <trkpt lat="45.10198" lon="5.55921">
        <ele>1014.4</ele>
        <time>2021-10-10T09:58:42Z</time>
      </trkpt>
      <trkpt lat="45.102" lon="5.55923">
        <ele>1014.4</ele>
        <time>2021-10-10T09:58:43Z</time>
      </trkpt>
      <trkpt lat="45.10203" lon="5.55925">
        <ele>1014.4</ele>
        <time>2021-10-10T09:58:44Z</time>
      </trkpt>
      <trkpt lat="45.10206" lon="5.55926">
        <ele>1014.4</ele>
        <time>2021-10-10T09:58:45Z</time>
      </trkpt>
      <trkpt lat="45.10209" lon="5.55929">
        <ele>1013.6</ele>
        <time>2021-10-10T09:58:46Z</time>
      </trkpt>
      <trkpt lat="45.10211" lon="5.55931">
        <ele>1013.6</ele>
        <time>2021-10-10T09:58:47Z</time>
      </trkpt>
      <trkpt lat="45.10215" lon="5.55934">
        <ele>1013.6</ele>
        <time>2021-10-10T09:58:48Z</time>
      </trkpt>
      <trkpt lat="45.10217" lon="5.55937">
        <ele>1013.2</ele>
        <time>2021-10-10T09:58:49Z</time>
      </trkpt>
      <trkpt lat="45.1022" lon="5.55939">
        <ele>1013</ele>
        <time>2021-10-10T09:58:50Z</time>
      </trkpt>
      <trkpt lat="45.10222" lon="5.5594">
        <ele>1013</ele>
        <time>2021-10-10T09:58:51Z</time>
      </trkpt>
      <trkpt lat="45.10225" lon="5.55941">
        <ele>1013</ele>
        <time>2021-10-10T09:58:52Z</time>
      </trkpt>
      <trkpt lat="45.10227" lon="5.5594">
        <ele>1013</ele>
        <time>2021-10-10T09:58:53Z</time>
      </trkpt>
      <trkpt lat="45.1023" lon="5.55939">
        <ele>1013.4</ele>
        <time>2021-10-10T09:58:54Z</time>
      </trkpt>
      <trkpt lat="45.10231" lon="5.55939">
        <ele>1013.4</ele>
        <time>2021-10-10T09:58:55Z</time>
      </trkpt>
      <trkpt lat="45.10233" lon="5.55937">
        <ele>1013.4</ele>
        <time>2021-10-10T09:58:56Z</time>
      </trkpt>
      <trkpt lat="45.10235" lon="5.55936">
        <ele>1014.4</ele>
        <time>2021-10-10T09:58:57Z</time>
      </trkpt>
      <trkpt lat="45.10237" lon="5.55934">
        <ele>1015</ele>
        <time>2021-10-10T09:58:58Z</time>
      </trkpt>
      <trkpt lat="45.10239" lon="5.55932">
        <ele>1015</ele>
        <time>2021-10-10T09:58:59Z</time>
      </trkpt>
      <trkpt lat="45.1024" lon="5.5593">
        <ele>1015</ele>
        <time>2021-10-10T09:59:00Z</time>
      </trkpt>
      <trkpt lat="45.10242" lon="5.55928">
        <ele>1015</ele>
        <time>2021-10-10T09:59:01Z</time>
      </trkpt>
      <trkpt lat="45.10243" lon="5.55925">
        <ele>1015.2</ele>
        <time>2021-10-10T09:59:02Z</time>
      </trkpt>
      <trkpt lat="45.10245" lon="5.55923">
        <ele>1015.2</ele>
        <time>2021-10-10T09:59:03Z</time>
      </trkpt>
      <trkpt lat="45.10247" lon="5.55922">
        <ele>1015.2</ele>
        <time>2021-10-10T09:59:04Z</time>
      </trkpt>
      <trkpt lat="45.10249" lon="5.5592">
        <ele>1015.2</ele>
        <time>2021-10-10T09:59:05Z</time>
      </trkpt>
      <trkpt lat="45.10251" lon="5.55917">
        <ele>1015.2</ele>
        <time>2021-10-10T09:59:06Z</time>
      </trkpt>
      <trkpt lat="45.10251" lon="5.55915">
        <ele>1015.2</ele>
        <time>2021-10-10T09:59:07Z</time>
      </trkpt>
      <trkpt lat="45.10253" lon="5.55912">
        <ele>1015.2</ele>
        <time>2021-10-10T09:59:08Z</time>
      </trkpt>
      <trkpt lat="45.10254" lon="5.55909">
        <ele>1015.2</ele>
        <time>2021-10-10T09:59:09Z</time>
      </trkpt>
      <trkpt lat="45.10255" lon="5.55907">
        <ele>1015.4</ele>
        <time>2021-10-10T09:59:10Z</time>
      </trkpt>
      <trkpt lat="45.10256" lon="5.55903">
        <ele>1015.4</ele>
        <time>2021-10-10T09:59:11Z</time>
      </trkpt>
      <trkpt lat="45.10258" lon="5.55901">
        <ele>1015.4</ele>
        <time>2021-10-10T09:59:12Z</time>
      </trkpt>
      <trkpt lat="45.10259" lon="5.55897">
        <ele>1015.4</ele>
        <time>2021-10-10T09:59:13Z</time>
      </trkpt>
      <trkpt lat="45.10261" lon="5.55895">
        <ele>1015.2</ele>
        <time>2021-10-10T09:59:14Z</time>
      </trkpt>
      <trkpt lat="45.10262" lon="5.55891">
        <ele>1015.2</ele>
        <time>2021-10-10T09:59:15Z</time>
      </trkpt>
      <trkpt lat="45.10264" lon="5.55888">
        <ele>1015.2</ele>
        <time>2021-10-10T09:59:16Z</time>
      </trkpt>
      <trkpt lat="45.10266" lon="5.55884">
        <ele>1014.6</ele>
        <time>2021-10-10T09:59:17Z</time>
      </trkpt>
      <trkpt lat="45.10267" lon="5.55881">
        <ele>1014.8</ele>
        <time>2021-10-10T09:59:18Z</time>
      </trkpt>
      <trkpt lat="45.10269" lon="5.55878">
        <ele>1014.8</ele>
        <time>2021-10-10T09:59:19Z</time>
      </trkpt>
      <trkpt lat="45.10271" lon="5.55874">
        <ele>1014.8</ele>
        <time>2021-10-10T09:59:20Z</time>
      </trkpt>
      <trkpt lat="45.10274" lon="5.55871">
        <ele>1014.8</ele>
        <time>2021-10-10T09:59:21Z</time>
      </trkpt>
      <trkpt lat="45.10276" lon="5.55869">
        <ele>1015.6</ele>
        <time>2021-10-10T09:59:22Z</time>
      </trkpt>
      <trkpt lat="45.10278" lon="5.55867">
        <ele>1015.6</ele>
        <time>2021-10-10T09:59:23Z</time>
      </trkpt>
      <trkpt lat="45.1028" lon="5.55864">
        <ele>1015.6</ele>
        <time>2021-10-10T09:59:24Z</time>
      </trkpt>
      <trkpt lat="45.10281" lon="5.55862">
        <ele>1015.6</ele>
        <time>2021-10-10T09:59:25Z</time>
      </trkpt>
      <trkpt lat="45.10283" lon="5.55859">
        <ele>1016</ele>
        <time>2021-10-10T09:59:26Z</time>
      </trkpt>
      <trkpt lat="45.10285" lon="5.55856">
        <ele>1016</ele>
        <time>2021-10-10T09:59:27Z</time>
      </trkpt>
      <trkpt lat="45.10286" lon="5.55853">
        <ele>1016</ele>
        <time>2021-10-10T09:59:28Z</time>
      </trkpt>
      <trkpt lat="45.10288" lon="5.55851">
        <ele>1016.2</ele>
        <time>2021-10-10T09:59:29Z</time>
      </trkpt>
      <trkpt lat="45.1029" lon="5.55848">
        <ele>1016.2</ele>
        <time>2021-10-10T09:59:30Z</time>
      </trkpt>
      <trkpt lat="45.10291" lon="5.55844">
        <ele>1016.2</ele>
        <time>2021-10-10T09:59:31Z</time>
      </trkpt>
      <trkpt lat="45.10293" lon="5.55841">
        <ele>1016.2</ele>
        <time>2021-10-10T09:59:32Z</time>
      </trkpt>
      <trkpt lat="45.10294" lon="5.55838">
        <ele>1016.6</ele>
        <time>2021-10-10T09:59:33Z</time>
      </trkpt>
      <trkpt lat="45.10296" lon="5.55835">
        <ele>1017.2</ele>
        <time>2021-10-10T09:59:34Z</time>
      </trkpt>
      <trkpt lat="45.10297" lon="5.55832">
        <ele>1017.2</ele>
        <time>2021-10-10T09:59:35Z</time>
      </trkpt>
      <trkpt lat="45.10298" lon="5.55828">
        <ele>1017.2</ele>
        <time>2021-10-10T09:59:36Z</time>
      </trkpt>
      <trkpt lat="45.103" lon="5.55825">
        <ele>1017.6</ele>
        <time>2021-10-10T09:59:37Z</time>
      </trkpt>
      <trkpt lat="45.10301" lon="5.55823">
        <ele>1018</ele>
        <time>2021-10-10T09:59:38Z</time>
      </trkpt>
      <trkpt lat="45.10302" lon="5.55819">
        <ele>1018</ele>
        <time>2021-10-10T09:59:39Z</time>
      </trkpt>
      <trkpt lat="45.10303" lon="5.55817">
        <ele>1018</ele>
        <time>2021-10-10T09:59:40Z</time>
      </trkpt>
      <trkpt lat="45.10303" lon="5.55815">
        <ele>1018</ele>
        <time>2021-10-10T09:59:41Z</time>
      </trkpt>
      <trkpt lat="45.10304" lon="5.55812">
        <ele>1018.6</ele>
        <time>2021-10-10T09:59:42Z</time>
      </trkpt>
      <trkpt lat="45.10305" lon="5.5581">
        <ele>1018.6</ele>
        <time>2021-10-10T09:59:43Z</time>
      </trkpt>
      <trkpt lat="45.10305" lon="5.55809">
        <ele>1018.6</ele>
        <time>2021-10-10T09:59:44Z</time>
      </trkpt>
      <trkpt lat="45.10304" lon="5.55808">
        <ele>1019</ele>
        <time>2021-10-10T10:00:01Z</time>
      </trkpt>
      <trkpt lat="45.10303" lon="5.5581">
        <ele>1018.8</ele>
        <time>2021-10-10T10:00:02Z</time>
      </trkpt>
      <trkpt lat="45.10303" lon="5.55812">
        <ele>1018.8</ele>
        <time>2021-10-10T10:00:03Z</time>
      </trkpt>
      <trkpt lat="45.10302" lon="5.55815">
        <ele>1018.8</ele>
        <time>2021-10-10T10:00:04Z</time>
      </trkpt>
      <trkpt lat="45.10301" lon="5.55818">
        <ele>1017.8</ele>
        <time>2021-10-10T10:00:05Z</time>
      </trkpt>
      <trkpt lat="45.10299" lon="5.55822">
        <ele>1016.8</ele>
        <time>2021-10-10T10:00:06Z</time>
      </trkpt>
      <trkpt lat="45.10297" lon="5.55826">
        <ele>1016.8</ele>
        <time>2021-10-10T10:00:07Z</time>
      </trkpt>
      <trkpt lat="45.10295" lon="5.55829">
        <ele>1016.8</ele>
        <time>2021-10-10T10:00:08Z</time>
      </trkpt>
      <trkpt lat="45.10293" lon="5.55832">
        <ele>1016.8</ele>
        <time>2021-10-10T10:00:09Z</time>
      </trkpt>
      <trkpt lat="45.10292" lon="5.55836">
        <ele>1016.6</ele>
        <time>2021-10-10T10:00:10Z</time>
      </trkpt>
      <trkpt lat="45.10291" lon="5.55838">
        <ele>1016.6</ele>
        <time>2021-10-10T10:00:11Z</time>
      </trkpt>
      <trkpt lat="45.10291" lon="5.5584">
        <ele>1016.6</ele>
        <time>2021-10-10T10:00:12Z</time>
      </trkpt>
      <trkpt lat="45.10292" lon="5.55841">
        <ele>1015.6</ele>
        <time>2021-10-10T10:00:13Z</time>
      </trkpt>
      <trkpt lat="45.10293" lon="5.55842">
        <ele>1014.8</ele>
        <time>2021-10-10T10:00:14Z</time>
      </trkpt>
      <trkpt lat="45.10295" lon="5.55843">
        <ele>1014.8</ele>
        <time>2021-10-10T10:00:15Z</time>
      </trkpt>
      <trkpt lat="45.10299" lon="5.55843">
        <ele>1014.8</ele>
        <time>2021-10-10T10:00:16Z</time>
      </trkpt>
      <trkpt lat="45.10303" lon="5.55844">
        <ele>1013.8</ele>
        <time>2021-10-10T10:00:17Z</time>
      </trkpt>
      <trkpt lat="45.10308" lon="5.55846">
        <ele>1011</ele>
        <time>2021-10-10T10:00:18Z</time>
      </trkpt>
      <trkpt lat="45.10314" lon="5.55848">
        <ele>1011</ele>
        <time>2021-10-10T10:00:19Z</time>
      </trkpt>
      <trkpt lat="45.1032" lon="5.5585">
        <ele>1011</ele>
        <time>2021-10-10T10:00:20Z</time>
      </trkpt>
      <trkpt lat="45.10326" lon="5.55852">
        <ele>1011</ele>
        <time>2021-10-10T10:00:21Z</time>
      </trkpt>
      <trkpt lat="45.10332" lon="5.55855">
        <ele>1012.6</ele>
        <time>2021-10-10T10:00:22Z</time>
      </trkpt>
      <trkpt lat="45.10336" lon="5.55856">
        <ele>1012.6</ele>
        <time>2021-10-10T10:00:23Z</time>
      </trkpt>
      <trkpt lat="45.1034" lon="5.55856">
        <ele>1012.6</ele>
        <time>2021-10-10T10:00:24Z</time>
      </trkpt>
      <trkpt lat="45.10343" lon="5.55856">
        <ele>1012.6</ele>
        <time>2021-10-10T10:00:25Z</time>
      </trkpt>
      <trkpt lat="45.10346" lon="5.55856">
        <ele>1013.6</ele>
        <time>2021-10-10T10:00:26Z</time>
      </trkpt>
      <trkpt lat="45.10348" lon="5.55857">
        <ele>1013.6</ele>
        <time>2021-10-10T10:00:27Z</time>
      </trkpt>
      <trkpt lat="45.1035" lon="5.55858">
        <ele>1013.6</ele>
        <time>2021-10-10T10:00:28Z</time>
      </trkpt>
      <trkpt lat="45.10352" lon="5.55858">
        <ele>1014.6</ele>
        <time>2021-10-10T10:00:29Z</time>
      </trkpt>
      <trkpt lat="45.10354" lon="5.55859">
        <ele>1015</ele>
        <time>2021-10-10T10:00:30Z</time>
      </trkpt>
      <trkpt lat="45.10355" lon="5.5586">
        <ele>1015</ele>
        <time>2021-10-10T10:00:31Z</time>
      </trkpt>
      <trkpt lat="45.10356" lon="5.55861">
        <ele>1015</ele>
        <time>2021-10-10T10:00:32Z</time>
      </trkpt>
      <trkpt lat="45.10358" lon="5.55861">
        <ele>1015.6</ele>
        <time>2021-10-10T10:00:33Z</time>
      </trkpt>
      <trkpt lat="45.10359" lon="5.55861">
        <ele>1016.2</ele>
        <time>2021-10-10T10:00:34Z</time>
      </trkpt>
      <trkpt lat="45.10361" lon="5.55862">
        <ele>1016.2</ele>
        <time>2021-10-10T10:00:35Z</time>
      </trkpt>
      <trkpt lat="45.10363" lon="5.55862">
        <ele>1016.2</ele>
        <time>2021-10-10T10:00:36Z</time>
      </trkpt>
      <trkpt lat="45.10365" lon="5.55862">
        <ele>1016.2</ele>
        <time>2021-10-10T10:00:37Z</time>
      </trkpt>
      <trkpt lat="45.10366" lon="5.55862">
        <ele>1016.4</ele>
        <time>2021-10-10T10:00:38Z</time>
      </trkpt>
      <trkpt lat="45.10369" lon="5.55861">
        <ele>1016.4</ele>
        <time>2021-10-10T10:00:39Z</time>
      </trkpt>
      <trkpt lat="45.10371" lon="5.55861">
        <ele>1016.4</ele>
        <time>2021-10-10T10:00:40Z</time>
      </trkpt>
      <trkpt lat="45.10372" lon="5.5586">
        <ele>1017.2</ele>
        <time>2021-10-10T10:00:41Z</time>
      </trkpt>
      <trkpt lat="45.10374" lon="5.5586">
        <ele>1017</ele>
        <time>2021-10-10T10:00:42Z</time>
      </trkpt>
      <trkpt lat="45.10376" lon="5.5586">
        <ele>1017</ele>
        <time>2021-10-10T10:00:43Z</time>
      </trkpt>
      <trkpt lat="45.10378" lon="5.5586">
        <ele>1017</ele>
        <time>2021-10-10T10:00:44Z</time>
      </trkpt>
      <trkpt lat="45.10381" lon="5.55859">
        <ele>1017</ele>
        <time>2021-10-10T10:00:45Z</time>
      </trkpt>
      <trkpt lat="45.10383" lon="5.55858">
        <ele>1017.6</ele>
        <time>2021-10-10T10:00:46Z</time>
      </trkpt>
      <trkpt lat="45.10385" lon="5.55858">
        <ele>1017.6</ele>
        <time>2021-10-10T10:00:47Z</time>
      </trkpt>
      <trkpt lat="45.10387" lon="5.55857">
        <ele>1017.6</ele>
        <time>2021-10-10T10:00:48Z</time>
      </trkpt>
      <trkpt lat="45.10388" lon="5.55856">
        <ele>1018</ele>
        <time>2021-10-10T10:00:49Z</time>
      </trkpt>
      <trkpt lat="45.1039" lon="5.55856">
        <ele>1018</ele>
        <time>2021-10-10T10:00:50Z</time>
      </trkpt>
      <trkpt lat="45.10392" lon="5.55855">
        <ele>1018</ele>
        <time>2021-10-10T10:00:51Z</time>
      </trkpt>
      <trkpt lat="45.10394" lon="5.55855">
        <ele>1018</ele>
        <time>2021-10-10T10:00:52Z</time>
      </trkpt>
      <trkpt lat="45.10395" lon="5.55854">
        <ele>1018.4</ele>
        <time>2021-10-10T10:00:53Z</time>
      </trkpt>
      <trkpt lat="45.10397" lon="5.55853">
        <ele>1019</ele>
        <time>2021-10-10T10:00:54Z</time>
      </trkpt>
      <trkpt lat="45.10398" lon="5.55853">
        <ele>1019</ele>
        <time>2021-10-10T10:00:55Z</time>
      </trkpt>
      <trkpt lat="45.104" lon="5.55852">
        <ele>1019</ele>
        <time>2021-10-10T10:00:56Z</time>
      </trkpt>
      <trkpt lat="45.10401" lon="5.55852">
        <ele>1019</ele>
        <time>2021-10-10T10:00:57Z</time>
      </trkpt>
      <trkpt lat="45.10402" lon="5.55851">
        <ele>1019.2</ele>
        <time>2021-10-10T10:00:58Z</time>
      </trkpt>
      <trkpt lat="45.10404" lon="5.55851">
        <ele>1019.2</ele>
        <time>2021-10-10T10:00:59Z</time>
      </trkpt>
      <trkpt lat="45.10405" lon="5.5585">
        <ele>1019.2</ele>
        <time>2021-10-10T10:01:00Z</time>
      </trkpt>
      <trkpt lat="45.10407" lon="5.5585">
        <ele>1020.2</ele>
        <time>2021-10-10T10:01:01Z</time>
      </trkpt>
      <trkpt lat="45.10408" lon="5.55849">
        <ele>1020.4</ele>
        <time>2021-10-10T10:01:02Z</time>
      </trkpt>
      <trkpt lat="45.1041" lon="5.55849">
        <ele>1020.4</ele>
        <time>2021-10-10T10:01:03Z</time>
      </trkpt>
      <trkpt lat="45.10411" lon="5.55849">
        <ele>1020.4</ele>
        <time>2021-10-10T10:01:04Z</time>
      </trkpt>
      <trkpt lat="45.10413" lon="5.55848">
        <ele>1021.4</ele>
        <time>2021-10-10T10:01:05Z</time>
      </trkpt>
      <trkpt lat="45.10414" lon="5.55848">
        <ele>1021.2</ele>
        <time>2021-10-10T10:01:06Z</time>
      </trkpt>
      <trkpt lat="45.10415" lon="5.55847">
        <ele>1021.2</ele>
        <time>2021-10-10T10:01:07Z</time>
      </trkpt>
      <trkpt lat="45.10416" lon="5.55847">
        <ele>1021.2</ele>
        <time>2021-10-10T10:01:08Z</time>
      </trkpt>
      <trkpt lat="45.10418" lon="5.55846">
        <ele>1022.2</ele>
        <time>2021-10-10T10:01:09Z</time>
      </trkpt>
      <trkpt lat="45.10419" lon="5.55846">
        <ele>1022.4</ele>
        <time>2021-10-10T10:01:10Z</time>
      </trkpt>
      <trkpt lat="45.1042" lon="5.55846">
        <ele>1022.4</ele>
        <time>2021-10-10T10:01:11Z</time>
      </trkpt>
      <trkpt lat="45.10422" lon="5.55845">
        <ele>1022.4</ele>
        <time>2021-10-10T10:01:12Z</time>
      </trkpt>
      <trkpt lat="45.10423" lon="5.55845">
        <ele>1022.4</ele>
        <time>2021-10-10T10:01:13Z</time>
      </trkpt>
      <trkpt lat="45.10425" lon="5.55844">
        <ele>1022.6</ele>
        <time>2021-10-10T10:01:14Z</time>
      </trkpt>
      <trkpt lat="45.10426" lon="5.55844">
        <ele>1022.6</ele>
        <time>2021-10-10T10:01:15Z</time>
      </trkpt>
      <trkpt lat="45.10427" lon="5.55843">
        <ele>1022.6</ele>
        <time>2021-10-10T10:01:16Z</time>
      </trkpt>
      <trkpt lat="45.10429" lon="5.55843">
        <ele>1022.6</ele>
        <time>2021-10-10T10:01:17Z</time>
      </trkpt>
      <trkpt lat="45.1043" lon="5.55843">
        <ele>1023.4</ele>
        <time>2021-10-10T10:01:18Z</time>
      </trkpt>
      <trkpt lat="45.10432" lon="5.55842">
        <ele>1023.4</ele>
        <time>2021-10-10T10:01:19Z</time>
      </trkpt>
      <trkpt lat="45.10433" lon="5.55841">
        <ele>1023.4</ele>
        <time>2021-10-10T10:01:20Z</time>
      </trkpt>
      <trkpt lat="45.10435" lon="5.55841">
        <ele>1023.8</ele>
        <time>2021-10-10T10:01:21Z</time>
      </trkpt>
      <trkpt lat="45.10436" lon="5.5584">
        <ele>1024.4</ele>
        <time>2021-10-10T10:01:22Z</time>
      </trkpt>
      <trkpt lat="45.10437" lon="5.5584">
        <ele>1024.4</ele>
        <time>2021-10-10T10:01:23Z</time>
      </trkpt>
      <trkpt lat="45.10439" lon="5.5584">
        <ele>1024.4</ele>
        <time>2021-10-10T10:01:24Z</time>
      </trkpt>
      <trkpt lat="45.1044" lon="5.55839">
        <ele>1025</ele>
        <time>2021-10-10T10:01:25Z</time>
      </trkpt>
      <trkpt lat="45.10441" lon="5.55839">
        <ele>1025.2</ele>
        <time>2021-10-10T10:01:26Z</time>
      </trkpt>
      <trkpt lat="45.10442" lon="5.55839">
        <ele>1025.2</ele>
        <time>2021-10-10T10:01:27Z</time>
      </trkpt>
      <trkpt lat="45.10443" lon="5.55839">
        <ele>1025.2</ele>
        <time>2021-10-10T10:01:28Z</time>
      </trkpt>
      <trkpt lat="45.10445" lon="5.55839">
        <ele>1025.2</ele>
        <time>2021-10-10T10:01:29Z</time>
      </trkpt>
      <trkpt lat="45.10446" lon="5.55838">
        <ele>1025.8</ele>
        <time>2021-10-10T10:01:30Z</time>
      </trkpt>
      <trkpt lat="45.10447" lon="5.55838">
        <ele>1025.8</ele>
        <time>2021-10-10T10:01:31Z</time>
      </trkpt>
      <trkpt lat="45.10448" lon="5.55838">
        <ele>1025.8</ele>
        <time>2021-10-10T10:01:32Z</time>
      </trkpt>
      <trkpt lat="45.10449" lon="5.55838">
        <ele>1026.2</ele>
        <time>2021-10-10T10:01:33Z</time>
      </trkpt>
      <trkpt lat="45.1045" lon="5.55838">
        <ele>1026.6</ele>
        <time>2021-10-10T10:01:34Z</time>
      </trkpt>
      <trkpt lat="45.10451" lon="5.55838">
        <ele>1026.6</ele>
        <time>2021-10-10T10:01:35Z</time>
      </trkpt>
      <trkpt lat="45.10452" lon="5.55837">
        <ele>1026.6</ele>
        <time>2021-10-10T10:01:36Z</time>
      </trkpt>
      <trkpt lat="45.10453" lon="5.55837">
        <ele>1027.4</ele>
        <time>2021-10-10T10:01:37Z</time>
      </trkpt>
      <trkpt lat="45.10455" lon="5.55837">
        <ele>1027.4</ele>
        <time>2021-10-10T10:01:38Z</time>
      </trkpt>
      <trkpt lat="45.10456" lon="5.55837">
        <ele>1027.4</ele>
        <time>2021-10-10T10:01:39Z</time>
      </trkpt>
      <trkpt lat="45.10457" lon="5.55837">
        <ele>1027.4</ele>
        <time>2021-10-10T10:01:40Z</time>
      </trkpt>
      <trkpt lat="45.10458" lon="5.55837">
        <ele>1028.2</ele>
        <time>2021-10-10T10:01:41Z</time>
      </trkpt>
      <trkpt lat="45.1046" lon="5.55837">
        <ele>1028.6</ele>
        <time>2021-10-10T10:01:42Z</time>
      </trkpt>
      <trkpt lat="45.10461" lon="5.55837">
        <ele>1028.6</ele>
        <time>2021-10-10T10:01:43Z</time>
      </trkpt>
      <trkpt lat="45.10462" lon="5.55837">
        <ele>1028.6</ele>
        <time>2021-10-10T10:01:44Z</time>
      </trkpt>
      <trkpt lat="45.10463" lon="5.55837">
        <ele>1028.6</ele>
        <time>2021-10-10T10:01:45Z</time>
      </trkpt>
      <trkpt lat="45.10464" lon="5.55837">
        <ele>1029</ele>
        <time>2021-10-10T10:01:46Z</time>
      </trkpt>
      <trkpt lat="45.10465" lon="5.55837">
        <ele>1029</ele>
        <time>2021-10-10T10:01:47Z</time>
      </trkpt>
      <trkpt lat="45.10466" lon="5.55837">
        <ele>1029</ele>
        <time>2021-10-10T10:01:48Z</time>
      </trkpt>
      <trkpt lat="45.10467" lon="5.55837">
        <ele>1029.4</ele>
        <time>2021-10-10T10:01:49Z</time>
      </trkpt>
      <trkpt lat="45.10468" lon="5.55837">
        <ele>1029.6</ele>
        <time>2021-10-10T10:01:50Z</time>
      </trkpt>
      <trkpt lat="45.10469" lon="5.55837">
        <ele>1029.6</ele>
        <time>2021-10-10T10:01:51Z</time>
      </trkpt>
      <trkpt lat="45.10457" lon="5.55871">
        <ele>1036.2</ele>
        <time>2021-10-10T10:03:08Z</time>
      </trkpt>
      <trkpt lat="45.10456" lon="5.55872">
        <ele>1037.2</ele>
        <time>2021-10-10T10:03:09Z</time>
      </trkpt>
      <trkpt lat="45.10455" lon="5.55873">
        <ele>1036.8</ele>
        <time>2021-10-10T10:03:10Z</time>
      </trkpt>
      <trkpt lat="45.10453" lon="5.55874">
        <ele>1036.8</ele>
        <time>2021-10-10T10:03:11Z</time>
      </trkpt>
      <trkpt lat="45.10453" lon="5.55876">
        <ele>1036.8</ele>
        <time>2021-10-10T10:03:12Z</time>
      </trkpt>
      <trkpt lat="45.10451" lon="5.55877">
        <ele>1037.6</ele>
        <time>2021-10-10T10:03:13Z</time>
      </trkpt>
      <trkpt lat="45.10451" lon="5.55878">
        <ele>1037.4</ele>
        <time>2021-10-10T10:03:14Z</time>
      </trkpt>
      <trkpt lat="45.1045" lon="5.5588">
        <ele>1037.4</ele>
        <time>2021-10-10T10:03:15Z</time>
      </trkpt>
      <trkpt lat="45.10449" lon="5.55881">
        <ele>1037.4</ele>
        <time>2021-10-10T10:03:16Z</time>
      </trkpt>
      <trkpt lat="45.10448" lon="5.55883">
        <ele>1037.4</ele>
        <time>2021-10-10T10:03:17Z</time>
      </trkpt>
      <trkpt lat="45.10447" lon="5.55884">
        <ele>1037.6</ele>
        <time>2021-10-10T10:03:18Z</time>
      </trkpt>
      <trkpt lat="45.10446" lon="5.55885">
        <ele>1037.6</ele>
        <time>2021-10-10T10:03:19Z</time>
      </trkpt>
      <trkpt lat="45.10446" lon="5.55887">
        <ele>1037.6</ele>
        <time>2021-10-10T10:03:20Z</time>
      </trkpt>
      <trkpt lat="45.10445" lon="5.55889">
        <ele>1037.8</ele>
        <time>2021-10-10T10:03:21Z</time>
      </trkpt>
      <trkpt lat="45.10445" lon="5.5589">
        <ele>1038</ele>
        <time>2021-10-10T10:03:22Z</time>
      </trkpt>
      <trkpt lat="45.10444" lon="5.55891">
        <ele>1038</ele>
        <time>2021-10-10T10:03:23Z</time>
      </trkpt>
      <trkpt lat="45.10443" lon="5.55892">
        <ele>1038</ele>
        <time>2021-10-10T10:03:24Z</time>
      </trkpt>
      <trkpt lat="45.10443" lon="5.55895">
        <ele>1038</ele>
        <time>2021-10-10T10:03:25Z</time>
      </trkpt>
      <trkpt lat="45.10442" lon="5.55896">
        <ele>1038.2</ele>
        <time>2021-10-10T10:03:26Z</time>
      </trkpt>
      <trkpt lat="45.10442" lon="5.55897">
        <ele>1038.2</ele>
        <time>2021-10-10T10:03:27Z</time>
      </trkpt>
      <trkpt lat="45.10441" lon="5.55899">
        <ele>1038.2</ele>
        <time>2021-10-10T10:03:28Z</time>
      </trkpt>
      <trkpt lat="45.1044" lon="5.559">
        <ele>1037.8</ele>
        <time>2021-10-10T10:03:29Z</time>
      </trkpt>
      <trkpt lat="45.10438" lon="5.55901">
        <ele>1038</ele>
        <time>2021-10-10T10:03:30Z</time>
      </trkpt>
      <trkpt lat="45.10438" lon="5.55904">
        <ele>1038</ele>
        <time>2021-10-10T10:03:31Z</time>
      </trkpt>
      <trkpt lat="45.10437" lon="5.55905">
        <ele>1038</ele>
        <time>2021-10-10T10:03:32Z</time>
      </trkpt>
      <trkpt lat="45.10436" lon="5.55908">
        <ele>1038</ele>
        <time>2021-10-10T10:03:33Z</time>
      </trkpt>
      <trkpt lat="45.10436" lon="5.55909">
        <ele>1038</ele>
        <time>2021-10-10T10:03:34Z</time>
      </trkpt>
      <trkpt lat="45.10435" lon="5.55911">
        <ele>1038</ele>
        <time>2021-10-10T10:03:35Z</time>
      </trkpt>
      <trkpt lat="45.10434" lon="5.55912">
        <ele>1038</ele>
        <time>2021-10-10T10:03:36Z</time>
      </trkpt>
      <trkpt lat="45.10433" lon="5.55915">
        <ele>1038.4</ele>
        <time>2021-10-10T10:03:37Z</time>
      </trkpt>
      <trkpt lat="45.10433" lon="5.55916">
        <ele>1038.2</ele>
        <time>2021-10-10T10:03:38Z</time>
      </trkpt>
      <trkpt lat="45.10432" lon="5.55919">
        <ele>1038.2</ele>
        <time>2021-10-10T10:03:39Z</time>
      </trkpt>
      <trkpt lat="45.10432" lon="5.5592">
        <ele>1038.2</ele>
        <time>2021-10-10T10:03:40Z</time>
      </trkpt>
      <trkpt lat="45.10431" lon="5.55922">
        <ele>1038.4</ele>
        <time>2021-10-10T10:03:41Z</time>
      </trkpt>
      <trkpt lat="45.1043" lon="5.55924">
        <ele>1038.6</ele>
        <time>2021-10-10T10:03:42Z</time>
      </trkpt>
      <trkpt lat="45.1043" lon="5.55925">
        <ele>1038.6</ele>
        <time>2021-10-10T10:03:43Z</time>
      </trkpt>
      <trkpt lat="45.1043" lon="5.55926">
        <ele>1038.6</ele>
        <time>2021-10-10T10:03:44Z</time>
      </trkpt>
      <trkpt lat="45.1068" lon="5.55899">
        <ele>1075.2</ele>
        <time>2021-10-10T10:08:36Z</time>
      </trkpt>
      <trkpt lat="45.10681" lon="5.55899">
        <ele>1075.2</ele>
        <time>2021-10-10T10:08:37Z</time>
      </trkpt>
      <trkpt lat="45.10682" lon="5.55899">
        <ele>1075.8</ele>
        <time>2021-10-10T10:08:38Z</time>
      </trkpt>
      <trkpt lat="45.10684" lon="5.55899">
        <ele>1075.8</ele>
        <time>2021-10-10T10:08:39Z</time>
      </trkpt>
      <trkpt lat="45.10685" lon="5.55899">
        <ele>1075.8</ele>
        <time>2021-10-10T10:08:40Z</time>
      </trkpt>
      <trkpt lat="45.10687" lon="5.559">
        <ele>1075.8</ele>
        <time>2021-10-10T10:08:41Z</time>
      </trkpt>
      <trkpt lat="45.10688" lon="5.559">
        <ele>1076.4</ele>
        <time>2021-10-10T10:08:42Z</time>
      </trkpt>
      <trkpt lat="45.10689" lon="5.559">
        <ele>1076.4</ele>
        <time>2021-10-10T10:08:43Z</time>
      </trkpt>
      <trkpt lat="45.1069" lon="5.55901">
        <ele>1076.4</ele>
        <time>2021-10-10T10:08:44Z</time>
      </trkpt>
      <trkpt lat="45.10692" lon="5.55902">
        <ele>1076.8</ele>
        <time>2021-10-10T10:08:45Z</time>
      </trkpt>
      <trkpt lat="45.10693" lon="5.55903">
        <ele>1077.2</ele>
        <time>2021-10-10T10:08:46Z</time>
      </trkpt>
      <trkpt lat="45.10693" lon="5.55904">
        <ele>1077.2</ele>
        <time>2021-10-10T10:08:47Z</time>
      </trkpt>
      <trkpt lat="45.10694" lon="5.55904">
        <ele>1077.2</ele>
        <time>2021-10-10T10:08:48Z</time>
      </trkpt>
      <trkpt lat="45.10695" lon="5.55904">
        <ele>1077.6</ele>
        <time>2021-10-10T10:08:49Z</time>
      </trkpt>
      <trkpt lat="45.10697" lon="5.55904">
        <ele>1077.8</ele>
        <time>2021-10-10T10:08:50Z</time>
      </trkpt>
      <trkpt lat="45.10698" lon="5.55905">
        <ele>1077.8</ele>
        <time>2021-10-10T10:08:51Z</time>
      </trkpt>
      <trkpt lat="45.10699" lon="5.55905">
        <ele>1077.8</ele>
        <time>2021-10-10T10:08:52Z</time>
      </trkpt>
      <trkpt lat="45.107" lon="5.55905">
        <ele>1077.8</ele>
        <time>2021-10-10T10:08:53Z</time>
      </trkpt>
      <trkpt lat="45.10701" lon="5.55906">
        <ele>1078.2</ele>
        <time>2021-10-10T10:08:54Z</time>
      </trkpt>
      <trkpt lat="45.10702" lon="5.55907">
        <ele>1078.2</ele>
        <time>2021-10-10T10:08:55Z</time>
      </trkpt>
      <trkpt lat="45.10703" lon="5.55907">
        <ele>1078.2</ele>
        <time>2021-10-10T10:08:56Z</time>
      </trkpt>
      <trkpt lat="45.10705" lon="5.55908">
        <ele>1079</ele>
        <time>2021-10-10T10:08:57Z</time>
      </trkpt>
      <trkpt lat="45.10705" lon="5.55909">
        <ele>1079</ele>
        <time>2021-10-10T10:08:58Z</time>
      </trkpt>
      <trkpt lat="45.10707" lon="5.55909">
        <ele>1079</ele>
        <time>2021-10-10T10:08:59Z</time>
      </trkpt>
      <trkpt lat="45.10708" lon="5.55909">
        <ele>1079</ele>
        <time>2021-10-10T10:09:00Z</time>
      </trkpt>
      <trkpt lat="45.10709" lon="5.55908">
        <ele>1079</ele>
        <time>2021-10-10T10:09:01Z</time>
      </trkpt>
      <trkpt lat="45.1071" lon="5.55908">
        <ele>1079.4</ele>
        <time>2021-10-10T10:09:02Z</time>
      </trkpt>
      <trkpt lat="45.10711" lon="5.55908">
        <ele>1079.4</ele>
        <time>2021-10-10T10:09:03Z</time>
      </trkpt>
      <trkpt lat="45.10713" lon="5.55907">
        <ele>1079.4</ele>
        <time>2021-10-10T10:09:04Z</time>
      </trkpt>
      <trkpt lat="45.10714" lon="5.55907">
        <ele>1079.4</ele>
        <time>2021-10-10T10:09:05Z</time>
      </trkpt>
      <trkpt lat="45.10715" lon="5.55907">
        <ele>1079.8</ele>
        <time>2021-10-10T10:09:06Z</time>
      </trkpt>
      <trkpt lat="45.10716" lon="5.55908">
        <ele>1079.8</ele>
        <time>2021-10-10T10:09:07Z</time>
      </trkpt>
      <trkpt lat="45.10716" lon="5.55908">
        <ele>1079.8</ele>
        <time>2021-10-10T10:09:08Z</time>
      </trkpt>
      <trkpt lat="45.10717" lon="5.55908">
        <ele>1080.2</ele>
        <time>2021-10-10T10:09:09Z</time>
      </trkpt>
      <trkpt lat="45.10718" lon="5.55908">
        <ele>1080.8</ele>
        <time>2021-10-10T10:09:10Z</time>
      </trkpt>
      <trkpt lat="45.10719" lon="5.55908">
        <ele>1080.8</ele>
        <time>2021-10-10T10:09:11Z</time>
      </trkpt>
      <trkpt lat="45.1072" lon="5.55908">
        <ele>1080.8</ele>
        <time>2021-10-10T10:09:12Z</time>
      </trkpt>
      <trkpt lat="45.10722" lon="5.55908">
        <ele>1080.8</ele>
        <time>2021-10-10T10:09:13Z</time>
      </trkpt>
      <trkpt lat="45.10723" lon="5.55908">
        <ele>1081.4</ele>
        <time>2021-10-10T10:09:14Z</time>
      </trkpt>
      <trkpt lat="45.10724" lon="5.55907">
        <ele>1081.4</ele>
        <time>2021-10-10T10:09:15Z</time>
      </trkpt>
      <trkpt lat="45.10726" lon="5.55906">
        <ele>1081.4</ele>
        <time>2021-10-10T10:09:16Z</time>
      </trkpt>
      <trkpt lat="45.10727" lon="5.55906">
        <ele>1081.4</ele>
        <time>2021-10-10T10:09:17Z</time>
      </trkpt>
      <trkpt lat="45.10728" lon="5.55907">
        <ele>1081.8</ele>
        <time>2021-10-10T10:09:18Z</time>
      </trkpt>
      <trkpt lat="45.10729" lon="5.55906">
        <ele>1081.8</ele>
        <time>2021-10-10T10:09:19Z</time>
      </trkpt>
      <trkpt lat="45.10731" lon="5.55906">
        <ele>1081.8</ele>
        <time>2021-10-10T10:09:20Z</time>
      </trkpt>
      <trkpt lat="45.10732" lon="5.55906">
        <ele>1081.8</ele>
        <time>2021-10-10T10:09:21Z</time>
      </trkpt>
      <trkpt lat="45.10733" lon="5.55906">
        <ele>1082.2</ele>
        <time>2021-10-10T10:09:22Z</time>
      </trkpt>
      <trkpt lat="45.10734" lon="5.55906">
        <ele>1082.2</ele>
        <time>2021-10-10T10:09:23Z</time>
      </trkpt>
      <trkpt lat="45.10735" lon="5.55907">
        <ele>1082.2</ele>
        <time>2021-10-10T10:09:24Z</time>
      </trkpt>
      <trkpt lat="45.10736" lon="5.55907">
        <ele>1083</ele>
        <time>2021-10-10T10:09:25Z</time>
      </trkpt>
      <trkpt lat="45.10737" lon="5.55907">
        <ele>1082.8</ele>
        <time>2021-10-10T10:09:26Z</time>
      </trkpt>
      <trkpt lat="45.10739" lon="5.55906">
        <ele>1082.8</ele>
        <time>2021-10-10T10:09:27Z</time>
      </trkpt>
      <trkpt lat="45.1074" lon="5.55905">
        <ele>1082.8</ele>
        <time>2021-10-10T10:09:28Z</time>
      </trkpt>
      <trkpt lat="45.10741" lon="5.55905">
        <ele>1082.8</ele>
        <time>2021-10-10T10:09:29Z</time>
      </trkpt>
      <trkpt lat="45.10743" lon="5.55905">
        <ele>1082.8</ele>
        <time>2021-10-10T10:09:30Z</time>
      </trkpt>
      <trkpt lat="45.10744" lon="5.55905">
        <ele>1082.8</ele>
        <time>2021-10-10T10:09:31Z</time>
      </trkpt>
      <trkpt lat="45.10745" lon="5.55905">
        <ele>1082.8</ele>
        <time>2021-10-10T10:09:32Z</time>
      </trkpt>
      <trkpt lat="45.10747" lon="5.55904">
        <ele>1083.8</ele>
        <time>2021-10-10T10:09:33Z</time>
      </trkpt>
      <trkpt lat="45.10749" lon="5.55904">
        <ele>1083.6</ele>
        <time>2021-10-10T10:09:34Z</time>
      </trkpt>
      <trkpt lat="45.1075" lon="5.55905">
        <ele>1083.6</ele>
        <time>2021-10-10T10:09:35Z</time>
      </trkpt>
      <trkpt lat="45.10752" lon="5.55904">
        <ele>1083.6</ele>
        <time>2021-10-10T10:09:36Z</time>
      </trkpt>
      <trkpt lat="45.10753" lon="5.55904">
        <ele>1083.6</ele>
        <time>2021-10-10T10:09:37Z</time>
      </trkpt>
      <trkpt lat="45.10755" lon="5.55904">
        <ele>1084</ele>
        <time>2021-10-10T10:09:38Z</time>
      </trkpt>
      <trkpt lat="45.10756" lon="5.55904">
        <ele>1084</ele>
        <time>2021-10-10T10:09:39Z</time>
      </trkpt>
      <trkpt lat="45.10758" lon="5.55904">
        <ele>1084</ele>
        <time>2021-10-10T10:09:40Z</time>
      </trkpt>
      <trkpt lat="45.10759" lon="5.55905">
        <ele>1084</ele>
        <time>2021-10-10T10:09:41Z</time>
      </trkpt>
      <trkpt lat="45.1076" lon="5.55904">
        <ele>1084.8</ele>
        <time>2021-10-10T10:09:42Z</time>
      </trkpt>
      <trkpt lat="45.10762" lon="5.55904">
        <ele>1084.8</ele>
        <time>2021-10-10T10:09:43Z</time>
      </trkpt>
      <trkpt lat="45.10763" lon="5.55905">
        <ele>1084.8</ele>
        <time>2021-10-10T10:09:44Z</time>
      </trkpt>
      <trkpt lat="45.10765" lon="5.55905">
        <ele>1084.8</ele>
        <time>2021-10-10T10:09:45Z</time>
      </trkpt>
      <trkpt lat="45.10766" lon="5.55905">
        <ele>1084.2</ele>
        <time>2021-10-10T10:09:46Z</time>
      </trkpt>
      <trkpt lat="45.10768" lon="5.55904">
        <ele>1084.2</ele>
        <time>2021-10-10T10:09:47Z</time>
      </trkpt>
      <trkpt lat="45.10769" lon="5.55904">
        <ele>1084.2</ele>
        <time>2021-10-10T10:09:48Z</time>
      </trkpt>
      <trkpt lat="45.10771" lon="5.55904">
        <ele>1085.2</ele>
        <time>2021-10-10T10:09:49Z</time>
      </trkpt>
      <trkpt lat="45.10773" lon="5.55904">
        <ele>1086</ele>
        <time>2021-10-10T10:09:50Z</time>
      </trkpt>
      <trkpt lat="45.10774" lon="5.55904">
        <ele>1086</ele>
        <time>2021-10-10T10:09:51Z</time>
      </trkpt>
      <trkpt lat="45.10775" lon="5.55904">
        <ele>1086</ele>
        <time>2021-10-10T10:09:52Z</time>
      </trkpt>
      <trkpt lat="45.10776" lon="5.55904">
        <ele>1086</ele>
        <time>2021-10-10T10:09:53Z</time>
      </trkpt>
      <trkpt lat="45.10778" lon="5.55903">
        <ele>1086.4</ele>
        <time>2021-10-10T10:09:54Z</time>
      </trkpt>
      <trkpt lat="45.10779" lon="5.55903">
        <ele>1086.4</ele>
        <time>2021-10-10T10:09:55Z</time>
      </trkpt>
      <trkpt lat="45.1078" lon="5.55903">
        <ele>1086.4</ele>
        <time>2021-10-10T10:09:56Z</time>
      </trkpt>
      <trkpt lat="45.10781" lon="5.55903">
        <ele>1086.4</ele>
        <time>2021-10-10T10:09:57Z</time>
      </trkpt>
      <trkpt lat="45.10783" lon="5.55902">
        <ele>1086.8</ele>
        <time>2021-10-10T10:09:58Z</time>
      </trkpt>
      <trkpt lat="45.10785" lon="5.55902">
        <ele>1086.8</ele>
        <time>2021-10-10T10:09:59Z</time>
      </trkpt>
      <trkpt lat="45.10786" lon="5.55902">
        <ele>1086.8</ele>
        <time>2021-10-10T10:10:00Z</time>
      </trkpt>
      <trkpt lat="45.10788" lon="5.55902">
        <ele>1086.8</ele>
        <time>2021-10-10T10:10:01Z</time>
      </trkpt>
      <trkpt lat="45.10789" lon="5.55901">
        <ele>1087.4</ele>
        <time>2021-10-10T10:10:02Z</time>
      </trkpt>
      <trkpt lat="45.10791" lon="5.55901">
        <ele>1087.4</ele>
        <time>2021-10-10T10:10:03Z</time>
      </trkpt>
      <trkpt lat="45.10792" lon="5.55901">
        <ele>1087.4</ele>
        <time>2021-10-10T10:10:04Z</time>
      </trkpt>
      <trkpt lat="45.10794" lon="5.55901">
        <ele>1087.4</ele>
        <time>2021-10-10T10:10:05Z</time>
      </trkpt>
      <trkpt lat="45.10795" lon="5.55901">
        <ele>1087.2</ele>
        <time>2021-10-10T10:10:06Z</time>
      </trkpt>
      <trkpt lat="45.10797" lon="5.559">
        <ele>1087.2</ele>
        <time>2021-10-10T10:10:07Z</time>
      </trkpt>
      <trkpt lat="45.10799" lon="5.55899">
        <ele>1087.2</ele>
        <time>2021-10-10T10:10:08Z</time>
      </trkpt>
      <trkpt lat="45.10801" lon="5.55898">
        <ele>1087.6</ele>
        <time>2021-10-10T10:10:09Z</time>
      </trkpt>
      <trkpt lat="45.10802" lon="5.55898">
        <ele>1087.6</ele>
        <time>2021-10-10T10:10:10Z</time>
      </trkpt>
      <trkpt lat="45.10804" lon="5.55898">
        <ele>1087.6</ele>
        <time>2021-10-10T10:10:11Z</time>
      </trkpt>
      <trkpt lat="45.10804" lon="5.55898">
        <ele>1087.6</ele>
        <time>2021-10-10T10:10:12Z</time>
      </trkpt>
      <trkpt lat="45.10806" lon="5.55897">
        <ele>1088.4</ele>
        <time>2021-10-10T10:10:13Z</time>
      </trkpt>
      <trkpt lat="45.10807" lon="5.55898">
        <ele>1088.2</ele>
        <time>2021-10-10T10:10:14Z</time>
      </trkpt>
      <trkpt lat="45.10808" lon="5.55897">
        <ele>1088.2</ele>
        <time>2021-10-10T10:10:15Z</time>
      </trkpt>
      <trkpt lat="45.1081" lon="5.55897">
        <ele>1088.2</ele>
        <time>2021-10-10T10:10:16Z</time>
      </trkpt>
      <trkpt lat="45.10812" lon="5.55896">
        <ele>1088.2</ele>
        <time>2021-10-10T10:10:17Z</time>
      </trkpt>
      <trkpt lat="45.10813" lon="5.55895">
        <ele>1088</ele>
        <time>2021-10-10T10:10:18Z</time>
      </trkpt>
      <trkpt lat="45.10815" lon="5.55894">
        <ele>1088</ele>
        <time>2021-10-10T10:10:19Z</time>
      </trkpt>
      <trkpt lat="45.10816" lon="5.55894">
        <ele>1088</ele>
        <time>2021-10-10T10:10:20Z</time>
      </trkpt>
      <trkpt lat="45.10818" lon="5.55893">
        <ele>1088</ele>
        <time>2021-10-10T10:10:21Z</time>
      </trkpt>
      <trkpt lat="45.1082" lon="5.55893">
        <ele>1087.8</ele>
        <time>2021-10-10T10:10:22Z</time>
      </trkpt>
      <trkpt lat="45.10822" lon="5.55893">
        <ele>1087.8</ele>
        <time>2021-10-10T10:10:23Z</time>
      </trkpt>
      <trkpt lat="45.10823" lon="5.55893">
        <ele>1087.8</ele>
        <time>2021-10-10T10:10:24Z</time>
      </trkpt>
      <trkpt lat="45.10824" lon="5.55893">
        <ele>1088.2</ele>
        <time>2021-10-10T10:10:25Z</time>
      </trkpt>
      <trkpt lat="45.10826" lon="5.55893">
        <ele>1088.2</ele>
        <time>2021-10-10T10:10:26Z</time>
      </trkpt>
      <trkpt lat="45.10828" lon="5.55892">
        <ele>1088.2</ele>
        <time>2021-10-10T10:10:27Z</time>
      </trkpt>
      <trkpt lat="45.1083" lon="5.55892">
        <ele>1088.2</ele>
        <time>2021-10-10T10:10:28Z</time>
      </trkpt>
      <trkpt lat="45.10832" lon="5.55891">
        <ele>1088.2</ele>
        <time>2021-10-10T10:10:29Z</time>
      </trkpt>
      <trkpt lat="45.10834" lon="5.5589">
        <ele>1087.6</ele>
        <time>2021-10-10T10:10:30Z</time>
      </trkpt>
      <trkpt lat="45.10835" lon="5.5589">
        <ele>1087.6</ele>
        <time>2021-10-10T10:10:31Z</time>
      </trkpt>
      <trkpt lat="45.10836" lon="5.55889">
        <ele>1087.6</ele>
        <time>2021-10-10T10:10:32Z</time>
      </trkpt>
      <trkpt lat="45.10839" lon="5.55888">
        <ele>1087.6</ele>
        <time>2021-10-10T10:10:33Z</time>
      </trkpt>
      <trkpt lat="45.10841" lon="5.55886">
        <ele>1087.4</ele>
        <time>2021-10-10T10:10:34Z</time>
      </trkpt>
      <trkpt lat="45.10843" lon="5.55886">
        <ele>1087.4</ele>
        <time>2021-10-10T10:10:35Z</time>
      </trkpt>
      <trkpt lat="45.10845" lon="5.55885">
        <ele>1087.4</ele>
        <time>2021-10-10T10:10:36Z</time>
      </trkpt>
      <trkpt lat="45.10847" lon="5.55885">
        <ele>1087.4</ele>
        <time>2021-10-10T10:10:37Z</time>
      </trkpt>
      <trkpt lat="45.1085" lon="5.55885">
        <ele>1087.4</ele>
        <time>2021-10-10T10:10:38Z</time>
      </trkpt>
      <trkpt lat="45.10852" lon="5.55884">
        <ele>1087.4</ele>
        <time>2021-10-10T10:10:39Z</time>
      </trkpt>
      <trkpt lat="45.10853" lon="5.55883">
        <ele>1087.4</ele>
        <time>2021-10-10T10:10:40Z</time>
      </trkpt>
      <trkpt lat="45.10855" lon="5.55882">
        <ele>1088.2</ele>
        <time>2021-10-10T10:10:41Z</time>
      </trkpt>
      <trkpt lat="45.10857" lon="5.55882">
        <ele>1088.6</ele>
        <time>2021-10-10T10:10:42Z</time>
      </trkpt>
      <trkpt lat="45.10858" lon="5.55881">
        <ele>1088.6</ele>
        <time>2021-10-10T10:10:43Z</time>
      </trkpt>
      <trkpt lat="45.1086" lon="5.55881">
        <ele>1088.6</ele>
        <time>2021-10-10T10:10:44Z</time>
      </trkpt>
      <trkpt lat="45.10862" lon="5.55881">
        <ele>1088.6</ele>
        <time>2021-10-10T10:10:45Z</time>
      </trkpt>
      <trkpt lat="45.10863" lon="5.55882">
        <ele>1088.6</ele>
        <time>2021-10-10T10:10:46Z</time>
      </trkpt>
      <trkpt lat="45.10865" lon="5.55882">
        <ele>1088.6</ele>
        <time>2021-10-10T10:10:47Z</time>
      </trkpt>
      <trkpt lat="45.10866" lon="5.55883">
        <ele>1088.6</ele>
        <time>2021-10-10T10:10:48Z</time>
      </trkpt>
      <trkpt lat="45.10867" lon="5.55883">
        <ele>1089.6</ele>
        <time>2021-10-10T10:10:49Z</time>
      </trkpt>
      <trkpt lat="45.10868" lon="5.55884">
        <ele>1089.4</ele>
        <time>2021-10-10T10:10:50Z</time>
      </trkpt>
      <trkpt lat="45.10869" lon="5.55885">
        <ele>1089.4</ele>
        <time>2021-10-10T10:10:51Z</time>
      </trkpt>
      <trkpt lat="45.10871" lon="5.55886">
        <ele>1089.4</ele>
        <time>2021-10-10T10:10:52Z</time>
      </trkpt>
      <trkpt lat="45.10873" lon="5.55887">
        <ele>1090.2</ele>
        <time>2021-10-10T10:10:53Z</time>
      </trkpt>
      <trkpt lat="45.10874" lon="5.55888">
        <ele>1090.4</ele>
        <time>2021-10-10T10:10:54Z</time>
      </trkpt>
      <trkpt lat="45.10876" lon="5.55889">
        <ele>1090.4</ele>
        <time>2021-10-10T10:10:55Z</time>
      </trkpt>
      <trkpt lat="45.10878" lon="5.55889">
        <ele>1090.4</ele>
        <time>2021-10-10T10:10:56Z</time>
      </trkpt>
      <trkpt lat="45.10879" lon="5.5589">
        <ele>1090.4</ele>
        <time>2021-10-10T10:10:57Z</time>
      </trkpt>
      <trkpt lat="45.1088" lon="5.55891">
        <ele>1091.2</ele>
        <time>2021-10-10T10:10:58Z</time>
      </trkpt>
      <trkpt lat="45.10882" lon="5.55892">
        <ele>1091.2</ele>
        <time>2021-10-10T10:10:59Z</time>
      </trkpt>
      <trkpt lat="45.10884" lon="5.55892">
        <ele>1091.2</ele>
        <time>2021-10-10T10:11:00Z</time>
      </trkpt>
      <trkpt lat="45.10885" lon="5.55893">
        <ele>1091.2</ele>
        <time>2021-10-10T10:11:01Z</time>
      </trkpt>
      <trkpt lat="45.10887" lon="5.55894">
        <ele>1092</ele>
        <time>2021-10-10T10:11:02Z</time>
      </trkpt>
      <trkpt lat="45.10888" lon="5.55895">
        <ele>1092</ele>
        <time>2021-10-10T10:11:03Z</time>
      </trkpt>
      <trkpt lat="45.1089" lon="5.55896">
        <ele>1092</ele>
        <time>2021-10-10T10:11:04Z</time>
      </trkpt>
      <trkpt lat="45.10891" lon="5.55896">
        <ele>1092</ele>
        <time>2021-10-10T10:11:05Z</time>
      </trkpt>
      <trkpt lat="45.10892" lon="5.55896">
        <ele>1092.2</ele>
        <time>2021-10-10T10:11:06Z</time>
      </trkpt>
      <trkpt lat="45.10893" lon="5.55897">
        <ele>1092.2</ele>
        <time>2021-10-10T10:11:07Z</time>
      </trkpt>
      <trkpt lat="45.10894" lon="5.55899">
        <ele>1092.2</ele>
        <time>2021-10-10T10:11:08Z</time>
      </trkpt>
      <trkpt lat="45.10895" lon="5.559">
        <ele>1092.8</ele>
        <time>2021-10-10T10:11:09Z</time>
      </trkpt>
      <trkpt lat="45.10896" lon="5.559">
        <ele>1093.6</ele>
        <time>2021-10-10T10:11:10Z</time>
      </trkpt>
      <trkpt lat="45.10897" lon="5.55901">
        <ele>1093.6</ele>
        <time>2021-10-10T10:11:11Z</time>
      </trkpt>
      <trkpt lat="45.10899" lon="5.55902">
        <ele>1093.6</ele>
        <time>2021-10-10T10:11:12Z</time>
      </trkpt>
      <trkpt lat="45.109" lon="5.55902">
        <ele>1093.6</ele>
        <time>2021-10-10T10:11:13Z</time>
      </trkpt>
      <trkpt lat="45.10901" lon="5.55903">
        <ele>1094.2</ele>
        <time>2021-10-10T10:11:14Z</time>
      </trkpt>
      <trkpt lat="45.10902" lon="5.55903">
        <ele>1094.2</ele>
        <time>2021-10-10T10:11:15Z</time>
      </trkpt>
      <trkpt lat="45.10903" lon="5.55904">
        <ele>1094.2</ele>
        <time>2021-10-10T10:11:16Z</time>
      </trkpt>
      <trkpt lat="45.10904" lon="5.55905">
        <ele>1094.2</ele>
        <time>2021-10-10T10:11:17Z</time>
      </trkpt>
      <trkpt lat="45.10905" lon="5.55907">
        <ele>1094.4</ele>
        <time>2021-10-10T10:11:18Z</time>
      </trkpt>
      <trkpt lat="45.10906" lon="5.55908">
        <ele>1094.4</ele>
        <time>2021-10-10T10:11:19Z</time>
      </trkpt>
      <trkpt lat="45.10907" lon="5.55909">
        <ele>1094.4</ele>
        <time>2021-10-10T10:11:20Z</time>
      </trkpt>
      <trkpt lat="45.10907" lon="5.5591">
        <ele>1095.2</ele>
        <time>2021-10-10T10:11:21Z</time>
      </trkpt>
      <trkpt lat="45.10908" lon="5.55911">
        <ele>1095</ele>
        <time>2021-10-10T10:11:22Z</time>
      </trkpt>
      <trkpt lat="45.10909" lon="5.55911">
        <ele>1095</ele>
        <time>2021-10-10T10:11:23Z</time>
      </trkpt>
      <trkpt lat="45.1091" lon="5.55912">
        <ele>1095</ele>
        <time>2021-10-10T10:11:24Z</time>
      </trkpt>
      <trkpt lat="45.10911" lon="5.55913">
        <ele>1095.6</ele>
        <time>2021-10-10T10:11:25Z</time>
      </trkpt>
      <trkpt lat="45.10912" lon="5.55914">
        <ele>1095.6</ele>
        <time>2021-10-10T10:11:26Z</time>
      </trkpt>
      <trkpt lat="45.10913" lon="5.55915">
        <ele>1095.6</ele>
        <time>2021-10-10T10:11:27Z</time>
      </trkpt>
      <trkpt lat="45.10913" lon="5.55917">
        <ele>1095.6</ele>
        <time>2021-10-10T10:11:28Z</time>
      </trkpt>
      <trkpt lat="45.10914" lon="5.55918">
        <ele>1095.6</ele>
        <time>2021-10-10T10:11:29Z</time>
      </trkpt>
      <trkpt lat="45.10914" lon="5.55919">
        <ele>1096.4</ele>
        <time>2021-10-10T10:11:30Z</time>
      </trkpt>
      <trkpt lat="45.10915" lon="5.55921">
        <ele>1096.4</ele>
        <time>2021-10-10T10:11:31Z</time>
      </trkpt>
      <trkpt lat="45.10916" lon="5.55923">
        <ele>1096.4</ele>
        <time>2021-10-10T10:11:32Z</time>
      </trkpt>
      <trkpt lat="45.10917" lon="5.55925">
        <ele>1096.4</ele>
        <time>2021-10-10T10:11:33Z</time>
      </trkpt>
      <trkpt lat="45.10918" lon="5.55926">
        <ele>1096.4</ele>
        <time>2021-10-10T10:11:34Z</time>
      </trkpt>
      <trkpt lat="45.10919" lon="5.55926">
        <ele>1096.4</ele>
        <time>2021-10-10T10:11:35Z</time>
      </trkpt>
      <trkpt lat="45.1092" lon="5.55928">
        <ele>1096.4</ele>
        <time>2021-10-10T10:11:36Z</time>
      </trkpt>
      <trkpt lat="45.10922" lon="5.55929">
        <ele>1097.2</ele>
        <time>2021-10-10T10:11:37Z</time>
      </trkpt>
      <trkpt lat="45.10923" lon="5.5593">
        <ele>1097</ele>
        <time>2021-10-10T10:11:38Z</time>
      </trkpt>
      <trkpt lat="45.10925" lon="5.55931">
        <ele>1097</ele>
        <time>2021-10-10T10:11:39Z</time>
      </trkpt>
      <trkpt lat="45.10926" lon="5.55932">
        <ele>1097</ele>
        <time>2021-10-10T10:11:40Z</time>
      </trkpt>
      <trkpt lat="45.10927" lon="5.55933">
        <ele>1097.6</ele>
        <time>2021-10-10T10:11:41Z</time>
      </trkpt>
      <trkpt lat="45.10928" lon="5.55935">
        <ele>1097.8</ele>
        <time>2021-10-10T10:11:42Z</time>
      </trkpt>
      <trkpt lat="45.10929" lon="5.55935">
        <ele>1097.8</ele>
        <time>2021-10-10T10:11:43Z</time>
      </trkpt>
      <trkpt lat="45.1093" lon="5.55936">
        <ele>1097.8</ele>
        <time>2021-10-10T10:11:44Z</time>
      </trkpt>
      <trkpt lat="45.1093" lon="5.55937">
        <ele>1097.8</ele>
        <time>2021-10-10T10:11:45Z</time>
      </trkpt>
      <trkpt lat="45.10932" lon="5.55937">
        <ele>1098</ele>
        <time>2021-10-10T10:11:46Z</time>
      </trkpt>
      <trkpt lat="45.10933" lon="5.55938">
        <ele>1098</ele>
        <time>2021-10-10T10:11:47Z</time>
      </trkpt>
      <trkpt lat="45.10933" lon="5.55938">
        <ele>1098</ele>
        <time>2021-10-10T10:11:48Z</time>
      </trkpt>
      <trkpt lat="45.10934" lon="5.55938">
        <ele>1098</ele>
        <time>2021-10-10T10:11:49Z</time>
      </trkpt>
      <trkpt lat="45.10935" lon="5.55939">
        <ele>1098.4</ele>
        <time>2021-10-10T10:11:50Z</time>
      </trkpt>
      <trkpt lat="45.10937" lon="5.55939">
        <ele>1098.4</ele>
        <time>2021-10-10T10:11:51Z</time>
      </trkpt>
      <trkpt lat="45.10938" lon="5.5594">
        <ele>1098.4</ele>
        <time>2021-10-10T10:11:52Z</time>
      </trkpt>
      <trkpt lat="45.10939" lon="5.5594">
        <ele>1099.2</ele>
        <time>2021-10-10T10:11:53Z</time>
      </trkpt>
      <trkpt lat="45.1094" lon="5.55941">
        <ele>1099.2</ele>
        <time>2021-10-10T10:11:54Z</time>
      </trkpt>
      <trkpt lat="45.10942" lon="5.55941">
        <ele>1099.2</ele>
        <time>2021-10-10T10:11:55Z</time>
      </trkpt>
      <trkpt lat="45.10943" lon="5.55941">
        <ele>1099.2</ele>
        <time>2021-10-10T10:11:56Z</time>
      </trkpt>
      <trkpt lat="45.10944" lon="5.55942">
        <ele>1099.8</ele>
        <time>2021-10-10T10:11:57Z</time>
      </trkpt>
      <trkpt lat="45.10945" lon="5.55942">
        <ele>1099.8</ele>
        <time>2021-10-10T10:11:58Z</time>
      </trkpt>
      <trkpt lat="45.10946" lon="5.55943">
        <ele>1099.8</ele>
        <time>2021-10-10T10:11:59Z</time>
      </trkpt>
      <trkpt lat="45.10947" lon="5.55943">
        <ele>1099.8</ele>
        <time>2021-10-10T10:12:00Z</time>
      </trkpt>
      <trkpt lat="45.10949" lon="5.55943">
        <ele>1100.8</ele>
        <time>2021-10-10T10:12:01Z</time>
      </trkpt>
      <trkpt lat="45.1095" lon="5.55944">
        <ele>1101.2</ele>
        <time>2021-10-10T10:12:02Z</time>
      </trkpt>
      <trkpt lat="45.10951" lon="5.55944">
        <ele>1101.2</ele>
        <time>2021-10-10T10:12:03Z</time>
      </trkpt>
      <trkpt lat="45.10952" lon="5.55944">
        <ele>1101.2</ele>
        <time>2021-10-10T10:12:04Z</time>
      </trkpt>
      <trkpt lat="45.10953" lon="5.55945">
        <ele>1101.2</ele>
        <time>2021-10-10T10:12:05Z</time>
      </trkpt>
      <trkpt lat="45.10954" lon="5.55945">
        <ele>1101.6</ele>
        <time>2021-10-10T10:12:06Z</time>
      </trkpt>
      <trkpt lat="45.10955" lon="5.55945">
        <ele>1101.6</ele>
        <time>2021-10-10T10:12:07Z</time>
      </trkpt>
      <trkpt lat="45.10956" lon="5.55945">
        <ele>1101.6</ele>
        <time>2021-10-10T10:12:08Z</time>
      </trkpt>
      <trkpt lat="45.10958" lon="5.55945">
        <ele>1101.6</ele>
        <time>2021-10-10T10:12:09Z</time>
      </trkpt>
      <trkpt lat="45.10959" lon="5.55946">
        <ele>1102.2</ele>
        <time>2021-10-10T10:12:10Z</time>
      </trkpt>
      <trkpt lat="45.1096" lon="5.55946">
        <ele>1102.2</ele>
        <time>2021-10-10T10:12:11Z</time>
      </trkpt>
      <trkpt lat="45.10961" lon="5.55947">
        <ele>1102.2</ele>
        <time>2021-10-10T10:12:12Z</time>
      </trkpt>
      <trkpt lat="45.10962" lon="5.55947">
        <ele>1102.2</ele>
        <time>2021-10-10T10:12:13Z</time>
      </trkpt>
      <trkpt lat="45.10963" lon="5.55948">
        <ele>1102.4</ele>
        <time>2021-10-10T10:12:14Z</time>
      </trkpt>
      <trkpt lat="45.10964" lon="5.55948">
        <ele>1102.4</ele>
        <time>2021-10-10T10:12:15Z</time>
      </trkpt>
      <trkpt lat="45.10965" lon="5.55949">
        <ele>1102.4</ele>
        <time>2021-10-10T10:12:16Z</time>
      </trkpt>
      <trkpt lat="45.10967" lon="5.55951">
        <ele>1103</ele>
        <time>2021-10-10T10:12:17Z</time>
      </trkpt>
      <trkpt lat="45.10968" lon="5.55951">
        <ele>1103.2</ele>
        <time>2021-10-10T10:12:18Z</time>
      </trkpt>
      <trkpt lat="45.10969" lon="5.55951">
        <ele>1103.2</ele>
        <time>2021-10-10T10:12:19Z</time>
      </trkpt>
      <trkpt lat="45.1097" lon="5.55951">
        <ele>1103.2</ele>
        <time>2021-10-10T10:12:20Z</time>
      </trkpt>
      <trkpt lat="45.10971" lon="5.55951">
        <ele>1103.2</ele>
        <time>2021-10-10T10:12:21Z</time>
      </trkpt>
      <trkpt lat="45.10973" lon="5.55951">
        <ele>1103.4</ele>
        <time>2021-10-10T10:12:22Z</time>
      </trkpt>
      <trkpt lat="45.10974" lon="5.55952">
        <ele>1103.4</ele>
        <time>2021-10-10T10:12:23Z</time>
      </trkpt>
      <trkpt lat="45.10975" lon="5.55951">
        <ele>1103.4</ele>
        <time>2021-10-10T10:12:24Z</time>
      </trkpt>
      <trkpt lat="45.10976" lon="5.55952">
        <ele>1104</ele>
        <time>2021-10-10T10:12:25Z</time>
      </trkpt>
      <trkpt lat="45.10977" lon="5.55952">
        <ele>1104.8</ele>
        <time>2021-10-10T10:12:26Z</time>
      </trkpt>
      <trkpt lat="45.10978" lon="5.55951">
        <ele>1104.8</ele>
        <time>2021-10-10T10:12:27Z</time>
      </trkpt>
      <trkpt lat="45.10979" lon="5.55951">
        <ele>1104.8</ele>
        <time>2021-10-10T10:12:28Z</time>
      </trkpt>
      <trkpt lat="45.10979" lon="5.55951">
        <ele>1104.8</ele>
        <time>2021-10-10T10:12:29Z</time>
      </trkpt>
      <trkpt lat="45.1098" lon="5.5595">
        <ele>1105.6</ele>
        <time>2021-10-10T10:12:30Z</time>
      </trkpt>
      <trkpt lat="45.10981" lon="5.55951">
        <ele>1105.6</ele>
        <time>2021-10-10T10:12:31Z</time>
      </trkpt>
      <trkpt lat="45.10982" lon="5.55951">
        <ele>1105.6</ele>
        <time>2021-10-10T10:12:32Z</time>
      </trkpt>
      <trkpt lat="45.10983" lon="5.55951">
        <ele>1105.6</ele>
        <time>2021-10-10T10:12:33Z</time>
      </trkpt>
      <trkpt lat="45.10984" lon="5.55952">
        <ele>1105.6</ele>
        <time>2021-10-10T10:12:34Z</time>
      </trkpt>
      <trkpt lat="45.10986" lon="5.55952">
        <ele>1105.6</ele>
        <time>2021-10-10T10:12:35Z</time>
      </trkpt>
      <trkpt lat="45.10987" lon="5.55952">
        <ele>1105.6</ele>
        <time>2021-10-10T10:12:36Z</time>
      </trkpt>
      <trkpt lat="45.10987" lon="5.55953">
        <ele>1106</ele>
        <time>2021-10-10T10:12:37Z</time>
      </trkpt>
      <trkpt lat="45.10989" lon="5.55953">
        <ele>1106.4</ele>
        <time>2021-10-10T10:12:38Z</time>
      </trkpt>
      <trkpt lat="45.1099" lon="5.55953">
        <ele>1106.4</ele>
        <time>2021-10-10T10:12:39Z</time>
      </trkpt>
      <trkpt lat="45.1099" lon="5.55953">
        <ele>1106.4</ele>
        <time>2021-10-10T10:12:40Z</time>
      </trkpt>
      <trkpt lat="45.10991" lon="5.55954">
        <ele>1107</ele>
        <time>2021-10-10T10:12:41Z</time>
      </trkpt>
      <trkpt lat="45.10992" lon="5.55955">
        <ele>1107</ele>
        <time>2021-10-10T10:12:42Z</time>
      </trkpt>
      <trkpt lat="45.10993" lon="5.55955">
        <ele>1107</ele>
        <time>2021-10-10T10:12:43Z</time>
      </trkpt>
      <trkpt lat="45.10994" lon="5.55954">
        <ele>1107</ele>
        <time>2021-10-10T10:12:44Z</time>
      </trkpt>
      <trkpt lat="45.10996" lon="5.55954">
        <ele>1107</ele>
        <time>2021-10-10T10:12:45Z</time>
      </trkpt>
      <trkpt lat="45.10997" lon="5.55955">
        <ele>1107.2</ele>
        <time>2021-10-10T10:12:46Z</time>
      </trkpt>
      <trkpt lat="45.10998" lon="5.55955">
        <ele>1107.2</ele>
        <time>2021-10-10T10:12:47Z</time>
      </trkpt>
      <trkpt lat="45.10999" lon="5.55955">
        <ele>1107.2</ele>
        <time>2021-10-10T10:12:48Z</time>
      </trkpt>
      <trkpt lat="45.11001" lon="5.55955">
        <ele>1107.8</ele>
        <time>2021-10-10T10:12:49Z</time>
      </trkpt>
      <trkpt lat="45.11002" lon="5.55956">
        <ele>1107.8</ele>
        <time>2021-10-10T10:12:50Z</time>
      </trkpt>
      <trkpt lat="45.11003" lon="5.55956">
        <ele>1107.8</ele>
        <time>2021-10-10T10:12:51Z</time>
      </trkpt>
      <trkpt lat="45.11004" lon="5.55957">
        <ele>1107.8</ele>
        <time>2021-10-10T10:12:52Z</time>
      </trkpt>
      <trkpt lat="45.11005" lon="5.55958">
        <ele>1107.8</ele>
        <time>2021-10-10T10:12:53Z</time>
      </trkpt>
      <trkpt lat="45.11007" lon="5.55958">
        <ele>1108.2</ele>
        <time>2021-10-10T10:12:54Z</time>
      </trkpt>
      <trkpt lat="45.11008" lon="5.55959">
        <ele>1108.2</ele>
        <time>2021-10-10T10:12:55Z</time>
      </trkpt>
      <trkpt lat="45.11009" lon="5.5596">
        <ele>1108.2</ele>
        <time>2021-10-10T10:12:56Z</time>
      </trkpt>
      <trkpt lat="45.1101" lon="5.5596">
        <ele>1108.2</ele>
        <time>2021-10-10T10:12:57Z</time>
      </trkpt>
      <trkpt lat="45.11011" lon="5.55961">
        <ele>1108.4</ele>
        <time>2021-10-10T10:12:58Z</time>
      </trkpt>
      <trkpt lat="45.11012" lon="5.55962">
        <ele>1108.4</ele>
        <time>2021-10-10T10:12:59Z</time>
      </trkpt>
      <trkpt lat="45.11013" lon="5.55964">
        <ele>1108.4</ele>
        <time>2021-10-10T10:13:00Z</time>
      </trkpt>
      <trkpt lat="45.11014" lon="5.55964">
        <ele>1109.2</ele>
        <time>2021-10-10T10:13:01Z</time>
      </trkpt>
      <trkpt lat="45.11015" lon="5.55965">
        <ele>1108.8</ele>
        <time>2021-10-10T10:13:02Z</time>
      </trkpt>
      <trkpt lat="45.11015" lon="5.55965">
        <ele>1108.8</ele>
        <time>2021-10-10T10:13:03Z</time>
      </trkpt>
      <trkpt lat="45.11016" lon="5.55965">
        <ele>1108.8</ele>
        <time>2021-10-10T10:13:04Z</time>
      </trkpt>
      <trkpt lat="45.11017" lon="5.55964">
        <ele>1109.6</ele>
        <time>2021-10-10T10:13:05Z</time>
      </trkpt>
      <trkpt lat="45.11018" lon="5.55965">
        <ele>1110</ele>
        <time>2021-10-10T10:13:06Z</time>
      </trkpt>
      <trkpt lat="45.11019" lon="5.55965">
        <ele>1110</ele>
        <time>2021-10-10T10:13:07Z</time>
      </trkpt>
      <trkpt lat="45.1102" lon="5.55965">
        <ele>1110</ele>
        <time>2021-10-10T10:13:08Z</time>
      </trkpt>
      <trkpt lat="45.11022" lon="5.55965">
        <ele>1110</ele>
        <time>2021-10-10T10:13:09Z</time>
      </trkpt>
      <trkpt lat="45.11023" lon="5.55966">
        <ele>1110</ele>
        <time>2021-10-10T10:13:10Z</time>
      </trkpt>
      <trkpt lat="45.11024" lon="5.55966">
        <ele>1110</ele>
        <time>2021-10-10T10:13:11Z</time>
      </trkpt>
      <trkpt lat="45.11026" lon="5.55967">
        <ele>1110</ele>
        <time>2021-10-10T10:13:12Z</time>
      </trkpt>
      <trkpt lat="45.11026" lon="5.55967">
        <ele>1110.6</ele>
        <time>2021-10-10T10:13:13Z</time>
      </trkpt>
      <trkpt lat="45.11028" lon="5.55968">
        <ele>1110.8</ele>
        <time>2021-10-10T10:13:14Z</time>
      </trkpt>
      <trkpt lat="45.11029" lon="5.55968">
        <ele>1110.8</ele>
        <time>2021-10-10T10:13:15Z</time>
      </trkpt>
      <trkpt lat="45.1103" lon="5.55969">
        <ele>1110.8</ele>
        <time>2021-10-10T10:13:16Z</time>
      </trkpt>
      <trkpt lat="45.11031" lon="5.55969">
        <ele>1110.8</ele>
        <time>2021-10-10T10:13:17Z</time>
      </trkpt>
      <trkpt lat="45.11033" lon="5.55969">
        <ele>1111.2</ele>
        <time>2021-10-10T10:13:18Z</time>
      </trkpt>
      <trkpt lat="45.11034" lon="5.5597">
        <ele>1111.2</ele>
        <time>2021-10-10T10:13:19Z</time>
      </trkpt>
      <trkpt lat="45.11035" lon="5.5597">
        <ele>1111.2</ele>
        <time>2021-10-10T10:13:20Z</time>
      </trkpt>
      <trkpt lat="45.11036" lon="5.55972">
        <ele>1111.8</ele>
        <time>2021-10-10T10:13:21Z</time>
      </trkpt>
      <trkpt lat="45.11037" lon="5.55973">
        <ele>1112.2</ele>
        <time>2021-10-10T10:13:22Z</time>
      </trkpt>
      <trkpt lat="45.11038" lon="5.55973">
        <ele>1112.2</ele>
        <time>2021-10-10T10:13:23Z</time>
      </trkpt>
      <trkpt lat="45.11039" lon="5.55973">
        <ele>1112.2</ele>
        <time>2021-10-10T10:13:24Z</time>
      </trkpt>
      <trkpt lat="45.11041" lon="5.55973">
        <ele>1112.2</ele>
        <time>2021-10-10T10:13:25Z</time>
      </trkpt>
      <trkpt lat="45.11042" lon="5.55974">
        <ele>1112.2</ele>
        <time>2021-10-10T10:13:26Z</time>
      </trkpt>
      <trkpt lat="45.11043" lon="5.55974">
        <ele>1112.2</ele>
        <time>2021-10-10T10:13:27Z</time>
      </trkpt>
      <trkpt lat="45.11044" lon="5.55975">
        <ele>1112.2</ele>
        <time>2021-10-10T10:13:28Z</time>
      </trkpt>
      <trkpt lat="45.11045" lon="5.55976">
        <ele>1112.8</ele>
        <time>2021-10-10T10:13:29Z</time>
      </trkpt>
      <trkpt lat="45.11047" lon="5.55976">
        <ele>1112.6</ele>
        <time>2021-10-10T10:13:30Z</time>
      </trkpt>
      <trkpt lat="45.11048" lon="5.55977">
        <ele>1112.6</ele>
        <time>2021-10-10T10:13:31Z</time>
      </trkpt>
      <trkpt lat="45.1105" lon="5.55978">
        <ele>1112.6</ele>
        <time>2021-10-10T10:13:32Z</time>
      </trkpt>
      <trkpt lat="45.11051" lon="5.55979">
        <ele>1113.4</ele>
        <time>2021-10-10T10:13:33Z</time>
      </trkpt>
      <trkpt lat="45.11053" lon="5.55979">
        <ele>1113.4</ele>
        <time>2021-10-10T10:13:34Z</time>
      </trkpt>
      <trkpt lat="45.11054" lon="5.5598">
        <ele>1113.4</ele>
        <time>2021-10-10T10:13:35Z</time>
      </trkpt>
      <trkpt lat="45.11056" lon="5.5598">
        <ele>1113.4</ele>
        <time>2021-10-10T10:13:36Z</time>
      </trkpt>
      <trkpt lat="45.11057" lon="5.55981">
        <ele>1114</ele>
        <time>2021-10-10T10:13:37Z</time>
      </trkpt>
      <trkpt lat="45.11058" lon="5.55981">
        <ele>1114.2</ele>
        <time>2021-10-10T10:13:38Z</time>
      </trkpt>
      <trkpt lat="45.11059" lon="5.55982">
        <ele>1114.2</ele>
        <time>2021-10-10T10:13:39Z</time>
      </trkpt>
      <trkpt lat="45.11061" lon="5.55982">
        <ele>1114.2</ele>
        <time>2021-10-10T10:13:40Z</time>
      </trkpt>
      <trkpt lat="45.11062" lon="5.55982">
        <ele>1114.2</ele>
        <time>2021-10-10T10:13:41Z</time>
      </trkpt>
      <trkpt lat="45.11064" lon="5.55983">
        <ele>1114.2</ele>
        <time>2021-10-10T10:13:42Z</time>
      </trkpt>
      <trkpt lat="45.11065" lon="5.55983">
        <ele>1114.2</ele>
        <time>2021-10-10T10:13:43Z</time>
      </trkpt>
      <trkpt lat="45.11067" lon="5.55983">
        <ele>1114.2</ele>
        <time>2021-10-10T10:13:44Z</time>
      </trkpt>
      <trkpt lat="45.11068" lon="5.55984">
        <ele>1115</ele>
        <time>2021-10-10T10:13:45Z</time>
      </trkpt>
      <trkpt lat="45.11069" lon="5.55985">
        <ele>1115</ele>
        <time>2021-10-10T10:13:46Z</time>
      </trkpt>
      <trkpt lat="45.1107" lon="5.55986">
        <ele>1115</ele>
        <time>2021-10-10T10:13:47Z</time>
      </trkpt>
      <trkpt lat="45.11071" lon="5.55987">
        <ele>1115</ele>
        <time>2021-10-10T10:13:48Z</time>
      </trkpt>
      <trkpt lat="45.11073" lon="5.55987">
        <ele>1115</ele>
        <time>2021-10-10T10:13:49Z</time>
      </trkpt>
      <trkpt lat="45.11074" lon="5.55988">
        <ele>1115.2</ele>
        <time>2021-10-10T10:13:50Z</time>
      </trkpt>
      <trkpt lat="45.11075" lon="5.55988">
        <ele>1115.2</ele>
        <time>2021-10-10T10:13:51Z</time>
      </trkpt>
      <trkpt lat="45.11076" lon="5.55989">
        <ele>1115.2</ele>
        <time>2021-10-10T10:13:52Z</time>
      </trkpt>
      <trkpt lat="45.11077" lon="5.55989">
        <ele>1115.8</ele>
        <time>2021-10-10T10:13:53Z</time>
      </trkpt>
      <trkpt lat="45.11078" lon="5.5599">
        <ele>1115.6</ele>
        <time>2021-10-10T10:13:54Z</time>
      </trkpt>
      <trkpt lat="45.11079" lon="5.55992">
        <ele>1115.6</ele>
        <time>2021-10-10T10:13:55Z</time>
      </trkpt>
      <trkpt lat="45.1108" lon="5.55992">
        <ele>1115.6</ele>
        <time>2021-10-10T10:13:56Z</time>
      </trkpt>
      <trkpt lat="45.11082" lon="5.55993">
        <ele>1115.6</ele>
        <time>2021-10-10T10:13:57Z</time>
      </trkpt>
      <trkpt lat="45.11084" lon="5.55993">
        <ele>1116</ele>
        <time>2021-10-10T10:13:58Z</time>
      </trkpt>
      <trkpt lat="45.11084" lon="5.55993">
        <ele>1116</ele>
        <time>2021-10-10T10:13:59Z</time>
      </trkpt>
      <trkpt lat="45.11086" lon="5.55994">
        <ele>1116</ele>
        <time>2021-10-10T10:14:00Z</time>
      </trkpt>
      <trkpt lat="45.11087" lon="5.55994">
        <ele>1116.2</ele>
        <time>2021-10-10T10:14:01Z</time>
      </trkpt>
      <trkpt lat="45.11088" lon="5.55995">
        <ele>1116.2</ele>
        <time>2021-10-10T10:14:02Z</time>
      </trkpt>
      <trkpt lat="45.11089" lon="5.55996">
        <ele>1116.2</ele>
        <time>2021-10-10T10:14:03Z</time>
      </trkpt>
      <trkpt lat="45.1109" lon="5.55996">
        <ele>1116.2</ele>
        <time>2021-10-10T10:14:04Z</time>
      </trkpt>
      <trkpt lat="45.11091" lon="5.55997">
        <ele>1116.6</ele>
        <time>2021-10-10T10:14:05Z</time>
      </trkpt>
      <trkpt lat="45.11093" lon="5.55998">
        <ele>1116.6</ele>
        <time>2021-10-10T10:14:06Z</time>
      </trkpt>
      <trkpt lat="45.11094" lon="5.55998">
        <ele>1116.6</ele>
        <time>2021-10-10T10:14:07Z</time>
      </trkpt>
      <trkpt lat="45.11096" lon="5.55998">
        <ele>1116.6</ele>
        <time>2021-10-10T10:14:08Z</time>
      </trkpt>
      <trkpt lat="45.11097" lon="5.55999">
        <ele>1117.2</ele>
        <time>2021-10-10T10:14:09Z</time>
      </trkpt>
      <trkpt lat="45.11098" lon="5.55999">
        <ele>1117</ele>
        <time>2021-10-10T10:14:10Z</time>
      </trkpt>
      <trkpt lat="45.11099" lon="5.56">
        <ele>1117</ele>
        <time>2021-10-10T10:14:11Z</time>
      </trkpt>
      <trkpt lat="45.111" lon="5.56001">
        <ele>1117</ele>
        <time>2021-10-10T10:14:12Z</time>
      </trkpt>
      <trkpt lat="45.11102" lon="5.56002">
        <ele>1117.6</ele>
        <time>2021-10-10T10:14:13Z</time>
      </trkpt>
      <trkpt lat="45.11103" lon="5.56002">
        <ele>1117.8</ele>
        <time>2021-10-10T10:14:14Z</time>
      </trkpt>
      <trkpt lat="45.11105" lon="5.56003">
        <ele>1117.8</ele>
        <time>2021-10-10T10:14:15Z</time>
      </trkpt>
      <trkpt lat="45.11106" lon="5.56003">
        <ele>1117.8</ele>
        <time>2021-10-10T10:14:16Z</time>
      </trkpt>
      <trkpt lat="45.11108" lon="5.56004">
        <ele>1118</ele>
        <time>2021-10-10T10:14:17Z</time>
      </trkpt>
      <trkpt lat="45.11109" lon="5.56005">
        <ele>1117.8</ele>
        <time>2021-10-10T10:14:18Z</time>
      </trkpt>
      <trkpt lat="45.1111" lon="5.56006">
        <ele>1117.8</ele>
        <time>2021-10-10T10:14:19Z</time>
      </trkpt>
      <trkpt lat="45.11111" lon="5.56006">
        <ele>1117.8</ele>
        <time>2021-10-10T10:14:20Z</time>
      </trkpt>
      <trkpt lat="45.11112" lon="5.56006">
        <ele>1118.2</ele>
        <time>2021-10-10T10:14:21Z</time>
      </trkpt>
      <trkpt lat="45.11114" lon="5.56007">
        <ele>1118.6</ele>
        <time>2021-10-10T10:14:22Z</time>
      </trkpt>
      <trkpt lat="45.11115" lon="5.56007">
        <ele>1118.6</ele>
        <time>2021-10-10T10:14:23Z</time>
      </trkpt>
      <trkpt lat="45.11116" lon="5.56008">
        <ele>1118.6</ele>
        <time>2021-10-10T10:14:24Z</time>
      </trkpt>
      <trkpt lat="45.11117" lon="5.56009">
        <ele>1118.8</ele>
        <time>2021-10-10T10:14:25Z</time>
      </trkpt>
      <trkpt lat="45.11117" lon="5.56009">
        <ele>1118.6</ele>
        <time>2021-10-10T10:14:26Z</time>
      </trkpt>
      <trkpt lat="45.11118" lon="5.5601">
        <ele>1118.6</ele>
        <time>2021-10-10T10:14:27Z</time>
      </trkpt>
      <trkpt lat="45.11119" lon="5.56011">
        <ele>1118.6</ele>
        <time>2021-10-10T10:14:28Z</time>
      </trkpt>
      <trkpt lat="45.11121" lon="5.56012">
        <ele>1119.2</ele>
        <time>2021-10-10T10:14:29Z</time>
      </trkpt>
      <trkpt lat="45.11123" lon="5.56012">
        <ele>1119.2</ele>
        <time>2021-10-10T10:14:30Z</time>
      </trkpt>
      <trkpt lat="45.11124" lon="5.56013">
        <ele>1119.2</ele>
        <time>2021-10-10T10:14:31Z</time>
      </trkpt>
      <trkpt lat="45.11125" lon="5.56013">
        <ele>1119.2</ele>
        <time>2021-10-10T10:14:32Z</time>
      </trkpt>
      <trkpt lat="45.11127" lon="5.56014">
        <ele>1119.2</ele>
        <time>2021-10-10T10:14:33Z</time>
      </trkpt>
      <trkpt lat="45.11128" lon="5.56014">
        <ele>1119.2</ele>
        <time>2021-10-10T10:14:34Z</time>
      </trkpt>
      <trkpt lat="45.11129" lon="5.56013">
        <ele>1119.6</ele>
        <time>2021-10-10T10:14:35Z</time>
      </trkpt>
      <trkpt lat="45.11131" lon="5.56014">
        <ele>1119.6</ele>
        <time>2021-10-10T10:14:36Z</time>
      </trkpt>
      <trkpt lat="45.11132" lon="5.56015">
        <ele>1120</ele>
        <time>2021-10-10T10:14:37Z</time>
      </trkpt>
      <trkpt lat="45.11133" lon="5.56015">
        <ele>1120</ele>
        <time>2021-10-10T10:14:38Z</time>
      </trkpt>
      <trkpt lat="45.11135" lon="5.56016">
        <ele>1120</ele>
        <time>2021-10-10T10:14:39Z</time>
      </trkpt>
      <trkpt lat="45.11137" lon="5.56016">
        <ele>1120</ele>
        <time>2021-10-10T10:14:40Z</time>
      </trkpt>
      <trkpt lat="45.11138" lon="5.56017">
        <ele>1120</ele>
        <time>2021-10-10T10:14:41Z</time>
      </trkpt>
      <trkpt lat="45.11139" lon="5.56018">
        <ele>1120.4</ele>
        <time>2021-10-10T10:14:42Z</time>
      </trkpt>
      <trkpt lat="45.11141" lon="5.56019">
        <ele>1120.4</ele>
        <time>2021-10-10T10:14:43Z</time>
      </trkpt>
      <trkpt lat="45.11142" lon="5.5602">
        <ele>1120.4</ele>
        <time>2021-10-10T10:14:44Z</time>
      </trkpt>
      <trkpt lat="45.11144" lon="5.5602">
        <ele>1120.4</ele>
        <time>2021-10-10T10:14:45Z</time>
      </trkpt>
      <trkpt lat="45.11145" lon="5.5602">
        <ele>1120.2</ele>
        <time>2021-10-10T10:14:46Z</time>
      </trkpt>
      <trkpt lat="45.11146" lon="5.56021">
        <ele>1120.2</ele>
        <time>2021-10-10T10:14:47Z</time>
      </trkpt>
      <trkpt lat="45.11147" lon="5.56022">
        <ele>1120.2</ele>
        <time>2021-10-10T10:14:48Z</time>
      </trkpt>
      <trkpt lat="45.11149" lon="5.56023">
        <ele>1120.8</ele>
        <time>2021-10-10T10:14:49Z</time>
      </trkpt>
      <trkpt lat="45.11151" lon="5.56023">
        <ele>1120.6</ele>
        <time>2021-10-10T10:14:50Z</time>
      </trkpt>
      <trkpt lat="45.11152" lon="5.56023">
        <ele>1120.6</ele>
        <time>2021-10-10T10:14:51Z</time>
      </trkpt>
      <trkpt lat="45.11154" lon="5.56024">
        <ele>1120.6</ele>
        <time>2021-10-10T10:14:52Z</time>
      </trkpt>
      <trkpt lat="45.11156" lon="5.56025">
        <ele>1120.6</ele>
        <time>2021-10-10T10:14:53Z</time>
      </trkpt>
      <trkpt lat="45.11157" lon="5.56026">
        <ele>1121</ele>
        <time>2021-10-10T10:14:54Z</time>
      </trkpt>
      <trkpt lat="45.11159" lon="5.56026">
        <ele>1121</ele>
        <time>2021-10-10T10:14:55Z</time>
      </trkpt>
      <trkpt lat="45.11161" lon="5.56027">
        <ele>1121</ele>
        <time>2021-10-10T10:14:56Z</time>
      </trkpt>
      <trkpt lat="45.11162" lon="5.56027">
        <ele>1121</ele>
        <time>2021-10-10T10:14:57Z</time>
      </trkpt>
      <trkpt lat="45.11164" lon="5.56027">
        <ele>1121.2</ele>
        <time>2021-10-10T10:14:58Z</time>
      </trkpt>
      <trkpt lat="45.11166" lon="5.56027">
        <ele>1121.2</ele>
        <time>2021-10-10T10:14:59Z</time>
      </trkpt>
      <trkpt lat="45.11167" lon="5.56027">
        <ele>1121.2</ele>
        <time>2021-10-10T10:15:00Z</time>
      </trkpt>
      <trkpt lat="45.11169" lon="5.56028">
        <ele>1121.2</ele>
        <time>2021-10-10T10:15:01Z</time>
      </trkpt>
      <trkpt lat="45.1117" lon="5.56028">
        <ele>1121.6</ele>
        <time>2021-10-10T10:15:02Z</time>
      </trkpt>
      <trkpt lat="45.11172" lon="5.56028">
        <ele>1121.6</ele>
        <time>2021-10-10T10:15:03Z</time>
      </trkpt>
      <trkpt lat="45.11173" lon="5.56028">
        <ele>1121.6</ele>
        <time>2021-10-10T10:15:04Z</time>
      </trkpt>
      <trkpt lat="45.11175" lon="5.56028">
        <ele>1121.2</ele>
        <time>2021-10-10T10:15:05Z</time>
      </trkpt>
      <trkpt lat="45.11177" lon="5.56028">
        <ele>1121.2</ele>
        <time>2021-10-10T10:15:06Z</time>
      </trkpt>
      <trkpt lat="45.11178" lon="5.56028">
        <ele>1121.2</ele>
        <time>2021-10-10T10:15:07Z</time>
      </trkpt>
      <trkpt lat="45.1118" lon="5.56028">
        <ele>1121.2</ele>
        <time>2021-10-10T10:15:08Z</time>
      </trkpt>
      <trkpt lat="45.11182" lon="5.56028">
        <ele>1121.2</ele>
        <time>2021-10-10T10:15:09Z</time>
      </trkpt>
      <trkpt lat="45.11184" lon="5.56028">
        <ele>1121.6</ele>
        <time>2021-10-10T10:15:10Z</time>
      </trkpt>
      <trkpt lat="45.11186" lon="5.56029">
        <ele>1121.6</ele>
        <time>2021-10-10T10:15:11Z</time>
      </trkpt>
      <trkpt lat="45.11188" lon="5.56029">
        <ele>1121.6</ele>
        <time>2021-10-10T10:15:12Z</time>
      </trkpt>
      <trkpt lat="45.11189" lon="5.5603">
        <ele>1121.6</ele>
        <time>2021-10-10T10:15:13Z</time>
      </trkpt>
      <trkpt lat="45.11191" lon="5.5603">
        <ele>1121.6</ele>
        <time>2021-10-10T10:15:14Z</time>
      </trkpt>
      <trkpt lat="45.11192" lon="5.5603">
        <ele>1121.6</ele>
        <time>2021-10-10T10:15:15Z</time>
      </trkpt>
      <trkpt lat="45.11193" lon="5.5603">
        <ele>1121.6</ele>
        <time>2021-10-10T10:15:16Z</time>
      </trkpt>
      <trkpt lat="45.11195" lon="5.5603">
        <ele>1121.6</ele>
        <time>2021-10-10T10:15:17Z</time>
      </trkpt>
      <trkpt lat="45.11196" lon="5.5603">
        <ele>1121.4</ele>
        <time>2021-10-10T10:15:18Z</time>
      </trkpt>
      <trkpt lat="45.11198" lon="5.56031">
        <ele>1121.4</ele>
        <time>2021-10-10T10:15:19Z</time>
      </trkpt>
      <trkpt lat="45.11199" lon="5.56031">
        <ele>1121.4</ele>
        <time>2021-10-10T10:15:20Z</time>
      </trkpt>
      <trkpt lat="45.112" lon="5.56031">
        <ele>1121.6</ele>
        <time>2021-10-10T10:15:21Z</time>
      </trkpt>
      <trkpt lat="45.11202" lon="5.56031">
        <ele>1121.6</ele>
        <time>2021-10-10T10:15:22Z</time>
      </trkpt>
      <trkpt lat="45.11204" lon="5.5603">
        <ele>1121.6</ele>
        <time>2021-10-10T10:15:23Z</time>
      </trkpt>
      <trkpt lat="45.11205" lon="5.56029">
        <ele>1121.6</ele>
        <time>2021-10-10T10:15:24Z</time>
      </trkpt>
      <trkpt lat="45.11207" lon="5.56029">
        <ele>1121.6</ele>
        <time>2021-10-10T10:15:25Z</time>
      </trkpt>
      <trkpt lat="45.11208" lon="5.56029">
        <ele>1121.6</ele>
        <time>2021-10-10T10:15:26Z</time>
      </trkpt>
      <trkpt lat="45.1121" lon="5.5603">
        <ele>1121.6</ele>
        <time>2021-10-10T10:15:27Z</time>
      </trkpt>
      <trkpt lat="45.11212" lon="5.56029">
        <ele>1121.6</ele>
        <time>2021-10-10T10:15:28Z</time>
      </trkpt>
      <trkpt lat="45.11213" lon="5.5603">
        <ele>1121.6</ele>
        <time>2021-10-10T10:15:29Z</time>
      </trkpt>
      <trkpt lat="45.11214" lon="5.5603">
        <ele>1121.8</ele>
        <time>2021-10-10T10:15:30Z</time>
      </trkpt>
      <trkpt lat="45.11215" lon="5.56031">
        <ele>1121.8</ele>
        <time>2021-10-10T10:15:31Z</time>
      </trkpt>
      <trkpt lat="45.11216" lon="5.5603">
        <ele>1121.8</ele>
        <time>2021-10-10T10:15:32Z</time>
      </trkpt>
      <trkpt lat="45.11217" lon="5.5603">
        <ele>1121.2</ele>
        <time>2021-10-10T10:15:33Z</time>
      </trkpt>
      <trkpt lat="45.11219" lon="5.56029">
        <ele>1121.4</ele>
        <time>2021-10-10T10:15:34Z</time>
      </trkpt>
      <trkpt lat="45.11221" lon="5.56029">
        <ele>1121.4</ele>
        <time>2021-10-10T10:15:35Z</time>
      </trkpt>
      <trkpt lat="45.11222" lon="5.56028">
        <ele>1121.4</ele>
        <time>2021-10-10T10:15:36Z</time>
      </trkpt>
      <trkpt lat="45.11224" lon="5.56027">
        <ele>1121.4</ele>
        <time>2021-10-10T10:15:37Z</time>
      </trkpt>
      <trkpt lat="45.11225" lon="5.56027">
        <ele>1121.6</ele>
        <time>2021-10-10T10:15:38Z</time>
      </trkpt>
      <trkpt lat="45.11226" lon="5.56026">
        <ele>1121.6</ele>
        <time>2021-10-10T10:15:39Z</time>
      </trkpt>
      <trkpt lat="45.11227" lon="5.56025">
        <ele>1121.6</ele>
        <time>2021-10-10T10:15:40Z</time>
      </trkpt>
      <trkpt lat="45.11228" lon="5.56024">
        <ele>1121.2</ele>
        <time>2021-10-10T10:15:41Z</time>
      </trkpt>
      <trkpt lat="45.1123" lon="5.56023">
        <ele>1120.8</ele>
        <time>2021-10-10T10:15:42Z</time>
      </trkpt>
      <trkpt lat="45.11231" lon="5.56022">
        <ele>1120.8</ele>
        <time>2021-10-10T10:15:43Z</time>
      </trkpt>
      <trkpt lat="45.11232" lon="5.5602">
        <ele>1120.8</ele>
        <time>2021-10-10T10:15:44Z</time>
      </trkpt>
      <trkpt lat="45.11233" lon="5.56019">
        <ele>1120.8</ele>
        <time>2021-10-10T10:15:45Z</time>
      </trkpt>
      <trkpt lat="45.11234" lon="5.56018">
        <ele>1120.2</ele>
        <time>2021-10-10T10:15:46Z</time>
      </trkpt>
      <trkpt lat="45.11239" lon="5.56011">
        <ele>1119.4</ele>
        <time>2021-10-10T10:15:59Z</time>
      </trkpt>
      <trkpt lat="45.1124" lon="5.56009">
        <ele>1119.4</ele>
        <time>2021-10-10T10:16:00Z</time>
      </trkpt>
      <trkpt lat="45.11241" lon="5.56008">
        <ele>1118.4</ele>
        <time>2021-10-10T10:16:01Z</time>
      </trkpt>
      <trkpt lat="45.11243" lon="5.56007">
        <ele>1118.6</ele>
        <time>2021-10-10T10:16:02Z</time>
      </trkpt>
      <trkpt lat="45.11245" lon="5.56006">
        <ele>1118.6</ele>
        <time>2021-10-10T10:16:03Z</time>
      </trkpt>
      <trkpt lat="45.11247" lon="5.56006">
        <ele>1118.6</ele>
        <time>2021-10-10T10:16:04Z</time>
      </trkpt>
      <trkpt lat="45.1125" lon="5.56005">
        <ele>1117.6</ele>
        <time>2021-10-10T10:16:05Z</time>
      </trkpt>
      <trkpt lat="45.11252" lon="5.56004">
        <ele>1117.2</ele>
        <time>2021-10-10T10:16:06Z</time>
      </trkpt>
      <trkpt lat="45.11255" lon="5.56004">
        <ele>1117.2</ele>
        <time>2021-10-10T10:16:07Z</time>
      </trkpt>
      <trkpt lat="45.11257" lon="5.56004">
        <ele>1117.2</ele>
        <time>2021-10-10T10:16:08Z</time>
      </trkpt>
      <trkpt lat="45.1126" lon="5.56003">
        <ele>1117.2</ele>
        <time>2021-10-10T10:16:09Z</time>
      </trkpt>
      <trkpt lat="45.11264" lon="5.56002">
        <ele>1115</ele>
        <time>2021-10-10T10:16:10Z</time>
      </trkpt>
      <trkpt lat="45.11267" lon="5.56001">
        <ele>1115</ele>
        <time>2021-10-10T10:16:11Z</time>
      </trkpt>
      <trkpt lat="45.11269" lon="5.56">
        <ele>1115</ele>
        <time>2021-10-10T10:16:12Z</time>
      </trkpt>
      <trkpt lat="45.11272" lon="5.55999">
        <ele>1115</ele>
        <time>2021-10-10T10:16:13Z</time>
      </trkpt>
      <trkpt lat="45.11274" lon="5.55998">
        <ele>1114.2</ele>
        <time>2021-10-10T10:16:14Z</time>
      </trkpt>
      <trkpt lat="45.11276" lon="5.55999">
        <ele>1114.2</ele>
        <time>2021-10-10T10:16:15Z</time>
      </trkpt>
      <trkpt lat="45.11279" lon="5.55998">
        <ele>1114.2</ele>
        <time>2021-10-10T10:16:16Z</time>
      </trkpt>
      <trkpt lat="45.11281" lon="5.55998">
        <ele>1113.2</ele>
        <time>2021-10-10T10:16:17Z</time>
      </trkpt>
      <trkpt lat="45.11284" lon="5.55998">
        <ele>1113.4</ele>
        <time>2021-10-10T10:16:18Z</time>
      </trkpt>
      <trkpt lat="45.11287" lon="5.55999">
        <ele>1113.4</ele>
        <time>2021-10-10T10:16:19Z</time>
      </trkpt>
      <trkpt lat="45.11289" lon="5.56">
        <ele>1113.4</ele>
        <time>2021-10-10T10:16:20Z</time>
      </trkpt>
      <trkpt lat="45.11292" lon="5.56">
        <ele>1112.4</ele>
        <time>2021-10-10T10:16:21Z</time>
      </trkpt>
      <trkpt lat="45.11294" lon="5.56">
        <ele>1110.2</ele>
        <time>2021-10-10T10:16:22Z</time>
      </trkpt>
      <trkpt lat="45.11296" lon="5.56002">
        <ele>1110.2</ele>
        <time>2021-10-10T10:16:23Z</time>
      </trkpt>
      <trkpt lat="45.11299" lon="5.56005">
        <ele>1110.2</ele>
        <time>2021-10-10T10:16:24Z</time>
      </trkpt>
      <trkpt lat="45.11303" lon="5.56008">
        <ele>1110.2</ele>
        <time>2021-10-10T10:16:25Z</time>
      </trkpt>
      <trkpt lat="45.11306" lon="5.5601">
        <ele>1111.6</ele>
        <time>2021-10-10T10:16:26Z</time>
      </trkpt>
      <trkpt lat="45.11309" lon="5.56011">
        <ele>1111.6</ele>
        <time>2021-10-10T10:16:27Z</time>
      </trkpt>
      <trkpt lat="45.11311" lon="5.56013">
        <ele>1111.6</ele>
        <time>2021-10-10T10:16:28Z</time>
      </trkpt>
      <trkpt lat="45.11312" lon="5.56014">
        <ele>1111.6</ele>
        <time>2021-10-10T10:16:29Z</time>
      </trkpt>
      <trkpt lat="45.11313" lon="5.56015">
        <ele>1111.8</ele>
        <time>2021-10-10T10:16:30Z</time>
      </trkpt>
      <trkpt lat="45.11315" lon="5.56016">
        <ele>1111.8</ele>
        <time>2021-10-10T10:16:31Z</time>
      </trkpt>
      <trkpt lat="45.11316" lon="5.56017">
        <ele>1111.8</ele>
        <time>2021-10-10T10:16:32Z</time>
      </trkpt>
      <trkpt lat="45.11318" lon="5.56018">
        <ele>1112.6</ele>
        <time>2021-10-10T10:16:33Z</time>
      </trkpt>
      <trkpt lat="45.1132" lon="5.56019">
        <ele>1112.6</ele>
        <time>2021-10-10T10:16:34Z</time>
      </trkpt>
      <trkpt lat="45.11323" lon="5.5602">
        <ele>1112.6</ele>
        <time>2021-10-10T10:16:35Z</time>
      </trkpt>
      <trkpt lat="45.11324" lon="5.56021">
        <ele>1112.6</ele>
        <time>2021-10-10T10:16:36Z</time>
      </trkpt>
      <trkpt lat="45.11326" lon="5.56022">
        <ele>1113.2</ele>
        <time>2021-10-10T10:16:37Z</time>
      </trkpt>
      <trkpt lat="45.11327" lon="5.56023">
        <ele>1113</ele>
        <time>2021-10-10T10:16:38Z</time>
      </trkpt>
      <trkpt lat="45.11328" lon="5.56024">
        <ele>1113</ele>
        <time>2021-10-10T10:16:39Z</time>
      </trkpt>
      <trkpt lat="45.11329" lon="5.56025">
        <ele>1113</ele>
        <time>2021-10-10T10:16:40Z</time>
      </trkpt>
      <trkpt lat="45.1133" lon="5.56026">
        <ele>1113</ele>
        <time>2021-10-10T10:16:41Z</time>
      </trkpt>
      <trkpt lat="45.11331" lon="5.56027">
        <ele>1113.4</ele>
        <time>2021-10-10T10:16:42Z</time>
      </trkpt>
      <trkpt lat="45.11331" lon="5.56029">
        <ele>1113.4</ele>
        <time>2021-10-10T10:16:43Z</time>
      </trkpt>
      <trkpt lat="45.11336" lon="5.56029">
        <ele>1113.6</ele>
        <time>2021-10-10T10:16:52Z</time>
      </trkpt>
      <trkpt lat="45.11337" lon="5.56028">
        <ele>1113.6</ele>
        <time>2021-10-10T10:16:53Z</time>
      </trkpt>
      <trkpt lat="45.11339" lon="5.56028">
        <ele>1113.8</ele>
        <time>2021-10-10T10:16:54Z</time>
      </trkpt>
      <trkpt lat="45.11341" lon="5.56028">
        <ele>1113.8</ele>
        <time>2021-10-10T10:16:55Z</time>
      </trkpt>
      <trkpt lat="45.11342" lon="5.56029">
        <ele>1113.8</ele>
        <time>2021-10-10T10:16:56Z</time>
      </trkpt>
      <trkpt lat="45.11344" lon="5.56029">
        <ele>1113.8</ele>
        <time>2021-10-10T10:16:57Z</time>
      </trkpt>
      <trkpt lat="45.11345" lon="5.5603">
        <ele>1114.4</ele>
        <time>2021-10-10T10:16:58Z</time>
      </trkpt>
      <trkpt lat="45.11347" lon="5.56031">
        <ele>1114.4</ele>
        <time>2021-10-10T10:16:59Z</time>
      </trkpt>
      <trkpt lat="45.11348" lon="5.56032">
        <ele>1114.4</ele>
        <time>2021-10-10T10:17:00Z</time>
      </trkpt>
      <trkpt lat="45.1135" lon="5.56032">
        <ele>1114.4</ele>
        <time>2021-10-10T10:17:01Z</time>
      </trkpt>
      <trkpt lat="45.11351" lon="5.56033">
        <ele>1114.8</ele>
        <time>2021-10-10T10:17:02Z</time>
      </trkpt>
      <trkpt lat="45.11352" lon="5.56034">
        <ele>1114.8</ele>
        <time>2021-10-10T10:17:03Z</time>
      </trkpt>
      <trkpt lat="45.11353" lon="5.56034">
        <ele>1114.8</ele>
        <time>2021-10-10T10:17:04Z</time>
      </trkpt>
      <trkpt lat="45.11354" lon="5.56034">
        <ele>1115.6</ele>
        <time>2021-10-10T10:17:05Z</time>
      </trkpt>
      <trkpt lat="45.11356" lon="5.56035">
        <ele>1115.6</ele>
        <time>2021-10-10T10:17:06Z</time>
      </trkpt>
      <trkpt lat="45.11357" lon="5.56035">
        <ele>1115.6</ele>
        <time>2021-10-10T10:17:07Z</time>
      </trkpt>
      <trkpt lat="45.11358" lon="5.56036">
        <ele>1115.6</ele>
        <time>2021-10-10T10:17:08Z</time>
      </trkpt>
      <trkpt lat="45.11359" lon="5.56037">
        <ele>1115.6</ele>
        <time>2021-10-10T10:17:09Z</time>
      </trkpt>
      <trkpt lat="45.11361" lon="5.56037">
        <ele>1116</ele>
        <time>2021-10-10T10:17:10Z</time>
      </trkpt>
      <trkpt lat="45.11362" lon="5.56038">
        <ele>1116</ele>
        <time>2021-10-10T10:17:11Z</time>
      </trkpt>
      <trkpt lat="45.11363" lon="5.56038">
        <ele>1116</ele>
        <time>2021-10-10T10:17:12Z</time>
      </trkpt>
      <trkpt lat="45.11364" lon="5.56038">
        <ele>1116.2</ele>
        <time>2021-10-10T10:17:13Z</time>
      </trkpt>
      <trkpt lat="45.11365" lon="5.56038">
        <ele>1116.2</ele>
        <time>2021-10-10T10:17:14Z</time>
      </trkpt>
      <trkpt lat="45.11367" lon="5.56037">
        <ele>1116.2</ele>
        <time>2021-10-10T10:17:15Z</time>
      </trkpt>
      <trkpt lat="45.11369" lon="5.56038">
        <ele>1116.2</ele>
        <time>2021-10-10T10:17:16Z</time>
      </trkpt>
      <trkpt lat="45.1137" lon="5.56038">
        <ele>1116.8</ele>
        <time>2021-10-10T10:17:17Z</time>
      </trkpt>
      <trkpt lat="45.11371" lon="5.56038">
        <ele>1116.8</ele>
        <time>2021-10-10T10:17:18Z</time>
      </trkpt>
      <trkpt lat="45.11373" lon="5.56038">
        <ele>1116.8</ele>
        <time>2021-10-10T10:17:19Z</time>
      </trkpt>
      <trkpt lat="45.11374" lon="5.56039">
        <ele>1116.8</ele>
        <time>2021-10-10T10:17:20Z</time>
      </trkpt>
      <trkpt lat="45.11376" lon="5.56038">
        <ele>1117.6</ele>
        <time>2021-10-10T10:17:21Z</time>
      </trkpt>
      <trkpt lat="45.11377" lon="5.56039">
        <ele>1117.8</ele>
        <time>2021-10-10T10:17:22Z</time>
      </trkpt>
      <trkpt lat="45.11378" lon="5.56039">
        <ele>1117.8</ele>
        <time>2021-10-10T10:17:23Z</time>
      </trkpt>
      <trkpt lat="45.11379" lon="5.56039">
        <ele>1117.8</ele>
        <time>2021-10-10T10:17:24Z</time>
      </trkpt>
      <trkpt lat="45.1138" lon="5.56039">
        <ele>1117.8</ele>
        <time>2021-10-10T10:17:25Z</time>
      </trkpt>
      <trkpt lat="45.11382" lon="5.56039">
        <ele>1118.4</ele>
        <time>2021-10-10T10:17:26Z</time>
      </trkpt>
      <trkpt lat="45.11384" lon="5.56039">
        <ele>1118.4</ele>
        <time>2021-10-10T10:17:27Z</time>
      </trkpt>
      <trkpt lat="45.11385" lon="5.5604">
        <ele>1118.4</ele>
        <time>2021-10-10T10:17:28Z</time>
      </trkpt>
      <trkpt lat="45.11387" lon="5.5604">
        <ele>1118.4</ele>
        <time>2021-10-10T10:17:29Z</time>
      </trkpt>
      <trkpt lat="45.11388" lon="5.56041">
        <ele>1118.8</ele>
        <time>2021-10-10T10:17:30Z</time>
      </trkpt>
      <trkpt lat="45.11389" lon="5.56042">
        <ele>1118.8</ele>
        <time>2021-10-10T10:17:31Z</time>
      </trkpt>
      <trkpt lat="45.1139" lon="5.56043">
        <ele>1118.8</ele>
        <time>2021-10-10T10:17:32Z</time>
      </trkpt>
      <trkpt lat="45.11392" lon="5.56043">
        <ele>1119.8</ele>
        <time>2021-10-10T10:17:33Z</time>
      </trkpt>
      <trkpt lat="45.11393" lon="5.56044">
        <ele>1119.8</ele>
        <time>2021-10-10T10:17:34Z</time>
      </trkpt>
      <trkpt lat="45.11394" lon="5.56045">
        <ele>1119.8</ele>
        <time>2021-10-10T10:17:35Z</time>
      </trkpt>
      <trkpt lat="45.11395" lon="5.56045">
        <ele>1119.8</ele>
        <time>2021-10-10T10:17:36Z</time>
      </trkpt>
      <trkpt lat="45.11396" lon="5.56046">
        <ele>1120.8</ele>
        <time>2021-10-10T10:17:37Z</time>
      </trkpt>
      <trkpt lat="45.11397" lon="5.56046">
        <ele>1121.2</ele>
        <time>2021-10-10T10:17:38Z</time>
      </trkpt>
      <trkpt lat="45.11398" lon="5.56047">
        <ele>1121.2</ele>
        <time>2021-10-10T10:17:39Z</time>
      </trkpt>
      <trkpt lat="45.114" lon="5.56048">
        <ele>1121.2</ele>
        <time>2021-10-10T10:17:40Z</time>
      </trkpt>
      <trkpt lat="45.11401" lon="5.56048">
        <ele>1121.2</ele>
        <time>2021-10-10T10:17:41Z</time>
      </trkpt>
      <trkpt lat="45.11402" lon="5.56049">
        <ele>1121.2</ele>
        <time>2021-10-10T10:17:42Z</time>
      </trkpt>
      <trkpt lat="45.11403" lon="5.5605">
        <ele>1121.2</ele>
        <time>2021-10-10T10:17:43Z</time>
      </trkpt>
      <trkpt lat="45.11405" lon="5.56051">
        <ele>1121.2</ele>
        <time>2021-10-10T10:17:44Z</time>
      </trkpt>
      <trkpt lat="45.11405" lon="5.56052">
        <ele>1122</ele>
        <time>2021-10-10T10:17:45Z</time>
      </trkpt>
      <trkpt lat="45.11407" lon="5.56052">
        <ele>1121.8</ele>
        <time>2021-10-10T10:17:46Z</time>
      </trkpt>
      <trkpt lat="45.11407" lon="5.56054">
        <ele>1121.8</ele>
        <time>2021-10-10T10:17:47Z</time>
      </trkpt>
      <trkpt lat="45.11409" lon="5.56055">
        <ele>1121.8</ele>
        <time>2021-10-10T10:17:48Z</time>
      </trkpt>
      <trkpt lat="45.1141" lon="5.56056">
        <ele>1121.8</ele>
        <time>2021-10-10T10:17:49Z</time>
      </trkpt>
      <trkpt lat="45.11412" lon="5.56056">
        <ele>1122.6</ele>
        <time>2021-10-10T10:17:50Z</time>
      </trkpt>
      <trkpt lat="45.11413" lon="5.56057">
        <ele>1122.6</ele>
        <time>2021-10-10T10:17:51Z</time>
      </trkpt>
      <trkpt lat="45.11415" lon="5.56058">
        <ele>1122.6</ele>
        <time>2021-10-10T10:17:52Z</time>
      </trkpt>
      <trkpt lat="45.11417" lon="5.56059">
        <ele>1123.4</ele>
        <time>2021-10-10T10:17:53Z</time>
      </trkpt>
      <trkpt lat="45.11418" lon="5.56059">
        <ele>1123.4</ele>
        <time>2021-10-10T10:17:54Z</time>
      </trkpt>
      <trkpt lat="45.1142" lon="5.5606">
        <ele>1123.4</ele>
        <time>2021-10-10T10:17:55Z</time>
      </trkpt>
      <trkpt lat="45.11422" lon="5.56062">
        <ele>1123.4</ele>
        <time>2021-10-10T10:17:56Z</time>
      </trkpt>
      <trkpt lat="45.11423" lon="5.56063">
        <ele>1124</ele>
        <time>2021-10-10T10:17:57Z</time>
      </trkpt>
      <trkpt lat="45.11425" lon="5.56064">
        <ele>1123.8</ele>
        <time>2021-10-10T10:17:58Z</time>
      </trkpt>
      <trkpt lat="45.11426" lon="5.56065">
        <ele>1123.8</ele>
        <time>2021-10-10T10:17:59Z</time>
      </trkpt>
      <trkpt lat="45.11428" lon="5.56066">
        <ele>1123.8</ele>
        <time>2021-10-10T10:18:00Z</time>
      </trkpt>
      <trkpt lat="45.11429" lon="5.56067">
        <ele>1124.4</ele>
        <time>2021-10-10T10:18:01Z</time>
      </trkpt>
      <trkpt lat="45.11431" lon="5.56068">
        <ele>1124.6</ele>
        <time>2021-10-10T10:18:02Z</time>
      </trkpt>
      <trkpt lat="45.11432" lon="5.56069">
        <ele>1124.6</ele>
        <time>2021-10-10T10:18:03Z</time>
      </trkpt>
      <trkpt lat="45.11433" lon="5.56069">
        <ele>1124.6</ele>
        <time>2021-10-10T10:18:04Z</time>
      </trkpt>
      <trkpt lat="45.11435" lon="5.56069">
        <ele>1124.8</ele>
        <time>2021-10-10T10:18:05Z</time>
      </trkpt>
      <trkpt lat="45.11437" lon="5.5607">
        <ele>1125.2</ele>
        <time>2021-10-10T10:18:06Z</time>
      </trkpt>
      <trkpt lat="45.11438" lon="5.5607">
        <ele>1125.2</ele>
        <time>2021-10-10T10:18:07Z</time>
      </trkpt>
      <trkpt lat="45.11439" lon="5.56071">
        <ele>1125.2</ele>
        <time>2021-10-10T10:18:08Z</time>
      </trkpt>
      <trkpt lat="45.1144" lon="5.56072">
        <ele>1125.8</ele>
        <time>2021-10-10T10:18:09Z</time>
      </trkpt>
      <trkpt lat="45.11441" lon="5.56073">
        <ele>1125.2</ele>
        <time>2021-10-10T10:18:10Z</time>
      </trkpt>
      <trkpt lat="45.11442" lon="5.56073">
        <ele>1125.2</ele>
        <time>2021-10-10T10:18:11Z</time>
      </trkpt>
      <trkpt lat="45.11443" lon="5.56074">
        <ele>1125.2</ele>
        <time>2021-10-10T10:18:12Z</time>
      </trkpt>
      <trkpt lat="45.11444" lon="5.56074">
        <ele>1126.2</ele>
        <time>2021-10-10T10:18:13Z</time>
      </trkpt>
      <trkpt lat="45.11445" lon="5.56075">
        <ele>1126.4</ele>
        <time>2021-10-10T10:18:14Z</time>
      </trkpt>
      <trkpt lat="45.11447" lon="5.56075">
        <ele>1126.4</ele>
        <time>2021-10-10T10:18:15Z</time>
      </trkpt>
      <trkpt lat="45.11448" lon="5.56076">
        <ele>1126.4</ele>
        <time>2021-10-10T10:18:16Z</time>
      </trkpt>
      <trkpt lat="45.1145" lon="5.56077">
        <ele>1126.4</ele>
        <time>2021-10-10T10:18:17Z</time>
      </trkpt>
      <trkpt lat="45.11451" lon="5.56078">
        <ele>1127.2</ele>
        <time>2021-10-10T10:18:18Z</time>
      </trkpt>
      <trkpt lat="45.11452" lon="5.56079">
        <ele>1127.2</ele>
        <time>2021-10-10T10:18:19Z</time>
      </trkpt>
      <trkpt lat="45.11453" lon="5.56079">
        <ele>1127.2</ele>
        <time>2021-10-10T10:18:20Z</time>
      </trkpt>
      <trkpt lat="45.11454" lon="5.5608">
        <ele>1127.2</ele>
        <time>2021-10-10T10:18:21Z</time>
      </trkpt>
      <trkpt lat="45.11456" lon="5.56082">
        <ele>1127.8</ele>
        <time>2021-10-10T10:18:22Z</time>
      </trkpt>
      <trkpt lat="45.11457" lon="5.56082">
        <ele>1127.8</ele>
        <time>2021-10-10T10:18:23Z</time>
      </trkpt>
      <trkpt lat="45.11458" lon="5.56083">
        <ele>1127.8</ele>
        <time>2021-10-10T10:18:24Z</time>
      </trkpt>
      <trkpt lat="45.11459" lon="5.56084">
        <ele>1128.2</ele>
        <time>2021-10-10T10:18:25Z</time>
      </trkpt>
      <trkpt lat="45.11461" lon="5.56085">
        <ele>1128.2</ele>
        <time>2021-10-10T10:18:26Z</time>
      </trkpt>
      <trkpt lat="45.11462" lon="5.56085">
        <ele>1128.2</ele>
        <time>2021-10-10T10:18:27Z</time>
      </trkpt>
      <trkpt lat="45.11464" lon="5.56086">
        <ele>1128.2</ele>
        <time>2021-10-10T10:18:28Z</time>
      </trkpt>
      <trkpt lat="45.11466" lon="5.56086">
        <ele>1128.8</ele>
        <time>2021-10-10T10:18:29Z</time>
      </trkpt>
      <trkpt lat="45.11467" lon="5.56087">
        <ele>1128.6</ele>
        <time>2021-10-10T10:18:30Z</time>
      </trkpt>
      <trkpt lat="45.11469" lon="5.56088">
        <ele>1128.6</ele>
        <time>2021-10-10T10:18:31Z</time>
      </trkpt>
      <trkpt lat="45.1147" lon="5.56089">
        <ele>1128.6</ele>
        <time>2021-10-10T10:18:32Z</time>
      </trkpt>
      <trkpt lat="45.1147" lon="5.56089">
        <ele>1129</ele>
        <time>2021-10-10T10:18:33Z</time>
      </trkpt>
      <trkpt lat="45.11472" lon="5.56091">
        <ele>1129.2</ele>
        <time>2021-10-10T10:18:34Z</time>
      </trkpt>
      <trkpt lat="45.11473" lon="5.56092">
        <ele>1129.2</ele>
        <time>2021-10-10T10:18:35Z</time>
      </trkpt>
      <trkpt lat="45.11474" lon="5.56092">
        <ele>1129.2</ele>
        <time>2021-10-10T10:18:36Z</time>
      </trkpt>
      <trkpt lat="45.11476" lon="5.56093">
        <ele>1129.6</ele>
        <time>2021-10-10T10:18:37Z</time>
      </trkpt>
      <trkpt lat="45.11478" lon="5.56094">
        <ele>1129.8</ele>
        <time>2021-10-10T10:18:38Z</time>
      </trkpt>
      <trkpt lat="45.11479" lon="5.56095">
        <ele>1129.8</ele>
        <time>2021-10-10T10:18:39Z</time>
      </trkpt>
      <trkpt lat="45.11481" lon="5.56096">
        <ele>1129.8</ele>
        <time>2021-10-10T10:18:40Z</time>
      </trkpt>
      <trkpt lat="45.11483" lon="5.56097">
        <ele>1129.8</ele>
        <time>2021-10-10T10:18:41Z</time>
      </trkpt>
      <trkpt lat="45.11484" lon="5.56099">
        <ele>1129.8</ele>
        <time>2021-10-10T10:18:42Z</time>
      </trkpt>
      <trkpt lat="45.11485" lon="5.56099">
        <ele>1129.8</ele>
        <time>2021-10-10T10:18:43Z</time>
      </trkpt>
      <trkpt lat="45.11486" lon="5.561">
        <ele>1129.8</ele>
        <time>2021-10-10T10:18:44Z</time>
      </trkpt>
      <trkpt lat="45.11487" lon="5.56101">
        <ele>1130.8</ele>
        <time>2021-10-10T10:18:45Z</time>
      </trkpt>
      <trkpt lat="45.11489" lon="5.56103">
        <ele>1130.6</ele>
        <time>2021-10-10T10:18:46Z</time>
      </trkpt>
      <trkpt lat="45.11491" lon="5.56105">
        <ele>1130.6</ele>
        <time>2021-10-10T10:18:47Z</time>
      </trkpt>
      <trkpt lat="45.11492" lon="5.56106">
        <ele>1130.6</ele>
        <time>2021-10-10T10:18:48Z</time>
      </trkpt>
      <trkpt lat="45.11493" lon="5.56107">
        <ele>1131</ele>
        <time>2021-10-10T10:18:49Z</time>
      </trkpt>
      <trkpt lat="45.11495" lon="5.56108">
        <ele>1131.2</ele>
        <time>2021-10-10T10:18:50Z</time>
      </trkpt>
      <trkpt lat="45.11496" lon="5.56109">
        <ele>1131.2</ele>
        <time>2021-10-10T10:18:51Z</time>
      </trkpt>
      <trkpt lat="45.11497" lon="5.56111">
        <ele>1131.2</ele>
        <time>2021-10-10T10:18:52Z</time>
      </trkpt>
      <trkpt lat="45.11499" lon="5.56113">
        <ele>1131.2</ele>
        <time>2021-10-10T10:18:53Z</time>
      </trkpt>
      <trkpt lat="45.115" lon="5.56114">
        <ele>1131.6</ele>
        <time>2021-10-10T10:18:54Z</time>
      </trkpt>
      <trkpt lat="45.11501" lon="5.56116">
        <ele>1131.6</ele>
        <time>2021-10-10T10:18:55Z</time>
      </trkpt>
      <trkpt lat="45.11502" lon="5.56117">
        <ele>1131.6</ele>
        <time>2021-10-10T10:18:56Z</time>
      </trkpt>
      <trkpt lat="45.11504" lon="5.56118">
        <ele>1131.6</ele>
        <time>2021-10-10T10:18:57Z</time>
      </trkpt>
      <trkpt lat="45.11505" lon="5.5612">
        <ele>1131.4</ele>
        <time>2021-10-10T10:18:58Z</time>
      </trkpt>
      <trkpt lat="45.11506" lon="5.56122">
        <ele>1131.4</ele>
        <time>2021-10-10T10:18:59Z</time>
      </trkpt>
      <trkpt lat="45.11508" lon="5.56123">
        <ele>1131.4</ele>
        <time>2021-10-10T10:19:00Z</time>
      </trkpt>
      <trkpt lat="45.1151" lon="5.56125">
        <ele>1131.8</ele>
        <time>2021-10-10T10:19:01Z</time>
      </trkpt>
      <trkpt lat="45.11512" lon="5.56127">
        <ele>1132.2</ele>
        <time>2021-10-10T10:19:02Z</time>
      </trkpt>
      <trkpt lat="45.11513" lon="5.56128">
        <ele>1132.2</ele>
        <time>2021-10-10T10:19:03Z</time>
      </trkpt>
      <trkpt lat="45.11514" lon="5.5613">
        <ele>1132.2</ele>
        <time>2021-10-10T10:19:04Z</time>
      </trkpt>
      <trkpt lat="45.11515" lon="5.56132">
        <ele>1132.2</ele>
        <time>2021-10-10T10:19:05Z</time>
      </trkpt>
      <trkpt lat="45.11516" lon="5.56133">
        <ele>1132</ele>
        <time>2021-10-10T10:19:06Z</time>
      </trkpt>
      <trkpt lat="45.11518" lon="5.56135">
        <ele>1132</ele>
        <time>2021-10-10T10:19:07Z</time>
      </trkpt>
      <trkpt lat="45.11519" lon="5.56136">
        <ele>1132</ele>
        <time>2021-10-10T10:19:08Z</time>
      </trkpt>
      <trkpt lat="45.11521" lon="5.56138">
        <ele>1132.2</ele>
        <time>2021-10-10T10:19:09Z</time>
      </trkpt>
      <trkpt lat="45.11523" lon="5.5614">
        <ele>1133</ele>
        <time>2021-10-10T10:19:10Z</time>
      </trkpt>
      <trkpt lat="45.11524" lon="5.56142">
        <ele>1133</ele>
        <time>2021-10-10T10:19:11Z</time>
      </trkpt>
      <trkpt lat="45.11526" lon="5.56142">
        <ele>1133</ele>
        <time>2021-10-10T10:19:12Z</time>
      </trkpt>
      <trkpt lat="45.11528" lon="5.56145">
        <ele>1132.8</ele>
        <time>2021-10-10T10:19:13Z</time>
      </trkpt>
      <trkpt lat="45.11529" lon="5.56146">
        <ele>1132.8</ele>
        <time>2021-10-10T10:19:14Z</time>
      </trkpt>
      <trkpt lat="45.11531" lon="5.56149">
        <ele>1132.8</ele>
        <time>2021-10-10T10:19:15Z</time>
      </trkpt>
      <trkpt lat="45.11533" lon="5.56151">
        <ele>1132.8</ele>
        <time>2021-10-10T10:19:16Z</time>
      </trkpt>
      <trkpt lat="45.11534" lon="5.56152">
        <ele>1132.8</ele>
        <time>2021-10-10T10:19:17Z</time>
      </trkpt>
      <trkpt lat="45.11535" lon="5.56154">
        <ele>1133</ele>
        <time>2021-10-10T10:19:18Z</time>
      </trkpt>
      <trkpt lat="45.11537" lon="5.56155">
        <ele>1133</ele>
        <time>2021-10-10T10:19:19Z</time>
      </trkpt>
      <trkpt lat="45.11539" lon="5.56156">
        <ele>1133</ele>
        <time>2021-10-10T10:19:20Z</time>
      </trkpt>
      <trkpt lat="45.11541" lon="5.56157">
        <ele>1133.2</ele>
        <time>2021-10-10T10:19:21Z</time>
      </trkpt>
      <trkpt lat="45.11543" lon="5.56158">
        <ele>1133</ele>
        <time>2021-10-10T10:19:22Z</time>
      </trkpt>
      <trkpt lat="45.11544" lon="5.56159">
        <ele>1133</ele>
        <time>2021-10-10T10:19:23Z</time>
      </trkpt>
      <trkpt lat="45.11546" lon="5.5616">
        <ele>1133</ele>
        <time>2021-10-10T10:19:24Z</time>
      </trkpt>
      <trkpt lat="45.11548" lon="5.56162">
        <ele>1134</ele>
        <time>2021-10-10T10:19:25Z</time>
      </trkpt>
      <trkpt lat="45.11549" lon="5.56163">
        <ele>1134.2</ele>
        <time>2021-10-10T10:19:26Z</time>
      </trkpt>
      <trkpt lat="45.11551" lon="5.56164">
        <ele>1134.2</ele>
        <time>2021-10-10T10:19:27Z</time>
      </trkpt>
      <trkpt lat="45.11552" lon="5.56164">
        <ele>1134.2</ele>
        <time>2021-10-10T10:19:28Z</time>
      </trkpt>
      <trkpt lat="45.11554" lon="5.56165">
        <ele>1134.6</ele>
        <time>2021-10-10T10:19:29Z</time>
      </trkpt>
      <trkpt lat="45.11555" lon="5.56166">
        <ele>1135.2</ele>
        <time>2021-10-10T10:19:30Z</time>
      </trkpt>
      <trkpt lat="45.11557" lon="5.56166">
        <ele>1135.2</ele>
        <time>2021-10-10T10:19:31Z</time>
      </trkpt>
      <trkpt lat="45.11559" lon="5.56167">
        <ele>1135.2</ele>
        <time>2021-10-10T10:19:32Z</time>
      </trkpt>
      <trkpt lat="45.1156" lon="5.56168">
        <ele>1135.2</ele>
        <time>2021-10-10T10:19:33Z</time>
      </trkpt>
      <trkpt lat="45.11562" lon="5.56168">
        <ele>1135.2</ele>
        <time>2021-10-10T10:19:34Z</time>
      </trkpt>
      <trkpt lat="45.11563" lon="5.56169">
        <ele>1135.2</ele>
        <time>2021-10-10T10:19:35Z</time>
      </trkpt>
      <trkpt lat="45.11565" lon="5.56169">
        <ele>1135.2</ele>
        <time>2021-10-10T10:19:36Z</time>
      </trkpt>
      <trkpt lat="45.11567" lon="5.5617">
        <ele>1135.8</ele>
        <time>2021-10-10T10:19:37Z</time>
      </trkpt>
      <trkpt lat="45.11569" lon="5.5617">
        <ele>1136</ele>
        <time>2021-10-10T10:19:38Z</time>
      </trkpt>
      <trkpt lat="45.1157" lon="5.56171">
        <ele>1136</ele>
        <time>2021-10-10T10:19:39Z</time>
      </trkpt>
      <trkpt lat="45.11572" lon="5.56171">
        <ele>1136</ele>
        <time>2021-10-10T10:19:40Z</time>
      </trkpt>
      <trkpt lat="45.11573" lon="5.56171">
        <ele>1136</ele>
        <time>2021-10-10T10:19:41Z</time>
      </trkpt>
      <trkpt lat="45.11575" lon="5.56172">
        <ele>1136.4</ele>
        <time>2021-10-10T10:19:42Z</time>
      </trkpt>
      <trkpt lat="45.11577" lon="5.56172">
        <ele>1136.4</ele>
        <time>2021-10-10T10:19:43Z</time>
      </trkpt>
      <trkpt lat="45.11578" lon="5.56173">
        <ele>1136.4</ele>
        <time>2021-10-10T10:19:44Z</time>
      </trkpt>
      <trkpt lat="45.1158" lon="5.56173">
        <ele>1137</ele>
        <time>2021-10-10T10:19:45Z</time>
      </trkpt>
      <trkpt lat="45.11581" lon="5.56174">
        <ele>1137.2</ele>
        <time>2021-10-10T10:19:46Z</time>
      </trkpt>
      <trkpt lat="45.11583" lon="5.56174">
        <ele>1137.2</ele>
        <time>2021-10-10T10:19:47Z</time>
      </trkpt>
      <trkpt lat="45.11584" lon="5.56175">
        <ele>1137.2</ele>
        <time>2021-10-10T10:19:48Z</time>
      </trkpt>
      <trkpt lat="45.11586" lon="5.56175">
        <ele>1137.8</ele>
        <time>2021-10-10T10:19:49Z</time>
      </trkpt>
      <trkpt lat="45.11587" lon="5.56175">
        <ele>1137.8</ele>
        <time>2021-10-10T10:19:50Z</time>
      </trkpt>
      <trkpt lat="45.11588" lon="5.56176">
        <ele>1137.8</ele>
        <time>2021-10-10T10:19:51Z</time>
      </trkpt>
      <trkpt lat="45.1159" lon="5.56176">
        <ele>1137.8</ele>
        <time>2021-10-10T10:19:52Z</time>
      </trkpt>
      <trkpt lat="45.11591" lon="5.56177">
        <ele>1138.4</ele>
        <time>2021-10-10T10:19:53Z</time>
      </trkpt>
      <trkpt lat="45.11593" lon="5.56177">
        <ele>1138.8</ele>
        <time>2021-10-10T10:19:54Z</time>
      </trkpt>
      <trkpt lat="45.11594" lon="5.56178">
        <ele>1138.8</ele>
        <time>2021-10-10T10:19:55Z</time>
      </trkpt>
      <trkpt lat="45.11596" lon="5.56178">
        <ele>1138.8</ele>
        <time>2021-10-10T10:19:56Z</time>
      </trkpt>
      <trkpt lat="45.11597" lon="5.56179">
        <ele>1138.8</ele>
        <time>2021-10-10T10:19:57Z</time>
      </trkpt>
      <trkpt lat="45.11599" lon="5.56179">
        <ele>1139.2</ele>
        <time>2021-10-10T10:19:58Z</time>
      </trkpt>
      <trkpt lat="45.116" lon="5.5618">
        <ele>1139.2</ele>
        <time>2021-10-10T10:19:59Z</time>
      </trkpt>
      <trkpt lat="45.11602" lon="5.5618">
        <ele>1139.2</ele>
        <time>2021-10-10T10:20:00Z</time>
      </trkpt>
      <trkpt lat="45.11603" lon="5.56181">
        <ele>1139.2</ele>
        <time>2021-10-10T10:20:01Z</time>
      </trkpt>
      <trkpt lat="45.11605" lon="5.56181">
        <ele>1139.6</ele>
        <time>2021-10-10T10:20:02Z</time>
      </trkpt>
      <trkpt lat="45.11606" lon="5.56181">
        <ele>1139.6</ele>
        <time>2021-10-10T10:20:03Z</time>
      </trkpt>
      <trkpt lat="45.11607" lon="5.56182">
        <ele>1139.6</ele>
        <time>2021-10-10T10:20:04Z</time>
      </trkpt>
      <trkpt lat="45.11609" lon="5.56182">
        <ele>1139.6</ele>
        <time>2021-10-10T10:20:05Z</time>
      </trkpt>
      <trkpt lat="45.1161" lon="5.56182">
        <ele>1140.2</ele>
        <time>2021-10-10T10:20:06Z</time>
      </trkpt>
      <trkpt lat="45.11612" lon="5.56183">
        <ele>1140.2</ele>
        <time>2021-10-10T10:20:07Z</time>
      </trkpt>
      <trkpt lat="45.11613" lon="5.56183">
        <ele>1140.2</ele>
        <time>2021-10-10T10:20:08Z</time>
      </trkpt>
      <trkpt lat="45.11615" lon="5.56183">
        <ele>1141.2</ele>
        <time>2021-10-10T10:20:09Z</time>
      </trkpt>
      <trkpt lat="45.11616" lon="5.56183">
        <ele>1141.4</ele>
        <time>2021-10-10T10:20:10Z</time>
      </trkpt>
      <trkpt lat="45.11618" lon="5.56183">
        <ele>1141.4</ele>
        <time>2021-10-10T10:20:11Z</time>
      </trkpt>
      <trkpt lat="45.1162" lon="5.56183">
        <ele>1141.4</ele>
        <time>2021-10-10T10:20:12Z</time>
      </trkpt>
      <trkpt lat="45.11621" lon="5.56183">
        <ele>1141.4</ele>
        <time>2021-10-10T10:20:13Z</time>
      </trkpt>
      <trkpt lat="45.11623" lon="5.56183">
        <ele>1141.4</ele>
        <time>2021-10-10T10:20:14Z</time>
      </trkpt>
      <trkpt lat="45.11624" lon="5.56183">
        <ele>1141.4</ele>
        <time>2021-10-10T10:20:15Z</time>
      </trkpt>
      <trkpt lat="45.11626" lon="5.56183">
        <ele>1141.4</ele>
        <time>2021-10-10T10:20:16Z</time>
      </trkpt>
      <trkpt lat="45.11628" lon="5.56182">
        <ele>1142.2</ele>
        <time>2021-10-10T10:20:17Z</time>
      </trkpt>
      <trkpt lat="45.11629" lon="5.56182">
        <ele>1142</ele>
        <time>2021-10-10T10:20:18Z</time>
      </trkpt>
      <trkpt lat="45.11631" lon="5.56182">
        <ele>1142</ele>
        <time>2021-10-10T10:20:19Z</time>
      </trkpt>
      <trkpt lat="45.11632" lon="5.56182">
        <ele>1142</ele>
        <time>2021-10-10T10:20:20Z</time>
      </trkpt>
      <trkpt lat="45.11633" lon="5.56182">
        <ele>1142.2</ele>
        <time>2021-10-10T10:20:21Z</time>
      </trkpt>
      <trkpt lat="45.11635" lon="5.56181">
        <ele>1142.4</ele>
        <time>2021-10-10T10:20:22Z</time>
      </trkpt>
      <trkpt lat="45.11636" lon="5.56181">
        <ele>1142.4</ele>
        <time>2021-10-10T10:20:23Z</time>
      </trkpt>
      <trkpt lat="45.11638" lon="5.5618">
        <ele>1142.4</ele>
        <time>2021-10-10T10:20:24Z</time>
      </trkpt>
      <trkpt lat="45.11639" lon="5.5618">
        <ele>1142.6</ele>
        <time>2021-10-10T10:20:25Z</time>
      </trkpt>
      <trkpt lat="45.11641" lon="5.56179">
        <ele>1142.8</ele>
        <time>2021-10-10T10:20:26Z</time>
      </trkpt>
      <trkpt lat="45.11643" lon="5.56179">
        <ele>1142.8</ele>
        <time>2021-10-10T10:20:27Z</time>
      </trkpt>
      <trkpt lat="45.11644" lon="5.56179">
        <ele>1142.8</ele>
        <time>2021-10-10T10:20:28Z</time>
      </trkpt>
      <trkpt lat="45.11646" lon="5.56178">
        <ele>1142.8</ele>
        <time>2021-10-10T10:20:29Z</time>
      </trkpt>
      <trkpt lat="45.11648" lon="5.56178">
        <ele>1143.4</ele>
        <time>2021-10-10T10:20:30Z</time>
      </trkpt>
      <trkpt lat="45.11649" lon="5.56178">
        <ele>1143.4</ele>
        <time>2021-10-10T10:20:31Z</time>
      </trkpt>
      <trkpt lat="45.11651" lon="5.56178">
        <ele>1143.4</ele>
        <time>2021-10-10T10:20:32Z</time>
      </trkpt>
      <trkpt lat="45.11652" lon="5.56177">
        <ele>1143.4</ele>
        <time>2021-10-10T10:20:33Z</time>
      </trkpt>
      <trkpt lat="45.11654" lon="5.56177">
        <ele>1143.8</ele>
        <time>2021-10-10T10:20:34Z</time>
      </trkpt>
      <trkpt lat="45.11655" lon="5.56177">
        <ele>1143.8</ele>
        <time>2021-10-10T10:20:35Z</time>
      </trkpt>
      <trkpt lat="45.11657" lon="5.56177">
        <ele>1143.8</ele>
        <time>2021-10-10T10:20:36Z</time>
      </trkpt>
      <trkpt lat="45.11658" lon="5.56177">
        <ele>1144.2</ele>
        <time>2021-10-10T10:20:37Z</time>
      </trkpt>
      <trkpt lat="45.11659" lon="5.56178">
        <ele>1144.2</ele>
        <time>2021-10-10T10:20:38Z</time>
      </trkpt>
      <trkpt lat="45.1166" lon="5.56179">
        <ele>1144.2</ele>
        <time>2021-10-10T10:20:39Z</time>
      </trkpt>
      <trkpt lat="45.1166" lon="5.5618">
        <ele>1144.2</ele>
        <time>2021-10-10T10:20:40Z</time>
      </trkpt>
      <trkpt lat="45.11661" lon="5.56181">
        <ele>1144.2</ele>
        <time>2021-10-10T10:20:41Z</time>
      </trkpt>
      <trkpt lat="45.11661" lon="5.56183">
        <ele>1144.8</ele>
        <time>2021-10-10T10:20:42Z</time>
      </trkpt>
      <trkpt lat="45.11661" lon="5.56184">
        <ele>1144.8</ele>
        <time>2021-10-10T10:20:43Z</time>
      </trkpt>
      <trkpt lat="45.11663" lon="5.56181">
        <ele>1145.6</ele>
        <time>2021-10-10T10:31:10Z</time>
      </trkpt>
      <trkpt lat="45.11663" lon="5.56179">
        <ele>1145.6</ele>
        <time>2021-10-10T10:31:11Z</time>
      </trkpt>
      <trkpt lat="45.11663" lon="5.56177">
        <ele>1145.6</ele>
        <time>2021-10-10T10:31:12Z</time>
      </trkpt>
      <trkpt lat="45.11663" lon="5.56175">
        <ele>1145.6</ele>
        <time>2021-10-10T10:31:13Z</time>
      </trkpt>
      <trkpt lat="45.11663" lon="5.56172">
        <ele>1145.6</ele>
        <time>2021-10-10T10:31:14Z</time>
      </trkpt>
      <trkpt lat="45.11663" lon="5.5617">
        <ele>1145.6</ele>
        <time>2021-10-10T10:31:15Z</time>
      </trkpt>
      <trkpt lat="45.11664" lon="5.56168">
        <ele>1145.6</ele>
        <time>2021-10-10T10:31:16Z</time>
      </trkpt>
      <trkpt lat="45.11665" lon="5.56165">
        <ele>1145.6</ele>
        <time>2021-10-10T10:31:17Z</time>
      </trkpt>
      <trkpt lat="45.11666" lon="5.56163">
        <ele>1146</ele>
        <time>2021-10-10T10:31:18Z</time>
      </trkpt>
      <trkpt lat="45.11668" lon="5.56161">
        <ele>1146</ele>
        <time>2021-10-10T10:31:19Z</time>
      </trkpt>
      <trkpt lat="45.11669" lon="5.56159">
        <ele>1146</ele>
        <time>2021-10-10T10:31:20Z</time>
      </trkpt>
      <trkpt lat="45.11671" lon="5.56158">
        <ele>1145.8</ele>
        <time>2021-10-10T10:31:21Z</time>
      </trkpt>
      <trkpt lat="45.11672" lon="5.56157">
        <ele>1146.4</ele>
        <time>2021-10-10T10:31:22Z</time>
      </trkpt>
      <trkpt lat="45.11673" lon="5.56156">
        <ele>1146.4</ele>
        <time>2021-10-10T10:31:23Z</time>
      </trkpt>
      <trkpt lat="45.11675" lon="5.56155">
        <ele>1146.4</ele>
        <time>2021-10-10T10:31:24Z</time>
      </trkpt>
      <trkpt lat="45.11676" lon="5.56153">
        <ele>1146.4</ele>
        <time>2021-10-10T10:31:25Z</time>
      </trkpt>
      <trkpt lat="45.11677" lon="5.56152">
        <ele>1147</ele>
        <time>2021-10-10T10:31:26Z</time>
      </trkpt>
      <trkpt lat="45.11678" lon="5.5615">
        <ele>1147</ele>
        <time>2021-10-10T10:31:27Z</time>
      </trkpt>
      <trkpt lat="45.11679" lon="5.56149">
        <ele>1147</ele>
        <time>2021-10-10T10:31:28Z</time>
      </trkpt>
      <trkpt lat="45.1168" lon="5.56147">
        <ele>1147.2</ele>
        <time>2021-10-10T10:31:29Z</time>
      </trkpt>
      <trkpt lat="45.11681" lon="5.56145">
        <ele>1147.4</ele>
        <time>2021-10-10T10:31:30Z</time>
      </trkpt>
      <trkpt lat="45.11682" lon="5.56144">
        <ele>1147.4</ele>
        <time>2021-10-10T10:31:31Z</time>
      </trkpt>
      <trkpt lat="45.11684" lon="5.56142">
        <ele>1147.4</ele>
        <time>2021-10-10T10:31:32Z</time>
      </trkpt>
      <trkpt lat="45.11685" lon="5.56141">
        <ele>1148</ele>
        <time>2021-10-10T10:31:33Z</time>
      </trkpt>
      <trkpt lat="45.11686" lon="5.56139">
        <ele>1147.8</ele>
        <time>2021-10-10T10:31:34Z</time>
      </trkpt>
      <trkpt lat="45.11687" lon="5.56138">
        <ele>1147.8</ele>
        <time>2021-10-10T10:31:35Z</time>
      </trkpt>
      <trkpt lat="45.11688" lon="5.56136">
        <ele>1147.8</ele>
        <time>2021-10-10T10:31:36Z</time>
      </trkpt>
      <trkpt lat="45.11689" lon="5.56135">
        <ele>1148.8</ele>
        <time>2021-10-10T10:31:37Z</time>
      </trkpt>
      <trkpt lat="45.1169" lon="5.56133">
        <ele>1148.4</ele>
        <time>2021-10-10T10:31:38Z</time>
      </trkpt>
      <trkpt lat="45.11692" lon="5.56132">
        <ele>1148.4</ele>
        <time>2021-10-10T10:31:39Z</time>
      </trkpt>
      <trkpt lat="45.11693" lon="5.56131">
        <ele>1148.4</ele>
        <time>2021-10-10T10:31:40Z</time>
      </trkpt>
      <trkpt lat="45.11694" lon="5.5613">
        <ele>1149.4</ele>
        <time>2021-10-10T10:31:41Z</time>
      </trkpt>
      <trkpt lat="45.11695" lon="5.56129">
        <ele>1149.6</ele>
        <time>2021-10-10T10:31:42Z</time>
      </trkpt>
      <trkpt lat="45.11696" lon="5.56128">
        <ele>1149.6</ele>
        <time>2021-10-10T10:31:43Z</time>
      </trkpt>
      <trkpt lat="45.11697" lon="5.56126">
        <ele>1149.6</ele>
        <time>2021-10-10T10:31:44Z</time>
      </trkpt>
      <trkpt lat="45.11698" lon="5.56125">
        <ele>1150</ele>
        <time>2021-10-10T10:31:45Z</time>
      </trkpt>
      <trkpt lat="45.11698" lon="5.56124">
        <ele>1150.2</ele>
        <time>2021-10-10T10:31:46Z</time>
      </trkpt>
      <trkpt lat="45.11699" lon="5.56123">
        <ele>1150.2</ele>
        <time>2021-10-10T10:31:47Z</time>
      </trkpt>
      <trkpt lat="45.117" lon="5.56122">
        <ele>1150.2</ele>
        <time>2021-10-10T10:31:48Z</time>
      </trkpt>
      <trkpt lat="45.11701" lon="5.56121">
        <ele>1150.2</ele>
        <time>2021-10-10T10:32:23Z</time>
      </trkpt>
      <trkpt lat="45.11701" lon="5.56121">
        <ele>1150.2</ele>
        <time>2021-10-10T10:32:24Z</time>
      </trkpt>
      <trkpt lat="45.117" lon="5.56121">
        <ele>1150.2</ele>
        <time>2021-10-10T10:32:25Z</time>
      </trkpt>
      <trkpt lat="45.11698" lon="5.56123">
        <ele>1149</ele>
        <time>2021-10-10T10:32:26Z</time>
      </trkpt>
      <trkpt lat="45.11696" lon="5.56126">
        <ele>1149</ele>
        <time>2021-10-10T10:32:27Z</time>
      </trkpt>
      <trkpt lat="45.11693" lon="5.5613">
        <ele>1149</ele>
        <time>2021-10-10T10:32:28Z</time>
      </trkpt>
      <trkpt lat="45.11689" lon="5.56134">
        <ele>1148</ele>
        <time>2021-10-10T10:32:29Z</time>
      </trkpt>
      <trkpt lat="45.11685" lon="5.56139">
        <ele>1145.8</ele>
        <time>2021-10-10T10:32:30Z</time>
      </trkpt>
      <trkpt lat="45.11681" lon="5.56144">
        <ele>1145.8</ele>
        <time>2021-10-10T10:32:31Z</time>
      </trkpt>
      <trkpt lat="45.11676" lon="5.5615">
        <ele>1145.8</ele>
        <time>2021-10-10T10:32:32Z</time>
      </trkpt>
      <trkpt lat="45.11672" lon="5.56156">
        <ele>1144.8</ele>
        <time>2021-10-10T10:32:33Z</time>
      </trkpt>
      <trkpt lat="45.11668" lon="5.56164">
        <ele>1144.4</ele>
        <time>2021-10-10T10:32:34Z</time>
      </trkpt>
      <trkpt lat="45.11666" lon="5.56172">
        <ele>1144.4</ele>
        <time>2021-10-10T10:32:35Z</time>
      </trkpt>
      <trkpt lat="45.11666" lon="5.56181">
        <ele>1144.4</ele>
        <time>2021-10-10T10:32:36Z</time>
      </trkpt>
      <trkpt lat="45.11667" lon="5.56189">
        <ele>1144.4</ele>
        <time>2021-10-10T10:32:37Z</time>
      </trkpt>
      <trkpt lat="45.11669" lon="5.56197">
        <ele>1145</ele>
        <time>2021-10-10T10:32:38Z</time>
      </trkpt>
      <trkpt lat="45.11671" lon="5.56204">
        <ele>1145</ele>
        <time>2021-10-10T10:32:39Z</time>
      </trkpt>
      <trkpt lat="45.11674" lon="5.5621">
        <ele>1145</ele>
        <time>2021-10-10T10:32:40Z</time>
      </trkpt>
      <trkpt lat="45.11676" lon="5.56217">
        <ele>1145</ele>
        <time>2021-10-10T10:32:41Z</time>
      </trkpt>
      <trkpt lat="45.11679" lon="5.56222">
        <ele>1145.6</ele>
        <time>2021-10-10T10:32:42Z</time>
      </trkpt>
      <trkpt lat="45.11681" lon="5.56227">
        <ele>1145.6</ele>
        <time>2021-10-10T10:32:43Z</time>
      </trkpt>
      <trkpt lat="45.11684" lon="5.56232">
        <ele>1145.6</ele>
        <time>2021-10-10T10:32:44Z</time>
      </trkpt>
      <trkpt lat="45.11686" lon="5.56237">
        <ele>1145.6</ele>
        <time>2021-10-10T10:32:45Z</time>
      </trkpt>
      <trkpt lat="45.11689" lon="5.56242">
        <ele>1146.6</ele>
        <time>2021-10-10T10:32:46Z</time>
      </trkpt>
      <trkpt lat="45.11691" lon="5.56246">
        <ele>1146.6</ele>
        <time>2021-10-10T10:32:47Z</time>
      </trkpt>
      <trkpt lat="45.11694" lon="5.5625">
        <ele>1146.6</ele>
        <time>2021-10-10T10:32:48Z</time>
      </trkpt>
      <trkpt lat="45.11696" lon="5.56254">
        <ele>1146</ele>
        <time>2021-10-10T10:32:49Z</time>
      </trkpt>
      <trkpt lat="45.11698" lon="5.56258">
        <ele>1146</ele>
        <time>2021-10-10T10:32:50Z</time>
      </trkpt>
      <trkpt lat="45.11701" lon="5.56262">
        <ele>1146</ele>
        <time>2021-10-10T10:32:51Z</time>
      </trkpt>
      <trkpt lat="45.11703" lon="5.56266">
        <ele>1146</ele>
        <time>2021-10-10T10:32:52Z</time>
      </trkpt>
      <trkpt lat="45.11705" lon="5.5627">
        <ele>1146.6</ele>
        <time>2021-10-10T10:32:53Z</time>
      </trkpt>
      <trkpt lat="45.11708" lon="5.56274">
        <ele>1146.2</ele>
        <time>2021-10-10T10:32:54Z</time>
      </trkpt>
      <trkpt lat="45.11711" lon="5.56278">
        <ele>1146.2</ele>
        <time>2021-10-10T10:32:55Z</time>
      </trkpt>
      <trkpt lat="45.11713" lon="5.56282">
        <ele>1146.2</ele>
        <time>2021-10-10T10:32:56Z</time>
      </trkpt>
      <trkpt lat="45.11716" lon="5.56285">
        <ele>1145.8</ele>
        <time>2021-10-10T10:32:57Z</time>
      </trkpt>
      <trkpt lat="45.11718" lon="5.56289">
        <ele>1145.8</ele>
        <time>2021-10-10T10:32:58Z</time>
      </trkpt>
      <trkpt lat="45.11721" lon="5.56293">
        <ele>1145.8</ele>
        <time>2021-10-10T10:32:59Z</time>
      </trkpt>
      <trkpt lat="45.11724" lon="5.56296">
        <ele>1145.8</ele>
        <time>2021-10-10T10:33:00Z</time>
      </trkpt>
      <trkpt lat="45.11728" lon="5.56299">
        <ele>1145.8</ele>
        <time>2021-10-10T10:33:01Z</time>
      </trkpt>
      <trkpt lat="45.11731" lon="5.56303">
        <ele>1145.6</ele>
        <time>2021-10-10T10:33:02Z</time>
      </trkpt>
      <trkpt lat="45.11734" lon="5.56307">
        <ele>1145.6</ele>
        <time>2021-10-10T10:33:03Z</time>
      </trkpt>
      <trkpt lat="45.11737" lon="5.5631">
        <ele>1145.6</ele>
        <time>2021-10-10T10:33:04Z</time>
      </trkpt>
      <trkpt lat="45.11741" lon="5.56313">
        <ele>1145.6</ele>
        <time>2021-10-10T10:33:05Z</time>
      </trkpt>
      <trkpt lat="45.11745" lon="5.56316">
        <ele>1144.6</ele>
        <time>2021-10-10T10:33:06Z</time>
      </trkpt>
      <trkpt lat="45.1175" lon="5.56316">
        <ele>1144.6</ele>
        <time>2021-10-10T10:33:07Z</time>
      </trkpt>
      <trkpt lat="45.11755" lon="5.56315">
        <ele>1144.6</ele>
        <time>2021-10-10T10:33:08Z</time>
      </trkpt>
      <trkpt lat="45.11759" lon="5.56312">
        <ele>1143.6</ele>
        <time>2021-10-10T10:33:09Z</time>
      </trkpt>
      <trkpt lat="45.11764" lon="5.56309">
        <ele>1142.4</ele>
        <time>2021-10-10T10:33:10Z</time>
      </trkpt>
      <trkpt lat="45.11769" lon="5.56305">
        <ele>1142.4</ele>
        <time>2021-10-10T10:33:11Z</time>
      </trkpt>
      <trkpt lat="45.11774" lon="5.56301">
        <ele>1142.4</ele>
        <time>2021-10-10T10:33:12Z</time>
      </trkpt>
      <trkpt lat="45.11778" lon="5.56297">
        <ele>1141.4</ele>
        <time>2021-10-10T10:33:13Z</time>
      </trkpt>
      <trkpt lat="45.11783" lon="5.56294">
        <ele>1140</ele>
        <time>2021-10-10T10:33:14Z</time>
      </trkpt>
      <trkpt lat="45.11789" lon="5.5629">
        <ele>1140</ele>
        <time>2021-10-10T10:33:15Z</time>
      </trkpt>
      <trkpt lat="45.11795" lon="5.56287">
        <ele>1140</ele>
        <time>2021-10-10T10:33:16Z</time>
      </trkpt>
      <trkpt lat="45.11803" lon="5.56284">
        <ele>1139</ele>
        <time>2021-10-10T10:33:17Z</time>
      </trkpt>
      <trkpt lat="45.11809" lon="5.56281">
        <ele>1137.6</ele>
        <time>2021-10-10T10:33:18Z</time>
      </trkpt>
      <trkpt lat="45.11816" lon="5.56277">
        <ele>1137.6</ele>
        <time>2021-10-10T10:33:19Z</time>
      </trkpt>
      <trkpt lat="45.11821" lon="5.56274">
        <ele>1137.6</ele>
        <time>2021-10-10T10:33:20Z</time>
      </trkpt>
      <trkpt lat="45.11828" lon="5.56269">
        <ele>1136.6</ele>
        <time>2021-10-10T10:33:21Z</time>
      </trkpt>
      <trkpt lat="45.11835" lon="5.56266">
        <ele>1136</ele>
        <time>2021-10-10T10:33:22Z</time>
      </trkpt>
      <trkpt lat="45.11841" lon="5.56261">
        <ele>1136</ele>
        <time>2021-10-10T10:33:23Z</time>
      </trkpt>
      <trkpt lat="45.11848" lon="5.56259">
        <ele>1136</ele>
        <time>2021-10-10T10:33:24Z</time>
      </trkpt>
      <trkpt lat="45.11855" lon="5.56261">
        <ele>1136</ele>
        <time>2021-10-10T10:33:25Z</time>
      </trkpt>
      <trkpt lat="45.11862" lon="5.56265">
        <ele>1137.8</ele>
        <time>2021-10-10T10:33:26Z</time>
      </trkpt>
      <trkpt lat="45.11865" lon="5.56272">
        <ele>1137.8</ele>
        <time>2021-10-10T10:33:27Z</time>
      </trkpt>
      <trkpt lat="45.11867" lon="5.56279">
        <ele>1137.8</ele>
        <time>2021-10-10T10:33:28Z</time>
      </trkpt>
      <trkpt lat="45.11866" lon="5.56285">
        <ele>1138.8</ele>
        <time>2021-10-10T10:33:29Z</time>
      </trkpt>
      <trkpt lat="45.11865" lon="5.5629">
        <ele>1139.2</ele>
        <time>2021-10-10T10:33:30Z</time>
      </trkpt>
      <trkpt lat="45.11863" lon="5.56295">
        <ele>1139.2</ele>
        <time>2021-10-10T10:33:31Z</time>
      </trkpt>
      <trkpt lat="45.11862" lon="5.56298">
        <ele>1139.2</ele>
        <time>2021-10-10T10:33:32Z</time>
      </trkpt>
      <trkpt lat="45.11861" lon="5.56301">
        <ele>1140</ele>
        <time>2021-10-10T10:33:33Z</time>
      </trkpt>
      <trkpt lat="45.1186" lon="5.56304">
        <ele>1139.8</ele>
        <time>2021-10-10T10:33:34Z</time>
      </trkpt>
      <trkpt lat="45.11859" lon="5.56307">
        <ele>1139.8</ele>
        <time>2021-10-10T10:33:35Z</time>
      </trkpt>
      <trkpt lat="45.1186" lon="5.5631">
        <ele>1139.8</ele>
        <time>2021-10-10T10:33:36Z</time>
      </trkpt>
      <trkpt lat="45.11861" lon="5.56312">
        <ele>1140.4</ele>
        <time>2021-10-10T10:33:37Z</time>
      </trkpt>
      <trkpt lat="45.11862" lon="5.56315">
        <ele>1140.4</ele>
        <time>2021-10-10T10:33:38Z</time>
      </trkpt>
      <trkpt lat="45.11864" lon="5.56316">
        <ele>1140.4</ele>
        <time>2021-10-10T10:33:39Z</time>
      </trkpt>
      <trkpt lat="45.11867" lon="5.56316">
        <ele>1140.4</ele>
        <time>2021-10-10T10:33:40Z</time>
      </trkpt>
      <trkpt lat="45.11869" lon="5.56314">
        <ele>1140.2</ele>
        <time>2021-10-10T10:33:41Z</time>
      </trkpt>
      <trkpt lat="45.11871" lon="5.56311">
        <ele>1140.4</ele>
        <time>2021-10-10T10:33:42Z</time>
      </trkpt>
      <trkpt lat="45.11873" lon="5.56307">
        <ele>1140.4</ele>
        <time>2021-10-10T10:33:43Z</time>
      </trkpt>
      <trkpt lat="45.11874" lon="5.56304">
        <ele>1140.4</ele>
        <time>2021-10-10T10:33:44Z</time>
      </trkpt>
      <trkpt lat="45.11876" lon="5.56301">
        <ele>1140.4</ele>
        <time>2021-10-10T10:33:45Z</time>
      </trkpt>
      <trkpt lat="45.11877" lon="5.56298">
        <ele>1140.6</ele>
        <time>2021-10-10T10:33:46Z</time>
      </trkpt>
      <trkpt lat="45.11879" lon="5.56295">
        <ele>1140.6</ele>
        <time>2021-10-10T10:33:47Z</time>
      </trkpt>
      <trkpt lat="45.11881" lon="5.56292">
        <ele>1140.6</ele>
        <time>2021-10-10T10:33:48Z</time>
      </trkpt>
      <trkpt lat="45.11882" lon="5.56289">
        <ele>1140.6</ele>
        <time>2021-10-10T10:33:49Z</time>
      </trkpt>
      <trkpt lat="45.11883" lon="5.56286">
        <ele>1141.4</ele>
        <time>2021-10-10T10:33:50Z</time>
      </trkpt>
      <trkpt lat="45.11885" lon="5.56283">
        <ele>1141.4</ele>
        <time>2021-10-10T10:33:51Z</time>
      </trkpt>
      <trkpt lat="45.11887" lon="5.5628">
        <ele>1141.4</ele>
        <time>2021-10-10T10:33:52Z</time>
      </trkpt>
      <trkpt lat="45.11888" lon="5.56277">
        <ele>1142.2</ele>
        <time>2021-10-10T10:33:53Z</time>
      </trkpt>
      <trkpt lat="45.1189" lon="5.56274">
        <ele>1142.2</ele>
        <time>2021-10-10T10:33:54Z</time>
      </trkpt>
      <trkpt lat="45.11891" lon="5.56271">
        <ele>1142.2</ele>
        <time>2021-10-10T10:33:55Z</time>
      </trkpt>
      <trkpt lat="45.11893" lon="5.56269">
        <ele>1142.2</ele>
        <time>2021-10-10T10:33:56Z</time>
      </trkpt>
      <trkpt lat="45.11894" lon="5.56266">
        <ele>1142.2</ele>
        <time>2021-10-10T10:33:57Z</time>
      </trkpt>
      <trkpt lat="45.11896" lon="5.56263">
        <ele>1142.4</ele>
        <time>2021-10-10T10:33:58Z</time>
      </trkpt>
      <trkpt lat="45.11898" lon="5.56261">
        <ele>1142.4</ele>
        <time>2021-10-10T10:33:59Z</time>
      </trkpt>
      <trkpt lat="45.11899" lon="5.56259">
        <ele>1142.4</ele>
        <time>2021-10-10T10:34:00Z</time>
      </trkpt>
      <trkpt lat="45.11901" lon="5.56256">
        <ele>1143.4</ele>
        <time>2021-10-10T10:34:01Z</time>
      </trkpt>
      <trkpt lat="45.11903" lon="5.56254">
        <ele>1143.4</ele>
        <time>2021-10-10T10:34:02Z</time>
      </trkpt>
      <trkpt lat="45.11904" lon="5.56252">
        <ele>1143.4</ele>
        <time>2021-10-10T10:34:03Z</time>
      </trkpt>
      <trkpt lat="45.11907" lon="5.56249">
        <ele>1143.4</ele>
        <time>2021-10-10T10:34:04Z</time>
      </trkpt>
      <trkpt lat="45.11908" lon="5.56247">
        <ele>1144.2</ele>
        <time>2021-10-10T10:34:05Z</time>
      </trkpt>
      <trkpt lat="45.1191" lon="5.56245">
        <ele>1144.4</ele>
        <time>2021-10-10T10:34:06Z</time>
      </trkpt>
      <trkpt lat="45.11912" lon="5.56243">
        <ele>1144.4</ele>
        <time>2021-10-10T10:34:07Z</time>
      </trkpt>
      <trkpt lat="45.11914" lon="5.56241">
        <ele>1144.4</ele>
        <time>2021-10-10T10:34:08Z</time>
      </trkpt>
      <trkpt lat="45.11916" lon="5.56239">
        <ele>1144.4</ele>
        <time>2021-10-10T10:34:09Z</time>
      </trkpt>
      <trkpt lat="45.11918" lon="5.56238">
        <ele>1144.4</ele>
        <time>2021-10-10T10:34:10Z</time>
      </trkpt>
      <trkpt lat="45.1192" lon="5.56236">
        <ele>1144.4</ele>
        <time>2021-10-10T10:34:11Z</time>
      </trkpt>
      <trkpt lat="45.11922" lon="5.56235">
        <ele>1144.4</ele>
        <time>2021-10-10T10:34:12Z</time>
      </trkpt>
      <trkpt lat="45.11924" lon="5.56233">
        <ele>1145</ele>
        <time>2021-10-10T10:34:13Z</time>
      </trkpt>
      <trkpt lat="45.11926" lon="5.56232">
        <ele>1145.2</ele>
        <time>2021-10-10T10:34:14Z</time>
      </trkpt>
      <trkpt lat="45.11928" lon="5.56231">
        <ele>1145.2</ele>
        <time>2021-10-10T10:34:15Z</time>
      </trkpt>
      <trkpt lat="45.1193" lon="5.56229">
        <ele>1145.2</ele>
        <time>2021-10-10T10:34:16Z</time>
      </trkpt>
      <trkpt lat="45.11932" lon="5.56228">
        <ele>1145.8</ele>
        <time>2021-10-10T10:34:17Z</time>
      </trkpt>
      <trkpt lat="45.11934" lon="5.56228">
        <ele>1145.6</ele>
        <time>2021-10-10T10:34:18Z</time>
      </trkpt>
      <trkpt lat="45.11936" lon="5.56227">
        <ele>1145.6</ele>
        <time>2021-10-10T10:34:19Z</time>
      </trkpt>
      <trkpt lat="45.11938" lon="5.56226">
        <ele>1145.6</ele>
        <time>2021-10-10T10:34:20Z</time>
      </trkpt>
      <trkpt lat="45.1194" lon="5.56226">
        <ele>1145.6</ele>
        <time>2021-10-10T10:34:21Z</time>
      </trkpt>
      <trkpt lat="45.11942" lon="5.56225">
        <ele>1147</ele>
        <time>2021-10-10T10:34:22Z</time>
      </trkpt>
      <trkpt lat="45.11944" lon="5.56224">
        <ele>1147</ele>
        <time>2021-10-10T10:34:23Z</time>
      </trkpt>
      <trkpt lat="45.11947" lon="5.56223">
        <ele>1147</ele>
        <time>2021-10-10T10:34:24Z</time>
      </trkpt>
      <trkpt lat="45.11949" lon="5.56223">
        <ele>1146.6</ele>
        <time>2021-10-10T10:34:25Z</time>
      </trkpt>
      <trkpt lat="45.11951" lon="5.56222">
        <ele>1147.2</ele>
        <time>2021-10-10T10:34:26Z</time>
      </trkpt>
      <trkpt lat="45.11953" lon="5.56221">
        <ele>1147.2</ele>
        <time>2021-10-10T10:34:27Z</time>
      </trkpt>
      <trkpt lat="45.11956" lon="5.56221">
        <ele>1147.2</ele>
        <time>2021-10-10T10:34:28Z</time>
      </trkpt>
      <trkpt lat="45.11958" lon="5.5622">
        <ele>1147.2</ele>
        <time>2021-10-10T10:34:29Z</time>
      </trkpt>
      <trkpt lat="45.1196" lon="5.5622">
        <ele>1147.8</ele>
        <time>2021-10-10T10:34:30Z</time>
      </trkpt>
      <trkpt lat="45.11962" lon="5.56219">
        <ele>1147.8</ele>
        <time>2021-10-10T10:34:31Z</time>
      </trkpt>
      <trkpt lat="45.11965" lon="5.56218">
        <ele>1147.8</ele>
        <time>2021-10-10T10:34:32Z</time>
      </trkpt>
      <trkpt lat="45.11967" lon="5.56217">
        <ele>1147.8</ele>
        <time>2021-10-10T10:34:33Z</time>
      </trkpt>
      <trkpt lat="45.11969" lon="5.56216">
        <ele>1148.8</ele>
        <time>2021-10-10T10:34:34Z</time>
      </trkpt>
      <trkpt lat="45.11972" lon="5.56215">
        <ele>1148.8</ele>
        <time>2021-10-10T10:34:35Z</time>
      </trkpt>
      <trkpt lat="45.11974" lon="5.56215">
        <ele>1148.8</ele>
        <time>2021-10-10T10:34:36Z</time>
      </trkpt>
      <trkpt lat="45.11976" lon="5.56214">
        <ele>1148.8</ele>
        <time>2021-10-10T10:34:37Z</time>
      </trkpt>
      <trkpt lat="45.11978" lon="5.56213">
        <ele>1149.2</ele>
        <time>2021-10-10T10:34:38Z</time>
      </trkpt>
      <trkpt lat="45.1198" lon="5.56212">
        <ele>1149.2</ele>
        <time>2021-10-10T10:34:39Z</time>
      </trkpt>
      <trkpt lat="45.11982" lon="5.56211">
        <ele>1149.2</ele>
        <time>2021-10-10T10:34:40Z</time>
      </trkpt>
      <trkpt lat="45.11984" lon="5.5621">
        <ele>1150.2</ele>
        <time>2021-10-10T10:34:41Z</time>
      </trkpt>
      <trkpt lat="45.11986" lon="5.5621">
        <ele>1150</ele>
        <time>2021-10-10T10:34:42Z</time>
      </trkpt>
      <trkpt lat="45.11989" lon="5.56209">
        <ele>1150</ele>
        <time>2021-10-10T10:34:43Z</time>
      </trkpt>
      <trkpt lat="45.11991" lon="5.56208">
        <ele>1150</ele>
        <time>2021-10-10T10:34:44Z</time>
      </trkpt>
      <trkpt lat="45.11993" lon="5.56207">
        <ele>1150.6</ele>
        <time>2021-10-10T10:34:45Z</time>
      </trkpt>
      <trkpt lat="45.11995" lon="5.56206">
        <ele>1150.8</ele>
        <time>2021-10-10T10:34:46Z</time>
      </trkpt>
      <trkpt lat="45.11997" lon="5.56205">
        <ele>1150.8</ele>
        <time>2021-10-10T10:34:47Z</time>
      </trkpt>
      <trkpt lat="45.12" lon="5.56204">
        <ele>1150.8</ele>
        <time>2021-10-10T10:34:48Z</time>
      </trkpt>
      <trkpt lat="45.12002" lon="5.56203">
        <ele>1151.4</ele>
        <time>2021-10-10T10:34:49Z</time>
      </trkpt>
      <trkpt lat="45.12004" lon="5.56201">
        <ele>1151.6</ele>
        <time>2021-10-10T10:34:50Z</time>
      </trkpt>
      <trkpt lat="45.12006" lon="5.562">
        <ele>1151.6</ele>
        <time>2021-10-10T10:34:51Z</time>
      </trkpt>
      <trkpt lat="45.12008" lon="5.56199">
        <ele>1151.6</ele>
        <time>2021-10-10T10:34:52Z</time>
      </trkpt>
      <trkpt lat="45.1201" lon="5.56198">
        <ele>1151.6</ele>
        <time>2021-10-10T10:34:53Z</time>
      </trkpt>
      <trkpt lat="45.12012" lon="5.56197">
        <ele>1151.6</ele>
        <time>2021-10-10T10:34:54Z</time>
      </trkpt>
      <trkpt lat="45.12014" lon="5.56196">
        <ele>1151.6</ele>
        <time>2021-10-10T10:34:55Z</time>
      </trkpt>
      <trkpt lat="45.12016" lon="5.56195">
        <ele>1151.6</ele>
        <time>2021-10-10T10:34:56Z</time>
      </trkpt>
      <trkpt lat="45.12019" lon="5.56194">
        <ele>1152</ele>
        <time>2021-10-10T10:34:57Z</time>
      </trkpt>
      <trkpt lat="45.12021" lon="5.56193">
        <ele>1152.8</ele>
        <time>2021-10-10T10:34:58Z</time>
      </trkpt>
      <trkpt lat="45.12023" lon="5.56192">
        <ele>1152.8</ele>
        <time>2021-10-10T10:34:59Z</time>
      </trkpt>
      <trkpt lat="45.12026" lon="5.56191">
        <ele>1152.8</ele>
        <time>2021-10-10T10:35:00Z</time>
      </trkpt>
      <trkpt lat="45.12028" lon="5.5619">
        <ele>1153.2</ele>
        <time>2021-10-10T10:35:01Z</time>
      </trkpt>
      <trkpt lat="45.1203" lon="5.56189">
        <ele>1153</ele>
        <time>2021-10-10T10:35:02Z</time>
      </trkpt>
      <trkpt lat="45.12033" lon="5.56188">
        <ele>1153</ele>
        <time>2021-10-10T10:35:03Z</time>
      </trkpt>
      <trkpt lat="45.12035" lon="5.56187">
        <ele>1153</ele>
        <time>2021-10-10T10:35:04Z</time>
      </trkpt>
      <trkpt lat="45.12037" lon="5.56186">
        <ele>1153.6</ele>
        <time>2021-10-10T10:35:05Z</time>
      </trkpt>
      <trkpt lat="45.12039" lon="5.56185">
        <ele>1153.6</ele>
        <time>2021-10-10T10:35:06Z</time>
      </trkpt>
      <trkpt lat="45.12042" lon="5.56185">
        <ele>1153.6</ele>
        <time>2021-10-10T10:35:07Z</time>
      </trkpt>
      <trkpt lat="45.12044" lon="5.56184">
        <ele>1153.6</ele>
        <time>2021-10-10T10:35:08Z</time>
      </trkpt>
      <trkpt lat="45.12047" lon="5.56183">
        <ele>1153.6</ele>
        <time>2021-10-10T10:35:09Z</time>
      </trkpt>
      <trkpt lat="45.12049" lon="5.56182">
        <ele>1154.2</ele>
        <time>2021-10-10T10:35:10Z</time>
      </trkpt>
      <trkpt lat="45.12052" lon="5.5618">
        <ele>1154.2</ele>
        <time>2021-10-10T10:35:11Z</time>
      </trkpt>
      <trkpt lat="45.12054" lon="5.56179">
        <ele>1154.2</ele>
        <time>2021-10-10T10:35:12Z</time>
      </trkpt>
      <trkpt lat="45.12057" lon="5.56178">
        <ele>1154.8</ele>
        <time>2021-10-10T10:35:13Z</time>
      </trkpt>
      <trkpt lat="45.12059" lon="5.56176">
        <ele>1154.8</ele>
        <time>2021-10-10T10:35:14Z</time>
      </trkpt>
      <trkpt lat="45.12061" lon="5.56175">
        <ele>1154.8</ele>
        <time>2021-10-10T10:35:15Z</time>
      </trkpt>
      <trkpt lat="45.12064" lon="5.56174">
        <ele>1154.8</ele>
        <time>2021-10-10T10:35:16Z</time>
      </trkpt>
      <trkpt lat="45.12066" lon="5.56173">
        <ele>1154.8</ele>
        <time>2021-10-10T10:35:17Z</time>
      </trkpt>
      <trkpt lat="45.12069" lon="5.56172">
        <ele>1155.6</ele>
        <time>2021-10-10T10:35:18Z</time>
      </trkpt>
      <trkpt lat="45.12071" lon="5.56171">
        <ele>1155.6</ele>
        <time>2021-10-10T10:35:19Z</time>
      </trkpt>
      <trkpt lat="45.12074" lon="5.56169">
        <ele>1155.6</ele>
        <time>2021-10-10T10:35:20Z</time>
      </trkpt>
      <trkpt lat="45.12077" lon="5.56168">
        <ele>1155.6</ele>
        <time>2021-10-10T10:35:21Z</time>
      </trkpt>
      <trkpt lat="45.1208" lon="5.56167">
        <ele>1156.6</ele>
        <time>2021-10-10T10:35:22Z</time>
      </trkpt>
      <trkpt lat="45.12082" lon="5.56166">
        <ele>1156.6</ele>
        <time>2021-10-10T10:35:23Z</time>
      </trkpt>
      <trkpt lat="45.12085" lon="5.56165">
        <ele>1156.6</ele>
        <time>2021-10-10T10:35:24Z</time>
      </trkpt>
      <trkpt lat="45.12087" lon="5.56164">
        <ele>1157</ele>
        <time>2021-10-10T10:35:25Z</time>
      </trkpt>
      <trkpt lat="45.1209" lon="5.56163">
        <ele>1157.2</ele>
        <time>2021-10-10T10:35:26Z</time>
      </trkpt>
      <trkpt lat="45.12092" lon="5.56162">
        <ele>1157.2</ele>
        <time>2021-10-10T10:35:27Z</time>
      </trkpt>
      <trkpt lat="45.12095" lon="5.56162">
        <ele>1157.2</ele>
        <time>2021-10-10T10:35:28Z</time>
      </trkpt>
      <trkpt lat="45.12097" lon="5.56161">
        <ele>1157.2</ele>
        <time>2021-10-10T10:35:29Z</time>
      </trkpt>
      <trkpt lat="45.121" lon="5.5616">
        <ele>1157.8</ele>
        <time>2021-10-10T10:35:30Z</time>
      </trkpt>
      <trkpt lat="45.12102" lon="5.56159">
        <ele>1157.8</ele>
        <time>2021-10-10T10:35:31Z</time>
      </trkpt>
      <trkpt lat="45.12105" lon="5.56158">
        <ele>1157.8</ele>
        <time>2021-10-10T10:35:32Z</time>
      </trkpt>
      <trkpt lat="45.12107" lon="5.56157">
        <ele>1157.8</ele>
        <time>2021-10-10T10:35:33Z</time>
      </trkpt>
      <trkpt lat="45.1211" lon="5.56156">
        <ele>1158.4</ele>
        <time>2021-10-10T10:35:34Z</time>
      </trkpt>
      <trkpt lat="45.12112" lon="5.56155">
        <ele>1158.4</ele>
        <time>2021-10-10T10:35:35Z</time>
      </trkpt>
      <trkpt lat="45.12115" lon="5.56154">
        <ele>1158.4</ele>
        <time>2021-10-10T10:35:36Z</time>
      </trkpt>
      <trkpt lat="45.12117" lon="5.56153">
        <ele>1159.4</ele>
        <time>2021-10-10T10:35:37Z</time>
      </trkpt>
      <trkpt lat="45.1212" lon="5.56152">
        <ele>1159.2</ele>
        <time>2021-10-10T10:35:38Z</time>
      </trkpt>
      <trkpt lat="45.12122" lon="5.56151">
        <ele>1159.2</ele>
        <time>2021-10-10T10:35:39Z</time>
      </trkpt>
      <trkpt lat="45.12125" lon="5.5615">
        <ele>1159.2</ele>
        <time>2021-10-10T10:35:40Z</time>
      </trkpt>
      <trkpt lat="45.12127" lon="5.56149">
        <ele>1160</ele>
        <time>2021-10-10T10:35:41Z</time>
      </trkpt>
      <trkpt lat="45.1213" lon="5.56148">
        <ele>1160.2</ele>
        <time>2021-10-10T10:35:42Z</time>
      </trkpt>
      <trkpt lat="45.12132" lon="5.56148">
        <ele>1160.2</ele>
        <time>2021-10-10T10:35:43Z</time>
      </trkpt>
      <trkpt lat="45.12135" lon="5.56147">
        <ele>1160.2</ele>
        <time>2021-10-10T10:35:44Z</time>
      </trkpt>
      <trkpt lat="45.12137" lon="5.56145">
        <ele>1160.2</ele>
        <time>2021-10-10T10:35:45Z</time>
      </trkpt>
      <trkpt lat="45.1214" lon="5.56144">
        <ele>1160.8</ele>
        <time>2021-10-10T10:35:46Z</time>
      </trkpt>
      <trkpt lat="45.12142" lon="5.56143">
        <ele>1160.8</ele>
        <time>2021-10-10T10:35:47Z</time>
      </trkpt>
      <trkpt lat="45.12144" lon="5.56142">
        <ele>1160.8</ele>
        <time>2021-10-10T10:35:48Z</time>
      </trkpt>
      <trkpt lat="45.12147" lon="5.56141">
        <ele>1160.8</ele>
        <time>2021-10-10T10:35:49Z</time>
      </trkpt>
      <trkpt lat="45.12149" lon="5.5614">
        <ele>1161.2</ele>
        <time>2021-10-10T10:35:50Z</time>
      </trkpt>
      <trkpt lat="45.12152" lon="5.56139">
        <ele>1161.2</ele>
        <time>2021-10-10T10:35:51Z</time>
      </trkpt>
      <trkpt lat="45.12154" lon="5.56138">
        <ele>1161.2</ele>
        <time>2021-10-10T10:35:52Z</time>
      </trkpt>
      <trkpt lat="45.12156" lon="5.56138">
        <ele>1161.4</ele>
        <time>2021-10-10T10:35:53Z</time>
      </trkpt>
      <trkpt lat="45.12159" lon="5.56137">
        <ele>1161.8</ele>
        <time>2021-10-10T10:35:54Z</time>
      </trkpt>
      <trkpt lat="45.12161" lon="5.56136">
        <ele>1161.8</ele>
        <time>2021-10-10T10:35:55Z</time>
      </trkpt>
      <trkpt lat="45.12164" lon="5.56135">
        <ele>1161.8</ele>
        <time>2021-10-10T10:35:56Z</time>
      </trkpt>
      <trkpt lat="45.12166" lon="5.56134">
        <ele>1162</ele>
        <time>2021-10-10T10:35:57Z</time>
      </trkpt>
      <trkpt lat="45.12168" lon="5.56133">
        <ele>1162.4</ele>
        <time>2021-10-10T10:35:58Z</time>
      </trkpt>
      <trkpt lat="45.12171" lon="5.56132">
        <ele>1162.4</ele>
        <time>2021-10-10T10:35:59Z</time>
      </trkpt>
      <trkpt lat="45.12173" lon="5.56131">
        <ele>1162.4</ele>
        <time>2021-10-10T10:36:00Z</time>
      </trkpt>
      <trkpt lat="45.12176" lon="5.5613">
        <ele>1162.6</ele>
        <time>2021-10-10T10:36:01Z</time>
      </trkpt>
      <trkpt lat="45.12178" lon="5.5613">
        <ele>1163</ele>
        <time>2021-10-10T10:36:02Z</time>
      </trkpt>
      <trkpt lat="45.12181" lon="5.56129">
        <ele>1163</ele>
        <time>2021-10-10T10:36:03Z</time>
      </trkpt>
      <trkpt lat="45.12183" lon="5.56128">
        <ele>1163</ele>
        <time>2021-10-10T10:36:04Z</time>
      </trkpt>
      <trkpt lat="45.12186" lon="5.56127">
        <ele>1163.6</ele>
        <time>2021-10-10T10:36:05Z</time>
      </trkpt>
      <trkpt lat="45.12188" lon="5.56126">
        <ele>1163.8</ele>
        <time>2021-10-10T10:36:06Z</time>
      </trkpt>
      <trkpt lat="45.1219" lon="5.56125">
        <ele>1163.8</ele>
        <time>2021-10-10T10:36:07Z</time>
      </trkpt>
      <trkpt lat="45.12193" lon="5.56124">
        <ele>1163.8</ele>
        <time>2021-10-10T10:36:08Z</time>
      </trkpt>
      <trkpt lat="45.12195" lon="5.56122">
        <ele>1163.8</ele>
        <time>2021-10-10T10:36:09Z</time>
      </trkpt>
      <trkpt lat="45.12198" lon="5.56121">
        <ele>1164</ele>
        <time>2021-10-10T10:36:10Z</time>
      </trkpt>
      <trkpt lat="45.122" lon="5.5612">
        <ele>1164</ele>
        <time>2021-10-10T10:36:11Z</time>
      </trkpt>
      <trkpt lat="45.12203" lon="5.56119">
        <ele>1164</ele>
        <time>2021-10-10T10:36:12Z</time>
      </trkpt>
      <trkpt lat="45.12205" lon="5.56119">
        <ele>1164.4</ele>
        <time>2021-10-10T10:36:13Z</time>
      </trkpt>
      <trkpt lat="45.12208" lon="5.56118">
        <ele>1164.8</ele>
        <time>2021-10-10T10:36:14Z</time>
      </trkpt>
      <trkpt lat="45.1221" lon="5.56117">
        <ele>1164.8</ele>
        <time>2021-10-10T10:36:15Z</time>
      </trkpt>
      <trkpt lat="45.12213" lon="5.56116">
        <ele>1164.8</ele>
        <time>2021-10-10T10:36:16Z</time>
      </trkpt>
      <trkpt lat="45.12215" lon="5.56115">
        <ele>1165</ele>
        <time>2021-10-10T10:36:17Z</time>
      </trkpt>
      <trkpt lat="45.12218" lon="5.56114">
        <ele>1165.4</ele>
        <time>2021-10-10T10:36:18Z</time>
      </trkpt>
      <trkpt lat="45.1222" lon="5.56114">
        <ele>1165.4</ele>
        <time>2021-10-10T10:36:19Z</time>
      </trkpt>
      <trkpt lat="45.12223" lon="5.56113">
        <ele>1165.4</ele>
        <time>2021-10-10T10:36:20Z</time>
      </trkpt>
      <trkpt lat="45.12225" lon="5.56112">
        <ele>1166.4</ele>
        <time>2021-10-10T10:36:21Z</time>
      </trkpt>
      <trkpt lat="45.12228" lon="5.56111">
        <ele>1166.8</ele>
        <time>2021-10-10T10:36:22Z</time>
      </trkpt>
      <trkpt lat="45.1223" lon="5.5611">
        <ele>1166.8</ele>
        <time>2021-10-10T10:36:23Z</time>
      </trkpt>
      <trkpt lat="45.12233" lon="5.56109">
        <ele>1166.8</ele>
        <time>2021-10-10T10:36:24Z</time>
      </trkpt>
      <trkpt lat="45.12235" lon="5.56108">
        <ele>1167.2</ele>
        <time>2021-10-10T10:36:25Z</time>
      </trkpt>
      <trkpt lat="45.12237" lon="5.56106">
        <ele>1167.4</ele>
        <time>2021-10-10T10:36:26Z</time>
      </trkpt>
      <trkpt lat="45.1224" lon="5.56105">
        <ele>1167.4</ele>
        <time>2021-10-10T10:36:27Z</time>
      </trkpt>
      <trkpt lat="45.12243" lon="5.56104">
        <ele>1167.4</ele>
        <time>2021-10-10T10:36:28Z</time>
      </trkpt>
      <trkpt lat="45.12245" lon="5.56103">
        <ele>1167.4</ele>
        <time>2021-10-10T10:36:29Z</time>
      </trkpt>
      <trkpt lat="45.12247" lon="5.56101">
        <ele>1167.8</ele>
        <time>2021-10-10T10:36:30Z</time>
      </trkpt>
      <trkpt lat="45.1225" lon="5.561">
        <ele>1167.8</ele>
        <time>2021-10-10T10:36:31Z</time>
      </trkpt>
      <trkpt lat="45.12252" lon="5.56099">
        <ele>1167.8</ele>
        <time>2021-10-10T10:36:32Z</time>
      </trkpt>
      <trkpt lat="45.12255" lon="5.56098">
        <ele>1167.8</ele>
        <time>2021-10-10T10:36:33Z</time>
      </trkpt>
      <trkpt lat="45.12257" lon="5.56097">
        <ele>1168</ele>
        <time>2021-10-10T10:36:34Z</time>
      </trkpt>
      <trkpt lat="45.12259" lon="5.56096">
        <ele>1168</ele>
        <time>2021-10-10T10:36:35Z</time>
      </trkpt>
      <trkpt lat="45.12262" lon="5.56095">
        <ele>1168</ele>
        <time>2021-10-10T10:36:36Z</time>
      </trkpt>
      <trkpt lat="45.12264" lon="5.56093">
        <ele>1168.2</ele>
        <time>2021-10-10T10:36:37Z</time>
      </trkpt>
      <trkpt lat="45.12266" lon="5.56092">
        <ele>1168.4</ele>
        <time>2021-10-10T10:36:38Z</time>
      </trkpt>
      <trkpt lat="45.12269" lon="5.56091">
        <ele>1168.4</ele>
        <time>2021-10-10T10:36:39Z</time>
      </trkpt>
      <trkpt lat="45.12271" lon="5.5609">
        <ele>1168.4</ele>
        <time>2021-10-10T10:36:40Z</time>
      </trkpt>
      <trkpt lat="45.12274" lon="5.56089">
        <ele>1168.4</ele>
        <time>2021-10-10T10:36:41Z</time>
      </trkpt>
      <trkpt lat="45.12277" lon="5.56088">
        <ele>1169.2</ele>
        <time>2021-10-10T10:36:42Z</time>
      </trkpt>
      <trkpt lat="45.12279" lon="5.56088">
        <ele>1169.2</ele>
        <time>2021-10-10T10:36:43Z</time>
      </trkpt>
      <trkpt lat="45.12282" lon="5.56087">
        <ele>1169.2</ele>
        <time>2021-10-10T10:36:44Z</time>
      </trkpt>
      <trkpt lat="45.12285" lon="5.56087">
        <ele>1169.4</ele>
        <time>2021-10-10T10:36:45Z</time>
      </trkpt>
      <trkpt lat="45.12287" lon="5.56086">
        <ele>1170</ele>
        <time>2021-10-10T10:36:46Z</time>
      </trkpt>
      <trkpt lat="45.1229" lon="5.56086">
        <ele>1170</ele>
        <time>2021-10-10T10:36:47Z</time>
      </trkpt>
      <trkpt lat="45.12292" lon="5.56086">
        <ele>1170</ele>
        <time>2021-10-10T10:36:48Z</time>
      </trkpt>
      <trkpt lat="45.12295" lon="5.56086">
        <ele>1170</ele>
        <time>2021-10-10T10:36:49Z</time>
      </trkpt>
      <trkpt lat="45.12298" lon="5.56086">
        <ele>1170.4</ele>
        <time>2021-10-10T10:36:50Z</time>
      </trkpt>
      <trkpt lat="45.12301" lon="5.56086">
        <ele>1170.4</ele>
        <time>2021-10-10T10:36:51Z</time>
      </trkpt>
      <trkpt lat="45.12303" lon="5.56086">
        <ele>1170.4</ele>
        <time>2021-10-10T10:36:52Z</time>
      </trkpt>
      <trkpt lat="45.12306" lon="5.56086">
        <ele>1170.4</ele>
        <time>2021-10-10T10:36:53Z</time>
      </trkpt>
      <trkpt lat="45.12309" lon="5.56086">
        <ele>1170.6</ele>
        <time>2021-10-10T10:36:54Z</time>
      </trkpt>
      <trkpt lat="45.12311" lon="5.56087">
        <ele>1170.6</ele>
        <time>2021-10-10T10:36:55Z</time>
      </trkpt>
      <trkpt lat="45.12314" lon="5.56088">
        <ele>1170.6</ele>
        <time>2021-10-10T10:36:56Z</time>
      </trkpt>
      <trkpt lat="45.12317" lon="5.56089">
        <ele>1170.6</ele>
        <time>2021-10-10T10:36:57Z</time>
      </trkpt>
      <trkpt lat="45.12319" lon="5.5609">
        <ele>1171.2</ele>
        <time>2021-10-10T10:36:58Z</time>
      </trkpt>
      <trkpt lat="45.12322" lon="5.56091">
        <ele>1171.2</ele>
        <time>2021-10-10T10:36:59Z</time>
      </trkpt>
      <trkpt lat="45.12324" lon="5.56092">
        <ele>1171.2</ele>
        <time>2021-10-10T10:37:00Z</time>
      </trkpt>
      <trkpt lat="45.12327" lon="5.56093">
        <ele>1171.8</ele>
        <time>2021-10-10T10:37:01Z</time>
      </trkpt>
      <trkpt lat="45.1233" lon="5.56094">
        <ele>1172.2</ele>
        <time>2021-10-10T10:37:02Z</time>
      </trkpt>
      <trkpt lat="45.12332" lon="5.56096">
        <ele>1172.2</ele>
        <time>2021-10-10T10:37:03Z</time>
      </trkpt>
      <trkpt lat="45.12335" lon="5.56097">
        <ele>1172.2</ele>
        <time>2021-10-10T10:37:04Z</time>
      </trkpt>
      <trkpt lat="45.12338" lon="5.56099">
        <ele>1172.2</ele>
        <time>2021-10-10T10:37:05Z</time>
      </trkpt>
      <trkpt lat="45.1234" lon="5.56101">
        <ele>1172</ele>
        <time>2021-10-10T10:37:06Z</time>
      </trkpt>
      <trkpt lat="45.12343" lon="5.56103">
        <ele>1172</ele>
        <time>2021-10-10T10:37:07Z</time>
      </trkpt>
      <trkpt lat="45.12345" lon="5.56105">
        <ele>1172</ele>
        <time>2021-10-10T10:37:08Z</time>
      </trkpt>
      <trkpt lat="45.12347" lon="5.56107">
        <ele>1172.4</ele>
        <time>2021-10-10T10:37:09Z</time>
      </trkpt>
      <trkpt lat="45.1235" lon="5.56109">
        <ele>1172.4</ele>
        <time>2021-10-10T10:37:10Z</time>
      </trkpt>
      <trkpt lat="45.12353" lon="5.56111">
        <ele>1172.4</ele>
        <time>2021-10-10T10:37:11Z</time>
      </trkpt>
      <trkpt lat="45.12355" lon="5.56112">
        <ele>1172.4</ele>
        <time>2021-10-10T10:37:12Z</time>
      </trkpt>
      <trkpt lat="45.12358" lon="5.56114">
        <ele>1173</ele>
        <time>2021-10-10T10:37:13Z</time>
      </trkpt>
      <trkpt lat="45.12361" lon="5.56115">
        <ele>1173</ele>
        <time>2021-10-10T10:37:14Z</time>
      </trkpt>
      <trkpt lat="45.12363" lon="5.56117">
        <ele>1173</ele>
        <time>2021-10-10T10:37:15Z</time>
      </trkpt>
      <trkpt lat="45.12366" lon="5.56119">
        <ele>1173</ele>
        <time>2021-10-10T10:37:16Z</time>
      </trkpt>
      <trkpt lat="45.12369" lon="5.56121">
        <ele>1173.6</ele>
        <time>2021-10-10T10:37:17Z</time>
      </trkpt>
      <trkpt lat="45.12371" lon="5.56122">
        <ele>1173.8</ele>
        <time>2021-10-10T10:37:18Z</time>
      </trkpt>
      <trkpt lat="45.12374" lon="5.56123">
        <ele>1173.8</ele>
        <time>2021-10-10T10:37:19Z</time>
      </trkpt>
      <trkpt lat="45.12377" lon="5.56124">
        <ele>1173.8</ele>
        <time>2021-10-10T10:37:20Z</time>
      </trkpt>
      <trkpt lat="45.12379" lon="5.56125">
        <ele>1174</ele>
        <time>2021-10-10T10:37:21Z</time>
      </trkpt>
      <trkpt lat="45.12382" lon="5.56127">
        <ele>1174.6</ele>
        <time>2021-10-10T10:37:22Z</time>
      </trkpt>
      <trkpt lat="45.12385" lon="5.56128">
        <ele>1174.6</ele>
        <time>2021-10-10T10:37:23Z</time>
      </trkpt>
      <trkpt lat="45.12387" lon="5.56129">
        <ele>1174.6</ele>
        <time>2021-10-10T10:37:24Z</time>
      </trkpt>
      <trkpt lat="45.1239" lon="5.5613">
        <ele>1174.6</ele>
        <time>2021-10-10T10:37:25Z</time>
      </trkpt>
      <trkpt lat="45.12393" lon="5.56131">
        <ele>1174.8</ele>
        <time>2021-10-10T10:37:26Z</time>
      </trkpt>
      <trkpt lat="45.12396" lon="5.56132">
        <ele>1174.8</ele>
        <time>2021-10-10T10:37:27Z</time>
      </trkpt>
      <trkpt lat="45.12399" lon="5.56133">
        <ele>1174.8</ele>
        <time>2021-10-10T10:37:28Z</time>
      </trkpt>
      <trkpt lat="45.12402" lon="5.56133">
        <ele>1174.8</ele>
        <time>2021-10-10T10:37:29Z</time>
      </trkpt>
      <trkpt lat="45.12405" lon="5.56134">
        <ele>1175</ele>
        <time>2021-10-10T10:37:30Z</time>
      </trkpt>
      <trkpt lat="45.12408" lon="5.56134">
        <ele>1175</ele>
        <time>2021-10-10T10:37:31Z</time>
      </trkpt>
      <trkpt lat="45.12411" lon="5.56134">
        <ele>1175</ele>
        <time>2021-10-10T10:37:32Z</time>
      </trkpt>
      <trkpt lat="45.12414" lon="5.56134">
        <ele>1175.6</ele>
        <time>2021-10-10T10:37:33Z</time>
      </trkpt>
      <trkpt lat="45.12416" lon="5.56133">
        <ele>1176</ele>
        <time>2021-10-10T10:37:34Z</time>
      </trkpt>
      <trkpt lat="45.12419" lon="5.56132">
        <ele>1176</ele>
        <time>2021-10-10T10:37:35Z</time>
      </trkpt>
      <trkpt lat="45.12422" lon="5.56131">
        <ele>1176</ele>
        <time>2021-10-10T10:37:36Z</time>
      </trkpt>
      <trkpt lat="45.12425" lon="5.5613">
        <ele>1176</ele>
        <time>2021-10-10T10:37:37Z</time>
      </trkpt>
      <trkpt lat="45.12427" lon="5.56129">
        <ele>1176.4</ele>
        <time>2021-10-10T10:37:38Z</time>
      </trkpt>
      <trkpt lat="45.1243" lon="5.56127">
        <ele>1176.4</ele>
        <time>2021-10-10T10:37:39Z</time>
      </trkpt>
      <trkpt lat="45.12432" lon="5.56125">
        <ele>1176.4</ele>
        <time>2021-10-10T10:37:40Z</time>
      </trkpt>
      <trkpt lat="45.12435" lon="5.56123">
        <ele>1176.8</ele>
        <time>2021-10-10T10:37:41Z</time>
      </trkpt>
      <trkpt lat="45.12437" lon="5.56121">
        <ele>1177</ele>
        <time>2021-10-10T10:37:42Z</time>
      </trkpt>
      <trkpt lat="45.1244" lon="5.5612">
        <ele>1177</ele>
        <time>2021-10-10T10:37:43Z</time>
      </trkpt>
      <trkpt lat="45.12442" lon="5.56118">
        <ele>1177</ele>
        <time>2021-10-10T10:37:44Z</time>
      </trkpt>
      <trkpt lat="45.12445" lon="5.56116">
        <ele>1177.4</ele>
        <time>2021-10-10T10:37:45Z</time>
      </trkpt>
      <trkpt lat="45.12447" lon="5.56114">
        <ele>1178</ele>
        <time>2021-10-10T10:37:46Z</time>
      </trkpt>
      <trkpt lat="45.12449" lon="5.56111">
        <ele>1178</ele>
        <time>2021-10-10T10:37:47Z</time>
      </trkpt>
      <trkpt lat="45.12452" lon="5.56109">
        <ele>1178</ele>
        <time>2021-10-10T10:37:48Z</time>
      </trkpt>
      <trkpt lat="45.12454" lon="5.56107">
        <ele>1178</ele>
        <time>2021-10-10T10:37:49Z</time>
      </trkpt>
      <trkpt lat="45.12456" lon="5.56104">
        <ele>1178.2</ele>
        <time>2021-10-10T10:37:50Z</time>
      </trkpt>
      <trkpt lat="45.12458" lon="5.56102">
        <ele>1178.2</ele>
        <time>2021-10-10T10:37:51Z</time>
      </trkpt>
      <trkpt lat="45.12461" lon="5.56099">
        <ele>1178.2</ele>
        <time>2021-10-10T10:37:52Z</time>
      </trkpt>
      <trkpt lat="45.12463" lon="5.56096">
        <ele>1178.8</ele>
        <time>2021-10-10T10:37:53Z</time>
      </trkpt>
      <trkpt lat="45.12465" lon="5.56094">
        <ele>1178.8</ele>
        <time>2021-10-10T10:37:54Z</time>
      </trkpt>
      <trkpt lat="45.12467" lon="5.56091">
        <ele>1178.8</ele>
        <time>2021-10-10T10:37:55Z</time>
      </trkpt>
      <trkpt lat="45.1247" lon="5.56088">
        <ele>1178.8</ele>
        <time>2021-10-10T10:37:56Z</time>
      </trkpt>
      <trkpt lat="45.12472" lon="5.56086">
        <ele>1178.8</ele>
        <time>2021-10-10T10:37:57Z</time>
      </trkpt>
      <trkpt lat="45.12474" lon="5.56083">
        <ele>1179</ele>
        <time>2021-10-10T10:37:58Z</time>
      </trkpt>
      <trkpt lat="45.12476" lon="5.5608">
        <ele>1179</ele>
        <time>2021-10-10T10:37:59Z</time>
      </trkpt>
      <trkpt lat="45.12478" lon="5.56077">
        <ele>1179</ele>
        <time>2021-10-10T10:38:00Z</time>
      </trkpt>
      <trkpt lat="45.1248" lon="5.56075">
        <ele>1179.8</ele>
        <time>2021-10-10T10:38:01Z</time>
      </trkpt>
      <trkpt lat="45.12482" lon="5.56072">
        <ele>1179.8</ele>
        <time>2021-10-10T10:38:02Z</time>
      </trkpt>
      <trkpt lat="45.12484" lon="5.56069">
        <ele>1179.8</ele>
        <time>2021-10-10T10:38:03Z</time>
      </trkpt>
      <trkpt lat="45.12486" lon="5.56067">
        <ele>1179.8</ele>
        <time>2021-10-10T10:38:04Z</time>
      </trkpt>
      <trkpt lat="45.12488" lon="5.56064">
        <ele>1180.2</ele>
        <time>2021-10-10T10:38:05Z</time>
      </trkpt>
      <trkpt lat="45.1249" lon="5.56062">
        <ele>1180.6</ele>
        <time>2021-10-10T10:38:06Z</time>
      </trkpt>
      <trkpt lat="45.12492" lon="5.5606">
        <ele>1180.6</ele>
        <time>2021-10-10T10:38:07Z</time>
      </trkpt>
      <trkpt lat="45.12495" lon="5.56057">
        <ele>1180.6</ele>
        <time>2021-10-10T10:38:08Z</time>
      </trkpt>
      <trkpt lat="45.12497" lon="5.56054">
        <ele>1180.8</ele>
        <time>2021-10-10T10:38:09Z</time>
      </trkpt>
      <trkpt lat="45.12499" lon="5.56052">
        <ele>1180.4</ele>
        <time>2021-10-10T10:38:10Z</time>
      </trkpt>
      <trkpt lat="45.12501" lon="5.56049">
        <ele>1180.4</ele>
        <time>2021-10-10T10:38:11Z</time>
      </trkpt>
      <trkpt lat="45.12503" lon="5.56046">
        <ele>1180.4</ele>
        <time>2021-10-10T10:38:12Z</time>
      </trkpt>
      <trkpt lat="45.12504" lon="5.56043">
        <ele>1181.4</ele>
        <time>2021-10-10T10:38:13Z</time>
      </trkpt>
      <trkpt lat="45.12507" lon="5.56041">
        <ele>1181.8</ele>
        <time>2021-10-10T10:38:14Z</time>
      </trkpt>
      <trkpt lat="45.12509" lon="5.56039">
        <ele>1181.8</ele>
        <time>2021-10-10T10:38:15Z</time>
      </trkpt>
      <trkpt lat="45.12511" lon="5.56037">
        <ele>1181.8</ele>
        <time>2021-10-10T10:38:16Z</time>
      </trkpt>
      <trkpt lat="45.12514" lon="5.56035">
        <ele>1182.2</ele>
        <time>2021-10-10T10:38:17Z</time>
      </trkpt>
      <trkpt lat="45.12516" lon="5.56033">
        <ele>1182.4</ele>
        <time>2021-10-10T10:38:18Z</time>
      </trkpt>
      <trkpt lat="45.12519" lon="5.56031">
        <ele>1182.4</ele>
        <time>2021-10-10T10:38:19Z</time>
      </trkpt>
      <trkpt lat="45.12521" lon="5.56028">
        <ele>1182.4</ele>
        <time>2021-10-10T10:38:20Z</time>
      </trkpt>
      <trkpt lat="45.12523" lon="5.56026">
        <ele>1183.2</ele>
        <time>2021-10-10T10:38:21Z</time>
      </trkpt>
      <trkpt lat="45.12524" lon="5.56023">
        <ele>1183.4</ele>
        <time>2021-10-10T10:38:22Z</time>
      </trkpt>
      <trkpt lat="45.12526" lon="5.5602">
        <ele>1183.4</ele>
        <time>2021-10-10T10:38:23Z</time>
      </trkpt>
      <trkpt lat="45.12528" lon="5.56018">
        <ele>1183.4</ele>
        <time>2021-10-10T10:38:24Z</time>
      </trkpt>
      <trkpt lat="45.1253" lon="5.56015">
        <ele>1183.4</ele>
        <time>2021-10-10T10:38:25Z</time>
      </trkpt>
      <trkpt lat="45.12532" lon="5.56012">
        <ele>1183.8</ele>
        <time>2021-10-10T10:38:26Z</time>
      </trkpt>
      <trkpt lat="45.12534" lon="5.5601">
        <ele>1183.8</ele>
        <time>2021-10-10T10:38:27Z</time>
      </trkpt>
      <trkpt lat="45.12536" lon="5.56008">
        <ele>1183.8</ele>
        <time>2021-10-10T10:38:28Z</time>
      </trkpt>
      <trkpt lat="45.12537" lon="5.56005">
        <ele>1183.8</ele>
        <time>2021-10-10T10:38:29Z</time>
      </trkpt>
      <trkpt lat="45.12539" lon="5.56002">
        <ele>1184.4</ele>
        <time>2021-10-10T10:38:30Z</time>
      </trkpt>
      <trkpt lat="45.12541" lon="5.56">
        <ele>1184.4</ele>
        <time>2021-10-10T10:38:31Z</time>
      </trkpt>
      <trkpt lat="45.12543" lon="5.55997">
        <ele>1184.4</ele>
        <time>2021-10-10T10:38:32Z</time>
      </trkpt>
      <trkpt lat="45.12545" lon="5.55994">
        <ele>1184.8</ele>
        <time>2021-10-10T10:38:33Z</time>
      </trkpt>
      <trkpt lat="45.12547" lon="5.55992">
        <ele>1184.8</ele>
        <time>2021-10-10T10:38:34Z</time>
      </trkpt>
      <trkpt lat="45.12549" lon="5.55989">
        <ele>1184.8</ele>
        <time>2021-10-10T10:38:35Z</time>
      </trkpt>
      <trkpt lat="45.12551" lon="5.55986">
        <ele>1184.8</ele>
        <time>2021-10-10T10:38:36Z</time>
      </trkpt>
      <trkpt lat="45.12553" lon="5.55984">
        <ele>1185.8</ele>
        <time>2021-10-10T10:38:37Z</time>
      </trkpt>
      <trkpt lat="45.12555" lon="5.55982">
        <ele>1185.8</ele>
        <time>2021-10-10T10:38:38Z</time>
      </trkpt>
      <trkpt lat="45.12557" lon="5.5598">
        <ele>1185.6</ele>
        <time>2021-10-10T10:38:39Z</time>
      </trkpt>
      <trkpt lat="45.12559" lon="5.55978">
        <ele>1185.6</ele>
        <time>2021-10-10T10:38:40Z</time>
      </trkpt>
      <trkpt lat="45.1256" lon="5.55975">
        <ele>1186.2</ele>
        <time>2021-10-10T10:38:41Z</time>
      </trkpt>
      <trkpt lat="45.12562" lon="5.55973">
        <ele>1186.2</ele>
        <time>2021-10-10T10:38:42Z</time>
      </trkpt>
      <trkpt lat="45.12564" lon="5.5597">
        <ele>1186.2</ele>
        <time>2021-10-10T10:38:43Z</time>
      </trkpt>
      <trkpt lat="45.12566" lon="5.55967">
        <ele>1186.2</ele>
        <time>2021-10-10T10:38:44Z</time>
      </trkpt>
      <trkpt lat="45.12567" lon="5.55965">
        <ele>1186.2</ele>
        <time>2021-10-10T10:38:45Z</time>
      </trkpt>
      <trkpt lat="45.1257" lon="5.55963">
        <ele>1187</ele>
        <time>2021-10-10T10:38:46Z</time>
      </trkpt>
      <trkpt lat="45.12572" lon="5.5596">
        <ele>1187</ele>
        <time>2021-10-10T10:38:47Z</time>
      </trkpt>
      <trkpt lat="45.12574" lon="5.55958">
        <ele>1187</ele>
        <time>2021-10-10T10:38:48Z</time>
      </trkpt>
      <trkpt lat="45.12577" lon="5.55956">
        <ele>1187.4</ele>
        <time>2021-10-10T10:38:49Z</time>
      </trkpt>
      <trkpt lat="45.12579" lon="5.55954">
        <ele>1187.4</ele>
        <time>2021-10-10T10:38:50Z</time>
      </trkpt>
      <trkpt lat="45.12582" lon="5.55952">
        <ele>1187.4</ele>
        <time>2021-10-10T10:38:51Z</time>
      </trkpt>
      <trkpt lat="45.12584" lon="5.5595">
        <ele>1187.4</ele>
        <time>2021-10-10T10:38:52Z</time>
      </trkpt>
      <trkpt lat="45.12586" lon="5.55949">
        <ele>1188.2</ele>
        <time>2021-10-10T10:38:53Z</time>
      </trkpt>
      <trkpt lat="45.12588" lon="5.55947">
        <ele>1187.8</ele>
        <time>2021-10-10T10:38:54Z</time>
      </trkpt>
      <trkpt lat="45.1259" lon="5.55946">
        <ele>1187.8</ele>
        <time>2021-10-10T10:38:55Z</time>
      </trkpt>
      <trkpt lat="45.12593" lon="5.55945">
        <ele>1187.8</ele>
        <time>2021-10-10T10:38:56Z</time>
      </trkpt>
      <trkpt lat="45.12595" lon="5.55944">
        <ele>1188.4</ele>
        <time>2021-10-10T10:38:57Z</time>
      </trkpt>
      <trkpt lat="45.12598" lon="5.55943">
        <ele>1188.6</ele>
        <time>2021-10-10T10:38:58Z</time>
      </trkpt>
      <trkpt lat="45.12599" lon="5.55941">
        <ele>1188.6</ele>
        <time>2021-10-10T10:38:59Z</time>
      </trkpt>
      <trkpt lat="45.12601" lon="5.5594">
        <ele>1188.6</ele>
        <time>2021-10-10T10:39:00Z</time>
      </trkpt>
      <trkpt lat="45.12603" lon="5.55939">
        <ele>1188.6</ele>
        <time>2021-10-10T10:39:01Z</time>
      </trkpt>
      <trkpt lat="45.12605" lon="5.55938">
        <ele>1189.4</ele>
        <time>2021-10-10T10:39:02Z</time>
      </trkpt>
      <trkpt lat="45.12607" lon="5.55937">
        <ele>1189.4</ele>
        <time>2021-10-10T10:39:03Z</time>
      </trkpt>
      <trkpt lat="45.1261" lon="5.55936">
        <ele>1189.4</ele>
        <time>2021-10-10T10:39:04Z</time>
      </trkpt>
      <trkpt lat="45.12612" lon="5.55936">
        <ele>1190.4</ele>
        <time>2021-10-10T10:39:05Z</time>
      </trkpt>
      <trkpt lat="45.12613" lon="5.55935">
        <ele>1190.4</ele>
        <time>2021-10-10T10:39:06Z</time>
      </trkpt>
      <trkpt lat="45.12617" lon="5.55934">
        <ele>1190.4</ele>
        <time>2021-10-10T10:39:07Z</time>
      </trkpt>
      <trkpt lat="45.12619" lon="5.55932">
        <ele>1190.4</ele>
        <time>2021-10-10T10:39:08Z</time>
      </trkpt>
      <trkpt lat="45.12623" lon="5.55932">
        <ele>1190.4</ele>
        <time>2021-10-10T10:39:09Z</time>
      </trkpt>
      <trkpt lat="45.12626" lon="5.55932">
        <ele>1190.8</ele>
        <time>2021-10-10T10:39:10Z</time>
      </trkpt>
      <trkpt lat="45.12629" lon="5.55931">
        <ele>1190.8</ele>
        <time>2021-10-10T10:39:11Z</time>
      </trkpt>
      <trkpt lat="45.12632" lon="5.55931">
        <ele>1190.8</ele>
        <time>2021-10-10T10:39:12Z</time>
      </trkpt>
      <trkpt lat="45.12635" lon="5.55932">
        <ele>1190.8</ele>
        <time>2021-10-10T10:39:13Z</time>
      </trkpt>
      <trkpt lat="45.12639" lon="5.55931">
        <ele>1191.2</ele>
        <time>2021-10-10T10:39:14Z</time>
      </trkpt>
      <trkpt lat="45.12642" lon="5.55931">
        <ele>1191.2</ele>
        <time>2021-10-10T10:39:15Z</time>
      </trkpt>
      <trkpt lat="45.12645" lon="5.55931">
        <ele>1191.2</ele>
        <time>2021-10-10T10:39:16Z</time>
      </trkpt>
      <trkpt lat="45.12648" lon="5.5593">
        <ele>1192.2</ele>
        <time>2021-10-10T10:39:17Z</time>
      </trkpt>
      <trkpt lat="45.12651" lon="5.55931">
        <ele>1192.6</ele>
        <time>2021-10-10T10:39:18Z</time>
      </trkpt>
      <trkpt lat="45.12653" lon="5.55932">
        <ele>1192.6</ele>
        <time>2021-10-10T10:39:19Z</time>
      </trkpt>
      <trkpt lat="45.12656" lon="5.55931">
        <ele>1192.6</ele>
        <time>2021-10-10T10:39:20Z</time>
      </trkpt>
      <trkpt lat="45.12659" lon="5.55931">
        <ele>1192.6</ele>
        <time>2021-10-10T10:39:21Z</time>
      </trkpt>
      <trkpt lat="45.12661" lon="5.55931">
        <ele>1193.4</ele>
        <time>2021-10-10T10:39:22Z</time>
      </trkpt>
      <trkpt lat="45.12664" lon="5.55932">
        <ele>1193.4</ele>
        <time>2021-10-10T10:39:23Z</time>
      </trkpt>
      <trkpt lat="45.12667" lon="5.55933">
        <ele>1193.4</ele>
        <time>2021-10-10T10:39:24Z</time>
      </trkpt>
      <trkpt lat="45.12669" lon="5.55934">
        <ele>1193.4</ele>
        <time>2021-10-10T10:39:25Z</time>
      </trkpt>
      <trkpt lat="45.12672" lon="5.55933">
        <ele>1194</ele>
        <time>2021-10-10T10:39:26Z</time>
      </trkpt>
      <trkpt lat="45.12674" lon="5.55934">
        <ele>1194</ele>
        <time>2021-10-10T10:39:27Z</time>
      </trkpt>
      <trkpt lat="45.12677" lon="5.55936">
        <ele>1194</ele>
        <time>2021-10-10T10:39:28Z</time>
      </trkpt>
      <trkpt lat="45.1268" lon="5.55937">
        <ele>1194</ele>
        <time>2021-10-10T10:39:29Z</time>
      </trkpt>
      <trkpt lat="45.12683" lon="5.55938">
        <ele>1195.2</ele>
        <time>2021-10-10T10:39:30Z</time>
      </trkpt>
      <trkpt lat="45.12686" lon="5.5594">
        <ele>1195.2</ele>
        <time>2021-10-10T10:39:31Z</time>
      </trkpt>
      <trkpt lat="45.12689" lon="5.55941">
        <ele>1195.2</ele>
        <time>2021-10-10T10:39:32Z</time>
      </trkpt>
      <trkpt lat="45.12692" lon="5.55943">
        <ele>1195.6</ele>
        <time>2021-10-10T10:39:33Z</time>
      </trkpt>
      <trkpt lat="45.12695" lon="5.55945">
        <ele>1195.8</ele>
        <time>2021-10-10T10:39:34Z</time>
      </trkpt>
      <trkpt lat="45.12697" lon="5.55946">
        <ele>1195.8</ele>
        <time>2021-10-10T10:39:35Z</time>
      </trkpt>
      <trkpt lat="45.127" lon="5.55948">
        <ele>1195.8</ele>
        <time>2021-10-10T10:39:36Z</time>
      </trkpt>
      <trkpt lat="45.12703" lon="5.55949">
        <ele>1195.8</ele>
        <time>2021-10-10T10:39:37Z</time>
      </trkpt>
      <trkpt lat="45.12706" lon="5.5595">
        <ele>1196.6</ele>
        <time>2021-10-10T10:39:38Z</time>
      </trkpt>
      <trkpt lat="45.12709" lon="5.55952">
        <ele>1196.6</ele>
        <time>2021-10-10T10:39:39Z</time>
      </trkpt>
      <trkpt lat="45.12711" lon="5.55955">
        <ele>1196.6</ele>
        <time>2021-10-10T10:39:40Z</time>
      </trkpt>
      <trkpt lat="45.12714" lon="5.55956">
        <ele>1197.6</ele>
        <time>2021-10-10T10:39:41Z</time>
      </trkpt>
      <trkpt lat="45.12717" lon="5.55958">
        <ele>1197.6</ele>
        <time>2021-10-10T10:39:42Z</time>
      </trkpt>
      <trkpt lat="45.1272" lon="5.55959">
        <ele>1197.6</ele>
        <time>2021-10-10T10:39:43Z</time>
      </trkpt>
      <trkpt lat="45.12723" lon="5.5596">
        <ele>1197.6</ele>
        <time>2021-10-10T10:39:44Z</time>
      </trkpt>
      <trkpt lat="45.12725" lon="5.55962">
        <ele>1198.6</ele>
        <time>2021-10-10T10:39:45Z</time>
      </trkpt>
      <trkpt lat="45.12728" lon="5.55963">
        <ele>1198.4</ele>
        <time>2021-10-10T10:39:46Z</time>
      </trkpt>
      <trkpt lat="45.12731" lon="5.55964">
        <ele>1198.4</ele>
        <time>2021-10-10T10:39:47Z</time>
      </trkpt>
      <trkpt lat="45.12733" lon="5.55965">
        <ele>1198.4</ele>
        <time>2021-10-10T10:39:48Z</time>
      </trkpt>
      <trkpt lat="45.12736" lon="5.55967">
        <ele>1199.4</ele>
        <time>2021-10-10T10:39:49Z</time>
      </trkpt>
      <trkpt lat="45.12739" lon="5.55968">
        <ele>1199.6</ele>
        <time>2021-10-10T10:39:50Z</time>
      </trkpt>
      <trkpt lat="45.12741" lon="5.55969">
        <ele>1199.6</ele>
        <time>2021-10-10T10:39:51Z</time>
      </trkpt>
      <trkpt lat="45.12744" lon="5.5597">
        <ele>1199.6</ele>
        <time>2021-10-10T10:39:52Z</time>
      </trkpt>
      <trkpt lat="45.12746" lon="5.55971">
        <ele>1200.2</ele>
        <time>2021-10-10T10:39:53Z</time>
      </trkpt>
      <trkpt lat="45.12749" lon="5.55972">
        <ele>1200.2</ele>
        <time>2021-10-10T10:39:54Z</time>
      </trkpt>
      <trkpt lat="45.12752" lon="5.55972">
        <ele>1200.2</ele>
        <time>2021-10-10T10:39:55Z</time>
      </trkpt>
      <trkpt lat="45.12754" lon="5.55973">
        <ele>1200.2</ele>
        <time>2021-10-10T10:39:56Z</time>
      </trkpt>
      <trkpt lat="45.12758" lon="5.55973">
        <ele>1200.8</ele>
        <time>2021-10-10T10:39:57Z</time>
      </trkpt>
      <trkpt lat="45.12761" lon="5.55974">
        <ele>1201.4</ele>
        <time>2021-10-10T10:39:58Z</time>
      </trkpt>
      <trkpt lat="45.12763" lon="5.55975">
        <ele>1201.4</ele>
        <time>2021-10-10T10:39:59Z</time>
      </trkpt>
      <trkpt lat="45.12766" lon="5.55976">
        <ele>1201.4</ele>
        <time>2021-10-10T10:40:00Z</time>
      </trkpt>
      <trkpt lat="45.12769" lon="5.55976">
        <ele>1201.4</ele>
        <time>2021-10-10T10:40:01Z</time>
      </trkpt>
      <trkpt lat="45.12772" lon="5.55977">
        <ele>1202.4</ele>
        <time>2021-10-10T10:40:02Z</time>
      </trkpt>
      <trkpt lat="45.12775" lon="5.55978">
        <ele>1202.4</ele>
        <time>2021-10-10T10:40:03Z</time>
      </trkpt>
      <trkpt lat="45.12778" lon="5.55979">
        <ele>1202.4</ele>
        <time>2021-10-10T10:40:04Z</time>
      </trkpt>
      <trkpt lat="45.12781" lon="5.55979">
        <ele>1202.4</ele>
        <time>2021-10-10T10:40:05Z</time>
      </trkpt>
      <trkpt lat="45.12784" lon="5.5598">
        <ele>1203.4</ele>
        <time>2021-10-10T10:40:06Z</time>
      </trkpt>
      <trkpt lat="45.12788" lon="5.5598">
        <ele>1203.4</ele>
        <time>2021-10-10T10:40:07Z</time>
      </trkpt>
      <trkpt lat="45.12791" lon="5.55981">
        <ele>1203.4</ele>
        <time>2021-10-10T10:40:08Z</time>
      </trkpt>
      <trkpt lat="45.12794" lon="5.55982">
        <ele>1204.2</ele>
        <time>2021-10-10T10:40:09Z</time>
      </trkpt>
      <trkpt lat="45.12797" lon="5.55982">
        <ele>1204.4</ele>
        <time>2021-10-10T10:40:10Z</time>
      </trkpt>
      <trkpt lat="45.128" lon="5.55983">
        <ele>1204.4</ele>
        <time>2021-10-10T10:40:11Z</time>
      </trkpt>
      <trkpt lat="45.12803" lon="5.55983">
        <ele>1204.4</ele>
        <time>2021-10-10T10:40:12Z</time>
      </trkpt>
      <trkpt lat="45.12807" lon="5.55984">
        <ele>1204.6</ele>
        <time>2021-10-10T10:40:13Z</time>
      </trkpt>
      <trkpt lat="45.1281" lon="5.55985">
        <ele>1204.4</ele>
        <time>2021-10-10T10:40:14Z</time>
      </trkpt>
      <trkpt lat="45.12813" lon="5.55986">
        <ele>1204.4</ele>
        <time>2021-10-10T10:40:15Z</time>
      </trkpt>
      <trkpt lat="45.12816" lon="5.55986">
        <ele>1204.4</ele>
        <time>2021-10-10T10:40:16Z</time>
      </trkpt>
      <trkpt lat="45.12819" lon="5.55987">
        <ele>1205.2</ele>
        <time>2021-10-10T10:40:17Z</time>
      </trkpt>
      <trkpt lat="45.12822" lon="5.55987">
        <ele>1205.4</ele>
        <time>2021-10-10T10:40:18Z</time>
      </trkpt>
      <trkpt lat="45.12825" lon="5.55988">
        <ele>1205.4</ele>
        <time>2021-10-10T10:40:19Z</time>
      </trkpt>
      <trkpt lat="45.12827" lon="5.55989">
        <ele>1205.4</ele>
        <time>2021-10-10T10:40:20Z</time>
      </trkpt>
      <trkpt lat="45.1283" lon="5.55989">
        <ele>1205.4</ele>
        <time>2021-10-10T10:40:21Z</time>
      </trkpt>
      <trkpt lat="45.12833" lon="5.5599">
        <ele>1206.6</ele>
        <time>2021-10-10T10:40:22Z</time>
      </trkpt>
      <trkpt lat="45.12835" lon="5.55991">
        <ele>1206.6</ele>
        <time>2021-10-10T10:40:23Z</time>
      </trkpt>
      <trkpt lat="45.12838" lon="5.55991">
        <ele>1206.6</ele>
        <time>2021-10-10T10:40:24Z</time>
      </trkpt>
      <trkpt lat="45.1284" lon="5.55992">
        <ele>1206.6</ele>
        <time>2021-10-10T10:40:25Z</time>
      </trkpt>
      <trkpt lat="45.12842" lon="5.55993">
        <ele>1206.8</ele>
        <time>2021-10-10T10:40:26Z</time>
      </trkpt>
      <trkpt lat="45.12845" lon="5.55993">
        <ele>1206.8</ele>
        <time>2021-10-10T10:40:27Z</time>
      </trkpt>
      <trkpt lat="45.12847" lon="5.55993">
        <ele>1206.8</ele>
        <time>2021-10-10T10:40:28Z</time>
      </trkpt>
      <trkpt lat="45.12849" lon="5.55993">
        <ele>1207.6</ele>
        <time>2021-10-10T10:40:29Z</time>
      </trkpt>
      <trkpt lat="45.12851" lon="5.55993">
        <ele>1207.8</ele>
        <time>2021-10-10T10:40:30Z</time>
      </trkpt>
      <trkpt lat="45.12853" lon="5.55994">
        <ele>1207.8</ele>
        <time>2021-10-10T10:40:31Z</time>
      </trkpt>
      <trkpt lat="45.12855" lon="5.55995">
        <ele>1207.8</ele>
        <time>2021-10-10T10:40:32Z</time>
      </trkpt>
      <trkpt lat="45.12858" lon="5.55995">
        <ele>1207.8</ele>
        <time>2021-10-10T10:40:33Z</time>
      </trkpt>
      <trkpt lat="45.1286" lon="5.55996">
        <ele>1207.4</ele>
        <time>2021-10-10T10:40:34Z</time>
      </trkpt>
      <trkpt lat="45.12862" lon="5.55996">
        <ele>1207.4</ele>
        <time>2021-10-10T10:40:35Z</time>
      </trkpt>
      <trkpt lat="45.12864" lon="5.55996">
        <ele>1207.4</ele>
        <time>2021-10-10T10:40:36Z</time>
      </trkpt>
      <trkpt lat="45.12867" lon="5.55996">
        <ele>1208</ele>
        <time>2021-10-10T10:40:37Z</time>
      </trkpt>
      <trkpt lat="45.12869" lon="5.55996">
        <ele>1208.4</ele>
        <time>2021-10-10T10:40:38Z</time>
      </trkpt>
      <trkpt lat="45.12871" lon="5.55996">
        <ele>1208.4</ele>
        <time>2021-10-10T10:40:39Z</time>
      </trkpt>
      <trkpt lat="45.12874" lon="5.55996">
        <ele>1208.4</ele>
        <time>2021-10-10T10:40:40Z</time>
      </trkpt>
      <trkpt lat="45.12876" lon="5.55997">
        <ele>1208.8</ele>
        <time>2021-10-10T10:40:41Z</time>
      </trkpt>
      <trkpt lat="45.12878" lon="5.55997">
        <ele>1209.2</ele>
        <time>2021-10-10T10:40:42Z</time>
      </trkpt>
      <trkpt lat="45.1288" lon="5.55997">
        <ele>1209.2</ele>
        <time>2021-10-10T10:40:43Z</time>
      </trkpt>
      <trkpt lat="45.12882" lon="5.55997">
        <ele>1209.2</ele>
        <time>2021-10-10T10:40:44Z</time>
      </trkpt>
      <trkpt lat="45.12884" lon="5.55997">
        <ele>1209.4</ele>
        <time>2021-10-10T10:40:45Z</time>
      </trkpt>
      <trkpt lat="45.12886" lon="5.55997">
        <ele>1209.2</ele>
        <time>2021-10-10T10:40:46Z</time>
      </trkpt>
      <trkpt lat="45.12888" lon="5.55997">
        <ele>1209.2</ele>
        <time>2021-10-10T10:40:47Z</time>
      </trkpt>
      <trkpt lat="45.12891" lon="5.55996">
        <ele>1209.2</ele>
        <time>2021-10-10T10:40:48Z</time>
      </trkpt>
      <trkpt lat="45.12893" lon="5.55996">
        <ele>1209.2</ele>
        <time>2021-10-10T10:40:49Z</time>
      </trkpt>
      <trkpt lat="45.12896" lon="5.55995">
        <ele>1209.8</ele>
        <time>2021-10-10T10:40:50Z</time>
      </trkpt>
      <trkpt lat="45.12898" lon="5.55995">
        <ele>1209.8</ele>
        <time>2021-10-10T10:40:51Z</time>
      </trkpt>
      <trkpt lat="45.12901" lon="5.55995">
        <ele>1209.8</ele>
        <time>2021-10-10T10:40:52Z</time>
      </trkpt>
      <trkpt lat="45.12903" lon="5.55995">
        <ele>1210.8</ele>
        <time>2021-10-10T10:40:53Z</time>
      </trkpt>
      <trkpt lat="45.12905" lon="5.55995">
        <ele>1211</ele>
        <time>2021-10-10T10:40:54Z</time>
      </trkpt>
      <trkpt lat="45.12907" lon="5.55995">
        <ele>1211</ele>
        <time>2021-10-10T10:40:55Z</time>
      </trkpt>
      <trkpt lat="45.12909" lon="5.55994">
        <ele>1211</ele>
        <time>2021-10-10T10:40:56Z</time>
      </trkpt>
      <trkpt lat="45.12912" lon="5.55994">
        <ele>1211</ele>
        <time>2021-10-10T10:40:57Z</time>
      </trkpt>
      <trkpt lat="45.12914" lon="5.55994">
        <ele>1211.2</ele>
        <time>2021-10-10T10:40:58Z</time>
      </trkpt>
      <trkpt lat="45.12916" lon="5.55994">
        <ele>1211.2</ele>
        <time>2021-10-10T10:40:59Z</time>
      </trkpt>
      <trkpt lat="45.12918" lon="5.55994">
        <ele>1211.2</ele>
        <time>2021-10-10T10:41:00Z</time>
      </trkpt>
      <trkpt lat="45.1292" lon="5.55994">
        <ele>1212.2</ele>
        <time>2021-10-10T10:41:01Z</time>
      </trkpt>
      <trkpt lat="45.12922" lon="5.55993">
        <ele>1211.8</ele>
        <time>2021-10-10T10:41:02Z</time>
      </trkpt>
      <trkpt lat="45.12925" lon="5.55993">
        <ele>1211.8</ele>
        <time>2021-10-10T10:41:03Z</time>
      </trkpt>
      <trkpt lat="45.12927" lon="5.55994">
        <ele>1211.8</ele>
        <time>2021-10-10T10:41:04Z</time>
      </trkpt>
      <trkpt lat="45.12929" lon="5.55993">
        <ele>1212.6</ele>
        <time>2021-10-10T10:41:05Z</time>
      </trkpt>
      <trkpt lat="45.12931" lon="5.55993">
        <ele>1212.6</ele>
        <time>2021-10-10T10:41:06Z</time>
      </trkpt>
      <trkpt lat="45.12933" lon="5.55993">
        <ele>1212.6</ele>
        <time>2021-10-10T10:41:07Z</time>
      </trkpt>
      <trkpt lat="45.12935" lon="5.55993">
        <ele>1212.6</ele>
        <time>2021-10-10T10:41:08Z</time>
      </trkpt>
      <trkpt lat="45.12937" lon="5.55993">
        <ele>1213.6</ele>
        <time>2021-10-10T10:41:09Z</time>
      </trkpt>
      <trkpt lat="45.12939" lon="5.55993">
        <ele>1214</ele>
        <time>2021-10-10T10:41:10Z</time>
      </trkpt>
      <trkpt lat="45.12941" lon="5.55992">
        <ele>1214</ele>
        <time>2021-10-10T10:41:11Z</time>
      </trkpt>
      <trkpt lat="45.12943" lon="5.55992">
        <ele>1214</ele>
        <time>2021-10-10T10:41:12Z</time>
      </trkpt>
      <trkpt lat="45.12945" lon="5.55993">
        <ele>1214</ele>
        <time>2021-10-10T10:41:13Z</time>
      </trkpt>
      <trkpt lat="45.12947" lon="5.55993">
        <ele>1214</ele>
        <time>2021-10-10T10:41:14Z</time>
      </trkpt>
      <trkpt lat="45.12949" lon="5.55992">
        <ele>1214</ele>
        <time>2021-10-10T10:41:15Z</time>
      </trkpt>
      <trkpt lat="45.12951" lon="5.55992">
        <ele>1214</ele>
        <time>2021-10-10T10:41:16Z</time>
      </trkpt>
      <trkpt lat="45.12954" lon="5.55992">
        <ele>1214.4</ele>
        <time>2021-10-10T10:41:17Z</time>
      </trkpt>
      <trkpt lat="45.12956" lon="5.55992">
        <ele>1214.2</ele>
        <time>2021-10-10T10:41:18Z</time>
      </trkpt>
      <trkpt lat="45.12958" lon="5.55992">
        <ele>1214.2</ele>
        <time>2021-10-10T10:41:19Z</time>
      </trkpt>
      <trkpt lat="45.1296" lon="5.55992">
        <ele>1214.2</ele>
        <time>2021-10-10T10:41:20Z</time>
      </trkpt>
      <trkpt lat="45.12961" lon="5.55991">
        <ele>1214.8</ele>
        <time>2021-10-10T10:41:21Z</time>
      </trkpt>
      <trkpt lat="45.12964" lon="5.55991">
        <ele>1214.8</ele>
        <time>2021-10-10T10:41:22Z</time>
      </trkpt>
      <trkpt lat="45.12965" lon="5.55991">
        <ele>1214.8</ele>
        <time>2021-10-10T10:41:23Z</time>
      </trkpt>
      <trkpt lat="45.12967" lon="5.55992">
        <ele>1214.8</ele>
        <time>2021-10-10T10:41:24Z</time>
      </trkpt>
      <trkpt lat="45.12969" lon="5.55992">
        <ele>1215.8</ele>
        <time>2021-10-10T10:41:25Z</time>
      </trkpt>
      <trkpt lat="45.12971" lon="5.55992">
        <ele>1216</ele>
        <time>2021-10-10T10:41:26Z</time>
      </trkpt>
      <trkpt lat="45.12973" lon="5.55991">
        <ele>1216</ele>
        <time>2021-10-10T10:41:27Z</time>
      </trkpt>
      <trkpt lat="45.12976" lon="5.55991">
        <ele>1216</ele>
        <time>2021-10-10T10:41:28Z</time>
      </trkpt>
      <trkpt lat="45.12978" lon="5.55991">
        <ele>1216.4</ele>
        <time>2021-10-10T10:41:29Z</time>
      </trkpt>
      <trkpt lat="45.1298" lon="5.55991">
        <ele>1216</ele>
        <time>2021-10-10T10:41:30Z</time>
      </trkpt>
      <trkpt lat="45.12982" lon="5.55991">
        <ele>1216</ele>
        <time>2021-10-10T10:41:31Z</time>
      </trkpt>
      <trkpt lat="45.12985" lon="5.55991">
        <ele>1216</ele>
        <time>2021-10-10T10:41:32Z</time>
      </trkpt>
      <trkpt lat="45.12987" lon="5.55991">
        <ele>1216.8</ele>
        <time>2021-10-10T10:41:33Z</time>
      </trkpt>
      <trkpt lat="45.12989" lon="5.55991">
        <ele>1217.2</ele>
        <time>2021-10-10T10:41:34Z</time>
      </trkpt>
      <trkpt lat="45.12991" lon="5.55991">
        <ele>1217.2</ele>
        <time>2021-10-10T10:41:35Z</time>
      </trkpt>
      <trkpt lat="45.12993" lon="5.55991">
        <ele>1217.2</ele>
        <time>2021-10-10T10:41:36Z</time>
      </trkpt>
      <trkpt lat="45.12995" lon="5.5599">
        <ele>1217.2</ele>
        <time>2021-10-10T10:41:37Z</time>
      </trkpt>
      <trkpt lat="45.12998" lon="5.5599">
        <ele>1217.6</ele>
        <time>2021-10-10T10:41:38Z</time>
      </trkpt>
      <trkpt lat="45.13" lon="5.5599">
        <ele>1217.6</ele>
        <time>2021-10-10T10:41:39Z</time>
      </trkpt>
      <trkpt lat="45.13002" lon="5.5599">
        <ele>1217.6</ele>
        <time>2021-10-10T10:41:40Z</time>
      </trkpt>
      <trkpt lat="45.13004" lon="5.5599">
        <ele>1217.8</ele>
        <time>2021-10-10T10:41:41Z</time>
      </trkpt>
      <trkpt lat="45.13005" lon="5.5599">
        <ele>1217.6</ele>
        <time>2021-10-10T10:41:42Z</time>
      </trkpt>
      <trkpt lat="45.13007" lon="5.5599">
        <ele>1217.6</ele>
        <time>2021-10-10T10:41:43Z</time>
      </trkpt>
      <trkpt lat="45.13008" lon="5.55989">
        <ele>1217.6</ele>
        <time>2021-10-10T10:41:44Z</time>
      </trkpt>
      <trkpt lat="45.1301" lon="5.55989">
        <ele>1217.8</ele>
        <time>2021-10-10T10:41:45Z</time>
      </trkpt>
      <trkpt lat="45.13011" lon="5.55988">
        <ele>1217.6</ele>
        <time>2021-10-10T10:41:46Z</time>
      </trkpt>
      <trkpt lat="45.13013" lon="5.55988">
        <ele>1217.6</ele>
        <time>2021-10-10T10:41:47Z</time>
      </trkpt>
      <trkpt lat="45.13015" lon="5.55988">
        <ele>1217.6</ele>
        <time>2021-10-10T10:41:48Z</time>
      </trkpt>
      <trkpt lat="45.13016" lon="5.55988">
        <ele>1218</ele>
        <time>2021-10-10T10:41:49Z</time>
      </trkpt>
      <trkpt lat="45.13017" lon="5.55988">
        <ele>1218</ele>
        <time>2021-10-10T10:41:50Z</time>
      </trkpt>
      <trkpt lat="45.13019" lon="5.55989">
        <ele>1218</ele>
        <time>2021-10-10T10:41:51Z</time>
      </trkpt>
      <trkpt lat="45.1302" lon="5.55989">
        <ele>1218</ele>
        <time>2021-10-10T10:41:52Z</time>
      </trkpt>
      <trkpt lat="45.13021" lon="5.55989">
        <ele>1218</ele>
        <time>2021-10-10T10:41:53Z</time>
      </trkpt>
      <trkpt lat="45.13025" lon="5.55987">
        <ele>1218.2</ele>
        <time>2021-10-10T10:46:06Z</time>
      </trkpt>
      <trkpt lat="45.13026" lon="5.55987">
        <ele>1218.2</ele>
        <time>2021-10-10T10:46:07Z</time>
      </trkpt>
      <trkpt lat="45.13028" lon="5.55986">
        <ele>1218.2</ele>
        <time>2021-10-10T10:46:08Z</time>
      </trkpt>
      <trkpt lat="45.13029" lon="5.55985">
        <ele>1218</ele>
        <time>2021-10-10T10:46:09Z</time>
      </trkpt>
      <trkpt lat="45.1303" lon="5.55983">
        <ele>1218</ele>
        <time>2021-10-10T10:46:10Z</time>
      </trkpt>
      <trkpt lat="45.13032" lon="5.55982">
        <ele>1218</ele>
        <time>2021-10-10T10:46:11Z</time>
      </trkpt>
      <trkpt lat="45.13033" lon="5.55982">
        <ele>1218</ele>
        <time>2021-10-10T10:46:12Z</time>
      </trkpt>
      <trkpt lat="45.13035" lon="5.55981">
        <ele>1218</ele>
        <time>2021-10-10T10:46:13Z</time>
      </trkpt>
      <trkpt lat="45.13037" lon="5.55981">
        <ele>1218</ele>
        <time>2021-10-10T10:46:14Z</time>
      </trkpt>
      <trkpt lat="45.13038" lon="5.55981">
        <ele>1218</ele>
        <time>2021-10-10T10:46:15Z</time>
      </trkpt>
      <trkpt lat="45.1304" lon="5.55982">
        <ele>1218</ele>
        <time>2021-10-10T10:46:16Z</time>
      </trkpt>
      <trkpt lat="45.1304" lon="5.55981">
        <ele>1218</ele>
        <time>2021-10-10T10:46:17Z</time>
      </trkpt>
      <trkpt lat="45.13041" lon="5.5598">
        <ele>1218</ele>
        <time>2021-10-10T10:46:18Z</time>
      </trkpt>
      <trkpt lat="45.13041" lon="5.55979">
        <ele>1218</ele>
        <time>2021-10-10T10:46:19Z</time>
      </trkpt>
      <trkpt lat="45.13042" lon="5.55979">
        <ele>1218</ele>
        <time>2021-10-10T10:46:20Z</time>
      </trkpt>
      <trkpt lat="45.13043" lon="5.55979">
        <ele>1217.4</ele>
        <time>2021-10-10T10:46:21Z</time>
      </trkpt>
      <trkpt lat="45.13044" lon="5.55979">
        <ele>1217.4</ele>
        <time>2021-10-10T10:46:22Z</time>
      </trkpt>
      <trkpt lat="45.13046" lon="5.55979">
        <ele>1217.4</ele>
        <time>2021-10-10T10:46:23Z</time>
      </trkpt>
      <trkpt lat="45.13048" lon="5.5598">
        <ele>1217.4</ele>
        <time>2021-10-10T10:46:24Z</time>
      </trkpt>
      <trkpt lat="45.13049" lon="5.55982">
        <ele>1217.4</ele>
        <time>2021-10-10T10:46:25Z</time>
      </trkpt>
      <trkpt lat="45.1305" lon="5.55984">
        <ele>1217.8</ele>
        <time>2021-10-10T10:46:26Z</time>
      </trkpt>
      <trkpt lat="45.1305" lon="5.55986">
        <ele>1217.8</ele>
        <time>2021-10-10T10:46:27Z</time>
      </trkpt>
      <trkpt lat="45.13051" lon="5.55989">
        <ele>1217.8</ele>
        <time>2021-10-10T10:46:28Z</time>
      </trkpt>
      <trkpt lat="45.13051" lon="5.55991">
        <ele>1217.8</ele>
        <time>2021-10-10T10:46:29Z</time>
      </trkpt>
      <trkpt lat="45.1305" lon="5.55994">
        <ele>1218.2</ele>
        <time>2021-10-10T10:46:30Z</time>
      </trkpt>
      <trkpt lat="45.1305" lon="5.55996">
        <ele>1218.2</ele>
        <time>2021-10-10T10:46:31Z</time>
      </trkpt>
      <trkpt lat="45.13049" lon="5.55998">
        <ele>1218.2</ele>
        <time>2021-10-10T10:46:32Z</time>
      </trkpt>
      <trkpt lat="45.13048" lon="5.56">
        <ele>1218.2</ele>
        <time>2021-10-10T10:46:33Z</time>
      </trkpt>
      <trkpt lat="45.13048" lon="5.56002">
        <ele>1219</ele>
        <time>2021-10-10T10:46:34Z</time>
      </trkpt>
      <trkpt lat="45.13048" lon="5.56004">
        <ele>1219</ele>
        <time>2021-10-10T10:46:35Z</time>
      </trkpt>
      <trkpt lat="45.13048" lon="5.56006">
        <ele>1219</ele>
        <time>2021-10-10T10:46:36Z</time>
      </trkpt>
      <trkpt lat="45.13048" lon="5.56008">
        <ele>1219</ele>
        <time>2021-10-10T10:46:37Z</time>
      </trkpt>
      <trkpt lat="45.13048" lon="5.5601">
        <ele>1219.4</ele>
        <time>2021-10-10T10:46:38Z</time>
      </trkpt>
      <trkpt lat="45.13048" lon="5.56012">
        <ele>1219.4</ele>
        <time>2021-10-10T10:46:39Z</time>
      </trkpt>
      <trkpt lat="45.13048" lon="5.56015">
        <ele>1219.4</ele>
        <time>2021-10-10T10:46:40Z</time>
      </trkpt>
      <trkpt lat="45.13049" lon="5.56018">
        <ele>1219.6</ele>
        <time>2021-10-10T10:46:41Z</time>
      </trkpt>
      <trkpt lat="45.13049" lon="5.5602">
        <ele>1220.4</ele>
        <time>2021-10-10T10:46:42Z</time>
      </trkpt>
      <trkpt lat="45.13049" lon="5.56022">
        <ele>1220.4</ele>
        <time>2021-10-10T10:46:43Z</time>
      </trkpt>
      <trkpt lat="45.1305" lon="5.56024">
        <ele>1220.4</ele>
        <time>2021-10-10T10:46:44Z</time>
      </trkpt>
      <trkpt lat="45.13051" lon="5.56025">
        <ele>1220</ele>
        <time>2021-10-10T10:46:45Z</time>
      </trkpt>
      <trkpt lat="45.13051" lon="5.56027">
        <ele>1220</ele>
        <time>2021-10-10T10:46:46Z</time>
      </trkpt>
      <trkpt lat="45.13052" lon="5.56029">
        <ele>1220</ele>
        <time>2021-10-10T10:46:47Z</time>
      </trkpt>
      <trkpt lat="45.13052" lon="5.5603">
        <ele>1220</ele>
        <time>2021-10-10T10:46:48Z</time>
      </trkpt>
      <trkpt lat="45.13053" lon="5.56031">
        <ele>1220.4</ele>
        <time>2021-10-10T10:46:49Z</time>
      </trkpt>
      <trkpt lat="45.13054" lon="5.56032">
        <ele>1220.6</ele>
        <time>2021-10-10T10:46:50Z</time>
      </trkpt>
      <trkpt lat="45.13054" lon="5.56033">
        <ele>1220.6</ele>
        <time>2021-10-10T10:46:51Z</time>
      </trkpt>
      <trkpt lat="45.13055" lon="5.56035">
        <ele>1220.6</ele>
        <time>2021-10-10T10:46:52Z</time>
      </trkpt>
      <trkpt lat="45.13056" lon="5.56036">
        <ele>1220.6</ele>
        <time>2021-10-10T10:46:53Z</time>
      </trkpt>
      <trkpt lat="45.13056" lon="5.56039">
        <ele>1220.2</ele>
        <time>2021-10-10T10:46:54Z</time>
      </trkpt>
      <trkpt lat="45.13057" lon="5.56041">
        <ele>1220.2</ele>
        <time>2021-10-10T10:46:55Z</time>
      </trkpt>
      <trkpt lat="45.13059" lon="5.56043">
        <ele>1220.2</ele>
        <time>2021-10-10T10:46:56Z</time>
      </trkpt>
      <trkpt lat="45.1306" lon="5.56046">
        <ele>1220.2</ele>
        <time>2021-10-10T10:46:57Z</time>
      </trkpt>
      <trkpt lat="45.13061" lon="5.56049">
        <ele>1220.2</ele>
        <time>2021-10-10T10:46:58Z</time>
      </trkpt>
      <trkpt lat="45.13062" lon="5.56052">
        <ele>1220.2</ele>
        <time>2021-10-10T10:46:59Z</time>
      </trkpt>
      <trkpt lat="45.13063" lon="5.56055">
        <ele>1220.2</ele>
        <time>2021-10-10T10:47:00Z</time>
      </trkpt>
      <trkpt lat="45.13064" lon="5.56057">
        <ele>1220.2</ele>
        <time>2021-10-10T10:47:01Z</time>
      </trkpt>
      <trkpt lat="45.13065" lon="5.56061">
        <ele>1220.4</ele>
        <time>2021-10-10T10:47:02Z</time>
      </trkpt>
      <trkpt lat="45.13066" lon="5.56064">
        <ele>1220.4</ele>
        <time>2021-10-10T10:47:03Z</time>
      </trkpt>
      <trkpt lat="45.13067" lon="5.56067">
        <ele>1220.4</ele>
        <time>2021-10-10T10:47:04Z</time>
      </trkpt>
      <trkpt lat="45.13067" lon="5.56071">
        <ele>1220.4</ele>
        <time>2021-10-10T10:47:05Z</time>
      </trkpt>
      <trkpt lat="45.13067" lon="5.56075">
        <ele>1220.4</ele>
        <time>2021-10-10T10:47:06Z</time>
      </trkpt>
      <trkpt lat="45.13067" lon="5.56077">
        <ele>1220.4</ele>
        <time>2021-10-10T10:47:07Z</time>
      </trkpt>
      <trkpt lat="45.13068" lon="5.56081">
        <ele>1220.4</ele>
        <time>2021-10-10T10:47:08Z</time>
      </trkpt>
      <trkpt lat="45.13068" lon="5.56086">
        <ele>1220.4</ele>
        <time>2021-10-10T10:47:09Z</time>
      </trkpt>
      <trkpt lat="45.13069" lon="5.5609">
        <ele>1220.6</ele>
        <time>2021-10-10T10:47:10Z</time>
      </trkpt>
      <trkpt lat="45.13068" lon="5.56094">
        <ele>1220.6</ele>
        <time>2021-10-10T10:47:11Z</time>
      </trkpt>
      <trkpt lat="45.13069" lon="5.56098">
        <ele>1220.6</ele>
        <time>2021-10-10T10:47:12Z</time>
      </trkpt>
      <trkpt lat="45.1307" lon="5.56103">
        <ele>1220.8</ele>
        <time>2021-10-10T10:47:13Z</time>
      </trkpt>
      <trkpt lat="45.1307" lon="5.56107">
        <ele>1220.8</ele>
        <time>2021-10-10T10:47:14Z</time>
      </trkpt>
      <trkpt lat="45.1307" lon="5.56111">
        <ele>1220.8</ele>
        <time>2021-10-10T10:47:15Z</time>
      </trkpt>
      <trkpt lat="45.1307" lon="5.56115">
        <ele>1220.8</ele>
        <time>2021-10-10T10:47:16Z</time>
      </trkpt>
      <trkpt lat="45.13071" lon="5.56119">
        <ele>1221.6</ele>
        <time>2021-10-10T10:47:17Z</time>
      </trkpt>
      <trkpt lat="45.13071" lon="5.56123">
        <ele>1222.2</ele>
        <time>2021-10-10T10:47:18Z</time>
      </trkpt>
      <trkpt lat="45.13071" lon="5.56127">
        <ele>1222.2</ele>
        <time>2021-10-10T10:47:19Z</time>
      </trkpt>
      <trkpt lat="45.13071" lon="5.56131">
        <ele>1222.2</ele>
        <time>2021-10-10T10:47:20Z</time>
      </trkpt>
      <trkpt lat="45.13071" lon="5.56135">
        <ele>1222</ele>
        <time>2021-10-10T10:47:21Z</time>
      </trkpt>
      <trkpt lat="45.13071" lon="5.56139">
        <ele>1222.2</ele>
        <time>2021-10-10T10:47:22Z</time>
      </trkpt>
      <trkpt lat="45.13071" lon="5.56143">
        <ele>1222.2</ele>
        <time>2021-10-10T10:47:23Z</time>
      </trkpt>
      <trkpt lat="45.13072" lon="5.56148">
        <ele>1222.2</ele>
        <time>2021-10-10T10:47:24Z</time>
      </trkpt>
      <trkpt lat="45.13072" lon="5.56152">
        <ele>1222.2</ele>
        <time>2021-10-10T10:47:25Z</time>
      </trkpt>
      <trkpt lat="45.13072" lon="5.56156">
        <ele>1222.2</ele>
        <time>2021-10-10T10:47:26Z</time>
      </trkpt>
      <trkpt lat="45.13072" lon="5.56159">
        <ele>1222.2</ele>
        <time>2021-10-10T10:47:27Z</time>
      </trkpt>
      <trkpt lat="45.13073" lon="5.56162">
        <ele>1222.2</ele>
        <time>2021-10-10T10:47:28Z</time>
      </trkpt>
      <trkpt lat="45.13073" lon="5.56166">
        <ele>1222.8</ele>
        <time>2021-10-10T10:47:29Z</time>
      </trkpt>
      <trkpt lat="45.13074" lon="5.5617">
        <ele>1223</ele>
        <time>2021-10-10T10:47:30Z</time>
      </trkpt>
      <trkpt lat="45.13074" lon="5.56174">
        <ele>1223</ele>
        <time>2021-10-10T10:47:31Z</time>
      </trkpt>
      <trkpt lat="45.13075" lon="5.56177">
        <ele>1223</ele>
        <time>2021-10-10T10:47:32Z</time>
      </trkpt>
      <trkpt lat="45.13076" lon="5.5618">
        <ele>1223.4</ele>
        <time>2021-10-10T10:47:33Z</time>
      </trkpt>
      <trkpt lat="45.13077" lon="5.56184">
        <ele>1224</ele>
        <time>2021-10-10T10:47:34Z</time>
      </trkpt>
      <trkpt lat="45.13079" lon="5.56187">
        <ele>1224</ele>
        <time>2021-10-10T10:47:35Z</time>
      </trkpt>
      <trkpt lat="45.1308" lon="5.5619">
        <ele>1224</ele>
        <time>2021-10-10T10:47:36Z</time>
      </trkpt>
      <trkpt lat="45.13082" lon="5.56193">
        <ele>1223.6</ele>
        <time>2021-10-10T10:47:37Z</time>
      </trkpt>
      <trkpt lat="45.13084" lon="5.56196">
        <ele>1224</ele>
        <time>2021-10-10T10:47:38Z</time>
      </trkpt>
      <trkpt lat="45.13086" lon="5.562">
        <ele>1224</ele>
        <time>2021-10-10T10:47:39Z</time>
      </trkpt>
      <trkpt lat="45.13089" lon="5.56202">
        <ele>1224</ele>
        <time>2021-10-10T10:47:40Z</time>
      </trkpt>
      <trkpt lat="45.13092" lon="5.56207">
        <ele>1224</ele>
        <time>2021-10-10T10:47:41Z</time>
      </trkpt>
      <trkpt lat="45.13094" lon="5.56209">
        <ele>1224</ele>
        <time>2021-10-10T10:47:42Z</time>
      </trkpt>
      <trkpt lat="45.13097" lon="5.56211">
        <ele>1224</ele>
        <time>2021-10-10T10:47:43Z</time>
      </trkpt>
      <trkpt lat="45.13099" lon="5.56212">
        <ele>1224</ele>
        <time>2021-10-10T10:47:44Z</time>
      </trkpt>
      <trkpt lat="45.13102" lon="5.56214">
        <ele>1224</ele>
        <time>2021-10-10T10:47:45Z</time>
      </trkpt>
      <trkpt lat="45.13106" lon="5.56215">
        <ele>1224.4</ele>
        <time>2021-10-10T10:47:46Z</time>
      </trkpt>
      <trkpt lat="45.13109" lon="5.56216">
        <ele>1224.4</ele>
        <time>2021-10-10T10:47:47Z</time>
      </trkpt>
      <trkpt lat="45.13111" lon="5.56215">
        <ele>1224.4</ele>
        <time>2021-10-10T10:47:48Z</time>
      </trkpt>
      <trkpt lat="45.13114" lon="5.56214">
        <ele>1224.4</ele>
        <time>2021-10-10T10:47:49Z</time>
      </trkpt>
      <trkpt lat="45.13116" lon="5.56213">
        <ele>1224.8</ele>
        <time>2021-10-10T10:47:50Z</time>
      </trkpt>
      <trkpt lat="45.13118" lon="5.56212">
        <ele>1224.8</ele>
        <time>2021-10-10T10:47:51Z</time>
      </trkpt>
      <trkpt lat="45.1312" lon="5.56211">
        <ele>1224.8</ele>
        <time>2021-10-10T10:47:52Z</time>
      </trkpt>
      <trkpt lat="45.13123" lon="5.5621">
        <ele>1224.8</ele>
        <time>2021-10-10T10:47:53Z</time>
      </trkpt>
      <trkpt lat="45.13125" lon="5.56208">
        <ele>1225</ele>
        <time>2021-10-10T10:47:54Z</time>
      </trkpt>
      <trkpt lat="45.13125" lon="5.56206">
        <ele>1225</ele>
        <time>2021-10-10T10:47:55Z</time>
      </trkpt>
      <trkpt lat="45.13128" lon="5.56204">
        <ele>1225</ele>
        <time>2021-10-10T10:47:56Z</time>
      </trkpt>
      <trkpt lat="45.1313" lon="5.56202">
        <ele>1225.6</ele>
        <time>2021-10-10T10:47:57Z</time>
      </trkpt>
      <trkpt lat="45.13132" lon="5.56199">
        <ele>1225.8</ele>
        <time>2021-10-10T10:47:58Z</time>
      </trkpt>
      <trkpt lat="45.13134" lon="5.56197">
        <ele>1225.8</ele>
        <time>2021-10-10T10:47:59Z</time>
      </trkpt>
      <trkpt lat="45.13135" lon="5.56195">
        <ele>1225.8</ele>
        <time>2021-10-10T10:48:00Z</time>
      </trkpt>
      <trkpt lat="45.13137" lon="5.56193">
        <ele>1225.8</ele>
        <time>2021-10-10T10:48:01Z</time>
      </trkpt>
      <trkpt lat="45.1314" lon="5.56191">
        <ele>1226.4</ele>
        <time>2021-10-10T10:48:02Z</time>
      </trkpt>
      <trkpt lat="45.13142" lon="5.56189">
        <ele>1226.4</ele>
        <time>2021-10-10T10:48:03Z</time>
      </trkpt>
      <trkpt lat="45.13145" lon="5.56188">
        <ele>1226.4</ele>
        <time>2021-10-10T10:48:04Z</time>
      </trkpt>
      <trkpt lat="45.13147" lon="5.56186">
        <ele>1226.4</ele>
        <time>2021-10-10T10:48:05Z</time>
      </trkpt>
      <trkpt lat="45.13149" lon="5.56184">
        <ele>1226.4</ele>
        <time>2021-10-10T10:48:06Z</time>
      </trkpt>
      <trkpt lat="45.13152" lon="5.56182">
        <ele>1226.4</ele>
        <time>2021-10-10T10:48:07Z</time>
      </trkpt>
      <trkpt lat="45.13154" lon="5.56181">
        <ele>1226.4</ele>
        <time>2021-10-10T10:48:08Z</time>
      </trkpt>
      <trkpt lat="45.13156" lon="5.56179">
        <ele>1227.4</ele>
        <time>2021-10-10T10:48:09Z</time>
      </trkpt>
      <trkpt lat="45.13159" lon="5.56178">
        <ele>1227.2</ele>
        <time>2021-10-10T10:48:10Z</time>
      </trkpt>
      <trkpt lat="45.13162" lon="5.56177">
        <ele>1227.2</ele>
        <time>2021-10-10T10:48:11Z</time>
      </trkpt>
      <trkpt lat="45.13165" lon="5.56176">
        <ele>1227.2</ele>
        <time>2021-10-10T10:48:12Z</time>
      </trkpt>
      <trkpt lat="45.13168" lon="5.56176">
        <ele>1227.2</ele>
        <time>2021-10-10T10:48:13Z</time>
      </trkpt>
      <trkpt lat="45.13171" lon="5.56174">
        <ele>1228</ele>
        <time>2021-10-10T10:48:14Z</time>
      </trkpt>
      <trkpt lat="45.13173" lon="5.56173">
        <ele>1228</ele>
        <time>2021-10-10T10:48:15Z</time>
      </trkpt>
      <trkpt lat="45.13176" lon="5.56172">
        <ele>1228</ele>
        <time>2021-10-10T10:48:16Z</time>
      </trkpt>
      <trkpt lat="45.13177" lon="5.56171">
        <ele>1228.4</ele>
        <time>2021-10-10T10:48:17Z</time>
      </trkpt>
      <trkpt lat="45.1318" lon="5.5617">
        <ele>1228.8</ele>
        <time>2021-10-10T10:48:18Z</time>
      </trkpt>
      <trkpt lat="45.13183" lon="5.56169">
        <ele>1228.8</ele>
        <time>2021-10-10T10:48:19Z</time>
      </trkpt>
      <trkpt lat="45.13185" lon="5.56167">
        <ele>1228.8</ele>
        <time>2021-10-10T10:48:20Z</time>
      </trkpt>
      <trkpt lat="45.13187" lon="5.56165">
        <ele>1228.8</ele>
        <time>2021-10-10T10:48:21Z</time>
      </trkpt>
      <trkpt lat="45.1319" lon="5.56164">
        <ele>1229.4</ele>
        <time>2021-10-10T10:48:22Z</time>
      </trkpt>
      <trkpt lat="45.13192" lon="5.56163">
        <ele>1229.4</ele>
        <time>2021-10-10T10:48:23Z</time>
      </trkpt>
      <trkpt lat="45.13195" lon="5.56162">
        <ele>1229.4</ele>
        <time>2021-10-10T10:48:24Z</time>
      </trkpt>
      <trkpt lat="45.13197" lon="5.56161">
        <ele>1229.6</ele>
        <time>2021-10-10T10:48:25Z</time>
      </trkpt>
      <trkpt lat="45.13199" lon="5.5616">
        <ele>1229.6</ele>
        <time>2021-10-10T10:48:26Z</time>
      </trkpt>
      <trkpt lat="45.13201" lon="5.56158">
        <ele>1229.6</ele>
        <time>2021-10-10T10:48:27Z</time>
      </trkpt>
      <trkpt lat="45.13202" lon="5.56156">
        <ele>1229.6</ele>
        <time>2021-10-10T10:48:28Z</time>
      </trkpt>
      <trkpt lat="45.13205" lon="5.56156">
        <ele>1230.2</ele>
        <time>2021-10-10T10:48:29Z</time>
      </trkpt>
      <trkpt lat="45.13209" lon="5.56156">
        <ele>1230.4</ele>
        <time>2021-10-10T10:48:30Z</time>
      </trkpt>
      <trkpt lat="45.13211" lon="5.56156">
        <ele>1230.4</ele>
        <time>2021-10-10T10:48:31Z</time>
      </trkpt>
      <trkpt lat="45.13213" lon="5.56156">
        <ele>1230.4</ele>
        <time>2021-10-10T10:48:32Z</time>
      </trkpt>
      <trkpt lat="45.13216" lon="5.56155">
        <ele>1230.8</ele>
        <time>2021-10-10T10:48:33Z</time>
      </trkpt>
      <trkpt lat="45.13218" lon="5.56154">
        <ele>1231</ele>
        <time>2021-10-10T10:48:34Z</time>
      </trkpt>
      <trkpt lat="45.13221" lon="5.56153">
        <ele>1231</ele>
        <time>2021-10-10T10:48:35Z</time>
      </trkpt>
      <trkpt lat="45.13224" lon="5.56153">
        <ele>1231</ele>
        <time>2021-10-10T10:48:36Z</time>
      </trkpt>
      <trkpt lat="45.13227" lon="5.56153">
        <ele>1231</ele>
        <time>2021-10-10T10:48:37Z</time>
      </trkpt>
      <trkpt lat="45.13229" lon="5.56152">
        <ele>1231.8</ele>
        <time>2021-10-10T10:48:38Z</time>
      </trkpt>
      <trkpt lat="45.13231" lon="5.56152">
        <ele>1231.8</ele>
        <time>2021-10-10T10:48:39Z</time>
      </trkpt>
      <trkpt lat="45.13233" lon="5.56151">
        <ele>1231.8</ele>
        <time>2021-10-10T10:48:40Z</time>
      </trkpt>
      <trkpt lat="45.13235" lon="5.5615">
        <ele>1232.6</ele>
        <time>2021-10-10T10:48:41Z</time>
      </trkpt>
      <trkpt lat="45.13238" lon="5.5615">
        <ele>1232.4</ele>
        <time>2021-10-10T10:48:42Z</time>
      </trkpt>
      <trkpt lat="45.13241" lon="5.56149">
        <ele>1232.4</ele>
        <time>2021-10-10T10:48:43Z</time>
      </trkpt>
      <trkpt lat="45.13244" lon="5.5615">
        <ele>1232.4</ele>
        <time>2021-10-10T10:48:44Z</time>
      </trkpt>
      <trkpt lat="45.13245" lon="5.56151">
        <ele>1233</ele>
        <time>2021-10-10T10:48:45Z</time>
      </trkpt>
      <trkpt lat="45.13248" lon="5.56152">
        <ele>1233.4</ele>
        <time>2021-10-10T10:48:46Z</time>
      </trkpt>
      <trkpt lat="45.1325" lon="5.56153">
        <ele>1233.4</ele>
        <time>2021-10-10T10:48:47Z</time>
      </trkpt>
      <trkpt lat="45.13253" lon="5.56154">
        <ele>1233.4</ele>
        <time>2021-10-10T10:48:48Z</time>
      </trkpt>
      <trkpt lat="45.13255" lon="5.56157">
        <ele>1234</ele>
        <time>2021-10-10T10:48:49Z</time>
      </trkpt>
      <trkpt lat="45.13257" lon="5.56159">
        <ele>1234</ele>
        <time>2021-10-10T10:48:50Z</time>
      </trkpt>
      <trkpt lat="45.13259" lon="5.5616">
        <ele>1234</ele>
        <time>2021-10-10T10:48:51Z</time>
      </trkpt>
      <trkpt lat="45.13262" lon="5.56163">
        <ele>1234</ele>
        <time>2021-10-10T10:48:52Z</time>
      </trkpt>
      <trkpt lat="45.13265" lon="5.56165">
        <ele>1234.6</ele>
        <time>2021-10-10T10:48:53Z</time>
      </trkpt>
      <trkpt lat="45.13267" lon="5.56166">
        <ele>1234.8</ele>
        <time>2021-10-10T10:48:54Z</time>
      </trkpt>
      <trkpt lat="45.13269" lon="5.56168">
        <ele>1234.8</ele>
        <time>2021-10-10T10:48:55Z</time>
      </trkpt>
      <trkpt lat="45.13271" lon="5.56171">
        <ele>1234.8</ele>
        <time>2021-10-10T10:48:56Z</time>
      </trkpt>
      <trkpt lat="45.13272" lon="5.56174">
        <ele>1234.8</ele>
        <time>2021-10-10T10:48:57Z</time>
      </trkpt>
      <trkpt lat="45.13273" lon="5.56175">
        <ele>1235.2</ele>
        <time>2021-10-10T10:48:58Z</time>
      </trkpt>
      <trkpt lat="45.13274" lon="5.56178">
        <ele>1235.2</ele>
        <time>2021-10-10T10:48:59Z</time>
      </trkpt>
      <trkpt lat="45.13276" lon="5.5618">
        <ele>1235.2</ele>
        <time>2021-10-10T10:49:00Z</time>
      </trkpt>
      <trkpt lat="45.13278" lon="5.56182">
        <ele>1235.2</ele>
        <time>2021-10-10T10:49:01Z</time>
      </trkpt>
      <trkpt lat="45.13281" lon="5.56184">
        <ele>1236</ele>
        <time>2021-10-10T10:49:02Z</time>
      </trkpt>
      <trkpt lat="45.13283" lon="5.56186">
        <ele>1236</ele>
        <time>2021-10-10T10:49:03Z</time>
      </trkpt>
      <trkpt lat="45.13286" lon="5.56187">
        <ele>1236</ele>
        <time>2021-10-10T10:49:04Z</time>
      </trkpt>
      <trkpt lat="45.13289" lon="5.56189">
        <ele>1236</ele>
        <time>2021-10-10T10:49:05Z</time>
      </trkpt>
      <trkpt lat="45.13292" lon="5.56189">
        <ele>1236.4</ele>
        <time>2021-10-10T10:49:06Z</time>
      </trkpt>
      <trkpt lat="45.13293" lon="5.56191">
        <ele>1236.4</ele>
        <time>2021-10-10T10:49:07Z</time>
      </trkpt>
      <trkpt lat="45.13297" lon="5.5619">
        <ele>1236.4</ele>
        <time>2021-10-10T10:49:08Z</time>
      </trkpt>
      <trkpt lat="45.133" lon="5.56189">
        <ele>1236.4</ele>
        <time>2021-10-10T10:49:09Z</time>
      </trkpt>
      <trkpt lat="45.13303" lon="5.56188">
        <ele>1236.6</ele>
        <time>2021-10-10T10:49:10Z</time>
      </trkpt>
      <trkpt lat="45.13307" lon="5.56186">
        <ele>1236.6</ele>
        <time>2021-10-10T10:49:11Z</time>
      </trkpt>
      <trkpt lat="45.13309" lon="5.56185">
        <ele>1236.6</ele>
        <time>2021-10-10T10:49:12Z</time>
      </trkpt>
      <trkpt lat="45.13312" lon="5.56182">
        <ele>1236.6</ele>
        <time>2021-10-10T10:49:13Z</time>
      </trkpt>
      <trkpt lat="45.13314" lon="5.5618">
        <ele>1237.2</ele>
        <time>2021-10-10T10:49:14Z</time>
      </trkpt>
      <trkpt lat="45.13316" lon="5.56177">
        <ele>1237.2</ele>
        <time>2021-10-10T10:49:15Z</time>
      </trkpt>
      <trkpt lat="45.13318" lon="5.56174">
        <ele>1237.2</ele>
        <time>2021-10-10T10:49:16Z</time>
      </trkpt>
      <trkpt lat="45.13319" lon="5.56171">
        <ele>1237</ele>
        <time>2021-10-10T10:49:17Z</time>
      </trkpt>
      <trkpt lat="45.13321" lon="5.56167">
        <ele>1237.2</ele>
        <time>2021-10-10T10:49:18Z</time>
      </trkpt>
      <trkpt lat="45.13323" lon="5.56164">
        <ele>1237.2</ele>
        <time>2021-10-10T10:49:19Z</time>
      </trkpt>
      <trkpt lat="45.13325" lon="5.56161">
        <ele>1237.2</ele>
        <time>2021-10-10T10:49:20Z</time>
      </trkpt>
      <trkpt lat="45.13326" lon="5.56158">
        <ele>1237.2</ele>
        <time>2021-10-10T10:49:21Z</time>
      </trkpt>
      <trkpt lat="45.13328" lon="5.56155">
        <ele>1237.2</ele>
        <time>2021-10-10T10:49:22Z</time>
      </trkpt>
      <trkpt lat="45.1333" lon="5.56152">
        <ele>1237.2</ele>
        <time>2021-10-10T10:49:23Z</time>
      </trkpt>
      <trkpt lat="45.13332" lon="5.56146">
        <ele>1237.2</ele>
        <time>2021-10-10T10:49:24Z</time>
      </trkpt>
      <trkpt lat="45.13334" lon="5.56143">
        <ele>1237.8</ele>
        <time>2021-10-10T10:49:25Z</time>
      </trkpt>
      <trkpt lat="45.13336" lon="5.56139">
        <ele>1238</ele>
        <time>2021-10-10T10:49:26Z</time>
      </trkpt>
      <trkpt lat="45.13338" lon="5.56136">
        <ele>1238</ele>
        <time>2021-10-10T10:49:27Z</time>
      </trkpt>
      <trkpt lat="45.1334" lon="5.56133">
        <ele>1238</ele>
        <time>2021-10-10T10:49:28Z</time>
      </trkpt>
      <trkpt lat="45.13342" lon="5.5613">
        <ele>1238.4</ele>
        <time>2021-10-10T10:49:29Z</time>
      </trkpt>
      <trkpt lat="45.13345" lon="5.56128">
        <ele>1238.4</ele>
        <time>2021-10-10T10:49:30Z</time>
      </trkpt>
      <trkpt lat="45.13348" lon="5.56125">
        <ele>1238.4</ele>
        <time>2021-10-10T10:49:31Z</time>
      </trkpt>
      <trkpt lat="45.1335" lon="5.56123">
        <ele>1238.4</ele>
        <time>2021-10-10T10:49:32Z</time>
      </trkpt>
      <trkpt lat="45.13353" lon="5.5612">
        <ele>1238.4</ele>
        <time>2021-10-10T10:49:33Z</time>
      </trkpt>
      <trkpt lat="45.13355" lon="5.56118">
        <ele>1239.2</ele>
        <time>2021-10-10T10:49:34Z</time>
      </trkpt>
      <trkpt lat="45.13357" lon="5.56116">
        <ele>1239.2</ele>
        <time>2021-10-10T10:49:35Z</time>
      </trkpt>
      <trkpt lat="45.1336" lon="5.56113">
        <ele>1239.2</ele>
        <time>2021-10-10T10:49:36Z</time>
      </trkpt>
      <trkpt lat="45.13363" lon="5.56111">
        <ele>1239.8</ele>
        <time>2021-10-10T10:49:37Z</time>
      </trkpt>
      <trkpt lat="45.13365" lon="5.56109">
        <ele>1240</ele>
        <time>2021-10-10T10:49:38Z</time>
      </trkpt>
      <trkpt lat="45.13367" lon="5.56106">
        <ele>1240</ele>
        <time>2021-10-10T10:49:39Z</time>
      </trkpt>
      <trkpt lat="45.1337" lon="5.56104">
        <ele>1240</ele>
        <time>2021-10-10T10:49:40Z</time>
      </trkpt>
      <trkpt lat="45.13372" lon="5.56101">
        <ele>1240</ele>
        <time>2021-10-10T10:49:41Z</time>
      </trkpt>
      <trkpt lat="45.13375" lon="5.56099">
        <ele>1240.6</ele>
        <time>2021-10-10T10:49:42Z</time>
      </trkpt>
      <trkpt lat="45.13377" lon="5.56096">
        <ele>1240.6</ele>
        <time>2021-10-10T10:49:43Z</time>
      </trkpt>
      <trkpt lat="45.1338" lon="5.56093">
        <ele>1240.6</ele>
        <time>2021-10-10T10:49:44Z</time>
      </trkpt>
      <trkpt lat="45.13382" lon="5.56091">
        <ele>1240.6</ele>
        <time>2021-10-10T10:49:45Z</time>
      </trkpt>
      <trkpt lat="45.13385" lon="5.56089">
        <ele>1241</ele>
        <time>2021-10-10T10:49:46Z</time>
      </trkpt>
      <trkpt lat="45.13387" lon="5.56087">
        <ele>1241</ele>
        <time>2021-10-10T10:49:47Z</time>
      </trkpt>
      <trkpt lat="45.13389" lon="5.56085">
        <ele>1241</ele>
        <time>2021-10-10T10:49:48Z</time>
      </trkpt>
      <trkpt lat="45.13392" lon="5.56085">
        <ele>1241.8</ele>
        <time>2021-10-10T10:49:49Z</time>
      </trkpt>
      <trkpt lat="45.13395" lon="5.56084">
        <ele>1242.2</ele>
        <time>2021-10-10T10:49:50Z</time>
      </trkpt>
      <trkpt lat="45.13398" lon="5.56083">
        <ele>1242.2</ele>
        <time>2021-10-10T10:49:51Z</time>
      </trkpt>
      <trkpt lat="45.13401" lon="5.56083">
        <ele>1242.2</ele>
        <time>2021-10-10T10:49:52Z</time>
      </trkpt>
      <trkpt lat="45.13404" lon="5.56083">
        <ele>1243</ele>
        <time>2021-10-10T10:49:53Z</time>
      </trkpt>
      <trkpt lat="45.13407" lon="5.56083">
        <ele>1243.2</ele>
        <time>2021-10-10T10:49:54Z</time>
      </trkpt>
      <trkpt lat="45.1341" lon="5.56084">
        <ele>1243.2</ele>
        <time>2021-10-10T10:49:55Z</time>
      </trkpt>
      <trkpt lat="45.13413" lon="5.56085">
        <ele>1243.2</ele>
        <time>2021-10-10T10:49:56Z</time>
      </trkpt>
      <trkpt lat="45.13415" lon="5.56085">
        <ele>1243.2</ele>
        <time>2021-10-10T10:49:57Z</time>
      </trkpt>
      <trkpt lat="45.13417" lon="5.56086">
        <ele>1243.4</ele>
        <time>2021-10-10T10:49:58Z</time>
      </trkpt>
      <trkpt lat="45.1342" lon="5.56087">
        <ele>1243.4</ele>
        <time>2021-10-10T10:49:59Z</time>
      </trkpt>
      <trkpt lat="45.13422" lon="5.56088">
        <ele>1243.4</ele>
        <time>2021-10-10T10:50:00Z</time>
      </trkpt>
      <trkpt lat="45.13424" lon="5.56088">
        <ele>1244.4</ele>
        <time>2021-10-10T10:50:01Z</time>
      </trkpt>
      <trkpt lat="45.13426" lon="5.56089">
        <ele>1244.6</ele>
        <time>2021-10-10T10:50:02Z</time>
      </trkpt>
      <trkpt lat="45.13428" lon="5.56089">
        <ele>1244.6</ele>
        <time>2021-10-10T10:50:03Z</time>
      </trkpt>
      <trkpt lat="45.13431" lon="5.5609">
        <ele>1244.6</ele>
        <time>2021-10-10T10:50:04Z</time>
      </trkpt>
      <trkpt lat="45.13433" lon="5.5609">
        <ele>1245</ele>
        <time>2021-10-10T10:50:05Z</time>
      </trkpt>
      <trkpt lat="45.13435" lon="5.56091">
        <ele>1245</ele>
        <time>2021-10-10T10:50:06Z</time>
      </trkpt>
      <trkpt lat="45.13437" lon="5.56091">
        <ele>1245</ele>
        <time>2021-10-10T10:50:07Z</time>
      </trkpt>
      <trkpt lat="45.1344" lon="5.56091">
        <ele>1245</ele>
        <time>2021-10-10T10:50:08Z</time>
      </trkpt>
      <trkpt lat="45.13442" lon="5.56092">
        <ele>1245</ele>
        <time>2021-10-10T10:50:09Z</time>
      </trkpt>
      <trkpt lat="45.13444" lon="5.56092">
        <ele>1245.6</ele>
        <time>2021-10-10T10:50:10Z</time>
      </trkpt>
      <trkpt lat="45.13446" lon="5.56092">
        <ele>1245.6</ele>
        <time>2021-10-10T10:50:11Z</time>
      </trkpt>
      <trkpt lat="45.13449" lon="5.56093">
        <ele>1245.6</ele>
        <time>2021-10-10T10:50:12Z</time>
      </trkpt>
      <trkpt lat="45.13451" lon="5.56094">
        <ele>1246.4</ele>
        <time>2021-10-10T10:50:13Z</time>
      </trkpt>
      <trkpt lat="45.13454" lon="5.56095">
        <ele>1246.2</ele>
        <time>2021-10-10T10:50:14Z</time>
      </trkpt>
      <trkpt lat="45.13456" lon="5.56095">
        <ele>1246.2</ele>
        <time>2021-10-10T10:50:15Z</time>
      </trkpt>
      <trkpt lat="45.13458" lon="5.56096">
        <ele>1246.2</ele>
        <time>2021-10-10T10:50:16Z</time>
      </trkpt>
      <trkpt lat="45.1346" lon="5.56097">
        <ele>1246.8</ele>
        <time>2021-10-10T10:50:17Z</time>
      </trkpt>
      <trkpt lat="45.13463" lon="5.56098">
        <ele>1246.8</ele>
        <time>2021-10-10T10:50:18Z</time>
      </trkpt>
      <trkpt lat="45.13464" lon="5.56098">
        <ele>1246.8</ele>
        <time>2021-10-10T10:50:19Z</time>
      </trkpt>
      <trkpt lat="45.13466" lon="5.561">
        <ele>1246.8</ele>
        <time>2021-10-10T10:50:20Z</time>
      </trkpt>
      <trkpt lat="45.13469" lon="5.56101">
        <ele>1247.8</ele>
        <time>2021-10-10T10:50:21Z</time>
      </trkpt>
      <trkpt lat="45.13472" lon="5.56103">
        <ele>1248</ele>
        <time>2021-10-10T10:50:22Z</time>
      </trkpt>
      <trkpt lat="45.13475" lon="5.56104">
        <ele>1248</ele>
        <time>2021-10-10T10:50:23Z</time>
      </trkpt>
      <trkpt lat="45.13478" lon="5.56106">
        <ele>1248</ele>
        <time>2021-10-10T10:50:24Z</time>
      </trkpt>
      <trkpt lat="45.13481" lon="5.56109">
        <ele>1248</ele>
        <time>2021-10-10T10:50:25Z</time>
      </trkpt>
      <trkpt lat="45.13484" lon="5.56112">
        <ele>1248.4</ele>
        <time>2021-10-10T10:50:26Z</time>
      </trkpt>
      <trkpt lat="45.13487" lon="5.56114">
        <ele>1248.4</ele>
        <time>2021-10-10T10:50:27Z</time>
      </trkpt>
      <trkpt lat="45.1349" lon="5.56116">
        <ele>1248.4</ele>
        <time>2021-10-10T10:50:28Z</time>
      </trkpt>
      <trkpt lat="45.13493" lon="5.56117">
        <ele>1248.8</ele>
        <time>2021-10-10T10:50:29Z</time>
      </trkpt>
      <trkpt lat="45.13495" lon="5.5612">
        <ele>1249.2</ele>
        <time>2021-10-10T10:50:30Z</time>
      </trkpt>
      <trkpt lat="45.13497" lon="5.56122">
        <ele>1249.2</ele>
        <time>2021-10-10T10:50:31Z</time>
      </trkpt>
      <trkpt lat="45.13499" lon="5.56124">
        <ele>1249.2</ele>
        <time>2021-10-10T10:50:32Z</time>
      </trkpt>
      <trkpt lat="45.13502" lon="5.56127">
        <ele>1249.2</ele>
        <time>2021-10-10T10:50:33Z</time>
      </trkpt>
      <trkpt lat="45.13505" lon="5.5613">
        <ele>1249.2</ele>
        <time>2021-10-10T10:50:34Z</time>
      </trkpt>
      <trkpt lat="45.13508" lon="5.56132">
        <ele>1249.2</ele>
        <time>2021-10-10T10:50:35Z</time>
      </trkpt>
      <trkpt lat="45.1351" lon="5.56135">
        <ele>1249.2</ele>
        <time>2021-10-10T10:50:36Z</time>
      </trkpt>
      <trkpt lat="45.13512" lon="5.56138">
        <ele>1250.2</ele>
        <time>2021-10-10T10:50:37Z</time>
      </trkpt>
      <trkpt lat="45.13514" lon="5.56141">
        <ele>1250.2</ele>
        <time>2021-10-10T10:50:38Z</time>
      </trkpt>
      <trkpt lat="45.13515" lon="5.56144">
        <ele>1250.2</ele>
        <time>2021-10-10T10:50:39Z</time>
      </trkpt>
      <trkpt lat="45.13517" lon="5.56147">
        <ele>1250.2</ele>
        <time>2021-10-10T10:50:40Z</time>
      </trkpt>
      <trkpt lat="45.13518" lon="5.5615">
        <ele>1250.6</ele>
        <time>2021-10-10T10:50:41Z</time>
      </trkpt>
      <trkpt lat="45.1352" lon="5.56153">
        <ele>1251</ele>
        <time>2021-10-10T10:50:42Z</time>
      </trkpt>
      <trkpt lat="45.1352" lon="5.56156">
        <ele>1251</ele>
        <time>2021-10-10T10:50:43Z</time>
      </trkpt>
      <trkpt lat="45.13522" lon="5.56159">
        <ele>1251</ele>
        <time>2021-10-10T10:50:44Z</time>
      </trkpt>
      <trkpt lat="45.13524" lon="5.56161">
        <ele>1251</ele>
        <time>2021-10-10T10:50:45Z</time>
      </trkpt>
      <trkpt lat="45.13525" lon="5.56163">
        <ele>1250.6</ele>
        <time>2021-10-10T10:50:46Z</time>
      </trkpt>
      <trkpt lat="45.13528" lon="5.56165">
        <ele>1250.6</ele>
        <time>2021-10-10T10:50:47Z</time>
      </trkpt>
      <trkpt lat="45.1353" lon="5.56168">
        <ele>1250.6</ele>
        <time>2021-10-10T10:50:48Z</time>
      </trkpt>
      <trkpt lat="45.13533" lon="5.56169">
        <ele>1251</ele>
        <time>2021-10-10T10:50:49Z</time>
      </trkpt>
      <trkpt lat="45.13536" lon="5.5617">
        <ele>1251</ele>
        <time>2021-10-10T10:50:50Z</time>
      </trkpt>
      <trkpt lat="45.13538" lon="5.56172">
        <ele>1251</ele>
        <time>2021-10-10T10:50:51Z</time>
      </trkpt>
      <trkpt lat="45.1354" lon="5.56172">
        <ele>1251</ele>
        <time>2021-10-10T10:50:52Z</time>
      </trkpt>
      <trkpt lat="45.13543" lon="5.56171">
        <ele>1251.4</ele>
        <time>2021-10-10T10:50:53Z</time>
      </trkpt>
      <trkpt lat="45.13547" lon="5.5617">
        <ele>1251.6</ele>
        <time>2021-10-10T10:50:54Z</time>
      </trkpt>
      <trkpt lat="45.1355" lon="5.56168">
        <ele>1251.6</ele>
        <time>2021-10-10T10:50:55Z</time>
      </trkpt>
      <trkpt lat="45.13552" lon="5.56166">
        <ele>1251.6</ele>
        <time>2021-10-10T10:50:56Z</time>
      </trkpt>
      <trkpt lat="45.13555" lon="5.56163">
        <ele>1252</ele>
        <time>2021-10-10T10:50:57Z</time>
      </trkpt>
      <trkpt lat="45.13557" lon="5.56161">
        <ele>1252</ele>
        <time>2021-10-10T10:50:58Z</time>
      </trkpt>
      <trkpt lat="45.13559" lon="5.56158">
        <ele>1251.4</ele>
        <time>2021-10-10T10:50:59Z</time>
      </trkpt>
      <trkpt lat="45.13561" lon="5.56156">
        <ele>1251.4</ele>
        <time>2021-10-10T10:51:00Z</time>
      </trkpt>
      <trkpt lat="45.13562" lon="5.56153">
        <ele>1251.4</ele>
        <time>2021-10-10T10:51:01Z</time>
      </trkpt>
      <trkpt lat="45.13563" lon="5.5615">
        <ele>1251.4</ele>
        <time>2021-10-10T10:51:02Z</time>
      </trkpt>
      <trkpt lat="45.13565" lon="5.56146">
        <ele>1251.4</ele>
        <time>2021-10-10T10:51:03Z</time>
      </trkpt>
      <trkpt lat="45.13567" lon="5.56142">
        <ele>1251.4</ele>
        <time>2021-10-10T10:51:04Z</time>
      </trkpt>
      <trkpt lat="45.13568" lon="5.56138">
        <ele>1251.4</ele>
        <time>2021-10-10T10:51:05Z</time>
      </trkpt>
      <trkpt lat="45.13569" lon="5.56135">
        <ele>1252</ele>
        <time>2021-10-10T10:51:06Z</time>
      </trkpt>
      <trkpt lat="45.1357" lon="5.56132">
        <ele>1252</ele>
        <time>2021-10-10T10:51:07Z</time>
      </trkpt>
      <trkpt lat="45.13572" lon="5.56129">
        <ele>1252</ele>
        <time>2021-10-10T10:51:08Z</time>
      </trkpt>
      <trkpt lat="45.13574" lon="5.56127">
        <ele>1252</ele>
        <time>2021-10-10T10:51:09Z</time>
      </trkpt>
      <trkpt lat="45.13577" lon="5.56126">
        <ele>1252.4</ele>
        <time>2021-10-10T10:51:10Z</time>
      </trkpt>
      <trkpt lat="45.1358" lon="5.56125">
        <ele>1252.4</ele>
        <time>2021-10-10T10:51:11Z</time>
      </trkpt>
      <trkpt lat="45.13582" lon="5.56125">
        <ele>1252.4</ele>
        <time>2021-10-10T10:51:12Z</time>
      </trkpt>
      <trkpt lat="45.13586" lon="5.56124">
        <ele>1252.4</ele>
        <time>2021-10-10T10:51:13Z</time>
      </trkpt>
      <trkpt lat="45.13588" lon="5.56122">
        <ele>1253</ele>
        <time>2021-10-10T10:51:14Z</time>
      </trkpt>
      <trkpt lat="45.13591" lon="5.56122">
        <ele>1253</ele>
        <time>2021-10-10T10:51:15Z</time>
      </trkpt>
      <trkpt lat="45.13593" lon="5.56122">
        <ele>1253</ele>
        <time>2021-10-10T10:51:16Z</time>
      </trkpt>
      <trkpt lat="45.13596" lon="5.56121">
        <ele>1252.8</ele>
        <time>2021-10-10T10:51:17Z</time>
      </trkpt>
      <trkpt lat="45.13598" lon="5.5612">
        <ele>1253.4</ele>
        <time>2021-10-10T10:51:18Z</time>
      </trkpt>
      <trkpt lat="45.13602" lon="5.5612">
        <ele>1253.4</ele>
        <time>2021-10-10T10:51:19Z</time>
      </trkpt>
      <trkpt lat="45.13605" lon="5.5612">
        <ele>1253.4</ele>
        <time>2021-10-10T10:51:20Z</time>
      </trkpt>
      <trkpt lat="45.13609" lon="5.56119">
        <ele>1253.4</ele>
        <time>2021-10-10T10:51:21Z</time>
      </trkpt>
      <trkpt lat="45.13612" lon="5.56118">
        <ele>1253.4</ele>
        <time>2021-10-10T10:51:22Z</time>
      </trkpt>
      <trkpt lat="45.13615" lon="5.56118">
        <ele>1253.4</ele>
        <time>2021-10-10T10:51:23Z</time>
      </trkpt>
      <trkpt lat="45.13618" lon="5.56117">
        <ele>1253.4</ele>
        <time>2021-10-10T10:51:24Z</time>
      </trkpt>
      <trkpt lat="45.13621" lon="5.56118">
        <ele>1254</ele>
        <time>2021-10-10T10:51:25Z</time>
      </trkpt>
      <trkpt lat="45.13624" lon="5.56117">
        <ele>1254</ele>
        <time>2021-10-10T10:51:26Z</time>
      </trkpt>
      <trkpt lat="45.13627" lon="5.56118">
        <ele>1254</ele>
        <time>2021-10-10T10:51:27Z</time>
      </trkpt>
      <trkpt lat="45.13631" lon="5.56117">
        <ele>1254</ele>
        <time>2021-10-10T10:51:28Z</time>
      </trkpt>
      <trkpt lat="45.13634" lon="5.56117">
        <ele>1254</ele>
        <time>2021-10-10T10:51:29Z</time>
      </trkpt>
      <trkpt lat="45.13637" lon="5.56117">
        <ele>1254.4</ele>
        <time>2021-10-10T10:51:30Z</time>
      </trkpt>
      <trkpt lat="45.1364" lon="5.56116">
        <ele>1254.4</ele>
        <time>2021-10-10T10:51:31Z</time>
      </trkpt>
      <trkpt lat="45.13643" lon="5.56116">
        <ele>1254.4</ele>
        <time>2021-10-10T10:51:32Z</time>
      </trkpt>
      <trkpt lat="45.13647" lon="5.56116">
        <ele>1255.2</ele>
        <time>2021-10-10T10:51:33Z</time>
      </trkpt>
      <trkpt lat="45.1365" lon="5.56115">
        <ele>1255.4</ele>
        <time>2021-10-10T10:51:34Z</time>
      </trkpt>
      <trkpt lat="45.13653" lon="5.56115">
        <ele>1255.4</ele>
        <time>2021-10-10T10:51:35Z</time>
      </trkpt>
      <trkpt lat="45.13656" lon="5.56115">
        <ele>1255.4</ele>
        <time>2021-10-10T10:51:36Z</time>
      </trkpt>
      <trkpt lat="45.13658" lon="5.56114">
        <ele>1256.2</ele>
        <time>2021-10-10T10:51:37Z</time>
      </trkpt>
      <trkpt lat="45.13661" lon="5.56114">
        <ele>1256.2</ele>
        <time>2021-10-10T10:51:38Z</time>
      </trkpt>
      <trkpt lat="45.13664" lon="5.56114">
        <ele>1256.2</ele>
        <time>2021-10-10T10:51:39Z</time>
      </trkpt>
      <trkpt lat="45.13667" lon="5.56112">
        <ele>1256.2</ele>
        <time>2021-10-10T10:51:40Z</time>
      </trkpt>
      <trkpt lat="45.13669" lon="5.56112">
        <ele>1256.2</ele>
        <time>2021-10-10T10:51:41Z</time>
      </trkpt>
      <trkpt lat="45.13672" lon="5.56111">
        <ele>1256.4</ele>
        <time>2021-10-10T10:51:42Z</time>
      </trkpt>
      <trkpt lat="45.13675" lon="5.5611">
        <ele>1256.4</ele>
        <time>2021-10-10T10:51:43Z</time>
      </trkpt>
      <trkpt lat="45.13676" lon="5.56109">
        <ele>1256.4</ele>
        <time>2021-10-10T10:51:44Z</time>
      </trkpt>
      <trkpt lat="45.13679" lon="5.56109">
        <ele>1256.4</ele>
        <time>2021-10-10T10:51:45Z</time>
      </trkpt>
      <trkpt lat="45.13681" lon="5.56109">
        <ele>1256.6</ele>
        <time>2021-10-10T10:51:46Z</time>
      </trkpt>
      <trkpt lat="45.13684" lon="5.56108">
        <ele>1256.6</ele>
        <time>2021-10-10T10:51:47Z</time>
      </trkpt>
      <trkpt lat="45.13686" lon="5.56106">
        <ele>1256.6</ele>
        <time>2021-10-10T10:51:48Z</time>
      </trkpt>
      <trkpt lat="45.13689" lon="5.56106">
        <ele>1256.6</ele>
        <time>2021-10-10T10:51:49Z</time>
      </trkpt>
      <trkpt lat="45.13692" lon="5.56106">
        <ele>1256.8</ele>
        <time>2021-10-10T10:51:50Z</time>
      </trkpt>
      <trkpt lat="45.13694" lon="5.56105">
        <ele>1256.8</ele>
        <time>2021-10-10T10:51:51Z</time>
      </trkpt>
      <trkpt lat="45.13697" lon="5.56104">
        <ele>1256.8</ele>
        <time>2021-10-10T10:51:52Z</time>
      </trkpt>
      <trkpt lat="45.137" lon="5.56103">
        <ele>1257.2</ele>
        <time>2021-10-10T10:51:53Z</time>
      </trkpt>
      <trkpt lat="45.13701" lon="5.56103">
        <ele>1257.2</ele>
        <time>2021-10-10T10:51:54Z</time>
      </trkpt>
      <trkpt lat="45.13703" lon="5.56101">
        <ele>1257.2</ele>
        <time>2021-10-10T10:51:55Z</time>
      </trkpt>
      <trkpt lat="45.13706" lon="5.56101">
        <ele>1257.2</ele>
        <time>2021-10-10T10:51:56Z</time>
      </trkpt>
      <trkpt lat="45.13709" lon="5.561">
        <ele>1257.4</ele>
        <time>2021-10-10T10:51:57Z</time>
      </trkpt>
      <trkpt lat="45.13711" lon="5.561">
        <ele>1257.6</ele>
        <time>2021-10-10T10:51:58Z</time>
      </trkpt>
      <trkpt lat="45.13713" lon="5.56099">
        <ele>1257.6</ele>
        <time>2021-10-10T10:51:59Z</time>
      </trkpt>
      <trkpt lat="45.13716" lon="5.56098">
        <ele>1257.6</ele>
        <time>2021-10-10T10:52:00Z</time>
      </trkpt>
      <trkpt lat="45.13718" lon="5.56097">
        <ele>1257.6</ele>
        <time>2021-10-10T10:52:01Z</time>
      </trkpt>
      <trkpt lat="45.13721" lon="5.56095">
        <ele>1258</ele>
        <time>2021-10-10T10:52:02Z</time>
      </trkpt>
      <trkpt lat="45.13722" lon="5.56094">
        <ele>1258</ele>
        <time>2021-10-10T10:52:03Z</time>
      </trkpt>
      <trkpt lat="45.13725" lon="5.56093">
        <ele>1258</ele>
        <time>2021-10-10T10:52:04Z</time>
      </trkpt>
      <trkpt lat="45.1373" lon="5.56092">
        <ele>1258.2</ele>
        <time>2021-10-10T10:52:05Z</time>
      </trkpt>
      <trkpt lat="45.13733" lon="5.56091">
        <ele>1258.4</ele>
        <time>2021-10-10T10:52:06Z</time>
      </trkpt>
      <trkpt lat="45.13737" lon="5.5609">
        <ele>1258.4</ele>
        <time>2021-10-10T10:52:07Z</time>
      </trkpt>
      <trkpt lat="45.1374" lon="5.56089">
        <ele>1258.4</ele>
        <time>2021-10-10T10:52:08Z</time>
      </trkpt>
      <trkpt lat="45.13743" lon="5.56087">
        <ele>1258.8</ele>
        <time>2021-10-10T10:52:09Z</time>
      </trkpt>
      <trkpt lat="45.13745" lon="5.56086">
        <ele>1259.2</ele>
        <time>2021-10-10T10:52:10Z</time>
      </trkpt>
      <trkpt lat="45.13748" lon="5.56085">
        <ele>1259.2</ele>
        <time>2021-10-10T10:52:11Z</time>
      </trkpt>
      <trkpt lat="45.1375" lon="5.56083">
        <ele>1259.2</ele>
        <time>2021-10-10T10:52:12Z</time>
      </trkpt>
      <trkpt lat="45.13752" lon="5.56083">
        <ele>1260</ele>
        <time>2021-10-10T10:52:13Z</time>
      </trkpt>
      <trkpt lat="45.13754" lon="5.56082">
        <ele>1260.2</ele>
        <time>2021-10-10T10:52:14Z</time>
      </trkpt>
      <trkpt lat="45.13756" lon="5.5608">
        <ele>1260.2</ele>
        <time>2021-10-10T10:52:15Z</time>
      </trkpt>
      <trkpt lat="45.13758" lon="5.56079">
        <ele>1260.2</ele>
        <time>2021-10-10T10:52:16Z</time>
      </trkpt>
      <trkpt lat="45.13761" lon="5.56078">
        <ele>1260.6</ele>
        <time>2021-10-10T10:52:17Z</time>
      </trkpt>
      <trkpt lat="45.13764" lon="5.56078">
        <ele>1260.6</ele>
        <time>2021-10-10T10:52:18Z</time>
      </trkpt>
      <trkpt lat="45.13766" lon="5.56076">
        <ele>1260.6</ele>
        <time>2021-10-10T10:52:19Z</time>
      </trkpt>
      <trkpt lat="45.13769" lon="5.56076">
        <ele>1260.6</ele>
        <time>2021-10-10T10:52:20Z</time>
      </trkpt>
      <trkpt lat="45.13771" lon="5.56075">
        <ele>1261.4</ele>
        <time>2021-10-10T10:52:21Z</time>
      </trkpt>
      <trkpt lat="45.13774" lon="5.56074">
        <ele>1261.6</ele>
        <time>2021-10-10T10:52:22Z</time>
      </trkpt>
      <trkpt lat="45.13777" lon="5.56074">
        <ele>1261.6</ele>
        <time>2021-10-10T10:52:23Z</time>
      </trkpt>
      <trkpt lat="45.13779" lon="5.56074">
        <ele>1261.6</ele>
        <time>2021-10-10T10:52:24Z</time>
      </trkpt>
      <trkpt lat="45.13782" lon="5.56072">
        <ele>1262.4</ele>
        <time>2021-10-10T10:52:25Z</time>
      </trkpt>
      <trkpt lat="45.13784" lon="5.56071">
        <ele>1262.4</ele>
        <time>2021-10-10T10:52:26Z</time>
      </trkpt>
      <trkpt lat="45.13786" lon="5.56069">
        <ele>1262.4</ele>
        <time>2021-10-10T10:52:27Z</time>
      </trkpt>
      <trkpt lat="45.13789" lon="5.56069">
        <ele>1262.4</ele>
        <time>2021-10-10T10:52:28Z</time>
      </trkpt>
      <trkpt lat="45.13791" lon="5.56067">
        <ele>1262.8</ele>
        <time>2021-10-10T10:52:29Z</time>
      </trkpt>
      <trkpt lat="45.13794" lon="5.56066">
        <ele>1262.8</ele>
        <time>2021-10-10T10:52:30Z</time>
      </trkpt>
      <trkpt lat="45.13797" lon="5.56065">
        <ele>1262.8</ele>
        <time>2021-10-10T10:52:31Z</time>
      </trkpt>
      <trkpt lat="45.138" lon="5.56062">
        <ele>1262.8</ele>
        <time>2021-10-10T10:52:32Z</time>
      </trkpt>
      <trkpt lat="45.13802" lon="5.56062">
        <ele>1262.8</ele>
        <time>2021-10-10T10:52:33Z</time>
      </trkpt>
      <trkpt lat="45.13804" lon="5.56063">
        <ele>1263.6</ele>
        <time>2021-10-10T10:52:34Z</time>
      </trkpt>
      <trkpt lat="45.13805" lon="5.56062">
        <ele>1263.6</ele>
        <time>2021-10-10T10:52:35Z</time>
      </trkpt>
      <trkpt lat="45.13808" lon="5.56062">
        <ele>1263.6</ele>
        <time>2021-10-10T10:52:36Z</time>
      </trkpt>
      <trkpt lat="45.13811" lon="5.5606">
        <ele>1264.6</ele>
        <time>2021-10-10T10:52:37Z</time>
      </trkpt>
      <trkpt lat="45.13814" lon="5.56059">
        <ele>1264</ele>
        <time>2021-10-10T10:52:38Z</time>
      </trkpt>
      <trkpt lat="45.13817" lon="5.56058">
        <ele>1264</ele>
        <time>2021-10-10T10:52:39Z</time>
      </trkpt>
      <trkpt lat="45.1382" lon="5.56059">
        <ele>1264</ele>
        <time>2021-10-10T10:52:40Z</time>
      </trkpt>
      <trkpt lat="45.13823" lon="5.56059">
        <ele>1264.8</ele>
        <time>2021-10-10T10:52:41Z</time>
      </trkpt>
      <trkpt lat="45.13825" lon="5.56059">
        <ele>1265</ele>
        <time>2021-10-10T10:52:42Z</time>
      </trkpt>
      <trkpt lat="45.13828" lon="5.56058">
        <ele>1265</ele>
        <time>2021-10-10T10:52:43Z</time>
      </trkpt>
      <trkpt lat="45.13829" lon="5.56057">
        <ele>1265</ele>
        <time>2021-10-10T10:52:44Z</time>
      </trkpt>
      <trkpt lat="45.13832" lon="5.56057">
        <ele>1265</ele>
        <time>2021-10-10T10:52:45Z</time>
      </trkpt>
      <trkpt lat="45.13835" lon="5.56057">
        <ele>1265.8</ele>
        <time>2021-10-10T10:52:46Z</time>
      </trkpt>
      <trkpt lat="45.13837" lon="5.56055">
        <ele>1265.8</ele>
        <time>2021-10-10T10:52:47Z</time>
      </trkpt>
      <trkpt lat="45.1384" lon="5.56055">
        <ele>1265.8</ele>
        <time>2021-10-10T10:52:48Z</time>
      </trkpt>
      <trkpt lat="45.13843" lon="5.56055">
        <ele>1266.2</ele>
        <time>2021-10-10T10:52:49Z</time>
      </trkpt>
      <trkpt lat="45.13846" lon="5.56055">
        <ele>1266.6</ele>
        <time>2021-10-10T10:52:50Z</time>
      </trkpt>
      <trkpt lat="45.13848" lon="5.56055">
        <ele>1266.6</ele>
        <time>2021-10-10T10:52:51Z</time>
      </trkpt>
      <trkpt lat="45.1385" lon="5.56055">
        <ele>1266.6</ele>
        <time>2021-10-10T10:52:52Z</time>
      </trkpt>
      <trkpt lat="45.13853" lon="5.56054">
        <ele>1267</ele>
        <time>2021-10-10T10:52:53Z</time>
      </trkpt>
      <trkpt lat="45.13855" lon="5.56054">
        <ele>1266.8</ele>
        <time>2021-10-10T10:52:54Z</time>
      </trkpt>
      <trkpt lat="45.13857" lon="5.56054">
        <ele>1266.8</ele>
        <time>2021-10-10T10:52:55Z</time>
      </trkpt>
      <trkpt lat="45.13858" lon="5.56053">
        <ele>1266.8</ele>
        <time>2021-10-10T10:52:56Z</time>
      </trkpt>
      <trkpt lat="45.13861" lon="5.56053">
        <ele>1267.8</ele>
        <time>2021-10-10T10:52:57Z</time>
      </trkpt>
      <trkpt lat="45.13862" lon="5.56052">
        <ele>1268.2</ele>
        <time>2021-10-10T10:52:58Z</time>
      </trkpt>
      <trkpt lat="45.13864" lon="5.56053">
        <ele>1268.2</ele>
        <time>2021-10-10T10:52:59Z</time>
      </trkpt>
      <trkpt lat="45.13865" lon="5.56053">
        <ele>1268.2</ele>
        <time>2021-10-10T10:53:00Z</time>
      </trkpt>
      <trkpt lat="45.13868" lon="5.56053">
        <ele>1268.2</ele>
        <time>2021-10-10T10:53:01Z</time>
      </trkpt>
      <trkpt lat="45.13871" lon="5.56053">
        <ele>1268.4</ele>
        <time>2021-10-10T10:53:02Z</time>
      </trkpt>
      <trkpt lat="45.13874" lon="5.56053">
        <ele>1268.4</ele>
        <time>2021-10-10T10:53:03Z</time>
      </trkpt>
      <trkpt lat="45.13877" lon="5.56052">
        <ele>1268.4</ele>
        <time>2021-10-10T10:53:04Z</time>
      </trkpt>
      <trkpt lat="45.13879" lon="5.56053">
        <ele>1269</ele>
        <time>2021-10-10T10:53:05Z</time>
      </trkpt>
      <trkpt lat="45.13882" lon="5.56053">
        <ele>1269.6</ele>
        <time>2021-10-10T10:53:06Z</time>
      </trkpt>
      <trkpt lat="45.13884" lon="5.56053">
        <ele>1269.6</ele>
        <time>2021-10-10T10:53:07Z</time>
      </trkpt>
      <trkpt lat="45.13886" lon="5.56054">
        <ele>1269.6</ele>
        <time>2021-10-10T10:53:08Z</time>
      </trkpt>
      <trkpt lat="45.13889" lon="5.56054">
        <ele>1269.6</ele>
        <time>2021-10-10T10:53:09Z</time>
      </trkpt>
      <trkpt lat="45.13892" lon="5.56054">
        <ele>1270</ele>
        <time>2021-10-10T10:53:10Z</time>
      </trkpt>
      <trkpt lat="45.13894" lon="5.56055">
        <ele>1270</ele>
        <time>2021-10-10T10:53:11Z</time>
      </trkpt>
      <trkpt lat="45.13897" lon="5.56057">
        <ele>1270</ele>
        <time>2021-10-10T10:53:12Z</time>
      </trkpt>
      <trkpt lat="45.13899" lon="5.56059">
        <ele>1270.8</ele>
        <time>2021-10-10T10:53:13Z</time>
      </trkpt>
      <trkpt lat="45.13901" lon="5.56062">
        <ele>1271</ele>
        <time>2021-10-10T10:53:14Z</time>
      </trkpt>
      <trkpt lat="45.13903" lon="5.56064">
        <ele>1271</ele>
        <time>2021-10-10T10:53:15Z</time>
      </trkpt>
      <trkpt lat="45.13905" lon="5.56067">
        <ele>1271</ele>
        <time>2021-10-10T10:53:16Z</time>
      </trkpt>
      <trkpt lat="45.13906" lon="5.56069">
        <ele>1271</ele>
        <time>2021-10-10T10:53:17Z</time>
      </trkpt>
      <trkpt lat="45.13907" lon="5.56073">
        <ele>1271.6</ele>
        <time>2021-10-10T10:53:18Z</time>
      </trkpt>
      <trkpt lat="45.13907" lon="5.56076">
        <ele>1271.6</ele>
        <time>2021-10-10T10:53:19Z</time>
      </trkpt>
      <trkpt lat="45.13907" lon="5.56079">
        <ele>1271.6</ele>
        <time>2021-10-10T10:53:20Z</time>
      </trkpt>
      <trkpt lat="45.13907" lon="5.56082">
        <ele>1272</ele>
        <time>2021-10-10T10:53:21Z</time>
      </trkpt>
      <trkpt lat="45.13907" lon="5.56086">
        <ele>1272.2</ele>
        <time>2021-10-10T10:53:22Z</time>
      </trkpt>
      <trkpt lat="45.13907" lon="5.56089">
        <ele>1272.2</ele>
        <time>2021-10-10T10:53:23Z</time>
      </trkpt>
      <trkpt lat="45.13907" lon="5.56092">
        <ele>1272.2</ele>
        <time>2021-10-10T10:53:24Z</time>
      </trkpt>
      <trkpt lat="45.13908" lon="5.56094">
        <ele>1272.8</ele>
        <time>2021-10-10T10:53:25Z</time>
      </trkpt>
      <trkpt lat="45.13908" lon="5.56097">
        <ele>1272.8</ele>
        <time>2021-10-10T10:53:26Z</time>
      </trkpt>
      <trkpt lat="45.13908" lon="5.56099">
        <ele>1272.8</ele>
        <time>2021-10-10T10:53:27Z</time>
      </trkpt>
      <trkpt lat="45.13908" lon="5.56102">
        <ele>1272.8</ele>
        <time>2021-10-10T10:53:28Z</time>
      </trkpt>
      <trkpt lat="45.13908" lon="5.56105">
        <ele>1273.6</ele>
        <time>2021-10-10T10:53:29Z</time>
      </trkpt>
      <trkpt lat="45.13907" lon="5.56108">
        <ele>1273.6</ele>
        <time>2021-10-10T10:53:30Z</time>
      </trkpt>
      <trkpt lat="45.13907" lon="5.56111">
        <ele>1273.6</ele>
        <time>2021-10-10T10:53:31Z</time>
      </trkpt>
      <trkpt lat="45.13907" lon="5.56113">
        <ele>1273.6</ele>
        <time>2021-10-10T10:53:32Z</time>
      </trkpt>
      <trkpt lat="45.13907" lon="5.56117">
        <ele>1273.6</ele>
        <time>2021-10-10T10:53:33Z</time>
      </trkpt>
      <trkpt lat="45.13908" lon="5.5612">
        <ele>1274.6</ele>
        <time>2021-10-10T10:53:34Z</time>
      </trkpt>
      <trkpt lat="45.13908" lon="5.56122">
        <ele>1274.6</ele>
        <time>2021-10-10T10:53:35Z</time>
      </trkpt>
      <trkpt lat="45.13908" lon="5.56124">
        <ele>1274.6</ele>
        <time>2021-10-10T10:53:36Z</time>
      </trkpt>
      <trkpt lat="45.13909" lon="5.56126">
        <ele>1275</ele>
        <time>2021-10-10T10:53:37Z</time>
      </trkpt>
      <trkpt lat="45.13908" lon="5.56129">
        <ele>1275</ele>
        <time>2021-10-10T10:53:38Z</time>
      </trkpt>
      <trkpt lat="45.13909" lon="5.56132">
        <ele>1275</ele>
        <time>2021-10-10T10:53:39Z</time>
      </trkpt>
      <trkpt lat="45.13908" lon="5.56135">
        <ele>1275</ele>
        <time>2021-10-10T10:53:40Z</time>
      </trkpt>
      <trkpt lat="45.1391" lon="5.56138">
        <ele>1275</ele>
        <time>2021-10-10T10:53:41Z</time>
      </trkpt>
      <trkpt lat="45.13909" lon="5.56141">
        <ele>1275.4</ele>
        <time>2021-10-10T10:53:42Z</time>
      </trkpt>
      <trkpt lat="45.13909" lon="5.56144">
        <ele>1275.4</ele>
        <time>2021-10-10T10:53:43Z</time>
      </trkpt>
      <trkpt lat="45.13908" lon="5.56147">
        <ele>1275.4</ele>
        <time>2021-10-10T10:53:44Z</time>
      </trkpt>
      <trkpt lat="45.13908" lon="5.56151">
        <ele>1275.4</ele>
        <time>2021-10-10T10:53:45Z</time>
      </trkpt>
      <trkpt lat="45.13908" lon="5.56154">
        <ele>1276.2</ele>
        <time>2021-10-10T10:53:46Z</time>
      </trkpt>
      <trkpt lat="45.13907" lon="5.56158">
        <ele>1276.2</ele>
        <time>2021-10-10T10:53:47Z</time>
      </trkpt>
      <trkpt lat="45.13907" lon="5.56161">
        <ele>1276.2</ele>
        <time>2021-10-10T10:53:48Z</time>
      </trkpt>
      <trkpt lat="45.13907" lon="5.56164">
        <ele>1276.4</ele>
        <time>2021-10-10T10:53:49Z</time>
      </trkpt>
      <trkpt lat="45.13907" lon="5.56167">
        <ele>1276.6</ele>
        <time>2021-10-10T10:53:50Z</time>
      </trkpt>
      <trkpt lat="45.13909" lon="5.5617">
        <ele>1276.6</ele>
        <time>2021-10-10T10:53:51Z</time>
      </trkpt>
      <trkpt lat="45.13909" lon="5.56173">
        <ele>1276.6</ele>
        <time>2021-10-10T10:53:52Z</time>
      </trkpt>
      <trkpt lat="45.13908" lon="5.56177">
        <ele>1277.4</ele>
        <time>2021-10-10T10:53:53Z</time>
      </trkpt>
      <trkpt lat="45.13909" lon="5.5618">
        <ele>1277.8</ele>
        <time>2021-10-10T10:53:54Z</time>
      </trkpt>
      <trkpt lat="45.13908" lon="5.56183">
        <ele>1277.8</ele>
        <time>2021-10-10T10:53:55Z</time>
      </trkpt>
      <trkpt lat="45.13909" lon="5.56185">
        <ele>1277.8</ele>
        <time>2021-10-10T10:53:56Z</time>
      </trkpt>
      <trkpt lat="45.13909" lon="5.56187">
        <ele>1278.2</ele>
        <time>2021-10-10T10:53:57Z</time>
      </trkpt>
      <trkpt lat="45.1391" lon="5.5619">
        <ele>1278.2</ele>
        <time>2021-10-10T10:53:58Z</time>
      </trkpt>
      <trkpt lat="45.1391" lon="5.56193">
        <ele>1278.2</ele>
        <time>2021-10-10T10:53:59Z</time>
      </trkpt>
      <trkpt lat="45.13911" lon="5.56196">
        <ele>1278.2</ele>
        <time>2021-10-10T10:54:00Z</time>
      </trkpt>
      <trkpt lat="45.13911" lon="5.56198">
        <ele>1278.8</ele>
        <time>2021-10-10T10:54:01Z</time>
      </trkpt>
      <trkpt lat="45.13911" lon="5.56201">
        <ele>1278.8</ele>
        <time>2021-10-10T10:54:02Z</time>
      </trkpt>
      <trkpt lat="45.13911" lon="5.56205">
        <ele>1278.8</ele>
        <time>2021-10-10T10:54:03Z</time>
      </trkpt>
      <trkpt lat="45.13912" lon="5.56207">
        <ele>1278.8</ele>
        <time>2021-10-10T10:54:04Z</time>
      </trkpt>
      <trkpt lat="45.13912" lon="5.56211">
        <ele>1279.6</ele>
        <time>2021-10-10T10:54:05Z</time>
      </trkpt>
      <trkpt lat="45.13911" lon="5.56214">
        <ele>1279.4</ele>
        <time>2021-10-10T10:54:06Z</time>
      </trkpt>
      <trkpt lat="45.13911" lon="5.56217">
        <ele>1279.4</ele>
        <time>2021-10-10T10:54:07Z</time>
      </trkpt>
      <trkpt lat="45.13912" lon="5.5622">
        <ele>1279.4</ele>
        <time>2021-10-10T10:54:08Z</time>
      </trkpt>
      <trkpt lat="45.13913" lon="5.56223">
        <ele>1279.4</ele>
        <time>2021-10-10T10:54:09Z</time>
      </trkpt>
      <trkpt lat="45.13913" lon="5.56226">
        <ele>1280</ele>
        <time>2021-10-10T10:54:10Z</time>
      </trkpt>
      <trkpt lat="45.13914" lon="5.5623">
        <ele>1280</ele>
        <time>2021-10-10T10:54:11Z</time>
      </trkpt>
      <trkpt lat="45.13915" lon="5.56233">
        <ele>1280</ele>
        <time>2021-10-10T10:54:12Z</time>
      </trkpt>
      <trkpt lat="45.13915" lon="5.56236">
        <ele>1280</ele>
        <time>2021-10-10T10:54:13Z</time>
      </trkpt>
      <trkpt lat="45.13917" lon="5.56239">
        <ele>1280.4</ele>
        <time>2021-10-10T10:54:14Z</time>
      </trkpt>
      <trkpt lat="45.13918" lon="5.56242">
        <ele>1280.4</ele>
        <time>2021-10-10T10:54:15Z</time>
      </trkpt>
      <trkpt lat="45.1392" lon="5.56244">
        <ele>1280.4</ele>
        <time>2021-10-10T10:54:16Z</time>
      </trkpt>
      <trkpt lat="45.13923" lon="5.56246">
        <ele>1280.4</ele>
        <time>2021-10-10T10:54:17Z</time>
      </trkpt>
      <trkpt lat="45.13925" lon="5.56248">
        <ele>1281.2</ele>
        <time>2021-10-10T10:54:18Z</time>
      </trkpt>
      <trkpt lat="45.13928" lon="5.56249">
        <ele>1281.2</ele>
        <time>2021-10-10T10:54:19Z</time>
      </trkpt>
      <trkpt lat="45.1393" lon="5.56251">
        <ele>1281.2</ele>
        <time>2021-10-10T10:54:20Z</time>
      </trkpt>
      <trkpt lat="45.13933" lon="5.56251">
        <ele>1281.2</ele>
        <time>2021-10-10T10:54:21Z</time>
      </trkpt>
      <trkpt lat="45.13934" lon="5.5625">
        <ele>1282</ele>
        <time>2021-10-10T10:54:22Z</time>
      </trkpt>
      <trkpt lat="45.13936" lon="5.5625">
        <ele>1282</ele>
        <time>2021-10-10T10:54:23Z</time>
      </trkpt>
      <trkpt lat="45.13938" lon="5.5625">
        <ele>1282</ele>
        <time>2021-10-10T10:54:24Z</time>
      </trkpt>
      <trkpt lat="45.13941" lon="5.56251">
        <ele>1282.6</ele>
        <time>2021-10-10T10:54:25Z</time>
      </trkpt>
      <trkpt lat="45.13943" lon="5.56251">
        <ele>1282.4</ele>
        <time>2021-10-10T10:54:26Z</time>
      </trkpt>
      <trkpt lat="45.13945" lon="5.5625">
        <ele>1282.4</ele>
        <time>2021-10-10T10:54:27Z</time>
      </trkpt>
      <trkpt lat="45.13948" lon="5.5625">
        <ele>1282.4</ele>
        <time>2021-10-10T10:54:28Z</time>
      </trkpt>
      <trkpt lat="45.1395" lon="5.56249">
        <ele>1282.8</ele>
        <time>2021-10-10T10:54:29Z</time>
      </trkpt>
      <trkpt lat="45.13952" lon="5.56248">
        <ele>1283</ele>
        <time>2021-10-10T10:54:30Z</time>
      </trkpt>
      <trkpt lat="45.13954" lon="5.56247">
        <ele>1283</ele>
        <time>2021-10-10T10:54:31Z</time>
      </trkpt>
      <trkpt lat="45.13955" lon="5.56245">
        <ele>1283</ele>
        <time>2021-10-10T10:54:32Z</time>
      </trkpt>
      <trkpt lat="45.13956" lon="5.56243">
        <ele>1283.6</ele>
        <time>2021-10-10T10:54:33Z</time>
      </trkpt>
      <trkpt lat="45.13958" lon="5.56241">
        <ele>1283.2</ele>
        <time>2021-10-10T10:54:34Z</time>
      </trkpt>
      <trkpt lat="45.13959" lon="5.56239">
        <ele>1283.2</ele>
        <time>2021-10-10T10:54:35Z</time>
      </trkpt>
      <trkpt lat="45.1396" lon="5.56236">
        <ele>1283.2</ele>
        <time>2021-10-10T10:54:36Z</time>
      </trkpt>
      <trkpt lat="45.13962" lon="5.56234">
        <ele>1283.8</ele>
        <time>2021-10-10T10:54:37Z</time>
      </trkpt>
      <trkpt lat="45.13962" lon="5.5623">
        <ele>1284</ele>
        <time>2021-10-10T10:54:38Z</time>
      </trkpt>
      <trkpt lat="45.13963" lon="5.56228">
        <ele>1284</ele>
        <time>2021-10-10T10:54:39Z</time>
      </trkpt>
      <trkpt lat="45.13964" lon="5.56226">
        <ele>1284</ele>
        <time>2021-10-10T10:54:40Z</time>
      </trkpt>
      <trkpt lat="45.13965" lon="5.56224">
        <ele>1284</ele>
        <time>2021-10-10T10:54:41Z</time>
      </trkpt>
      <trkpt lat="45.13965" lon="5.56222">
        <ele>1284.2</ele>
        <time>2021-10-10T10:54:42Z</time>
      </trkpt>
      <trkpt lat="45.13966" lon="5.5622">
        <ele>1284.2</ele>
        <time>2021-10-10T10:54:43Z</time>
      </trkpt>
      <trkpt lat="45.13967" lon="5.56217">
        <ele>1284.2</ele>
        <time>2021-10-10T10:54:44Z</time>
      </trkpt>
      <trkpt lat="45.13968" lon="5.56215">
        <ele>1284.8</ele>
        <time>2021-10-10T10:54:45Z</time>
      </trkpt>
      <trkpt lat="45.13969" lon="5.56212">
        <ele>1284.8</ele>
        <time>2021-10-10T10:54:46Z</time>
      </trkpt>
      <trkpt lat="45.13971" lon="5.5621">
        <ele>1284.8</ele>
        <time>2021-10-10T10:54:47Z</time>
      </trkpt>
      <trkpt lat="45.13972" lon="5.56207">
        <ele>1284.8</ele>
        <time>2021-10-10T10:54:48Z</time>
      </trkpt>
      <trkpt lat="45.13973" lon="5.56203">
        <ele>1285.4</ele>
        <time>2021-10-10T10:54:49Z</time>
      </trkpt>
      <trkpt lat="45.13975" lon="5.562">
        <ele>1285.4</ele>
        <time>2021-10-10T10:54:50Z</time>
      </trkpt>
      <trkpt lat="45.13977" lon="5.56198">
        <ele>1285.4</ele>
        <time>2021-10-10T10:54:51Z</time>
      </trkpt>
      <trkpt lat="45.13979" lon="5.56196">
        <ele>1285.4</ele>
        <time>2021-10-10T10:54:52Z</time>
      </trkpt>
      <trkpt lat="45.1398" lon="5.56194">
        <ele>1286</ele>
        <time>2021-10-10T10:54:53Z</time>
      </trkpt>
      <trkpt lat="45.13982" lon="5.56193">
        <ele>1286.2</ele>
        <time>2021-10-10T10:54:54Z</time>
      </trkpt>
      <trkpt lat="45.13984" lon="5.5619">
        <ele>1286.2</ele>
        <time>2021-10-10T10:54:55Z</time>
      </trkpt>
      <trkpt lat="45.13986" lon="5.56188">
        <ele>1286.2</ele>
        <time>2021-10-10T10:54:56Z</time>
      </trkpt>
      <trkpt lat="45.13989" lon="5.56187">
        <ele>1286.8</ele>
        <time>2021-10-10T10:54:57Z</time>
      </trkpt>
      <trkpt lat="45.13992" lon="5.56184">
        <ele>1286.8</ele>
        <time>2021-10-10T10:54:58Z</time>
      </trkpt>
      <trkpt lat="45.13995" lon="5.56183">
        <ele>1286.8</ele>
        <time>2021-10-10T10:54:59Z</time>
      </trkpt>
      <trkpt lat="45.13998" lon="5.56182">
        <ele>1286.8</ele>
        <time>2021-10-10T10:55:00Z</time>
      </trkpt>
      <trkpt lat="45.14001" lon="5.56182">
        <ele>1287.4</ele>
        <time>2021-10-10T10:55:01Z</time>
      </trkpt>
      <trkpt lat="45.14003" lon="5.56182">
        <ele>1287.4</ele>
        <time>2021-10-10T10:55:02Z</time>
      </trkpt>
      <trkpt lat="45.14005" lon="5.56184">
        <ele>1287.4</ele>
        <time>2021-10-10T10:55:03Z</time>
      </trkpt>
      <trkpt lat="45.14007" lon="5.56186">
        <ele>1287.4</ele>
        <time>2021-10-10T10:55:04Z</time>
      </trkpt>
      <trkpt lat="45.14009" lon="5.56188">
        <ele>1288.2</ele>
        <time>2021-10-10T10:55:05Z</time>
      </trkpt>
      <trkpt lat="45.1401" lon="5.5619">
        <ele>1288.4</ele>
        <time>2021-10-10T10:55:06Z</time>
      </trkpt>
      <trkpt lat="45.14012" lon="5.56193">
        <ele>1288.4</ele>
        <time>2021-10-10T10:55:07Z</time>
      </trkpt>
      <trkpt lat="45.14014" lon="5.56195">
        <ele>1288.4</ele>
        <time>2021-10-10T10:55:08Z</time>
      </trkpt>
      <trkpt lat="45.14015" lon="5.56198">
        <ele>1289.2</ele>
        <time>2021-10-10T10:55:09Z</time>
      </trkpt>
      <trkpt lat="45.14017" lon="5.562">
        <ele>1289.2</ele>
        <time>2021-10-10T10:55:10Z</time>
      </trkpt>
      <trkpt lat="45.14019" lon="5.56203">
        <ele>1289.2</ele>
        <time>2021-10-10T10:55:11Z</time>
      </trkpt>
      <trkpt lat="45.1402" lon="5.56205">
        <ele>1289.2</ele>
        <time>2021-10-10T10:55:12Z</time>
      </trkpt>
      <trkpt lat="45.14022" lon="5.56207">
        <ele>1289.2</ele>
        <time>2021-10-10T10:55:13Z</time>
      </trkpt>
      <trkpt lat="45.14024" lon="5.5621">
        <ele>1289.4</ele>
        <time>2021-10-10T10:55:14Z</time>
      </trkpt>
      <trkpt lat="45.14025" lon="5.56212">
        <ele>1289.4</ele>
        <time>2021-10-10T10:55:15Z</time>
      </trkpt>
      <trkpt lat="45.14028" lon="5.56215">
        <ele>1289.4</ele>
        <time>2021-10-10T10:55:16Z</time>
      </trkpt>
      <trkpt lat="45.14029" lon="5.56217">
        <ele>1290.4</ele>
        <time>2021-10-10T10:55:17Z</time>
      </trkpt>
      <trkpt lat="45.14031" lon="5.5622">
        <ele>1290</ele>
        <time>2021-10-10T10:55:18Z</time>
      </trkpt>
      <trkpt lat="45.14032" lon="5.56222">
        <ele>1290</ele>
        <time>2021-10-10T10:55:19Z</time>
      </trkpt>
      <trkpt lat="45.14034" lon="5.56225">
        <ele>1290</ele>
        <time>2021-10-10T10:55:20Z</time>
      </trkpt>
      <trkpt lat="45.14036" lon="5.56227">
        <ele>1290.8</ele>
        <time>2021-10-10T10:55:21Z</time>
      </trkpt>
      <trkpt lat="45.14037" lon="5.56229">
        <ele>1291</ele>
        <time>2021-10-10T10:55:22Z</time>
      </trkpt>
      <trkpt lat="45.14039" lon="5.56231">
        <ele>1291</ele>
        <time>2021-10-10T10:55:23Z</time>
      </trkpt>
      <trkpt lat="45.1404" lon="5.56234">
        <ele>1291</ele>
        <time>2021-10-10T10:55:24Z</time>
      </trkpt>
      <trkpt lat="45.1404" lon="5.56237">
        <ele>1291.6</ele>
        <time>2021-10-10T10:55:25Z</time>
      </trkpt>
      <trkpt lat="45.14041" lon="5.5624">
        <ele>1291.8</ele>
        <time>2021-10-10T10:55:26Z</time>
      </trkpt>
      <trkpt lat="45.14043" lon="5.56242">
        <ele>1291.8</ele>
        <time>2021-10-10T10:55:27Z</time>
      </trkpt>
      <trkpt lat="45.14045" lon="5.56245">
        <ele>1291.8</ele>
        <time>2021-10-10T10:55:28Z</time>
      </trkpt>
      <trkpt lat="45.14046" lon="5.56248">
        <ele>1291.8</ele>
        <time>2021-10-10T10:55:29Z</time>
      </trkpt>
      <trkpt lat="45.14048" lon="5.5625">
        <ele>1292.2</ele>
        <time>2021-10-10T10:55:30Z</time>
      </trkpt>
      <trkpt lat="45.14049" lon="5.56253">
        <ele>1292.2</ele>
        <time>2021-10-10T10:55:31Z</time>
      </trkpt>
      <trkpt lat="45.14051" lon="5.56256">
        <ele>1292.2</ele>
        <time>2021-10-10T10:55:32Z</time>
      </trkpt>
      <trkpt lat="45.14052" lon="5.56259">
        <ele>1292.8</ele>
        <time>2021-10-10T10:55:33Z</time>
      </trkpt>
      <trkpt lat="45.14053" lon="5.56262">
        <ele>1293</ele>
        <time>2021-10-10T10:55:34Z</time>
      </trkpt>
      <trkpt lat="45.14054" lon="5.56265">
        <ele>1293</ele>
        <time>2021-10-10T10:55:35Z</time>
      </trkpt>
      <trkpt lat="45.14055" lon="5.56266">
        <ele>1293</ele>
        <time>2021-10-10T10:55:36Z</time>
      </trkpt>
      <trkpt lat="45.14057" lon="5.56269">
        <ele>1293</ele>
        <time>2021-10-10T10:55:37Z</time>
      </trkpt>
      <trkpt lat="45.14058" lon="5.56272">
        <ele>1293.4</ele>
        <time>2021-10-10T10:55:38Z</time>
      </trkpt>
      <trkpt lat="45.1406" lon="5.56275">
        <ele>1293.4</ele>
        <time>2021-10-10T10:55:39Z</time>
      </trkpt>
      <trkpt lat="45.14061" lon="5.56278">
        <ele>1293.4</ele>
        <time>2021-10-10T10:55:40Z</time>
      </trkpt>
      <trkpt lat="45.14063" lon="5.5628">
        <ele>1293.4</ele>
        <time>2021-10-10T10:55:41Z</time>
      </trkpt>
      <trkpt lat="45.14065" lon="5.56282">
        <ele>1293.8</ele>
        <time>2021-10-10T10:55:42Z</time>
      </trkpt>
      <trkpt lat="45.14067" lon="5.56283">
        <ele>1293.8</ele>
        <time>2021-10-10T10:55:43Z</time>
      </trkpt>
      <trkpt lat="45.14069" lon="5.56284">
        <ele>1293.8</ele>
        <time>2021-10-10T10:55:44Z</time>
      </trkpt>
      <trkpt lat="45.14071" lon="5.56285">
        <ele>1293.8</ele>
        <time>2021-10-10T10:55:45Z</time>
      </trkpt>
      <trkpt lat="45.14074" lon="5.56286">
        <ele>1293.8</ele>
        <time>2021-10-10T10:55:46Z</time>
      </trkpt>
      <trkpt lat="45.14076" lon="5.56286">
        <ele>1293.8</ele>
        <time>2021-10-10T10:55:47Z</time>
      </trkpt>
      <trkpt lat="45.14079" lon="5.56286">
        <ele>1293.8</ele>
        <time>2021-10-10T10:55:48Z</time>
      </trkpt>
      <trkpt lat="45.14082" lon="5.56285">
        <ele>1294.2</ele>
        <time>2021-10-10T10:55:49Z</time>
      </trkpt>
      <trkpt lat="45.14085" lon="5.56283">
        <ele>1294.2</ele>
        <time>2021-10-10T10:55:50Z</time>
      </trkpt>
      <trkpt lat="45.14087" lon="5.56281">
        <ele>1294.2</ele>
        <time>2021-10-10T10:55:51Z</time>
      </trkpt>
      <trkpt lat="45.14089" lon="5.56279">
        <ele>1294.2</ele>
        <time>2021-10-10T10:55:52Z</time>
      </trkpt>
      <trkpt lat="45.14091" lon="5.56276">
        <ele>1294.8</ele>
        <time>2021-10-10T10:55:53Z</time>
      </trkpt>
      <trkpt lat="45.14093" lon="5.56274">
        <ele>1295</ele>
        <time>2021-10-10T10:55:54Z</time>
      </trkpt>
      <trkpt lat="45.14095" lon="5.56271">
        <ele>1295</ele>
        <time>2021-10-10T10:55:55Z</time>
      </trkpt>
      <trkpt lat="45.14097" lon="5.56268">
        <ele>1295</ele>
        <time>2021-10-10T10:55:56Z</time>
      </trkpt>
      <trkpt lat="45.14098" lon="5.56266">
        <ele>1295</ele>
        <time>2021-10-10T10:55:57Z</time>
      </trkpt>
      <trkpt lat="45.141" lon="5.56263">
        <ele>1295.2</ele>
        <time>2021-10-10T10:55:58Z</time>
      </trkpt>
      <trkpt lat="45.14102" lon="5.5626">
        <ele>1295.2</ele>
        <time>2021-10-10T10:55:59Z</time>
      </trkpt>
      <trkpt lat="45.14103" lon="5.56258">
        <ele>1295.2</ele>
        <time>2021-10-10T10:56:00Z</time>
      </trkpt>
      <trkpt lat="45.14105" lon="5.56256">
        <ele>1296</ele>
        <time>2021-10-10T10:56:01Z</time>
      </trkpt>
      <trkpt lat="45.14107" lon="5.56253">
        <ele>1296.2</ele>
        <time>2021-10-10T10:56:02Z</time>
      </trkpt>
      <trkpt lat="45.14108" lon="5.56251">
        <ele>1296.2</ele>
        <time>2021-10-10T10:56:03Z</time>
      </trkpt>
      <trkpt lat="45.1411" lon="5.56248">
        <ele>1296.2</ele>
        <time>2021-10-10T10:56:04Z</time>
      </trkpt>
      <trkpt lat="45.14111" lon="5.56245">
        <ele>1296.8</ele>
        <time>2021-10-10T10:56:05Z</time>
      </trkpt>
      <trkpt lat="45.14113" lon="5.56243">
        <ele>1296.4</ele>
        <time>2021-10-10T10:56:06Z</time>
      </trkpt>
      <trkpt lat="45.14114" lon="5.56241">
        <ele>1296.4</ele>
        <time>2021-10-10T10:56:07Z</time>
      </trkpt>
      <trkpt lat="45.14115" lon="5.56238">
        <ele>1296.4</ele>
        <time>2021-10-10T10:56:08Z</time>
      </trkpt>
      <trkpt lat="45.14116" lon="5.56235">
        <ele>1297.4</ele>
        <time>2021-10-10T10:56:09Z</time>
      </trkpt>
      <trkpt lat="45.14117" lon="5.56232">
        <ele>1298.4</ele>
        <time>2021-10-10T10:56:10Z</time>
      </trkpt>
      <trkpt lat="45.14119" lon="5.5623">
        <ele>1298.4</ele>
        <time>2021-10-10T10:56:11Z</time>
      </trkpt>
      <trkpt lat="45.1412" lon="5.56228">
        <ele>1298.4</ele>
        <time>2021-10-10T10:56:12Z</time>
      </trkpt>
      <trkpt lat="45.14122" lon="5.56226">
        <ele>1298.4</ele>
        <time>2021-10-10T10:56:13Z</time>
      </trkpt>
      <trkpt lat="45.14124" lon="5.56225">
        <ele>1298.6</ele>
        <time>2021-10-10T10:56:14Z</time>
      </trkpt>
      <trkpt lat="45.14126" lon="5.56223">
        <ele>1298.6</ele>
        <time>2021-10-10T10:56:15Z</time>
      </trkpt>
      <trkpt lat="45.14128" lon="5.56221">
        <ele>1298.6</ele>
        <time>2021-10-10T10:56:16Z</time>
      </trkpt>
      <trkpt lat="45.1413" lon="5.56219">
        <ele>1299</ele>
        <time>2021-10-10T10:56:17Z</time>
      </trkpt>
      <trkpt lat="45.14132" lon="5.56218">
        <ele>1299.2</ele>
        <time>2021-10-10T10:56:18Z</time>
      </trkpt>
      <trkpt lat="45.14135" lon="5.56217">
        <ele>1299.2</ele>
        <time>2021-10-10T10:56:19Z</time>
      </trkpt>
      <trkpt lat="45.14137" lon="5.56217">
        <ele>1299.2</ele>
        <time>2021-10-10T10:56:20Z</time>
      </trkpt>
      <trkpt lat="45.1414" lon="5.56216">
        <ele>1299.6</ele>
        <time>2021-10-10T10:56:21Z</time>
      </trkpt>
      <trkpt lat="45.14143" lon="5.56217">
        <ele>1300</ele>
        <time>2021-10-10T10:56:22Z</time>
      </trkpt>
      <trkpt lat="45.14145" lon="5.56218">
        <ele>1300</ele>
        <time>2021-10-10T10:56:23Z</time>
      </trkpt>
      <trkpt lat="45.14148" lon="5.56218">
        <ele>1300</ele>
        <time>2021-10-10T10:56:24Z</time>
      </trkpt>
      <trkpt lat="45.1415" lon="5.56218">
        <ele>1300</ele>
        <time>2021-10-10T10:56:25Z</time>
      </trkpt>
      <trkpt lat="45.14153" lon="5.5622">
        <ele>1300.2</ele>
        <time>2021-10-10T10:56:26Z</time>
      </trkpt>
      <trkpt lat="45.14156" lon="5.5622">
        <ele>1300.2</ele>
        <time>2021-10-10T10:56:27Z</time>
      </trkpt>
      <trkpt lat="45.14158" lon="5.56221">
        <ele>1300.2</ele>
        <time>2021-10-10T10:56:28Z</time>
      </trkpt>
      <trkpt lat="45.1416" lon="5.56221">
        <ele>1301</ele>
        <time>2021-10-10T10:56:29Z</time>
      </trkpt>
      <trkpt lat="45.14162" lon="5.56221">
        <ele>1301</ele>
        <time>2021-10-10T10:56:30Z</time>
      </trkpt>
      <trkpt lat="45.14164" lon="5.5622">
        <ele>1301</ele>
        <time>2021-10-10T10:56:31Z</time>
      </trkpt>
      <trkpt lat="45.14167" lon="5.5622">
        <ele>1301</ele>
        <time>2021-10-10T10:56:32Z</time>
      </trkpt>
      <trkpt lat="45.14168" lon="5.5622">
        <ele>1301.6</ele>
        <time>2021-10-10T10:56:33Z</time>
      </trkpt>
      <trkpt lat="45.14171" lon="5.56219">
        <ele>1301.8</ele>
        <time>2021-10-10T10:56:34Z</time>
      </trkpt>
      <trkpt lat="45.14173" lon="5.56219">
        <ele>1301.8</ele>
        <time>2021-10-10T10:56:35Z</time>
      </trkpt>
      <trkpt lat="45.14175" lon="5.56219">
        <ele>1301.8</ele>
        <time>2021-10-10T10:56:36Z</time>
      </trkpt>
      <trkpt lat="45.14177" lon="5.56218">
        <ele>1302.6</ele>
        <time>2021-10-10T10:56:37Z</time>
      </trkpt>
      <trkpt lat="45.14179" lon="5.56218">
        <ele>1303.2</ele>
        <time>2021-10-10T10:56:38Z</time>
      </trkpt>
      <trkpt lat="45.14181" lon="5.56218">
        <ele>1303.2</ele>
        <time>2021-10-10T10:56:39Z</time>
      </trkpt>
      <trkpt lat="45.14184" lon="5.56218">
        <ele>1303.2</ele>
        <time>2021-10-10T10:56:40Z</time>
      </trkpt>
      <trkpt lat="45.14186" lon="5.56218">
        <ele>1302.8</ele>
        <time>2021-10-10T10:56:41Z</time>
      </trkpt>
      <trkpt lat="45.14188" lon="5.56218">
        <ele>1303</ele>
        <time>2021-10-10T10:56:42Z</time>
      </trkpt>
      <trkpt lat="45.1419" lon="5.56219">
        <ele>1303</ele>
        <time>2021-10-10T10:56:43Z</time>
      </trkpt>
      <trkpt lat="45.14192" lon="5.56219">
        <ele>1303</ele>
        <time>2021-10-10T10:56:44Z</time>
      </trkpt>
      <trkpt lat="45.14194" lon="5.5622">
        <ele>1303.6</ele>
        <time>2021-10-10T10:56:45Z</time>
      </trkpt>
      <trkpt lat="45.14196" lon="5.56221">
        <ele>1303.6</ele>
        <time>2021-10-10T10:56:46Z</time>
      </trkpt>
      <trkpt lat="45.14199" lon="5.5622">
        <ele>1303.6</ele>
        <time>2021-10-10T10:56:47Z</time>
      </trkpt>
      <trkpt lat="45.14201" lon="5.56221">
        <ele>1303.6</ele>
        <time>2021-10-10T10:56:48Z</time>
      </trkpt>
      <trkpt lat="45.14203" lon="5.56221">
        <ele>1303.6</ele>
        <time>2021-10-10T10:56:49Z</time>
      </trkpt>
      <trkpt lat="45.14205" lon="5.5622">
        <ele>1304.2</ele>
        <time>2021-10-10T10:56:50Z</time>
      </trkpt>
      <trkpt lat="45.14208" lon="5.56221">
        <ele>1304.2</ele>
        <time>2021-10-10T10:56:51Z</time>
      </trkpt>
      <trkpt lat="45.1421" lon="5.56221">
        <ele>1304.2</ele>
        <time>2021-10-10T10:56:52Z</time>
      </trkpt>
      <trkpt lat="45.14213" lon="5.56222">
        <ele>1304.4</ele>
        <time>2021-10-10T10:56:53Z</time>
      </trkpt>
      <trkpt lat="45.14215" lon="5.56221">
        <ele>1304.8</ele>
        <time>2021-10-10T10:56:54Z</time>
      </trkpt>
      <trkpt lat="45.14218" lon="5.56221">
        <ele>1304.8</ele>
        <time>2021-10-10T10:56:55Z</time>
      </trkpt>
      <trkpt lat="45.14219" lon="5.56222">
        <ele>1304.8</ele>
        <time>2021-10-10T10:56:56Z</time>
      </trkpt>
      <trkpt lat="45.14221" lon="5.56221">
        <ele>1304.8</ele>
        <time>2021-10-10T10:56:57Z</time>
      </trkpt>
      <trkpt lat="45.14224" lon="5.56222">
        <ele>1305</ele>
        <time>2021-10-10T10:56:58Z</time>
      </trkpt>
      <trkpt lat="45.14227" lon="5.56224">
        <ele>1305</ele>
        <time>2021-10-10T10:56:59Z</time>
      </trkpt>
      <trkpt lat="45.14229" lon="5.56225">
        <ele>1305</ele>
        <time>2021-10-10T10:57:00Z</time>
      </trkpt>
      <trkpt lat="45.14232" lon="5.56225">
        <ele>1305.4</ele>
        <time>2021-10-10T10:57:01Z</time>
      </trkpt>
      <trkpt lat="45.14235" lon="5.56227">
        <ele>1305.4</ele>
        <time>2021-10-10T10:57:02Z</time>
      </trkpt>
      <trkpt lat="45.14237" lon="5.56228">
        <ele>1305.4</ele>
        <time>2021-10-10T10:57:03Z</time>
      </trkpt>
      <trkpt lat="45.14239" lon="5.56229">
        <ele>1305.4</ele>
        <time>2021-10-10T10:57:04Z</time>
      </trkpt>
      <trkpt lat="45.14241" lon="5.56231">
        <ele>1305.8</ele>
        <time>2021-10-10T10:57:05Z</time>
      </trkpt>
      <trkpt lat="45.14243" lon="5.56233">
        <ele>1306</ele>
        <time>2021-10-10T10:57:06Z</time>
      </trkpt>
      <trkpt lat="45.14245" lon="5.56235">
        <ele>1306</ele>
        <time>2021-10-10T10:57:07Z</time>
      </trkpt>
      <trkpt lat="45.14247" lon="5.56236">
        <ele>1306</ele>
        <time>2021-10-10T10:57:08Z</time>
      </trkpt>
      <trkpt lat="45.14249" lon="5.56238">
        <ele>1306.2</ele>
        <time>2021-10-10T10:57:09Z</time>
      </trkpt>
      <trkpt lat="45.14252" lon="5.56239">
        <ele>1306.8</ele>
        <time>2021-10-10T10:57:10Z</time>
      </trkpt>
      <trkpt lat="45.14254" lon="5.5624">
        <ele>1306.8</ele>
        <time>2021-10-10T10:57:11Z</time>
      </trkpt>
      <trkpt lat="45.14256" lon="5.56242">
        <ele>1306.8</ele>
        <time>2021-10-10T10:57:12Z</time>
      </trkpt>
      <trkpt lat="45.14258" lon="5.56242">
        <ele>1307.2</ele>
        <time>2021-10-10T10:57:13Z</time>
      </trkpt>
      <trkpt lat="45.14261" lon="5.56244">
        <ele>1307.2</ele>
        <time>2021-10-10T10:57:14Z</time>
      </trkpt>
      <trkpt lat="45.14262" lon="5.56244">
        <ele>1307.2</ele>
        <time>2021-10-10T10:57:15Z</time>
      </trkpt>
      <trkpt lat="45.14264" lon="5.56245">
        <ele>1307.2</ele>
        <time>2021-10-10T10:57:16Z</time>
      </trkpt>
      <trkpt lat="45.14267" lon="5.56246">
        <ele>1308.2</ele>
        <time>2021-10-10T10:57:17Z</time>
      </trkpt>
      <trkpt lat="45.1427" lon="5.56247">
        <ele>1307.8</ele>
        <time>2021-10-10T10:57:18Z</time>
      </trkpt>
      <trkpt lat="45.14272" lon="5.56248">
        <ele>1307.8</ele>
        <time>2021-10-10T10:57:19Z</time>
      </trkpt>
      <trkpt lat="45.14275" lon="5.5625">
        <ele>1307.8</ele>
        <time>2021-10-10T10:57:20Z</time>
      </trkpt>
      <trkpt lat="45.14277" lon="5.5625">
        <ele>1307.8</ele>
        <time>2021-10-10T10:57:21Z</time>
      </trkpt>
      <trkpt lat="45.1428" lon="5.56251">
        <ele>1308.4</ele>
        <time>2021-10-10T10:57:22Z</time>
      </trkpt>
      <trkpt lat="45.14282" lon="5.5625">
        <ele>1308.4</ele>
        <time>2021-10-10T10:57:23Z</time>
      </trkpt>
      <trkpt lat="45.14284" lon="5.5625">
        <ele>1308.4</ele>
        <time>2021-10-10T10:57:24Z</time>
      </trkpt>
      <trkpt lat="45.14286" lon="5.56249">
        <ele>1308.8</ele>
        <time>2021-10-10T10:57:25Z</time>
      </trkpt>
      <trkpt lat="45.14288" lon="5.56248">
        <ele>1309.2</ele>
        <time>2021-10-10T10:57:26Z</time>
      </trkpt>
      <trkpt lat="45.1429" lon="5.56248">
        <ele>1309.2</ele>
        <time>2021-10-10T10:57:27Z</time>
      </trkpt>
      <trkpt lat="45.14292" lon="5.56247">
        <ele>1309.2</ele>
        <time>2021-10-10T10:57:28Z</time>
      </trkpt>
      <trkpt lat="45.14294" lon="5.56247">
        <ele>1309.2</ele>
        <time>2021-10-10T10:57:29Z</time>
      </trkpt>
      <trkpt lat="45.14296" lon="5.56246">
        <ele>1309.8</ele>
        <time>2021-10-10T10:57:30Z</time>
      </trkpt>
      <trkpt lat="45.14298" lon="5.56245">
        <ele>1309.8</ele>
        <time>2021-10-10T10:57:31Z</time>
      </trkpt>
      <trkpt lat="45.143" lon="5.56244">
        <ele>1309.8</ele>
        <time>2021-10-10T10:57:32Z</time>
      </trkpt>
      <trkpt lat="45.14302" lon="5.56243">
        <ele>1309.8</ele>
        <time>2021-10-10T10:57:33Z</time>
      </trkpt>
      <trkpt lat="45.14304" lon="5.56242">
        <ele>1310.4</ele>
        <time>2021-10-10T10:57:34Z</time>
      </trkpt>
      <trkpt lat="45.14308" lon="5.56241">
        <ele>1310.4</ele>
        <time>2021-10-10T10:57:35Z</time>
      </trkpt>
      <trkpt lat="45.14309" lon="5.56239">
        <ele>1310.4</ele>
        <time>2021-10-10T10:57:36Z</time>
      </trkpt>
      <trkpt lat="45.14311" lon="5.56238">
        <ele>1311</ele>
        <time>2021-10-10T10:57:37Z</time>
      </trkpt>
      <trkpt lat="45.14313" lon="5.56238">
        <ele>1311.4</ele>
        <time>2021-10-10T10:57:38Z</time>
      </trkpt>
      <trkpt lat="45.14316" lon="5.56237">
        <ele>1311.4</ele>
        <time>2021-10-10T10:57:39Z</time>
      </trkpt>
      <trkpt lat="45.14318" lon="5.56236">
        <ele>1311.4</ele>
        <time>2021-10-10T10:57:40Z</time>
      </trkpt>
      <trkpt lat="45.1432" lon="5.56235">
        <ele>1311.8</ele>
        <time>2021-10-10T10:57:41Z</time>
      </trkpt>
      <trkpt lat="45.14323" lon="5.56235">
        <ele>1312.2</ele>
        <time>2021-10-10T10:57:42Z</time>
      </trkpt>
      <trkpt lat="45.14324" lon="5.56234">
        <ele>1312.2</ele>
        <time>2021-10-10T10:57:43Z</time>
      </trkpt>
      <trkpt lat="45.14326" lon="5.56234">
        <ele>1312.2</ele>
        <time>2021-10-10T10:57:44Z</time>
      </trkpt>
      <trkpt lat="45.14329" lon="5.56233">
        <ele>1313</ele>
        <time>2021-10-10T10:57:45Z</time>
      </trkpt>
      <trkpt lat="45.1433" lon="5.56232">
        <ele>1313</ele>
        <time>2021-10-10T10:57:46Z</time>
      </trkpt>
      <trkpt lat="45.14331" lon="5.56232">
        <ele>1313</ele>
        <time>2021-10-10T10:57:47Z</time>
      </trkpt>
      <trkpt lat="45.14333" lon="5.56231">
        <ele>1313</ele>
        <time>2021-10-10T10:57:48Z</time>
      </trkpt>
      <trkpt lat="45.14335" lon="5.56231">
        <ele>1313.4</ele>
        <time>2021-10-10T10:57:49Z</time>
      </trkpt>
      <trkpt lat="45.14338" lon="5.5623">
        <ele>1313.6</ele>
        <time>2021-10-10T10:57:50Z</time>
      </trkpt>
      <trkpt lat="45.1434" lon="5.5623">
        <ele>1313.6</ele>
        <time>2021-10-10T10:57:51Z</time>
      </trkpt>
      <trkpt lat="45.14342" lon="5.56229">
        <ele>1313.6</ele>
        <time>2021-10-10T10:57:52Z</time>
      </trkpt>
      <trkpt lat="45.14345" lon="5.56229">
        <ele>1313.6</ele>
        <time>2021-10-10T10:57:53Z</time>
      </trkpt>
      <trkpt lat="45.14348" lon="5.56229">
        <ele>1314.2</ele>
        <time>2021-10-10T10:57:54Z</time>
      </trkpt>
      <trkpt lat="45.1435" lon="5.56229">
        <ele>1314.2</ele>
        <time>2021-10-10T10:57:55Z</time>
      </trkpt>
      <trkpt lat="45.14353" lon="5.56229">
        <ele>1314.2</ele>
        <time>2021-10-10T10:57:56Z</time>
      </trkpt>
      <trkpt lat="45.14355" lon="5.5623">
        <ele>1314.6</ele>
        <time>2021-10-10T10:57:57Z</time>
      </trkpt>
      <trkpt lat="45.14357" lon="5.5623">
        <ele>1315.2</ele>
        <time>2021-10-10T10:57:58Z</time>
      </trkpt>
      <trkpt lat="45.14359" lon="5.56231">
        <ele>1315.2</ele>
        <time>2021-10-10T10:57:59Z</time>
      </trkpt>
      <trkpt lat="45.14362" lon="5.56231">
        <ele>1315.2</ele>
        <time>2021-10-10T10:58:00Z</time>
      </trkpt>
      <trkpt lat="45.14364" lon="5.56231">
        <ele>1315.2</ele>
        <time>2021-10-10T10:58:01Z</time>
      </trkpt>
      <trkpt lat="45.14366" lon="5.56231">
        <ele>1315.6</ele>
        <time>2021-10-10T10:58:02Z</time>
      </trkpt>
      <trkpt lat="45.14368" lon="5.56231">
        <ele>1315.6</ele>
        <time>2021-10-10T10:58:03Z</time>
      </trkpt>
      <trkpt lat="45.1437" lon="5.56231">
        <ele>1315.6</ele>
        <time>2021-10-10T10:58:04Z</time>
      </trkpt>
      <trkpt lat="45.14373" lon="5.56232">
        <ele>1316.4</ele>
        <time>2021-10-10T10:58:05Z</time>
      </trkpt>
      <trkpt lat="45.14375" lon="5.56233">
        <ele>1316.6</ele>
        <time>2021-10-10T10:58:06Z</time>
      </trkpt>
      <trkpt lat="45.14377" lon="5.56235">
        <ele>1316.6</ele>
        <time>2021-10-10T10:58:07Z</time>
      </trkpt>
      <trkpt lat="45.14379" lon="5.56236">
        <ele>1316.6</ele>
        <time>2021-10-10T10:58:08Z</time>
      </trkpt>
      <trkpt lat="45.14381" lon="5.56237">
        <ele>1316.6</ele>
        <time>2021-10-10T10:58:09Z</time>
      </trkpt>
      <trkpt lat="45.14384" lon="5.56239">
        <ele>1317.2</ele>
        <time>2021-10-10T10:58:10Z</time>
      </trkpt>
      <trkpt lat="45.14385" lon="5.56241">
        <ele>1317.2</ele>
        <time>2021-10-10T10:58:11Z</time>
      </trkpt>
      <trkpt lat="45.14387" lon="5.56242">
        <ele>1317.2</ele>
        <time>2021-10-10T10:58:12Z</time>
      </trkpt>
      <trkpt lat="45.14389" lon="5.56243">
        <ele>1317.8</ele>
        <time>2021-10-10T10:58:13Z</time>
      </trkpt>
      <trkpt lat="45.14391" lon="5.56245">
        <ele>1318</ele>
        <time>2021-10-10T10:58:14Z</time>
      </trkpt>
      <trkpt lat="45.14393" lon="5.56246">
        <ele>1318</ele>
        <time>2021-10-10T10:58:15Z</time>
      </trkpt>
      <trkpt lat="45.14395" lon="5.56248">
        <ele>1318</ele>
        <time>2021-10-10T10:58:16Z</time>
      </trkpt>
      <trkpt lat="45.14396" lon="5.56249">
        <ele>1318.4</ele>
        <time>2021-10-10T10:58:17Z</time>
      </trkpt>
      <trkpt lat="45.14399" lon="5.56249">
        <ele>1318.4</ele>
        <time>2021-10-10T10:58:18Z</time>
      </trkpt>
      <trkpt lat="45.14401" lon="5.5625">
        <ele>1318.4</ele>
        <time>2021-10-10T10:58:19Z</time>
      </trkpt>
      <trkpt lat="45.14402" lon="5.56251">
        <ele>1318.4</ele>
        <time>2021-10-10T10:58:20Z</time>
      </trkpt>
      <trkpt lat="45.14404" lon="5.56251">
        <ele>1319</ele>
        <time>2021-10-10T10:58:21Z</time>
      </trkpt>
      <trkpt lat="45.14407" lon="5.5625">
        <ele>1319.4</ele>
        <time>2021-10-10T10:58:22Z</time>
      </trkpt>
      <trkpt lat="45.14409" lon="5.56249">
        <ele>1319.4</ele>
        <time>2021-10-10T10:58:23Z</time>
      </trkpt>
      <trkpt lat="45.14411" lon="5.56247">
        <ele>1319.4</ele>
        <time>2021-10-10T10:58:24Z</time>
      </trkpt>
      <trkpt lat="45.14413" lon="5.56245">
        <ele>1319.4</ele>
        <time>2021-10-10T10:58:25Z</time>
      </trkpt>
      <trkpt lat="45.14414" lon="5.56244">
        <ele>1320.2</ele>
        <time>2021-10-10T10:58:26Z</time>
      </trkpt>
      <trkpt lat="45.14416" lon="5.56243">
        <ele>1320.2</ele>
        <time>2021-10-10T10:58:27Z</time>
      </trkpt>
      <trkpt lat="45.14418" lon="5.56241">
        <ele>1320.2</ele>
        <time>2021-10-10T10:58:28Z</time>
      </trkpt>
      <trkpt lat="45.14419" lon="5.56239">
        <ele>1320.4</ele>
        <time>2021-10-10T10:58:29Z</time>
      </trkpt>
      <trkpt lat="45.14421" lon="5.56237">
        <ele>1320.4</ele>
        <time>2021-10-10T10:58:30Z</time>
      </trkpt>
      <trkpt lat="45.14422" lon="5.56235">
        <ele>1320.4</ele>
        <time>2021-10-10T10:58:31Z</time>
      </trkpt>
      <trkpt lat="45.14423" lon="5.56234">
        <ele>1320.4</ele>
        <time>2021-10-10T10:58:32Z</time>
      </trkpt>
      <trkpt lat="45.14424" lon="5.56232">
        <ele>1321.4</ele>
        <time>2021-10-10T10:58:33Z</time>
      </trkpt>
      <trkpt lat="45.14426" lon="5.5623">
        <ele>1321.6</ele>
        <time>2021-10-10T10:58:34Z</time>
      </trkpt>
      <trkpt lat="45.14427" lon="5.56228">
        <ele>1321.6</ele>
        <time>2021-10-10T10:58:35Z</time>
      </trkpt>
      <trkpt lat="45.14428" lon="5.56225">
        <ele>1321.6</ele>
        <time>2021-10-10T10:58:36Z</time>
      </trkpt>
      <trkpt lat="45.1443" lon="5.56223">
        <ele>1322.2</ele>
        <time>2021-10-10T10:58:37Z</time>
      </trkpt>
      <trkpt lat="45.14431" lon="5.56221">
        <ele>1322.6</ele>
        <time>2021-10-10T10:58:38Z</time>
      </trkpt>
      <trkpt lat="45.14432" lon="5.56218">
        <ele>1322.6</ele>
        <time>2021-10-10T10:58:39Z</time>
      </trkpt>
      <trkpt lat="45.14434" lon="5.56216">
        <ele>1322.6</ele>
        <time>2021-10-10T10:58:40Z</time>
      </trkpt>
      <trkpt lat="45.14436" lon="5.56214">
        <ele>1323.4</ele>
        <time>2021-10-10T10:58:41Z</time>
      </trkpt>
      <trkpt lat="45.14437" lon="5.56211">
        <ele>1323.2</ele>
        <time>2021-10-10T10:58:42Z</time>
      </trkpt>
      <trkpt lat="45.14438" lon="5.56209">
        <ele>1323.2</ele>
        <time>2021-10-10T10:58:43Z</time>
      </trkpt>
      <trkpt lat="45.1444" lon="5.56207">
        <ele>1323.2</ele>
        <time>2021-10-10T10:58:44Z</time>
      </trkpt>
      <trkpt lat="45.14442" lon="5.56205">
        <ele>1323.8</ele>
        <time>2021-10-10T10:58:45Z</time>
      </trkpt>
      <trkpt lat="45.14444" lon="5.56204">
        <ele>1323.8</ele>
        <time>2021-10-10T10:58:46Z</time>
      </trkpt>
      <trkpt lat="45.14446" lon="5.56203">
        <ele>1323.8</ele>
        <time>2021-10-10T10:58:47Z</time>
      </trkpt>
      <trkpt lat="45.14449" lon="5.56203">
        <ele>1323.8</ele>
        <time>2021-10-10T10:58:48Z</time>
      </trkpt>
      <trkpt lat="45.14451" lon="5.56202">
        <ele>1324.8</ele>
        <time>2021-10-10T10:58:49Z</time>
      </trkpt>
      <trkpt lat="45.14453" lon="5.562">
        <ele>1325.2</ele>
        <time>2021-10-10T10:58:50Z</time>
      </trkpt>
      <trkpt lat="45.14456" lon="5.562">
        <ele>1325.2</ele>
        <time>2021-10-10T10:58:51Z</time>
      </trkpt>
      <trkpt lat="45.14458" lon="5.562">
        <ele>1325.2</ele>
        <time>2021-10-10T10:58:52Z</time>
      </trkpt>
      <trkpt lat="45.1446" lon="5.56201">
        <ele>1325.2</ele>
        <time>2021-10-10T10:58:53Z</time>
      </trkpt>
      <trkpt lat="45.14462" lon="5.56201">
        <ele>1326.4</ele>
        <time>2021-10-10T10:58:54Z</time>
      </trkpt>
      <trkpt lat="45.14464" lon="5.56202">
        <ele>1326.4</ele>
        <time>2021-10-10T10:58:55Z</time>
      </trkpt>
      <trkpt lat="45.14466" lon="5.56203">
        <ele>1326.4</ele>
        <time>2021-10-10T10:58:56Z</time>
      </trkpt>
      <trkpt lat="45.14468" lon="5.56204">
        <ele>1326.4</ele>
        <time>2021-10-10T10:58:57Z</time>
      </trkpt>
      <trkpt lat="45.1447" lon="5.56206">
        <ele>1327.2</ele>
        <time>2021-10-10T10:58:58Z</time>
      </trkpt>
      <trkpt lat="45.14472" lon="5.56207">
        <ele>1327.2</ele>
        <time>2021-10-10T10:58:59Z</time>
      </trkpt>
      <trkpt lat="45.14474" lon="5.56208">
        <ele>1327.2</ele>
        <time>2021-10-10T10:59:00Z</time>
      </trkpt>
      <trkpt lat="45.14476" lon="5.56209">
        <ele>1327.8</ele>
        <time>2021-10-10T10:59:01Z</time>
      </trkpt>
      <trkpt lat="45.14477" lon="5.56211">
        <ele>1328.2</ele>
        <time>2021-10-10T10:59:02Z</time>
      </trkpt>
      <trkpt lat="45.14479" lon="5.56213">
        <ele>1328.2</ele>
        <time>2021-10-10T10:59:03Z</time>
      </trkpt>
      <trkpt lat="45.14481" lon="5.56215">
        <ele>1328.2</ele>
        <time>2021-10-10T10:59:04Z</time>
      </trkpt>
      <trkpt lat="45.14483" lon="5.56216">
        <ele>1328.4</ele>
        <time>2021-10-10T10:59:05Z</time>
      </trkpt>
      <trkpt lat="45.14486" lon="5.56218">
        <ele>1328.4</ele>
        <time>2021-10-10T10:59:06Z</time>
      </trkpt>
      <trkpt lat="45.14488" lon="5.56219">
        <ele>1328.4</ele>
        <time>2021-10-10T10:59:07Z</time>
      </trkpt>
      <trkpt lat="45.1449" lon="5.56221">
        <ele>1328.4</ele>
        <time>2021-10-10T10:59:08Z</time>
      </trkpt>
      <trkpt lat="45.14492" lon="5.56221">
        <ele>1329.4</ele>
        <time>2021-10-10T10:59:09Z</time>
      </trkpt>
      <trkpt lat="45.14494" lon="5.56222">
        <ele>1329.2</ele>
        <time>2021-10-10T10:59:10Z</time>
      </trkpt>
      <trkpt lat="45.14497" lon="5.56223">
        <ele>1329.2</ele>
        <time>2021-10-10T10:59:11Z</time>
      </trkpt>
      <trkpt lat="45.14499" lon="5.56224">
        <ele>1329.2</ele>
        <time>2021-10-10T10:59:12Z</time>
      </trkpt>
      <trkpt lat="45.14502" lon="5.56224">
        <ele>1329.6</ele>
        <time>2021-10-10T10:59:13Z</time>
      </trkpt>
      <trkpt lat="45.14504" lon="5.56224">
        <ele>1329.8</ele>
        <time>2021-10-10T10:59:14Z</time>
      </trkpt>
      <trkpt lat="45.14507" lon="5.56225">
        <ele>1329.8</ele>
        <time>2021-10-10T10:59:15Z</time>
      </trkpt>
      <trkpt lat="45.14509" lon="5.56224">
        <ele>1329.8</ele>
        <time>2021-10-10T10:59:16Z</time>
      </trkpt>
      <trkpt lat="45.14511" lon="5.56224">
        <ele>1329.8</ele>
        <time>2021-10-10T10:59:17Z</time>
      </trkpt>
      <trkpt lat="45.14513" lon="5.56223">
        <ele>1330</ele>
        <time>2021-10-10T10:59:18Z</time>
      </trkpt>
      <trkpt lat="45.14515" lon="5.56223">
        <ele>1330</ele>
        <time>2021-10-10T10:59:19Z</time>
      </trkpt>
      <trkpt lat="45.14517" lon="5.56223">
        <ele>1330</ele>
        <time>2021-10-10T10:59:20Z</time>
      </trkpt>
      <trkpt lat="45.1452" lon="5.56223">
        <ele>1330</ele>
        <time>2021-10-10T10:59:21Z</time>
      </trkpt>
      <trkpt lat="45.14522" lon="5.56224">
        <ele>1330.8</ele>
        <time>2021-10-10T10:59:22Z</time>
      </trkpt>
      <trkpt lat="45.14524" lon="5.56224">
        <ele>1330.8</ele>
        <time>2021-10-10T10:59:23Z</time>
      </trkpt>
      <trkpt lat="45.14526" lon="5.56225">
        <ele>1330.8</ele>
        <time>2021-10-10T10:59:24Z</time>
      </trkpt>
      <trkpt lat="45.14528" lon="5.56225">
        <ele>1330.8</ele>
        <time>2021-10-10T10:59:25Z</time>
      </trkpt>
      <trkpt lat="45.1453" lon="5.56227">
        <ele>1331.2</ele>
        <time>2021-10-10T10:59:26Z</time>
      </trkpt>
      <trkpt lat="45.14532" lon="5.56228">
        <ele>1331.2</ele>
        <time>2021-10-10T10:59:27Z</time>
      </trkpt>
      <trkpt lat="45.14533" lon="5.56229">
        <ele>1331.2</ele>
        <time>2021-10-10T10:59:28Z</time>
      </trkpt>
      <trkpt lat="45.14536" lon="5.56229">
        <ele>1332.2</ele>
        <time>2021-10-10T10:59:29Z</time>
      </trkpt>
      <trkpt lat="45.14538" lon="5.5623">
        <ele>1332</ele>
        <time>2021-10-10T10:59:30Z</time>
      </trkpt>
      <trkpt lat="45.1454" lon="5.56232">
        <ele>1332</ele>
        <time>2021-10-10T10:59:31Z</time>
      </trkpt>
      <trkpt lat="45.14542" lon="5.56233">
        <ele>1332</ele>
        <time>2021-10-10T10:59:32Z</time>
      </trkpt>
      <trkpt lat="45.14544" lon="5.56236">
        <ele>1332.4</ele>
        <time>2021-10-10T10:59:33Z</time>
      </trkpt>
      <trkpt lat="45.14545" lon="5.56238">
        <ele>1333</ele>
        <time>2021-10-10T10:59:34Z</time>
      </trkpt>
      <trkpt lat="45.14547" lon="5.5624">
        <ele>1333</ele>
        <time>2021-10-10T10:59:35Z</time>
      </trkpt>
      <trkpt lat="45.14548" lon="5.56242">
        <ele>1333</ele>
        <time>2021-10-10T10:59:36Z</time>
      </trkpt>
      <trkpt lat="45.14551" lon="5.56244">
        <ele>1333.4</ele>
        <time>2021-10-10T10:59:37Z</time>
      </trkpt>
      <trkpt lat="45.14552" lon="5.56247">
        <ele>1333.6</ele>
        <time>2021-10-10T10:59:38Z</time>
      </trkpt>
      <trkpt lat="45.14553" lon="5.5625">
        <ele>1333.6</ele>
        <time>2021-10-10T10:59:39Z</time>
      </trkpt>
      <trkpt lat="45.14555" lon="5.56253">
        <ele>1333.6</ele>
        <time>2021-10-10T10:59:40Z</time>
      </trkpt>
      <trkpt lat="45.14558" lon="5.56255">
        <ele>1334.6</ele>
        <time>2021-10-10T10:59:41Z</time>
      </trkpt>
      <trkpt lat="45.1456" lon="5.56256">
        <ele>1335</ele>
        <time>2021-10-10T10:59:42Z</time>
      </trkpt>
      <trkpt lat="45.14562" lon="5.56258">
        <ele>1335</ele>
        <time>2021-10-10T10:59:43Z</time>
      </trkpt>
      <trkpt lat="45.14563" lon="5.5626">
        <ele>1335</ele>
        <time>2021-10-10T10:59:44Z</time>
      </trkpt>
      <trkpt lat="45.14564" lon="5.56263">
        <ele>1335</ele>
        <time>2021-10-10T10:59:45Z</time>
      </trkpt>
      <trkpt lat="45.14564" lon="5.56266">
        <ele>1335.6</ele>
        <time>2021-10-10T10:59:46Z</time>
      </trkpt>
      <trkpt lat="45.14566" lon="5.56268">
        <ele>1335.6</ele>
        <time>2021-10-10T10:59:47Z</time>
      </trkpt>
      <trkpt lat="45.14567" lon="5.56272">
        <ele>1335.6</ele>
        <time>2021-10-10T10:59:48Z</time>
      </trkpt>
      <trkpt lat="45.14569" lon="5.56274">
        <ele>1335.6</ele>
        <time>2021-10-10T10:59:49Z</time>
      </trkpt>
      <trkpt lat="45.1457" lon="5.56277">
        <ele>1336</ele>
        <time>2021-10-10T10:59:50Z</time>
      </trkpt>
      <trkpt lat="45.14571" lon="5.5628">
        <ele>1336</ele>
        <time>2021-10-10T10:59:51Z</time>
      </trkpt>
      <trkpt lat="45.14573" lon="5.56283">
        <ele>1336</ele>
        <time>2021-10-10T10:59:52Z</time>
      </trkpt>
      <trkpt lat="45.14574" lon="5.56285">
        <ele>1336.8</ele>
        <time>2021-10-10T10:59:53Z</time>
      </trkpt>
      <trkpt lat="45.14574" lon="5.56287">
        <ele>1337</ele>
        <time>2021-10-10T10:59:54Z</time>
      </trkpt>
      <trkpt lat="45.14576" lon="5.5629">
        <ele>1337</ele>
        <time>2021-10-10T10:59:55Z</time>
      </trkpt>
      <trkpt lat="45.14577" lon="5.56294">
        <ele>1337</ele>
        <time>2021-10-10T10:59:56Z</time>
      </trkpt>
      <trkpt lat="45.14578" lon="5.56297">
        <ele>1337</ele>
        <time>2021-10-10T10:59:57Z</time>
      </trkpt>
      <trkpt lat="45.1458" lon="5.56299">
        <ele>1337.6</ele>
        <time>2021-10-10T10:59:58Z</time>
      </trkpt>
      <trkpt lat="45.14581" lon="5.56301">
        <ele>1337.6</ele>
        <time>2021-10-10T10:59:59Z</time>
      </trkpt>
      <trkpt lat="45.14581" lon="5.56304">
        <ele>1337.6</ele>
        <time>2021-10-10T11:00:00Z</time>
      </trkpt>
      <trkpt lat="45.14582" lon="5.56306">
        <ele>1337.6</ele>
        <time>2021-10-10T11:00:01Z</time>
      </trkpt>
      <trkpt lat="45.14584" lon="5.56309">
        <ele>1337.4</ele>
        <time>2021-10-10T11:00:02Z</time>
      </trkpt>
      <trkpt lat="45.14585" lon="5.56312">
        <ele>1337.4</ele>
        <time>2021-10-10T11:00:03Z</time>
      </trkpt>
      <trkpt lat="45.14586" lon="5.56315">
        <ele>1337.4</ele>
        <time>2021-10-10T11:00:04Z</time>
      </trkpt>
      <trkpt lat="45.14589" lon="5.56318">
        <ele>1337.6</ele>
        <time>2021-10-10T11:00:05Z</time>
      </trkpt>
      <trkpt lat="45.1459" lon="5.56322">
        <ele>1337.8</ele>
        <time>2021-10-10T11:00:06Z</time>
      </trkpt>
      <trkpt lat="45.14592" lon="5.56324">
        <ele>1337.8</ele>
        <time>2021-10-10T11:00:07Z</time>
      </trkpt>
      <trkpt lat="45.14593" lon="5.56327">
        <ele>1337.8</ele>
        <time>2021-10-10T11:00:08Z</time>
      </trkpt>
      <trkpt lat="45.14595" lon="5.56329">
        <ele>1337.8</ele>
        <time>2021-10-10T11:00:09Z</time>
      </trkpt>
      <trkpt lat="45.14598" lon="5.56331">
        <ele>1338</ele>
        <time>2021-10-10T11:00:10Z</time>
      </trkpt>
      <trkpt lat="45.14599" lon="5.56334">
        <ele>1338</ele>
        <time>2021-10-10T11:00:11Z</time>
      </trkpt>
      <trkpt lat="45.14601" lon="5.56336">
        <ele>1338</ele>
        <time>2021-10-10T11:00:12Z</time>
      </trkpt>
      <trkpt lat="45.14603" lon="5.56338">
        <ele>1338.2</ele>
        <time>2021-10-10T11:00:13Z</time>
      </trkpt>
      <trkpt lat="45.14605" lon="5.56341">
        <ele>1337.8</ele>
        <time>2021-10-10T11:00:14Z</time>
      </trkpt>
      <trkpt lat="45.14607" lon="5.56344">
        <ele>1337.8</ele>
        <time>2021-10-10T11:00:15Z</time>
      </trkpt>
      <trkpt lat="45.14609" lon="5.56348">
        <ele>1337.8</ele>
        <time>2021-10-10T11:00:16Z</time>
      </trkpt>
      <trkpt lat="45.14611" lon="5.5635">
        <ele>1338.2</ele>
        <time>2021-10-10T11:00:17Z</time>
      </trkpt>
      <trkpt lat="45.14613" lon="5.56354">
        <ele>1338.2</ele>
        <time>2021-10-10T11:00:18Z</time>
      </trkpt>
      <trkpt lat="45.14614" lon="5.56358">
        <ele>1338.2</ele>
        <time>2021-10-10T11:00:19Z</time>
      </trkpt>
      <trkpt lat="45.14616" lon="5.56363">
        <ele>1338.2</ele>
        <time>2021-10-10T11:00:20Z</time>
      </trkpt>
      <trkpt lat="45.14617" lon="5.56366">
        <ele>1338.2</ele>
        <time>2021-10-10T11:00:21Z</time>
      </trkpt>
      <trkpt lat="45.14619" lon="5.5637">
        <ele>1338.6</ele>
        <time>2021-10-10T11:00:22Z</time>
      </trkpt>
      <trkpt lat="45.1462" lon="5.56373">
        <ele>1338.6</ele>
        <time>2021-10-10T11:00:23Z</time>
      </trkpt>
      <trkpt lat="45.14621" lon="5.56377">
        <ele>1338.6</ele>
        <time>2021-10-10T11:00:24Z</time>
      </trkpt>
      <trkpt lat="45.14622" lon="5.56381">
        <ele>1338.6</ele>
        <time>2021-10-10T11:00:25Z</time>
      </trkpt>
      <trkpt lat="45.14623" lon="5.56385">
        <ele>1338.8</ele>
        <time>2021-10-10T11:00:26Z</time>
      </trkpt>
      <trkpt lat="45.14624" lon="5.56389">
        <ele>1338.8</ele>
        <time>2021-10-10T11:00:27Z</time>
      </trkpt>
      <trkpt lat="45.14624" lon="5.56393">
        <ele>1338.8</ele>
        <time>2021-10-10T11:00:28Z</time>
      </trkpt>
      <trkpt lat="45.14624" lon="5.56397">
        <ele>1338.8</ele>
        <time>2021-10-10T11:00:29Z</time>
      </trkpt>
      <trkpt lat="45.14626" lon="5.564">
        <ele>1339</ele>
        <time>2021-10-10T11:00:30Z</time>
      </trkpt>
      <trkpt lat="45.14627" lon="5.56405">
        <ele>1339</ele>
        <time>2021-10-10T11:00:31Z</time>
      </trkpt>
      <trkpt lat="45.14627" lon="5.56408">
        <ele>1339</ele>
        <time>2021-10-10T11:00:32Z</time>
      </trkpt>
      <trkpt lat="45.14628" lon="5.56412">
        <ele>1339.4</ele>
        <time>2021-10-10T11:00:33Z</time>
      </trkpt>
      <trkpt lat="45.14629" lon="5.56416">
        <ele>1339.2</ele>
        <time>2021-10-10T11:00:34Z</time>
      </trkpt>
      <trkpt lat="45.14629" lon="5.5642">
        <ele>1339.2</ele>
        <time>2021-10-10T11:00:35Z</time>
      </trkpt>
      <trkpt lat="45.14629" lon="5.56423">
        <ele>1339.2</ele>
        <time>2021-10-10T11:00:36Z</time>
      </trkpt>
      <trkpt lat="45.14629" lon="5.56426">
        <ele>1340.2</ele>
        <time>2021-10-10T11:00:37Z</time>
      </trkpt>
      <trkpt lat="45.1463" lon="5.5643">
        <ele>1340</ele>
        <time>2021-10-10T11:00:38Z</time>
      </trkpt>
      <trkpt lat="45.14631" lon="5.56434">
        <ele>1340</ele>
        <time>2021-10-10T11:00:39Z</time>
      </trkpt>
      <trkpt lat="45.14632" lon="5.56437">
        <ele>1340</ele>
        <time>2021-10-10T11:00:40Z</time>
      </trkpt>
      <trkpt lat="45.14633" lon="5.56439">
        <ele>1340</ele>
        <time>2021-10-10T11:00:41Z</time>
      </trkpt>
      <trkpt lat="45.14635" lon="5.56442">
        <ele>1340.4</ele>
        <time>2021-10-10T11:00:42Z</time>
      </trkpt>
      <trkpt lat="45.14638" lon="5.56445">
        <ele>1340.4</ele>
        <time>2021-10-10T11:00:43Z</time>
      </trkpt>
      <trkpt lat="45.1464" lon="5.56448">
        <ele>1340.4</ele>
        <time>2021-10-10T11:00:44Z</time>
      </trkpt>
      <trkpt lat="45.14643" lon="5.5645">
        <ele>1339.8</ele>
        <time>2021-10-10T11:00:45Z</time>
      </trkpt>
      <trkpt lat="45.14645" lon="5.56451">
        <ele>1339.8</ele>
        <time>2021-10-10T11:00:46Z</time>
      </trkpt>
      <trkpt lat="45.14648" lon="5.56451">
        <ele>1339.8</ele>
        <time>2021-10-10T11:00:47Z</time>
      </trkpt>
      <trkpt lat="45.14652" lon="5.5645">
        <ele>1339.8</ele>
        <time>2021-10-10T11:00:48Z</time>
      </trkpt>
      <trkpt lat="45.14656" lon="5.56449">
        <ele>1339.4</ele>
        <time>2021-10-10T11:00:49Z</time>
      </trkpt>
      <trkpt lat="45.14659" lon="5.56446">
        <ele>1339.4</ele>
        <time>2021-10-10T11:00:50Z</time>
      </trkpt>
      <trkpt lat="45.14662" lon="5.56443">
        <ele>1339.4</ele>
        <time>2021-10-10T11:00:51Z</time>
      </trkpt>
      <trkpt lat="45.14662" lon="5.5644">
        <ele>1339.4</ele>
        <time>2021-10-10T11:00:52Z</time>
      </trkpt>
      <trkpt lat="45.14663" lon="5.56437">
        <ele>1340.4</ele>
        <time>2021-10-10T11:00:53Z</time>
      </trkpt>
      <trkpt lat="45.14664" lon="5.56434">
        <ele>1340.2</ele>
        <time>2021-10-10T11:00:54Z</time>
      </trkpt>
      <trkpt lat="45.14664" lon="5.56431">
        <ele>1340.2</ele>
        <time>2021-10-10T11:00:55Z</time>
      </trkpt>
      <trkpt lat="45.14665" lon="5.56428">
        <ele>1340.2</ele>
        <time>2021-10-10T11:00:56Z</time>
      </trkpt>
      <trkpt lat="45.14665" lon="5.56424">
        <ele>1340.6</ele>
        <time>2021-10-10T11:00:57Z</time>
      </trkpt>
      <trkpt lat="45.14666" lon="5.56419">
        <ele>1341</ele>
        <time>2021-10-10T11:00:58Z</time>
      </trkpt>
      <trkpt lat="45.14667" lon="5.56415">
        <ele>1341</ele>
        <time>2021-10-10T11:00:59Z</time>
      </trkpt>
      <trkpt lat="45.14668" lon="5.56411">
        <ele>1341</ele>
        <time>2021-10-10T11:01:00Z</time>
      </trkpt>
      <trkpt lat="45.1467" lon="5.56408">
        <ele>1341.6</ele>
        <time>2021-10-10T11:01:01Z</time>
      </trkpt>
      <trkpt lat="45.14671" lon="5.56405">
        <ele>1341.6</ele>
        <time>2021-10-10T11:01:02Z</time>
      </trkpt>
      <trkpt lat="45.14673" lon="5.56402">
        <ele>1341.6</ele>
        <time>2021-10-10T11:01:03Z</time>
      </trkpt>
      <trkpt lat="45.14674" lon="5.56399">
        <ele>1341.6</ele>
        <time>2021-10-10T11:01:04Z</time>
      </trkpt>
      <trkpt lat="45.14675" lon="5.56396">
        <ele>1342.6</ele>
        <time>2021-10-10T11:01:05Z</time>
      </trkpt>
      <trkpt lat="45.14675" lon="5.56393">
        <ele>1343.8</ele>
        <time>2021-10-10T11:01:06Z</time>
      </trkpt>
      <trkpt lat="45.14676" lon="5.5639">
        <ele>1343.8</ele>
        <time>2021-10-10T11:01:07Z</time>
      </trkpt>
      <trkpt lat="45.14677" lon="5.56388">
        <ele>1343.8</ele>
        <time>2021-10-10T11:01:08Z</time>
      </trkpt>
      <trkpt lat="45.14678" lon="5.56386">
        <ele>1344.2</ele>
        <time>2021-10-10T11:01:09Z</time>
      </trkpt>
      <trkpt lat="45.14679" lon="5.56384">
        <ele>1344.2</ele>
        <time>2021-10-10T11:01:10Z</time>
      </trkpt>
      <trkpt lat="45.1468" lon="5.56382">
        <ele>1344.2</ele>
        <time>2021-10-10T11:01:11Z</time>
      </trkpt>
      <trkpt lat="45.14682" lon="5.5638">
        <ele>1344.2</ele>
        <time>2021-10-10T11:01:12Z</time>
      </trkpt>
      <trkpt lat="45.14684" lon="5.56379">
        <ele>1344.2</ele>
        <time>2021-10-10T11:01:13Z</time>
      </trkpt>
      <trkpt lat="45.14687" lon="5.56378">
        <ele>1344.8</ele>
        <time>2021-10-10T11:01:14Z</time>
      </trkpt>
      <trkpt lat="45.14689" lon="5.56376">
        <ele>1344.8</ele>
        <time>2021-10-10T11:01:15Z</time>
      </trkpt>
      <trkpt lat="45.14691" lon="5.56374">
        <ele>1344.8</ele>
        <time>2021-10-10T11:01:16Z</time>
      </trkpt>
      <trkpt lat="45.14693" lon="5.56373">
        <ele>1344.8</ele>
        <time>2021-10-10T11:01:17Z</time>
      </trkpt>
      <trkpt lat="45.14696" lon="5.56372">
        <ele>1345.2</ele>
        <time>2021-10-10T11:01:18Z</time>
      </trkpt>
      <trkpt lat="45.14698" lon="5.5637">
        <ele>1345.2</ele>
        <time>2021-10-10T11:01:19Z</time>
      </trkpt>
      <trkpt lat="45.147" lon="5.56369">
        <ele>1345.2</ele>
        <time>2021-10-10T11:01:20Z</time>
      </trkpt>
      <trkpt lat="45.14703" lon="5.56367">
        <ele>1345.6</ele>
        <time>2021-10-10T11:01:21Z</time>
      </trkpt>
      <trkpt lat="45.14704" lon="5.56366">
        <ele>1346</ele>
        <time>2021-10-10T11:01:22Z</time>
      </trkpt>
      <trkpt lat="45.14706" lon="5.56364">
        <ele>1346</ele>
        <time>2021-10-10T11:01:23Z</time>
      </trkpt>
      <trkpt lat="45.14709" lon="5.56362">
        <ele>1346</ele>
        <time>2021-10-10T11:01:24Z</time>
      </trkpt>
      <trkpt lat="45.1471" lon="5.5636">
        <ele>1346.6</ele>
        <time>2021-10-10T11:01:25Z</time>
      </trkpt>
      <trkpt lat="45.14711" lon="5.56357">
        <ele>1346.2</ele>
        <time>2021-10-10T11:01:26Z</time>
      </trkpt>
      <trkpt lat="45.14712" lon="5.56355">
        <ele>1346.2</ele>
        <time>2021-10-10T11:01:27Z</time>
      </trkpt>
      <trkpt lat="45.14714" lon="5.56353">
        <ele>1346.2</ele>
        <time>2021-10-10T11:01:28Z</time>
      </trkpt>
      <trkpt lat="45.14714" lon="5.5635">
        <ele>1346.6</ele>
        <time>2021-10-10T11:01:29Z</time>
      </trkpt>
      <trkpt lat="45.14716" lon="5.56346">
        <ele>1346.6</ele>
        <time>2021-10-10T11:01:30Z</time>
      </trkpt>
      <trkpt lat="45.14717" lon="5.56343">
        <ele>1346.6</ele>
        <time>2021-10-10T11:01:31Z</time>
      </trkpt>
      <trkpt lat="45.14718" lon="5.56339">
        <ele>1346.6</ele>
        <time>2021-10-10T11:01:32Z</time>
      </trkpt>
      <trkpt lat="45.14719" lon="5.56336">
        <ele>1347.4</ele>
        <time>2021-10-10T11:01:33Z</time>
      </trkpt>
      <trkpt lat="45.1472" lon="5.56333">
        <ele>1347.4</ele>
        <time>2021-10-10T11:01:34Z</time>
      </trkpt>
      <trkpt lat="45.14719" lon="5.56329">
        <ele>1347.4</ele>
        <time>2021-10-10T11:01:35Z</time>
      </trkpt>
      <trkpt lat="45.14719" lon="5.56326">
        <ele>1347.4</ele>
        <time>2021-10-10T11:01:36Z</time>
      </trkpt>
      <trkpt lat="45.14718" lon="5.56323">
        <ele>1348.4</ele>
        <time>2021-10-10T11:01:37Z</time>
      </trkpt>
      <trkpt lat="45.14717" lon="5.5632">
        <ele>1348.8</ele>
        <time>2021-10-10T11:01:38Z</time>
      </trkpt>
      <trkpt lat="45.14717" lon="5.56318">
        <ele>1348.8</ele>
        <time>2021-10-10T11:01:39Z</time>
      </trkpt>
      <trkpt lat="45.14716" lon="5.56315">
        <ele>1348.8</ele>
        <time>2021-10-10T11:01:40Z</time>
      </trkpt>
      <trkpt lat="45.14717" lon="5.56312">
        <ele>1349.8</ele>
        <time>2021-10-10T11:01:41Z</time>
      </trkpt>
      <trkpt lat="45.14716" lon="5.5631">
        <ele>1350.2</ele>
        <time>2021-10-10T11:01:42Z</time>
      </trkpt>
      <trkpt lat="45.14717" lon="5.56305">
        <ele>1350.2</ele>
        <time>2021-10-10T11:01:43Z</time>
      </trkpt>
      <trkpt lat="45.14717" lon="5.56302">
        <ele>1350.2</ele>
        <time>2021-10-10T11:01:44Z</time>
      </trkpt>
      <trkpt lat="45.14716" lon="5.56299">
        <ele>1350.2</ele>
        <time>2021-10-10T11:01:45Z</time>
      </trkpt>
      <trkpt lat="45.14716" lon="5.56297">
        <ele>1350.8</ele>
        <time>2021-10-10T11:01:46Z</time>
      </trkpt>
      <trkpt lat="45.14716" lon="5.56295">
        <ele>1350.8</ele>
        <time>2021-10-10T11:01:47Z</time>
      </trkpt>
      <trkpt lat="45.14716" lon="5.56292">
        <ele>1350.8</ele>
        <time>2021-10-10T11:01:48Z</time>
      </trkpt>
      <trkpt lat="45.14716" lon="5.56289">
        <ele>1351.6</ele>
        <time>2021-10-10T11:01:49Z</time>
      </trkpt>
      <trkpt lat="45.14717" lon="5.56287">
        <ele>1351.4</ele>
        <time>2021-10-10T11:01:50Z</time>
      </trkpt>
      <trkpt lat="45.14719" lon="5.56285">
        <ele>1351.4</ele>
        <time>2021-10-10T11:01:51Z</time>
      </trkpt>
      <trkpt lat="45.1472" lon="5.56283">
        <ele>1351.4</ele>
        <time>2021-10-10T11:01:52Z</time>
      </trkpt>
      <trkpt lat="45.14721" lon="5.56279">
        <ele>1351.8</ele>
        <time>2021-10-10T11:01:53Z</time>
      </trkpt>
      <trkpt lat="45.14722" lon="5.56276">
        <ele>1351.8</ele>
        <time>2021-10-10T11:01:54Z</time>
      </trkpt>
      <trkpt lat="45.14723" lon="5.56273">
        <ele>1351.8</ele>
        <time>2021-10-10T11:01:55Z</time>
      </trkpt>
      <trkpt lat="45.14725" lon="5.56272">
        <ele>1351.8</ele>
        <time>2021-10-10T11:01:56Z</time>
      </trkpt>
      <trkpt lat="45.14727" lon="5.56271">
        <ele>1351.8</ele>
        <time>2021-10-10T11:01:57Z</time>
      </trkpt>
      <trkpt lat="45.14729" lon="5.5627">
        <ele>1352</ele>
        <time>2021-10-10T11:01:58Z</time>
      </trkpt>
      <trkpt lat="45.1473" lon="5.56271">
        <ele>1352</ele>
        <time>2021-10-10T11:01:59Z</time>
      </trkpt>
      <trkpt lat="45.14732" lon="5.5627">
        <ele>1352</ele>
        <time>2021-10-10T11:02:00Z</time>
      </trkpt>
      <trkpt lat="45.14735" lon="5.5627">
        <ele>1352</ele>
        <time>2021-10-10T11:02:01Z</time>
      </trkpt>
      <trkpt lat="45.14738" lon="5.5627">
        <ele>1352.2</ele>
        <time>2021-10-10T11:02:02Z</time>
      </trkpt>
      <trkpt lat="45.14741" lon="5.56268">
        <ele>1352.2</ele>
        <time>2021-10-10T11:02:03Z</time>
      </trkpt>
      <trkpt lat="45.14743" lon="5.56267">
        <ele>1352.2</ele>
        <time>2021-10-10T11:02:04Z</time>
      </trkpt>
      <trkpt lat="45.14748" lon="5.56266">
        <ele>1352.2</ele>
        <time>2021-10-10T11:02:05Z</time>
      </trkpt>
      <trkpt lat="45.14751" lon="5.56264">
        <ele>1352.8</ele>
        <time>2021-10-10T11:02:06Z</time>
      </trkpt>
      <trkpt lat="45.14753" lon="5.56261">
        <ele>1352.8</ele>
        <time>2021-10-10T11:02:07Z</time>
      </trkpt>
      <trkpt lat="45.14755" lon="5.56261">
        <ele>1352.8</ele>
        <time>2021-10-10T11:02:08Z</time>
      </trkpt>
      <trkpt lat="45.14759" lon="5.56259">
        <ele>1352.8</ele>
        <time>2021-10-10T11:02:09Z</time>
      </trkpt>
      <trkpt lat="45.14762" lon="5.56258">
        <ele>1352.8</ele>
        <time>2021-10-10T11:02:10Z</time>
      </trkpt>
      <trkpt lat="45.14765" lon="5.56257">
        <ele>1352.8</ele>
        <time>2021-10-10T11:02:11Z</time>
      </trkpt>
      <trkpt lat="45.14768" lon="5.56257">
        <ele>1352.8</ele>
        <time>2021-10-10T11:02:12Z</time>
      </trkpt>
      <trkpt lat="45.14771" lon="5.56255">
        <ele>1353.6</ele>
        <time>2021-10-10T11:02:13Z</time>
      </trkpt>
      <trkpt lat="45.14773" lon="5.56254">
        <ele>1353.4</ele>
        <time>2021-10-10T11:02:14Z</time>
      </trkpt>
      <trkpt lat="45.14776" lon="5.56253">
        <ele>1353.4</ele>
        <time>2021-10-10T11:02:15Z</time>
      </trkpt>
      <trkpt lat="45.14779" lon="5.56252">
        <ele>1353.4</ele>
        <time>2021-10-10T11:02:16Z</time>
      </trkpt>
      <trkpt lat="45.14781" lon="5.56252">
        <ele>1353.8</ele>
        <time>2021-10-10T11:02:17Z</time>
      </trkpt>
      <trkpt lat="45.14784" lon="5.56251">
        <ele>1353.8</ele>
        <time>2021-10-10T11:02:18Z</time>
      </trkpt>
      <trkpt lat="45.14787" lon="5.56251">
        <ele>1353.8</ele>
        <time>2021-10-10T11:02:19Z</time>
      </trkpt>
      <trkpt lat="45.14789" lon="5.56252">
        <ele>1353.8</ele>
        <time>2021-10-10T11:02:20Z</time>
      </trkpt>
      <trkpt lat="45.14792" lon="5.56252">
        <ele>1354.2</ele>
        <time>2021-10-10T11:02:21Z</time>
      </trkpt>
      <trkpt lat="45.14794" lon="5.56252">
        <ele>1353.6</ele>
        <time>2021-10-10T11:02:22Z</time>
      </trkpt>
      <trkpt lat="45.14797" lon="5.56253">
        <ele>1353.6</ele>
        <time>2021-10-10T11:02:23Z</time>
      </trkpt>
      <trkpt lat="45.14799" lon="5.56253">
        <ele>1353.6</ele>
        <time>2021-10-10T11:02:24Z</time>
      </trkpt>
      <trkpt lat="45.14802" lon="5.56255">
        <ele>1354.6</ele>
        <time>2021-10-10T11:02:25Z</time>
      </trkpt>
      <trkpt lat="45.14804" lon="5.56257">
        <ele>1354.8</ele>
        <time>2021-10-10T11:02:26Z</time>
      </trkpt>
      <trkpt lat="45.14806" lon="5.56259">
        <ele>1354.8</ele>
        <time>2021-10-10T11:02:27Z</time>
      </trkpt>
      <trkpt lat="45.14808" lon="5.56261">
        <ele>1354.8</ele>
        <time>2021-10-10T11:02:28Z</time>
      </trkpt>
      <trkpt lat="45.1481" lon="5.56264">
        <ele>1354.8</ele>
        <time>2021-10-10T11:02:29Z</time>
      </trkpt>
      <trkpt lat="45.14811" lon="5.56267">
        <ele>1354.6</ele>
        <time>2021-10-10T11:02:30Z</time>
      </trkpt>
      <trkpt lat="45.14813" lon="5.5627">
        <ele>1354.6</ele>
        <time>2021-10-10T11:02:31Z</time>
      </trkpt>
      <trkpt lat="45.14814" lon="5.56273">
        <ele>1354.6</ele>
        <time>2021-10-10T11:02:32Z</time>
      </trkpt>
      <trkpt lat="45.14815" lon="5.56276">
        <ele>1355.4</ele>
        <time>2021-10-10T11:02:33Z</time>
      </trkpt>
      <trkpt lat="45.14816" lon="5.5628">
        <ele>1355.6</ele>
        <time>2021-10-10T11:02:34Z</time>
      </trkpt>
      <trkpt lat="45.14818" lon="5.56283">
        <ele>1355.6</ele>
        <time>2021-10-10T11:02:35Z</time>
      </trkpt>
      <trkpt lat="45.14819" lon="5.56286">
        <ele>1355.6</ele>
        <time>2021-10-10T11:02:36Z</time>
      </trkpt>
      <trkpt lat="45.14821" lon="5.56289">
        <ele>1355.4</ele>
        <time>2021-10-10T11:02:37Z</time>
      </trkpt>
      <trkpt lat="45.14823" lon="5.56293">
        <ele>1355.4</ele>
        <time>2021-10-10T11:02:38Z</time>
      </trkpt>
      <trkpt lat="45.14825" lon="5.56296">
        <ele>1355.4</ele>
        <time>2021-10-10T11:02:39Z</time>
      </trkpt>
      <trkpt lat="45.14826" lon="5.56299">
        <ele>1355.4</ele>
        <time>2021-10-10T11:02:40Z</time>
      </trkpt>
      <trkpt lat="45.14828" lon="5.56302">
        <ele>1355.4</ele>
        <time>2021-10-10T11:02:41Z</time>
      </trkpt>
      <trkpt lat="45.1483" lon="5.56305">
        <ele>1355.2</ele>
        <time>2021-10-10T11:02:42Z</time>
      </trkpt>
      <trkpt lat="45.14832" lon="5.56308">
        <ele>1355.2</ele>
        <time>2021-10-10T11:02:43Z</time>
      </trkpt>
      <trkpt lat="45.14833" lon="5.56311">
        <ele>1355.2</ele>
        <time>2021-10-10T11:02:44Z</time>
      </trkpt>
      <trkpt lat="45.14835" lon="5.56314">
        <ele>1356.2</ele>
        <time>2021-10-10T11:02:45Z</time>
      </trkpt>
      <trkpt lat="45.14837" lon="5.56317">
        <ele>1356</ele>
        <time>2021-10-10T11:02:46Z</time>
      </trkpt>
      <trkpt lat="45.14839" lon="5.56319">
        <ele>1356</ele>
        <time>2021-10-10T11:02:47Z</time>
      </trkpt>
      <trkpt lat="45.14841" lon="5.56322">
        <ele>1356</ele>
        <time>2021-10-10T11:02:48Z</time>
      </trkpt>
      <trkpt lat="45.14842" lon="5.56324">
        <ele>1356.2</ele>
        <time>2021-10-10T11:02:49Z</time>
      </trkpt>
      <trkpt lat="45.14843" lon="5.56328">
        <ele>1356.4</ele>
        <time>2021-10-10T11:02:50Z</time>
      </trkpt>
      <trkpt lat="45.14844" lon="5.56332">
        <ele>1356.4</ele>
        <time>2021-10-10T11:02:51Z</time>
      </trkpt>
      <trkpt lat="45.14846" lon="5.56336">
        <ele>1356.4</ele>
        <time>2021-10-10T11:02:52Z</time>
      </trkpt>
      <trkpt lat="45.14847" lon="5.5634">
        <ele>1357</ele>
        <time>2021-10-10T11:02:53Z</time>
      </trkpt>
      <trkpt lat="45.14848" lon="5.56343">
        <ele>1357.6</ele>
        <time>2021-10-10T11:02:54Z</time>
      </trkpt>
      <trkpt lat="45.14849" lon="5.56345">
        <ele>1357.6</ele>
        <time>2021-10-10T11:02:55Z</time>
      </trkpt>
      <trkpt lat="45.1485" lon="5.56348">
        <ele>1357.6</ele>
        <time>2021-10-10T11:02:56Z</time>
      </trkpt>
      <trkpt lat="45.14851" lon="5.5635">
        <ele>1357.6</ele>
        <time>2021-10-10T11:02:57Z</time>
      </trkpt>
      <trkpt lat="45.14852" lon="5.56352">
        <ele>1358.4</ele>
        <time>2021-10-10T11:02:58Z</time>
      </trkpt>
      <trkpt lat="45.14853" lon="5.56356">
        <ele>1358.4</ele>
        <time>2021-10-10T11:02:59Z</time>
      </trkpt>
      <trkpt lat="45.14853" lon="5.56358">
        <ele>1358.4</ele>
        <time>2021-10-10T11:03:00Z</time>
      </trkpt>
      <trkpt lat="45.14854" lon="5.5636">
        <ele>1359</ele>
        <time>2021-10-10T11:03:01Z</time>
      </trkpt>
      <trkpt lat="45.14855" lon="5.56364">
        <ele>1359.2</ele>
        <time>2021-10-10T11:03:02Z</time>
      </trkpt>
      <trkpt lat="45.14857" lon="5.56366">
        <ele>1359.2</ele>
        <time>2021-10-10T11:03:03Z</time>
      </trkpt>
      <trkpt lat="45.14857" lon="5.56368">
        <ele>1359.2</ele>
        <time>2021-10-10T11:03:04Z</time>
      </trkpt>
      <trkpt lat="45.14857" lon="5.5637">
        <ele>1359.8</ele>
        <time>2021-10-10T11:03:05Z</time>
      </trkpt>
      <trkpt lat="45.14857" lon="5.56372">
        <ele>1359.6</ele>
        <time>2021-10-10T11:03:06Z</time>
      </trkpt>
      <trkpt lat="45.14858" lon="5.56374">
        <ele>1359.6</ele>
        <time>2021-10-10T11:03:07Z</time>
      </trkpt>
      <trkpt lat="45.14859" lon="5.56378">
        <ele>1359.6</ele>
        <time>2021-10-10T11:03:08Z</time>
      </trkpt>
      <trkpt lat="45.1486" lon="5.56381">
        <ele>1360.6</ele>
        <time>2021-10-10T11:03:09Z</time>
      </trkpt>
      <trkpt lat="45.14861" lon="5.56385">
        <ele>1361.2</ele>
        <time>2021-10-10T11:03:10Z</time>
      </trkpt>
      <trkpt lat="45.14863" lon="5.56387">
        <ele>1361.2</ele>
        <time>2021-10-10T11:03:11Z</time>
      </trkpt>
      <trkpt lat="45.14864" lon="5.56391">
        <ele>1361.2</ele>
        <time>2021-10-10T11:03:12Z</time>
      </trkpt>
      <trkpt lat="45.14865" lon="5.56395">
        <ele>1361.8</ele>
        <time>2021-10-10T11:03:13Z</time>
      </trkpt>
      <trkpt lat="45.14866" lon="5.56399">
        <ele>1361.8</ele>
        <time>2021-10-10T11:03:14Z</time>
      </trkpt>
      <trkpt lat="45.14867" lon="5.56403">
        <ele>1361.8</ele>
        <time>2021-10-10T11:03:15Z</time>
      </trkpt>
      <trkpt lat="45.14868" lon="5.56406">
        <ele>1361.8</ele>
        <time>2021-10-10T11:03:16Z</time>
      </trkpt>
      <trkpt lat="45.1487" lon="5.56409">
        <ele>1362.4</ele>
        <time>2021-10-10T11:03:17Z</time>
      </trkpt>
      <trkpt lat="45.14872" lon="5.56411">
        <ele>1362.8</ele>
        <time>2021-10-10T11:03:18Z</time>
      </trkpt>
      <trkpt lat="45.14873" lon="5.56414">
        <ele>1362.8</ele>
        <time>2021-10-10T11:03:19Z</time>
      </trkpt>
      <trkpt lat="45.14874" lon="5.56416">
        <ele>1362.8</ele>
        <time>2021-10-10T11:03:20Z</time>
      </trkpt>
      <trkpt lat="45.14877" lon="5.56418">
        <ele>1362.8</ele>
        <time>2021-10-10T11:03:21Z</time>
      </trkpt>
      <trkpt lat="45.14878" lon="5.5642">
        <ele>1363.4</ele>
        <time>2021-10-10T11:03:22Z</time>
      </trkpt>
      <trkpt lat="45.14881" lon="5.56422">
        <ele>1363.4</ele>
        <time>2021-10-10T11:03:23Z</time>
      </trkpt>
      <trkpt lat="45.14884" lon="5.56424">
        <ele>1363.4</ele>
        <time>2021-10-10T11:03:24Z</time>
      </trkpt>
      <trkpt lat="45.14886" lon="5.56425">
        <ele>1363.8</ele>
        <time>2021-10-10T11:03:25Z</time>
      </trkpt>
      <trkpt lat="45.14889" lon="5.56426">
        <ele>1364.2</ele>
        <time>2021-10-10T11:03:26Z</time>
      </trkpt>
      <trkpt lat="45.14891" lon="5.56426">
        <ele>1364.2</ele>
        <time>2021-10-10T11:03:27Z</time>
      </trkpt>
      <trkpt lat="45.14894" lon="5.56427">
        <ele>1364.2</ele>
        <time>2021-10-10T11:03:28Z</time>
      </trkpt>
      <trkpt lat="45.14896" lon="5.56428">
        <ele>1364.4</ele>
        <time>2021-10-10T11:03:29Z</time>
      </trkpt>
      <trkpt lat="45.14899" lon="5.56428">
        <ele>1364.8</ele>
        <time>2021-10-10T11:03:30Z</time>
      </trkpt>
      <trkpt lat="45.14901" lon="5.56429">
        <ele>1364.8</ele>
        <time>2021-10-10T11:03:31Z</time>
      </trkpt>
      <trkpt lat="45.14903" lon="5.56429">
        <ele>1364.8</ele>
        <time>2021-10-10T11:03:32Z</time>
      </trkpt>
      <trkpt lat="45.14905" lon="5.56429">
        <ele>1365.4</ele>
        <time>2021-10-10T11:03:33Z</time>
      </trkpt>
      <trkpt lat="45.14907" lon="5.56429">
        <ele>1365.4</ele>
        <time>2021-10-10T11:03:34Z</time>
      </trkpt>
      <trkpt lat="45.14908" lon="5.56429">
        <ele>1365.4</ele>
        <time>2021-10-10T11:03:35Z</time>
      </trkpt>
      <trkpt lat="45.14911" lon="5.56429">
        <ele>1365.4</ele>
        <time>2021-10-10T11:03:36Z</time>
      </trkpt>
      <trkpt lat="45.14913" lon="5.56428">
        <ele>1365.4</ele>
        <time>2021-10-10T11:03:37Z</time>
      </trkpt>
      <trkpt lat="45.14915" lon="5.56428">
        <ele>1366.4</ele>
        <time>2021-10-10T11:03:38Z</time>
      </trkpt>
      <trkpt lat="45.14917" lon="5.56427">
        <ele>1366.4</ele>
        <time>2021-10-10T11:03:39Z</time>
      </trkpt>
      <trkpt lat="45.14919" lon="5.56427">
        <ele>1366.4</ele>
        <time>2021-10-10T11:03:40Z</time>
      </trkpt>
      <trkpt lat="45.14921" lon="5.56426">
        <ele>1367.4</ele>
        <time>2021-10-10T11:03:41Z</time>
      </trkpt>
      <trkpt lat="45.14923" lon="5.56425">
        <ele>1367.4</ele>
        <time>2021-10-10T11:03:42Z</time>
      </trkpt>
      <trkpt lat="45.14924" lon="5.56424">
        <ele>1367.4</ele>
        <time>2021-10-10T11:03:43Z</time>
      </trkpt>
      <trkpt lat="45.14926" lon="5.56424">
        <ele>1367.4</ele>
        <time>2021-10-10T11:03:44Z</time>
      </trkpt>
      <trkpt lat="45.14928" lon="5.56424">
        <ele>1367.4</ele>
        <time>2021-10-10T11:03:45Z</time>
      </trkpt>
      <trkpt lat="45.14929" lon="5.56424">
        <ele>1368.2</ele>
        <time>2021-10-10T11:03:46Z</time>
      </trkpt>
      <trkpt lat="45.14931" lon="5.56423">
        <ele>1368.2</ele>
        <time>2021-10-10T11:03:47Z</time>
      </trkpt>
      <trkpt lat="45.14933" lon="5.56423">
        <ele>1368.2</ele>
        <time>2021-10-10T11:03:48Z</time>
      </trkpt>
      <trkpt lat="45.14934" lon="5.56423">
        <ele>1368.2</ele>
        <time>2021-10-10T11:03:49Z</time>
      </trkpt>
      <trkpt lat="45.14936" lon="5.56423">
        <ele>1368.2</ele>
        <time>2021-10-10T11:03:50Z</time>
      </trkpt>
      <trkpt lat="45.14937" lon="5.56425">
        <ele>1368.2</ele>
        <time>2021-10-10T11:03:51Z</time>
      </trkpt>
      <trkpt lat="45.14939" lon="5.56425">
        <ele>1368.2</ele>
        <time>2021-10-10T11:03:52Z</time>
      </trkpt>
      <trkpt lat="45.14941" lon="5.56425">
        <ele>1368.8</ele>
        <time>2021-10-10T11:03:53Z</time>
      </trkpt>
      <trkpt lat="45.14944" lon="5.56426">
        <ele>1368.6</ele>
        <time>2021-10-10T11:03:54Z</time>
      </trkpt>
      <trkpt lat="45.14946" lon="5.56427">
        <ele>1368.6</ele>
        <time>2021-10-10T11:03:55Z</time>
      </trkpt>
      <trkpt lat="45.14948" lon="5.56428">
        <ele>1368.6</ele>
        <time>2021-10-10T11:03:56Z</time>
      </trkpt>
      <trkpt lat="45.1495" lon="5.56431">
        <ele>1368.6</ele>
        <time>2021-10-10T11:03:57Z</time>
      </trkpt>
      <trkpt lat="45.14952" lon="5.56433">
        <ele>1368.6</ele>
        <time>2021-10-10T11:03:58Z</time>
      </trkpt>
      <trkpt lat="45.14954" lon="5.56436">
        <ele>1368.6</ele>
        <time>2021-10-10T11:03:59Z</time>
      </trkpt>
      <trkpt lat="45.14955" lon="5.56438">
        <ele>1368.6</ele>
        <time>2021-10-10T11:04:00Z</time>
      </trkpt>
      <trkpt lat="45.14957" lon="5.5644">
        <ele>1368.8</ele>
        <time>2021-10-10T11:04:01Z</time>
      </trkpt>
      <trkpt lat="45.14958" lon="5.56442">
        <ele>1368.6</ele>
        <time>2021-10-10T11:04:02Z</time>
      </trkpt>
      <trkpt lat="45.14959" lon="5.56444">
        <ele>1368.6</ele>
        <time>2021-10-10T11:04:03Z</time>
      </trkpt>
      <trkpt lat="45.1496" lon="5.56446">
        <ele>1368.6</ele>
        <time>2021-10-10T11:04:04Z</time>
      </trkpt>
      <trkpt lat="45.14961" lon="5.56449">
        <ele>1368.6</ele>
        <time>2021-10-10T11:04:05Z</time>
      </trkpt>
      <trkpt lat="45.14963" lon="5.56452">
        <ele>1369</ele>
        <time>2021-10-10T11:04:06Z</time>
      </trkpt>
      <trkpt lat="45.14965" lon="5.56456">
        <ele>1369</ele>
        <time>2021-10-10T11:04:07Z</time>
      </trkpt>
      <trkpt lat="45.14966" lon="5.5646">
        <ele>1369</ele>
        <time>2021-10-10T11:04:08Z</time>
      </trkpt>
      <trkpt lat="45.14968" lon="5.56464">
        <ele>1368.8</ele>
        <time>2021-10-10T11:04:09Z</time>
      </trkpt>
      <trkpt lat="45.14969" lon="5.56467">
        <ele>1368.8</ele>
        <time>2021-10-10T11:04:10Z</time>
      </trkpt>
      <trkpt lat="45.1497" lon="5.56471">
        <ele>1368.8</ele>
        <time>2021-10-10T11:04:11Z</time>
      </trkpt>
      <trkpt lat="45.14971" lon="5.56475">
        <ele>1368.8</ele>
        <time>2021-10-10T11:04:12Z</time>
      </trkpt>
      <trkpt lat="45.14972" lon="5.56478">
        <ele>1368.8</ele>
        <time>2021-10-10T11:04:13Z</time>
      </trkpt>
      <trkpt lat="45.14974" lon="5.56481">
        <ele>1368.4</ele>
        <time>2021-10-10T11:04:14Z</time>
      </trkpt>
      <trkpt lat="45.14977" lon="5.56484">
        <ele>1368.4</ele>
        <time>2021-10-10T11:04:15Z</time>
      </trkpt>
      <trkpt lat="45.14979" lon="5.56488">
        <ele>1368.4</ele>
        <time>2021-10-10T11:04:16Z</time>
      </trkpt>
      <trkpt lat="45.14982" lon="5.56491">
        <ele>1368.4</ele>
        <time>2021-10-10T11:04:17Z</time>
      </trkpt>
      <trkpt lat="45.14984" lon="5.56495">
        <ele>1368.4</ele>
        <time>2021-10-10T11:04:18Z</time>
      </trkpt>
      <trkpt lat="45.14986" lon="5.56498">
        <ele>1368.4</ele>
        <time>2021-10-10T11:04:19Z</time>
      </trkpt>
      <trkpt lat="45.14989" lon="5.56502">
        <ele>1368.4</ele>
        <time>2021-10-10T11:04:20Z</time>
      </trkpt>
      <trkpt lat="45.14991" lon="5.56505">
        <ele>1368.4</ele>
        <time>2021-10-10T11:04:21Z</time>
      </trkpt>
      <trkpt lat="45.14994" lon="5.56508">
        <ele>1368.6</ele>
        <time>2021-10-10T11:04:22Z</time>
      </trkpt>
      <trkpt lat="45.14997" lon="5.56511">
        <ele>1368.6</ele>
        <time>2021-10-10T11:04:23Z</time>
      </trkpt>
      <trkpt lat="45.14999" lon="5.56514">
        <ele>1368.6</ele>
        <time>2021-10-10T11:04:24Z</time>
      </trkpt>
      <trkpt lat="45.15003" lon="5.56517">
        <ele>1368.6</ele>
        <time>2021-10-10T11:04:25Z</time>
      </trkpt>
      <trkpt lat="45.15006" lon="5.5652">
        <ele>1368.6</ele>
        <time>2021-10-10T11:04:26Z</time>
      </trkpt>
      <trkpt lat="45.15009" lon="5.56523">
        <ele>1368.6</ele>
        <time>2021-10-10T11:04:27Z</time>
      </trkpt>
      <trkpt lat="45.15013" lon="5.56526">
        <ele>1368.6</ele>
        <time>2021-10-10T11:04:28Z</time>
      </trkpt>
      <trkpt lat="45.15016" lon="5.56528">
        <ele>1368.6</ele>
        <time>2021-10-10T11:04:29Z</time>
      </trkpt>
      <trkpt lat="45.15019" lon="5.56529">
        <ele>1368.6</ele>
        <time>2021-10-10T11:04:30Z</time>
      </trkpt>
      <trkpt lat="45.15023" lon="5.56532">
        <ele>1368.6</ele>
        <time>2021-10-10T11:04:31Z</time>
      </trkpt>
      <trkpt lat="45.15026" lon="5.56534">
        <ele>1368.6</ele>
        <time>2021-10-10T11:04:32Z</time>
      </trkpt>
      <trkpt lat="45.15029" lon="5.56538">
        <ele>1369.6</ele>
        <time>2021-10-10T11:04:33Z</time>
      </trkpt>
      <trkpt lat="45.15032" lon="5.56541">
        <ele>1369.6</ele>
        <time>2021-10-10T11:04:34Z</time>
      </trkpt>
      <trkpt lat="45.15035" lon="5.56544">
        <ele>1369.6</ele>
        <time>2021-10-10T11:04:35Z</time>
      </trkpt>
      <trkpt lat="45.15037" lon="5.56548">
        <ele>1369.6</ele>
        <time>2021-10-10T11:04:36Z</time>
      </trkpt>
      <trkpt lat="45.15039" lon="5.56553">
        <ele>1369.6</ele>
        <time>2021-10-10T11:04:37Z</time>
      </trkpt>
      <trkpt lat="45.1504" lon="5.5656">
        <ele>1369.4</ele>
        <time>2021-10-10T11:04:38Z</time>
      </trkpt>
      <trkpt lat="45.15042" lon="5.56565">
        <ele>1369.4</ele>
        <time>2021-10-10T11:04:39Z</time>
      </trkpt>
      <trkpt lat="45.15041" lon="5.56571">
        <ele>1369.4</ele>
        <time>2021-10-10T11:04:40Z</time>
      </trkpt>
      <trkpt lat="45.15041" lon="5.56577">
        <ele>1368.6</ele>
        <time>2021-10-10T11:04:41Z</time>
      </trkpt>
      <trkpt lat="45.15042" lon="5.56582">
        <ele>1368.4</ele>
        <time>2021-10-10T11:04:42Z</time>
      </trkpt>
      <trkpt lat="45.15043" lon="5.56587">
        <ele>1368.4</ele>
        <time>2021-10-10T11:04:43Z</time>
      </trkpt>
      <trkpt lat="45.15045" lon="5.56592">
        <ele>1368.4</ele>
        <time>2021-10-10T11:04:44Z</time>
      </trkpt>
      <trkpt lat="45.15047" lon="5.56595">
        <ele>1368.6</ele>
        <time>2021-10-10T11:04:45Z</time>
      </trkpt>
      <trkpt lat="45.15051" lon="5.56598">
        <ele>1368.8</ele>
        <time>2021-10-10T11:04:46Z</time>
      </trkpt>
      <trkpt lat="45.15055" lon="5.56601">
        <ele>1368.8</ele>
        <time>2021-10-10T11:04:47Z</time>
      </trkpt>
      <trkpt lat="45.1506" lon="5.56602">
        <ele>1368.8</ele>
        <time>2021-10-10T11:04:48Z</time>
      </trkpt>
      <trkpt lat="45.15065" lon="5.56602">
        <ele>1369.2</ele>
        <time>2021-10-10T11:04:49Z</time>
      </trkpt>
      <trkpt lat="45.1507" lon="5.56602">
        <ele>1369</ele>
        <time>2021-10-10T11:04:50Z</time>
      </trkpt>
      <trkpt lat="45.15074" lon="5.56602">
        <ele>1369</ele>
        <time>2021-10-10T11:04:51Z</time>
      </trkpt>
      <trkpt lat="45.15078" lon="5.566">
        <ele>1369</ele>
        <time>2021-10-10T11:04:52Z</time>
      </trkpt>
      <trkpt lat="45.15082" lon="5.56599">
        <ele>1369</ele>
        <time>2021-10-10T11:04:53Z</time>
      </trkpt>
      <trkpt lat="45.15087" lon="5.56598">
        <ele>1369.2</ele>
        <time>2021-10-10T11:04:54Z</time>
      </trkpt>
      <trkpt lat="45.15092" lon="5.56598">
        <ele>1369.2</ele>
        <time>2021-10-10T11:04:55Z</time>
      </trkpt>
      <trkpt lat="45.15097" lon="5.56598">
        <ele>1369.2</ele>
        <time>2021-10-10T11:04:56Z</time>
      </trkpt>
      <trkpt lat="45.15101" lon="5.56599">
        <ele>1369.2</ele>
        <time>2021-10-10T11:04:57Z</time>
      </trkpt>
      <trkpt lat="45.15105" lon="5.56601">
        <ele>1369</ele>
        <time>2021-10-10T11:04:58Z</time>
      </trkpt>
      <trkpt lat="45.15109" lon="5.56603">
        <ele>1369</ele>
        <time>2021-10-10T11:04:59Z</time>
      </trkpt>
      <trkpt lat="45.15114" lon="5.56604">
        <ele>1369</ele>
        <time>2021-10-10T11:05:00Z</time>
      </trkpt>
      <trkpt lat="45.15118" lon="5.56605">
        <ele>1369</ele>
        <time>2021-10-10T11:05:01Z</time>
      </trkpt>
      <trkpt lat="45.15122" lon="5.56604">
        <ele>1368.6</ele>
        <time>2021-10-10T11:05:02Z</time>
      </trkpt>
      <trkpt lat="45.15125" lon="5.56602">
        <ele>1368.6</ele>
        <time>2021-10-10T11:05:03Z</time>
      </trkpt>
      <trkpt lat="45.15128" lon="5.56597">
        <ele>1368.6</ele>
        <time>2021-10-10T11:05:04Z</time>
      </trkpt>
      <trkpt lat="45.1513" lon="5.56592">
        <ele>1368.6</ele>
        <time>2021-10-10T11:05:05Z</time>
      </trkpt>
      <trkpt lat="45.15131" lon="5.56588">
        <ele>1369</ele>
        <time>2021-10-10T11:05:06Z</time>
      </trkpt>
      <trkpt lat="45.15132" lon="5.56582">
        <ele>1369</ele>
        <time>2021-10-10T11:05:07Z</time>
      </trkpt>
      <trkpt lat="45.15132" lon="5.56575">
        <ele>1369</ele>
        <time>2021-10-10T11:05:08Z</time>
      </trkpt>
      <trkpt lat="45.15131" lon="5.56569">
        <ele>1369</ele>
        <time>2021-10-10T11:05:09Z</time>
      </trkpt>
      <trkpt lat="45.15129" lon="5.56563">
        <ele>1369</ele>
        <time>2021-10-10T11:05:10Z</time>
      </trkpt>
      <trkpt lat="45.15127" lon="5.56557">
        <ele>1369</ele>
        <time>2021-10-10T11:05:11Z</time>
      </trkpt>
      <trkpt lat="45.15126" lon="5.56552">
        <ele>1369</ele>
        <time>2021-10-10T11:05:12Z</time>
      </trkpt>
      <trkpt lat="45.15125" lon="5.56548">
        <ele>1369</ele>
        <time>2021-10-10T11:05:13Z</time>
      </trkpt>
      <trkpt lat="45.15122" lon="5.56542">
        <ele>1369.2</ele>
        <time>2021-10-10T11:05:14Z</time>
      </trkpt>
      <trkpt lat="45.1512" lon="5.56537">
        <ele>1369.2</ele>
        <time>2021-10-10T11:05:15Z</time>
      </trkpt>
      <trkpt lat="45.15118" lon="5.56533">
        <ele>1369.2</ele>
        <time>2021-10-10T11:05:16Z</time>
      </trkpt>
      <trkpt lat="45.15117" lon="5.56527">
        <ele>1369.2</ele>
        <time>2021-10-10T11:05:17Z</time>
      </trkpt>
      <trkpt lat="45.15117" lon="5.56522">
        <ele>1368.6</ele>
        <time>2021-10-10T11:05:18Z</time>
      </trkpt>
      <trkpt lat="45.15117" lon="5.56516">
        <ele>1368.6</ele>
        <time>2021-10-10T11:05:19Z</time>
      </trkpt>
      <trkpt lat="45.15117" lon="5.5651">
        <ele>1368.6</ele>
        <time>2021-10-10T11:05:20Z</time>
      </trkpt>
      <trkpt lat="45.15117" lon="5.56503">
        <ele>1368.4</ele>
        <time>2021-10-10T11:05:21Z</time>
      </trkpt>
      <trkpt lat="45.15119" lon="5.56498">
        <ele>1369</ele>
        <time>2021-10-10T11:05:22Z</time>
      </trkpt>
      <trkpt lat="45.15121" lon="5.56493">
        <ele>1369</ele>
        <time>2021-10-10T11:05:23Z</time>
      </trkpt>
      <trkpt lat="45.15124" lon="5.56489">
        <ele>1369</ele>
        <time>2021-10-10T11:05:24Z</time>
      </trkpt>
      <trkpt lat="45.15128" lon="5.56486">
        <ele>1368.8</ele>
        <time>2021-10-10T11:05:25Z</time>
      </trkpt>
      <trkpt lat="45.15131" lon="5.56483">
        <ele>1368.4</ele>
        <time>2021-10-10T11:05:26Z</time>
      </trkpt>
      <trkpt lat="45.15135" lon="5.5648">
        <ele>1368.4</ele>
        <time>2021-10-10T11:05:27Z</time>
      </trkpt>
      <trkpt lat="45.15139" lon="5.56477">
        <ele>1368.4</ele>
        <time>2021-10-10T11:05:28Z</time>
      </trkpt>
      <trkpt lat="45.15143" lon="5.56474">
        <ele>1368.4</ele>
        <time>2021-10-10T11:05:29Z</time>
      </trkpt>
      <trkpt lat="45.15147" lon="5.56471">
        <ele>1368.4</ele>
        <time>2021-10-10T11:05:30Z</time>
      </trkpt>
      <trkpt lat="45.15151" lon="5.56468">
        <ele>1368.4</ele>
        <time>2021-10-10T11:05:31Z</time>
      </trkpt>
      <trkpt lat="45.15156" lon="5.56466">
        <ele>1368.4</ele>
        <time>2021-10-10T11:05:32Z</time>
      </trkpt>
      <trkpt lat="45.1516" lon="5.56465">
        <ele>1368.4</ele>
        <time>2021-10-10T11:05:33Z</time>
      </trkpt>
      <trkpt lat="45.15165" lon="5.56465">
        <ele>1368.4</ele>
        <time>2021-10-10T11:05:34Z</time>
      </trkpt>
      <trkpt lat="45.15169" lon="5.56464">
        <ele>1368.4</ele>
        <time>2021-10-10T11:05:35Z</time>
      </trkpt>
      <trkpt lat="45.15173" lon="5.56462">
        <ele>1368.4</ele>
        <time>2021-10-10T11:05:36Z</time>
      </trkpt>
      <trkpt lat="45.15176" lon="5.56462">
        <ele>1368.4</ele>
        <time>2021-10-10T11:05:37Z</time>
      </trkpt>
      <trkpt lat="45.1518" lon="5.56462">
        <ele>1368.8</ele>
        <time>2021-10-10T11:05:38Z</time>
      </trkpt>
      <trkpt lat="45.15183" lon="5.56463">
        <ele>1368.8</ele>
        <time>2021-10-10T11:05:39Z</time>
      </trkpt>
      <trkpt lat="45.15187" lon="5.56463">
        <ele>1368.8</ele>
        <time>2021-10-10T11:05:40Z</time>
      </trkpt>
      <trkpt lat="45.15191" lon="5.56464">
        <ele>1368.8</ele>
        <time>2021-10-10T11:05:41Z</time>
      </trkpt>
      <trkpt lat="45.15196" lon="5.56466">
        <ele>1368.4</ele>
        <time>2021-10-10T11:05:42Z</time>
      </trkpt>
      <trkpt lat="45.152" lon="5.56468">
        <ele>1368.4</ele>
        <time>2021-10-10T11:05:43Z</time>
      </trkpt>
      <trkpt lat="45.15204" lon="5.56469">
        <ele>1368.4</ele>
        <time>2021-10-10T11:05:44Z</time>
      </trkpt>
      <trkpt lat="45.15208" lon="5.56469">
        <ele>1368.4</ele>
        <time>2021-10-10T11:05:45Z</time>
      </trkpt>
      <trkpt lat="45.15212" lon="5.56471">
        <ele>1369</ele>
        <time>2021-10-10T11:05:46Z</time>
      </trkpt>
      <trkpt lat="45.15216" lon="5.56474">
        <ele>1369</ele>
        <time>2021-10-10T11:05:47Z</time>
      </trkpt>
      <trkpt lat="45.1522" lon="5.56476">
        <ele>1369</ele>
        <time>2021-10-10T11:05:48Z</time>
      </trkpt>
      <trkpt lat="45.15225" lon="5.56476">
        <ele>1369.2</ele>
        <time>2021-10-10T11:05:49Z</time>
      </trkpt>
      <trkpt lat="45.15229" lon="5.56477">
        <ele>1369.2</ele>
        <time>2021-10-10T11:05:50Z</time>
      </trkpt>
      <trkpt lat="45.15233" lon="5.56478">
        <ele>1369.2</ele>
        <time>2021-10-10T11:05:51Z</time>
      </trkpt>
      <trkpt lat="45.15237" lon="5.56478">
        <ele>1369.2</ele>
        <time>2021-10-10T11:05:52Z</time>
      </trkpt>
      <trkpt lat="45.15241" lon="5.56479">
        <ele>1369.2</ele>
        <time>2021-10-10T11:05:53Z</time>
      </trkpt>
      <trkpt lat="45.15245" lon="5.56478">
        <ele>1368.6</ele>
        <time>2021-10-10T11:05:54Z</time>
      </trkpt>
      <trkpt lat="45.15249" lon="5.56477">
        <ele>1368.6</ele>
        <time>2021-10-10T11:05:55Z</time>
      </trkpt>
      <trkpt lat="45.15252" lon="5.56475">
        <ele>1368.6</ele>
        <time>2021-10-10T11:05:56Z</time>
      </trkpt>
      <trkpt lat="45.15257" lon="5.56472">
        <ele>1368.6</ele>
        <time>2021-10-10T11:05:57Z</time>
      </trkpt>
      <trkpt lat="45.15261" lon="5.56469">
        <ele>1369</ele>
        <time>2021-10-10T11:05:58Z</time>
      </trkpt>
      <trkpt lat="45.15264" lon="5.56465">
        <ele>1369</ele>
        <time>2021-10-10T11:05:59Z</time>
      </trkpt>
      <trkpt lat="45.15266" lon="5.56459">
        <ele>1369</ele>
        <time>2021-10-10T11:06:00Z</time>
      </trkpt>
      <trkpt lat="45.15268" lon="5.56455">
        <ele>1369.2</ele>
        <time>2021-10-10T11:06:01Z</time>
      </trkpt>
      <trkpt lat="45.15271" lon="5.56449">
        <ele>1369</ele>
        <time>2021-10-10T11:06:02Z</time>
      </trkpt>
      <trkpt lat="45.15272" lon="5.56444">
        <ele>1369</ele>
        <time>2021-10-10T11:06:03Z</time>
      </trkpt>
      <trkpt lat="45.15274" lon="5.56439">
        <ele>1369</ele>
        <time>2021-10-10T11:06:04Z</time>
      </trkpt>
      <trkpt lat="45.15275" lon="5.56434">
        <ele>1369</ele>
        <time>2021-10-10T11:06:05Z</time>
      </trkpt>
      <trkpt lat="45.15276" lon="5.56429">
        <ele>1369.4</ele>
        <time>2021-10-10T11:06:06Z</time>
      </trkpt>
      <trkpt lat="45.15278" lon="5.56423">
        <ele>1369.4</ele>
        <time>2021-10-10T11:06:07Z</time>
      </trkpt>
      <trkpt lat="45.1528" lon="5.56417">
        <ele>1369.4</ele>
        <time>2021-10-10T11:06:08Z</time>
      </trkpt>
      <trkpt lat="45.15281" lon="5.56411">
        <ele>1368.8</ele>
        <time>2021-10-10T11:06:09Z</time>
      </trkpt>
      <trkpt lat="45.15284" lon="5.56405">
        <ele>1369.4</ele>
        <time>2021-10-10T11:06:10Z</time>
      </trkpt>
      <trkpt lat="45.15286" lon="5.56399">
        <ele>1369.4</ele>
        <time>2021-10-10T11:06:11Z</time>
      </trkpt>
      <trkpt lat="45.15289" lon="5.56395">
        <ele>1369.4</ele>
        <time>2021-10-10T11:06:12Z</time>
      </trkpt>
      <trkpt lat="45.15291" lon="5.5639">
        <ele>1369.4</ele>
        <time>2021-10-10T11:06:13Z</time>
      </trkpt>
      <trkpt lat="45.15294" lon="5.56386">
        <ele>1369.2</ele>
        <time>2021-10-10T11:06:14Z</time>
      </trkpt>
      <trkpt lat="45.15297" lon="5.56381">
        <ele>1369.2</ele>
        <time>2021-10-10T11:06:15Z</time>
      </trkpt>
      <trkpt lat="45.153" lon="5.56378">
        <ele>1369.2</ele>
        <time>2021-10-10T11:06:16Z</time>
      </trkpt>
      <trkpt lat="45.15303" lon="5.56374">
        <ele>1369.2</ele>
        <time>2021-10-10T11:06:17Z</time>
      </trkpt>
      <trkpt lat="45.15306" lon="5.56371">
        <ele>1369.4</ele>
        <time>2021-10-10T11:06:18Z</time>
      </trkpt>
      <trkpt lat="45.15309" lon="5.56368">
        <ele>1369.4</ele>
        <time>2021-10-10T11:06:19Z</time>
      </trkpt>
      <trkpt lat="45.15312" lon="5.56365">
        <ele>1369.4</ele>
        <time>2021-10-10T11:06:20Z</time>
      </trkpt>
      <trkpt lat="45.15314" lon="5.56362">
        <ele>1369.4</ele>
        <time>2021-10-10T11:06:21Z</time>
      </trkpt>
      <trkpt lat="45.15317" lon="5.56359">
        <ele>1369.2</ele>
        <time>2021-10-10T11:06:22Z</time>
      </trkpt>
      <trkpt lat="45.15321" lon="5.56357">
        <ele>1369.2</ele>
        <time>2021-10-10T11:06:23Z</time>
      </trkpt>
      <trkpt lat="45.15324" lon="5.56354">
        <ele>1369.2</ele>
        <time>2021-10-10T11:06:24Z</time>
      </trkpt>
      <trkpt lat="45.15327" lon="5.56352">
        <ele>1369.2</ele>
        <time>2021-10-10T11:06:25Z</time>
      </trkpt>
      <trkpt lat="45.1533" lon="5.5635">
        <ele>1369</ele>
        <time>2021-10-10T11:06:26Z</time>
      </trkpt>
      <trkpt lat="45.15334" lon="5.56348">
        <ele>1369</ele>
        <time>2021-10-10T11:06:27Z</time>
      </trkpt>
      <trkpt lat="45.15337" lon="5.56346">
        <ele>1369</ele>
        <time>2021-10-10T11:06:28Z</time>
      </trkpt>
      <trkpt lat="45.15341" lon="5.56343">
        <ele>1369</ele>
        <time>2021-10-10T11:06:29Z</time>
      </trkpt>
      <trkpt lat="45.15345" lon="5.56342">
        <ele>1369</ele>
        <time>2021-10-10T11:06:30Z</time>
      </trkpt>
      <trkpt lat="45.15349" lon="5.5634">
        <ele>1369</ele>
        <time>2021-10-10T11:06:31Z</time>
      </trkpt>
      <trkpt lat="45.15353" lon="5.56338">
        <ele>1369</ele>
        <time>2021-10-10T11:06:32Z</time>
      </trkpt>
      <trkpt lat="45.15357" lon="5.56337">
        <ele>1369</ele>
        <time>2021-10-10T11:06:33Z</time>
      </trkpt>
      <trkpt lat="45.15361" lon="5.56336">
        <ele>1369.4</ele>
        <time>2021-10-10T11:06:34Z</time>
      </trkpt>
      <trkpt lat="45.15365" lon="5.56336">
        <ele>1369.4</ele>
        <time>2021-10-10T11:06:35Z</time>
      </trkpt>
      <trkpt lat="45.15368" lon="5.56334">
        <ele>1369.4</ele>
        <time>2021-10-10T11:06:36Z</time>
      </trkpt>
      <trkpt lat="45.15371" lon="5.56334">
        <ele>1369.4</ele>
        <time>2021-10-10T11:06:37Z</time>
      </trkpt>
      <trkpt lat="45.15374" lon="5.56334">
        <ele>1369.2</ele>
        <time>2021-10-10T11:06:38Z</time>
      </trkpt>
      <trkpt lat="45.15378" lon="5.56334">
        <ele>1369.2</ele>
        <time>2021-10-10T11:06:39Z</time>
      </trkpt>
      <trkpt lat="45.15382" lon="5.56334">
        <ele>1369.2</ele>
        <time>2021-10-10T11:06:40Z</time>
      </trkpt>
      <trkpt lat="45.15386" lon="5.56334">
        <ele>1370</ele>
        <time>2021-10-10T11:06:41Z</time>
      </trkpt>
      <trkpt lat="45.1539" lon="5.56335">
        <ele>1369.8</ele>
        <time>2021-10-10T11:06:42Z</time>
      </trkpt>
      <trkpt lat="45.15393" lon="5.56337">
        <ele>1369.8</ele>
        <time>2021-10-10T11:06:43Z</time>
      </trkpt>
      <trkpt lat="45.15396" lon="5.56338">
        <ele>1369.8</ele>
        <time>2021-10-10T11:06:44Z</time>
      </trkpt>
      <trkpt lat="45.15399" lon="5.5634">
        <ele>1369.6</ele>
        <time>2021-10-10T11:06:45Z</time>
      </trkpt>
      <trkpt lat="45.15401" lon="5.56342">
        <ele>1369.8</ele>
        <time>2021-10-10T11:06:46Z</time>
      </trkpt>
      <trkpt lat="45.15404" lon="5.56345">
        <ele>1369.8</ele>
        <time>2021-10-10T11:06:47Z</time>
      </trkpt>
      <trkpt lat="45.15407" lon="5.56348">
        <ele>1369.8</ele>
        <time>2021-10-10T11:06:48Z</time>
      </trkpt>
      <trkpt lat="45.15411" lon="5.56352">
        <ele>1369.8</ele>
        <time>2021-10-10T11:06:49Z</time>
      </trkpt>
      <trkpt lat="45.15413" lon="5.56356">
        <ele>1370</ele>
        <time>2021-10-10T11:06:50Z</time>
      </trkpt>
      <trkpt lat="45.15415" lon="5.56358">
        <ele>1370</ele>
        <time>2021-10-10T11:06:51Z</time>
      </trkpt>
      <trkpt lat="45.15418" lon="5.56362">
        <ele>1370</ele>
        <time>2021-10-10T11:06:52Z</time>
      </trkpt>
      <trkpt lat="45.15421" lon="5.56365">
        <ele>1370</ele>
        <time>2021-10-10T11:06:53Z</time>
      </trkpt>
      <trkpt lat="45.15424" lon="5.56368">
        <ele>1369.8</ele>
        <time>2021-10-10T11:06:54Z</time>
      </trkpt>
      <trkpt lat="45.15427" lon="5.56371">
        <ele>1369.8</ele>
        <time>2021-10-10T11:06:55Z</time>
      </trkpt>
      <trkpt lat="45.1543" lon="5.56375">
        <ele>1369.8</ele>
        <time>2021-10-10T11:06:56Z</time>
      </trkpt>
      <trkpt lat="45.15432" lon="5.56379">
        <ele>1369.8</ele>
        <time>2021-10-10T11:06:57Z</time>
      </trkpt>
      <trkpt lat="45.15435" lon="5.56382">
        <ele>1370.6</ele>
        <time>2021-10-10T11:06:58Z</time>
      </trkpt>
      <trkpt lat="45.15438" lon="5.56386">
        <ele>1370.6</ele>
        <time>2021-10-10T11:06:59Z</time>
      </trkpt>
      <trkpt lat="45.1544" lon="5.56389">
        <ele>1370.6</ele>
        <time>2021-10-10T11:07:00Z</time>
      </trkpt>
      <trkpt lat="45.15443" lon="5.56393">
        <ele>1370.6</ele>
        <time>2021-10-10T11:07:01Z</time>
      </trkpt>
      <trkpt lat="45.15446" lon="5.56397">
        <ele>1370.4</ele>
        <time>2021-10-10T11:07:02Z</time>
      </trkpt>
      <trkpt lat="45.15449" lon="5.56401">
        <ele>1370.4</ele>
        <time>2021-10-10T11:07:03Z</time>
      </trkpt>
      <trkpt lat="45.15452" lon="5.56406">
        <ele>1370.4</ele>
        <time>2021-10-10T11:07:04Z</time>
      </trkpt>
      <trkpt lat="45.15454" lon="5.5641">
        <ele>1371.2</ele>
        <time>2021-10-10T11:07:05Z</time>
      </trkpt>
      <trkpt lat="45.15458" lon="5.56414">
        <ele>1371.2</ele>
        <time>2021-10-10T11:07:06Z</time>
      </trkpt>
      <trkpt lat="45.1546" lon="5.56418">
        <ele>1371.2</ele>
        <time>2021-10-10T11:07:07Z</time>
      </trkpt>
      <trkpt lat="45.15462" lon="5.56423">
        <ele>1371.2</ele>
        <time>2021-10-10T11:07:08Z</time>
      </trkpt>
      <trkpt lat="45.15465" lon="5.56427">
        <ele>1371.2</ele>
        <time>2021-10-10T11:07:09Z</time>
      </trkpt>
      <trkpt lat="45.15467" lon="5.56433">
        <ele>1371.4</ele>
        <time>2021-10-10T11:07:10Z</time>
      </trkpt>
      <trkpt lat="45.15471" lon="5.56437">
        <ele>1371.4</ele>
        <time>2021-10-10T11:07:11Z</time>
      </trkpt>
      <trkpt lat="45.15473" lon="5.56442">
        <ele>1371.4</ele>
        <time>2021-10-10T11:07:12Z</time>
      </trkpt>
      <trkpt lat="45.15476" lon="5.56447">
        <ele>1371</ele>
        <time>2021-10-10T11:07:13Z</time>
      </trkpt>
      <trkpt lat="45.15478" lon="5.56453">
        <ele>1371.2</ele>
        <time>2021-10-10T11:07:14Z</time>
      </trkpt>
      <trkpt lat="45.15481" lon="5.56458">
        <ele>1371.2</ele>
        <time>2021-10-10T11:07:15Z</time>
      </trkpt>
      <trkpt lat="45.15485" lon="5.56461">
        <ele>1371.2</ele>
        <time>2021-10-10T11:07:16Z</time>
      </trkpt>
      <trkpt lat="45.15488" lon="5.56465">
        <ele>1371.2</ele>
        <time>2021-10-10T11:07:17Z</time>
      </trkpt>
      <trkpt lat="45.15491" lon="5.56468">
        <ele>1372.2</ele>
        <time>2021-10-10T11:07:18Z</time>
      </trkpt>
      <trkpt lat="45.15495" lon="5.5647">
        <ele>1372.2</ele>
        <time>2021-10-10T11:07:19Z</time>
      </trkpt>
      <trkpt lat="45.15499" lon="5.56474">
        <ele>1372.2</ele>
        <time>2021-10-10T11:07:20Z</time>
      </trkpt>
      <trkpt lat="45.15502" lon="5.56475">
        <ele>1372.2</ele>
        <time>2021-10-10T11:07:21Z</time>
      </trkpt>
      <trkpt lat="45.15507" lon="5.56478">
        <ele>1372.2</ele>
        <time>2021-10-10T11:07:22Z</time>
      </trkpt>
      <trkpt lat="45.1551" lon="5.56481">
        <ele>1372.2</ele>
        <time>2021-10-10T11:07:23Z</time>
      </trkpt>
      <trkpt lat="45.15513" lon="5.56485">
        <ele>1372.2</ele>
        <time>2021-10-10T11:07:24Z</time>
      </trkpt>
      <trkpt lat="45.15516" lon="5.56489">
        <ele>1372.4</ele>
        <time>2021-10-10T11:07:25Z</time>
      </trkpt>
      <trkpt lat="45.15519" lon="5.56493">
        <ele>1373</ele>
        <time>2021-10-10T11:07:26Z</time>
      </trkpt>
      <trkpt lat="45.15521" lon="5.56498">
        <ele>1373</ele>
        <time>2021-10-10T11:07:27Z</time>
      </trkpt>
      <trkpt lat="45.15522" lon="5.56503">
        <ele>1373</ele>
        <time>2021-10-10T11:07:28Z</time>
      </trkpt>
      <trkpt lat="45.15524" lon="5.56508">
        <ele>1373</ele>
        <time>2021-10-10T11:07:29Z</time>
      </trkpt>
      <trkpt lat="45.15526" lon="5.56513">
        <ele>1373</ele>
        <time>2021-10-10T11:07:30Z</time>
      </trkpt>
      <trkpt lat="45.15528" lon="5.56519">
        <ele>1373</ele>
        <time>2021-10-10T11:07:31Z</time>
      </trkpt>
      <trkpt lat="45.1553" lon="5.56524">
        <ele>1373</ele>
        <time>2021-10-10T11:07:32Z</time>
      </trkpt>
      <trkpt lat="45.15531" lon="5.56529">
        <ele>1373</ele>
        <time>2021-10-10T11:07:33Z</time>
      </trkpt>
      <trkpt lat="45.15533" lon="5.56534">
        <ele>1373.2</ele>
        <time>2021-10-10T11:07:34Z</time>
      </trkpt>
      <trkpt lat="45.15534" lon="5.56538">
        <ele>1373.2</ele>
        <time>2021-10-10T11:07:35Z</time>
      </trkpt>
      <trkpt lat="45.15536" lon="5.56543">
        <ele>1373.2</ele>
        <time>2021-10-10T11:07:36Z</time>
      </trkpt>
      <trkpt lat="45.15537" lon="5.56548">
        <ele>1373</ele>
        <time>2021-10-10T11:07:37Z</time>
      </trkpt>
      <trkpt lat="45.15539" lon="5.56553">
        <ele>1372.8</ele>
        <time>2021-10-10T11:07:38Z</time>
      </trkpt>
      <trkpt lat="45.1554" lon="5.56559">
        <ele>1372.8</ele>
        <time>2021-10-10T11:07:39Z</time>
      </trkpt>
      <trkpt lat="45.15541" lon="5.56565">
        <ele>1372.8</ele>
        <time>2021-10-10T11:07:40Z</time>
      </trkpt>
      <trkpt lat="45.15541" lon="5.56571">
        <ele>1372.8</ele>
        <time>2021-10-10T11:07:41Z</time>
      </trkpt>
      <trkpt lat="45.15541" lon="5.56576">
        <ele>1373</ele>
        <time>2021-10-10T11:07:42Z</time>
      </trkpt>
      <trkpt lat="45.1554" lon="5.56582">
        <ele>1373</ele>
        <time>2021-10-10T11:07:43Z</time>
      </trkpt>
      <trkpt lat="45.1554" lon="5.56587">
        <ele>1373</ele>
        <time>2021-10-10T11:07:44Z</time>
      </trkpt>
      <trkpt lat="45.15541" lon="5.56593">
        <ele>1373</ele>
        <time>2021-10-10T11:07:45Z</time>
      </trkpt>
      <trkpt lat="45.1554" lon="5.56598">
        <ele>1373.6</ele>
        <time>2021-10-10T11:07:46Z</time>
      </trkpt>
      <trkpt lat="45.15539" lon="5.56604">
        <ele>1373.6</ele>
        <time>2021-10-10T11:07:47Z</time>
      </trkpt>
      <trkpt lat="45.15539" lon="5.56608">
        <ele>1373.6</ele>
        <time>2021-10-10T11:07:48Z</time>
      </trkpt>
      <trkpt lat="45.15538" lon="5.56612">
        <ele>1373.8</ele>
        <time>2021-10-10T11:07:49Z</time>
      </trkpt>
      <trkpt lat="45.15537" lon="5.56617">
        <ele>1374.2</ele>
        <time>2021-10-10T11:07:50Z</time>
      </trkpt>
      <trkpt lat="45.15536" lon="5.5662">
        <ele>1374.2</ele>
        <time>2021-10-10T11:07:51Z</time>
      </trkpt>
      <trkpt lat="45.15534" lon="5.56624">
        <ele>1374.2</ele>
        <time>2021-10-10T11:07:52Z</time>
      </trkpt>
      <trkpt lat="45.15532" lon="5.56628">
        <ele>1373.4</ele>
        <time>2021-10-10T11:07:53Z</time>
      </trkpt>
      <trkpt lat="45.1553" lon="5.56632">
        <ele>1373.4</ele>
        <time>2021-10-10T11:07:54Z</time>
      </trkpt>
      <trkpt lat="45.15527" lon="5.56637">
        <ele>1373.4</ele>
        <time>2021-10-10T11:07:55Z</time>
      </trkpt>
      <trkpt lat="45.15525" lon="5.56641">
        <ele>1373.4</ele>
        <time>2021-10-10T11:07:56Z</time>
      </trkpt>
      <trkpt lat="45.15523" lon="5.56646">
        <ele>1373.4</ele>
        <time>2021-10-10T11:07:57Z</time>
      </trkpt>
      <trkpt lat="45.1552" lon="5.56651">
        <ele>1373.8</ele>
        <time>2021-10-10T11:07:58Z</time>
      </trkpt>
      <trkpt lat="45.15517" lon="5.56655">
        <ele>1373.8</ele>
        <time>2021-10-10T11:07:59Z</time>
      </trkpt>
      <trkpt lat="45.15516" lon="5.56659">
        <ele>1373.8</ele>
        <time>2021-10-10T11:08:00Z</time>
      </trkpt>
      <trkpt lat="45.15514" lon="5.56664">
        <ele>1373.8</ele>
        <time>2021-10-10T11:08:01Z</time>
      </trkpt>
      <trkpt lat="45.15513" lon="5.56668">
        <ele>1374.2</ele>
        <time>2021-10-10T11:08:02Z</time>
      </trkpt>
      <trkpt lat="45.15511" lon="5.56672">
        <ele>1374.2</ele>
        <time>2021-10-10T11:08:03Z</time>
      </trkpt>
      <trkpt lat="45.15509" lon="5.56677">
        <ele>1374.2</ele>
        <time>2021-10-10T11:08:04Z</time>
      </trkpt>
      <trkpt lat="45.15508" lon="5.56683">
        <ele>1374.2</ele>
        <time>2021-10-10T11:08:05Z</time>
      </trkpt>
      <trkpt lat="45.15507" lon="5.56688">
        <ele>1373.4</ele>
        <time>2021-10-10T11:08:06Z</time>
      </trkpt>
      <trkpt lat="45.15507" lon="5.56694">
        <ele>1373.4</ele>
        <time>2021-10-10T11:08:07Z</time>
      </trkpt>
      <trkpt lat="45.15507" lon="5.56699">
        <ele>1373.4</ele>
        <time>2021-10-10T11:08:08Z</time>
      </trkpt>
      <trkpt lat="45.15507" lon="5.56705">
        <ele>1373.4</ele>
        <time>2021-10-10T11:08:09Z</time>
      </trkpt>
      <trkpt lat="45.15509" lon="5.5671">
        <ele>1374.2</ele>
        <time>2021-10-10T11:08:10Z</time>
      </trkpt>
      <trkpt lat="45.1551" lon="5.56716">
        <ele>1374.2</ele>
        <time>2021-10-10T11:08:11Z</time>
      </trkpt>
      <trkpt lat="45.15511" lon="5.56721">
        <ele>1374.2</ele>
        <time>2021-10-10T11:08:12Z</time>
      </trkpt>
      <trkpt lat="45.15515" lon="5.56726">
        <ele>1374.4</ele>
        <time>2021-10-10T11:08:13Z</time>
      </trkpt>
      <trkpt lat="45.15518" lon="5.5673">
        <ele>1375</ele>
        <time>2021-10-10T11:08:14Z</time>
      </trkpt>
      <trkpt lat="45.15521" lon="5.56732">
        <ele>1375</ele>
        <time>2021-10-10T11:08:15Z</time>
      </trkpt>
      <trkpt lat="45.15524" lon="5.56733">
        <ele>1375</ele>
        <time>2021-10-10T11:08:16Z</time>
      </trkpt>
      <trkpt lat="45.15528" lon="5.56733">
        <ele>1375</ele>
        <time>2021-10-10T11:08:17Z</time>
      </trkpt>
      <trkpt lat="45.15532" lon="5.56733">
        <ele>1375.2</ele>
        <time>2021-10-10T11:08:18Z</time>
      </trkpt>
      <trkpt lat="45.15536" lon="5.56731">
        <ele>1375.2</ele>
        <time>2021-10-10T11:08:19Z</time>
      </trkpt>
      <trkpt lat="45.15539" lon="5.56729">
        <ele>1375.2</ele>
        <time>2021-10-10T11:08:20Z</time>
      </trkpt>
      <trkpt lat="45.15542" lon="5.56727">
        <ele>1375.2</ele>
        <time>2021-10-10T11:08:21Z</time>
      </trkpt>
      <trkpt lat="45.15546" lon="5.56725">
        <ele>1374.6</ele>
        <time>2021-10-10T11:08:22Z</time>
      </trkpt>
      <trkpt lat="45.1555" lon="5.56722">
        <ele>1374.6</ele>
        <time>2021-10-10T11:08:23Z</time>
      </trkpt>
      <trkpt lat="45.15554" lon="5.5672">
        <ele>1374.6</ele>
        <time>2021-10-10T11:08:24Z</time>
      </trkpt>
      <trkpt lat="45.15557" lon="5.56717">
        <ele>1374.8</ele>
        <time>2021-10-10T11:08:25Z</time>
      </trkpt>
      <trkpt lat="45.1556" lon="5.56714">
        <ele>1373.8</ele>
        <time>2021-10-10T11:08:26Z</time>
      </trkpt>
      <trkpt lat="45.15563" lon="5.56711">
        <ele>1373.8</ele>
        <time>2021-10-10T11:08:27Z</time>
      </trkpt>
      <trkpt lat="45.15566" lon="5.56708">
        <ele>1373.8</ele>
        <time>2021-10-10T11:08:28Z</time>
      </trkpt>
      <trkpt lat="45.15568" lon="5.56704">
        <ele>1374.8</ele>
        <time>2021-10-10T11:08:29Z</time>
      </trkpt>
      <trkpt lat="45.15572" lon="5.56701">
        <ele>1375</ele>
        <time>2021-10-10T11:08:30Z</time>
      </trkpt>
      <trkpt lat="45.15575" lon="5.56698">
        <ele>1375</ele>
        <time>2021-10-10T11:08:31Z</time>
      </trkpt>
      <trkpt lat="45.15578" lon="5.56694">
        <ele>1375</ele>
        <time>2021-10-10T11:08:32Z</time>
      </trkpt>
      <trkpt lat="45.15581" lon="5.56691">
        <ele>1374.4</ele>
        <time>2021-10-10T11:08:33Z</time>
      </trkpt>
      <trkpt lat="45.15584" lon="5.56688">
        <ele>1374.6</ele>
        <time>2021-10-10T11:08:34Z</time>
      </trkpt>
      <trkpt lat="45.15588" lon="5.56684">
        <ele>1374.6</ele>
        <time>2021-10-10T11:08:35Z</time>
      </trkpt>
      <trkpt lat="45.15591" lon="5.5668">
        <ele>1374.6</ele>
        <time>2021-10-10T11:08:36Z</time>
      </trkpt>
      <trkpt lat="45.15595" lon="5.56676">
        <ele>1374.6</ele>
        <time>2021-10-10T11:08:37Z</time>
      </trkpt>
      <trkpt lat="45.15599" lon="5.56673">
        <ele>1375</ele>
        <time>2021-10-10T11:08:38Z</time>
      </trkpt>
      <trkpt lat="45.15602" lon="5.56669">
        <ele>1375</ele>
        <time>2021-10-10T11:08:39Z</time>
      </trkpt>
      <trkpt lat="45.15605" lon="5.56665">
        <ele>1375</ele>
        <time>2021-10-10T11:08:40Z</time>
      </trkpt>
      <trkpt lat="45.15608" lon="5.56661">
        <ele>1375</ele>
        <time>2021-10-10T11:08:41Z</time>
      </trkpt>
      <trkpt lat="45.1561" lon="5.56657">
        <ele>1375</ele>
        <time>2021-10-10T11:08:42Z</time>
      </trkpt>
      <trkpt lat="45.15612" lon="5.56654">
        <ele>1375</ele>
        <time>2021-10-10T11:08:43Z</time>
      </trkpt>
      <trkpt lat="45.15614" lon="5.5665">
        <ele>1375</ele>
        <time>2021-10-10T11:08:44Z</time>
      </trkpt>
      <trkpt lat="45.15616" lon="5.56645">
        <ele>1375</ele>
        <time>2021-10-10T11:08:45Z</time>
      </trkpt>
      <trkpt lat="45.15618" lon="5.56638">
        <ele>1375</ele>
        <time>2021-10-10T11:08:46Z</time>
      </trkpt>
      <trkpt lat="45.1562" lon="5.56632">
        <ele>1375</ele>
        <time>2021-10-10T11:08:47Z</time>
      </trkpt>
      <trkpt lat="45.15622" lon="5.56627">
        <ele>1375</ele>
        <time>2021-10-10T11:08:48Z</time>
      </trkpt>
      <trkpt lat="45.15625" lon="5.56621">
        <ele>1374.8</ele>
        <time>2021-10-10T11:08:49Z</time>
      </trkpt>
      <trkpt lat="45.15627" lon="5.56616">
        <ele>1375</ele>
        <time>2021-10-10T11:08:50Z</time>
      </trkpt>
      <trkpt lat="45.1563" lon="5.56611">
        <ele>1375</ele>
        <time>2021-10-10T11:08:51Z</time>
      </trkpt>
      <trkpt lat="45.15632" lon="5.56606">
        <ele>1375</ele>
        <time>2021-10-10T11:08:52Z</time>
      </trkpt>
      <trkpt lat="45.15634" lon="5.56602">
        <ele>1375</ele>
        <time>2021-10-10T11:08:53Z</time>
      </trkpt>
      <trkpt lat="45.15637" lon="5.56597">
        <ele>1375</ele>
        <time>2021-10-10T11:08:54Z</time>
      </trkpt>
      <trkpt lat="45.1564" lon="5.56594">
        <ele>1375</ele>
        <time>2021-10-10T11:08:55Z</time>
      </trkpt>
      <trkpt lat="45.15642" lon="5.5659">
        <ele>1375</ele>
        <time>2021-10-10T11:08:56Z</time>
      </trkpt>
      <trkpt lat="45.15645" lon="5.56586">
        <ele>1375</ele>
        <time>2021-10-10T11:08:57Z</time>
      </trkpt>
      <trkpt lat="45.15647" lon="5.56582">
        <ele>1375.4</ele>
        <time>2021-10-10T11:08:58Z</time>
      </trkpt>
      <trkpt lat="45.1565" lon="5.56578">
        <ele>1375.4</ele>
        <time>2021-10-10T11:08:59Z</time>
      </trkpt>
      <trkpt lat="45.15654" lon="5.56574">
        <ele>1375.4</ele>
        <time>2021-10-10T11:09:00Z</time>
      </trkpt>
      <trkpt lat="45.15658" lon="5.56571">
        <ele>1375.4</ele>
        <time>2021-10-10T11:09:01Z</time>
      </trkpt>
      <trkpt lat="45.15662" lon="5.5657">
        <ele>1375.2</ele>
        <time>2021-10-10T11:09:02Z</time>
      </trkpt>
      <trkpt lat="45.15666" lon="5.5657">
        <ele>1375.2</ele>
        <time>2021-10-10T11:09:03Z</time>
      </trkpt>
      <trkpt lat="45.15671" lon="5.56573">
        <ele>1375.2</ele>
        <time>2021-10-10T11:09:04Z</time>
      </trkpt>
      <trkpt lat="45.15674" lon="5.56577">
        <ele>1375.8</ele>
        <time>2021-10-10T11:09:05Z</time>
      </trkpt>
      <trkpt lat="45.15676" lon="5.56581">
        <ele>1375.8</ele>
        <time>2021-10-10T11:09:06Z</time>
      </trkpt>
      <trkpt lat="45.1568" lon="5.56586">
        <ele>1375.8</ele>
        <time>2021-10-10T11:09:07Z</time>
      </trkpt>
      <trkpt lat="45.15681" lon="5.56591">
        <ele>1375.8</ele>
        <time>2021-10-10T11:09:08Z</time>
      </trkpt>
      <trkpt lat="45.15683" lon="5.56596">
        <ele>1375.8</ele>
        <time>2021-10-10T11:09:09Z</time>
      </trkpt>
      <trkpt lat="45.15685" lon="5.56601">
        <ele>1375.8</ele>
        <time>2021-10-10T11:09:10Z</time>
      </trkpt>
      <trkpt lat="45.15687" lon="5.56605">
        <ele>1375.8</ele>
        <time>2021-10-10T11:09:11Z</time>
      </trkpt>
      <trkpt lat="45.15689" lon="5.5661">
        <ele>1375.8</ele>
        <time>2021-10-10T11:09:12Z</time>
      </trkpt>
      <trkpt lat="45.1569" lon="5.56615">
        <ele>1375.8</ele>
        <time>2021-10-10T11:09:13Z</time>
      </trkpt>
      <trkpt lat="45.15693" lon="5.56619">
        <ele>1376.2</ele>
        <time>2021-10-10T11:09:14Z</time>
      </trkpt>
      <trkpt lat="45.15695" lon="5.56622">
        <ele>1376.2</ele>
        <time>2021-10-10T11:09:15Z</time>
      </trkpt>
      <trkpt lat="45.15698" lon="5.56626">
        <ele>1376.2</ele>
        <time>2021-10-10T11:09:16Z</time>
      </trkpt>
      <trkpt lat="45.15701" lon="5.56629">
        <ele>1376.2</ele>
        <time>2021-10-10T11:09:17Z</time>
      </trkpt>
      <trkpt lat="45.15703" lon="5.56634">
        <ele>1376.6</ele>
        <time>2021-10-10T11:09:18Z</time>
      </trkpt>
      <trkpt lat="45.15707" lon="5.56637">
        <ele>1376.6</ele>
        <time>2021-10-10T11:09:19Z</time>
      </trkpt>
      <trkpt lat="45.15711" lon="5.56641">
        <ele>1376.6</ele>
        <time>2021-10-10T11:09:20Z</time>
      </trkpt>
      <trkpt lat="45.15712" lon="5.56644">
        <ele>1376.6</ele>
        <time>2021-10-10T11:09:21Z</time>
      </trkpt>
      <trkpt lat="45.15715" lon="5.56647">
        <ele>1377.2</ele>
        <time>2021-10-10T11:09:22Z</time>
      </trkpt>
      <trkpt lat="45.15718" lon="5.56649">
        <ele>1377.2</ele>
        <time>2021-10-10T11:09:23Z</time>
      </trkpt>
      <trkpt lat="45.15721" lon="5.56652">
        <ele>1377.2</ele>
        <time>2021-10-10T11:09:24Z</time>
      </trkpt>
      <trkpt lat="45.15724" lon="5.56655">
        <ele>1377.2</ele>
        <time>2021-10-10T11:09:25Z</time>
      </trkpt>
      <trkpt lat="45.15728" lon="5.56658">
        <ele>1377.8</ele>
        <time>2021-10-10T11:09:26Z</time>
      </trkpt>
      <trkpt lat="45.15731" lon="5.56661">
        <ele>1377.8</ele>
        <time>2021-10-10T11:09:27Z</time>
      </trkpt>
      <trkpt lat="45.15734" lon="5.56663">
        <ele>1377.8</ele>
        <time>2021-10-10T11:09:28Z</time>
      </trkpt>
      <trkpt lat="45.15738" lon="5.56666">
        <ele>1377.8</ele>
        <time>2021-10-10T11:09:29Z</time>
      </trkpt>
      <trkpt lat="45.15742" lon="5.56668">
        <ele>1378.2</ele>
        <time>2021-10-10T11:09:30Z</time>
      </trkpt>
      <trkpt lat="45.15744" lon="5.5667">
        <ele>1378.2</ele>
        <time>2021-10-10T11:09:31Z</time>
      </trkpt>
      <trkpt lat="45.15747" lon="5.56671">
        <ele>1378.2</ele>
        <time>2021-10-10T11:09:32Z</time>
      </trkpt>
      <trkpt lat="45.15751" lon="5.56673">
        <ele>1378.2</ele>
        <time>2021-10-10T11:09:33Z</time>
      </trkpt>
      <trkpt lat="45.15755" lon="5.56675">
        <ele>1379.4</ele>
        <time>2021-10-10T11:09:34Z</time>
      </trkpt>
      <trkpt lat="45.15757" lon="5.56677">
        <ele>1379.4</ele>
        <time>2021-10-10T11:09:35Z</time>
      </trkpt>
      <trkpt lat="45.1576" lon="5.56678">
        <ele>1379.4</ele>
        <time>2021-10-10T11:09:36Z</time>
      </trkpt>
      <trkpt lat="45.15763" lon="5.5668">
        <ele>1379.4</ele>
        <time>2021-10-10T11:09:37Z</time>
      </trkpt>
      <trkpt lat="45.15766" lon="5.56682">
        <ele>1379.6</ele>
        <time>2021-10-10T11:09:38Z</time>
      </trkpt>
      <trkpt lat="45.15768" lon="5.56684">
        <ele>1379.6</ele>
        <time>2021-10-10T11:09:39Z</time>
      </trkpt>
      <trkpt lat="45.15771" lon="5.56687">
        <ele>1379.6</ele>
        <time>2021-10-10T11:09:40Z</time>
      </trkpt>
      <trkpt lat="45.15775" lon="5.5669">
        <ele>1379.6</ele>
        <time>2021-10-10T11:09:41Z</time>
      </trkpt>
      <trkpt lat="45.15778" lon="5.56693">
        <ele>1380</ele>
        <time>2021-10-10T11:09:42Z</time>
      </trkpt>
      <trkpt lat="45.15781" lon="5.56698">
        <ele>1380</ele>
        <time>2021-10-10T11:09:43Z</time>
      </trkpt>
      <trkpt lat="45.15782" lon="5.56702">
        <ele>1380</ele>
        <time>2021-10-10T11:09:44Z</time>
      </trkpt>
      <trkpt lat="45.15784" lon="5.56707">
        <ele>1381</ele>
        <time>2021-10-10T11:09:45Z</time>
      </trkpt>
      <trkpt lat="45.15784" lon="5.56711">
        <ele>1380.6</ele>
        <time>2021-10-10T11:09:46Z</time>
      </trkpt>
      <trkpt lat="45.15786" lon="5.56716">
        <ele>1380.6</ele>
        <time>2021-10-10T11:09:47Z</time>
      </trkpt>
      <trkpt lat="45.15786" lon="5.56721">
        <ele>1380.6</ele>
        <time>2021-10-10T11:09:48Z</time>
      </trkpt>
      <trkpt lat="45.15787" lon="5.56726">
        <ele>1381.6</ele>
        <time>2021-10-10T11:09:49Z</time>
      </trkpt>
      <trkpt lat="45.15787" lon="5.5673">
        <ele>1381</ele>
        <time>2021-10-10T11:09:50Z</time>
      </trkpt>
      <trkpt lat="45.15787" lon="5.56734">
        <ele>1381</ele>
        <time>2021-10-10T11:09:51Z</time>
      </trkpt>
      <trkpt lat="45.15789" lon="5.56739">
        <ele>1381</ele>
        <time>2021-10-10T11:09:52Z</time>
      </trkpt>
      <trkpt lat="45.15789" lon="5.56743">
        <ele>1381.6</ele>
        <time>2021-10-10T11:09:53Z</time>
      </trkpt>
      <trkpt lat="45.15791" lon="5.56747">
        <ele>1381.4</ele>
        <time>2021-10-10T11:09:54Z</time>
      </trkpt>
      <trkpt lat="45.15792" lon="5.56751">
        <ele>1381.4</ele>
        <time>2021-10-10T11:09:55Z</time>
      </trkpt>
      <trkpt lat="45.15795" lon="5.56754">
        <ele>1381.4</ele>
        <time>2021-10-10T11:09:56Z</time>
      </trkpt>
      <trkpt lat="45.15798" lon="5.56757">
        <ele>1381.6</ele>
        <time>2021-10-10T11:09:57Z</time>
      </trkpt>
      <trkpt lat="45.15801" lon="5.56758">
        <ele>1381.8</ele>
        <time>2021-10-10T11:09:58Z</time>
      </trkpt>
      <trkpt lat="45.15806" lon="5.56758">
        <ele>1381.8</ele>
        <time>2021-10-10T11:09:59Z</time>
      </trkpt>
      <trkpt lat="45.15811" lon="5.56758">
        <ele>1381.8</ele>
        <time>2021-10-10T11:10:00Z</time>
      </trkpt>
      <trkpt lat="45.15815" lon="5.56756">
        <ele>1381.8</ele>
        <time>2021-10-10T11:10:01Z</time>
      </trkpt>
      <trkpt lat="45.15819" lon="5.56754">
        <ele>1382.4</ele>
        <time>2021-10-10T11:10:02Z</time>
      </trkpt>
      <trkpt lat="45.15822" lon="5.56752">
        <ele>1382.4</ele>
        <time>2021-10-10T11:10:03Z</time>
      </trkpt>
      <trkpt lat="45.15825" lon="5.56749">
        <ele>1382.4</ele>
        <time>2021-10-10T11:10:04Z</time>
      </trkpt>
      <trkpt lat="45.15827" lon="5.56745">
        <ele>1383.2</ele>
        <time>2021-10-10T11:10:05Z</time>
      </trkpt>
      <trkpt lat="45.15829" lon="5.56742">
        <ele>1383.6</ele>
        <time>2021-10-10T11:10:06Z</time>
      </trkpt>
      <trkpt lat="45.15831" lon="5.56739">
        <ele>1383.6</ele>
        <time>2021-10-10T11:10:07Z</time>
      </trkpt>
      <trkpt lat="45.15833" lon="5.56735">
        <ele>1383.6</ele>
        <time>2021-10-10T11:10:08Z</time>
      </trkpt>
      <trkpt lat="45.15834" lon="5.56731">
        <ele>1383.6</ele>
        <time>2021-10-10T11:10:09Z</time>
      </trkpt>
      <trkpt lat="45.15836" lon="5.56727">
        <ele>1383.6</ele>
        <time>2021-10-10T11:10:10Z</time>
      </trkpt>
      <trkpt lat="45.15837" lon="5.56724">
        <ele>1383.6</ele>
        <time>2021-10-10T11:10:11Z</time>
      </trkpt>
      <trkpt lat="45.15838" lon="5.5672">
        <ele>1383.6</ele>
        <time>2021-10-10T11:10:12Z</time>
      </trkpt>
      <trkpt lat="45.15839" lon="5.56715">
        <ele>1384.2</ele>
        <time>2021-10-10T11:10:13Z</time>
      </trkpt>
      <trkpt lat="45.1584" lon="5.5671">
        <ele>1384.4</ele>
        <time>2021-10-10T11:10:14Z</time>
      </trkpt>
      <trkpt lat="45.15842" lon="5.56705">
        <ele>1384.4</ele>
        <time>2021-10-10T11:10:15Z</time>
      </trkpt>
      <trkpt lat="45.15843" lon="5.56699">
        <ele>1384.4</ele>
        <time>2021-10-10T11:10:16Z</time>
      </trkpt>
      <trkpt lat="45.15843" lon="5.56693">
        <ele>1384.4</ele>
        <time>2021-10-10T11:10:17Z</time>
      </trkpt>
      <trkpt lat="45.15844" lon="5.56688">
        <ele>1384.6</ele>
        <time>2021-10-10T11:10:18Z</time>
      </trkpt>
      <trkpt lat="45.15843" lon="5.56682">
        <ele>1384.6</ele>
        <time>2021-10-10T11:10:19Z</time>
      </trkpt>
      <trkpt lat="45.15843" lon="5.56677">
        <ele>1384.6</ele>
        <time>2021-10-10T11:10:20Z</time>
      </trkpt>
      <trkpt lat="45.15842" lon="5.56671">
        <ele>1385.6</ele>
        <time>2021-10-10T11:10:21Z</time>
      </trkpt>
      <trkpt lat="45.15841" lon="5.56666">
        <ele>1385.4</ele>
        <time>2021-10-10T11:10:22Z</time>
      </trkpt>
      <trkpt lat="45.1584" lon="5.5666">
        <ele>1385.4</ele>
        <time>2021-10-10T11:10:23Z</time>
      </trkpt>
      <trkpt lat="45.15838" lon="5.56654">
        <ele>1385.4</ele>
        <time>2021-10-10T11:10:24Z</time>
      </trkpt>
      <trkpt lat="45.15837" lon="5.5665">
        <ele>1386.2</ele>
        <time>2021-10-10T11:10:25Z</time>
      </trkpt>
      <trkpt lat="45.15834" lon="5.56645">
        <ele>1385.8</ele>
        <time>2021-10-10T11:10:26Z</time>
      </trkpt>
      <trkpt lat="45.15832" lon="5.5664">
        <ele>1385.8</ele>
        <time>2021-10-10T11:10:27Z</time>
      </trkpt>
      <trkpt lat="45.1583" lon="5.56635">
        <ele>1385.8</ele>
        <time>2021-10-10T11:10:28Z</time>
      </trkpt>
      <trkpt lat="45.15827" lon="5.5663">
        <ele>1385.8</ele>
        <time>2021-10-10T11:10:29Z</time>
      </trkpt>
      <trkpt lat="45.15824" lon="5.56625">
        <ele>1386.6</ele>
        <time>2021-10-10T11:10:30Z</time>
      </trkpt>
      <trkpt lat="45.15822" lon="5.5662">
        <ele>1386.6</ele>
        <time>2021-10-10T11:10:31Z</time>
      </trkpt>
      <trkpt lat="45.1582" lon="5.56615">
        <ele>1386.6</ele>
        <time>2021-10-10T11:10:32Z</time>
      </trkpt>
      <trkpt lat="45.15817" lon="5.56611">
        <ele>1386.6</ele>
        <time>2021-10-10T11:10:33Z</time>
      </trkpt>
      <trkpt lat="45.15815" lon="5.56607">
        <ele>1387.2</ele>
        <time>2021-10-10T11:10:34Z</time>
      </trkpt>
      <trkpt lat="45.15814" lon="5.56602">
        <ele>1387.2</ele>
        <time>2021-10-10T11:10:35Z</time>
      </trkpt>
      <trkpt lat="45.15812" lon="5.56598">
        <ele>1387.2</ele>
        <time>2021-10-10T11:10:36Z</time>
      </trkpt>
      <trkpt lat="45.15811" lon="5.56594">
        <ele>1387.8</ele>
        <time>2021-10-10T11:10:37Z</time>
      </trkpt>
      <trkpt lat="45.1581" lon="5.5659">
        <ele>1388</ele>
        <time>2021-10-10T11:10:38Z</time>
      </trkpt>
      <trkpt lat="45.1581" lon="5.56586">
        <ele>1388</ele>
        <time>2021-10-10T11:10:39Z</time>
      </trkpt>
      <trkpt lat="45.1581" lon="5.56582">
        <ele>1388</ele>
        <time>2021-10-10T11:10:40Z</time>
      </trkpt>
      <trkpt lat="45.1581" lon="5.56579">
        <ele>1388.2</ele>
        <time>2021-10-10T11:10:41Z</time>
      </trkpt>
      <trkpt lat="45.1581" lon="5.56574">
        <ele>1388.6</ele>
        <time>2021-10-10T11:10:42Z</time>
      </trkpt>
      <trkpt lat="45.1581" lon="5.5657">
        <ele>1388.6</ele>
        <time>2021-10-10T11:10:43Z</time>
      </trkpt>
      <trkpt lat="45.15811" lon="5.56565">
        <ele>1388.6</ele>
        <time>2021-10-10T11:10:44Z</time>
      </trkpt>
      <trkpt lat="45.15811" lon="5.56561">
        <ele>1388.6</ele>
        <time>2021-10-10T11:10:45Z</time>
      </trkpt>
      <trkpt lat="45.15812" lon="5.56557">
        <ele>1389.2</ele>
        <time>2021-10-10T11:10:46Z</time>
      </trkpt>
      <trkpt lat="45.15813" lon="5.56553">
        <ele>1389.2</ele>
        <time>2021-10-10T11:10:47Z</time>
      </trkpt>
      <trkpt lat="45.15814" lon="5.56548">
        <ele>1389.2</ele>
        <time>2021-10-10T11:10:48Z</time>
      </trkpt>
      <trkpt lat="45.15815" lon="5.56545">
        <ele>1389.8</ele>
        <time>2021-10-10T11:10:49Z</time>
      </trkpt>
      <trkpt lat="45.15816" lon="5.56541">
        <ele>1390.2</ele>
        <time>2021-10-10T11:10:50Z</time>
      </trkpt>
      <trkpt lat="45.15816" lon="5.56537">
        <ele>1390.2</ele>
        <time>2021-10-10T11:10:51Z</time>
      </trkpt>
      <trkpt lat="45.15817" lon="5.56534">
        <ele>1390.2</ele>
        <time>2021-10-10T11:10:52Z</time>
      </trkpt>
      <trkpt lat="45.15818" lon="5.5653">
        <ele>1390.2</ele>
        <time>2021-10-10T11:10:53Z</time>
      </trkpt>
      <trkpt lat="45.1582" lon="5.56527">
        <ele>1390.6</ele>
        <time>2021-10-10T11:10:54Z</time>
      </trkpt>
      <trkpt lat="45.15821" lon="5.56523">
        <ele>1390.6</ele>
        <time>2021-10-10T11:10:55Z</time>
      </trkpt>
      <trkpt lat="45.15823" lon="5.5652">
        <ele>1390.6</ele>
        <time>2021-10-10T11:10:56Z</time>
      </trkpt>
      <trkpt lat="45.15824" lon="5.56517">
        <ele>1390.6</ele>
        <time>2021-10-10T11:10:57Z</time>
      </trkpt>
      <trkpt lat="45.15827" lon="5.56514">
        <ele>1390.8</ele>
        <time>2021-10-10T11:10:58Z</time>
      </trkpt>
      <trkpt lat="45.15829" lon="5.56511">
        <ele>1390.8</ele>
        <time>2021-10-10T11:10:59Z</time>
      </trkpt>
      <trkpt lat="45.1583" lon="5.56508">
        <ele>1390.8</ele>
        <time>2021-10-10T11:11:00Z</time>
      </trkpt>
      <trkpt lat="45.15832" lon="5.56504">
        <ele>1390.8</ele>
        <time>2021-10-10T11:11:01Z</time>
      </trkpt>
      <trkpt lat="45.15834" lon="5.56501">
        <ele>1390.6</ele>
        <time>2021-10-10T11:11:02Z</time>
      </trkpt>
      <trkpt lat="45.15836" lon="5.56498">
        <ele>1390.6</ele>
        <time>2021-10-10T11:11:03Z</time>
      </trkpt>
      <trkpt lat="45.15839" lon="5.56496">
        <ele>1390.6</ele>
        <time>2021-10-10T11:11:04Z</time>
      </trkpt>
      <trkpt lat="45.15841" lon="5.56494">
        <ele>1391</ele>
        <time>2021-10-10T11:11:05Z</time>
      </trkpt>
      <trkpt lat="45.15844" lon="5.56493">
        <ele>1391.4</ele>
        <time>2021-10-10T11:11:06Z</time>
      </trkpt>
      <trkpt lat="45.15847" lon="5.56491">
        <ele>1391.4</ele>
        <time>2021-10-10T11:11:07Z</time>
      </trkpt>
      <trkpt lat="45.15849" lon="5.56489">
        <ele>1391.4</ele>
        <time>2021-10-10T11:11:08Z</time>
      </trkpt>
      <trkpt lat="45.15853" lon="5.56487">
        <ele>1391.4</ele>
        <time>2021-10-10T11:11:09Z</time>
      </trkpt>
      <trkpt lat="45.15855" lon="5.56486">
        <ele>1391.8</ele>
        <time>2021-10-10T11:11:10Z</time>
      </trkpt>
      <trkpt lat="45.15858" lon="5.56484">
        <ele>1391.8</ele>
        <time>2021-10-10T11:11:11Z</time>
      </trkpt>
      <trkpt lat="45.15861" lon="5.56483">
        <ele>1391.8</ele>
        <time>2021-10-10T11:11:12Z</time>
      </trkpt>
      <trkpt lat="45.15864" lon="5.56482">
        <ele>1391.8</ele>
        <time>2021-10-10T11:11:13Z</time>
      </trkpt>
      <trkpt lat="45.15867" lon="5.56481">
        <ele>1392.2</ele>
        <time>2021-10-10T11:11:14Z</time>
      </trkpt>
      <trkpt lat="45.1587" lon="5.5648">
        <ele>1392.2</ele>
        <time>2021-10-10T11:11:15Z</time>
      </trkpt>
      <trkpt lat="45.15873" lon="5.56479">
        <ele>1392.2</ele>
        <time>2021-10-10T11:11:16Z</time>
      </trkpt>
      <trkpt lat="45.15876" lon="5.56479">
        <ele>1392.6</ele>
        <time>2021-10-10T11:11:17Z</time>
      </trkpt>
      <trkpt lat="45.1588" lon="5.56479">
        <ele>1392.4</ele>
        <time>2021-10-10T11:11:18Z</time>
      </trkpt>
      <trkpt lat="45.15883" lon="5.5648">
        <ele>1392.4</ele>
        <time>2021-10-10T11:11:19Z</time>
      </trkpt>
      <trkpt lat="45.15885" lon="5.56481">
        <ele>1392.4</ele>
        <time>2021-10-10T11:11:20Z</time>
      </trkpt>
      <trkpt lat="45.15889" lon="5.56483">
        <ele>1393</ele>
        <time>2021-10-10T11:11:21Z</time>
      </trkpt>
      <trkpt lat="45.15891" lon="5.56485">
        <ele>1393</ele>
        <time>2021-10-10T11:11:22Z</time>
      </trkpt>
      <trkpt lat="45.15892" lon="5.56487">
        <ele>1393</ele>
        <time>2021-10-10T11:11:23Z</time>
      </trkpt>
      <trkpt lat="45.15896" lon="5.56488">
        <ele>1393</ele>
        <time>2021-10-10T11:11:24Z</time>
      </trkpt>
      <trkpt lat="45.15898" lon="5.56489">
        <ele>1393</ele>
        <time>2021-10-10T11:11:25Z</time>
      </trkpt>
      <trkpt lat="45.159" lon="5.5649">
        <ele>1393.2</ele>
        <time>2021-10-10T11:11:26Z</time>
      </trkpt>
      <trkpt lat="45.15902" lon="5.56492">
        <ele>1393.2</ele>
        <time>2021-10-10T11:11:27Z</time>
      </trkpt>
      <trkpt lat="45.15905" lon="5.56494">
        <ele>1393.2</ele>
        <time>2021-10-10T11:11:28Z</time>
      </trkpt>
      <trkpt lat="45.15908" lon="5.56496">
        <ele>1394.2</ele>
        <time>2021-10-10T11:11:29Z</time>
      </trkpt>
      <trkpt lat="45.1591" lon="5.56498">
        <ele>1394.2</ele>
        <time>2021-10-10T11:11:30Z</time>
      </trkpt>
      <trkpt lat="45.15914" lon="5.56502">
        <ele>1394.2</ele>
        <time>2021-10-10T11:11:31Z</time>
      </trkpt>
      <trkpt lat="45.15917" lon="5.56504">
        <ele>1394.2</ele>
        <time>2021-10-10T11:11:32Z</time>
      </trkpt>
      <trkpt lat="45.1592" lon="5.56506">
        <ele>1395.2</ele>
        <time>2021-10-10T11:11:33Z</time>
      </trkpt>
      <trkpt lat="45.15922" lon="5.56508">
        <ele>1395.6</ele>
        <time>2021-10-10T11:11:34Z</time>
      </trkpt>
      <trkpt lat="45.15924" lon="5.56511">
        <ele>1395.6</ele>
        <time>2021-10-10T11:11:35Z</time>
      </trkpt>
      <trkpt lat="45.15926" lon="5.56513">
        <ele>1395.6</ele>
        <time>2021-10-10T11:11:36Z</time>
      </trkpt>
      <trkpt lat="45.15929" lon="5.56516">
        <ele>1395.6</ele>
        <time>2021-10-10T11:11:37Z</time>
      </trkpt>
      <trkpt lat="45.15931" lon="5.56519">
        <ele>1396</ele>
        <time>2021-10-10T11:11:38Z</time>
      </trkpt>
      <trkpt lat="45.15933" lon="5.56522">
        <ele>1396</ele>
        <time>2021-10-10T11:11:39Z</time>
      </trkpt>
      <trkpt lat="45.15936" lon="5.56525">
        <ele>1396</ele>
        <time>2021-10-10T11:11:40Z</time>
      </trkpt>
      <trkpt lat="45.15938" lon="5.56528">
        <ele>1396.2</ele>
        <time>2021-10-10T11:11:41Z</time>
      </trkpt>
      <trkpt lat="45.15939" lon="5.56528">
        <ele>1396.2</ele>
        <time>2021-10-10T11:11:42Z</time>
      </trkpt>
      <trkpt lat="45.15941" lon="5.56533">
        <ele>1396.2</ele>
        <time>2021-10-10T11:11:43Z</time>
      </trkpt>
      <trkpt lat="45.15944" lon="5.56536">
        <ele>1396.2</ele>
        <time>2021-10-10T11:11:44Z</time>
      </trkpt>
      <trkpt lat="45.15947" lon="5.5654">
        <ele>1396.2</ele>
        <time>2021-10-10T11:11:45Z</time>
      </trkpt>
      <trkpt lat="45.15949" lon="5.56544">
        <ele>1396.4</ele>
        <time>2021-10-10T11:11:46Z</time>
      </trkpt>
      <trkpt lat="45.15953" lon="5.56548">
        <ele>1396.4</ele>
        <time>2021-10-10T11:11:47Z</time>
      </trkpt>
      <trkpt lat="45.15954" lon="5.56553">
        <ele>1396.4</ele>
        <time>2021-10-10T11:11:48Z</time>
      </trkpt>
      <trkpt lat="45.15956" lon="5.56557">
        <ele>1396.6</ele>
        <time>2021-10-10T11:11:49Z</time>
      </trkpt>
      <trkpt lat="45.15957" lon="5.56561">
        <ele>1397</ele>
        <time>2021-10-10T11:11:50Z</time>
      </trkpt>
      <trkpt lat="45.15959" lon="5.56565">
        <ele>1397</ele>
        <time>2021-10-10T11:11:51Z</time>
      </trkpt>
      <trkpt lat="45.15962" lon="5.5657">
        <ele>1397</ele>
        <time>2021-10-10T11:11:52Z</time>
      </trkpt>
      <trkpt lat="45.15964" lon="5.56574">
        <ele>1397</ele>
        <time>2021-10-10T11:11:53Z</time>
      </trkpt>
      <trkpt lat="45.15967" lon="5.56578">
        <ele>1397.4</ele>
        <time>2021-10-10T11:11:54Z</time>
      </trkpt>
      <trkpt lat="45.15969" lon="5.56582">
        <ele>1397.4</ele>
        <time>2021-10-10T11:11:55Z</time>
      </trkpt>
      <trkpt lat="45.15971" lon="5.56585">
        <ele>1397.4</ele>
        <time>2021-10-10T11:11:56Z</time>
      </trkpt>
      <trkpt lat="45.15973" lon="5.56588">
        <ele>1397.4</ele>
        <time>2021-10-10T11:11:57Z</time>
      </trkpt>
      <trkpt lat="45.15976" lon="5.56591">
        <ele>1397.8</ele>
        <time>2021-10-10T11:11:58Z</time>
      </trkpt>
      <trkpt lat="45.1598" lon="5.56593">
        <ele>1397.8</ele>
        <time>2021-10-10T11:11:59Z</time>
      </trkpt>
      <trkpt lat="45.15982" lon="5.56594">
        <ele>1397.8</ele>
        <time>2021-10-10T11:12:00Z</time>
      </trkpt>
      <trkpt lat="45.15985" lon="5.56594">
        <ele>1397.8</ele>
        <time>2021-10-10T11:12:01Z</time>
      </trkpt>
      <trkpt lat="45.15987" lon="5.56596">
        <ele>1398</ele>
        <time>2021-10-10T11:12:02Z</time>
      </trkpt>
      <trkpt lat="45.15991" lon="5.56595">
        <ele>1398</ele>
        <time>2021-10-10T11:12:03Z</time>
      </trkpt>
      <trkpt lat="45.15995" lon="5.56594">
        <ele>1398</ele>
        <time>2021-10-10T11:12:04Z</time>
      </trkpt>
      <trkpt lat="45.16" lon="5.56593">
        <ele>1398</ele>
        <time>2021-10-10T11:12:05Z</time>
      </trkpt>
      <trkpt lat="45.16004" lon="5.56593">
        <ele>1397.8</ele>
        <time>2021-10-10T11:12:06Z</time>
      </trkpt>
      <trkpt lat="45.16008" lon="5.56593">
        <ele>1397.8</ele>
        <time>2021-10-10T11:12:07Z</time>
      </trkpt>
      <trkpt lat="45.16013" lon="5.56593">
        <ele>1397.8</ele>
        <time>2021-10-10T11:12:08Z</time>
      </trkpt>
      <trkpt lat="45.16017" lon="5.56592">
        <ele>1398.8</ele>
        <time>2021-10-10T11:12:09Z</time>
      </trkpt>
      <trkpt lat="45.1602" lon="5.56591">
        <ele>1398.6</ele>
        <time>2021-10-10T11:12:10Z</time>
      </trkpt>
      <trkpt lat="45.16024" lon="5.56591">
        <ele>1398.6</ele>
        <time>2021-10-10T11:12:11Z</time>
      </trkpt>
      <trkpt lat="45.16028" lon="5.5659">
        <ele>1398.6</ele>
        <time>2021-10-10T11:12:12Z</time>
      </trkpt>
      <trkpt lat="45.16032" lon="5.56588">
        <ele>1399</ele>
        <time>2021-10-10T11:12:13Z</time>
      </trkpt>
      <trkpt lat="45.16037" lon="5.56588">
        <ele>1399.2</ele>
        <time>2021-10-10T11:12:14Z</time>
      </trkpt>
      <trkpt lat="45.16041" lon="5.56586">
        <ele>1399.2</ele>
        <time>2021-10-10T11:12:15Z</time>
      </trkpt>
      <trkpt lat="45.16044" lon="5.56584">
        <ele>1399.2</ele>
        <time>2021-10-10T11:12:16Z</time>
      </trkpt>
      <trkpt lat="45.16048" lon="5.56583">
        <ele>1399.6</ele>
        <time>2021-10-10T11:12:17Z</time>
      </trkpt>
      <trkpt lat="45.16052" lon="5.56583">
        <ele>1400.2</ele>
        <time>2021-10-10T11:12:18Z</time>
      </trkpt>
      <trkpt lat="45.16055" lon="5.56583">
        <ele>1400.2</ele>
        <time>2021-10-10T11:12:19Z</time>
      </trkpt>
      <trkpt lat="45.16059" lon="5.56584">
        <ele>1400.2</ele>
        <time>2021-10-10T11:12:20Z</time>
      </trkpt>
      <trkpt lat="45.16062" lon="5.56585">
        <ele>1400.2</ele>
        <time>2021-10-10T11:12:21Z</time>
      </trkpt>
      <trkpt lat="45.16066" lon="5.56583">
        <ele>1400.2</ele>
        <time>2021-10-10T11:12:22Z</time>
      </trkpt>
      <trkpt lat="45.1607" lon="5.56583">
        <ele>1400.2</ele>
        <time>2021-10-10T11:12:23Z</time>
      </trkpt>
      <trkpt lat="45.16074" lon="5.56583">
        <ele>1400.2</ele>
        <time>2021-10-10T11:12:24Z</time>
      </trkpt>
      <trkpt lat="45.16077" lon="5.56583">
        <ele>1400.2</ele>
        <time>2021-10-10T11:12:25Z</time>
      </trkpt>
      <trkpt lat="45.16081" lon="5.56585">
        <ele>1400.6</ele>
        <time>2021-10-10T11:12:26Z</time>
      </trkpt>
      <trkpt lat="45.16084" lon="5.56585">
        <ele>1400.6</ele>
        <time>2021-10-10T11:12:27Z</time>
      </trkpt>
      <trkpt lat="45.16087" lon="5.56586">
        <ele>1400.6</ele>
        <time>2021-10-10T11:12:28Z</time>
      </trkpt>
      <trkpt lat="45.1609" lon="5.56587">
        <ele>1400.8</ele>
        <time>2021-10-10T11:12:29Z</time>
      </trkpt>
      <trkpt lat="45.16094" lon="5.56587">
        <ele>1400.4</ele>
        <time>2021-10-10T11:12:30Z</time>
      </trkpt>
      <trkpt lat="45.16098" lon="5.56588">
        <ele>1400.4</ele>
        <time>2021-10-10T11:12:31Z</time>
      </trkpt>
      <trkpt lat="45.16101" lon="5.56588">
        <ele>1400.4</ele>
        <time>2021-10-10T11:12:32Z</time>
      </trkpt>
      <trkpt lat="45.16105" lon="5.56588">
        <ele>1400.4</ele>
        <time>2021-10-10T11:12:33Z</time>
      </trkpt>
      <trkpt lat="45.16108" lon="5.56589">
        <ele>1401.4</ele>
        <time>2021-10-10T11:12:34Z</time>
      </trkpt>
      <trkpt lat="45.16112" lon="5.56589">
        <ele>1401.4</ele>
        <time>2021-10-10T11:12:35Z</time>
      </trkpt>
      <trkpt lat="45.16115" lon="5.56589">
        <ele>1401.4</ele>
        <time>2021-10-10T11:12:36Z</time>
      </trkpt>
      <trkpt lat="45.16119" lon="5.56589">
        <ele>1401.4</ele>
        <time>2021-10-10T11:12:37Z</time>
      </trkpt>
      <trkpt lat="45.16122" lon="5.56589">
        <ele>1401.4</ele>
        <time>2021-10-10T11:12:38Z</time>
      </trkpt>
      <trkpt lat="45.16125" lon="5.56588">
        <ele>1401.4</ele>
        <time>2021-10-10T11:12:39Z</time>
      </trkpt>
      <trkpt lat="45.16129" lon="5.56588">
        <ele>1401.4</ele>
        <time>2021-10-10T11:12:40Z</time>
      </trkpt>
      <trkpt lat="45.16132" lon="5.56588">
        <ele>1401.4</ele>
        <time>2021-10-10T11:12:41Z</time>
      </trkpt>
      <trkpt lat="45.16135" lon="5.56587">
        <ele>1401.6</ele>
        <time>2021-10-10T11:12:42Z</time>
      </trkpt>
      <trkpt lat="45.16139" lon="5.56588">
        <ele>1401.6</ele>
        <time>2021-10-10T11:12:43Z</time>
      </trkpt>
      <trkpt lat="45.16142" lon="5.56588">
        <ele>1401.6</ele>
        <time>2021-10-10T11:12:44Z</time>
      </trkpt>
      <trkpt lat="45.16145" lon="5.56588">
        <ele>1401.6</ele>
        <time>2021-10-10T11:12:45Z</time>
      </trkpt>
      <trkpt lat="45.16148" lon="5.56588">
        <ele>1401.8</ele>
        <time>2021-10-10T11:12:46Z</time>
      </trkpt>
      <trkpt lat="45.16152" lon="5.56588">
        <ele>1401.8</ele>
        <time>2021-10-10T11:12:47Z</time>
      </trkpt>
      <trkpt lat="45.16155" lon="5.56589">
        <ele>1401.8</ele>
        <time>2021-10-10T11:12:48Z</time>
      </trkpt>
      <trkpt lat="45.16158" lon="5.56589">
        <ele>1401.8</ele>
        <time>2021-10-10T11:12:49Z</time>
      </trkpt>
      <trkpt lat="45.1616" lon="5.56589">
        <ele>1402.6</ele>
        <time>2021-10-10T11:12:50Z</time>
      </trkpt>
      <trkpt lat="45.16164" lon="5.5659">
        <ele>1402.6</ele>
        <time>2021-10-10T11:12:51Z</time>
      </trkpt>
      <trkpt lat="45.16167" lon="5.56589">
        <ele>1402.6</ele>
        <time>2021-10-10T11:12:52Z</time>
      </trkpt>
      <trkpt lat="45.1617" lon="5.56589">
        <ele>1402.6</ele>
        <time>2021-10-10T11:12:53Z</time>
      </trkpt>
      <trkpt lat="45.16173" lon="5.56589">
        <ele>1402.8</ele>
        <time>2021-10-10T11:12:54Z</time>
      </trkpt>
      <trkpt lat="45.16177" lon="5.5659">
        <ele>1402.8</ele>
        <time>2021-10-10T11:12:55Z</time>
      </trkpt>
      <trkpt lat="45.1618" lon="5.56591">
        <ele>1402.8</ele>
        <time>2021-10-10T11:12:56Z</time>
      </trkpt>
      <trkpt lat="45.16184" lon="5.56593">
        <ele>1402.8</ele>
        <time>2021-10-10T11:12:57Z</time>
      </trkpt>
      <trkpt lat="45.16186" lon="5.56593">
        <ele>1403.4</ele>
        <time>2021-10-10T11:12:58Z</time>
      </trkpt>
      <trkpt lat="45.16189" lon="5.56595">
        <ele>1403.4</ele>
        <time>2021-10-10T11:12:59Z</time>
      </trkpt>
      <trkpt lat="45.16193" lon="5.56597">
        <ele>1403.4</ele>
        <time>2021-10-10T11:13:00Z</time>
      </trkpt>
      <trkpt lat="45.16195" lon="5.56599">
        <ele>1403.2</ele>
        <time>2021-10-10T11:13:01Z</time>
      </trkpt>
      <trkpt lat="45.16198" lon="5.56602">
        <ele>1403.4</ele>
        <time>2021-10-10T11:13:02Z</time>
      </trkpt>
      <trkpt lat="45.16202" lon="5.56604">
        <ele>1403.4</ele>
        <time>2021-10-10T11:13:03Z</time>
      </trkpt>
      <trkpt lat="45.16204" lon="5.56606">
        <ele>1403.4</ele>
        <time>2021-10-10T11:13:04Z</time>
      </trkpt>
      <trkpt lat="45.16207" lon="5.56609">
        <ele>1403</ele>
        <time>2021-10-10T11:13:05Z</time>
      </trkpt>
      <trkpt lat="45.1621" lon="5.56613">
        <ele>1403.2</ele>
        <time>2021-10-10T11:13:06Z</time>
      </trkpt>
      <trkpt lat="45.16212" lon="5.56616">
        <ele>1403.2</ele>
        <time>2021-10-10T11:13:07Z</time>
      </trkpt>
      <trkpt lat="45.16215" lon="5.5662">
        <ele>1403.2</ele>
        <time>2021-10-10T11:13:08Z</time>
      </trkpt>
      <trkpt lat="45.16217" lon="5.56625">
        <ele>1403.2</ele>
        <time>2021-10-10T11:13:09Z</time>
      </trkpt>
      <trkpt lat="45.16219" lon="5.56629">
        <ele>1403.4</ele>
        <time>2021-10-10T11:13:10Z</time>
      </trkpt>
      <trkpt lat="45.16222" lon="5.56634">
        <ele>1403.4</ele>
        <time>2021-10-10T11:13:11Z</time>
      </trkpt>
      <trkpt lat="45.16222" lon="5.56638">
        <ele>1403.4</ele>
        <time>2021-10-10T11:13:12Z</time>
      </trkpt>
      <trkpt lat="45.16224" lon="5.56644">
        <ele>1403.8</ele>
        <time>2021-10-10T11:13:13Z</time>
      </trkpt>
      <trkpt lat="45.16225" lon="5.56648">
        <ele>1404.2</ele>
        <time>2021-10-10T11:13:14Z</time>
      </trkpt>
      <trkpt lat="45.16226" lon="5.56653">
        <ele>1404.2</ele>
        <time>2021-10-10T11:13:15Z</time>
      </trkpt>
      <trkpt lat="45.16227" lon="5.56658">
        <ele>1404.2</ele>
        <time>2021-10-10T11:13:16Z</time>
      </trkpt>
      <trkpt lat="45.16228" lon="5.56663">
        <ele>1404.2</ele>
        <time>2021-10-10T11:13:17Z</time>
      </trkpt>
      <trkpt lat="45.16229" lon="5.56668">
        <ele>1405.2</ele>
        <time>2021-10-10T11:13:18Z</time>
      </trkpt>
      <trkpt lat="45.16231" lon="5.56673">
        <ele>1405.2</ele>
        <time>2021-10-10T11:13:19Z</time>
      </trkpt>
      <trkpt lat="45.16233" lon="5.56678">
        <ele>1405.2</ele>
        <time>2021-10-10T11:13:20Z</time>
      </trkpt>
      <trkpt lat="45.16235" lon="5.56682">
        <ele>1405.2</ele>
        <time>2021-10-10T11:13:21Z</time>
      </trkpt>
      <trkpt lat="45.16238" lon="5.56687">
        <ele>1404.8</ele>
        <time>2021-10-10T11:13:22Z</time>
      </trkpt>
      <trkpt lat="45.16242" lon="5.56691">
        <ele>1404.8</ele>
        <time>2021-10-10T11:13:23Z</time>
      </trkpt>
      <trkpt lat="45.16245" lon="5.56693">
        <ele>1404.8</ele>
        <time>2021-10-10T11:13:24Z</time>
      </trkpt>
      <trkpt lat="45.16249" lon="5.56696">
        <ele>1404.8</ele>
        <time>2021-10-10T11:13:25Z</time>
      </trkpt>
      <trkpt lat="45.16252" lon="5.56697">
        <ele>1405.2</ele>
        <time>2021-10-10T11:13:26Z</time>
      </trkpt>
      <trkpt lat="45.16257" lon="5.56698">
        <ele>1405.2</ele>
        <time>2021-10-10T11:13:27Z</time>
      </trkpt>
      <trkpt lat="45.16261" lon="5.56699">
        <ele>1405.2</ele>
        <time>2021-10-10T11:13:28Z</time>
      </trkpt>
      <trkpt lat="45.16266" lon="5.56698">
        <ele>1404.4</ele>
        <time>2021-10-10T11:13:29Z</time>
      </trkpt>
      <trkpt lat="45.16271" lon="5.56696">
        <ele>1404.6</ele>
        <time>2021-10-10T11:13:30Z</time>
      </trkpt>
      <trkpt lat="45.16274" lon="5.56694">
        <ele>1404.6</ele>
        <time>2021-10-10T11:13:31Z</time>
      </trkpt>
      <trkpt lat="45.16279" lon="5.56696">
        <ele>1404.6</ele>
        <time>2021-10-10T11:13:32Z</time>
      </trkpt>
      <trkpt lat="45.16282" lon="5.56693">
        <ele>1405.2</ele>
        <time>2021-10-10T11:13:33Z</time>
      </trkpt>
      <trkpt lat="45.16285" lon="5.5669">
        <ele>1405.4</ele>
        <time>2021-10-10T11:13:34Z</time>
      </trkpt>
      <trkpt lat="45.16288" lon="5.56688">
        <ele>1405.4</ele>
        <time>2021-10-10T11:13:35Z</time>
      </trkpt>
      <trkpt lat="45.16291" lon="5.56686">
        <ele>1405.4</ele>
        <time>2021-10-10T11:13:36Z</time>
      </trkpt>
      <trkpt lat="45.16294" lon="5.56682">
        <ele>1405.4</ele>
        <time>2021-10-10T11:13:37Z</time>
      </trkpt>
      <trkpt lat="45.16297" lon="5.56679">
        <ele>1406.2</ele>
        <time>2021-10-10T11:13:38Z</time>
      </trkpt>
      <trkpt lat="45.163" lon="5.56674">
        <ele>1406.2</ele>
        <time>2021-10-10T11:13:39Z</time>
      </trkpt>
      <trkpt lat="45.16303" lon="5.5667">
        <ele>1406.2</ele>
        <time>2021-10-10T11:13:40Z</time>
      </trkpt>
      <trkpt lat="45.16306" lon="5.56667">
        <ele>1405.4</ele>
        <time>2021-10-10T11:13:41Z</time>
      </trkpt>
      <trkpt lat="45.16309" lon="5.56664">
        <ele>1406</ele>
        <time>2021-10-10T11:13:42Z</time>
      </trkpt>
      <trkpt lat="45.16311" lon="5.56661">
        <ele>1406</ele>
        <time>2021-10-10T11:13:43Z</time>
      </trkpt>
      <trkpt lat="45.16314" lon="5.56657">
        <ele>1406</ele>
        <time>2021-10-10T11:13:44Z</time>
      </trkpt>
      <trkpt lat="45.16317" lon="5.56654">
        <ele>1406.4</ele>
        <time>2021-10-10T11:13:45Z</time>
      </trkpt>
      <trkpt lat="45.1632" lon="5.56651">
        <ele>1406.6</ele>
        <time>2021-10-10T11:13:46Z</time>
      </trkpt>
      <trkpt lat="45.16322" lon="5.56647">
        <ele>1406.6</ele>
        <time>2021-10-10T11:13:47Z</time>
      </trkpt>
      <trkpt lat="45.16325" lon="5.56644">
        <ele>1406.6</ele>
        <time>2021-10-10T11:13:48Z</time>
      </trkpt>
      <trkpt lat="45.16328" lon="5.56641">
        <ele>1406.6</ele>
        <time>2021-10-10T11:13:49Z</time>
      </trkpt>
      <trkpt lat="45.1633" lon="5.56637">
        <ele>1407</ele>
        <time>2021-10-10T11:13:50Z</time>
      </trkpt>
      <trkpt lat="45.16333" lon="5.56633">
        <ele>1407</ele>
        <time>2021-10-10T11:13:51Z</time>
      </trkpt>
      <trkpt lat="45.16335" lon="5.56629">
        <ele>1407</ele>
        <time>2021-10-10T11:13:52Z</time>
      </trkpt>
      <trkpt lat="45.16339" lon="5.56626">
        <ele>1407.2</ele>
        <time>2021-10-10T11:13:53Z</time>
      </trkpt>
      <trkpt lat="45.16342" lon="5.56622">
        <ele>1407.6</ele>
        <time>2021-10-10T11:13:54Z</time>
      </trkpt>
      <trkpt lat="45.16345" lon="5.56619">
        <ele>1407.6</ele>
        <time>2021-10-10T11:13:55Z</time>
      </trkpt>
      <trkpt lat="45.16348" lon="5.56616">
        <ele>1407.6</ele>
        <time>2021-10-10T11:13:56Z</time>
      </trkpt>
      <trkpt lat="45.16352" lon="5.56615">
        <ele>1407.6</ele>
        <time>2021-10-10T11:13:57Z</time>
      </trkpt>
      <trkpt lat="45.16356" lon="5.56614">
        <ele>1407.8</ele>
        <time>2021-10-10T11:13:58Z</time>
      </trkpt>
      <trkpt lat="45.1636" lon="5.56613">
        <ele>1407.8</ele>
        <time>2021-10-10T11:13:59Z</time>
      </trkpt>
      <trkpt lat="45.16364" lon="5.56612">
        <ele>1407.8</ele>
        <time>2021-10-10T11:14:00Z</time>
      </trkpt>
      <trkpt lat="45.16368" lon="5.56613">
        <ele>1408.8</ele>
        <time>2021-10-10T11:14:01Z</time>
      </trkpt>
      <trkpt lat="45.16372" lon="5.56614">
        <ele>1408.6</ele>
        <time>2021-10-10T11:14:02Z</time>
      </trkpt>
      <trkpt lat="45.16376" lon="5.56615">
        <ele>1408.6</ele>
        <time>2021-10-10T11:14:03Z</time>
      </trkpt>
      <trkpt lat="45.1638" lon="5.56616">
        <ele>1408.6</ele>
        <time>2021-10-10T11:14:04Z</time>
      </trkpt>
      <trkpt lat="45.16383" lon="5.56617">
        <ele>1408.6</ele>
        <time>2021-10-10T11:14:05Z</time>
      </trkpt>
      <trkpt lat="45.16387" lon="5.56618">
        <ele>1409.6</ele>
        <time>2021-10-10T11:14:06Z</time>
      </trkpt>
      <trkpt lat="45.16391" lon="5.56619">
        <ele>1409.6</ele>
        <time>2021-10-10T11:14:07Z</time>
      </trkpt>
      <trkpt lat="45.16394" lon="5.5662">
        <ele>1409.6</ele>
        <time>2021-10-10T11:14:08Z</time>
      </trkpt>
      <trkpt lat="45.16398" lon="5.56622">
        <ele>1409.6</ele>
        <time>2021-10-10T11:14:09Z</time>
      </trkpt>
      <trkpt lat="45.16402" lon="5.56623">
        <ele>1409.6</ele>
        <time>2021-10-10T11:14:10Z</time>
      </trkpt>
      <trkpt lat="45.16405" lon="5.56624">
        <ele>1409.6</ele>
        <time>2021-10-10T11:14:11Z</time>
      </trkpt>
      <trkpt lat="45.16409" lon="5.56625">
        <ele>1409.6</ele>
        <time>2021-10-10T11:14:12Z</time>
      </trkpt>
      <trkpt lat="45.16412" lon="5.56626">
        <ele>1409.6</ele>
        <time>2021-10-10T11:14:13Z</time>
      </trkpt>
      <trkpt lat="45.16416" lon="5.56626">
        <ele>1410</ele>
        <time>2021-10-10T11:14:14Z</time>
      </trkpt>
      <trkpt lat="45.16419" lon="5.56628">
        <ele>1410</ele>
        <time>2021-10-10T11:14:15Z</time>
      </trkpt>
      <trkpt lat="45.16422" lon="5.56629">
        <ele>1410</ele>
        <time>2021-10-10T11:14:16Z</time>
      </trkpt>
      <trkpt lat="45.16425" lon="5.5663">
        <ele>1410</ele>
        <time>2021-10-10T11:14:17Z</time>
      </trkpt>
      <trkpt lat="45.16429" lon="5.5663">
        <ele>1410</ele>
        <time>2021-10-10T11:14:18Z</time>
      </trkpt>
      <trkpt lat="45.16433" lon="5.56631">
        <ele>1410</ele>
        <time>2021-10-10T11:14:19Z</time>
      </trkpt>
      <trkpt lat="45.16436" lon="5.5663">
        <ele>1410</ele>
        <time>2021-10-10T11:14:20Z</time>
      </trkpt>
      <trkpt lat="45.1644" lon="5.56631">
        <ele>1410</ele>
        <time>2021-10-10T11:14:21Z</time>
      </trkpt>
      <trkpt lat="45.16444" lon="5.56631">
        <ele>1410.2</ele>
        <time>2021-10-10T11:14:22Z</time>
      </trkpt>
      <trkpt lat="45.16448" lon="5.56632">
        <ele>1410.2</ele>
        <time>2021-10-10T11:14:23Z</time>
      </trkpt>
      <trkpt lat="45.16452" lon="5.56632">
        <ele>1410.2</ele>
        <time>2021-10-10T11:14:24Z</time>
      </trkpt>
      <trkpt lat="45.16455" lon="5.56631">
        <ele>1411.2</ele>
        <time>2021-10-10T11:14:25Z</time>
      </trkpt>
      <trkpt lat="45.16458" lon="5.5663">
        <ele>1411.2</ele>
        <time>2021-10-10T11:14:26Z</time>
      </trkpt>
      <trkpt lat="45.1646" lon="5.56631">
        <ele>1411.2</ele>
        <time>2021-10-10T11:14:27Z</time>
      </trkpt>
      <trkpt lat="45.16464" lon="5.5663">
        <ele>1411.2</ele>
        <time>2021-10-10T11:14:28Z</time>
      </trkpt>
      <trkpt lat="45.16469" lon="5.56629">
        <ele>1411.2</ele>
        <time>2021-10-10T11:14:29Z</time>
      </trkpt>
      <trkpt lat="45.16472" lon="5.56628">
        <ele>1411.4</ele>
        <time>2021-10-10T11:14:30Z</time>
      </trkpt>
      <trkpt lat="45.16475" lon="5.56628">
        <ele>1411.4</ele>
        <time>2021-10-10T11:14:31Z</time>
      </trkpt>
      <trkpt lat="45.16477" lon="5.56628">
        <ele>1411.4</ele>
        <time>2021-10-10T11:14:32Z</time>
      </trkpt>
      <trkpt lat="45.16482" lon="5.56628">
        <ele>1411.4</ele>
        <time>2021-10-10T11:14:33Z</time>
      </trkpt>
      <trkpt lat="45.16485" lon="5.56628">
        <ele>1412.4</ele>
        <time>2021-10-10T11:14:34Z</time>
      </trkpt>
      <trkpt lat="45.16489" lon="5.56628">
        <ele>1412.4</ele>
        <time>2021-10-10T11:14:35Z</time>
      </trkpt>
      <trkpt lat="45.16492" lon="5.56628">
        <ele>1412.4</ele>
        <time>2021-10-10T11:14:36Z</time>
      </trkpt>
      <trkpt lat="45.16495" lon="5.56628">
        <ele>1412.4</ele>
        <time>2021-10-10T11:14:37Z</time>
      </trkpt>
      <trkpt lat="45.16498" lon="5.56627">
        <ele>1413</ele>
        <time>2021-10-10T11:14:38Z</time>
      </trkpt>
      <trkpt lat="45.16502" lon="5.56626">
        <ele>1413</ele>
        <time>2021-10-10T11:14:39Z</time>
      </trkpt>
      <trkpt lat="45.16506" lon="5.56625">
        <ele>1413</ele>
        <time>2021-10-10T11:14:40Z</time>
      </trkpt>
      <trkpt lat="45.1651" lon="5.56625">
        <ele>1412.8</ele>
        <time>2021-10-10T11:14:41Z</time>
      </trkpt>
      <trkpt lat="45.16513" lon="5.56625">
        <ele>1413</ele>
        <time>2021-10-10T11:14:42Z</time>
      </trkpt>
      <trkpt lat="45.16517" lon="5.56626">
        <ele>1413</ele>
        <time>2021-10-10T11:14:43Z</time>
      </trkpt>
      <trkpt lat="45.16521" lon="5.56626">
        <ele>1413</ele>
        <time>2021-10-10T11:14:44Z</time>
      </trkpt>
      <trkpt lat="45.16524" lon="5.56627">
        <ele>1413.4</ele>
        <time>2021-10-10T11:14:45Z</time>
      </trkpt>
      <trkpt lat="45.16528" lon="5.56627">
        <ele>1413.6</ele>
        <time>2021-10-10T11:14:46Z</time>
      </trkpt>
      <trkpt lat="45.16532" lon="5.56629">
        <ele>1413.6</ele>
        <time>2021-10-10T11:14:47Z</time>
      </trkpt>
      <trkpt lat="45.16535" lon="5.5663">
        <ele>1413.6</ele>
        <time>2021-10-10T11:14:48Z</time>
      </trkpt>
      <trkpt lat="45.16538" lon="5.56631">
        <ele>1413.6</ele>
        <time>2021-10-10T11:14:49Z</time>
      </trkpt>
      <trkpt lat="45.16542" lon="5.56632">
        <ele>1414</ele>
        <time>2021-10-10T11:14:50Z</time>
      </trkpt>
      <trkpt lat="45.16546" lon="5.56631">
        <ele>1414</ele>
        <time>2021-10-10T11:14:51Z</time>
      </trkpt>
      <trkpt lat="45.1655" lon="5.56632">
        <ele>1414</ele>
        <time>2021-10-10T11:14:52Z</time>
      </trkpt>
      <trkpt lat="45.16554" lon="5.56633">
        <ele>1414.6</ele>
        <time>2021-10-10T11:14:53Z</time>
      </trkpt>
      <trkpt lat="45.16558" lon="5.56636">
        <ele>1414</ele>
        <time>2021-10-10T11:14:54Z</time>
      </trkpt>
      <trkpt lat="45.16562" lon="5.56638">
        <ele>1414</ele>
        <time>2021-10-10T11:14:55Z</time>
      </trkpt>
      <trkpt lat="45.16566" lon="5.56641">
        <ele>1414</ele>
        <time>2021-10-10T11:14:56Z</time>
      </trkpt>
      <trkpt lat="45.1657" lon="5.56645">
        <ele>1414</ele>
        <time>2021-10-10T11:14:57Z</time>
      </trkpt>
      <trkpt lat="45.16573" lon="5.56648">
        <ele>1414</ele>
        <time>2021-10-10T11:14:58Z</time>
      </trkpt>
      <trkpt lat="45.16577" lon="5.5665">
        <ele>1414</ele>
        <time>2021-10-10T11:14:59Z</time>
      </trkpt>
      <trkpt lat="45.1658" lon="5.56651">
        <ele>1414</ele>
        <time>2021-10-10T11:15:00Z</time>
      </trkpt>
      <trkpt lat="45.16583" lon="5.56653">
        <ele>1415</ele>
        <time>2021-10-10T11:15:01Z</time>
      </trkpt>
      <trkpt lat="45.16586" lon="5.56655">
        <ele>1415.6</ele>
        <time>2021-10-10T11:15:02Z</time>
      </trkpt>
      <trkpt lat="45.16589" lon="5.56656">
        <ele>1415.6</ele>
        <time>2021-10-10T11:15:03Z</time>
      </trkpt>
      <trkpt lat="45.16592" lon="5.56659">
        <ele>1415.6</ele>
        <time>2021-10-10T11:15:04Z</time>
      </trkpt>
      <trkpt lat="45.16594" lon="5.56661">
        <ele>1415.6</ele>
        <time>2021-10-10T11:15:05Z</time>
      </trkpt>
      <trkpt lat="45.16596" lon="5.56662">
        <ele>1416.4</ele>
        <time>2021-10-10T11:15:06Z</time>
      </trkpt>
      <trkpt lat="45.16599" lon="5.56665">
        <ele>1416.4</ele>
        <time>2021-10-10T11:15:07Z</time>
      </trkpt>
      <trkpt lat="45.16601" lon="5.56668">
        <ele>1416.4</ele>
        <time>2021-10-10T11:15:08Z</time>
      </trkpt>
      <trkpt lat="45.16603" lon="5.5667">
        <ele>1417.2</ele>
        <time>2021-10-10T11:15:09Z</time>
      </trkpt>
      <trkpt lat="45.16604" lon="5.56673">
        <ele>1417.6</ele>
        <time>2021-10-10T11:15:10Z</time>
      </trkpt>
      <trkpt lat="45.16606" lon="5.56676">
        <ele>1417.6</ele>
        <time>2021-10-10T11:15:11Z</time>
      </trkpt>
      <trkpt lat="45.16607" lon="5.56679">
        <ele>1417.6</ele>
        <time>2021-10-10T11:15:12Z</time>
      </trkpt>
      <trkpt lat="45.16608" lon="5.56682">
        <ele>1417.6</ele>
        <time>2021-10-10T11:15:13Z</time>
      </trkpt>
      <trkpt lat="45.16609" lon="5.56685">
        <ele>1417.8</ele>
        <time>2021-10-10T11:15:14Z</time>
      </trkpt>
      <trkpt lat="45.1661" lon="5.56688">
        <ele>1417.8</ele>
        <time>2021-10-10T11:15:15Z</time>
      </trkpt>
      <trkpt lat="45.1661" lon="5.56691">
        <ele>1417.8</ele>
        <time>2021-10-10T11:15:16Z</time>
      </trkpt>
      <trkpt lat="45.16611" lon="5.56694">
        <ele>1418.6</ele>
        <time>2021-10-10T11:15:17Z</time>
      </trkpt>
      <trkpt lat="45.16611" lon="5.56697">
        <ele>1419</ele>
        <time>2021-10-10T11:15:18Z</time>
      </trkpt>
      <trkpt lat="45.16611" lon="5.567">
        <ele>1419</ele>
        <time>2021-10-10T11:15:19Z</time>
      </trkpt>
      <trkpt lat="45.16611" lon="5.56703">
        <ele>1419</ele>
        <time>2021-10-10T11:15:20Z</time>
      </trkpt>
      <trkpt lat="45.16611" lon="5.56705">
        <ele>1419</ele>
        <time>2021-10-10T11:15:21Z</time>
      </trkpt>
      <trkpt lat="45.1661" lon="5.56708">
        <ele>1419.8</ele>
        <time>2021-10-10T11:15:22Z</time>
      </trkpt>
      <trkpt lat="45.1661" lon="5.56711">
        <ele>1419.8</ele>
        <time>2021-10-10T11:15:23Z</time>
      </trkpt>
      <trkpt lat="45.16609" lon="5.56714">
        <ele>1419.8</ele>
        <time>2021-10-10T11:15:24Z</time>
      </trkpt>
      <trkpt lat="45.16608" lon="5.56716">
        <ele>1419.8</ele>
        <time>2021-10-10T11:15:25Z</time>
      </trkpt>
      <trkpt lat="45.16608" lon="5.56717">
        <ele>1420</ele>
        <time>2021-10-10T11:15:26Z</time>
      </trkpt>
      <trkpt lat="45.16607" lon="5.56719">
        <ele>1420</ele>
        <time>2021-10-10T11:15:27Z</time>
      </trkpt>
      <trkpt lat="45.16607" lon="5.56721">
        <ele>1420</ele>
        <time>2021-10-10T11:15:28Z</time>
      </trkpt>
      <trkpt lat="45.16606" lon="5.56722">
        <ele>1420</ele>
        <time>2021-10-10T11:15:29Z</time>
      </trkpt>
      <trkpt lat="45.16606" lon="5.56723">
        <ele>1420.4</ele>
        <time>2021-10-10T11:15:30Z</time>
      </trkpt>
      <trkpt lat="45.16608" lon="5.56728">
        <ele>1421</ele>
        <time>2021-10-10T11:18:29Z</time>
      </trkpt>
      <trkpt lat="45.16607" lon="5.5673">
        <ele>1420.4</ele>
        <time>2021-10-10T11:18:30Z</time>
      </trkpt>
      <trkpt lat="45.16606" lon="5.56732">
        <ele>1420.4</ele>
        <time>2021-10-10T11:18:31Z</time>
      </trkpt>
      <trkpt lat="45.16605" lon="5.56735">
        <ele>1420.4</ele>
        <time>2021-10-10T11:18:32Z</time>
      </trkpt>
      <trkpt lat="45.16604" lon="5.56737">
        <ele>1420.4</ele>
        <time>2021-10-10T11:18:33Z</time>
      </trkpt>
      <trkpt lat="45.16603" lon="5.5674">
        <ele>1420.4</ele>
        <time>2021-10-10T11:18:34Z</time>
      </trkpt>
      <trkpt lat="45.16602" lon="5.56743">
        <ele>1420.4</ele>
        <time>2021-10-10T11:18:35Z</time>
      </trkpt>
      <trkpt lat="45.16601" lon="5.56747">
        <ele>1420.4</ele>
        <time>2021-10-10T11:18:36Z</time>
      </trkpt>
      <trkpt lat="45.16599" lon="5.56751">
        <ele>1420.4</ele>
        <time>2021-10-10T11:18:37Z</time>
      </trkpt>
      <trkpt lat="45.16598" lon="5.56754">
        <ele>1419.8</ele>
        <time>2021-10-10T11:18:38Z</time>
      </trkpt>
      <trkpt lat="45.16597" lon="5.56758">
        <ele>1419.8</ele>
        <time>2021-10-10T11:18:39Z</time>
      </trkpt>
      <trkpt lat="45.16596" lon="5.56762">
        <ele>1419.8</ele>
        <time>2021-10-10T11:18:40Z</time>
      </trkpt>
      <trkpt lat="45.16596" lon="5.56766">
        <ele>1419.8</ele>
        <time>2021-10-10T11:18:41Z</time>
      </trkpt>
      <trkpt lat="45.16594" lon="5.5677">
        <ele>1419.8</ele>
        <time>2021-10-10T11:18:42Z</time>
      </trkpt>
      <trkpt lat="45.16591" lon="5.56774">
        <ele>1419.8</ele>
        <time>2021-10-10T11:18:43Z</time>
      </trkpt>
      <trkpt lat="45.1659" lon="5.56779">
        <ele>1419.8</ele>
        <time>2021-10-10T11:18:44Z</time>
      </trkpt>
      <trkpt lat="45.16588" lon="5.56783">
        <ele>1419.8</ele>
        <time>2021-10-10T11:18:45Z</time>
      </trkpt>
      <trkpt lat="45.16586" lon="5.56787">
        <ele>1419.6</ele>
        <time>2021-10-10T11:18:46Z</time>
      </trkpt>
      <trkpt lat="45.16585" lon="5.56792">
        <ele>1419.6</ele>
        <time>2021-10-10T11:18:47Z</time>
      </trkpt>
      <trkpt lat="45.16583" lon="5.56796">
        <ele>1419.6</ele>
        <time>2021-10-10T11:18:48Z</time>
      </trkpt>
      <trkpt lat="45.16581" lon="5.56801">
        <ele>1419.6</ele>
        <time>2021-10-10T11:18:49Z</time>
      </trkpt>
      <trkpt lat="45.16579" lon="5.56805">
        <ele>1419.6</ele>
        <time>2021-10-10T11:18:50Z</time>
      </trkpt>
      <trkpt lat="45.16577" lon="5.5681">
        <ele>1419.6</ele>
        <time>2021-10-10T11:18:51Z</time>
      </trkpt>
      <trkpt lat="45.16576" lon="5.56815">
        <ele>1419.6</ele>
        <time>2021-10-10T11:18:52Z</time>
      </trkpt>
      <trkpt lat="45.16574" lon="5.56821">
        <ele>1419.6</ele>
        <time>2021-10-10T11:18:53Z</time>
      </trkpt>
      <trkpt lat="45.16573" lon="5.56826">
        <ele>1420.4</ele>
        <time>2021-10-10T11:18:54Z</time>
      </trkpt>
      <trkpt lat="45.16571" lon="5.56831">
        <ele>1420.4</ele>
        <time>2021-10-10T11:18:55Z</time>
      </trkpt>
      <trkpt lat="45.1657" lon="5.56835">
        <ele>1420.4</ele>
        <time>2021-10-10T11:18:56Z</time>
      </trkpt>
      <trkpt lat="45.16568" lon="5.56839">
        <ele>1421</ele>
        <time>2021-10-10T11:18:57Z</time>
      </trkpt>
      <trkpt lat="45.16567" lon="5.56844">
        <ele>1421.4</ele>
        <time>2021-10-10T11:18:58Z</time>
      </trkpt>
      <trkpt lat="45.16566" lon="5.56848">
        <ele>1421.4</ele>
        <time>2021-10-10T11:18:59Z</time>
      </trkpt>
      <trkpt lat="45.16565" lon="5.56852">
        <ele>1421.4</ele>
        <time>2021-10-10T11:19:00Z</time>
      </trkpt>
      <trkpt lat="45.16564" lon="5.56856">
        <ele>1422.4</ele>
        <time>2021-10-10T11:19:01Z</time>
      </trkpt>
      <trkpt lat="45.16563" lon="5.56859">
        <ele>1422.6</ele>
        <time>2021-10-10T11:19:02Z</time>
      </trkpt>
      <trkpt lat="45.16562" lon="5.56862">
        <ele>1422.6</ele>
        <time>2021-10-10T11:19:03Z</time>
      </trkpt>
      <trkpt lat="45.16561" lon="5.56865">
        <ele>1422.6</ele>
        <time>2021-10-10T11:19:04Z</time>
      </trkpt>
      <trkpt lat="45.16562" lon="5.56867">
        <ele>1423.6</ele>
        <time>2021-10-10T11:19:05Z</time>
      </trkpt>
      <trkpt lat="45.1656" lon="5.56869">
        <ele>1423.8</ele>
        <time>2021-10-10T11:19:06Z</time>
      </trkpt>
      <trkpt lat="45.16558" lon="5.56871">
        <ele>1423.8</ele>
        <time>2021-10-10T11:19:07Z</time>
      </trkpt>
      <trkpt lat="45.16556" lon="5.56873">
        <ele>1423.8</ele>
        <time>2021-10-10T11:19:08Z</time>
      </trkpt>
      <trkpt lat="45.16555" lon="5.56876">
        <ele>1424.8</ele>
        <time>2021-10-10T11:19:09Z</time>
      </trkpt>
      <trkpt lat="45.16554" lon="5.56878">
        <ele>1425.6</ele>
        <time>2021-10-10T11:19:10Z</time>
      </trkpt>
      <trkpt lat="45.16553" lon="5.5688">
        <ele>1425.6</ele>
        <time>2021-10-10T11:19:11Z</time>
      </trkpt>
      <trkpt lat="45.16552" lon="5.56882">
        <ele>1425.6</ele>
        <time>2021-10-10T11:19:12Z</time>
      </trkpt>
      <trkpt lat="45.1655" lon="5.56883">
        <ele>1425.6</ele>
        <time>2021-10-10T11:19:13Z</time>
      </trkpt>
      <trkpt lat="45.16549" lon="5.56885">
        <ele>1426.4</ele>
        <time>2021-10-10T11:19:14Z</time>
      </trkpt>
      <trkpt lat="45.16547" lon="5.56887">
        <ele>1426.4</ele>
        <time>2021-10-10T11:19:15Z</time>
      </trkpt>
      <trkpt lat="45.16546" lon="5.56889">
        <ele>1426.4</ele>
        <time>2021-10-10T11:19:16Z</time>
      </trkpt>
      <trkpt lat="45.16545" lon="5.56891">
        <ele>1426.4</ele>
        <time>2021-10-10T11:19:17Z</time>
      </trkpt>
      <trkpt lat="45.16543" lon="5.56892">
        <ele>1427.2</ele>
        <time>2021-10-10T11:19:18Z</time>
      </trkpt>
      <trkpt lat="45.16542" lon="5.56894">
        <ele>1427.2</ele>
        <time>2021-10-10T11:19:19Z</time>
      </trkpt>
      <trkpt lat="45.16541" lon="5.56896">
        <ele>1427.2</ele>
        <time>2021-10-10T11:19:20Z</time>
      </trkpt>
      <trkpt lat="45.16539" lon="5.56899">
        <ele>1428</ele>
        <time>2021-10-10T11:19:21Z</time>
      </trkpt>
      <trkpt lat="45.16538" lon="5.56901">
        <ele>1428</ele>
        <time>2021-10-10T11:19:22Z</time>
      </trkpt>
      <trkpt lat="45.16537" lon="5.56903">
        <ele>1428</ele>
        <time>2021-10-10T11:19:23Z</time>
      </trkpt>
      <trkpt lat="45.16536" lon="5.56906">
        <ele>1428</ele>
        <time>2021-10-10T11:19:24Z</time>
      </trkpt>
      <trkpt lat="45.16535" lon="5.56908">
        <ele>1428</ele>
        <time>2021-10-10T11:19:25Z</time>
      </trkpt>
      <trkpt lat="45.16533" lon="5.5691">
        <ele>1428.4</ele>
        <time>2021-10-10T11:19:26Z</time>
      </trkpt>
      <trkpt lat="45.16532" lon="5.56913">
        <ele>1428.4</ele>
        <time>2021-10-10T11:19:27Z</time>
      </trkpt>
      <trkpt lat="45.16531" lon="5.56915">
        <ele>1428.4</ele>
        <time>2021-10-10T11:19:28Z</time>
      </trkpt>
      <trkpt lat="45.16531" lon="5.56918">
        <ele>1428.4</ele>
        <time>2021-10-10T11:19:29Z</time>
      </trkpt>
      <trkpt lat="45.1653" lon="5.5692">
        <ele>1429.8</ele>
        <time>2021-10-10T11:19:30Z</time>
      </trkpt>
      <trkpt lat="45.16529" lon="5.56922">
        <ele>1429.8</ele>
        <time>2021-10-10T11:19:31Z</time>
      </trkpt>
      <trkpt lat="45.16528" lon="5.56925">
        <ele>1429.8</ele>
        <time>2021-10-10T11:19:32Z</time>
      </trkpt>
      <trkpt lat="45.16527" lon="5.56927">
        <ele>1430</ele>
        <time>2021-10-10T11:19:33Z</time>
      </trkpt>
      <trkpt lat="45.16527" lon="5.5693">
        <ele>1430.8</ele>
        <time>2021-10-10T11:19:34Z</time>
      </trkpt>
      <trkpt lat="45.16526" lon="5.56932">
        <ele>1430.8</ele>
        <time>2021-10-10T11:19:35Z</time>
      </trkpt>
      <trkpt lat="45.16525" lon="5.56934">
        <ele>1430.8</ele>
        <time>2021-10-10T11:19:36Z</time>
      </trkpt>
      <trkpt lat="45.16524" lon="5.56936">
        <ele>1430.8</ele>
        <time>2021-10-10T11:19:37Z</time>
      </trkpt>
      <trkpt lat="45.16523" lon="5.56939">
        <ele>1431.6</ele>
        <time>2021-10-10T11:19:38Z</time>
      </trkpt>
      <trkpt lat="45.16522" lon="5.56941">
        <ele>1431.6</ele>
        <time>2021-10-10T11:19:39Z</time>
      </trkpt>
      <trkpt lat="45.16521" lon="5.56943">
        <ele>1431.6</ele>
        <time>2021-10-10T11:19:40Z</time>
      </trkpt>
      <trkpt lat="45.1652" lon="5.56946">
        <ele>1431.6</ele>
        <time>2021-10-10T11:19:41Z</time>
      </trkpt>
      <trkpt lat="45.16518" lon="5.56948">
        <ele>1431.8</ele>
        <time>2021-10-10T11:19:42Z</time>
      </trkpt>
      <trkpt lat="45.16517" lon="5.5695">
        <ele>1431.8</ele>
        <time>2021-10-10T11:19:43Z</time>
      </trkpt>
      <trkpt lat="45.16516" lon="5.56953">
        <ele>1431.8</ele>
        <time>2021-10-10T11:19:44Z</time>
      </trkpt>
      <trkpt lat="45.16515" lon="5.56956">
        <ele>1432.2</ele>
        <time>2021-10-10T11:19:45Z</time>
      </trkpt>
      <trkpt lat="45.16515" lon="5.56959">
        <ele>1432</ele>
        <time>2021-10-10T11:19:46Z</time>
      </trkpt>
      <trkpt lat="45.16514" lon="5.56962">
        <ele>1432</ele>
        <time>2021-10-10T11:19:47Z</time>
      </trkpt>
      <trkpt lat="45.16513" lon="5.56965">
        <ele>1432</ele>
        <time>2021-10-10T11:19:48Z</time>
      </trkpt>
      <trkpt lat="45.16512" lon="5.56968">
        <ele>1432</ele>
        <time>2021-10-10T11:19:49Z</time>
      </trkpt>
      <trkpt lat="45.16511" lon="5.56971">
        <ele>1432.2</ele>
        <time>2021-10-10T11:19:50Z</time>
      </trkpt>
      <trkpt lat="45.1651" lon="5.56974">
        <ele>1432.2</ele>
        <time>2021-10-10T11:19:51Z</time>
      </trkpt>
      <trkpt lat="45.16509" lon="5.56977">
        <ele>1432.2</ele>
        <time>2021-10-10T11:19:52Z</time>
      </trkpt>
      <trkpt lat="45.16508" lon="5.56981">
        <ele>1432.4</ele>
        <time>2021-10-10T11:19:53Z</time>
      </trkpt>
      <trkpt lat="45.16508" lon="5.56984">
        <ele>1432.6</ele>
        <time>2021-10-10T11:19:54Z</time>
      </trkpt>
      <trkpt lat="45.16507" lon="5.56987">
        <ele>1432.6</ele>
        <time>2021-10-10T11:19:55Z</time>
      </trkpt>
      <trkpt lat="45.16506" lon="5.56991">
        <ele>1432.6</ele>
        <time>2021-10-10T11:19:56Z</time>
      </trkpt>
      <trkpt lat="45.16506" lon="5.56994">
        <ele>1432.6</ele>
        <time>2021-10-10T11:19:57Z</time>
      </trkpt>
      <trkpt lat="45.16505" lon="5.56998">
        <ele>1432.8</ele>
        <time>2021-10-10T11:19:58Z</time>
      </trkpt>
      <trkpt lat="45.16505" lon="5.57001">
        <ele>1432.8</ele>
        <time>2021-10-10T11:19:59Z</time>
      </trkpt>
      <trkpt lat="45.16504" lon="5.57005">
        <ele>1432.8</ele>
        <time>2021-10-10T11:20:00Z</time>
      </trkpt>
      <trkpt lat="45.16504" lon="5.57008">
        <ele>1432.8</ele>
        <time>2021-10-10T11:20:01Z</time>
      </trkpt>
      <trkpt lat="45.16503" lon="5.57012">
        <ele>1433.4</ele>
        <time>2021-10-10T11:20:02Z</time>
      </trkpt>
      <trkpt lat="45.16503" lon="5.57016">
        <ele>1433.4</ele>
        <time>2021-10-10T11:20:03Z</time>
      </trkpt>
      <trkpt lat="45.16502" lon="5.57019">
        <ele>1433.4</ele>
        <time>2021-10-10T11:20:04Z</time>
      </trkpt>
      <trkpt lat="45.16501" lon="5.57023">
        <ele>1433.4</ele>
        <time>2021-10-10T11:20:05Z</time>
      </trkpt>
      <trkpt lat="45.16501" lon="5.57027">
        <ele>1433</ele>
        <time>2021-10-10T11:20:06Z</time>
      </trkpt>
      <trkpt lat="45.165" lon="5.57031">
        <ele>1433</ele>
        <time>2021-10-10T11:20:07Z</time>
      </trkpt>
      <trkpt lat="45.165" lon="5.57036">
        <ele>1433</ele>
        <time>2021-10-10T11:20:08Z</time>
      </trkpt>
      <trkpt lat="45.165" lon="5.5704">
        <ele>1433.2</ele>
        <time>2021-10-10T11:20:09Z</time>
      </trkpt>
      <trkpt lat="45.165" lon="5.57045">
        <ele>1433</ele>
        <time>2021-10-10T11:20:10Z</time>
      </trkpt>
      <trkpt lat="45.16499" lon="5.57049">
        <ele>1433</ele>
        <time>2021-10-10T11:20:11Z</time>
      </trkpt>
      <trkpt lat="45.16499" lon="5.57053">
        <ele>1433</ele>
        <time>2021-10-10T11:20:12Z</time>
      </trkpt>
      <trkpt lat="45.16498" lon="5.57058">
        <ele>1433</ele>
        <time>2021-10-10T11:20:13Z</time>
      </trkpt>
      <trkpt lat="45.16498" lon="5.57063">
        <ele>1433</ele>
        <time>2021-10-10T11:20:14Z</time>
      </trkpt>
      <trkpt lat="45.16497" lon="5.57068">
        <ele>1433</ele>
        <time>2021-10-10T11:20:15Z</time>
      </trkpt>
      <trkpt lat="45.16497" lon="5.57073">
        <ele>1433</ele>
        <time>2021-10-10T11:20:16Z</time>
      </trkpt>
      <trkpt lat="45.16494" lon="5.57077">
        <ele>1433</ele>
        <time>2021-10-10T11:20:17Z</time>
      </trkpt>
      <trkpt lat="45.16494" lon="5.57082">
        <ele>1432.8</ele>
        <time>2021-10-10T11:20:18Z</time>
      </trkpt>
      <trkpt lat="45.16494" lon="5.57088">
        <ele>1432.8</ele>
        <time>2021-10-10T11:20:19Z</time>
      </trkpt>
      <trkpt lat="45.16492" lon="5.57094">
        <ele>1432.8</ele>
        <time>2021-10-10T11:20:20Z</time>
      </trkpt>
      <trkpt lat="45.16491" lon="5.57101">
        <ele>1431.8</ele>
        <time>2021-10-10T11:20:21Z</time>
      </trkpt>
      <trkpt lat="45.1649" lon="5.57107">
        <ele>1431.4</ele>
        <time>2021-10-10T11:20:22Z</time>
      </trkpt>
      <trkpt lat="45.1649" lon="5.57112">
        <ele>1431.4</ele>
        <time>2021-10-10T11:20:23Z</time>
      </trkpt>
      <trkpt lat="45.16489" lon="5.57119">
        <ele>1431.4</ele>
        <time>2021-10-10T11:20:24Z</time>
      </trkpt>
      <trkpt lat="45.16487" lon="5.57126">
        <ele>1430.8</ele>
        <time>2021-10-10T11:20:25Z</time>
      </trkpt>
      <trkpt lat="45.16487" lon="5.57133">
        <ele>1431</ele>
        <time>2021-10-10T11:20:26Z</time>
      </trkpt>
      <trkpt lat="45.16486" lon="5.5714">
        <ele>1431</ele>
        <time>2021-10-10T11:20:27Z</time>
      </trkpt>
      <trkpt lat="45.16485" lon="5.57148">
        <ele>1431</ele>
        <time>2021-10-10T11:20:28Z</time>
      </trkpt>
      <trkpt lat="45.16485" lon="5.57155">
        <ele>1431</ele>
        <time>2021-10-10T11:20:29Z</time>
      </trkpt>
      <trkpt lat="45.16484" lon="5.57162">
        <ele>1430.8</ele>
        <time>2021-10-10T11:20:30Z</time>
      </trkpt>
      <trkpt lat="45.16484" lon="5.57169">
        <ele>1430.8</ele>
        <time>2021-10-10T11:20:31Z</time>
      </trkpt>
      <trkpt lat="45.16483" lon="5.57176">
        <ele>1430.8</ele>
        <time>2021-10-10T11:20:32Z</time>
      </trkpt>
      <trkpt lat="45.16483" lon="5.57183">
        <ele>1430.8</ele>
        <time>2021-10-10T11:20:33Z</time>
      </trkpt>
      <trkpt lat="45.16483" lon="5.5719">
        <ele>1431.2</ele>
        <time>2021-10-10T11:20:34Z</time>
      </trkpt>
      <trkpt lat="45.16484" lon="5.57197">
        <ele>1431.2</ele>
        <time>2021-10-10T11:20:35Z</time>
      </trkpt>
      <trkpt lat="45.16484" lon="5.57204">
        <ele>1431.2</ele>
        <time>2021-10-10T11:20:36Z</time>
      </trkpt>
      <trkpt lat="45.16483" lon="5.57211">
        <ele>1431.2</ele>
        <time>2021-10-10T11:20:37Z</time>
      </trkpt>
      <trkpt lat="45.16482" lon="5.57217">
        <ele>1431.6</ele>
        <time>2021-10-10T11:20:38Z</time>
      </trkpt>
      <trkpt lat="45.16481" lon="5.57223">
        <ele>1431.6</ele>
        <time>2021-10-10T11:20:39Z</time>
      </trkpt>
      <trkpt lat="45.1648" lon="5.57229">
        <ele>1431.6</ele>
        <time>2021-10-10T11:20:40Z</time>
      </trkpt>
      <trkpt lat="45.16479" lon="5.57236">
        <ele>1431.6</ele>
        <time>2021-10-10T11:20:41Z</time>
      </trkpt>
      <trkpt lat="45.16478" lon="5.57241">
        <ele>1432.2</ele>
        <time>2021-10-10T11:20:42Z</time>
      </trkpt>
      <trkpt lat="45.16478" lon="5.57247">
        <ele>1432.2</ele>
        <time>2021-10-10T11:20:43Z</time>
      </trkpt>
      <trkpt lat="45.16477" lon="5.57252">
        <ele>1432.2</ele>
        <time>2021-10-10T11:20:44Z</time>
      </trkpt>
      <trkpt lat="45.16477" lon="5.57258">
        <ele>1432.2</ele>
        <time>2021-10-10T11:20:45Z</time>
      </trkpt>
      <trkpt lat="45.16477" lon="5.57264">
        <ele>1432.8</ele>
        <time>2021-10-10T11:20:46Z</time>
      </trkpt>
      <trkpt lat="45.16477" lon="5.57269">
        <ele>1432.8</ele>
        <time>2021-10-10T11:20:47Z</time>
      </trkpt>
      <trkpt lat="45.16477" lon="5.57275">
        <ele>1432.8</ele>
        <time>2021-10-10T11:20:48Z</time>
      </trkpt>
      <trkpt lat="45.16476" lon="5.5728">
        <ele>1432.8</ele>
        <time>2021-10-10T11:20:49Z</time>
      </trkpt>
      <trkpt lat="45.16475" lon="5.57286">
        <ele>1432.8</ele>
        <time>2021-10-10T11:20:50Z</time>
      </trkpt>
      <trkpt lat="45.16474" lon="5.57291">
        <ele>1432.8</ele>
        <time>2021-10-10T11:20:51Z</time>
      </trkpt>
      <trkpt lat="45.16473" lon="5.57297">
        <ele>1432.8</ele>
        <time>2021-10-10T11:20:52Z</time>
      </trkpt>
      <trkpt lat="45.16473" lon="5.57303">
        <ele>1432.8</ele>
        <time>2021-10-10T11:20:53Z</time>
      </trkpt>
      <trkpt lat="45.16473" lon="5.57309">
        <ele>1433</ele>
        <time>2021-10-10T11:20:54Z</time>
      </trkpt>
      <trkpt lat="45.16472" lon="5.57314">
        <ele>1433</ele>
        <time>2021-10-10T11:20:55Z</time>
      </trkpt>
      <trkpt lat="45.16471" lon="5.5732">
        <ele>1433</ele>
        <time>2021-10-10T11:20:56Z</time>
      </trkpt>
      <trkpt lat="45.1647" lon="5.57325">
        <ele>1434</ele>
        <time>2021-10-10T11:20:57Z</time>
      </trkpt>
      <trkpt lat="45.16469" lon="5.57331">
        <ele>1434</ele>
        <time>2021-10-10T11:20:58Z</time>
      </trkpt>
      <trkpt lat="45.16469" lon="5.57337">
        <ele>1434</ele>
        <time>2021-10-10T11:20:59Z</time>
      </trkpt>
      <trkpt lat="45.16469" lon="5.57342">
        <ele>1434</ele>
        <time>2021-10-10T11:21:00Z</time>
      </trkpt>
      <trkpt lat="45.16469" lon="5.57348">
        <ele>1434.4</ele>
        <time>2021-10-10T11:21:01Z</time>
      </trkpt>
      <trkpt lat="45.16468" lon="5.57354">
        <ele>1434.4</ele>
        <time>2021-10-10T11:21:02Z</time>
      </trkpt>
      <trkpt lat="45.16467" lon="5.57359">
        <ele>1434.4</ele>
        <time>2021-10-10T11:21:03Z</time>
      </trkpt>
      <trkpt lat="45.16469" lon="5.57366">
        <ele>1434.4</ele>
        <time>2021-10-10T11:21:04Z</time>
      </trkpt>
      <trkpt lat="45.1647" lon="5.57372">
        <ele>1435.4</ele>
        <time>2021-10-10T11:21:05Z</time>
      </trkpt>
      <trkpt lat="45.1647" lon="5.57378">
        <ele>1435.4</ele>
        <time>2021-10-10T11:21:06Z</time>
      </trkpt>
      <trkpt lat="45.16469" lon="5.57383">
        <ele>1435.4</ele>
        <time>2021-10-10T11:21:07Z</time>
      </trkpt>
      <trkpt lat="45.1647" lon="5.5739">
        <ele>1435.4</ele>
        <time>2021-10-10T11:21:08Z</time>
      </trkpt>
      <trkpt lat="45.1647" lon="5.57395">
        <ele>1435.4</ele>
        <time>2021-10-10T11:21:09Z</time>
      </trkpt>
      <trkpt lat="45.16471" lon="5.57401">
        <ele>1436</ele>
        <time>2021-10-10T11:21:10Z</time>
      </trkpt>
      <trkpt lat="45.16471" lon="5.57406">
        <ele>1436</ele>
        <time>2021-10-10T11:21:11Z</time>
      </trkpt>
      <trkpt lat="45.16471" lon="5.57411">
        <ele>1436</ele>
        <time>2021-10-10T11:21:12Z</time>
      </trkpt>
      <trkpt lat="45.16471" lon="5.57416">
        <ele>1436.8</ele>
        <time>2021-10-10T11:21:13Z</time>
      </trkpt>
      <trkpt lat="45.16471" lon="5.57422">
        <ele>1437.6</ele>
        <time>2021-10-10T11:21:14Z</time>
      </trkpt>
      <trkpt lat="45.16472" lon="5.57427">
        <ele>1437.6</ele>
        <time>2021-10-10T11:21:15Z</time>
      </trkpt>
      <trkpt lat="45.16472" lon="5.57433">
        <ele>1437.6</ele>
        <time>2021-10-10T11:21:16Z</time>
      </trkpt>
      <trkpt lat="45.16472" lon="5.57438">
        <ele>1437.2</ele>
        <time>2021-10-10T11:21:17Z</time>
      </trkpt>
      <trkpt lat="45.16472" lon="5.57444">
        <ele>1437.6</ele>
        <time>2021-10-10T11:21:18Z</time>
      </trkpt>
      <trkpt lat="45.16471" lon="5.57449">
        <ele>1437.6</ele>
        <time>2021-10-10T11:21:19Z</time>
      </trkpt>
      <trkpt lat="45.16471" lon="5.57455">
        <ele>1437.6</ele>
        <time>2021-10-10T11:21:20Z</time>
      </trkpt>
      <trkpt lat="45.16471" lon="5.5746">
        <ele>1438.2</ele>
        <time>2021-10-10T11:21:21Z</time>
      </trkpt>
      <trkpt lat="45.16471" lon="5.57465">
        <ele>1438</ele>
        <time>2021-10-10T11:21:22Z</time>
      </trkpt>
      <trkpt lat="45.16471" lon="5.57471">
        <ele>1438</ele>
        <time>2021-10-10T11:21:23Z</time>
      </trkpt>
      <trkpt lat="45.16473" lon="5.57477">
        <ele>1438</ele>
        <time>2021-10-10T11:21:24Z</time>
      </trkpt>
      <trkpt lat="45.16473" lon="5.57482">
        <ele>1438.2</ele>
        <time>2021-10-10T11:21:25Z</time>
      </trkpt>
      <trkpt lat="45.16474" lon="5.57488">
        <ele>1438.2</ele>
        <time>2021-10-10T11:21:26Z</time>
      </trkpt>
      <trkpt lat="45.16475" lon="5.57493">
        <ele>1438.2</ele>
        <time>2021-10-10T11:21:27Z</time>
      </trkpt>
      <trkpt lat="45.16475" lon="5.57499">
        <ele>1438.2</ele>
        <time>2021-10-10T11:21:28Z</time>
      </trkpt>
      <trkpt lat="45.16475" lon="5.57504">
        <ele>1438.6</ele>
        <time>2021-10-10T11:21:29Z</time>
      </trkpt>
      <trkpt lat="45.16476" lon="5.5751">
        <ele>1438.6</ele>
        <time>2021-10-10T11:21:30Z</time>
      </trkpt>
      <trkpt lat="45.16478" lon="5.57516">
        <ele>1438.6</ele>
        <time>2021-10-10T11:21:31Z</time>
      </trkpt>
      <trkpt lat="45.16479" lon="5.57521">
        <ele>1438.6</ele>
        <time>2021-10-10T11:21:32Z</time>
      </trkpt>
      <trkpt lat="45.16479" lon="5.57528">
        <ele>1439</ele>
        <time>2021-10-10T11:21:33Z</time>
      </trkpt>
      <trkpt lat="45.16479" lon="5.57533">
        <ele>1439.6</ele>
        <time>2021-10-10T11:21:34Z</time>
      </trkpt>
      <trkpt lat="45.16478" lon="5.57538">
        <ele>1439.6</ele>
        <time>2021-10-10T11:21:35Z</time>
      </trkpt>
      <trkpt lat="45.16477" lon="5.57544">
        <ele>1439.6</ele>
        <time>2021-10-10T11:21:36Z</time>
      </trkpt>
      <trkpt lat="45.16476" lon="5.57549">
        <ele>1439.8</ele>
        <time>2021-10-10T11:21:37Z</time>
      </trkpt>
      <trkpt lat="45.16478" lon="5.57556">
        <ele>1439.6</ele>
        <time>2021-10-10T11:21:38Z</time>
      </trkpt>
      <trkpt lat="45.16478" lon="5.57563">
        <ele>1439.6</ele>
        <time>2021-10-10T11:21:39Z</time>
      </trkpt>
      <trkpt lat="45.16479" lon="5.57569">
        <ele>1439.6</ele>
        <time>2021-10-10T11:21:40Z</time>
      </trkpt>
      <trkpt lat="45.16481" lon="5.57575">
        <ele>1439.6</ele>
        <time>2021-10-10T11:21:41Z</time>
      </trkpt>
      <trkpt lat="45.16484" lon="5.57581">
        <ele>1440</ele>
        <time>2021-10-10T11:21:42Z</time>
      </trkpt>
      <trkpt lat="45.16485" lon="5.57586">
        <ele>1440</ele>
        <time>2021-10-10T11:21:43Z</time>
      </trkpt>
      <trkpt lat="45.16488" lon="5.57593">
        <ele>1440</ele>
        <time>2021-10-10T11:21:44Z</time>
      </trkpt>
      <trkpt lat="45.16489" lon="5.57599">
        <ele>1440</ele>
        <time>2021-10-10T11:21:45Z</time>
      </trkpt>
      <trkpt lat="45.16491" lon="5.57605">
        <ele>1440.2</ele>
        <time>2021-10-10T11:21:46Z</time>
      </trkpt>
      <trkpt lat="45.16492" lon="5.57609">
        <ele>1440.2</ele>
        <time>2021-10-10T11:21:47Z</time>
      </trkpt>
      <trkpt lat="45.16495" lon="5.57615">
        <ele>1440.2</ele>
        <time>2021-10-10T11:21:48Z</time>
      </trkpt>
      <trkpt lat="45.16497" lon="5.57619">
        <ele>1440.8</ele>
        <time>2021-10-10T11:21:49Z</time>
      </trkpt>
      <trkpt lat="45.16499" lon="5.57623">
        <ele>1441.2</ele>
        <time>2021-10-10T11:21:50Z</time>
      </trkpt>
      <trkpt lat="45.16502" lon="5.57627">
        <ele>1441.2</ele>
        <time>2021-10-10T11:21:51Z</time>
      </trkpt>
      <trkpt lat="45.16506" lon="5.57632">
        <ele>1441.2</ele>
        <time>2021-10-10T11:21:52Z</time>
      </trkpt>
      <trkpt lat="45.16511" lon="5.57635">
        <ele>1441.4</ele>
        <time>2021-10-10T11:21:53Z</time>
      </trkpt>
      <trkpt lat="45.16514" lon="5.5764">
        <ele>1441.8</ele>
        <time>2021-10-10T11:21:54Z</time>
      </trkpt>
      <trkpt lat="45.16517" lon="5.57645">
        <ele>1441.8</ele>
        <time>2021-10-10T11:21:55Z</time>
      </trkpt>
      <trkpt lat="45.16519" lon="5.57648">
        <ele>1441.8</ele>
        <time>2021-10-10T11:21:56Z</time>
      </trkpt>
      <trkpt lat="45.16522" lon="5.57652">
        <ele>1442.4</ele>
        <time>2021-10-10T11:21:57Z</time>
      </trkpt>
      <trkpt lat="45.16526" lon="5.57657">
        <ele>1442.2</ele>
        <time>2021-10-10T11:21:58Z</time>
      </trkpt>
      <trkpt lat="45.16529" lon="5.57661">
        <ele>1442.2</ele>
        <time>2021-10-10T11:21:59Z</time>
      </trkpt>
      <trkpt lat="45.16532" lon="5.57665">
        <ele>1442.2</ele>
        <time>2021-10-10T11:22:00Z</time>
      </trkpt>
      <trkpt lat="45.16535" lon="5.5767">
        <ele>1442.6</ele>
        <time>2021-10-10T11:22:01Z</time>
      </trkpt>
      <trkpt lat="45.16538" lon="5.57674">
        <ele>1442.6</ele>
        <time>2021-10-10T11:22:02Z</time>
      </trkpt>
      <trkpt lat="45.16541" lon="5.57678">
        <ele>1442.6</ele>
        <time>2021-10-10T11:22:03Z</time>
      </trkpt>
      <trkpt lat="45.16544" lon="5.57683">
        <ele>1442.6</ele>
        <time>2021-10-10T11:22:04Z</time>
      </trkpt>
      <trkpt lat="45.16547" lon="5.57687">
        <ele>1442.6</ele>
        <time>2021-10-10T11:22:05Z</time>
      </trkpt>
      <trkpt lat="45.1655" lon="5.57691">
        <ele>1443.4</ele>
        <time>2021-10-10T11:22:06Z</time>
      </trkpt>
      <trkpt lat="45.16552" lon="5.57695">
        <ele>1443.4</ele>
        <time>2021-10-10T11:22:07Z</time>
      </trkpt>
      <trkpt lat="45.16555" lon="5.577">
        <ele>1443.4</ele>
        <time>2021-10-10T11:22:08Z</time>
      </trkpt>
      <trkpt lat="45.16557" lon="5.57705">
        <ele>1443.4</ele>
        <time>2021-10-10T11:22:09Z</time>
      </trkpt>
      <trkpt lat="45.1656" lon="5.57709">
        <ele>1443.4</ele>
        <time>2021-10-10T11:22:10Z</time>
      </trkpt>
      <trkpt lat="45.16562" lon="5.57713">
        <ele>1443.4</ele>
        <time>2021-10-10T11:22:11Z</time>
      </trkpt>
      <trkpt lat="45.16565" lon="5.57717">
        <ele>1443.4</ele>
        <time>2021-10-10T11:22:12Z</time>
      </trkpt>
      <trkpt lat="45.16569" lon="5.5772">
        <ele>1443.2</ele>
        <time>2021-10-10T11:22:13Z</time>
      </trkpt>
      <trkpt lat="45.16573" lon="5.57721">
        <ele>1443.4</ele>
        <time>2021-10-10T11:22:14Z</time>
      </trkpt>
      <trkpt lat="45.16577" lon="5.57721">
        <ele>1443.4</ele>
        <time>2021-10-10T11:22:15Z</time>
      </trkpt>
      <trkpt lat="45.16581" lon="5.57721">
        <ele>1443.4</ele>
        <time>2021-10-10T11:22:16Z</time>
      </trkpt>
      <trkpt lat="45.16586" lon="5.5772">
        <ele>1443.6</ele>
        <time>2021-10-10T11:22:17Z</time>
      </trkpt>
      <trkpt lat="45.1659" lon="5.57719">
        <ele>1443.4</ele>
        <time>2021-10-10T11:22:18Z</time>
      </trkpt>
      <trkpt lat="45.16594" lon="5.57717">
        <ele>1443.4</ele>
        <time>2021-10-10T11:22:19Z</time>
      </trkpt>
      <trkpt lat="45.16599" lon="5.57716">
        <ele>1443.4</ele>
        <time>2021-10-10T11:22:20Z</time>
      </trkpt>
      <trkpt lat="45.16603" lon="5.57715">
        <ele>1443.4</ele>
        <time>2021-10-10T11:22:21Z</time>
      </trkpt>
      <trkpt lat="45.16608" lon="5.57713">
        <ele>1443.4</ele>
        <time>2021-10-10T11:22:22Z</time>
      </trkpt>
      <trkpt lat="45.16612" lon="5.57712">
        <ele>1443.4</ele>
        <time>2021-10-10T11:22:23Z</time>
      </trkpt>
      <trkpt lat="45.16617" lon="5.57711">
        <ele>1443.4</ele>
        <time>2021-10-10T11:22:24Z</time>
      </trkpt>
      <trkpt lat="45.16622" lon="5.5771">
        <ele>1443.4</ele>
        <time>2021-10-10T11:22:25Z</time>
      </trkpt>
      <trkpt lat="45.16626" lon="5.57709">
        <ele>1443.8</ele>
        <time>2021-10-10T11:22:26Z</time>
      </trkpt>
      <trkpt lat="45.16631" lon="5.57708">
        <ele>1443.8</ele>
        <time>2021-10-10T11:22:27Z</time>
      </trkpt>
      <trkpt lat="45.16636" lon="5.57706">
        <ele>1443.8</ele>
        <time>2021-10-10T11:22:28Z</time>
      </trkpt>
      <trkpt lat="45.1664" lon="5.57705">
        <ele>1443.8</ele>
        <time>2021-10-10T11:22:29Z</time>
      </trkpt>
      <trkpt lat="45.16645" lon="5.57703">
        <ele>1444</ele>
        <time>2021-10-10T11:22:30Z</time>
      </trkpt>
      <trkpt lat="45.1665" lon="5.57701">
        <ele>1444</ele>
        <time>2021-10-10T11:22:31Z</time>
      </trkpt>
      <trkpt lat="45.16654" lon="5.57699">
        <ele>1444</ele>
        <time>2021-10-10T11:22:32Z</time>
      </trkpt>
      <trkpt lat="45.16659" lon="5.57698">
        <ele>1443.4</ele>
        <time>2021-10-10T11:22:33Z</time>
      </trkpt>
      <trkpt lat="45.16664" lon="5.57696">
        <ele>1443</ele>
        <time>2021-10-10T11:22:34Z</time>
      </trkpt>
      <trkpt lat="45.16668" lon="5.57695">
        <ele>1443</ele>
        <time>2021-10-10T11:22:35Z</time>
      </trkpt>
      <trkpt lat="45.16672" lon="5.57694">
        <ele>1443</ele>
        <time>2021-10-10T11:22:36Z</time>
      </trkpt>
      <trkpt lat="45.16677" lon="5.57693">
        <ele>1443</ele>
        <time>2021-10-10T11:22:37Z</time>
      </trkpt>
      <trkpt lat="45.16682" lon="5.57691">
        <ele>1444</ele>
        <time>2021-10-10T11:22:38Z</time>
      </trkpt>
      <trkpt lat="45.16687" lon="5.5769">
        <ele>1444</ele>
        <time>2021-10-10T11:22:39Z</time>
      </trkpt>
      <trkpt lat="45.16692" lon="5.57689">
        <ele>1444</ele>
        <time>2021-10-10T11:22:40Z</time>
      </trkpt>
      <trkpt lat="45.16697" lon="5.57689">
        <ele>1443.8</ele>
        <time>2021-10-10T11:22:41Z</time>
      </trkpt>
      <trkpt lat="45.16702" lon="5.57688">
        <ele>1444.4</ele>
        <time>2021-10-10T11:22:42Z</time>
      </trkpt>
      <trkpt lat="45.16706" lon="5.57688">
        <ele>1444.4</ele>
        <time>2021-10-10T11:22:43Z</time>
      </trkpt>
      <trkpt lat="45.16711" lon="5.57687">
        <ele>1444.4</ele>
        <time>2021-10-10T11:22:44Z</time>
      </trkpt>
      <trkpt lat="45.16715" lon="5.57687">
        <ele>1445.4</ele>
        <time>2021-10-10T11:22:45Z</time>
      </trkpt>
      <trkpt lat="45.16718" lon="5.57688">
        <ele>1445.8</ele>
        <time>2021-10-10T11:22:46Z</time>
      </trkpt>
      <trkpt lat="45.16722" lon="5.57689">
        <ele>1445.8</ele>
        <time>2021-10-10T11:22:47Z</time>
      </trkpt>
      <trkpt lat="45.16724" lon="5.5769">
        <ele>1445.8</ele>
        <time>2021-10-10T11:22:48Z</time>
      </trkpt>
      <trkpt lat="45.16727" lon="5.57692">
        <ele>1446.4</ele>
        <time>2021-10-10T11:22:49Z</time>
      </trkpt>
      <trkpt lat="45.16729" lon="5.57693">
        <ele>1447</ele>
        <time>2021-10-10T11:22:50Z</time>
      </trkpt>
      <trkpt lat="45.16732" lon="5.57695">
        <ele>1447</ele>
        <time>2021-10-10T11:22:51Z</time>
      </trkpt>
      <trkpt lat="45.16734" lon="5.57697">
        <ele>1447</ele>
        <time>2021-10-10T11:22:52Z</time>
      </trkpt>
      <trkpt lat="45.16736" lon="5.57698">
        <ele>1447.8</ele>
        <time>2021-10-10T11:22:53Z</time>
      </trkpt>
      <trkpt lat="45.16739" lon="5.577">
        <ele>1447.4</ele>
        <time>2021-10-10T11:22:54Z</time>
      </trkpt>
      <trkpt lat="45.16742" lon="5.57701">
        <ele>1447.4</ele>
        <time>2021-10-10T11:22:55Z</time>
      </trkpt>
      <trkpt lat="45.16745" lon="5.57702">
        <ele>1447.4</ele>
        <time>2021-10-10T11:22:56Z</time>
      </trkpt>
      <trkpt lat="45.16749" lon="5.57704">
        <ele>1448.4</ele>
        <time>2021-10-10T11:22:57Z</time>
      </trkpt>
      <trkpt lat="45.16752" lon="5.57705">
        <ele>1448.6</ele>
        <time>2021-10-10T11:22:58Z</time>
      </trkpt>
      <trkpt lat="45.16755" lon="5.57706">
        <ele>1448.6</ele>
        <time>2021-10-10T11:22:59Z</time>
      </trkpt>
      <trkpt lat="45.16758" lon="5.57707">
        <ele>1448.6</ele>
        <time>2021-10-10T11:23:00Z</time>
      </trkpt>
      <trkpt lat="45.16761" lon="5.57708">
        <ele>1449.6</ele>
        <time>2021-10-10T11:23:01Z</time>
      </trkpt>
      <trkpt lat="45.16764" lon="5.57708">
        <ele>1449.2</ele>
        <time>2021-10-10T11:23:02Z</time>
      </trkpt>
      <trkpt lat="45.16767" lon="5.57709">
        <ele>1449.2</ele>
        <time>2021-10-10T11:23:03Z</time>
      </trkpt>
      <trkpt lat="45.1677" lon="5.5771">
        <ele>1449.2</ele>
        <time>2021-10-10T11:23:04Z</time>
      </trkpt>
      <trkpt lat="45.16774" lon="5.57711">
        <ele>1450.2</ele>
        <time>2021-10-10T11:23:05Z</time>
      </trkpt>
      <trkpt lat="45.16777" lon="5.57712">
        <ele>1451.4</ele>
        <time>2021-10-10T11:23:06Z</time>
      </trkpt>
      <trkpt lat="45.1678" lon="5.57713">
        <ele>1451.4</ele>
        <time>2021-10-10T11:23:07Z</time>
      </trkpt>
      <trkpt lat="45.16783" lon="5.57715">
        <ele>1451.4</ele>
        <time>2021-10-10T11:23:08Z</time>
      </trkpt>
      <trkpt lat="45.16786" lon="5.57716">
        <ele>1451.4</ele>
        <time>2021-10-10T11:23:09Z</time>
      </trkpt>
      <trkpt lat="45.16789" lon="5.57718">
        <ele>1451.4</ele>
        <time>2021-10-10T11:23:10Z</time>
      </trkpt>
      <trkpt lat="45.16792" lon="5.57719">
        <ele>1451.4</ele>
        <time>2021-10-10T11:23:11Z</time>
      </trkpt>
      <trkpt lat="45.16796" lon="5.57721">
        <ele>1451.4</ele>
        <time>2021-10-10T11:23:12Z</time>
      </trkpt>
      <trkpt lat="45.16799" lon="5.57721">
        <ele>1451.4</ele>
        <time>2021-10-10T11:23:13Z</time>
      </trkpt>
      <trkpt lat="45.16801" lon="5.57723">
        <ele>1452.6</ele>
        <time>2021-10-10T11:23:14Z</time>
      </trkpt>
      <trkpt lat="45.16804" lon="5.57725">
        <ele>1452.6</ele>
        <time>2021-10-10T11:23:15Z</time>
      </trkpt>
      <trkpt lat="45.16807" lon="5.57727">
        <ele>1452.6</ele>
        <time>2021-10-10T11:23:16Z</time>
      </trkpt>
      <trkpt lat="45.1681" lon="5.57729">
        <ele>1452.6</ele>
        <time>2021-10-10T11:23:17Z</time>
      </trkpt>
      <trkpt lat="45.16812" lon="5.57731">
        <ele>1452.6</ele>
        <time>2021-10-10T11:23:18Z</time>
      </trkpt>
      <trkpt lat="45.16814" lon="5.57733">
        <ele>1452.6</ele>
        <time>2021-10-10T11:23:19Z</time>
      </trkpt>
      <trkpt lat="45.16816" lon="5.57735">
        <ele>1452.6</ele>
        <time>2021-10-10T11:23:20Z</time>
      </trkpt>
      <trkpt lat="45.16818" lon="5.57737">
        <ele>1453</ele>
        <time>2021-10-10T11:23:21Z</time>
      </trkpt>
      <trkpt lat="45.1682" lon="5.5774">
        <ele>1453.4</ele>
        <time>2021-10-10T11:23:22Z</time>
      </trkpt>
      <trkpt lat="45.16822" lon="5.57743">
        <ele>1453.4</ele>
        <time>2021-10-10T11:23:23Z</time>
      </trkpt>
      <trkpt lat="45.16824" lon="5.57746">
        <ele>1453.4</ele>
        <time>2021-10-10T11:23:24Z</time>
      </trkpt>
      <trkpt lat="45.16826" lon="5.57749">
        <ele>1454</ele>
        <time>2021-10-10T11:23:25Z</time>
      </trkpt>
      <trkpt lat="45.16827" lon="5.57752">
        <ele>1453.8</ele>
        <time>2021-10-10T11:23:26Z</time>
      </trkpt>
      <trkpt lat="45.16829" lon="5.57753">
        <ele>1453.8</ele>
        <time>2021-10-10T11:23:27Z</time>
      </trkpt>
      <trkpt lat="45.16831" lon="5.57756">
        <ele>1453.8</ele>
        <time>2021-10-10T11:23:28Z</time>
      </trkpt>
      <trkpt lat="45.16832" lon="5.57758">
        <ele>1454.8</ele>
        <time>2021-10-10T11:23:29Z</time>
      </trkpt>
      <trkpt lat="45.16833" lon="5.57761">
        <ele>1455</ele>
        <time>2021-10-10T11:23:30Z</time>
      </trkpt>
      <trkpt lat="45.16833" lon="5.57763">
        <ele>1455</ele>
        <time>2021-10-10T11:23:31Z</time>
      </trkpt>
      <trkpt lat="45.16834" lon="5.57766">
        <ele>1455</ele>
        <time>2021-10-10T11:23:32Z</time>
      </trkpt>
      <trkpt lat="45.16835" lon="5.57767">
        <ele>1456</ele>
        <time>2021-10-10T11:23:33Z</time>
      </trkpt>
      <trkpt lat="45.16836" lon="5.57771">
        <ele>1456.2</ele>
        <time>2021-10-10T11:23:34Z</time>
      </trkpt>
      <trkpt lat="45.16838" lon="5.57777">
        <ele>1456.2</ele>
        <time>2021-10-10T11:23:35Z</time>
      </trkpt>
      <trkpt lat="45.16839" lon="5.5778">
        <ele>1456.2</ele>
        <time>2021-10-10T11:23:36Z</time>
      </trkpt>
      <trkpt lat="45.16842" lon="5.57784">
        <ele>1456.2</ele>
        <time>2021-10-10T11:23:37Z</time>
      </trkpt>
      <trkpt lat="45.16844" lon="5.57787">
        <ele>1457</ele>
        <time>2021-10-10T11:23:38Z</time>
      </trkpt>
      <trkpt lat="45.16846" lon="5.5779">
        <ele>1457</ele>
        <time>2021-10-10T11:23:39Z</time>
      </trkpt>
      <trkpt lat="45.16848" lon="5.57793">
        <ele>1457</ele>
        <time>2021-10-10T11:23:40Z</time>
      </trkpt>
      <trkpt lat="45.1685" lon="5.57796">
        <ele>1457</ele>
        <time>2021-10-10T11:23:41Z</time>
      </trkpt>
      <trkpt lat="45.16852" lon="5.57797">
        <ele>1457</ele>
        <time>2021-10-10T11:23:42Z</time>
      </trkpt>
      <trkpt lat="45.16855" lon="5.57798">
        <ele>1457</ele>
        <time>2021-10-10T11:23:43Z</time>
      </trkpt>
      <trkpt lat="45.16857" lon="5.57799">
        <ele>1457</ele>
        <time>2021-10-10T11:23:44Z</time>
      </trkpt>
      <trkpt lat="45.16859" lon="5.57801">
        <ele>1457.6</ele>
        <time>2021-10-10T11:23:45Z</time>
      </trkpt>
      <trkpt lat="45.16861" lon="5.57802">
        <ele>1457.4</ele>
        <time>2021-10-10T11:23:46Z</time>
      </trkpt>
      <trkpt lat="45.16864" lon="5.57803">
        <ele>1457.4</ele>
        <time>2021-10-10T11:23:47Z</time>
      </trkpt>
      <trkpt lat="45.16866" lon="5.57804">
        <ele>1457.4</ele>
        <time>2021-10-10T11:23:48Z</time>
      </trkpt>
      <trkpt lat="45.16868" lon="5.57805">
        <ele>1457.4</ele>
        <time>2021-10-10T11:23:49Z</time>
      </trkpt>
      <trkpt lat="45.16871" lon="5.57805">
        <ele>1457.8</ele>
        <time>2021-10-10T11:23:50Z</time>
      </trkpt>
      <trkpt lat="45.16873" lon="5.57805">
        <ele>1457.8</ele>
        <time>2021-10-10T11:23:51Z</time>
      </trkpt>
      <trkpt lat="45.16875" lon="5.57805">
        <ele>1457.8</ele>
        <time>2021-10-10T11:23:52Z</time>
      </trkpt>
      <trkpt lat="45.16878" lon="5.57805">
        <ele>1458.8</ele>
        <time>2021-10-10T11:23:53Z</time>
      </trkpt>
      <trkpt lat="45.1688" lon="5.57804">
        <ele>1459</ele>
        <time>2021-10-10T11:23:54Z</time>
      </trkpt>
      <trkpt lat="45.16883" lon="5.57803">
        <ele>1459</ele>
        <time>2021-10-10T11:23:55Z</time>
      </trkpt>
      <trkpt lat="45.16885" lon="5.57804">
        <ele>1459</ele>
        <time>2021-10-10T11:23:56Z</time>
      </trkpt>
      <trkpt lat="45.16888" lon="5.57803">
        <ele>1459.6</ele>
        <time>2021-10-10T11:23:57Z</time>
      </trkpt>
      <trkpt lat="45.1689" lon="5.57803">
        <ele>1460.2</ele>
        <time>2021-10-10T11:23:58Z</time>
      </trkpt>
      <trkpt lat="45.16892" lon="5.57803">
        <ele>1460.2</ele>
        <time>2021-10-10T11:23:59Z</time>
      </trkpt>
      <trkpt lat="45.16895" lon="5.57802">
        <ele>1460.2</ele>
        <time>2021-10-10T11:24:00Z</time>
      </trkpt>
      <trkpt lat="45.16897" lon="5.57802">
        <ele>1460.8</ele>
        <time>2021-10-10T11:24:01Z</time>
      </trkpt>
      <trkpt lat="45.16899" lon="5.57802">
        <ele>1461.4</ele>
        <time>2021-10-10T11:24:02Z</time>
      </trkpt>
      <trkpt lat="45.16901" lon="5.57803">
        <ele>1461.4</ele>
        <time>2021-10-10T11:24:03Z</time>
      </trkpt>
      <trkpt lat="45.16903" lon="5.57803">
        <ele>1461.4</ele>
        <time>2021-10-10T11:24:04Z</time>
      </trkpt>
      <trkpt lat="45.16905" lon="5.57804">
        <ele>1462.2</ele>
        <time>2021-10-10T11:24:05Z</time>
      </trkpt>
      <trkpt lat="45.16907" lon="5.57805">
        <ele>1462.4</ele>
        <time>2021-10-10T11:24:06Z</time>
      </trkpt>
      <trkpt lat="45.16908" lon="5.57806">
        <ele>1462.4</ele>
        <time>2021-10-10T11:24:07Z</time>
      </trkpt>
      <trkpt lat="45.1691" lon="5.57808">
        <ele>1462.4</ele>
        <time>2021-10-10T11:24:08Z</time>
      </trkpt>
      <trkpt lat="45.16912" lon="5.57809">
        <ele>1462.4</ele>
        <time>2021-10-10T11:24:09Z</time>
      </trkpt>
      <trkpt lat="45.16915" lon="5.5781">
        <ele>1462.8</ele>
        <time>2021-10-10T11:24:10Z</time>
      </trkpt>
      <trkpt lat="45.16917" lon="5.57811">
        <ele>1462.8</ele>
        <time>2021-10-10T11:24:11Z</time>
      </trkpt>
      <trkpt lat="45.16919" lon="5.57812">
        <ele>1462.8</ele>
        <time>2021-10-10T11:24:12Z</time>
      </trkpt>
      <trkpt lat="45.16922" lon="5.57813">
        <ele>1462.8</ele>
        <time>2021-10-10T11:24:13Z</time>
      </trkpt>
      <trkpt lat="45.16924" lon="5.57814">
        <ele>1463.4</ele>
        <time>2021-10-10T11:24:14Z</time>
      </trkpt>
      <trkpt lat="45.16926" lon="5.57815">
        <ele>1463.4</ele>
        <time>2021-10-10T11:24:15Z</time>
      </trkpt>
      <trkpt lat="45.16928" lon="5.57816">
        <ele>1463.4</ele>
        <time>2021-10-10T11:24:16Z</time>
      </trkpt>
      <trkpt lat="45.1693" lon="5.57816">
        <ele>1463.4</ele>
        <time>2021-10-10T11:24:17Z</time>
      </trkpt>
      <trkpt lat="45.16933" lon="5.57816">
        <ele>1463.4</ele>
        <time>2021-10-10T11:24:18Z</time>
      </trkpt>
      <trkpt lat="45.16935" lon="5.57816">
        <ele>1463.4</ele>
        <time>2021-10-10T11:24:19Z</time>
      </trkpt>
      <trkpt lat="45.16938" lon="5.57815">
        <ele>1463.4</ele>
        <time>2021-10-10T11:24:20Z</time>
      </trkpt>
      <trkpt lat="45.1694" lon="5.57816">
        <ele>1463.4</ele>
        <time>2021-10-10T11:24:21Z</time>
      </trkpt>
      <trkpt lat="45.16942" lon="5.57816">
        <ele>1463.4</ele>
        <time>2021-10-10T11:24:22Z</time>
      </trkpt>
      <trkpt lat="45.16945" lon="5.57815">
        <ele>1463.4</ele>
        <time>2021-10-10T11:24:23Z</time>
      </trkpt>
      <trkpt lat="45.16948" lon="5.57814">
        <ele>1463.4</ele>
        <time>2021-10-10T11:24:24Z</time>
      </trkpt>
      <trkpt lat="45.16951" lon="5.57813">
        <ele>1463.8</ele>
        <time>2021-10-10T11:24:25Z</time>
      </trkpt>
      <trkpt lat="45.16954" lon="5.57812">
        <ele>1463.8</ele>
        <time>2021-10-10T11:24:26Z</time>
      </trkpt>
      <trkpt lat="45.16957" lon="5.57811">
        <ele>1463.8</ele>
        <time>2021-10-10T11:24:27Z</time>
      </trkpt>
      <trkpt lat="45.1696" lon="5.57809">
        <ele>1463.8</ele>
        <time>2021-10-10T11:24:28Z</time>
      </trkpt>
      <trkpt lat="45.16963" lon="5.57808">
        <ele>1463.6</ele>
        <time>2021-10-10T11:24:29Z</time>
      </trkpt>
      <trkpt lat="45.16967" lon="5.57806">
        <ele>1463.8</ele>
        <time>2021-10-10T11:24:30Z</time>
      </trkpt>
      <trkpt lat="45.1697" lon="5.57804">
        <ele>1463.8</ele>
        <time>2021-10-10T11:24:31Z</time>
      </trkpt>
      <trkpt lat="45.16974" lon="5.57802">
        <ele>1463.8</ele>
        <time>2021-10-10T11:24:32Z</time>
      </trkpt>
      <trkpt lat="45.16978" lon="5.57802">
        <ele>1463.4</ele>
        <time>2021-10-10T11:24:33Z</time>
      </trkpt>
      <trkpt lat="45.16982" lon="5.57801">
        <ele>1463.6</ele>
        <time>2021-10-10T11:24:34Z</time>
      </trkpt>
      <trkpt lat="45.16986" lon="5.57801">
        <ele>1463.6</ele>
        <time>2021-10-10T11:24:35Z</time>
      </trkpt>
      <trkpt lat="45.1699" lon="5.57801">
        <ele>1463.6</ele>
        <time>2021-10-10T11:24:36Z</time>
      </trkpt>
      <trkpt lat="45.16994" lon="5.57801">
        <ele>1463</ele>
        <time>2021-10-10T11:24:37Z</time>
      </trkpt>
      <trkpt lat="45.16998" lon="5.57801">
        <ele>1462.6</ele>
        <time>2021-10-10T11:24:38Z</time>
      </trkpt>
      <trkpt lat="45.17002" lon="5.57801">
        <ele>1462.6</ele>
        <time>2021-10-10T11:24:39Z</time>
      </trkpt>
      <trkpt lat="45.17007" lon="5.57802">
        <ele>1462.6</ele>
        <time>2021-10-10T11:24:40Z</time>
      </trkpt>
      <trkpt lat="45.17013" lon="5.57802">
        <ele>1461.6</ele>
        <time>2021-10-10T11:24:41Z</time>
      </trkpt>
      <trkpt lat="45.17018" lon="5.57803">
        <ele>1460.8</ele>
        <time>2021-10-10T11:24:42Z</time>
      </trkpt>
      <trkpt lat="45.17023" lon="5.57804">
        <ele>1460.8</ele>
        <time>2021-10-10T11:24:43Z</time>
      </trkpt>
      <trkpt lat="45.17028" lon="5.57805">
        <ele>1460.8</ele>
        <time>2021-10-10T11:24:44Z</time>
      </trkpt>
      <trkpt lat="45.17034" lon="5.57807">
        <ele>1460.4</ele>
        <time>2021-10-10T11:24:45Z</time>
      </trkpt>
      <trkpt lat="45.1704" lon="5.5781">
        <ele>1460.2</ele>
        <time>2021-10-10T11:24:46Z</time>
      </trkpt>
      <trkpt lat="45.17046" lon="5.57811">
        <ele>1460.2</ele>
        <time>2021-10-10T11:24:47Z</time>
      </trkpt>
      <trkpt lat="45.17052" lon="5.57814">
        <ele>1460.2</ele>
        <time>2021-10-10T11:24:48Z</time>
      </trkpt>
      <trkpt lat="45.17057" lon="5.57816">
        <ele>1459.2</ele>
        <time>2021-10-10T11:24:49Z</time>
      </trkpt>
      <trkpt lat="45.17064" lon="5.57818">
        <ele>1458.8</ele>
        <time>2021-10-10T11:24:50Z</time>
      </trkpt>
      <trkpt lat="45.1707" lon="5.57821">
        <ele>1458.8</ele>
        <time>2021-10-10T11:24:51Z</time>
      </trkpt>
      <trkpt lat="45.17076" lon="5.57823">
        <ele>1458.8</ele>
        <time>2021-10-10T11:24:52Z</time>
      </trkpt>
      <trkpt lat="45.17082" lon="5.57827">
        <ele>1458.8</ele>
        <time>2021-10-10T11:24:53Z</time>
      </trkpt>
      <trkpt lat="45.17088" lon="5.5783">
        <ele>1457.8</ele>
        <time>2021-10-10T11:24:54Z</time>
      </trkpt>
      <trkpt lat="45.17094" lon="5.57833">
        <ele>1457.8</ele>
        <time>2021-10-10T11:24:55Z</time>
      </trkpt>
      <trkpt lat="45.171" lon="5.57836">
        <ele>1457.8</ele>
        <time>2021-10-10T11:24:56Z</time>
      </trkpt>
      <trkpt lat="45.17106" lon="5.57839">
        <ele>1457.8</ele>
        <time>2021-10-10T11:24:57Z</time>
      </trkpt>
      <trkpt lat="45.17112" lon="5.57841">
        <ele>1456.8</ele>
        <time>2021-10-10T11:24:58Z</time>
      </trkpt>
      <trkpt lat="45.17119" lon="5.57841">
        <ele>1456.8</ele>
        <time>2021-10-10T11:24:59Z</time>
      </trkpt>
      <trkpt lat="45.17124" lon="5.5784">
        <ele>1456.8</ele>
        <time>2021-10-10T11:25:00Z</time>
      </trkpt>
      <trkpt lat="45.1713" lon="5.57838">
        <ele>1456.8</ele>
        <time>2021-10-10T11:25:01Z</time>
      </trkpt>
      <trkpt lat="45.17137" lon="5.57836">
        <ele>1456.2</ele>
        <time>2021-10-10T11:25:02Z</time>
      </trkpt>
      <trkpt lat="45.17143" lon="5.57835">
        <ele>1456.2</ele>
        <time>2021-10-10T11:25:03Z</time>
      </trkpt>
      <trkpt lat="45.1715" lon="5.57835">
        <ele>1456.2</ele>
        <time>2021-10-10T11:25:04Z</time>
      </trkpt>
      <trkpt lat="45.17156" lon="5.57835">
        <ele>1455.4</ele>
        <time>2021-10-10T11:25:05Z</time>
      </trkpt>
      <trkpt lat="45.17163" lon="5.57836">
        <ele>1455.4</ele>
        <time>2021-10-10T11:25:06Z</time>
      </trkpt>
      <trkpt lat="45.17169" lon="5.57838">
        <ele>1455.4</ele>
        <time>2021-10-10T11:25:07Z</time>
      </trkpt>
      <trkpt lat="45.17175" lon="5.57839">
        <ele>1455.4</ele>
        <time>2021-10-10T11:25:08Z</time>
      </trkpt>
      <trkpt lat="45.17181" lon="5.5784">
        <ele>1455.4</ele>
        <time>2021-10-10T11:25:09Z</time>
      </trkpt>
      <trkpt lat="45.17187" lon="5.57839">
        <ele>1456.4</ele>
        <time>2021-10-10T11:25:10Z</time>
      </trkpt>
      <trkpt lat="45.17194" lon="5.57838">
        <ele>1456.4</ele>
        <time>2021-10-10T11:25:11Z</time>
      </trkpt>
      <trkpt lat="45.17199" lon="5.57838">
        <ele>1456.4</ele>
        <time>2021-10-10T11:25:12Z</time>
      </trkpt>
      <trkpt lat="45.17204" lon="5.57837">
        <ele>1456.4</ele>
        <time>2021-10-10T11:25:13Z</time>
      </trkpt>
      <trkpt lat="45.17209" lon="5.57837">
        <ele>1456.8</ele>
        <time>2021-10-10T11:25:14Z</time>
      </trkpt>
      <trkpt lat="45.17214" lon="5.57837">
        <ele>1456.8</ele>
        <time>2021-10-10T11:25:15Z</time>
      </trkpt>
      <trkpt lat="45.1722" lon="5.57838">
        <ele>1456.8</ele>
        <time>2021-10-10T11:25:16Z</time>
      </trkpt>
      <trkpt lat="45.17225" lon="5.57839">
        <ele>1457.8</ele>
        <time>2021-10-10T11:25:17Z</time>
      </trkpt>
      <trkpt lat="45.1723" lon="5.5784">
        <ele>1458</ele>
        <time>2021-10-10T11:25:18Z</time>
      </trkpt>
      <trkpt lat="45.17234" lon="5.57842">
        <ele>1458</ele>
        <time>2021-10-10T11:25:19Z</time>
      </trkpt>
      <trkpt lat="45.17239" lon="5.57842">
        <ele>1458</ele>
        <time>2021-10-10T11:25:20Z</time>
      </trkpt>
      <trkpt lat="45.17244" lon="5.57843">
        <ele>1458.6</ele>
        <time>2021-10-10T11:25:21Z</time>
      </trkpt>
      <trkpt lat="45.17248" lon="5.57842">
        <ele>1459</ele>
        <time>2021-10-10T11:25:22Z</time>
      </trkpt>
      <trkpt lat="45.17253" lon="5.57841">
        <ele>1459</ele>
        <time>2021-10-10T11:25:23Z</time>
      </trkpt>
      <trkpt lat="45.17258" lon="5.5784">
        <ele>1459</ele>
        <time>2021-10-10T11:25:24Z</time>
      </trkpt>
      <trkpt lat="45.17262" lon="5.57838">
        <ele>1459</ele>
        <time>2021-10-10T11:25:25Z</time>
      </trkpt>
      <trkpt lat="45.17267" lon="5.57836">
        <ele>1460</ele>
        <time>2021-10-10T11:25:26Z</time>
      </trkpt>
      <trkpt lat="45.17271" lon="5.57835">
        <ele>1460</ele>
        <time>2021-10-10T11:25:27Z</time>
      </trkpt>
      <trkpt lat="45.17276" lon="5.57832">
        <ele>1460</ele>
        <time>2021-10-10T11:25:28Z</time>
      </trkpt>
      <trkpt lat="45.1728" lon="5.5783">
        <ele>1460</ele>
        <time>2021-10-10T11:25:29Z</time>
      </trkpt>
      <trkpt lat="45.17284" lon="5.57828">
        <ele>1459.8</ele>
        <time>2021-10-10T11:25:30Z</time>
      </trkpt>
      <trkpt lat="45.17289" lon="5.57825">
        <ele>1459.8</ele>
        <time>2021-10-10T11:25:31Z</time>
      </trkpt>
      <trkpt lat="45.17293" lon="5.57823">
        <ele>1459.8</ele>
        <time>2021-10-10T11:25:32Z</time>
      </trkpt>
      <trkpt lat="45.17297" lon="5.57821">
        <ele>1460.2</ele>
        <time>2021-10-10T11:25:33Z</time>
      </trkpt>
      <trkpt lat="45.17301" lon="5.57818">
        <ele>1460</ele>
        <time>2021-10-10T11:25:34Z</time>
      </trkpt>
      <trkpt lat="45.17305" lon="5.57814">
        <ele>1460</ele>
        <time>2021-10-10T11:25:35Z</time>
      </trkpt>
      <trkpt lat="45.17309" lon="5.57811">
        <ele>1460</ele>
        <time>2021-10-10T11:25:36Z</time>
      </trkpt>
      <trkpt lat="45.17312" lon="5.57807">
        <ele>1460</ele>
        <time>2021-10-10T11:25:37Z</time>
      </trkpt>
      <trkpt lat="45.17315" lon="5.57803">
        <ele>1461.6</ele>
        <time>2021-10-10T11:25:38Z</time>
      </trkpt>
      <trkpt lat="45.17318" lon="5.578">
        <ele>1461.6</ele>
        <time>2021-10-10T11:25:39Z</time>
      </trkpt>
      <trkpt lat="45.1732" lon="5.57797">
        <ele>1461.6</ele>
        <time>2021-10-10T11:25:40Z</time>
      </trkpt>
      <trkpt lat="45.17323" lon="5.57793">
        <ele>1461.6</ele>
        <time>2021-10-10T11:25:41Z</time>
      </trkpt>
      <trkpt lat="45.17325" lon="5.5779">
        <ele>1461.6</ele>
        <time>2021-10-10T11:25:42Z</time>
      </trkpt>
      <trkpt lat="45.17328" lon="5.57787">
        <ele>1461.6</ele>
        <time>2021-10-10T11:25:43Z</time>
      </trkpt>
      <trkpt lat="45.17331" lon="5.57784">
        <ele>1461.6</ele>
        <time>2021-10-10T11:25:44Z</time>
      </trkpt>
      <trkpt lat="45.17333" lon="5.57781">
        <ele>1461.6</ele>
        <time>2021-10-10T11:25:45Z</time>
      </trkpt>
      <trkpt lat="45.17336" lon="5.57778">
        <ele>1461</ele>
        <time>2021-10-10T11:25:46Z</time>
      </trkpt>
      <trkpt lat="45.17339" lon="5.57775">
        <ele>1461</ele>
        <time>2021-10-10T11:25:47Z</time>
      </trkpt>
      <trkpt lat="45.17341" lon="5.57772">
        <ele>1461</ele>
        <time>2021-10-10T11:25:48Z</time>
      </trkpt>
      <trkpt lat="45.17344" lon="5.57768">
        <ele>1461.2</ele>
        <time>2021-10-10T11:25:49Z</time>
      </trkpt>
      <trkpt lat="45.17346" lon="5.57765">
        <ele>1461.4</ele>
        <time>2021-10-10T11:25:50Z</time>
      </trkpt>
      <trkpt lat="45.17348" lon="5.57762">
        <ele>1461.4</ele>
        <time>2021-10-10T11:25:51Z</time>
      </trkpt>
      <trkpt lat="45.1735" lon="5.57758">
        <ele>1461.4</ele>
        <time>2021-10-10T11:25:52Z</time>
      </trkpt>
      <trkpt lat="45.17352" lon="5.57754">
        <ele>1461.4</ele>
        <time>2021-10-10T11:25:53Z</time>
      </trkpt>
      <trkpt lat="45.17354" lon="5.5775">
        <ele>1461.4</ele>
        <time>2021-10-10T11:25:54Z</time>
      </trkpt>
      <trkpt lat="45.17355" lon="5.57746">
        <ele>1461.4</ele>
        <time>2021-10-10T11:25:55Z</time>
      </trkpt>
      <trkpt lat="45.17356" lon="5.57742">
        <ele>1461.4</ele>
        <time>2021-10-10T11:25:56Z</time>
      </trkpt>
      <trkpt lat="45.17358" lon="5.57737">
        <ele>1461.4</ele>
        <time>2021-10-10T11:25:57Z</time>
      </trkpt>
      <trkpt lat="45.17358" lon="5.57732">
        <ele>1461.4</ele>
        <time>2021-10-10T11:25:58Z</time>
      </trkpt>
      <trkpt lat="45.17359" lon="5.57726">
        <ele>1461.4</ele>
        <time>2021-10-10T11:25:59Z</time>
      </trkpt>
      <trkpt lat="45.1736" lon="5.57721">
        <ele>1461.4</ele>
        <time>2021-10-10T11:26:00Z</time>
      </trkpt>
      <trkpt lat="45.1736" lon="5.57715">
        <ele>1462</ele>
        <time>2021-10-10T11:26:01Z</time>
      </trkpt>
      <trkpt lat="45.1736" lon="5.57709">
        <ele>1461</ele>
        <time>2021-10-10T11:26:02Z</time>
      </trkpt>
      <trkpt lat="45.17359" lon="5.57703">
        <ele>1461</ele>
        <time>2021-10-10T11:26:03Z</time>
      </trkpt>
      <trkpt lat="45.17359" lon="5.57696">
        <ele>1461</ele>
        <time>2021-10-10T11:26:04Z</time>
      </trkpt>
      <trkpt lat="45.17358" lon="5.5769">
        <ele>1461</ele>
        <time>2021-10-10T11:26:05Z</time>
      </trkpt>
      <trkpt lat="45.17358" lon="5.57684">
        <ele>1461.8</ele>
        <time>2021-10-10T11:26:06Z</time>
      </trkpt>
      <trkpt lat="45.17358" lon="5.57679">
        <ele>1461.8</ele>
        <time>2021-10-10T11:26:07Z</time>
      </trkpt>
      <trkpt lat="45.17357" lon="5.57673">
        <ele>1461.8</ele>
        <time>2021-10-10T11:26:08Z</time>
      </trkpt>
      <trkpt lat="45.17357" lon="5.57666">
        <ele>1461.8</ele>
        <time>2021-10-10T11:26:09Z</time>
      </trkpt>
      <trkpt lat="45.17357" lon="5.5766">
        <ele>1461.2</ele>
        <time>2021-10-10T11:26:10Z</time>
      </trkpt>
      <trkpt lat="45.17357" lon="5.57654">
        <ele>1461.2</ele>
        <time>2021-10-10T11:26:11Z</time>
      </trkpt>
      <trkpt lat="45.17357" lon="5.57647">
        <ele>1461.2</ele>
        <time>2021-10-10T11:26:12Z</time>
      </trkpt>
      <trkpt lat="45.17357" lon="5.5764">
        <ele>1460.4</ele>
        <time>2021-10-10T11:26:13Z</time>
      </trkpt>
      <trkpt lat="45.17358" lon="5.57634">
        <ele>1460.4</ele>
        <time>2021-10-10T11:26:14Z</time>
      </trkpt>
      <trkpt lat="45.17358" lon="5.57627">
        <ele>1460.4</ele>
        <time>2021-10-10T11:26:15Z</time>
      </trkpt>
      <trkpt lat="45.17359" lon="5.5762">
        <ele>1460.4</ele>
        <time>2021-10-10T11:26:16Z</time>
      </trkpt>
      <trkpt lat="45.17359" lon="5.57613">
        <ele>1460.4</ele>
        <time>2021-10-10T11:26:17Z</time>
      </trkpt>
      <trkpt lat="45.1736" lon="5.57607">
        <ele>1460.6</ele>
        <time>2021-10-10T11:26:18Z</time>
      </trkpt>
      <trkpt lat="45.17361" lon="5.576">
        <ele>1460.6</ele>
        <time>2021-10-10T11:26:19Z</time>
      </trkpt>
      <trkpt lat="45.17362" lon="5.57594">
        <ele>1460.6</ele>
        <time>2021-10-10T11:26:20Z</time>
      </trkpt>
      <trkpt lat="45.17362" lon="5.57587">
        <ele>1460.6</ele>
        <time>2021-10-10T11:26:21Z</time>
      </trkpt>
      <trkpt lat="45.17363" lon="5.57581">
        <ele>1461.4</ele>
        <time>2021-10-10T11:26:22Z</time>
      </trkpt>
      <trkpt lat="45.17365" lon="5.57575">
        <ele>1461.4</ele>
        <time>2021-10-10T11:26:23Z</time>
      </trkpt>
      <trkpt lat="45.17366" lon="5.5757">
        <ele>1461.4</ele>
        <time>2021-10-10T11:26:24Z</time>
      </trkpt>
      <trkpt lat="45.17367" lon="5.57565">
        <ele>1461.4</ele>
        <time>2021-10-10T11:26:25Z</time>
      </trkpt>
      <trkpt lat="45.17368" lon="5.5756">
        <ele>1461.8</ele>
        <time>2021-10-10T11:26:26Z</time>
      </trkpt>
      <trkpt lat="45.1737" lon="5.57555">
        <ele>1461.8</ele>
        <time>2021-10-10T11:26:27Z</time>
      </trkpt>
      <trkpt lat="45.17371" lon="5.5755">
        <ele>1461.8</ele>
        <time>2021-10-10T11:26:28Z</time>
      </trkpt>
      <trkpt lat="45.17373" lon="5.57546">
        <ele>1461.8</ele>
        <time>2021-10-10T11:26:29Z</time>
      </trkpt>
      <trkpt lat="45.17374" lon="5.57541">
        <ele>1462.6</ele>
        <time>2021-10-10T11:26:30Z</time>
      </trkpt>
      <trkpt lat="45.17375" lon="5.57537">
        <ele>1462.6</ele>
        <time>2021-10-10T11:26:31Z</time>
      </trkpt>
      <trkpt lat="45.17376" lon="5.57533">
        <ele>1462.6</ele>
        <time>2021-10-10T11:26:32Z</time>
      </trkpt>
      <trkpt lat="45.17377" lon="5.5753">
        <ele>1462.8</ele>
        <time>2021-10-10T11:26:33Z</time>
      </trkpt>
      <trkpt lat="45.17378" lon="5.57526">
        <ele>1462.8</ele>
        <time>2021-10-10T11:26:34Z</time>
      </trkpt>
      <trkpt lat="45.17379" lon="5.57523">
        <ele>1462.8</ele>
        <time>2021-10-10T11:26:35Z</time>
      </trkpt>
      <trkpt lat="45.1738" lon="5.57519">
        <ele>1462.8</ele>
        <time>2021-10-10T11:26:36Z</time>
      </trkpt>
      <trkpt lat="45.17381" lon="5.57515">
        <ele>1462.8</ele>
        <time>2021-10-10T11:26:37Z</time>
      </trkpt>
      <trkpt lat="45.17382" lon="5.57511">
        <ele>1463.4</ele>
        <time>2021-10-10T11:26:38Z</time>
      </trkpt>
      <trkpt lat="45.17383" lon="5.57507">
        <ele>1463.4</ele>
        <time>2021-10-10T11:26:39Z</time>
      </trkpt>
      <trkpt lat="45.17384" lon="5.57504">
        <ele>1463.4</ele>
        <time>2021-10-10T11:26:40Z</time>
      </trkpt>
      <trkpt lat="45.17385" lon="5.575">
        <ele>1463.4</ele>
        <time>2021-10-10T11:26:41Z</time>
      </trkpt>
      <trkpt lat="45.17386" lon="5.57497">
        <ele>1463.4</ele>
        <time>2021-10-10T11:26:42Z</time>
      </trkpt>
      <trkpt lat="45.17387" lon="5.57493">
        <ele>1463.4</ele>
        <time>2021-10-10T11:26:43Z</time>
      </trkpt>
      <trkpt lat="45.17388" lon="5.57489">
        <ele>1463.4</ele>
        <time>2021-10-10T11:26:44Z</time>
      </trkpt>
      <trkpt lat="45.17389" lon="5.57486">
        <ele>1464</ele>
        <time>2021-10-10T11:26:45Z</time>
      </trkpt>
      <trkpt lat="45.1739" lon="5.57482">
        <ele>1464.6</ele>
        <time>2021-10-10T11:26:46Z</time>
      </trkpt>
      <trkpt lat="45.1739" lon="5.57478">
        <ele>1464.6</ele>
        <time>2021-10-10T11:26:47Z</time>
      </trkpt>
      <trkpt lat="45.17391" lon="5.57475">
        <ele>1464.6</ele>
        <time>2021-10-10T11:26:48Z</time>
      </trkpt>
      <trkpt lat="45.17392" lon="5.57471">
        <ele>1464.2</ele>
        <time>2021-10-10T11:26:49Z</time>
      </trkpt>
      <trkpt lat="45.17393" lon="5.57467">
        <ele>1464.2</ele>
        <time>2021-10-10T11:26:50Z</time>
      </trkpt>
      <trkpt lat="45.17393" lon="5.57463">
        <ele>1464.2</ele>
        <time>2021-10-10T11:26:51Z</time>
      </trkpt>
      <trkpt lat="45.17394" lon="5.57459">
        <ele>1464.2</ele>
        <time>2021-10-10T11:26:52Z</time>
      </trkpt>
      <trkpt lat="45.17394" lon="5.57456">
        <ele>1465.2</ele>
        <time>2021-10-10T11:26:53Z</time>
      </trkpt>
      <trkpt lat="45.17394" lon="5.57452">
        <ele>1465.6</ele>
        <time>2021-10-10T11:26:54Z</time>
      </trkpt>
      <trkpt lat="45.17394" lon="5.57448">
        <ele>1465.6</ele>
        <time>2021-10-10T11:26:55Z</time>
      </trkpt>
      <trkpt lat="45.17395" lon="5.57444">
        <ele>1465.6</ele>
        <time>2021-10-10T11:26:56Z</time>
      </trkpt>
      <trkpt lat="45.17395" lon="5.5744">
        <ele>1466.2</ele>
        <time>2021-10-10T11:26:57Z</time>
      </trkpt>
      <trkpt lat="45.17395" lon="5.57436">
        <ele>1466.8</ele>
        <time>2021-10-10T11:26:58Z</time>
      </trkpt>
      <trkpt lat="45.17395" lon="5.57432">
        <ele>1466.8</ele>
        <time>2021-10-10T11:26:59Z</time>
      </trkpt>
      <trkpt lat="45.17396" lon="5.57428">
        <ele>1466.8</ele>
        <time>2021-10-10T11:27:00Z</time>
      </trkpt>
      <trkpt lat="45.17396" lon="5.57424">
        <ele>1466.8</ele>
        <time>2021-10-10T11:27:01Z</time>
      </trkpt>
      <trkpt lat="45.17396" lon="5.5742">
        <ele>1466.4</ele>
        <time>2021-10-10T11:27:02Z</time>
      </trkpt>
      <trkpt lat="45.17396" lon="5.57416">
        <ele>1466.4</ele>
        <time>2021-10-10T11:27:03Z</time>
      </trkpt>
      <trkpt lat="45.17396" lon="5.57412">
        <ele>1466.4</ele>
        <time>2021-10-10T11:27:04Z</time>
      </trkpt>
      <trkpt lat="45.17396" lon="5.57408">
        <ele>1466.4</ele>
        <time>2021-10-10T11:27:05Z</time>
      </trkpt>
      <trkpt lat="45.17397" lon="5.57404">
        <ele>1467.6</ele>
        <time>2021-10-10T11:27:06Z</time>
      </trkpt>
      <trkpt lat="45.17396" lon="5.574">
        <ele>1467.6</ele>
        <time>2021-10-10T11:27:07Z</time>
      </trkpt>
      <trkpt lat="45.17396" lon="5.57396">
        <ele>1467.6</ele>
        <time>2021-10-10T11:27:08Z</time>
      </trkpt>
      <trkpt lat="45.17396" lon="5.57392">
        <ele>1467.8</ele>
        <time>2021-10-10T11:27:09Z</time>
      </trkpt>
      <trkpt lat="45.17396" lon="5.57388">
        <ele>1468.4</ele>
        <time>2021-10-10T11:27:10Z</time>
      </trkpt>
      <trkpt lat="45.17396" lon="5.57384">
        <ele>1468.4</ele>
        <time>2021-10-10T11:27:11Z</time>
      </trkpt>
      <trkpt lat="45.17395" lon="5.5738">
        <ele>1468.4</ele>
        <time>2021-10-10T11:27:12Z</time>
      </trkpt>
      <trkpt lat="45.17395" lon="5.57376">
        <ele>1468.4</ele>
        <time>2021-10-10T11:27:13Z</time>
      </trkpt>
      <trkpt lat="45.17395" lon="5.57372">
        <ele>1468.6</ele>
        <time>2021-10-10T11:27:14Z</time>
      </trkpt>
      <trkpt lat="45.17395" lon="5.57368">
        <ele>1468.6</ele>
        <time>2021-10-10T11:27:15Z</time>
      </trkpt>
      <trkpt lat="45.17395" lon="5.57364">
        <ele>1468.6</ele>
        <time>2021-10-10T11:27:16Z</time>
      </trkpt>
      <trkpt lat="45.17395" lon="5.5736">
        <ele>1468.6</ele>
        <time>2021-10-10T11:27:17Z</time>
      </trkpt>
      <trkpt lat="45.17395" lon="5.57356">
        <ele>1469</ele>
        <time>2021-10-10T11:27:18Z</time>
      </trkpt>
      <trkpt lat="45.17395" lon="5.57352">
        <ele>1469</ele>
        <time>2021-10-10T11:27:19Z</time>
      </trkpt>
      <trkpt lat="45.17395" lon="5.57348">
        <ele>1469</ele>
        <time>2021-10-10T11:27:20Z</time>
      </trkpt>
      <trkpt lat="45.17395" lon="5.57344">
        <ele>1469</ele>
        <time>2021-10-10T11:27:21Z</time>
      </trkpt>
      <trkpt lat="45.17395" lon="5.5734">
        <ele>1469.8</ele>
        <time>2021-10-10T11:27:22Z</time>
      </trkpt>
      <trkpt lat="45.17395" lon="5.57337">
        <ele>1469.8</ele>
        <time>2021-10-10T11:27:23Z</time>
      </trkpt>
      <trkpt lat="45.17395" lon="5.57333">
        <ele>1469.8</ele>
        <time>2021-10-10T11:27:24Z</time>
      </trkpt>
      <trkpt lat="45.17395" lon="5.57329">
        <ele>1470</ele>
        <time>2021-10-10T11:27:25Z</time>
      </trkpt>
      <trkpt lat="45.17396" lon="5.57325">
        <ele>1470.2</ele>
        <time>2021-10-10T11:27:26Z</time>
      </trkpt>
      <trkpt lat="45.17396" lon="5.57321">
        <ele>1470.2</ele>
        <time>2021-10-10T11:27:27Z</time>
      </trkpt>
      <trkpt lat="45.17397" lon="5.57318">
        <ele>1470.2</ele>
        <time>2021-10-10T11:27:28Z</time>
      </trkpt>
      <trkpt lat="45.17397" lon="5.57314">
        <ele>1471.2</ele>
        <time>2021-10-10T11:27:29Z</time>
      </trkpt>
      <trkpt lat="45.17397" lon="5.5731">
        <ele>1471.2</ele>
        <time>2021-10-10T11:27:30Z</time>
      </trkpt>
      <trkpt lat="45.17397" lon="5.57306">
        <ele>1471.2</ele>
        <time>2021-10-10T11:27:31Z</time>
      </trkpt>
      <trkpt lat="45.17396" lon="5.57302">
        <ele>1471.2</ele>
        <time>2021-10-10T11:27:32Z</time>
      </trkpt>
      <trkpt lat="45.17396" lon="5.57299">
        <ele>1472</ele>
        <time>2021-10-10T11:27:33Z</time>
      </trkpt>
      <trkpt lat="45.17396" lon="5.57295">
        <ele>1472</ele>
        <time>2021-10-10T11:27:34Z</time>
      </trkpt>
      <trkpt lat="45.17396" lon="5.57291">
        <ele>1472</ele>
        <time>2021-10-10T11:27:35Z</time>
      </trkpt>
      <trkpt lat="45.17395" lon="5.57288">
        <ele>1472</ele>
        <time>2021-10-10T11:27:36Z</time>
      </trkpt>
      <trkpt lat="45.17395" lon="5.57286">
        <ele>1472</ele>
        <time>2021-10-10T11:27:37Z</time>
      </trkpt>
      <trkpt lat="45.17395" lon="5.57284">
        <ele>1472.6</ele>
        <time>2021-10-10T11:27:38Z</time>
      </trkpt>
      <trkpt lat="45.17395" lon="5.57281">
        <ele>1472.6</ele>
        <time>2021-10-10T11:27:39Z</time>
      </trkpt>
      <trkpt lat="45.17395" lon="5.57279">
        <ele>1472.6</ele>
        <time>2021-10-10T11:27:40Z</time>
      </trkpt>
      <trkpt lat="45.17396" lon="5.57278">
        <ele>1473.4</ele>
        <time>2021-10-10T11:27:41Z</time>
      </trkpt>
      <trkpt lat="45.17396" lon="5.57276">
        <ele>1472.8</ele>
        <time>2021-10-10T11:27:42Z</time>
      </trkpt>
      <trkpt lat="45.17396" lon="5.57274">
        <ele>1472.8</ele>
        <time>2021-10-10T11:27:43Z</time>
      </trkpt>
      <trkpt lat="45.17397" lon="5.57272">
        <ele>1472.8</ele>
        <time>2021-10-10T11:27:44Z</time>
      </trkpt>
      <trkpt lat="45.17397" lon="5.5727">
        <ele>1472.8</ele>
        <time>2021-10-10T11:27:45Z</time>
      </trkpt>
      <trkpt lat="45.17397" lon="5.57268">
        <ele>1473.6</ele>
        <time>2021-10-10T11:27:46Z</time>
      </trkpt>
      <trkpt lat="45.17397" lon="5.57267">
        <ele>1473.6</ele>
        <time>2021-10-10T11:27:47Z</time>
      </trkpt>
      <trkpt lat="45.17395" lon="5.57265">
        <ele>1473.6</ele>
        <time>2021-10-10T11:27:48Z</time>
      </trkpt>
      <trkpt lat="45.17394" lon="5.57264">
        <ele>1473.6</ele>
        <time>2021-10-10T11:27:49Z</time>
      </trkpt>
      <trkpt lat="45.17393" lon="5.57264">
        <ele>1473.6</ele>
        <time>2021-10-10T11:27:50Z</time>
      </trkpt>
      <trkpt lat="45.17392" lon="5.57266">
        <ele>1474.2</ele>
        <time>2021-10-10T12:01:46Z</time>
      </trkpt>
      <trkpt lat="45.17394" lon="5.57266">
        <ele>1474.2</ele>
        <time>2021-10-10T12:01:47Z</time>
      </trkpt>
      <trkpt lat="45.17395" lon="5.57266">
        <ele>1474.2</ele>
        <time>2021-10-10T12:01:48Z</time>
      </trkpt>
      <trkpt lat="45.17397" lon="5.57265">
        <ele>1474.2</ele>
        <time>2021-10-10T12:01:49Z</time>
      </trkpt>
      <trkpt lat="45.17398" lon="5.57265">
        <ele>1474.6</ele>
        <time>2021-10-10T12:01:50Z</time>
      </trkpt>
      <trkpt lat="45.174" lon="5.57264">
        <ele>1474.6</ele>
        <time>2021-10-10T12:01:51Z</time>
      </trkpt>
      <trkpt lat="45.17402" lon="5.57263">
        <ele>1474.6</ele>
        <time>2021-10-10T12:01:52Z</time>
      </trkpt>
      <trkpt lat="45.17404" lon="5.57262">
        <ele>1474.6</ele>
        <time>2021-10-10T12:01:53Z</time>
      </trkpt>
      <trkpt lat="45.17406" lon="5.57261">
        <ele>1474</ele>
        <time>2021-10-10T12:01:54Z</time>
      </trkpt>
      <trkpt lat="45.17408" lon="5.57261">
        <ele>1474</ele>
        <time>2021-10-10T12:01:55Z</time>
      </trkpt>
      <trkpt lat="45.17411" lon="5.5726">
        <ele>1474</ele>
        <time>2021-10-10T12:01:56Z</time>
      </trkpt>
      <trkpt lat="45.17414" lon="5.5726">
        <ele>1474.4</ele>
        <time>2021-10-10T12:01:57Z</time>
      </trkpt>
      <trkpt lat="45.17417" lon="5.57261">
        <ele>1474.2</ele>
        <time>2021-10-10T12:01:58Z</time>
      </trkpt>
      <trkpt lat="45.17419" lon="5.57262">
        <ele>1474.2</ele>
        <time>2021-10-10T12:01:59Z</time>
      </trkpt>
      <trkpt lat="45.17421" lon="5.57263">
        <ele>1474.2</ele>
        <time>2021-10-10T12:02:00Z</time>
      </trkpt>
      <trkpt lat="45.17424" lon="5.57265">
        <ele>1474.6</ele>
        <time>2021-10-10T12:02:01Z</time>
      </trkpt>
      <trkpt lat="45.17426" lon="5.57266">
        <ele>1474.4</ele>
        <time>2021-10-10T12:02:02Z</time>
      </trkpt>
      <trkpt lat="45.17429" lon="5.57267">
        <ele>1474.4</ele>
        <time>2021-10-10T12:02:03Z</time>
      </trkpt>
      <trkpt lat="45.17432" lon="5.57269">
        <ele>1474.4</ele>
        <time>2021-10-10T12:02:04Z</time>
      </trkpt>
      <trkpt lat="45.17434" lon="5.5727">
        <ele>1474.8</ele>
        <time>2021-10-10T12:02:05Z</time>
      </trkpt>
      <trkpt lat="45.17436" lon="5.57272">
        <ele>1474.6</ele>
        <time>2021-10-10T12:02:06Z</time>
      </trkpt>
      <trkpt lat="45.17439" lon="5.57274">
        <ele>1474.6</ele>
        <time>2021-10-10T12:02:07Z</time>
      </trkpt>
      <trkpt lat="45.17441" lon="5.57275">
        <ele>1474.6</ele>
        <time>2021-10-10T12:02:08Z</time>
      </trkpt>
      <trkpt lat="45.17443" lon="5.57277">
        <ele>1475.6</ele>
        <time>2021-10-10T12:02:09Z</time>
      </trkpt>
      <trkpt lat="45.17445" lon="5.57279">
        <ele>1475.8</ele>
        <time>2021-10-10T12:02:10Z</time>
      </trkpt>
      <trkpt lat="45.17447" lon="5.57282">
        <ele>1475.8</ele>
        <time>2021-10-10T12:02:11Z</time>
      </trkpt>
      <trkpt lat="45.17449" lon="5.57284">
        <ele>1475.8</ele>
        <time>2021-10-10T12:02:12Z</time>
      </trkpt>
      <trkpt lat="45.17451" lon="5.57287">
        <ele>1475.8</ele>
        <time>2021-10-10T12:02:13Z</time>
      </trkpt>
      <trkpt lat="45.17453" lon="5.5729">
        <ele>1476.8</ele>
        <time>2021-10-10T12:02:14Z</time>
      </trkpt>
      <trkpt lat="45.17455" lon="5.57293">
        <ele>1476.8</ele>
        <time>2021-10-10T12:02:15Z</time>
      </trkpt>
      <trkpt lat="45.17456" lon="5.57296">
        <ele>1476.8</ele>
        <time>2021-10-10T12:02:16Z</time>
      </trkpt>
      <trkpt lat="45.17457" lon="5.57299">
        <ele>1477.4</ele>
        <time>2021-10-10T12:02:17Z</time>
      </trkpt>
      <trkpt lat="45.17458" lon="5.57303">
        <ele>1477.4</ele>
        <time>2021-10-10T12:02:18Z</time>
      </trkpt>
      <trkpt lat="45.17459" lon="5.57306">
        <ele>1477.4</ele>
        <time>2021-10-10T12:02:19Z</time>
      </trkpt>
      <trkpt lat="45.1746" lon="5.5731">
        <ele>1477.4</ele>
        <time>2021-10-10T12:02:20Z</time>
      </trkpt>
      <trkpt lat="45.17461" lon="5.57313">
        <ele>1477.8</ele>
        <time>2021-10-10T12:02:21Z</time>
      </trkpt>
      <trkpt lat="45.17462" lon="5.57316">
        <ele>1478.2</ele>
        <time>2021-10-10T12:02:22Z</time>
      </trkpt>
      <trkpt lat="45.17463" lon="5.57318">
        <ele>1478.2</ele>
        <time>2021-10-10T12:02:23Z</time>
      </trkpt>
      <trkpt lat="45.17463" lon="5.57321">
        <ele>1478.2</ele>
        <time>2021-10-10T12:02:24Z</time>
      </trkpt>
      <trkpt lat="45.17465" lon="5.57324">
        <ele>1478.2</ele>
        <time>2021-10-10T12:02:25Z</time>
      </trkpt>
      <trkpt lat="45.17465" lon="5.57327">
        <ele>1478.8</ele>
        <time>2021-10-10T12:02:26Z</time>
      </trkpt>
      <trkpt lat="45.17465" lon="5.5733">
        <ele>1478.8</ele>
        <time>2021-10-10T12:02:27Z</time>
      </trkpt>
      <trkpt lat="45.17466" lon="5.57333">
        <ele>1478.8</ele>
        <time>2021-10-10T12:02:28Z</time>
      </trkpt>
      <trkpt lat="45.17467" lon="5.57336">
        <ele>1478.8</ele>
        <time>2021-10-10T12:02:29Z</time>
      </trkpt>
      <trkpt lat="45.17468" lon="5.57339">
        <ele>1479.2</ele>
        <time>2021-10-10T12:02:30Z</time>
      </trkpt>
      <trkpt lat="45.17468" lon="5.57342">
        <ele>1479.2</ele>
        <time>2021-10-10T12:02:31Z</time>
      </trkpt>
      <trkpt lat="45.17469" lon="5.57345">
        <ele>1479.2</ele>
        <time>2021-10-10T12:02:32Z</time>
      </trkpt>
      <trkpt lat="45.17469" lon="5.57349">
        <ele>1479.2</ele>
        <time>2021-10-10T12:02:33Z</time>
      </trkpt>
      <trkpt lat="45.17471" lon="5.57351">
        <ele>1479.8</ele>
        <time>2021-10-10T12:02:34Z</time>
      </trkpt>
      <trkpt lat="45.17471" lon="5.57355">
        <ele>1479.8</ele>
        <time>2021-10-10T12:02:35Z</time>
      </trkpt>
      <trkpt lat="45.17473" lon="5.57357">
        <ele>1479.8</ele>
        <time>2021-10-10T12:02:36Z</time>
      </trkpt>
      <trkpt lat="45.17474" lon="5.5736">
        <ele>1479.8</ele>
        <time>2021-10-10T12:02:37Z</time>
      </trkpt>
      <trkpt lat="45.17475" lon="5.57363">
        <ele>1479.6</ele>
        <time>2021-10-10T12:02:38Z</time>
      </trkpt>
      <trkpt lat="45.17476" lon="5.57366">
        <ele>1479.6</ele>
        <time>2021-10-10T12:02:39Z</time>
      </trkpt>
      <trkpt lat="45.17478" lon="5.57369">
        <ele>1479.6</ele>
        <time>2021-10-10T12:02:40Z</time>
      </trkpt>
      <trkpt lat="45.17478" lon="5.57373">
        <ele>1480.2</ele>
        <time>2021-10-10T12:02:41Z</time>
      </trkpt>
      <trkpt lat="45.17479" lon="5.57376">
        <ele>1480.4</ele>
        <time>2021-10-10T12:02:42Z</time>
      </trkpt>
      <trkpt lat="45.1748" lon="5.57379">
        <ele>1480.4</ele>
        <time>2021-10-10T12:02:43Z</time>
      </trkpt>
      <trkpt lat="45.1748" lon="5.57382">
        <ele>1480.4</ele>
        <time>2021-10-10T12:02:44Z</time>
      </trkpt>
      <trkpt lat="45.17481" lon="5.57385">
        <ele>1481.2</ele>
        <time>2021-10-10T12:02:45Z</time>
      </trkpt>
      <trkpt lat="45.17482" lon="5.57388">
        <ele>1481.2</ele>
        <time>2021-10-10T12:02:46Z</time>
      </trkpt>
      <trkpt lat="45.17483" lon="5.57391">
        <ele>1481.2</ele>
        <time>2021-10-10T12:02:47Z</time>
      </trkpt>
      <trkpt lat="45.17484" lon="5.57393">
        <ele>1481.2</ele>
        <time>2021-10-10T12:02:48Z</time>
      </trkpt>
      <trkpt lat="45.17484" lon="5.57396">
        <ele>1481.2</ele>
        <time>2021-10-10T12:02:49Z</time>
      </trkpt>
      <trkpt lat="45.17485" lon="5.574">
        <ele>1481.4</ele>
        <time>2021-10-10T12:02:50Z</time>
      </trkpt>
      <trkpt lat="45.17486" lon="5.57403">
        <ele>1481.4</ele>
        <time>2021-10-10T12:02:51Z</time>
      </trkpt>
      <trkpt lat="45.17488" lon="5.57406">
        <ele>1481.4</ele>
        <time>2021-10-10T12:02:52Z</time>
      </trkpt>
      <trkpt lat="45.17489" lon="5.57409">
        <ele>1481.4</ele>
        <time>2021-10-10T12:02:53Z</time>
      </trkpt>
      <trkpt lat="45.1749" lon="5.57412">
        <ele>1481.6</ele>
        <time>2021-10-10T12:02:54Z</time>
      </trkpt>
      <trkpt lat="45.1749" lon="5.57416">
        <ele>1481.6</ele>
        <time>2021-10-10T12:02:55Z</time>
      </trkpt>
      <trkpt lat="45.17492" lon="5.57419">
        <ele>1481.6</ele>
        <time>2021-10-10T12:02:56Z</time>
      </trkpt>
      <trkpt lat="45.17493" lon="5.57422">
        <ele>1482.4</ele>
        <time>2021-10-10T12:02:57Z</time>
      </trkpt>
      <trkpt lat="45.17494" lon="5.57424">
        <ele>1482.6</ele>
        <time>2021-10-10T12:02:58Z</time>
      </trkpt>
      <trkpt lat="45.17495" lon="5.57426">
        <ele>1482.6</ele>
        <time>2021-10-10T12:02:59Z</time>
      </trkpt>
      <trkpt lat="45.17497" lon="5.57429">
        <ele>1482.6</ele>
        <time>2021-10-10T12:03:00Z</time>
      </trkpt>
      <trkpt lat="45.17498" lon="5.57432">
        <ele>1482.6</ele>
        <time>2021-10-10T12:03:01Z</time>
      </trkpt>
      <trkpt lat="45.17499" lon="5.57434">
        <ele>1482.4</ele>
        <time>2021-10-10T12:03:02Z</time>
      </trkpt>
      <trkpt lat="45.175" lon="5.57437">
        <ele>1482.4</ele>
        <time>2021-10-10T12:03:03Z</time>
      </trkpt>
      <trkpt lat="45.17501" lon="5.5744">
        <ele>1482.4</ele>
        <time>2021-10-10T12:03:04Z</time>
      </trkpt>
      <trkpt lat="45.17503" lon="5.57443">
        <ele>1483</ele>
        <time>2021-10-10T12:03:05Z</time>
      </trkpt>
      <trkpt lat="45.17505" lon="5.57447">
        <ele>1483.2</ele>
        <time>2021-10-10T12:03:06Z</time>
      </trkpt>
      <trkpt lat="45.17506" lon="5.5745">
        <ele>1483.2</ele>
        <time>2021-10-10T12:03:07Z</time>
      </trkpt>
      <trkpt lat="45.17508" lon="5.57454">
        <ele>1483.2</ele>
        <time>2021-10-10T12:03:08Z</time>
      </trkpt>
      <trkpt lat="45.1751" lon="5.57457">
        <ele>1483.2</ele>
        <time>2021-10-10T12:03:09Z</time>
      </trkpt>
      <trkpt lat="45.17512" lon="5.5746">
        <ele>1483.4</ele>
        <time>2021-10-10T12:03:10Z</time>
      </trkpt>
      <trkpt lat="45.17513" lon="5.57464">
        <ele>1483.4</ele>
        <time>2021-10-10T12:03:11Z</time>
      </trkpt>
      <trkpt lat="45.17515" lon="5.57468">
        <ele>1483.4</ele>
        <time>2021-10-10T12:03:12Z</time>
      </trkpt>
      <trkpt lat="45.17516" lon="5.57472">
        <ele>1484</ele>
        <time>2021-10-10T12:03:13Z</time>
      </trkpt>
      <trkpt lat="45.17517" lon="5.57475">
        <ele>1484.6</ele>
        <time>2021-10-10T12:03:14Z</time>
      </trkpt>
      <trkpt lat="45.17519" lon="5.57478">
        <ele>1484.6</ele>
        <time>2021-10-10T12:03:15Z</time>
      </trkpt>
      <trkpt lat="45.1752" lon="5.57482">
        <ele>1484.6</ele>
        <time>2021-10-10T12:03:16Z</time>
      </trkpt>
      <trkpt lat="45.17521" lon="5.57485">
        <ele>1484.6</ele>
        <time>2021-10-10T12:03:17Z</time>
      </trkpt>
      <trkpt lat="45.17522" lon="5.57488">
        <ele>1485</ele>
        <time>2021-10-10T12:03:18Z</time>
      </trkpt>
      <trkpt lat="45.17524" lon="5.57492">
        <ele>1485</ele>
        <time>2021-10-10T12:03:19Z</time>
      </trkpt>
      <trkpt lat="45.17526" lon="5.57494">
        <ele>1485</ele>
        <time>2021-10-10T12:03:20Z</time>
      </trkpt>
      <trkpt lat="45.17527" lon="5.57498">
        <ele>1485</ele>
        <time>2021-10-10T12:03:21Z</time>
      </trkpt>
      <trkpt lat="45.17529" lon="5.57501">
        <ele>1485</ele>
        <time>2021-10-10T12:03:22Z</time>
      </trkpt>
      <trkpt lat="45.1753" lon="5.57504">
        <ele>1485</ele>
        <time>2021-10-10T12:03:23Z</time>
      </trkpt>
      <trkpt lat="45.17532" lon="5.57507">
        <ele>1485</ele>
        <time>2021-10-10T12:03:24Z</time>
      </trkpt>
      <trkpt lat="45.17532" lon="5.57511">
        <ele>1485</ele>
        <time>2021-10-10T12:03:25Z</time>
      </trkpt>
      <trkpt lat="45.17534" lon="5.57513">
        <ele>1485.2</ele>
        <time>2021-10-10T12:03:26Z</time>
      </trkpt>
      <trkpt lat="45.17536" lon="5.57516">
        <ele>1485.2</ele>
        <time>2021-10-10T12:03:27Z</time>
      </trkpt>
      <trkpt lat="45.17538" lon="5.57519">
        <ele>1485.2</ele>
        <time>2021-10-10T12:03:28Z</time>
      </trkpt>
      <trkpt lat="45.1754" lon="5.57521">
        <ele>1485.2</ele>
        <time>2021-10-10T12:03:29Z</time>
      </trkpt>
      <trkpt lat="45.17541" lon="5.57524">
        <ele>1485.8</ele>
        <time>2021-10-10T12:03:30Z</time>
      </trkpt>
      <trkpt lat="45.17543" lon="5.57527">
        <ele>1485.8</ele>
        <time>2021-10-10T12:03:31Z</time>
      </trkpt>
      <trkpt lat="45.17544" lon="5.5753">
        <ele>1485.8</ele>
        <time>2021-10-10T12:03:32Z</time>
      </trkpt>
      <trkpt lat="45.17545" lon="5.57533">
        <ele>1485.8</ele>
        <time>2021-10-10T12:03:33Z</time>
      </trkpt>
      <trkpt lat="45.17547" lon="5.57536">
        <ele>1486.2</ele>
        <time>2021-10-10T12:03:34Z</time>
      </trkpt>
      <trkpt lat="45.17549" lon="5.57539">
        <ele>1486.2</ele>
        <time>2021-10-10T12:03:35Z</time>
      </trkpt>
      <trkpt lat="45.17551" lon="5.57542">
        <ele>1486.2</ele>
        <time>2021-10-10T12:03:36Z</time>
      </trkpt>
      <trkpt lat="45.17553" lon="5.57545">
        <ele>1486.6</ele>
        <time>2021-10-10T12:03:37Z</time>
      </trkpt>
      <trkpt lat="45.17555" lon="5.57548">
        <ele>1486.6</ele>
        <time>2021-10-10T12:03:38Z</time>
      </trkpt>
      <trkpt lat="45.17557" lon="5.57551">
        <ele>1486.6</ele>
        <time>2021-10-10T12:03:39Z</time>
      </trkpt>
      <trkpt lat="45.17559" lon="5.57554">
        <ele>1486.6</ele>
        <time>2021-10-10T12:03:40Z</time>
      </trkpt>
      <trkpt lat="45.17561" lon="5.57557">
        <ele>1486.6</ele>
        <time>2021-10-10T12:03:41Z</time>
      </trkpt>
      <trkpt lat="45.17563" lon="5.57561">
        <ele>1487</ele>
        <time>2021-10-10T12:03:42Z</time>
      </trkpt>
      <trkpt lat="45.17564" lon="5.57564">
        <ele>1487</ele>
        <time>2021-10-10T12:03:43Z</time>
      </trkpt>
      <trkpt lat="45.17565" lon="5.57568">
        <ele>1487</ele>
        <time>2021-10-10T12:03:44Z</time>
      </trkpt>
      <trkpt lat="45.17567" lon="5.57572">
        <ele>1487</ele>
        <time>2021-10-10T12:03:45Z</time>
      </trkpt>
      <trkpt lat="45.17568" lon="5.57575">
        <ele>1486.8</ele>
        <time>2021-10-10T12:03:46Z</time>
      </trkpt>
      <trkpt lat="45.1757" lon="5.57579">
        <ele>1486.8</ele>
        <time>2021-10-10T12:03:47Z</time>
      </trkpt>
      <trkpt lat="45.17572" lon="5.57583">
        <ele>1486.8</ele>
        <time>2021-10-10T12:03:48Z</time>
      </trkpt>
      <trkpt lat="45.17574" lon="5.57585">
        <ele>1486.8</ele>
        <time>2021-10-10T12:03:49Z</time>
      </trkpt>
      <trkpt lat="45.17576" lon="5.57588">
        <ele>1487.2</ele>
        <time>2021-10-10T12:03:50Z</time>
      </trkpt>
      <trkpt lat="45.17579" lon="5.5759">
        <ele>1487.2</ele>
        <time>2021-10-10T12:03:51Z</time>
      </trkpt>
      <trkpt lat="45.17582" lon="5.57591">
        <ele>1487.2</ele>
        <time>2021-10-10T12:03:52Z</time>
      </trkpt>
      <trkpt lat="45.17585" lon="5.57591">
        <ele>1487.2</ele>
        <time>2021-10-10T12:03:53Z</time>
      </trkpt>
      <trkpt lat="45.17587" lon="5.5759">
        <ele>1487.2</ele>
        <time>2021-10-10T12:03:54Z</time>
      </trkpt>
      <trkpt lat="45.1759" lon="5.5759">
        <ele>1487.2</ele>
        <time>2021-10-10T12:03:55Z</time>
      </trkpt>
      <trkpt lat="45.17593" lon="5.57589">
        <ele>1487.2</ele>
        <time>2021-10-10T12:03:56Z</time>
      </trkpt>
      <trkpt lat="45.17597" lon="5.57589">
        <ele>1487.2</ele>
        <time>2021-10-10T12:03:57Z</time>
      </trkpt>
      <trkpt lat="45.176" lon="5.57585">
        <ele>1487.4</ele>
        <time>2021-10-10T12:03:58Z</time>
      </trkpt>
      <trkpt lat="45.17603" lon="5.57584">
        <ele>1487.4</ele>
        <time>2021-10-10T12:03:59Z</time>
      </trkpt>
      <trkpt lat="45.17607" lon="5.57582">
        <ele>1487.4</ele>
        <time>2021-10-10T12:04:00Z</time>
      </trkpt>
      <trkpt lat="45.17611" lon="5.5758">
        <ele>1487.4</ele>
        <time>2021-10-10T12:04:01Z</time>
      </trkpt>
      <trkpt lat="45.17615" lon="5.57578">
        <ele>1487.8</ele>
        <time>2021-10-10T12:04:02Z</time>
      </trkpt>
      <trkpt lat="45.1762" lon="5.57573">
        <ele>1487.8</ele>
        <time>2021-10-10T12:04:03Z</time>
      </trkpt>
      <trkpt lat="45.17625" lon="5.5757">
        <ele>1487.8</ele>
        <time>2021-10-10T12:04:04Z</time>
      </trkpt>
      <trkpt lat="45.17629" lon="5.57568">
        <ele>1487.8</ele>
        <time>2021-10-10T12:04:05Z</time>
      </trkpt>
      <trkpt lat="45.17633" lon="5.57566">
        <ele>1488</ele>
        <time>2021-10-10T12:04:06Z</time>
      </trkpt>
      <trkpt lat="45.17637" lon="5.57564">
        <ele>1488</ele>
        <time>2021-10-10T12:04:07Z</time>
      </trkpt>
      <trkpt lat="45.17641" lon="5.57563">
        <ele>1488</ele>
        <time>2021-10-10T12:04:08Z</time>
      </trkpt>
      <trkpt lat="45.17644" lon="5.57561">
        <ele>1488</ele>
        <time>2021-10-10T12:04:09Z</time>
      </trkpt>
      <trkpt lat="45.17647" lon="5.5756">
        <ele>1488.6</ele>
        <time>2021-10-10T12:04:10Z</time>
      </trkpt>
      <trkpt lat="45.17651" lon="5.57559">
        <ele>1488.6</ele>
        <time>2021-10-10T12:04:11Z</time>
      </trkpt>
      <trkpt lat="45.17655" lon="5.57558">
        <ele>1488.6</ele>
        <time>2021-10-10T12:04:12Z</time>
      </trkpt>
      <trkpt lat="45.17659" lon="5.57558">
        <ele>1488.6</ele>
        <time>2021-10-10T12:04:13Z</time>
      </trkpt>
      <trkpt lat="45.17663" lon="5.57557">
        <ele>1488.4</ele>
        <time>2021-10-10T12:04:14Z</time>
      </trkpt>
      <trkpt lat="45.17667" lon="5.57558">
        <ele>1488.4</ele>
        <time>2021-10-10T12:04:15Z</time>
      </trkpt>
      <trkpt lat="45.17671" lon="5.57558">
        <ele>1488.4</ele>
        <time>2021-10-10T12:04:16Z</time>
      </trkpt>
      <trkpt lat="45.17674" lon="5.57559">
        <ele>1488.4</ele>
        <time>2021-10-10T12:04:17Z</time>
      </trkpt>
      <trkpt lat="45.17679" lon="5.57559">
        <ele>1488.8</ele>
        <time>2021-10-10T12:04:18Z</time>
      </trkpt>
      <trkpt lat="45.17682" lon="5.57559">
        <ele>1488.8</ele>
        <time>2021-10-10T12:04:19Z</time>
      </trkpt>
      <trkpt lat="45.17686" lon="5.57559">
        <ele>1488.8</ele>
        <time>2021-10-10T12:04:20Z</time>
      </trkpt>
      <trkpt lat="45.17689" lon="5.5756">
        <ele>1488.8</ele>
        <time>2021-10-10T12:04:21Z</time>
      </trkpt>
      <trkpt lat="45.17693" lon="5.57561">
        <ele>1489.8</ele>
        <time>2021-10-10T12:04:22Z</time>
      </trkpt>
      <trkpt lat="45.17697" lon="5.57562">
        <ele>1489.8</ele>
        <time>2021-10-10T12:04:23Z</time>
      </trkpt>
      <trkpt lat="45.17699" lon="5.57561">
        <ele>1489.8</ele>
        <time>2021-10-10T12:04:24Z</time>
      </trkpt>
      <trkpt lat="45.17702" lon="5.57563">
        <ele>1489.6</ele>
        <time>2021-10-10T12:04:25Z</time>
      </trkpt>
      <trkpt lat="45.17705" lon="5.57563">
        <ele>1489.6</ele>
        <time>2021-10-10T12:04:26Z</time>
      </trkpt>
      <trkpt lat="45.17708" lon="5.57564">
        <ele>1489.6</ele>
        <time>2021-10-10T12:04:27Z</time>
      </trkpt>
      <trkpt lat="45.17712" lon="5.57564">
        <ele>1489.6</ele>
        <time>2021-10-10T12:04:28Z</time>
      </trkpt>
      <trkpt lat="45.17715" lon="5.57563">
        <ele>1489.6</ele>
        <time>2021-10-10T12:04:29Z</time>
      </trkpt>
      <trkpt lat="45.17718" lon="5.57563">
        <ele>1489.8</ele>
        <time>2021-10-10T12:04:30Z</time>
      </trkpt>
      <trkpt lat="45.1772" lon="5.57563">
        <ele>1489.8</ele>
        <time>2021-10-10T12:04:31Z</time>
      </trkpt>
      <trkpt lat="45.17724" lon="5.57563">
        <ele>1489.8</ele>
        <time>2021-10-10T12:04:32Z</time>
      </trkpt>
      <trkpt lat="45.17728" lon="5.57564">
        <ele>1489.4</ele>
        <time>2021-10-10T12:04:33Z</time>
      </trkpt>
      <trkpt lat="45.17732" lon="5.57565">
        <ele>1489.8</ele>
        <time>2021-10-10T12:04:34Z</time>
      </trkpt>
      <trkpt lat="45.17736" lon="5.57565">
        <ele>1489.8</ele>
        <time>2021-10-10T12:04:35Z</time>
      </trkpt>
      <trkpt lat="45.17739" lon="5.57566">
        <ele>1489.8</ele>
        <time>2021-10-10T12:04:36Z</time>
      </trkpt>
      <trkpt lat="45.17743" lon="5.57566">
        <ele>1489.8</ele>
        <time>2021-10-10T12:04:37Z</time>
      </trkpt>
      <trkpt lat="45.17747" lon="5.57566">
        <ele>1489.8</ele>
        <time>2021-10-10T12:04:38Z</time>
      </trkpt>
      <trkpt lat="45.17751" lon="5.57566">
        <ele>1489.8</ele>
        <time>2021-10-10T12:04:39Z</time>
      </trkpt>
      <trkpt lat="45.17755" lon="5.57566">
        <ele>1489.8</ele>
        <time>2021-10-10T12:04:40Z</time>
      </trkpt>
      <trkpt lat="45.17758" lon="5.57566">
        <ele>1489.4</ele>
        <time>2021-10-10T12:04:41Z</time>
      </trkpt>
      <trkpt lat="45.17762" lon="5.57566">
        <ele>1489.4</ele>
        <time>2021-10-10T12:04:42Z</time>
      </trkpt>
      <trkpt lat="45.17766" lon="5.57567">
        <ele>1489.4</ele>
        <time>2021-10-10T12:04:43Z</time>
      </trkpt>
      <trkpt lat="45.1777" lon="5.57567">
        <ele>1489.4</ele>
        <time>2021-10-10T12:04:44Z</time>
      </trkpt>
      <trkpt lat="45.17774" lon="5.57569">
        <ele>1489.4</ele>
        <time>2021-10-10T12:04:45Z</time>
      </trkpt>
      <trkpt lat="45.17777" lon="5.5757">
        <ele>1490</ele>
        <time>2021-10-10T12:04:46Z</time>
      </trkpt>
      <trkpt lat="45.17781" lon="5.57571">
        <ele>1490</ele>
        <time>2021-10-10T12:04:47Z</time>
      </trkpt>
      <trkpt lat="45.17785" lon="5.57572">
        <ele>1490</ele>
        <time>2021-10-10T12:04:48Z</time>
      </trkpt>
      <trkpt lat="45.17788" lon="5.57573">
        <ele>1490</ele>
        <time>2021-10-10T12:04:49Z</time>
      </trkpt>
      <trkpt lat="45.17791" lon="5.57575">
        <ele>1490.8</ele>
        <time>2021-10-10T12:04:50Z</time>
      </trkpt>
      <trkpt lat="45.17794" lon="5.57576">
        <ele>1490.8</ele>
        <time>2021-10-10T12:04:51Z</time>
      </trkpt>
      <trkpt lat="45.17797" lon="5.57578">
        <ele>1490.8</ele>
        <time>2021-10-10T12:04:52Z</time>
      </trkpt>
      <trkpt lat="45.178" lon="5.5758">
        <ele>1490.8</ele>
        <time>2021-10-10T12:04:53Z</time>
      </trkpt>
      <trkpt lat="45.17803" lon="5.57582">
        <ele>1490.8</ele>
        <time>2021-10-10T12:04:54Z</time>
      </trkpt>
      <trkpt lat="45.17806" lon="5.57583">
        <ele>1490.8</ele>
        <time>2021-10-10T12:04:55Z</time>
      </trkpt>
      <trkpt lat="45.17809" lon="5.57585">
        <ele>1490.8</ele>
        <time>2021-10-10T12:04:56Z</time>
      </trkpt>
      <trkpt lat="45.17812" lon="5.57588">
        <ele>1491</ele>
        <time>2021-10-10T12:04:57Z</time>
      </trkpt>
      <trkpt lat="45.17815" lon="5.5759">
        <ele>1491.2</ele>
        <time>2021-10-10T12:04:58Z</time>
      </trkpt>
      <trkpt lat="45.17817" lon="5.57592">
        <ele>1491.2</ele>
        <time>2021-10-10T12:04:59Z</time>
      </trkpt>
      <trkpt lat="45.1782" lon="5.57595">
        <ele>1491.2</ele>
        <time>2021-10-10T12:05:00Z</time>
      </trkpt>
      <trkpt lat="45.17822" lon="5.57597">
        <ele>1492.2</ele>
        <time>2021-10-10T12:05:01Z</time>
      </trkpt>
      <trkpt lat="45.17825" lon="5.576">
        <ele>1492.4</ele>
        <time>2021-10-10T12:05:02Z</time>
      </trkpt>
      <trkpt lat="45.17826" lon="5.57605">
        <ele>1492.4</ele>
        <time>2021-10-10T12:05:03Z</time>
      </trkpt>
      <trkpt lat="45.17828" lon="5.57608">
        <ele>1492.4</ele>
        <time>2021-10-10T12:05:04Z</time>
      </trkpt>
      <trkpt lat="45.1783" lon="5.57612">
        <ele>1492.4</ele>
        <time>2021-10-10T12:05:05Z</time>
      </trkpt>
      <trkpt lat="45.17832" lon="5.57617">
        <ele>1492.8</ele>
        <time>2021-10-10T12:05:06Z</time>
      </trkpt>
      <trkpt lat="45.17834" lon="5.57622">
        <ele>1492.8</ele>
        <time>2021-10-10T12:05:07Z</time>
      </trkpt>
      <trkpt lat="45.17835" lon="5.57626">
        <ele>1492.8</ele>
        <time>2021-10-10T12:05:08Z</time>
      </trkpt>
      <trkpt lat="45.17836" lon="5.57631">
        <ele>1492.8</ele>
        <time>2021-10-10T12:05:09Z</time>
      </trkpt>
      <trkpt lat="45.17836" lon="5.57636">
        <ele>1492.4</ele>
        <time>2021-10-10T12:05:10Z</time>
      </trkpt>
      <trkpt lat="45.17837" lon="5.57641">
        <ele>1492.4</ele>
        <time>2021-10-10T12:05:11Z</time>
      </trkpt>
      <trkpt lat="45.17837" lon="5.57646">
        <ele>1492.4</ele>
        <time>2021-10-10T12:05:12Z</time>
      </trkpt>
      <trkpt lat="45.17838" lon="5.57651">
        <ele>1492.6</ele>
        <time>2021-10-10T12:05:13Z</time>
      </trkpt>
      <trkpt lat="45.17838" lon="5.57656">
        <ele>1493</ele>
        <time>2021-10-10T12:05:14Z</time>
      </trkpt>
      <trkpt lat="45.17839" lon="5.57662">
        <ele>1493</ele>
        <time>2021-10-10T12:05:15Z</time>
      </trkpt>
      <trkpt lat="45.17839" lon="5.57667">
        <ele>1493</ele>
        <time>2021-10-10T12:05:16Z</time>
      </trkpt>
      <trkpt lat="45.1784" lon="5.57672">
        <ele>1493.4</ele>
        <time>2021-10-10T12:05:17Z</time>
      </trkpt>
      <trkpt lat="45.17842" lon="5.57676">
        <ele>1493.6</ele>
        <time>2021-10-10T12:05:18Z</time>
      </trkpt>
      <trkpt lat="45.17848" lon="5.57677">
        <ele>1493.6</ele>
        <time>2021-10-10T12:05:19Z</time>
      </trkpt>
      <trkpt lat="45.17852" lon="5.57677">
        <ele>1493.6</ele>
        <time>2021-10-10T12:05:20Z</time>
      </trkpt>
      <trkpt lat="45.17854" lon="5.57677">
        <ele>1493.6</ele>
        <time>2021-10-10T12:05:21Z</time>
      </trkpt>
      <trkpt lat="45.17859" lon="5.57677">
        <ele>1494.4</ele>
        <time>2021-10-10T12:05:22Z</time>
      </trkpt>
      <trkpt lat="45.17864" lon="5.57673">
        <ele>1494.4</ele>
        <time>2021-10-10T12:05:23Z</time>
      </trkpt>
      <trkpt lat="45.17868" lon="5.5767">
        <ele>1494.4</ele>
        <time>2021-10-10T12:05:24Z</time>
      </trkpt>
      <trkpt lat="45.17873" lon="5.57666">
        <ele>1493.6</ele>
        <time>2021-10-10T12:05:25Z</time>
      </trkpt>
      <trkpt lat="45.17878" lon="5.57661">
        <ele>1493.2</ele>
        <time>2021-10-10T12:05:26Z</time>
      </trkpt>
      <trkpt lat="45.17881" lon="5.57657">
        <ele>1493.2</ele>
        <time>2021-10-10T12:05:27Z</time>
      </trkpt>
      <trkpt lat="45.17885" lon="5.57653">
        <ele>1493.2</ele>
        <time>2021-10-10T12:05:28Z</time>
      </trkpt>
      <trkpt lat="45.17888" lon="5.57648">
        <ele>1493.8</ele>
        <time>2021-10-10T12:05:29Z</time>
      </trkpt>
      <trkpt lat="45.1789" lon="5.57645">
        <ele>1493.6</ele>
        <time>2021-10-10T12:05:30Z</time>
      </trkpt>
      <trkpt lat="45.17894" lon="5.57641">
        <ele>1493.6</ele>
        <time>2021-10-10T12:05:31Z</time>
      </trkpt>
      <trkpt lat="45.17897" lon="5.57637">
        <ele>1493.6</ele>
        <time>2021-10-10T12:05:32Z</time>
      </trkpt>
      <trkpt lat="45.179" lon="5.57633">
        <ele>1494</ele>
        <time>2021-10-10T12:05:33Z</time>
      </trkpt>
      <trkpt lat="45.17902" lon="5.57629">
        <ele>1494</ele>
        <time>2021-10-10T12:05:34Z</time>
      </trkpt>
      <trkpt lat="45.17905" lon="5.57626">
        <ele>1494</ele>
        <time>2021-10-10T12:05:35Z</time>
      </trkpt>
      <trkpt lat="45.17907" lon="5.57622">
        <ele>1494</ele>
        <time>2021-10-10T12:05:36Z</time>
      </trkpt>
      <trkpt lat="45.1791" lon="5.57618">
        <ele>1494</ele>
        <time>2021-10-10T12:05:37Z</time>
      </trkpt>
      <trkpt lat="45.17912" lon="5.57614">
        <ele>1494.8</ele>
        <time>2021-10-10T12:05:38Z</time>
      </trkpt>
      <trkpt lat="45.17915" lon="5.5761">
        <ele>1494.8</ele>
        <time>2021-10-10T12:05:39Z</time>
      </trkpt>
      <trkpt lat="45.17917" lon="5.57607">
        <ele>1494.8</ele>
        <time>2021-10-10T12:05:40Z</time>
      </trkpt>
      <trkpt lat="45.1792" lon="5.57604">
        <ele>1494.8</ele>
        <time>2021-10-10T12:05:41Z</time>
      </trkpt>
      <trkpt lat="45.17923" lon="5.57602">
        <ele>1495.4</ele>
        <time>2021-10-10T12:05:42Z</time>
      </trkpt>
      <trkpt lat="45.17926" lon="5.576">
        <ele>1495.4</ele>
        <time>2021-10-10T12:05:43Z</time>
      </trkpt>
      <trkpt lat="45.17928" lon="5.57598">
        <ele>1495.4</ele>
        <time>2021-10-10T12:05:44Z</time>
      </trkpt>
      <trkpt lat="45.17931" lon="5.57598">
        <ele>1496</ele>
        <time>2021-10-10T12:05:45Z</time>
      </trkpt>
      <trkpt lat="45.17934" lon="5.57598">
        <ele>1496.2</ele>
        <time>2021-10-10T12:05:46Z</time>
      </trkpt>
      <trkpt lat="45.17937" lon="5.57597">
        <ele>1496.2</ele>
        <time>2021-10-10T12:05:47Z</time>
      </trkpt>
      <trkpt lat="45.17941" lon="5.57597">
        <ele>1496.2</ele>
        <time>2021-10-10T12:05:48Z</time>
      </trkpt>
      <trkpt lat="45.17944" lon="5.57596">
        <ele>1496.2</ele>
        <time>2021-10-10T12:05:49Z</time>
      </trkpt>
      <trkpt lat="45.17947" lon="5.57596">
        <ele>1496.4</ele>
        <time>2021-10-10T12:05:50Z</time>
      </trkpt>
      <trkpt lat="45.17951" lon="5.57596">
        <ele>1496.4</ele>
        <time>2021-10-10T12:05:51Z</time>
      </trkpt>
      <trkpt lat="45.17954" lon="5.57596">
        <ele>1496.4</ele>
        <time>2021-10-10T12:05:52Z</time>
      </trkpt>
      <trkpt lat="45.17957" lon="5.57596">
        <ele>1497</ele>
        <time>2021-10-10T12:05:53Z</time>
      </trkpt>
      <trkpt lat="45.1796" lon="5.57596">
        <ele>1496.6</ele>
        <time>2021-10-10T12:05:54Z</time>
      </trkpt>
      <trkpt lat="45.17963" lon="5.57597">
        <ele>1496.6</ele>
        <time>2021-10-10T12:05:55Z</time>
      </trkpt>
      <trkpt lat="45.17966" lon="5.57599">
        <ele>1496.6</ele>
        <time>2021-10-10T12:05:56Z</time>
      </trkpt>
      <trkpt lat="45.17968" lon="5.57601">
        <ele>1497.2</ele>
        <time>2021-10-10T12:05:57Z</time>
      </trkpt>
      <trkpt lat="45.1797" lon="5.57603">
        <ele>1497.2</ele>
        <time>2021-10-10T12:05:58Z</time>
      </trkpt>
      <trkpt lat="45.17973" lon="5.57606">
        <ele>1497.2</ele>
        <time>2021-10-10T12:05:59Z</time>
      </trkpt>
      <trkpt lat="45.17975" lon="5.57609">
        <ele>1497.2</ele>
        <time>2021-10-10T12:06:00Z</time>
      </trkpt>
      <trkpt lat="45.17976" lon="5.57613">
        <ele>1497.2</ele>
        <time>2021-10-10T12:06:01Z</time>
      </trkpt>
      <trkpt lat="45.17977" lon="5.57617">
        <ele>1497.2</ele>
        <time>2021-10-10T12:06:02Z</time>
      </trkpt>
      <trkpt lat="45.17978" lon="5.5762">
        <ele>1497.2</ele>
        <time>2021-10-10T12:06:03Z</time>
      </trkpt>
      <trkpt lat="45.17979" lon="5.57624">
        <ele>1497.2</ele>
        <time>2021-10-10T12:06:04Z</time>
      </trkpt>
      <trkpt lat="45.17979" lon="5.57628">
        <ele>1498</ele>
        <time>2021-10-10T12:06:05Z</time>
      </trkpt>
      <trkpt lat="45.17979" lon="5.57633">
        <ele>1498</ele>
        <time>2021-10-10T12:06:06Z</time>
      </trkpt>
      <trkpt lat="45.17978" lon="5.57637">
        <ele>1498</ele>
        <time>2021-10-10T12:06:07Z</time>
      </trkpt>
      <trkpt lat="45.17978" lon="5.57642">
        <ele>1498</ele>
        <time>2021-10-10T12:06:08Z</time>
      </trkpt>
      <trkpt lat="45.17978" lon="5.57646">
        <ele>1498.8</ele>
        <time>2021-10-10T12:06:09Z</time>
      </trkpt>
      <trkpt lat="45.17977" lon="5.57651">
        <ele>1499</ele>
        <time>2021-10-10T12:06:10Z</time>
      </trkpt>
      <trkpt lat="45.17977" lon="5.57655">
        <ele>1499</ele>
        <time>2021-10-10T12:06:11Z</time>
      </trkpt>
      <trkpt lat="45.17976" lon="5.5766">
        <ele>1499</ele>
        <time>2021-10-10T12:06:12Z</time>
      </trkpt>
      <trkpt lat="45.17976" lon="5.57665">
        <ele>1499</ele>
        <time>2021-10-10T12:06:13Z</time>
      </trkpt>
      <trkpt lat="45.17976" lon="5.57669">
        <ele>1499.6</ele>
        <time>2021-10-10T12:06:14Z</time>
      </trkpt>
      <trkpt lat="45.17977" lon="5.57674">
        <ele>1499.6</ele>
        <time>2021-10-10T12:06:15Z</time>
      </trkpt>
      <trkpt lat="45.17977" lon="5.57678">
        <ele>1499.6</ele>
        <time>2021-10-10T12:06:16Z</time>
      </trkpt>
      <trkpt lat="45.17977" lon="5.57682">
        <ele>1499.6</ele>
        <time>2021-10-10T12:06:17Z</time>
      </trkpt>
      <trkpt lat="45.17978" lon="5.57685">
        <ele>1499</ele>
        <time>2021-10-10T12:06:18Z</time>
      </trkpt>
      <trkpt lat="45.17979" lon="5.57687">
        <ele>1499</ele>
        <time>2021-10-10T12:06:19Z</time>
      </trkpt>
      <trkpt lat="45.1798" lon="5.5769">
        <ele>1499</ele>
        <time>2021-10-10T12:06:20Z</time>
      </trkpt>
      <trkpt lat="45.17981" lon="5.57692">
        <ele>1499</ele>
        <time>2021-10-10T12:06:21Z</time>
      </trkpt>
      <trkpt lat="45.17983" lon="5.57694">
        <ele>1499.6</ele>
        <time>2021-10-10T12:06:22Z</time>
      </trkpt>
      <trkpt lat="45.17985" lon="5.57697">
        <ele>1499.6</ele>
        <time>2021-10-10T12:06:23Z</time>
      </trkpt>
      <trkpt lat="45.17988" lon="5.57698">
        <ele>1499.6</ele>
        <time>2021-10-10T12:06:24Z</time>
      </trkpt>
      <trkpt lat="45.17991" lon="5.57698">
        <ele>1500.4</ele>
        <time>2021-10-10T12:06:25Z</time>
      </trkpt>
      <trkpt lat="45.17994" lon="5.57699">
        <ele>1500.4</ele>
        <time>2021-10-10T12:06:26Z</time>
      </trkpt>
      <trkpt lat="45.17997" lon="5.57698">
        <ele>1500.4</ele>
        <time>2021-10-10T12:06:27Z</time>
      </trkpt>
      <trkpt lat="45.18" lon="5.57697">
        <ele>1500.4</ele>
        <time>2021-10-10T12:06:28Z</time>
      </trkpt>
      <trkpt lat="45.18002" lon="5.57695">
        <ele>1501</ele>
        <time>2021-10-10T12:06:29Z</time>
      </trkpt>
      <trkpt lat="45.18005" lon="5.57693">
        <ele>1500.8</ele>
        <time>2021-10-10T12:06:30Z</time>
      </trkpt>
      <trkpt lat="45.18008" lon="5.57691">
        <ele>1500.8</ele>
        <time>2021-10-10T12:06:31Z</time>
      </trkpt>
      <trkpt lat="45.1801" lon="5.57689">
        <ele>1500.8</ele>
        <time>2021-10-10T12:06:32Z</time>
      </trkpt>
      <trkpt lat="45.18012" lon="5.57688">
        <ele>1500.8</ele>
        <time>2021-10-10T12:06:33Z</time>
      </trkpt>
      <trkpt lat="45.18015" lon="5.57686">
        <ele>1500.8</ele>
        <time>2021-10-10T12:06:34Z</time>
      </trkpt>
      <trkpt lat="45.18018" lon="5.57685">
        <ele>1500.8</ele>
        <time>2021-10-10T12:06:35Z</time>
      </trkpt>
      <trkpt lat="45.1802" lon="5.57685">
        <ele>1500.8</ele>
        <time>2021-10-10T12:06:36Z</time>
      </trkpt>
      <trkpt lat="45.18024" lon="5.57685">
        <ele>1501.4</ele>
        <time>2021-10-10T12:06:37Z</time>
      </trkpt>
      <trkpt lat="45.18026" lon="5.57684">
        <ele>1501.6</ele>
        <time>2021-10-10T12:06:38Z</time>
      </trkpt>
      <trkpt lat="45.18028" lon="5.57684">
        <ele>1501.6</ele>
        <time>2021-10-10T12:06:39Z</time>
      </trkpt>
      <trkpt lat="45.18031" lon="5.57683">
        <ele>1501.6</ele>
        <time>2021-10-10T12:06:40Z</time>
      </trkpt>
      <trkpt lat="45.18034" lon="5.57683">
        <ele>1501.6</ele>
        <time>2021-10-10T12:06:41Z</time>
      </trkpt>
      <trkpt lat="45.18036" lon="5.57684">
        <ele>1502.2</ele>
        <time>2021-10-10T12:06:42Z</time>
      </trkpt>
      <trkpt lat="45.18038" lon="5.57684">
        <ele>1502.2</ele>
        <time>2021-10-10T12:06:43Z</time>
      </trkpt>
      <trkpt lat="45.18041" lon="5.57686">
        <ele>1502.2</ele>
        <time>2021-10-10T12:06:44Z</time>
      </trkpt>
      <trkpt lat="45.18045" lon="5.57688">
        <ele>1502.2</ele>
        <time>2021-10-10T12:06:45Z</time>
      </trkpt>
      <trkpt lat="45.18048" lon="5.5769">
        <ele>1502.4</ele>
        <time>2021-10-10T12:06:46Z</time>
      </trkpt>
      <trkpt lat="45.1805" lon="5.57691">
        <ele>1502.4</ele>
        <time>2021-10-10T12:06:47Z</time>
      </trkpt>
      <trkpt lat="45.18053" lon="5.57693">
        <ele>1502.4</ele>
        <time>2021-10-10T12:06:48Z</time>
      </trkpt>
      <trkpt lat="45.18056" lon="5.57695">
        <ele>1502.4</ele>
        <time>2021-10-10T12:06:49Z</time>
      </trkpt>
      <trkpt lat="45.18058" lon="5.57697">
        <ele>1503</ele>
        <time>2021-10-10T12:06:50Z</time>
      </trkpt>
      <trkpt lat="45.18061" lon="5.57699">
        <ele>1503</ele>
        <time>2021-10-10T12:06:51Z</time>
      </trkpt>
      <trkpt lat="45.18063" lon="5.577">
        <ele>1503</ele>
        <time>2021-10-10T12:06:52Z</time>
      </trkpt>
      <trkpt lat="45.18065" lon="5.57704">
        <ele>1503.8</ele>
        <time>2021-10-10T12:06:53Z</time>
      </trkpt>
      <trkpt lat="45.18067" lon="5.57707">
        <ele>1504</ele>
        <time>2021-10-10T12:06:54Z</time>
      </trkpt>
      <trkpt lat="45.18069" lon="5.5771">
        <ele>1504</ele>
        <time>2021-10-10T12:06:55Z</time>
      </trkpt>
      <trkpt lat="45.18072" lon="5.57712">
        <ele>1504</ele>
        <time>2021-10-10T12:06:56Z</time>
      </trkpt>
      <trkpt lat="45.18074" lon="5.57715">
        <ele>1504</ele>
        <time>2021-10-10T12:06:57Z</time>
      </trkpt>
      <trkpt lat="45.18075" lon="5.57717">
        <ele>1503.8</ele>
        <time>2021-10-10T12:06:58Z</time>
      </trkpt>
      <trkpt lat="45.18078" lon="5.57719">
        <ele>1503.8</ele>
        <time>2021-10-10T12:06:59Z</time>
      </trkpt>
      <trkpt lat="45.1808" lon="5.57722">
        <ele>1503.8</ele>
        <time>2021-10-10T12:07:00Z</time>
      </trkpt>
      <trkpt lat="45.18081" lon="5.57725">
        <ele>1503.8</ele>
        <time>2021-10-10T12:07:01Z</time>
      </trkpt>
      <trkpt lat="45.18084" lon="5.57729">
        <ele>1504.2</ele>
        <time>2021-10-10T12:07:02Z</time>
      </trkpt>
      <trkpt lat="45.18086" lon="5.57732">
        <ele>1504.2</ele>
        <time>2021-10-10T12:07:03Z</time>
      </trkpt>
      <trkpt lat="45.18087" lon="5.57737">
        <ele>1504.2</ele>
        <time>2021-10-10T12:07:04Z</time>
      </trkpt>
      <trkpt lat="45.18089" lon="5.5774">
        <ele>1504.4</ele>
        <time>2021-10-10T12:07:05Z</time>
      </trkpt>
      <trkpt lat="45.18091" lon="5.57744">
        <ele>1504.6</ele>
        <time>2021-10-10T12:07:06Z</time>
      </trkpt>
      <trkpt lat="45.18092" lon="5.57748">
        <ele>1504.6</ele>
        <time>2021-10-10T12:07:07Z</time>
      </trkpt>
      <trkpt lat="45.18093" lon="5.57752">
        <ele>1504.6</ele>
        <time>2021-10-10T12:07:08Z</time>
      </trkpt>
      <trkpt lat="45.18093" lon="5.57756">
        <ele>1504.6</ele>
        <time>2021-10-10T12:07:09Z</time>
      </trkpt>
      <trkpt lat="45.18094" lon="5.57759">
        <ele>1505.2</ele>
        <time>2021-10-10T12:07:10Z</time>
      </trkpt>
      <trkpt lat="45.18096" lon="5.57762">
        <ele>1505.2</ele>
        <time>2021-10-10T12:07:11Z</time>
      </trkpt>
      <trkpt lat="45.18097" lon="5.57767">
        <ele>1505.2</ele>
        <time>2021-10-10T12:07:12Z</time>
      </trkpt>
      <trkpt lat="45.18097" lon="5.57771">
        <ele>1505.8</ele>
        <time>2021-10-10T12:07:13Z</time>
      </trkpt>
      <trkpt lat="45.18097" lon="5.57774">
        <ele>1506.2</ele>
        <time>2021-10-10T12:07:14Z</time>
      </trkpt>
      <trkpt lat="45.18097" lon="5.57779">
        <ele>1506.2</ele>
        <time>2021-10-10T12:07:15Z</time>
      </trkpt>
      <trkpt lat="45.18098" lon="5.57782">
        <ele>1506.2</ele>
        <time>2021-10-10T12:07:16Z</time>
      </trkpt>
      <trkpt lat="45.18098" lon="5.57787">
        <ele>1506.6</ele>
        <time>2021-10-10T12:07:17Z</time>
      </trkpt>
      <trkpt lat="45.18098" lon="5.57791">
        <ele>1507</ele>
        <time>2021-10-10T12:07:18Z</time>
      </trkpt>
      <trkpt lat="45.18098" lon="5.57795">
        <ele>1507</ele>
        <time>2021-10-10T12:07:19Z</time>
      </trkpt>
      <trkpt lat="45.18097" lon="5.57799">
        <ele>1507</ele>
        <time>2021-10-10T12:07:20Z</time>
      </trkpt>
      <trkpt lat="45.18097" lon="5.57803">
        <ele>1507</ele>
        <time>2021-10-10T12:07:21Z</time>
      </trkpt>
      <trkpt lat="45.18097" lon="5.57806">
        <ele>1507.2</ele>
        <time>2021-10-10T12:07:22Z</time>
      </trkpt>
      <trkpt lat="45.18098" lon="5.5781">
        <ele>1507.2</ele>
        <time>2021-10-10T12:07:23Z</time>
      </trkpt>
      <trkpt lat="45.18098" lon="5.57814">
        <ele>1507.2</ele>
        <time>2021-10-10T12:07:24Z</time>
      </trkpt>
      <trkpt lat="45.18098" lon="5.57818">
        <ele>1508.2</ele>
        <time>2021-10-10T12:07:25Z</time>
      </trkpt>
      <trkpt lat="45.18099" lon="5.5782">
        <ele>1508.4</ele>
        <time>2021-10-10T12:07:26Z</time>
      </trkpt>
      <trkpt lat="45.18099" lon="5.57824">
        <ele>1508.4</ele>
        <time>2021-10-10T12:07:27Z</time>
      </trkpt>
      <trkpt lat="45.18099" lon="5.57828">
        <ele>1508.4</ele>
        <time>2021-10-10T12:07:28Z</time>
      </trkpt>
      <trkpt lat="45.18099" lon="5.57832">
        <ele>1508.4</ele>
        <time>2021-10-10T12:07:29Z</time>
      </trkpt>
      <trkpt lat="45.181" lon="5.57836">
        <ele>1508.4</ele>
        <time>2021-10-10T12:07:30Z</time>
      </trkpt>
      <trkpt lat="45.181" lon="5.5784">
        <ele>1508.4</ele>
        <time>2021-10-10T12:07:31Z</time>
      </trkpt>
      <trkpt lat="45.18101" lon="5.57844">
        <ele>1508.4</ele>
        <time>2021-10-10T12:07:32Z</time>
      </trkpt>
      <trkpt lat="45.18102" lon="5.57847">
        <ele>1509</ele>
        <time>2021-10-10T12:07:33Z</time>
      </trkpt>
      <trkpt lat="45.18103" lon="5.57851">
        <ele>1508.8</ele>
        <time>2021-10-10T12:07:34Z</time>
      </trkpt>
      <trkpt lat="45.18105" lon="5.57854">
        <ele>1508.8</ele>
        <time>2021-10-10T12:07:35Z</time>
      </trkpt>
      <trkpt lat="45.18106" lon="5.57857">
        <ele>1508.8</ele>
        <time>2021-10-10T12:07:36Z</time>
      </trkpt>
      <trkpt lat="45.18107" lon="5.57861">
        <ele>1508.8</ele>
        <time>2021-10-10T12:07:37Z</time>
      </trkpt>
      <trkpt lat="45.18108" lon="5.57864">
        <ele>1509.2</ele>
        <time>2021-10-10T12:07:38Z</time>
      </trkpt>
      <trkpt lat="45.1811" lon="5.57867">
        <ele>1509.2</ele>
        <time>2021-10-10T12:07:39Z</time>
      </trkpt>
      <trkpt lat="45.18112" lon="5.5787">
        <ele>1509.2</ele>
        <time>2021-10-10T12:07:40Z</time>
      </trkpt>
      <trkpt lat="45.18113" lon="5.57873">
        <ele>1509.8</ele>
        <time>2021-10-10T12:07:41Z</time>
      </trkpt>
      <trkpt lat="45.18115" lon="5.57875">
        <ele>1509.8</ele>
        <time>2021-10-10T12:07:42Z</time>
      </trkpt>
      <trkpt lat="45.18117" lon="5.57878">
        <ele>1509.8</ele>
        <time>2021-10-10T12:07:43Z</time>
      </trkpt>
      <trkpt lat="45.18118" lon="5.57879">
        <ele>1509.8</ele>
        <time>2021-10-10T12:07:44Z</time>
      </trkpt>
      <trkpt lat="45.1812" lon="5.57881">
        <ele>1510.4</ele>
        <time>2021-10-10T12:07:45Z</time>
      </trkpt>
      <trkpt lat="45.18122" lon="5.57882">
        <ele>1510.2</ele>
        <time>2021-10-10T12:07:46Z</time>
      </trkpt>
      <trkpt lat="45.18123" lon="5.57883">
        <ele>1510.2</ele>
        <time>2021-10-10T12:07:47Z</time>
      </trkpt>
      <trkpt lat="45.18125" lon="5.57884">
        <ele>1510.2</ele>
        <time>2021-10-10T12:07:48Z</time>
      </trkpt>
      <trkpt lat="45.18126" lon="5.57884">
        <ele>1510.2</ele>
        <time>2021-10-10T12:07:49Z</time>
      </trkpt>
      <trkpt lat="45.18128" lon="5.57884">
        <ele>1510.6</ele>
        <time>2021-10-10T12:07:50Z</time>
      </trkpt>
      <trkpt lat="45.18129" lon="5.57884">
        <ele>1510.6</ele>
        <time>2021-10-10T12:07:51Z</time>
      </trkpt>
      <trkpt lat="45.1813" lon="5.57883">
        <ele>1510.6</ele>
        <time>2021-10-10T12:07:52Z</time>
      </trkpt>
      <trkpt lat="45.18131" lon="5.57883">
        <ele>1511</ele>
        <time>2021-10-10T12:07:53Z</time>
      </trkpt>
      <trkpt lat="45.18131" lon="5.57882">
        <ele>1510.8</ele>
        <time>2021-10-10T12:07:54Z</time>
      </trkpt>
      <trkpt lat="45.18133" lon="5.57877">
        <ele>1509.2</ele>
        <time>2021-10-10T12:09:06Z</time>
      </trkpt>
      <trkpt lat="45.18133" lon="5.57875">
        <ele>1509.2</ele>
        <time>2021-10-10T12:09:07Z</time>
      </trkpt>
      <trkpt lat="45.18134" lon="5.57873">
        <ele>1509.2</ele>
        <time>2021-10-10T12:09:08Z</time>
      </trkpt>
      <trkpt lat="45.18134" lon="5.57871">
        <ele>1508.2</ele>
        <time>2021-10-10T12:09:09Z</time>
      </trkpt>
      <trkpt lat="45.18134" lon="5.57867">
        <ele>1506.8</ele>
        <time>2021-10-10T12:09:10Z</time>
      </trkpt>
      <trkpt lat="45.18134" lon="5.57863">
        <ele>1506.8</ele>
        <time>2021-10-10T12:09:11Z</time>
      </trkpt>
      <trkpt lat="45.18133" lon="5.5786">
        <ele>1506.8</ele>
        <time>2021-10-10T12:09:12Z</time>
      </trkpt>
      <trkpt lat="45.18133" lon="5.57857">
        <ele>1505.8</ele>
        <time>2021-10-10T12:09:13Z</time>
      </trkpt>
      <trkpt lat="45.18133" lon="5.57854">
        <ele>1505.2</ele>
        <time>2021-10-10T12:09:14Z</time>
      </trkpt>
      <trkpt lat="45.18134" lon="5.57851">
        <ele>1505.2</ele>
        <time>2021-10-10T12:09:15Z</time>
      </trkpt>
      <trkpt lat="45.18134" lon="5.57847">
        <ele>1505.2</ele>
        <time>2021-10-10T12:09:16Z</time>
      </trkpt>
      <trkpt lat="45.18134" lon="5.57845">
        <ele>1504.2</ele>
        <time>2021-10-10T12:09:17Z</time>
      </trkpt>
      <trkpt lat="45.18134" lon="5.57842">
        <ele>1502.8</ele>
        <time>2021-10-10T12:09:18Z</time>
      </trkpt>
      <trkpt lat="45.18134" lon="5.5784">
        <ele>1502.8</ele>
        <time>2021-10-10T12:09:19Z</time>
      </trkpt>
      <trkpt lat="45.18134" lon="5.57837">
        <ele>1502.8</ele>
        <time>2021-10-10T12:09:20Z</time>
      </trkpt>
      <trkpt lat="45.18135" lon="5.57834">
        <ele>1502.8</ele>
        <time>2021-10-10T12:09:21Z</time>
      </trkpt>
      <trkpt lat="45.18135" lon="5.57832">
        <ele>1501.6</ele>
        <time>2021-10-10T12:09:22Z</time>
      </trkpt>
      <trkpt lat="45.18136" lon="5.57831">
        <ele>1501.6</ele>
        <time>2021-10-10T12:09:23Z</time>
      </trkpt>
      <trkpt lat="45.18135" lon="5.57829">
        <ele>1501.6</ele>
        <time>2021-10-10T12:09:24Z</time>
      </trkpt>
      <trkpt lat="45.18135" lon="5.57829">
        <ele>1500.8</ele>
        <time>2021-10-10T12:09:25Z</time>
      </trkpt>
      <trkpt lat="45.18134" lon="5.5783">
        <ele>1500.4</ele>
        <time>2021-10-10T12:09:26Z</time>
      </trkpt>
      <trkpt lat="45.18133" lon="5.57829">
        <ele>1500.4</ele>
        <time>2021-10-10T12:09:27Z</time>
      </trkpt>
      <trkpt lat="45.18131" lon="5.5783">
        <ele>1500.4</ele>
        <time>2021-10-10T12:09:28Z</time>
      </trkpt>
      <trkpt lat="45.18129" lon="5.57832">
        <ele>1499.4</ele>
        <time>2021-10-10T12:09:29Z</time>
      </trkpt>
      <trkpt lat="45.18127" lon="5.57833">
        <ele>1499.4</ele>
        <time>2021-10-10T12:09:30Z</time>
      </trkpt>
      <trkpt lat="45.18125" lon="5.57835">
        <ele>1499.4</ele>
        <time>2021-10-10T12:09:31Z</time>
      </trkpt>
      <trkpt lat="45.18123" lon="5.57833">
        <ele>1499.4</ele>
        <time>2021-10-10T12:09:32Z</time>
      </trkpt>
      <trkpt lat="45.18123" lon="5.5783">
        <ele>1498.4</ele>
        <time>2021-10-10T12:09:33Z</time>
      </trkpt>
      <trkpt lat="45.18123" lon="5.57827">
        <ele>1498</ele>
        <time>2021-10-10T12:09:34Z</time>
      </trkpt>
      <trkpt lat="45.18123" lon="5.57823">
        <ele>1498</ele>
        <time>2021-10-10T12:09:35Z</time>
      </trkpt>
      <trkpt lat="45.18124" lon="5.57819">
        <ele>1498</ele>
        <time>2021-10-10T12:09:36Z</time>
      </trkpt>
      <trkpt lat="45.18125" lon="5.57816">
        <ele>1498</ele>
        <time>2021-10-10T12:09:37Z</time>
      </trkpt>
      <trkpt lat="45.18126" lon="5.57813">
        <ele>1497.2</ele>
        <time>2021-10-10T12:09:38Z</time>
      </trkpt>
      <trkpt lat="45.18126" lon="5.57808">
        <ele>1497.2</ele>
        <time>2021-10-10T12:09:39Z</time>
      </trkpt>
      <trkpt lat="45.18127" lon="5.57804">
        <ele>1497.2</ele>
        <time>2021-10-10T12:09:40Z</time>
      </trkpt>
      <trkpt lat="45.18128" lon="5.57803">
        <ele>1497.2</ele>
        <time>2021-10-10T12:09:41Z</time>
      </trkpt>
      <trkpt lat="45.18128" lon="5.57801">
        <ele>1496.6</ele>
        <time>2021-10-10T12:09:42Z</time>
      </trkpt>
      <trkpt lat="45.18129" lon="5.57798">
        <ele>1496.6</ele>
        <time>2021-10-10T12:09:43Z</time>
      </trkpt>
      <trkpt lat="45.1813" lon="5.57794">
        <ele>1496.6</ele>
        <time>2021-10-10T12:09:44Z</time>
      </trkpt>
      <trkpt lat="45.18131" lon="5.57789">
        <ele>1495.6</ele>
        <time>2021-10-10T12:09:45Z</time>
      </trkpt>
      <trkpt lat="45.18131" lon="5.57785">
        <ele>1495.2</ele>
        <time>2021-10-10T12:09:46Z</time>
      </trkpt>
      <trkpt lat="45.18132" lon="5.57782">
        <ele>1495.2</ele>
        <time>2021-10-10T12:09:47Z</time>
      </trkpt>
      <trkpt lat="45.18132" lon="5.57778">
        <ele>1495.2</ele>
        <time>2021-10-10T12:09:48Z</time>
      </trkpt>
      <trkpt lat="45.18133" lon="5.57775">
        <ele>1494.2</ele>
        <time>2021-10-10T12:09:49Z</time>
      </trkpt>
      <trkpt lat="45.18133" lon="5.57771">
        <ele>1493.8</ele>
        <time>2021-10-10T12:09:50Z</time>
      </trkpt>
      <trkpt lat="45.18133" lon="5.57766">
        <ele>1493.8</ele>
        <time>2021-10-10T12:09:51Z</time>
      </trkpt>
      <trkpt lat="45.18133" lon="5.57761">
        <ele>1493.8</ele>
        <time>2021-10-10T12:09:52Z</time>
      </trkpt>
      <trkpt lat="45.18134" lon="5.57757">
        <ele>1492.8</ele>
        <time>2021-10-10T12:09:53Z</time>
      </trkpt>
      <trkpt lat="45.18133" lon="5.57754">
        <ele>1492.2</ele>
        <time>2021-10-10T12:09:54Z</time>
      </trkpt>
      <trkpt lat="45.18133" lon="5.57751">
        <ele>1492.2</ele>
        <time>2021-10-10T12:09:55Z</time>
      </trkpt>
      <trkpt lat="45.18133" lon="5.57747">
        <ele>1492.2</ele>
        <time>2021-10-10T12:09:56Z</time>
      </trkpt>
      <trkpt lat="45.18133" lon="5.57743">
        <ele>1491.2</ele>
        <time>2021-10-10T12:09:57Z</time>
      </trkpt>
      <trkpt lat="45.18133" lon="5.5774">
        <ele>1489.8</ele>
        <time>2021-10-10T12:09:58Z</time>
      </trkpt>
      <trkpt lat="45.18132" lon="5.57735">
        <ele>1489.8</ele>
        <time>2021-10-10T12:09:59Z</time>
      </trkpt>
      <trkpt lat="45.18131" lon="5.57731">
        <ele>1489.8</ele>
        <time>2021-10-10T12:10:00Z</time>
      </trkpt>
      <trkpt lat="45.18132" lon="5.57727">
        <ele>1488.8</ele>
        <time>2021-10-10T12:10:01Z</time>
      </trkpt>
      <trkpt lat="45.18132" lon="5.57723">
        <ele>1487.8</ele>
        <time>2021-10-10T12:10:02Z</time>
      </trkpt>
      <trkpt lat="45.1813" lon="5.57718">
        <ele>1487.8</ele>
        <time>2021-10-10T12:10:03Z</time>
      </trkpt>
      <trkpt lat="45.18129" lon="5.57713">
        <ele>1487.8</ele>
        <time>2021-10-10T12:10:04Z</time>
      </trkpt>
      <trkpt lat="45.18128" lon="5.57708">
        <ele>1487.8</ele>
        <time>2021-10-10T12:10:05Z</time>
      </trkpt>
      <trkpt lat="45.18126" lon="5.57703">
        <ele>1487.8</ele>
        <time>2021-10-10T12:10:06Z</time>
      </trkpt>
      <trkpt lat="45.18124" lon="5.57699">
        <ele>1485.4</ele>
        <time>2021-10-10T12:10:07Z</time>
      </trkpt>
      <trkpt lat="45.18122" lon="5.57695">
        <ele>1485.4</ele>
        <time>2021-10-10T12:10:08Z</time>
      </trkpt>
      <trkpt lat="45.18121" lon="5.57691">
        <ele>1485.4</ele>
        <time>2021-10-10T12:10:09Z</time>
      </trkpt>
      <trkpt lat="45.18119" lon="5.57686">
        <ele>1484.6</ele>
        <time>2021-10-10T12:10:10Z</time>
      </trkpt>
      <trkpt lat="45.18117" lon="5.57683">
        <ele>1484.6</ele>
        <time>2021-10-10T12:10:11Z</time>
      </trkpt>
      <trkpt lat="45.18116" lon="5.57679">
        <ele>1484.6</ele>
        <time>2021-10-10T12:10:12Z</time>
      </trkpt>
      <trkpt lat="45.18113" lon="5.57676">
        <ele>1483.8</ele>
        <time>2021-10-10T12:10:13Z</time>
      </trkpt>
      <trkpt lat="45.18111" lon="5.57673">
        <ele>1483.4</ele>
        <time>2021-10-10T12:10:14Z</time>
      </trkpt>
      <trkpt lat="45.1811" lon="5.57671">
        <ele>1483.4</ele>
        <time>2021-10-10T12:10:15Z</time>
      </trkpt>
      <trkpt lat="45.18109" lon="5.57669">
        <ele>1483.4</ele>
        <time>2021-10-10T12:10:16Z</time>
      </trkpt>
      <trkpt lat="45.18108" lon="5.57667">
        <ele>1482.4</ele>
        <time>2021-10-10T12:10:17Z</time>
      </trkpt>
      <trkpt lat="45.18106" lon="5.57664">
        <ele>1480.4</ele>
        <time>2021-10-10T12:10:18Z</time>
      </trkpt>
      <trkpt lat="45.18104" lon="5.57662">
        <ele>1480.4</ele>
        <time>2021-10-10T12:10:19Z</time>
      </trkpt>
      <trkpt lat="45.18102" lon="5.57657">
        <ele>1480.4</ele>
        <time>2021-10-10T12:10:20Z</time>
      </trkpt>
      <trkpt lat="45.181" lon="5.57655">
        <ele>1480.4</ele>
        <time>2021-10-10T12:10:21Z</time>
      </trkpt>
      <trkpt lat="45.18098" lon="5.57652">
        <ele>1478.8</ele>
        <time>2021-10-10T12:10:22Z</time>
      </trkpt>
      <trkpt lat="45.18096" lon="5.5765">
        <ele>1478.8</ele>
        <time>2021-10-10T12:10:23Z</time>
      </trkpt>
      <trkpt lat="45.18094" lon="5.57648">
        <ele>1478.8</ele>
        <time>2021-10-10T12:10:24Z</time>
      </trkpt>
      <trkpt lat="45.18092" lon="5.57646">
        <ele>1478.8</ele>
        <time>2021-10-10T12:10:25Z</time>
      </trkpt>
      <trkpt lat="45.1809" lon="5.57642">
        <ele>1477.4</ele>
        <time>2021-10-10T12:10:26Z</time>
      </trkpt>
      <trkpt lat="45.18088" lon="5.5764">
        <ele>1477.4</ele>
        <time>2021-10-10T12:10:27Z</time>
      </trkpt>
      <trkpt lat="45.18087" lon="5.57638">
        <ele>1477.4</ele>
        <time>2021-10-10T12:10:28Z</time>
      </trkpt>
      <trkpt lat="45.18085" lon="5.57638">
        <ele>1477.4</ele>
        <time>2021-10-10T12:10:29Z</time>
      </trkpt>
      <trkpt lat="45.18084" lon="5.57637">
        <ele>1475.8</ele>
        <time>2021-10-10T12:10:30Z</time>
      </trkpt>
      <trkpt lat="45.18082" lon="5.57635">
        <ele>1475.8</ele>
        <time>2021-10-10T12:10:31Z</time>
      </trkpt>
      <trkpt lat="45.1808" lon="5.57632">
        <ele>1475.8</ele>
        <time>2021-10-10T12:10:32Z</time>
      </trkpt>
      <trkpt lat="45.18078" lon="5.5763">
        <ele>1474.8</ele>
        <time>2021-10-10T12:10:33Z</time>
      </trkpt>
      <trkpt lat="45.18076" lon="5.57629">
        <ele>1473.8</ele>
        <time>2021-10-10T12:10:34Z</time>
      </trkpt>
      <trkpt lat="45.18074" lon="5.57628">
        <ele>1473.8</ele>
        <time>2021-10-10T12:10:35Z</time>
      </trkpt>
      <trkpt lat="45.18073" lon="5.57627">
        <ele>1473.8</ele>
        <time>2021-10-10T12:10:36Z</time>
      </trkpt>
      <trkpt lat="45.18071" lon="5.57626">
        <ele>1473.8</ele>
        <time>2021-10-10T12:10:37Z</time>
      </trkpt>
      <trkpt lat="45.18069" lon="5.57625">
        <ele>1472.6</ele>
        <time>2021-10-10T12:10:38Z</time>
      </trkpt>
      <trkpt lat="45.18068" lon="5.57622">
        <ele>1472.6</ele>
        <time>2021-10-10T12:10:39Z</time>
      </trkpt>
      <trkpt lat="45.18065" lon="5.57619">
        <ele>1472.6</ele>
        <time>2021-10-10T12:10:40Z</time>
      </trkpt>
      <trkpt lat="45.18063" lon="5.57617">
        <ele>1471.6</ele>
        <time>2021-10-10T12:10:41Z</time>
      </trkpt>
      <trkpt lat="45.18059" lon="5.57616">
        <ele>1470</ele>
        <time>2021-10-10T12:10:42Z</time>
      </trkpt>
      <trkpt lat="45.18056" lon="5.57614">
        <ele>1470</ele>
        <time>2021-10-10T12:10:43Z</time>
      </trkpt>
      <trkpt lat="45.18052" lon="5.57612">
        <ele>1470</ele>
        <time>2021-10-10T12:10:44Z</time>
      </trkpt>
      <trkpt lat="45.18049" lon="5.5761">
        <ele>1470</ele>
        <time>2021-10-10T12:10:45Z</time>
      </trkpt>
      <trkpt lat="45.18046" lon="5.5761">
        <ele>1469.4</ele>
        <time>2021-10-10T12:10:46Z</time>
      </trkpt>
      <trkpt lat="45.18043" lon="5.57609">
        <ele>1469.4</ele>
        <time>2021-10-10T12:10:47Z</time>
      </trkpt>
      <trkpt lat="45.18041" lon="5.57608">
        <ele>1469.4</ele>
        <time>2021-10-10T12:10:48Z</time>
      </trkpt>
      <trkpt lat="45.18038" lon="5.57609">
        <ele>1469.4</ele>
        <time>2021-10-10T12:10:49Z</time>
      </trkpt>
      <trkpt lat="45.18036" lon="5.57607">
        <ele>1468.4</ele>
        <time>2021-10-10T12:10:50Z</time>
      </trkpt>
      <trkpt lat="45.18034" lon="5.57604">
        <ele>1468.4</ele>
        <time>2021-10-10T12:10:51Z</time>
      </trkpt>
      <trkpt lat="45.18033" lon="5.57605">
        <ele>1468.4</ele>
        <time>2021-10-10T12:10:52Z</time>
      </trkpt>
      <trkpt lat="45.18033" lon="5.57605">
        <ele>1468.4</ele>
        <time>2021-10-10T12:10:53Z</time>
      </trkpt>
      <trkpt lat="45.18033" lon="5.57605">
        <ele>1467.8</ele>
        <time>2021-10-10T12:10:54Z</time>
      </trkpt>
      <trkpt lat="45.18032" lon="5.57604">
        <ele>1467.8</ele>
        <time>2021-10-10T12:10:55Z</time>
      </trkpt>
      <trkpt lat="45.18032" lon="5.57603">
        <ele>1467.8</ele>
        <time>2021-10-10T12:10:56Z</time>
      </trkpt>
      <trkpt lat="45.18032" lon="5.57601">
        <ele>1466.8</ele>
        <time>2021-10-10T12:10:57Z</time>
      </trkpt>
      <trkpt lat="45.18032" lon="5.57599">
        <ele>1464.8</ele>
        <time>2021-10-10T12:10:58Z</time>
      </trkpt>
      <trkpt lat="45.18032" lon="5.57596">
        <ele>1464.8</ele>
        <time>2021-10-10T12:10:59Z</time>
      </trkpt>
      <trkpt lat="45.18032" lon="5.57594">
        <ele>1464.8</ele>
        <time>2021-10-10T12:11:00Z</time>
      </trkpt>
      <trkpt lat="45.18033" lon="5.57591">
        <ele>1465</ele>
        <time>2021-10-10T12:11:01Z</time>
      </trkpt>
      <trkpt lat="45.18033" lon="5.57589">
        <ele>1463.8</ele>
        <time>2021-10-10T12:11:02Z</time>
      </trkpt>
      <trkpt lat="45.18034" lon="5.57587">
        <ele>1463.8</ele>
        <time>2021-10-10T12:11:03Z</time>
      </trkpt>
      <trkpt lat="45.18034" lon="5.57585">
        <ele>1463.8</ele>
        <time>2021-10-10T12:11:04Z</time>
      </trkpt>
      <trkpt lat="45.18034" lon="5.57583">
        <ele>1462.8</ele>
        <time>2021-10-10T12:11:05Z</time>
      </trkpt>
      <trkpt lat="45.18035" lon="5.57581">
        <ele>1462.6</ele>
        <time>2021-10-10T12:11:06Z</time>
      </trkpt>
      <trkpt lat="45.18035" lon="5.5758">
        <ele>1462.6</ele>
        <time>2021-10-10T12:11:07Z</time>
      </trkpt>
      <trkpt lat="45.18035" lon="5.57577">
        <ele>1462.6</ele>
        <time>2021-10-10T12:11:08Z</time>
      </trkpt>
      <trkpt lat="45.18036" lon="5.57575">
        <ele>1462.6</ele>
        <time>2021-10-10T12:11:09Z</time>
      </trkpt>
      <trkpt lat="45.18036" lon="5.57572">
        <ele>1460.8</ele>
        <time>2021-10-10T12:11:10Z</time>
      </trkpt>
      <trkpt lat="45.18036" lon="5.5757">
        <ele>1460.8</ele>
        <time>2021-10-10T12:11:11Z</time>
      </trkpt>
      <trkpt lat="45.18036" lon="5.57567">
        <ele>1460.8</ele>
        <time>2021-10-10T12:11:12Z</time>
      </trkpt>
      <trkpt lat="45.18035" lon="5.57566">
        <ele>1460.8</ele>
        <time>2021-10-10T12:11:13Z</time>
      </trkpt>
      <trkpt lat="45.18035" lon="5.57564">
        <ele>1459.8</ele>
        <time>2021-10-10T12:11:14Z</time>
      </trkpt>
      <trkpt lat="45.18035" lon="5.57561">
        <ele>1459.8</ele>
        <time>2021-10-10T12:11:15Z</time>
      </trkpt>
      <trkpt lat="45.18035" lon="5.57558">
        <ele>1459.8</ele>
        <time>2021-10-10T12:11:16Z</time>
      </trkpt>
      <trkpt lat="45.18035" lon="5.57556">
        <ele>1458.8</ele>
        <time>2021-10-10T12:11:17Z</time>
      </trkpt>
      <trkpt lat="45.18036" lon="5.57553">
        <ele>1457.8</ele>
        <time>2021-10-10T12:11:18Z</time>
      </trkpt>
      <trkpt lat="45.18036" lon="5.5755">
        <ele>1457.8</ele>
        <time>2021-10-10T12:11:19Z</time>
      </trkpt>
      <trkpt lat="45.18037" lon="5.57547">
        <ele>1457.8</ele>
        <time>2021-10-10T12:11:20Z</time>
      </trkpt>
      <trkpt lat="45.18037" lon="5.57544">
        <ele>1457.8</ele>
        <time>2021-10-10T12:11:21Z</time>
      </trkpt>
      <trkpt lat="45.18038" lon="5.57542">
        <ele>1456</ele>
        <time>2021-10-10T12:11:22Z</time>
      </trkpt>
      <trkpt lat="45.18038" lon="5.57539">
        <ele>1456</ele>
        <time>2021-10-10T12:11:23Z</time>
      </trkpt>
      <trkpt lat="45.18038" lon="5.57536">
        <ele>1456</ele>
        <time>2021-10-10T12:11:24Z</time>
      </trkpt>
      <trkpt lat="45.18039" lon="5.57533">
        <ele>1455.8</ele>
        <time>2021-10-10T12:11:25Z</time>
      </trkpt>
      <trkpt lat="45.18037" lon="5.57529">
        <ele>1455</ele>
        <time>2021-10-10T12:11:26Z</time>
      </trkpt>
      <trkpt lat="45.18036" lon="5.57526">
        <ele>1455</ele>
        <time>2021-10-10T12:11:27Z</time>
      </trkpt>
      <trkpt lat="45.18035" lon="5.57523">
        <ele>1455</ele>
        <time>2021-10-10T12:11:28Z</time>
      </trkpt>
      <trkpt lat="45.18033" lon="5.5752">
        <ele>1454</ele>
        <time>2021-10-10T12:11:29Z</time>
      </trkpt>
      <trkpt lat="45.18032" lon="5.57517">
        <ele>1453.6</ele>
        <time>2021-10-10T12:11:30Z</time>
      </trkpt>
      <trkpt lat="45.1803" lon="5.57514">
        <ele>1453.6</ele>
        <time>2021-10-10T12:11:31Z</time>
      </trkpt>
      <trkpt lat="45.18028" lon="5.57511">
        <ele>1453.6</ele>
        <time>2021-10-10T12:11:32Z</time>
      </trkpt>
      <trkpt lat="45.18027" lon="5.57508">
        <ele>1453.6</ele>
        <time>2021-10-10T12:11:33Z</time>
      </trkpt>
      <trkpt lat="45.18026" lon="5.57506">
        <ele>1451.2</ele>
        <time>2021-10-10T12:11:34Z</time>
      </trkpt>
      <trkpt lat="45.18023" lon="5.57502">
        <ele>1451.2</ele>
        <time>2021-10-10T12:11:35Z</time>
      </trkpt>
      <trkpt lat="45.18022" lon="5.575">
        <ele>1451.2</ele>
        <time>2021-10-10T12:11:36Z</time>
      </trkpt>
      <trkpt lat="45.1802" lon="5.57497">
        <ele>1450.2</ele>
        <time>2021-10-10T12:11:37Z</time>
      </trkpt>
      <trkpt lat="45.18019" lon="5.57494">
        <ele>1450</ele>
        <time>2021-10-10T12:11:38Z</time>
      </trkpt>
      <trkpt lat="45.18016" lon="5.57488">
        <ele>1450</ele>
        <time>2021-10-10T12:11:39Z</time>
      </trkpt>
      <trkpt lat="45.18015" lon="5.57484">
        <ele>1450</ele>
        <time>2021-10-10T12:11:40Z</time>
      </trkpt>
      <trkpt lat="45.18013" lon="5.57481">
        <ele>1449</ele>
        <time>2021-10-10T12:11:41Z</time>
      </trkpt>
      <trkpt lat="45.18012" lon="5.57477">
        <ele>1447.4</ele>
        <time>2021-10-10T12:11:42Z</time>
      </trkpt>
      <trkpt lat="45.18009" lon="5.57474">
        <ele>1447.4</ele>
        <time>2021-10-10T12:11:43Z</time>
      </trkpt>
      <trkpt lat="45.18007" lon="5.5747">
        <ele>1447.4</ele>
        <time>2021-10-10T12:11:44Z</time>
      </trkpt>
      <trkpt lat="45.18004" lon="5.57467">
        <ele>1446.4</ele>
        <time>2021-10-10T12:11:45Z</time>
      </trkpt>
      <trkpt lat="45.18002" lon="5.57464">
        <ele>1446.2</ele>
        <time>2021-10-10T12:11:46Z</time>
      </trkpt>
      <trkpt lat="45.18001" lon="5.57461">
        <ele>1446.2</ele>
        <time>2021-10-10T12:11:47Z</time>
      </trkpt>
      <trkpt lat="45.17999" lon="5.57461">
        <ele>1446.2</ele>
        <time>2021-10-10T12:11:48Z</time>
      </trkpt>
      <trkpt lat="45.17998" lon="5.57461">
        <ele>1445.2</ele>
        <time>2021-10-10T12:11:49Z</time>
      </trkpt>
      <trkpt lat="45.17996" lon="5.57461">
        <ele>1444.4</ele>
        <time>2021-10-10T12:13:11Z</time>
      </trkpt>
      <trkpt lat="45.17996" lon="5.57461">
        <ele>1444.4</ele>
        <time>2021-10-10T12:13:12Z</time>
      </trkpt>
      <trkpt lat="45.17993" lon="5.57457">
        <ele>1443.4</ele>
        <time>2021-10-10T12:13:13Z</time>
      </trkpt>
      <trkpt lat="45.17991" lon="5.57457">
        <ele>1442.4</ele>
        <time>2021-10-10T12:13:14Z</time>
      </trkpt>
      <trkpt lat="45.17989" lon="5.57457">
        <ele>1442.4</ele>
        <time>2021-10-10T12:13:15Z</time>
      </trkpt>
      <trkpt lat="45.17986" lon="5.57457">
        <ele>1442.4</ele>
        <time>2021-10-10T12:13:16Z</time>
      </trkpt>
      <trkpt lat="45.17984" lon="5.57458">
        <ele>1441.4</ele>
        <time>2021-10-10T12:13:17Z</time>
      </trkpt>
      <trkpt lat="45.17982" lon="5.57458">
        <ele>1440.8</ele>
        <time>2021-10-10T12:13:18Z</time>
      </trkpt>
      <trkpt lat="45.1798" lon="5.57458">
        <ele>1440.8</ele>
        <time>2021-10-10T12:13:19Z</time>
      </trkpt>
      <trkpt lat="45.17977" lon="5.57458">
        <ele>1440.8</ele>
        <time>2021-10-10T12:13:20Z</time>
      </trkpt>
      <trkpt lat="45.17975" lon="5.57459">
        <ele>1439.8</ele>
        <time>2021-10-10T12:13:21Z</time>
      </trkpt>
      <trkpt lat="45.17973" lon="5.5746">
        <ele>1438.2</ele>
        <time>2021-10-10T12:13:22Z</time>
      </trkpt>
      <trkpt lat="45.1797" lon="5.5746">
        <ele>1438.2</ele>
        <time>2021-10-10T12:13:23Z</time>
      </trkpt>
      <trkpt lat="45.17968" lon="5.57461">
        <ele>1438.2</ele>
        <time>2021-10-10T12:13:24Z</time>
      </trkpt>
      <trkpt lat="45.17966" lon="5.57462">
        <ele>1437.2</ele>
        <time>2021-10-10T12:13:25Z</time>
      </trkpt>
      <trkpt lat="45.17963" lon="5.57462">
        <ele>1436.4</ele>
        <time>2021-10-10T12:13:26Z</time>
      </trkpt>
      <trkpt lat="45.17961" lon="5.57463">
        <ele>1436.4</ele>
        <time>2021-10-10T12:13:27Z</time>
      </trkpt>
      <trkpt lat="45.17958" lon="5.57463">
        <ele>1436.4</ele>
        <time>2021-10-10T12:13:28Z</time>
      </trkpt>
      <trkpt lat="45.17955" lon="5.57463">
        <ele>1435.4</ele>
        <time>2021-10-10T12:13:29Z</time>
      </trkpt>
      <trkpt lat="45.17952" lon="5.57463">
        <ele>1435</ele>
        <time>2021-10-10T12:13:30Z</time>
      </trkpt>
      <trkpt lat="45.17949" lon="5.57463">
        <ele>1435</ele>
        <time>2021-10-10T12:13:31Z</time>
      </trkpt>
      <trkpt lat="45.17947" lon="5.57464">
        <ele>1435</ele>
        <time>2021-10-10T12:13:32Z</time>
      </trkpt>
      <trkpt lat="45.17945" lon="5.57464">
        <ele>1434</ele>
        <time>2021-10-10T12:13:33Z</time>
      </trkpt>
      <trkpt lat="45.17942" lon="5.57464">
        <ele>1433.2</ele>
        <time>2021-10-10T12:13:34Z</time>
      </trkpt>
      <trkpt lat="45.17939" lon="5.57464">
        <ele>1433.2</ele>
        <time>2021-10-10T12:13:35Z</time>
      </trkpt>
      <trkpt lat="45.17937" lon="5.57465">
        <ele>1433.2</ele>
        <time>2021-10-10T12:13:36Z</time>
      </trkpt>
      <trkpt lat="45.17934" lon="5.57466">
        <ele>1432.2</ele>
        <time>2021-10-10T12:13:37Z</time>
      </trkpt>
      <trkpt lat="45.17933" lon="5.57467">
        <ele>1431.6</ele>
        <time>2021-10-10T12:13:38Z</time>
      </trkpt>
      <trkpt lat="45.1793" lon="5.57469">
        <ele>1431.6</ele>
        <time>2021-10-10T12:13:39Z</time>
      </trkpt>
      <trkpt lat="45.17928" lon="5.5747">
        <ele>1431.6</ele>
        <time>2021-10-10T12:13:40Z</time>
      </trkpt>
      <trkpt lat="45.17926" lon="5.5747">
        <ele>1430.6</ele>
        <time>2021-10-10T12:13:41Z</time>
      </trkpt>
      <trkpt lat="45.17923" lon="5.5747">
        <ele>1430</ele>
        <time>2021-10-10T12:13:42Z</time>
      </trkpt>
      <trkpt lat="45.17921" lon="5.57472">
        <ele>1430</ele>
        <time>2021-10-10T12:13:43Z</time>
      </trkpt>
      <trkpt lat="45.17919" lon="5.57474">
        <ele>1430</ele>
        <time>2021-10-10T12:13:44Z</time>
      </trkpt>
      <trkpt lat="45.17917" lon="5.57478">
        <ele>1429</ele>
        <time>2021-10-10T12:13:45Z</time>
      </trkpt>
      <trkpt lat="45.17914" lon="5.57479">
        <ele>1427.6</ele>
        <time>2021-10-10T12:13:46Z</time>
      </trkpt>
      <trkpt lat="45.17912" lon="5.5748">
        <ele>1427.6</ele>
        <time>2021-10-10T12:13:47Z</time>
      </trkpt>
      <trkpt lat="45.17911" lon="5.57481">
        <ele>1427.6</ele>
        <time>2021-10-10T12:13:48Z</time>
      </trkpt>
      <trkpt lat="45.17909" lon="5.57481">
        <ele>1426.6</ele>
        <time>2021-10-10T12:13:49Z</time>
      </trkpt>
      <trkpt lat="45.17907" lon="5.57481">
        <ele>1425.8</ele>
        <time>2021-10-10T12:13:50Z</time>
      </trkpt>
      <trkpt lat="45.17905" lon="5.57483">
        <ele>1425.8</ele>
        <time>2021-10-10T12:13:51Z</time>
      </trkpt>
      <trkpt lat="45.17903" lon="5.57482">
        <ele>1425.8</ele>
        <time>2021-10-10T12:13:52Z</time>
      </trkpt>
      <trkpt lat="45.17901" lon="5.57482">
        <ele>1425</ele>
        <time>2021-10-10T12:13:53Z</time>
      </trkpt>
      <trkpt lat="45.17899" lon="5.57479">
        <ele>1424.8</ele>
        <time>2021-10-10T12:13:54Z</time>
      </trkpt>
      <trkpt lat="45.17897" lon="5.57476">
        <ele>1424.8</ele>
        <time>2021-10-10T12:13:55Z</time>
      </trkpt>
      <trkpt lat="45.17896" lon="5.57474">
        <ele>1424.8</ele>
        <time>2021-10-10T12:13:56Z</time>
      </trkpt>
      <trkpt lat="45.17896" lon="5.57471">
        <ele>1424.8</ele>
        <time>2021-10-10T12:13:57Z</time>
      </trkpt>
      <trkpt lat="45.17895" lon="5.57469">
        <ele>1423.4</ele>
        <time>2021-10-10T12:13:58Z</time>
      </trkpt>
      <trkpt lat="45.17893" lon="5.57467">
        <ele>1423.4</ele>
        <time>2021-10-10T12:13:59Z</time>
      </trkpt>
      <trkpt lat="45.17892" lon="5.57465">
        <ele>1423.4</ele>
        <time>2021-10-10T12:14:00Z</time>
      </trkpt>
      <trkpt lat="45.17891" lon="5.57463">
        <ele>1422.6</ele>
        <time>2021-10-10T12:14:01Z</time>
      </trkpt>
      <trkpt lat="45.1789" lon="5.57461">
        <ele>1422</ele>
        <time>2021-10-10T12:14:02Z</time>
      </trkpt>
      <trkpt lat="45.17888" lon="5.57459">
        <ele>1422</ele>
        <time>2021-10-10T12:14:03Z</time>
      </trkpt>
      <trkpt lat="45.17887" lon="5.57457">
        <ele>1422</ele>
        <time>2021-10-10T12:14:04Z</time>
      </trkpt>
      <trkpt lat="45.17884" lon="5.57455">
        <ele>1421</ele>
        <time>2021-10-10T12:14:05Z</time>
      </trkpt>
      <trkpt lat="45.17883" lon="5.57453">
        <ele>1420.4</ele>
        <time>2021-10-10T12:14:06Z</time>
      </trkpt>
      <trkpt lat="45.1788" lon="5.57452">
        <ele>1420.4</ele>
        <time>2021-10-10T12:14:07Z</time>
      </trkpt>
      <trkpt lat="45.17878" lon="5.57449">
        <ele>1420.4</ele>
        <time>2021-10-10T12:14:08Z</time>
      </trkpt>
      <trkpt lat="45.17877" lon="5.57448">
        <ele>1420.4</ele>
        <time>2021-10-10T12:14:09Z</time>
      </trkpt>
      <trkpt lat="45.17875" lon="5.57446">
        <ele>1420.2</ele>
        <time>2021-10-10T12:14:10Z</time>
      </trkpt>
      <trkpt lat="45.17874" lon="5.57443">
        <ele>1420.2</ele>
        <time>2021-10-10T12:14:11Z</time>
      </trkpt>
      <trkpt lat="45.17872" lon="5.5744">
        <ele>1420.2</ele>
        <time>2021-10-10T12:14:12Z</time>
      </trkpt>
      <trkpt lat="45.17871" lon="5.57434">
        <ele>1419.2</ele>
        <time>2021-10-10T12:14:13Z</time>
      </trkpt>
      <trkpt lat="45.17869" lon="5.57428">
        <ele>1417.4</ele>
        <time>2021-10-10T12:14:14Z</time>
      </trkpt>
      <trkpt lat="45.17866" lon="5.57422">
        <ele>1417.4</ele>
        <time>2021-10-10T12:14:15Z</time>
      </trkpt>
      <trkpt lat="45.17864" lon="5.57417">
        <ele>1417.4</ele>
        <time>2021-10-10T12:14:16Z</time>
      </trkpt>
      <trkpt lat="45.17861" lon="5.57413">
        <ele>1417.4</ele>
        <time>2021-10-10T12:14:17Z</time>
      </trkpt>
      <trkpt lat="45.17859" lon="5.5741">
        <ele>1415.6</ele>
        <time>2021-10-10T12:14:18Z</time>
      </trkpt>
      <trkpt lat="45.17858" lon="5.57407">
        <ele>1415.6</ele>
        <time>2021-10-10T12:14:19Z</time>
      </trkpt>
      <trkpt lat="45.17855" lon="5.57403">
        <ele>1415.6</ele>
        <time>2021-10-10T12:14:20Z</time>
      </trkpt>
      <trkpt lat="45.17852" lon="5.57398">
        <ele>1415.6</ele>
        <time>2021-10-10T12:14:21Z</time>
      </trkpt>
      <trkpt lat="45.17849" lon="5.57393">
        <ele>1414.6</ele>
        <time>2021-10-10T12:14:22Z</time>
      </trkpt>
      <trkpt lat="45.17847" lon="5.57389">
        <ele>1414.6</ele>
        <time>2021-10-10T12:14:23Z</time>
      </trkpt>
      <trkpt lat="45.17845" lon="5.57387">
        <ele>1414.6</ele>
        <time>2021-10-10T12:14:24Z</time>
      </trkpt>
      <trkpt lat="45.17843" lon="5.57384">
        <ele>1414.6</ele>
        <time>2021-10-10T12:14:25Z</time>
      </trkpt>
      <trkpt lat="45.17841" lon="5.57382">
        <ele>1414.2</ele>
        <time>2021-10-10T12:14:26Z</time>
      </trkpt>
      <trkpt lat="45.17839" lon="5.57379">
        <ele>1414.2</ele>
        <time>2021-10-10T12:14:27Z</time>
      </trkpt>
      <trkpt lat="45.17836" lon="5.57375">
        <ele>1414.2</ele>
        <time>2021-10-10T12:14:28Z</time>
      </trkpt>
      <trkpt lat="45.17833" lon="5.57369">
        <ele>1413.2</ele>
        <time>2021-10-10T12:14:29Z</time>
      </trkpt>
      <trkpt lat="45.1783" lon="5.57363">
        <ele>1410.4</ele>
        <time>2021-10-10T12:14:30Z</time>
      </trkpt>
      <trkpt lat="45.17828" lon="5.57358">
        <ele>1410.4</ele>
        <time>2021-10-10T12:14:31Z</time>
      </trkpt>
      <trkpt lat="45.17826" lon="5.57353">
        <ele>1410.4</ele>
        <time>2021-10-10T12:14:32Z</time>
      </trkpt>
      <trkpt lat="45.17826" lon="5.57348">
        <ele>1410.4</ele>
        <time>2021-10-10T12:14:33Z</time>
      </trkpt>
      <trkpt lat="45.17826" lon="5.57343">
        <ele>1410</ele>
        <time>2021-10-10T12:14:34Z</time>
      </trkpt>
      <trkpt lat="45.17826" lon="5.57338">
        <ele>1410</ele>
        <time>2021-10-10T12:14:35Z</time>
      </trkpt>
      <trkpt lat="45.17824" lon="5.57332">
        <ele>1410</ele>
        <time>2021-10-10T12:14:36Z</time>
      </trkpt>
      <trkpt lat="45.17823" lon="5.57329">
        <ele>1409</ele>
        <time>2021-10-10T12:14:37Z</time>
      </trkpt>
      <trkpt lat="45.1782" lon="5.57327">
        <ele>1408</ele>
        <time>2021-10-10T12:14:38Z</time>
      </trkpt>
      <trkpt lat="45.17817" lon="5.57327">
        <ele>1408</ele>
        <time>2021-10-10T12:14:39Z</time>
      </trkpt>
      <trkpt lat="45.17813" lon="5.57327">
        <ele>1408</ele>
        <time>2021-10-10T12:14:40Z</time>
      </trkpt>
      <trkpt lat="45.17809" lon="5.5733">
        <ele>1407</ele>
        <time>2021-10-10T12:14:41Z</time>
      </trkpt>
      <trkpt lat="45.17805" lon="5.5733">
        <ele>1405.6</ele>
        <time>2021-10-10T12:14:42Z</time>
      </trkpt>
      <trkpt lat="45.17801" lon="5.57331">
        <ele>1405.6</ele>
        <time>2021-10-10T12:14:43Z</time>
      </trkpt>
      <trkpt lat="45.17798" lon="5.57332">
        <ele>1405.6</ele>
        <time>2021-10-10T12:14:44Z</time>
      </trkpt>
      <trkpt lat="45.17794" lon="5.57334">
        <ele>1404.6</ele>
        <time>2021-10-10T12:14:45Z</time>
      </trkpt>
      <trkpt lat="45.1779" lon="5.57336">
        <ele>1401.8</ele>
        <time>2021-10-10T12:14:46Z</time>
      </trkpt>
      <trkpt lat="45.17787" lon="5.57337">
        <ele>1401.8</ele>
        <time>2021-10-10T12:14:47Z</time>
      </trkpt>
      <trkpt lat="45.17784" lon="5.57339">
        <ele>1401.8</ele>
        <time>2021-10-10T12:14:48Z</time>
      </trkpt>
      <trkpt lat="45.17779" lon="5.5734">
        <ele>1401.8</ele>
        <time>2021-10-10T12:14:49Z</time>
      </trkpt>
      <trkpt lat="45.17775" lon="5.57338">
        <ele>1399.6</ele>
        <time>2021-10-10T12:14:50Z</time>
      </trkpt>
      <trkpt lat="45.17771" lon="5.57338">
        <ele>1399.6</ele>
        <time>2021-10-10T12:14:51Z</time>
      </trkpt>
      <trkpt lat="45.17767" lon="5.57338">
        <ele>1399.6</ele>
        <time>2021-10-10T12:14:52Z</time>
      </trkpt>
      <trkpt lat="45.17764" lon="5.57336">
        <ele>1398.6</ele>
        <time>2021-10-10T12:14:53Z</time>
      </trkpt>
      <trkpt lat="45.17762" lon="5.57333">
        <ele>1398.6</ele>
        <time>2021-10-10T12:14:54Z</time>
      </trkpt>
      <trkpt lat="45.1776" lon="5.57329">
        <ele>1398.6</ele>
        <time>2021-10-10T12:14:55Z</time>
      </trkpt>
      <trkpt lat="45.17758" lon="5.57325">
        <ele>1398.6</ele>
        <time>2021-10-10T12:14:56Z</time>
      </trkpt>
      <trkpt lat="45.17755" lon="5.57321">
        <ele>1397.6</ele>
        <time>2021-10-10T12:14:57Z</time>
      </trkpt>
      <trkpt lat="45.17752" lon="5.57317">
        <ele>1396.6</ele>
        <time>2021-10-10T12:14:58Z</time>
      </trkpt>
      <trkpt lat="45.1775" lon="5.57314">
        <ele>1396.6</ele>
        <time>2021-10-10T12:14:59Z</time>
      </trkpt>
      <trkpt lat="45.17748" lon="5.57312">
        <ele>1396.6</ele>
        <time>2021-10-10T12:15:00Z</time>
      </trkpt>
      <trkpt lat="45.17746" lon="5.5731">
        <ele>1396.6</ele>
        <time>2021-10-10T12:15:01Z</time>
      </trkpt>
      <trkpt lat="45.17743" lon="5.57308">
        <ele>1393.8</ele>
        <time>2021-10-10T12:15:02Z</time>
      </trkpt>
      <trkpt lat="45.17741" lon="5.57306">
        <ele>1393.8</ele>
        <time>2021-10-10T12:15:03Z</time>
      </trkpt>
      <trkpt lat="45.17739" lon="5.57304">
        <ele>1393.8</ele>
        <time>2021-10-10T12:15:04Z</time>
      </trkpt>
      <trkpt lat="45.17737" lon="5.57305">
        <ele>1393.8</ele>
        <time>2021-10-10T12:15:05Z</time>
      </trkpt>
      <trkpt lat="45.17733" lon="5.57305">
        <ele>1392.2</ele>
        <time>2021-10-10T12:15:06Z</time>
      </trkpt>
      <trkpt lat="45.17728" lon="5.57306">
        <ele>1392.2</ele>
        <time>2021-10-10T12:15:07Z</time>
      </trkpt>
      <trkpt lat="45.17724" lon="5.57307">
        <ele>1392.2</ele>
        <time>2021-10-10T12:15:08Z</time>
      </trkpt>
      <trkpt lat="45.1772" lon="5.57308">
        <ele>1391.2</ele>
        <time>2021-10-10T12:15:09Z</time>
      </trkpt>
      <trkpt lat="45.17716" lon="5.57308">
        <ele>1390</ele>
        <time>2021-10-10T12:15:10Z</time>
      </trkpt>
      <trkpt lat="45.17712" lon="5.57308">
        <ele>1390</ele>
        <time>2021-10-10T12:15:11Z</time>
      </trkpt>
      <trkpt lat="45.17708" lon="5.57309">
        <ele>1390</ele>
        <time>2021-10-10T12:15:12Z</time>
      </trkpt>
      <trkpt lat="45.17704" lon="5.57311">
        <ele>1389</ele>
        <time>2021-10-10T12:15:13Z</time>
      </trkpt>
      <trkpt lat="45.17699" lon="5.57311">
        <ele>1387</ele>
        <time>2021-10-10T12:15:14Z</time>
      </trkpt>
      <trkpt lat="45.17695" lon="5.57312">
        <ele>1387</ele>
        <time>2021-10-10T12:15:15Z</time>
      </trkpt>
      <trkpt lat="45.17691" lon="5.57313">
        <ele>1387</ele>
        <time>2021-10-10T12:15:16Z</time>
      </trkpt>
      <trkpt lat="45.17688" lon="5.57313">
        <ele>1386.2</ele>
        <time>2021-10-10T12:15:17Z</time>
      </trkpt>
      <trkpt lat="45.17684" lon="5.57316">
        <ele>1384</ele>
        <time>2021-10-10T12:15:18Z</time>
      </trkpt>
      <trkpt lat="45.17681" lon="5.57319">
        <ele>1384</ele>
        <time>2021-10-10T12:15:19Z</time>
      </trkpt>
      <trkpt lat="45.17677" lon="5.5732">
        <ele>1384</ele>
        <time>2021-10-10T12:15:20Z</time>
      </trkpt>
      <trkpt lat="45.17675" lon="5.57322">
        <ele>1383</ele>
        <time>2021-10-10T12:15:21Z</time>
      </trkpt>
      <trkpt lat="45.17672" lon="5.57323">
        <ele>1381.8</ele>
        <time>2021-10-10T12:15:22Z</time>
      </trkpt>
      <trkpt lat="45.1767" lon="5.57318">
        <ele>1381.8</ele>
        <time>2021-10-10T12:15:23Z</time>
      </trkpt>
      <trkpt lat="45.17665" lon="5.57319">
        <ele>1381.8</ele>
        <time>2021-10-10T12:15:24Z</time>
      </trkpt>
      <trkpt lat="45.17663" lon="5.57321">
        <ele>1381.8</ele>
        <time>2021-10-10T12:15:25Z</time>
      </trkpt>
      <trkpt lat="45.1766" lon="5.57322">
        <ele>1380.8</ele>
        <time>2021-10-10T12:15:26Z</time>
      </trkpt>
      <trkpt lat="45.17659" lon="5.57321">
        <ele>1380.8</ele>
        <time>2021-10-10T12:15:27Z</time>
      </trkpt>
      <trkpt lat="45.17658" lon="5.57319">
        <ele>1380.8</ele>
        <time>2021-10-10T12:15:28Z</time>
      </trkpt>
      <trkpt lat="45.17656" lon="5.57317">
        <ele>1380</ele>
        <time>2021-10-10T12:15:29Z</time>
      </trkpt>
      <trkpt lat="45.17656" lon="5.57315">
        <ele>1379.4</ele>
        <time>2021-10-10T12:15:30Z</time>
      </trkpt>
      <trkpt lat="45.17655" lon="5.57312">
        <ele>1379.4</ele>
        <time>2021-10-10T12:15:31Z</time>
      </trkpt>
      <trkpt lat="45.17654" lon="5.57307">
        <ele>1379.4</ele>
        <time>2021-10-10T12:15:32Z</time>
      </trkpt>
      <trkpt lat="45.17652" lon="5.57304">
        <ele>1378.4</ele>
        <time>2021-10-10T12:15:33Z</time>
      </trkpt>
      <trkpt lat="45.17652" lon="5.57301">
        <ele>1377.2</ele>
        <time>2021-10-10T12:15:34Z</time>
      </trkpt>
      <trkpt lat="45.17653" lon="5.57299">
        <ele>1377.2</ele>
        <time>2021-10-10T12:15:35Z</time>
      </trkpt>
      <trkpt lat="45.17652" lon="5.57295">
        <ele>1377.2</ele>
        <time>2021-10-10T12:15:36Z</time>
      </trkpt>
      <trkpt lat="45.17652" lon="5.57293">
        <ele>1377.2</ele>
        <time>2021-10-10T12:15:37Z</time>
      </trkpt>
      <trkpt lat="45.17651" lon="5.57289">
        <ele>1376</ele>
        <time>2021-10-10T12:15:38Z</time>
      </trkpt>
      <trkpt lat="45.1765" lon="5.57286">
        <ele>1376</ele>
        <time>2021-10-10T12:15:39Z</time>
      </trkpt>
      <trkpt lat="45.17647" lon="5.57283">
        <ele>1376</ele>
        <time>2021-10-10T12:15:40Z</time>
      </trkpt>
      <trkpt lat="45.17644" lon="5.57281">
        <ele>1375</ele>
        <time>2021-10-10T12:15:41Z</time>
      </trkpt>
      <trkpt lat="45.17643" lon="5.57279">
        <ele>1374.6</ele>
        <time>2021-10-10T12:15:42Z</time>
      </trkpt>
      <trkpt lat="45.17642" lon="5.57276">
        <ele>1374.6</ele>
        <time>2021-10-10T12:15:43Z</time>
      </trkpt>
      <trkpt lat="45.1764" lon="5.57275">
        <ele>1374.6</ele>
        <time>2021-10-10T12:15:44Z</time>
      </trkpt>
      <trkpt lat="45.17639" lon="5.57272">
        <ele>1374</ele>
        <time>2021-10-10T12:15:45Z</time>
      </trkpt>
      <trkpt lat="45.17638" lon="5.5727">
        <ele>1373.4</ele>
        <time>2021-10-10T12:15:46Z</time>
      </trkpt>
      <trkpt lat="45.17637" lon="5.57269">
        <ele>1373.4</ele>
        <time>2021-10-10T12:15:47Z</time>
      </trkpt>
      <trkpt lat="45.17635" lon="5.57268">
        <ele>1373.4</ele>
        <time>2021-10-10T12:15:48Z</time>
      </trkpt>
      <trkpt lat="45.17634" lon="5.57266">
        <ele>1372.6</ele>
        <time>2021-10-10T12:15:49Z</time>
      </trkpt>
      <trkpt lat="45.17634" lon="5.57265">
        <ele>1372.2</ele>
        <time>2021-10-10T12:15:50Z</time>
      </trkpt>
      <trkpt lat="45.17632" lon="5.57264">
        <ele>1372.2</ele>
        <time>2021-10-10T12:15:51Z</time>
      </trkpt>
      <trkpt lat="45.17631" lon="5.57261">
        <ele>1372.2</ele>
        <time>2021-10-10T12:15:52Z</time>
      </trkpt>
      <trkpt lat="45.17629" lon="5.57259">
        <ele>1371.2</ele>
        <time>2021-10-10T12:15:53Z</time>
      </trkpt>
      <trkpt lat="45.17627" lon="5.57257">
        <ele>1370</ele>
        <time>2021-10-10T12:15:54Z</time>
      </trkpt>
      <trkpt lat="45.17625" lon="5.57252">
        <ele>1370</ele>
        <time>2021-10-10T12:15:55Z</time>
      </trkpt>
      <trkpt lat="45.17622" lon="5.57244">
        <ele>1370</ele>
        <time>2021-10-10T12:15:56Z</time>
      </trkpt>
      <trkpt lat="45.1762" lon="5.57237">
        <ele>1369</ele>
        <time>2021-10-10T12:15:57Z</time>
      </trkpt>
      <trkpt lat="45.17618" lon="5.5723">
        <ele>1366.6</ele>
        <time>2021-10-10T12:15:58Z</time>
      </trkpt>
      <trkpt lat="45.17616" lon="5.57224">
        <ele>1366.6</ele>
        <time>2021-10-10T12:15:59Z</time>
      </trkpt>
      <trkpt lat="45.17614" lon="5.57218">
        <ele>1366.6</ele>
        <time>2021-10-10T12:16:00Z</time>
      </trkpt>
      <trkpt lat="45.17611" lon="5.57213">
        <ele>1366.6</ele>
        <time>2021-10-10T12:16:01Z</time>
      </trkpt>
      <trkpt lat="45.17608" lon="5.57209">
        <ele>1364.8</ele>
        <time>2021-10-10T12:16:02Z</time>
      </trkpt>
      <trkpt lat="45.17606" lon="5.57202">
        <ele>1364.8</ele>
        <time>2021-10-10T12:16:03Z</time>
      </trkpt>
      <trkpt lat="45.17603" lon="5.57196">
        <ele>1364.8</ele>
        <time>2021-10-10T12:16:04Z</time>
      </trkpt>
      <trkpt lat="45.176" lon="5.57191">
        <ele>1363.8</ele>
        <time>2021-10-10T12:16:05Z</time>
      </trkpt>
      <trkpt lat="45.17597" lon="5.57186">
        <ele>1362.4</ele>
        <time>2021-10-10T12:16:06Z</time>
      </trkpt>
      <trkpt lat="45.17594" lon="5.57181">
        <ele>1362.4</ele>
        <time>2021-10-10T12:16:07Z</time>
      </trkpt>
      <trkpt lat="45.17591" lon="5.57175">
        <ele>1362.4</ele>
        <time>2021-10-10T12:16:08Z</time>
      </trkpt>
      <trkpt lat="45.17589" lon="5.57169">
        <ele>1361.4</ele>
        <time>2021-10-10T12:16:09Z</time>
      </trkpt>
      <trkpt lat="45.17587" lon="5.57163">
        <ele>1360.2</ele>
        <time>2021-10-10T12:16:10Z</time>
      </trkpt>
      <trkpt lat="45.17585" lon="5.57158">
        <ele>1360.2</ele>
        <time>2021-10-10T12:16:11Z</time>
      </trkpt>
      <trkpt lat="45.17583" lon="5.57153">
        <ele>1360.2</ele>
        <time>2021-10-10T12:16:12Z</time>
      </trkpt>
      <trkpt lat="45.17581" lon="5.57149">
        <ele>1360.2</ele>
        <time>2021-10-10T12:16:13Z</time>
      </trkpt>
      <trkpt lat="45.17579" lon="5.57144">
        <ele>1358.2</ele>
        <time>2021-10-10T12:16:14Z</time>
      </trkpt>
      <trkpt lat="45.17578" lon="5.5714">
        <ele>1358.2</ele>
        <time>2021-10-10T12:16:15Z</time>
      </trkpt>
      <trkpt lat="45.17576" lon="5.57135">
        <ele>1358.2</ele>
        <time>2021-10-10T12:16:16Z</time>
      </trkpt>
      <trkpt lat="45.17576" lon="5.5713">
        <ele>1358.2</ele>
        <time>2021-10-10T12:16:17Z</time>
      </trkpt>
      <trkpt lat="45.17576" lon="5.57125">
        <ele>1356.6</ele>
        <time>2021-10-10T12:16:18Z</time>
      </trkpt>
      <trkpt lat="45.17575" lon="5.5712">
        <ele>1356.6</ele>
        <time>2021-10-10T12:16:19Z</time>
      </trkpt>
      <trkpt lat="45.17578" lon="5.57113">
        <ele>1356.6</ele>
        <time>2021-10-10T12:16:20Z</time>
      </trkpt>
      <trkpt lat="45.17579" lon="5.57108">
        <ele>1355.6</ele>
        <time>2021-10-10T12:16:21Z</time>
      </trkpt>
      <trkpt lat="45.17579" lon="5.57102">
        <ele>1354.8</ele>
        <time>2021-10-10T12:16:22Z</time>
      </trkpt>
      <trkpt lat="45.17579" lon="5.57098">
        <ele>1354.8</ele>
        <time>2021-10-10T12:16:23Z</time>
      </trkpt>
      <trkpt lat="45.1758" lon="5.57093">
        <ele>1354.8</ele>
        <time>2021-10-10T12:16:24Z</time>
      </trkpt>
      <trkpt lat="45.17581" lon="5.57089">
        <ele>1354.2</ele>
        <time>2021-10-10T12:16:25Z</time>
      </trkpt>
      <trkpt lat="45.17583" lon="5.57085">
        <ele>1354.6</ele>
        <time>2021-10-10T12:16:26Z</time>
      </trkpt>
      <trkpt lat="45.17584" lon="5.57082">
        <ele>1354.6</ele>
        <time>2021-10-10T12:16:27Z</time>
      </trkpt>
      <trkpt lat="45.17584" lon="5.57078">
        <ele>1354.6</ele>
        <time>2021-10-10T12:16:28Z</time>
      </trkpt>
      <trkpt lat="45.17584" lon="5.57074">
        <ele>1354.6</ele>
        <time>2021-10-10T12:16:29Z</time>
      </trkpt>
      <trkpt lat="45.17585" lon="5.57071">
        <ele>1354.6</ele>
        <time>2021-10-10T12:16:30Z</time>
      </trkpt>
      <trkpt lat="45.17586" lon="5.57067">
        <ele>1354.6</ele>
        <time>2021-10-10T12:16:31Z</time>
      </trkpt>
      <trkpt lat="45.17583" lon="5.57065">
        <ele>1354.6</ele>
        <time>2021-10-10T12:16:32Z</time>
      </trkpt>
      <trkpt lat="45.17582" lon="5.57064">
        <ele>1354.6</ele>
        <time>2021-10-10T12:16:33Z</time>
      </trkpt>
      <trkpt lat="45.1758" lon="5.57063">
        <ele>1354.4</ele>
        <time>2021-10-10T12:16:34Z</time>
      </trkpt>
      <trkpt lat="45.17578" lon="5.57061">
        <ele>1354.4</ele>
        <time>2021-10-10T12:16:35Z</time>
      </trkpt>
      <trkpt lat="45.17574" lon="5.57059">
        <ele>1354.4</ele>
        <time>2021-10-10T12:16:36Z</time>
      </trkpt>
      <trkpt lat="45.17571" lon="5.57057">
        <ele>1353.4</ele>
        <time>2021-10-10T12:16:37Z</time>
      </trkpt>
      <trkpt lat="45.17568" lon="5.57054">
        <ele>1351.8</ele>
        <time>2021-10-10T12:16:38Z</time>
      </trkpt>
      <trkpt lat="45.17567" lon="5.57052">
        <ele>1351.8</ele>
        <time>2021-10-10T12:16:39Z</time>
      </trkpt>
      <trkpt lat="45.17565" lon="5.57049">
        <ele>1351.8</ele>
        <time>2021-10-10T12:16:40Z</time>
      </trkpt>
      <trkpt lat="45.17562" lon="5.57047">
        <ele>1350.8</ele>
        <time>2021-10-10T12:16:41Z</time>
      </trkpt>
      <trkpt lat="45.17559" lon="5.57045">
        <ele>1349.8</ele>
        <time>2021-10-10T12:16:42Z</time>
      </trkpt>
      <trkpt lat="45.17556" lon="5.57042">
        <ele>1349.8</ele>
        <time>2021-10-10T12:16:43Z</time>
      </trkpt>
      <trkpt lat="45.17553" lon="5.5704">
        <ele>1349.8</ele>
        <time>2021-10-10T12:16:44Z</time>
      </trkpt>
      <trkpt lat="45.1755" lon="5.57037">
        <ele>1348.8</ele>
        <time>2021-10-10T12:16:45Z</time>
      </trkpt>
      <trkpt lat="45.17547" lon="5.57033">
        <ele>1347.4</ele>
        <time>2021-10-10T12:16:46Z</time>
      </trkpt>
      <trkpt lat="45.17545" lon="5.5703">
        <ele>1347.4</ele>
        <time>2021-10-10T12:16:47Z</time>
      </trkpt>
      <trkpt lat="45.17542" lon="5.57029">
        <ele>1347.4</ele>
        <time>2021-10-10T12:16:48Z</time>
      </trkpt>
      <trkpt lat="45.17527" lon="5.57016">
        <ele>1344.6</ele>
        <time>2021-10-10T12:17:09Z</time>
      </trkpt>
      <trkpt lat="45.17525" lon="5.57015">
        <ele>1343.4</ele>
        <time>2021-10-10T12:17:10Z</time>
      </trkpt>
      <trkpt lat="45.17523" lon="5.57013">
        <ele>1343.4</ele>
        <time>2021-10-10T12:17:11Z</time>
      </trkpt>
      <trkpt lat="45.17521" lon="5.5701">
        <ele>1343.4</ele>
        <time>2021-10-10T12:17:12Z</time>
      </trkpt>
      <trkpt lat="45.17519" lon="5.57008">
        <ele>1342.4</ele>
        <time>2021-10-10T12:17:13Z</time>
      </trkpt>
      <trkpt lat="45.17517" lon="5.57006">
        <ele>1341</ele>
        <time>2021-10-10T12:17:14Z</time>
      </trkpt>
      <trkpt lat="45.17514" lon="5.57004">
        <ele>1341</ele>
        <time>2021-10-10T12:17:15Z</time>
      </trkpt>
      <trkpt lat="45.17512" lon="5.57004">
        <ele>1341</ele>
        <time>2021-10-10T12:17:16Z</time>
      </trkpt>
      <trkpt lat="45.1751" lon="5.57002">
        <ele>1340</ele>
        <time>2021-10-10T12:17:17Z</time>
      </trkpt>
      <trkpt lat="45.17507" lon="5.57">
        <ele>1339.8</ele>
        <time>2021-10-10T12:17:18Z</time>
      </trkpt>
      <trkpt lat="45.17505" lon="5.57">
        <ele>1339.8</ele>
        <time>2021-10-10T12:17:19Z</time>
      </trkpt>
      <trkpt lat="45.17502" lon="5.56998">
        <ele>1339.8</ele>
        <time>2021-10-10T12:17:20Z</time>
      </trkpt>
      <trkpt lat="45.175" lon="5.56996">
        <ele>1338.8</ele>
        <time>2021-10-10T12:17:21Z</time>
      </trkpt>
      <trkpt lat="45.17498" lon="5.56993">
        <ele>1336.6</ele>
        <time>2021-10-10T12:17:22Z</time>
      </trkpt>
      <trkpt lat="45.17495" lon="5.56992">
        <ele>1336.6</ele>
        <time>2021-10-10T12:17:23Z</time>
      </trkpt>
      <trkpt lat="45.17491" lon="5.5699">
        <ele>1336.6</ele>
        <time>2021-10-10T12:17:24Z</time>
      </trkpt>
      <trkpt lat="45.17487" lon="5.56987">
        <ele>1335.6</ele>
        <time>2021-10-10T12:17:25Z</time>
      </trkpt>
      <trkpt lat="45.17484" lon="5.56983">
        <ele>1334.2</ele>
        <time>2021-10-10T12:17:26Z</time>
      </trkpt>
      <trkpt lat="45.1748" lon="5.56981">
        <ele>1334.2</ele>
        <time>2021-10-10T12:17:27Z</time>
      </trkpt>
      <trkpt lat="45.17477" lon="5.56978">
        <ele>1334.2</ele>
        <time>2021-10-10T12:17:28Z</time>
      </trkpt>
      <trkpt lat="45.17473" lon="5.56975">
        <ele>1333.2</ele>
        <time>2021-10-10T12:17:29Z</time>
      </trkpt>
      <trkpt lat="45.17469" lon="5.56973">
        <ele>1331.2</ele>
        <time>2021-10-10T12:17:30Z</time>
      </trkpt>
      <trkpt lat="45.17465" lon="5.56973">
        <ele>1331.2</ele>
        <time>2021-10-10T12:17:31Z</time>
      </trkpt>
      <trkpt lat="45.1746" lon="5.56971">
        <ele>1331.2</ele>
        <time>2021-10-10T12:17:32Z</time>
      </trkpt>
      <trkpt lat="45.17456" lon="5.5697">
        <ele>1331.2</ele>
        <time>2021-10-10T12:17:33Z</time>
      </trkpt>
      <trkpt lat="45.17452" lon="5.56969">
        <ele>1330.6</ele>
        <time>2021-10-10T12:17:34Z</time>
      </trkpt>
      <trkpt lat="45.17447" lon="5.56967">
        <ele>1330.6</ele>
        <time>2021-10-10T12:17:35Z</time>
      </trkpt>
      <trkpt lat="45.17443" lon="5.56967">
        <ele>1330.6</ele>
        <time>2021-10-10T12:17:36Z</time>
      </trkpt>
      <trkpt lat="45.1744" lon="5.56967">
        <ele>1329.6</ele>
        <time>2021-10-10T12:17:37Z</time>
      </trkpt>
      <trkpt lat="45.17437" lon="5.56966">
        <ele>1327.2</ele>
        <time>2021-10-10T12:17:38Z</time>
      </trkpt>
      <trkpt lat="45.17435" lon="5.56966">
        <ele>1327.2</ele>
        <time>2021-10-10T12:17:39Z</time>
      </trkpt>
      <trkpt lat="45.17433" lon="5.56967">
        <ele>1327.2</ele>
        <time>2021-10-10T12:17:40Z</time>
      </trkpt>
      <trkpt lat="45.17433" lon="5.56967">
        <ele>1327.2</ele>
        <time>2021-10-10T12:17:41Z</time>
      </trkpt>
      <trkpt lat="45.17432" lon="5.56967">
        <ele>1326.2</ele>
        <time>2021-10-10T12:17:42Z</time>
      </trkpt>
      <trkpt lat="45.17431" lon="5.56965">
        <ele>1326.2</ele>
        <time>2021-10-10T12:17:43Z</time>
      </trkpt>
      <trkpt lat="45.17429" lon="5.56964">
        <ele>1326.2</ele>
        <time>2021-10-10T12:17:44Z</time>
      </trkpt>
      <trkpt lat="45.17427" lon="5.56963">
        <ele>1325.2</ele>
        <time>2021-10-10T12:17:45Z</time>
      </trkpt>
      <trkpt lat="45.17424" lon="5.56962">
        <ele>1324</ele>
        <time>2021-10-10T12:17:46Z</time>
      </trkpt>
      <trkpt lat="45.17422" lon="5.56961">
        <ele>1324</ele>
        <time>2021-10-10T12:17:47Z</time>
      </trkpt>
      <trkpt lat="45.17418" lon="5.5696">
        <ele>1324</ele>
        <time>2021-10-10T12:17:48Z</time>
      </trkpt>
      <trkpt lat="45.17415" lon="5.56959">
        <ele>1323</ele>
        <time>2021-10-10T12:17:49Z</time>
      </trkpt>
      <trkpt lat="45.17411" lon="5.56957">
        <ele>1321.6</ele>
        <time>2021-10-10T12:17:50Z</time>
      </trkpt>
      <trkpt lat="45.17407" lon="5.56956">
        <ele>1321.6</ele>
        <time>2021-10-10T12:17:51Z</time>
      </trkpt>
      <trkpt lat="45.17405" lon="5.56953">
        <ele>1321.6</ele>
        <time>2021-10-10T12:17:52Z</time>
      </trkpt>
      <trkpt lat="45.17403" lon="5.5695">
        <ele>1321.6</ele>
        <time>2021-10-10T12:17:53Z</time>
      </trkpt>
      <trkpt lat="45.17401" lon="5.56948">
        <ele>1319.8</ele>
        <time>2021-10-10T12:17:54Z</time>
      </trkpt>
      <trkpt lat="45.17399" lon="5.56945">
        <ele>1319.8</ele>
        <time>2021-10-10T12:17:55Z</time>
      </trkpt>
      <trkpt lat="45.17397" lon="5.56941">
        <ele>1319.8</ele>
        <time>2021-10-10T12:17:56Z</time>
      </trkpt>
      <trkpt lat="45.17395" lon="5.56937">
        <ele>1318.8</ele>
        <time>2021-10-10T12:17:57Z</time>
      </trkpt>
      <trkpt lat="45.17393" lon="5.56935">
        <ele>1317.2</ele>
        <time>2021-10-10T12:17:58Z</time>
      </trkpt>
      <trkpt lat="45.17391" lon="5.56931">
        <ele>1317.2</ele>
        <time>2021-10-10T12:17:59Z</time>
      </trkpt>
      <trkpt lat="45.1739" lon="5.56928">
        <ele>1317.2</ele>
        <time>2021-10-10T12:18:00Z</time>
      </trkpt>
      <trkpt lat="45.17389" lon="5.56925">
        <ele>1316.2</ele>
        <time>2021-10-10T12:18:01Z</time>
      </trkpt>
      <trkpt lat="45.17388" lon="5.56922">
        <ele>1314.4</ele>
        <time>2021-10-10T12:18:02Z</time>
      </trkpt>
      <trkpt lat="45.17386" lon="5.5692">
        <ele>1314.4</ele>
        <time>2021-10-10T12:18:03Z</time>
      </trkpt>
      <trkpt lat="45.17383" lon="5.56917">
        <ele>1314.4</ele>
        <time>2021-10-10T12:18:04Z</time>
      </trkpt>
      <trkpt lat="45.17382" lon="5.56914">
        <ele>1313.8</ele>
        <time>2021-10-10T12:18:05Z</time>
      </trkpt>
      <trkpt lat="45.17379" lon="5.56912">
        <ele>1312.8</ele>
        <time>2021-10-10T12:18:06Z</time>
      </trkpt>
      <trkpt lat="45.17377" lon="5.5691">
        <ele>1312.8</ele>
        <time>2021-10-10T12:18:07Z</time>
      </trkpt>
      <trkpt lat="45.17375" lon="5.56907">
        <ele>1312.8</ele>
        <time>2021-10-10T12:18:08Z</time>
      </trkpt>
      <trkpt lat="45.17374" lon="5.56906">
        <ele>1311.8</ele>
        <time>2021-10-10T12:18:09Z</time>
      </trkpt>
      <trkpt lat="45.17373" lon="5.56903">
        <ele>1309.4</ele>
        <time>2021-10-10T12:18:10Z</time>
      </trkpt>
      <trkpt lat="45.17371" lon="5.56902">
        <ele>1309.4</ele>
        <time>2021-10-10T12:18:11Z</time>
      </trkpt>
      <trkpt lat="45.17368" lon="5.56899">
        <ele>1309.4</ele>
        <time>2021-10-10T12:18:12Z</time>
      </trkpt>
      <trkpt lat="45.17366" lon="5.56897">
        <ele>1309.4</ele>
        <time>2021-10-10T12:18:13Z</time>
      </trkpt>
      <trkpt lat="45.17364" lon="5.56895">
        <ele>1306.2</ele>
        <time>2021-10-10T12:18:14Z</time>
      </trkpt>
      <trkpt lat="45.17361" lon="5.56893">
        <ele>1306.2</ele>
        <time>2021-10-10T12:18:15Z</time>
      </trkpt>
      <trkpt lat="45.17359" lon="5.56893">
        <ele>1306.2</ele>
        <time>2021-10-10T12:18:16Z</time>
      </trkpt>
      <trkpt lat="45.17356" lon="5.5689">
        <ele>1306.2</ele>
        <time>2021-10-10T12:18:17Z</time>
      </trkpt>
      <trkpt lat="45.17353" lon="5.56888">
        <ele>1304.6</ele>
        <time>2021-10-10T12:18:18Z</time>
      </trkpt>
      <trkpt lat="45.17351" lon="5.56885">
        <ele>1304.6</ele>
        <time>2021-10-10T12:18:19Z</time>
      </trkpt>
      <trkpt lat="45.17349" lon="5.56883">
        <ele>1304.6</ele>
        <time>2021-10-10T12:18:20Z</time>
      </trkpt>
      <trkpt lat="45.17346" lon="5.56883">
        <ele>1303.6</ele>
        <time>2021-10-10T12:18:21Z</time>
      </trkpt>
      <trkpt lat="45.17342" lon="5.56881">
        <ele>1301.2</ele>
        <time>2021-10-10T12:18:22Z</time>
      </trkpt>
      <trkpt lat="45.17338" lon="5.56879">
        <ele>1301.2</ele>
        <time>2021-10-10T12:18:23Z</time>
      </trkpt>
      <trkpt lat="45.17334" lon="5.56878">
        <ele>1301.2</ele>
        <time>2021-10-10T12:18:24Z</time>
      </trkpt>
      <trkpt lat="45.1733" lon="5.56876">
        <ele>1301.2</ele>
        <time>2021-10-10T12:18:25Z</time>
      </trkpt>
      <trkpt lat="45.17325" lon="5.56875">
        <ele>1297.8</ele>
        <time>2021-10-10T12:18:26Z</time>
      </trkpt>
      <trkpt lat="45.17321" lon="5.56875">
        <ele>1297.8</ele>
        <time>2021-10-10T12:18:27Z</time>
      </trkpt>
      <trkpt lat="45.17317" lon="5.56875">
        <ele>1297.8</ele>
        <time>2021-10-10T12:18:28Z</time>
      </trkpt>
      <trkpt lat="45.17311" lon="5.56871">
        <ele>1297.8</ele>
        <time>2021-10-10T12:18:29Z</time>
      </trkpt>
      <trkpt lat="45.17307" lon="5.5687">
        <ele>1296.2</ele>
        <time>2021-10-10T12:18:30Z</time>
      </trkpt>
      <trkpt lat="45.17301" lon="5.56867">
        <ele>1296.2</ele>
        <time>2021-10-10T12:18:31Z</time>
      </trkpt>
      <trkpt lat="45.17294" lon="5.56862">
        <ele>1296.2</ele>
        <time>2021-10-10T12:18:32Z</time>
      </trkpt>
      <trkpt lat="45.1729" lon="5.56863">
        <ele>1296.2</ele>
        <time>2021-10-10T12:18:33Z</time>
      </trkpt>
      <trkpt lat="45.17286" lon="5.56861">
        <ele>1295.8</ele>
        <time>2021-10-10T12:18:34Z</time>
      </trkpt>
      <trkpt lat="45.17285" lon="5.56861">
        <ele>1295.8</ele>
        <time>2021-10-10T12:18:35Z</time>
      </trkpt>
      <trkpt lat="45.17282" lon="5.56861">
        <ele>1295.8</ele>
        <time>2021-10-10T12:18:36Z</time>
      </trkpt>
      <trkpt lat="45.1728" lon="5.56862">
        <ele>1294.8</ele>
        <time>2021-10-10T12:18:37Z</time>
      </trkpt>
      <trkpt lat="45.17279" lon="5.56863">
        <ele>1294.4</ele>
        <time>2021-10-10T12:18:38Z</time>
      </trkpt>
      <trkpt lat="45.17277" lon="5.56863">
        <ele>1294.4</ele>
        <time>2021-10-10T12:18:39Z</time>
      </trkpt>
      <trkpt lat="45.17275" lon="5.56861">
        <ele>1294.4</ele>
        <time>2021-10-10T12:18:40Z</time>
      </trkpt>
      <trkpt lat="45.17275" lon="5.56861">
        <ele>1293.4</ele>
        <time>2021-10-10T12:18:41Z</time>
      </trkpt>
      <trkpt lat="45.17273" lon="5.56861">
        <ele>1292.2</ele>
        <time>2021-10-10T12:18:42Z</time>
      </trkpt>
      <trkpt lat="45.17272" lon="5.56861">
        <ele>1292.2</ele>
        <time>2021-10-10T12:18:43Z</time>
      </trkpt>
      <trkpt lat="45.1727" lon="5.5686">
        <ele>1292.2</ele>
        <time>2021-10-10T12:18:44Z</time>
      </trkpt>
      <trkpt lat="45.17269" lon="5.5686">
        <ele>1292.2</ele>
        <time>2021-10-10T12:18:45Z</time>
      </trkpt>
      <trkpt lat="45.17268" lon="5.5686">
        <ele>1290.2</ele>
        <time>2021-10-10T12:19:25Z</time>
      </trkpt>
      <trkpt lat="45.17262" lon="5.56846">
        <ele>1288.4</ele>
        <time>2021-10-10T12:19:26Z</time>
      </trkpt>
      <trkpt lat="45.17259" lon="5.56843">
        <ele>1288.4</ele>
        <time>2021-10-10T12:19:27Z</time>
      </trkpt>
      <trkpt lat="45.17255" lon="5.56841">
        <ele>1288.4</ele>
        <time>2021-10-10T12:19:28Z</time>
      </trkpt>
      <trkpt lat="45.17253" lon="5.56838">
        <ele>1287.4</ele>
        <time>2021-10-10T12:19:29Z</time>
      </trkpt>
      <trkpt lat="45.17251" lon="5.56835">
        <ele>1285.6</ele>
        <time>2021-10-10T12:19:30Z</time>
      </trkpt>
      <trkpt lat="45.17248" lon="5.56832">
        <ele>1285.6</ele>
        <time>2021-10-10T12:19:31Z</time>
      </trkpt>
      <trkpt lat="45.17246" lon="5.56828">
        <ele>1285.6</ele>
        <time>2021-10-10T12:19:32Z</time>
      </trkpt>
      <trkpt lat="45.17243" lon="5.56826">
        <ele>1284.6</ele>
        <time>2021-10-10T12:19:33Z</time>
      </trkpt>
      <trkpt lat="45.17241" lon="5.56823">
        <ele>1283.8</ele>
        <time>2021-10-10T12:19:34Z</time>
      </trkpt>
      <trkpt lat="45.17239" lon="5.56822">
        <ele>1283.8</ele>
        <time>2021-10-10T12:19:35Z</time>
      </trkpt>
      <trkpt lat="45.17238" lon="5.56821">
        <ele>1283.8</ele>
        <time>2021-10-10T12:19:36Z</time>
      </trkpt>
      <trkpt lat="45.17236" lon="5.5682">
        <ele>1282.8</ele>
        <time>2021-10-10T12:19:37Z</time>
      </trkpt>
      <trkpt lat="45.17234" lon="5.56818">
        <ele>1280.6</ele>
        <time>2021-10-10T12:19:38Z</time>
      </trkpt>
      <trkpt lat="45.17233" lon="5.56816">
        <ele>1280.6</ele>
        <time>2021-10-10T12:19:39Z</time>
      </trkpt>
      <trkpt lat="45.1723" lon="5.56814">
        <ele>1280.6</ele>
        <time>2021-10-10T12:19:40Z</time>
      </trkpt>
      <trkpt lat="45.17228" lon="5.56811">
        <ele>1279.6</ele>
        <time>2021-10-10T12:19:41Z</time>
      </trkpt>
      <trkpt lat="45.17227" lon="5.56807">
        <ele>1279.4</ele>
        <time>2021-10-10T12:19:42Z</time>
      </trkpt>
      <trkpt lat="45.17228" lon="5.56805">
        <ele>1279.4</ele>
        <time>2021-10-10T12:19:43Z</time>
      </trkpt>
      <trkpt lat="45.1723" lon="5.56805">
        <ele>1279.4</ele>
        <time>2021-10-10T12:19:44Z</time>
      </trkpt>
      <trkpt lat="45.17231" lon="5.56805">
        <ele>1278.4</ele>
        <time>2021-10-10T12:19:45Z</time>
      </trkpt>
      <trkpt lat="45.17233" lon="5.56805">
        <ele>1276.6</ele>
        <time>2021-10-10T12:19:46Z</time>
      </trkpt>
      <trkpt lat="45.17235" lon="5.56805">
        <ele>1276.6</ele>
        <time>2021-10-10T12:19:47Z</time>
      </trkpt>
      <trkpt lat="45.17236" lon="5.56806">
        <ele>1276.6</ele>
        <time>2021-10-10T12:19:48Z</time>
      </trkpt>
      <trkpt lat="45.17239" lon="5.56807">
        <ele>1276.6</ele>
        <time>2021-10-10T12:19:49Z</time>
      </trkpt>
      <trkpt lat="45.17241" lon="5.56808">
        <ele>1273.4</ele>
        <time>2021-10-10T12:19:50Z</time>
      </trkpt>
      <trkpt lat="45.17243" lon="5.56808">
        <ele>1273.4</ele>
        <time>2021-10-10T12:19:51Z</time>
      </trkpt>
      <trkpt lat="45.17245" lon="5.56809">
        <ele>1273.4</ele>
        <time>2021-10-10T12:19:52Z</time>
      </trkpt>
      <trkpt lat="45.17247" lon="5.56808">
        <ele>1273.4</ele>
        <time>2021-10-10T12:19:53Z</time>
      </trkpt>
      <trkpt lat="45.1725" lon="5.56808">
        <ele>1270</ele>
        <time>2021-10-10T12:19:54Z</time>
      </trkpt>
      <trkpt lat="45.17252" lon="5.56809">
        <ele>1270</ele>
        <time>2021-10-10T12:19:55Z</time>
      </trkpt>
      <trkpt lat="45.17255" lon="5.56809">
        <ele>1270</ele>
        <time>2021-10-10T12:19:56Z</time>
      </trkpt>
      <trkpt lat="45.17258" lon="5.5681">
        <ele>1269</ele>
        <time>2021-10-10T12:19:57Z</time>
      </trkpt>
      <trkpt lat="45.17261" lon="5.5681">
        <ele>1266.8</ele>
        <time>2021-10-10T12:19:58Z</time>
      </trkpt>
      <trkpt lat="45.17265" lon="5.56809">
        <ele>1266.8</ele>
        <time>2021-10-10T12:19:59Z</time>
      </trkpt>
      <trkpt lat="45.17268" lon="5.56807">
        <ele>1266.8</ele>
        <time>2021-10-10T12:20:00Z</time>
      </trkpt>
      <trkpt lat="45.17271" lon="5.56805">
        <ele>1265.8</ele>
        <time>2021-10-10T12:20:01Z</time>
      </trkpt>
      <trkpt lat="45.17274" lon="5.56801">
        <ele>1264.2</ele>
        <time>2021-10-10T12:20:02Z</time>
      </trkpt>
      <trkpt lat="45.17278" lon="5.56798">
        <ele>1264.2</ele>
        <time>2021-10-10T12:20:03Z</time>
      </trkpt>
      <trkpt lat="45.17281" lon="5.56795">
        <ele>1264.2</ele>
        <time>2021-10-10T12:20:04Z</time>
      </trkpt>
      <trkpt lat="45.17284" lon="5.56793">
        <ele>1263.2</ele>
        <time>2021-10-10T12:20:05Z</time>
      </trkpt>
      <trkpt lat="45.17289" lon="5.56793">
        <ele>1261.8</ele>
        <time>2021-10-10T12:20:06Z</time>
      </trkpt>
      <trkpt lat="45.17292" lon="5.56793">
        <ele>1261.8</ele>
        <time>2021-10-10T12:20:07Z</time>
      </trkpt>
      <trkpt lat="45.17295" lon="5.56792">
        <ele>1261.8</ele>
        <time>2021-10-10T12:20:08Z</time>
      </trkpt>
      <trkpt lat="45.17298" lon="5.56792">
        <ele>1260.8</ele>
        <time>2021-10-10T12:20:09Z</time>
      </trkpt>
      <trkpt lat="45.17303" lon="5.56789">
        <ele>1257.6</ele>
        <time>2021-10-10T12:20:10Z</time>
      </trkpt>
      <trkpt lat="45.17308" lon="5.56788">
        <ele>1257.6</ele>
        <time>2021-10-10T12:20:11Z</time>
      </trkpt>
      <trkpt lat="45.17314" lon="5.56787">
        <ele>1257.6</ele>
        <time>2021-10-10T12:20:12Z</time>
      </trkpt>
      <trkpt lat="45.17318" lon="5.56786">
        <ele>1256.6</ele>
        <time>2021-10-10T12:20:13Z</time>
      </trkpt>
      <trkpt lat="45.17323" lon="5.56783">
        <ele>1256.2</ele>
        <time>2021-10-10T12:20:14Z</time>
      </trkpt>
      <trkpt lat="45.17327" lon="5.56783">
        <ele>1256.2</ele>
        <time>2021-10-10T12:20:15Z</time>
      </trkpt>
      <trkpt lat="45.17331" lon="5.56784">
        <ele>1256.2</ele>
        <time>2021-10-10T12:20:16Z</time>
      </trkpt>
      <trkpt lat="45.17335" lon="5.56783">
        <ele>1255.2</ele>
        <time>2021-10-10T12:20:17Z</time>
      </trkpt>
      <trkpt lat="45.1734" lon="5.56783">
        <ele>1253.6</ele>
        <time>2021-10-10T12:20:18Z</time>
      </trkpt>
      <trkpt lat="45.17344" lon="5.56784">
        <ele>1253.6</ele>
        <time>2021-10-10T12:20:19Z</time>
      </trkpt>
      <trkpt lat="45.17348" lon="5.56784">
        <ele>1253.6</ele>
        <time>2021-10-10T12:20:20Z</time>
      </trkpt>
      <trkpt lat="45.17351" lon="5.56784">
        <ele>1252.8</ele>
        <time>2021-10-10T12:20:21Z</time>
      </trkpt>
      <trkpt lat="45.17354" lon="5.56786">
        <ele>1251</ele>
        <time>2021-10-10T12:20:22Z</time>
      </trkpt>
      <trkpt lat="45.17358" lon="5.56787">
        <ele>1251</ele>
        <time>2021-10-10T12:20:23Z</time>
      </trkpt>
      <trkpt lat="45.17362" lon="5.56788">
        <ele>1251</ele>
        <time>2021-10-10T12:20:24Z</time>
      </trkpt>
      <trkpt lat="45.17367" lon="5.56789">
        <ele>1250</ele>
        <time>2021-10-10T12:20:25Z</time>
      </trkpt>
      <trkpt lat="45.17371" lon="5.5679">
        <ele>1247.6</ele>
        <time>2021-10-10T12:20:26Z</time>
      </trkpt>
      <trkpt lat="45.17375" lon="5.56788">
        <ele>1247.6</ele>
        <time>2021-10-10T12:20:27Z</time>
      </trkpt>
      <trkpt lat="45.17379" lon="5.56789">
        <ele>1247.6</ele>
        <time>2021-10-10T12:20:28Z</time>
      </trkpt>
      <trkpt lat="45.17383" lon="5.56789">
        <ele>1246.6</ele>
        <time>2021-10-10T12:20:29Z</time>
      </trkpt>
      <trkpt lat="45.17386" lon="5.5679">
        <ele>1245</ele>
        <time>2021-10-10T12:20:30Z</time>
      </trkpt>
      <trkpt lat="45.17391" lon="5.56791">
        <ele>1245</ele>
        <time>2021-10-10T12:20:31Z</time>
      </trkpt>
      <trkpt lat="45.17394" lon="5.56791">
        <ele>1245</ele>
        <time>2021-10-10T12:20:32Z</time>
      </trkpt>
      <trkpt lat="45.17397" lon="5.56791">
        <ele>1244</ele>
        <time>2021-10-10T12:20:33Z</time>
      </trkpt>
      <trkpt lat="45.17401" lon="5.56793">
        <ele>1242.8</ele>
        <time>2021-10-10T12:20:34Z</time>
      </trkpt>
      <trkpt lat="45.17404" lon="5.56794">
        <ele>1242.8</ele>
        <time>2021-10-10T12:20:35Z</time>
      </trkpt>
      <trkpt lat="45.17407" lon="5.56796">
        <ele>1242.8</ele>
        <time>2021-10-10T12:20:36Z</time>
      </trkpt>
      <trkpt lat="45.17411" lon="5.56798">
        <ele>1241.8</ele>
        <time>2021-10-10T12:20:37Z</time>
      </trkpt>
      <trkpt lat="45.17414" lon="5.568">
        <ele>1240.8</ele>
        <time>2021-10-10T12:20:38Z</time>
      </trkpt>
      <trkpt lat="45.17419" lon="5.56803">
        <ele>1240.8</ele>
        <time>2021-10-10T12:20:39Z</time>
      </trkpt>
      <trkpt lat="45.17423" lon="5.56804">
        <ele>1240.8</ele>
        <time>2021-10-10T12:20:40Z</time>
      </trkpt>
      <trkpt lat="45.17427" lon="5.56804">
        <ele>1239.8</ele>
        <time>2021-10-10T12:20:41Z</time>
      </trkpt>
      <trkpt lat="45.17431" lon="5.56804">
        <ele>1238</ele>
        <time>2021-10-10T12:20:42Z</time>
      </trkpt>
      <trkpt lat="45.17434" lon="5.56803">
        <ele>1238</ele>
        <time>2021-10-10T12:20:43Z</time>
      </trkpt>
      <trkpt lat="45.17438" lon="5.56802">
        <ele>1238</ele>
        <time>2021-10-10T12:20:44Z</time>
      </trkpt>
      <trkpt lat="45.17442" lon="5.56801">
        <ele>1237</ele>
        <time>2021-10-10T12:20:45Z</time>
      </trkpt>
      <trkpt lat="45.17446" lon="5.568">
        <ele>1234.6</ele>
        <time>2021-10-10T12:20:46Z</time>
      </trkpt>
      <trkpt lat="45.1745" lon="5.568">
        <ele>1234.6</ele>
        <time>2021-10-10T12:20:47Z</time>
      </trkpt>
      <trkpt lat="45.17454" lon="5.56799">
        <ele>1234.6</ele>
        <time>2021-10-10T12:20:48Z</time>
      </trkpt>
      <trkpt lat="45.17458" lon="5.56797">
        <ele>1233.6</ele>
        <time>2021-10-10T12:20:49Z</time>
      </trkpt>
      <trkpt lat="45.17463" lon="5.56797">
        <ele>1231.4</ele>
        <time>2021-10-10T12:20:50Z</time>
      </trkpt>
      <trkpt lat="45.17468" lon="5.56797">
        <ele>1231.4</ele>
        <time>2021-10-10T12:20:51Z</time>
      </trkpt>
      <trkpt lat="45.17474" lon="5.56796">
        <ele>1231.4</ele>
        <time>2021-10-10T12:20:52Z</time>
      </trkpt>
      <trkpt lat="45.17479" lon="5.56796">
        <ele>1230.4</ele>
        <time>2021-10-10T12:20:53Z</time>
      </trkpt>
      <trkpt lat="45.17486" lon="5.56795">
        <ele>1227</ele>
        <time>2021-10-10T12:20:54Z</time>
      </trkpt>
      <trkpt lat="45.17494" lon="5.56794">
        <ele>1227</ele>
        <time>2021-10-10T12:20:55Z</time>
      </trkpt>
      <trkpt lat="45.17501" lon="5.56793">
        <ele>1227</ele>
        <time>2021-10-10T12:20:56Z</time>
      </trkpt>
      <trkpt lat="45.17508" lon="5.56792">
        <ele>1226</ele>
        <time>2021-10-10T12:20:57Z</time>
      </trkpt>
      <trkpt lat="45.17515" lon="5.56792">
        <ele>1223.4</ele>
        <time>2021-10-10T12:20:58Z</time>
      </trkpt>
      <trkpt lat="45.17521" lon="5.56793">
        <ele>1223.4</ele>
        <time>2021-10-10T12:20:59Z</time>
      </trkpt>
      <trkpt lat="45.17527" lon="5.56793">
        <ele>1223.4</ele>
        <time>2021-10-10T12:21:00Z</time>
      </trkpt>
      <trkpt lat="45.17533" lon="5.56793">
        <ele>1222.4</ele>
        <time>2021-10-10T12:21:01Z</time>
      </trkpt>
      <trkpt lat="45.17537" lon="5.56795">
        <ele>1221</ele>
        <time>2021-10-10T12:21:02Z</time>
      </trkpt>
      <trkpt lat="45.1754" lon="5.56795">
        <ele>1221</ele>
        <time>2021-10-10T12:21:03Z</time>
      </trkpt>
      <trkpt lat="45.17543" lon="5.56796">
        <ele>1221</ele>
        <time>2021-10-10T12:21:04Z</time>
      </trkpt>
      <trkpt lat="45.17547" lon="5.56797">
        <ele>1220</ele>
        <time>2021-10-10T12:21:05Z</time>
      </trkpt>
      <trkpt lat="45.1755" lon="5.56797">
        <ele>1218.4</ele>
        <time>2021-10-10T12:21:06Z</time>
      </trkpt>
      <trkpt lat="45.17553" lon="5.56796">
        <ele>1218.4</ele>
        <time>2021-10-10T12:21:07Z</time>
      </trkpt>
      <trkpt lat="45.17557" lon="5.56796">
        <ele>1218.4</ele>
        <time>2021-10-10T12:21:08Z</time>
      </trkpt>
      <trkpt lat="45.17562" lon="5.56796">
        <ele>1218.4</ele>
        <time>2021-10-10T12:21:09Z</time>
      </trkpt>
      <trkpt lat="45.17567" lon="5.56795">
        <ele>1217.6</ele>
        <time>2021-10-10T12:21:10Z</time>
      </trkpt>
      <trkpt lat="45.17571" lon="5.56796">
        <ele>1217.6</ele>
        <time>2021-10-10T12:21:11Z</time>
      </trkpt>
      <trkpt lat="45.17574" lon="5.56798">
        <ele>1217.6</ele>
        <time>2021-10-10T12:21:12Z</time>
      </trkpt>
      <trkpt lat="45.17578" lon="5.56799">
        <ele>1216.6</ele>
        <time>2021-10-10T12:21:13Z</time>
      </trkpt>
      <trkpt lat="45.17581" lon="5.56799">
        <ele>1214.4</ele>
        <time>2021-10-10T12:21:14Z</time>
      </trkpt>
      <trkpt lat="45.17585" lon="5.56799">
        <ele>1214.4</ele>
        <time>2021-10-10T12:21:15Z</time>
      </trkpt>
      <trkpt lat="45.17587" lon="5.56801">
        <ele>1214.4</ele>
        <time>2021-10-10T12:21:16Z</time>
      </trkpt>
      <trkpt lat="45.17589" lon="5.56802">
        <ele>1213.4</ele>
        <time>2021-10-10T12:21:17Z</time>
      </trkpt>
      <trkpt lat="45.17591" lon="5.56803">
        <ele>1212.4</ele>
        <time>2021-10-10T12:21:18Z</time>
      </trkpt>
      <trkpt lat="45.17593" lon="5.56804">
        <ele>1212.4</ele>
        <time>2021-10-10T12:21:19Z</time>
      </trkpt>
      <trkpt lat="45.17594" lon="5.56804">
        <ele>1212.4</ele>
        <time>2021-10-10T12:21:20Z</time>
      </trkpt>
      <trkpt lat="45.17596" lon="5.56804">
        <ele>1211.8</ele>
        <time>2021-10-10T12:21:21Z</time>
      </trkpt>
      <trkpt lat="45.17598" lon="5.56804">
        <ele>1211.4</ele>
        <time>2021-10-10T12:21:22Z</time>
      </trkpt>
      <trkpt lat="45.17599" lon="5.56805">
        <ele>1211.4</ele>
        <time>2021-10-10T12:21:23Z</time>
      </trkpt>
      <trkpt lat="45.17601" lon="5.56804">
        <ele>1211.4</ele>
        <time>2021-10-10T12:21:24Z</time>
      </trkpt>
      <trkpt lat="45.17602" lon="5.56804">
        <ele>1211.2</ele>
        <time>2021-10-10T12:21:25Z</time>
      </trkpt>
      <trkpt lat="45.17605" lon="5.56803">
        <ele>1211</ele>
        <time>2021-10-10T12:21:26Z</time>
      </trkpt>
      <trkpt lat="45.17607" lon="5.56802">
        <ele>1211</ele>
        <time>2021-10-10T12:21:27Z</time>
      </trkpt>
      <trkpt lat="45.1761" lon="5.56803">
        <ele>1211</ele>
        <time>2021-10-10T12:21:28Z</time>
      </trkpt>
      <trkpt lat="45.17615" lon="5.56804">
        <ele>1210</ele>
        <time>2021-10-10T12:21:29Z</time>
      </trkpt>
      <trkpt lat="45.17619" lon="5.56806">
        <ele>1206</ele>
        <time>2021-10-10T12:21:30Z</time>
      </trkpt>
      <trkpt lat="45.17624" lon="5.56808">
        <ele>1206</ele>
        <time>2021-10-10T12:21:31Z</time>
      </trkpt>
      <trkpt lat="45.17628" lon="5.56812">
        <ele>1206</ele>
        <time>2021-10-10T12:21:32Z</time>
      </trkpt>
      <trkpt lat="45.17633" lon="5.56815">
        <ele>1205</ele>
        <time>2021-10-10T12:21:33Z</time>
      </trkpt>
      <trkpt lat="45.17639" lon="5.56817">
        <ele>1202</ele>
        <time>2021-10-10T12:21:34Z</time>
      </trkpt>
      <trkpt lat="45.17644" lon="5.5682">
        <ele>1202</ele>
        <time>2021-10-10T12:21:35Z</time>
      </trkpt>
      <trkpt lat="45.17649" lon="5.56823">
        <ele>1202</ele>
        <time>2021-10-10T12:21:36Z</time>
      </trkpt>
      <trkpt lat="45.17653" lon="5.56826">
        <ele>1201</ele>
        <time>2021-10-10T12:21:37Z</time>
      </trkpt>
      <trkpt lat="45.17656" lon="5.5683">
        <ele>1199.6</ele>
        <time>2021-10-10T12:21:38Z</time>
      </trkpt>
      <trkpt lat="45.1766" lon="5.56832">
        <ele>1199.6</ele>
        <time>2021-10-10T12:21:39Z</time>
      </trkpt>
      <trkpt lat="45.17664" lon="5.56834">
        <ele>1199.6</ele>
        <time>2021-10-10T12:21:40Z</time>
      </trkpt>
      <trkpt lat="45.17667" lon="5.56837">
        <ele>1199.6</ele>
        <time>2021-10-10T12:21:41Z</time>
      </trkpt>
      <trkpt lat="45.17671" lon="5.56842">
        <ele>1196.2</ele>
        <time>2021-10-10T12:21:42Z</time>
      </trkpt>
      <trkpt lat="45.17678" lon="5.56846">
        <ele>1196.2</ele>
        <time>2021-10-10T12:21:43Z</time>
      </trkpt>
      <trkpt lat="45.17683" lon="5.56851">
        <ele>1196.2</ele>
        <time>2021-10-10T12:21:44Z</time>
      </trkpt>
      <trkpt lat="45.17687" lon="5.56855">
        <ele>1196.2</ele>
        <time>2021-10-10T12:21:45Z</time>
      </trkpt>
      <trkpt lat="45.1769" lon="5.56857">
        <ele>1195.2</ele>
        <time>2021-10-10T12:21:46Z</time>
      </trkpt>
      <trkpt lat="45.17694" lon="5.56858">
        <ele>1195.2</ele>
        <time>2021-10-10T12:21:47Z</time>
      </trkpt>
      <trkpt lat="45.17698" lon="5.56858">
        <ele>1195.2</ele>
        <time>2021-10-10T12:21:48Z</time>
      </trkpt>
      <trkpt lat="45.17701" lon="5.56857">
        <ele>1195.2</ele>
        <time>2021-10-10T12:21:49Z</time>
      </trkpt>
      <trkpt lat="45.17703" lon="5.56857">
        <ele>1192</ele>
        <time>2021-10-10T12:21:50Z</time>
      </trkpt>
      <trkpt lat="45.17706" lon="5.56857">
        <ele>1192</ele>
        <time>2021-10-10T12:21:51Z</time>
      </trkpt>
      <trkpt lat="45.17708" lon="5.56855">
        <ele>1192</ele>
        <time>2021-10-10T12:21:52Z</time>
      </trkpt>
      <trkpt lat="45.1771" lon="5.56854">
        <ele>1191</ele>
        <time>2021-10-10T12:21:53Z</time>
      </trkpt>
      <trkpt lat="45.17712" lon="5.56851">
        <ele>1188</ele>
        <time>2021-10-10T12:21:54Z</time>
      </trkpt>
      <trkpt lat="45.17714" lon="5.56849">
        <ele>1188</ele>
        <time>2021-10-10T12:21:55Z</time>
      </trkpt>
      <trkpt lat="45.17715" lon="5.56845">
        <ele>1188</ele>
        <time>2021-10-10T12:21:56Z</time>
      </trkpt>
      <trkpt lat="45.17715" lon="5.5684">
        <ele>1187</ele>
        <time>2021-10-10T12:21:57Z</time>
      </trkpt>
      <trkpt lat="45.17716" lon="5.56835">
        <ele>1183.4</ele>
        <time>2021-10-10T12:21:58Z</time>
      </trkpt>
      <trkpt lat="45.17716" lon="5.56828">
        <ele>1183.4</ele>
        <time>2021-10-10T12:21:59Z</time>
      </trkpt>
      <trkpt lat="45.17716" lon="5.56824">
        <ele>1183.4</ele>
        <time>2021-10-10T12:22:00Z</time>
      </trkpt>
      <trkpt lat="45.17715" lon="5.56819">
        <ele>1183.4</ele>
        <time>2021-10-10T12:22:01Z</time>
      </trkpt>
      <trkpt lat="45.17713" lon="5.56817">
        <ele>1184</ele>
        <time>2021-10-10T12:22:02Z</time>
      </trkpt>
      <trkpt lat="45.17712" lon="5.56816">
        <ele>1184</ele>
        <time>2021-10-10T12:22:03Z</time>
      </trkpt>
      <trkpt lat="45.17712" lon="5.56816">
        <ele>1184</ele>
        <time>2021-10-10T12:22:04Z</time>
      </trkpt>
      <trkpt lat="45.17712" lon="5.56815">
        <ele>1183.6</ele>
        <time>2021-10-10T12:22:25Z</time>
      </trkpt>
      <trkpt lat="45.17716" lon="5.56811">
        <ele>1183.6</ele>
        <time>2021-10-10T12:22:26Z</time>
      </trkpt>
      <trkpt lat="45.17714" lon="5.56809">
        <ele>1183.6</ele>
        <time>2021-10-10T12:22:27Z</time>
      </trkpt>
      <trkpt lat="45.17713" lon="5.56806">
        <ele>1183.6</ele>
        <time>2021-10-10T12:22:28Z</time>
      </trkpt>
      <trkpt lat="45.17712" lon="5.56803">
        <ele>1182.6</ele>
        <time>2021-10-10T12:22:29Z</time>
      </trkpt>
      <trkpt lat="45.17709" lon="5.56799">
        <ele>1179.8</ele>
        <time>2021-10-10T12:22:30Z</time>
      </trkpt>
      <trkpt lat="45.17708" lon="5.56797">
        <ele>1179.8</ele>
        <time>2021-10-10T12:22:31Z</time>
      </trkpt>
      <trkpt lat="45.17706" lon="5.56794">
        <ele>1179.8</ele>
        <time>2021-10-10T12:22:32Z</time>
      </trkpt>
      <trkpt lat="45.17704" lon="5.5679">
        <ele>1178.8</ele>
        <time>2021-10-10T12:22:33Z</time>
      </trkpt>
      <trkpt lat="45.17701" lon="5.56786">
        <ele>1177.4</ele>
        <time>2021-10-10T12:22:34Z</time>
      </trkpt>
      <trkpt lat="45.17699" lon="5.56784">
        <ele>1177.4</ele>
        <time>2021-10-10T12:22:35Z</time>
      </trkpt>
      <trkpt lat="45.17696" lon="5.56782">
        <ele>1177.4</ele>
        <time>2021-10-10T12:22:36Z</time>
      </trkpt>
      <trkpt lat="45.17694" lon="5.5678">
        <ele>1176.4</ele>
        <time>2021-10-10T12:22:37Z</time>
      </trkpt>
      <trkpt lat="45.17691" lon="5.56775">
        <ele>1171.8</ele>
        <time>2021-10-10T12:22:38Z</time>
      </trkpt>
      <trkpt lat="45.17688" lon="5.56771">
        <ele>1171.8</ele>
        <time>2021-10-10T12:22:39Z</time>
      </trkpt>
      <trkpt lat="45.17685" lon="5.56766">
        <ele>1171.8</ele>
        <time>2021-10-10T12:22:40Z</time>
      </trkpt>
      <trkpt lat="45.17683" lon="5.56762">
        <ele>1171.8</ele>
        <time>2021-10-10T12:22:41Z</time>
      </trkpt>
      <trkpt lat="45.1768" lon="5.56761">
        <ele>1171</ele>
        <time>2021-10-10T12:22:42Z</time>
      </trkpt>
      <trkpt lat="45.17678" lon="5.56757">
        <ele>1171</ele>
        <time>2021-10-10T12:22:43Z</time>
      </trkpt>
      <trkpt lat="45.17676" lon="5.56754">
        <ele>1171</ele>
        <time>2021-10-10T12:22:44Z</time>
      </trkpt>
      <trkpt lat="45.17674" lon="5.56752">
        <ele>1170</ele>
        <time>2021-10-10T12:22:45Z</time>
      </trkpt>
      <trkpt lat="45.17673" lon="5.56751">
        <ele>1169.8</ele>
        <time>2021-10-10T12:22:46Z</time>
      </trkpt>
      <trkpt lat="45.17671" lon="5.5675">
        <ele>1169.8</ele>
        <time>2021-10-10T12:22:47Z</time>
      </trkpt>
      <trkpt lat="45.17671" lon="5.56742">
        <ele>1168.4</ele>
        <time>2021-10-10T12:22:56Z</time>
      </trkpt>
      <trkpt lat="45.17672" lon="5.56743">
        <ele>1168.4</ele>
        <time>2021-10-10T12:22:57Z</time>
      </trkpt>
      <trkpt lat="45.17674" lon="5.56744">
        <ele>1168.8</ele>
        <time>2021-10-10T12:22:58Z</time>
      </trkpt>
      <trkpt lat="45.17674" lon="5.56744">
        <ele>1168.8</ele>
        <time>2021-10-10T12:22:59Z</time>
      </trkpt>
      <trkpt lat="45.17675" lon="5.56744">
        <ele>1168.8</ele>
        <time>2021-10-10T12:23:00Z</time>
      </trkpt>
      <trkpt lat="45.17675" lon="5.56744">
        <ele>1168.4</ele>
        <time>2021-10-10T12:23:01Z</time>
      </trkpt>
      <trkpt lat="45.17675" lon="5.56744">
        <ele>1168.4</ele>
        <time>2021-10-10T12:23:21Z</time>
      </trkpt>
      <trkpt lat="45.17676" lon="5.56742">
        <ele>1167.2</ele>
        <time>2021-10-10T12:23:22Z</time>
      </trkpt>
      <trkpt lat="45.17678" lon="5.5674">
        <ele>1167.2</ele>
        <time>2021-10-10T12:23:23Z</time>
      </trkpt>
      <trkpt lat="45.1768" lon="5.5674">
        <ele>1167.2</ele>
        <time>2021-10-10T12:23:24Z</time>
      </trkpt>
      <trkpt lat="45.17681" lon="5.56738">
        <ele>1166.2</ele>
        <time>2021-10-10T12:23:25Z</time>
      </trkpt>
      <trkpt lat="45.17684" lon="5.56735">
        <ele>1165</ele>
        <time>2021-10-10T12:23:26Z</time>
      </trkpt>
      <trkpt lat="45.17686" lon="5.56733">
        <ele>1165</ele>
        <time>2021-10-10T12:23:27Z</time>
      </trkpt>
      <trkpt lat="45.17688" lon="5.56731">
        <ele>1165</ele>
        <time>2021-10-10T12:23:28Z</time>
      </trkpt>
      <trkpt lat="45.1769" lon="5.56728">
        <ele>1164</ele>
        <time>2021-10-10T12:23:29Z</time>
      </trkpt>
      <trkpt lat="45.17692" lon="5.56723">
        <ele>1163.8</ele>
        <time>2021-10-10T12:23:30Z</time>
      </trkpt>
      <trkpt lat="45.17693" lon="5.56719">
        <ele>1163.8</ele>
        <time>2021-10-10T12:23:31Z</time>
      </trkpt>
      <trkpt lat="45.17694" lon="5.56715">
        <ele>1163.8</ele>
        <time>2021-10-10T12:23:32Z</time>
      </trkpt>
      <trkpt lat="45.17694" lon="5.5671">
        <ele>1162.8</ele>
        <time>2021-10-10T12:23:33Z</time>
      </trkpt>
      <trkpt lat="45.17694" lon="5.56706">
        <ele>1159.2</ele>
        <time>2021-10-10T12:23:34Z</time>
      </trkpt>
      <trkpt lat="45.17695" lon="5.56703">
        <ele>1159.2</ele>
        <time>2021-10-10T12:23:35Z</time>
      </trkpt>
      <trkpt lat="45.17697" lon="5.56699">
        <ele>1159.2</ele>
        <time>2021-10-10T12:23:36Z</time>
      </trkpt>
      <trkpt lat="45.17698" lon="5.56694">
        <ele>1159.2</ele>
        <time>2021-10-10T12:23:37Z</time>
      </trkpt>
      <trkpt lat="45.177" lon="5.5669">
        <ele>1155.8</ele>
        <time>2021-10-10T12:23:38Z</time>
      </trkpt>
      <trkpt lat="45.17701" lon="5.56685">
        <ele>1155.8</ele>
        <time>2021-10-10T12:23:39Z</time>
      </trkpt>
      <trkpt lat="45.17703" lon="5.56679">
        <ele>1155.8</ele>
        <time>2021-10-10T12:23:40Z</time>
      </trkpt>
      <trkpt lat="45.17705" lon="5.56672">
        <ele>1155.8</ele>
        <time>2021-10-10T12:23:41Z</time>
      </trkpt>
      <trkpt lat="45.17706" lon="5.56665">
        <ele>1152.6</ele>
        <time>2021-10-10T12:23:42Z</time>
      </trkpt>
      <trkpt lat="45.17708" lon="5.56658">
        <ele>1152.6</ele>
        <time>2021-10-10T12:23:43Z</time>
      </trkpt>
      <trkpt lat="45.1771" lon="5.56652">
        <ele>1152.6</ele>
        <time>2021-10-10T12:23:44Z</time>
      </trkpt>
      <trkpt lat="45.17712" lon="5.56645">
        <ele>1151.6</ele>
        <time>2021-10-10T12:23:45Z</time>
      </trkpt>
      <trkpt lat="45.17714" lon="5.56637">
        <ele>1146.6</ele>
        <time>2021-10-10T12:23:46Z</time>
      </trkpt>
      <trkpt lat="45.17716" lon="5.56629">
        <ele>1146.6</ele>
        <time>2021-10-10T12:23:47Z</time>
      </trkpt>
      <trkpt lat="45.17718" lon="5.5662">
        <ele>1146.6</ele>
        <time>2021-10-10T12:23:48Z</time>
      </trkpt>
      <trkpt lat="45.17719" lon="5.5661">
        <ele>1145.6</ele>
        <time>2021-10-10T12:23:49Z</time>
      </trkpt>
      <trkpt lat="45.17722" lon="5.56601">
        <ele>1143.2</ele>
        <time>2021-10-10T12:23:50Z</time>
      </trkpt>
      <trkpt lat="45.17724" lon="5.56591">
        <ele>1143.2</ele>
        <time>2021-10-10T12:23:51Z</time>
      </trkpt>
      <trkpt lat="45.17726" lon="5.56582">
        <ele>1143.2</ele>
        <time>2021-10-10T12:23:52Z</time>
      </trkpt>
      <trkpt lat="45.17729" lon="5.56572">
        <ele>1142.2</ele>
        <time>2021-10-10T12:23:53Z</time>
      </trkpt>
      <trkpt lat="45.17731" lon="5.56563">
        <ele>1137.2</ele>
        <time>2021-10-10T12:23:54Z</time>
      </trkpt>
      <trkpt lat="45.17733" lon="5.56554">
        <ele>1137.2</ele>
        <time>2021-10-10T12:23:55Z</time>
      </trkpt>
      <trkpt lat="45.17736" lon="5.56546">
        <ele>1137.2</ele>
        <time>2021-10-10T12:23:56Z</time>
      </trkpt>
      <trkpt lat="45.17739" lon="5.56538">
        <ele>1137.2</ele>
        <time>2021-10-10T12:23:57Z</time>
      </trkpt>
      <trkpt lat="45.17741" lon="5.56532">
        <ele>1137.2</ele>
        <time>2021-10-10T12:23:58Z</time>
      </trkpt>
      <trkpt lat="45.17742" lon="5.56526">
        <ele>1137.6</ele>
        <time>2021-10-10T12:23:59Z</time>
      </trkpt>
      <trkpt lat="45.17744" lon="5.5652">
        <ele>1137.6</ele>
        <time>2021-10-10T12:24:00Z</time>
      </trkpt>
      <trkpt lat="45.17745" lon="5.56515">
        <ele>1137.6</ele>
        <time>2021-10-10T12:24:01Z</time>
      </trkpt>
      <trkpt lat="45.17747" lon="5.56511">
        <ele>1137.8</ele>
        <time>2021-10-10T12:24:02Z</time>
      </trkpt>
      <trkpt lat="45.17748" lon="5.56506">
        <ele>1137.8</ele>
        <time>2021-10-10T12:24:03Z</time>
      </trkpt>
      <trkpt lat="45.17747" lon="5.56501">
        <ele>1137.8</ele>
        <time>2021-10-10T12:24:04Z</time>
      </trkpt>
      <trkpt lat="45.17746" lon="5.56497">
        <ele>1137.8</ele>
        <time>2021-10-10T12:24:05Z</time>
      </trkpt>
      <trkpt lat="45.17743" lon="5.56492">
        <ele>1136.2</ele>
        <time>2021-10-10T12:24:06Z</time>
      </trkpt>
      <trkpt lat="45.1774" lon="5.56489">
        <ele>1136.2</ele>
        <time>2021-10-10T12:24:07Z</time>
      </trkpt>
      <trkpt lat="45.17737" lon="5.56484">
        <ele>1136.2</ele>
        <time>2021-10-10T12:24:08Z</time>
      </trkpt>
      <trkpt lat="45.17734" lon="5.5648">
        <ele>1136.2</ele>
        <time>2021-10-10T12:24:09Z</time>
      </trkpt>
      <trkpt lat="45.1773" lon="5.56476">
        <ele>1134.8</ele>
        <time>2021-10-10T12:24:10Z</time>
      </trkpt>
      <trkpt lat="45.17727" lon="5.56472">
        <ele>1134.8</ele>
        <time>2021-10-10T12:24:11Z</time>
      </trkpt>
      <trkpt lat="45.17723" lon="5.56467">
        <ele>1134.8</ele>
        <time>2021-10-10T12:24:12Z</time>
      </trkpt>
      <trkpt lat="45.17719" lon="5.56462">
        <ele>1133.8</ele>
        <time>2021-10-10T12:24:13Z</time>
      </trkpt>
      <trkpt lat="45.17715" lon="5.56457">
        <ele>1133</ele>
        <time>2021-10-10T12:24:14Z</time>
      </trkpt>
      <trkpt lat="45.17711" lon="5.56451">
        <ele>1133</ele>
        <time>2021-10-10T12:24:15Z</time>
      </trkpt>
      <trkpt lat="45.17706" lon="5.56445">
        <ele>1133</ele>
        <time>2021-10-10T12:24:16Z</time>
      </trkpt>
      <trkpt lat="45.17702" lon="5.56439">
        <ele>1133</ele>
        <time>2021-10-10T12:24:17Z</time>
      </trkpt>
      <trkpt lat="45.17697" lon="5.56432">
        <ele>1131.6</ele>
        <time>2021-10-10T12:24:18Z</time>
      </trkpt>
      <trkpt lat="45.17691" lon="5.56426">
        <ele>1131.6</ele>
        <time>2021-10-10T12:24:19Z</time>
      </trkpt>
      <trkpt lat="45.17685" lon="5.56419">
        <ele>1131.6</ele>
        <time>2021-10-10T12:24:20Z</time>
      </trkpt>
      <trkpt lat="45.17678" lon="5.56412">
        <ele>1130.6</ele>
        <time>2021-10-10T12:24:21Z</time>
      </trkpt>
      <trkpt lat="45.17671" lon="5.56406">
        <ele>1129</ele>
        <time>2021-10-10T12:24:22Z</time>
      </trkpt>
      <trkpt lat="45.17663" lon="5.564">
        <ele>1129</ele>
        <time>2021-10-10T12:24:23Z</time>
      </trkpt>
      <trkpt lat="45.17656" lon="5.56395">
        <ele>1129</ele>
        <time>2021-10-10T12:24:24Z</time>
      </trkpt>
      <trkpt lat="45.17649" lon="5.56389">
        <ele>1128</ele>
        <time>2021-10-10T12:24:25Z</time>
      </trkpt>
      <trkpt lat="45.17642" lon="5.56385">
        <ele>1127</ele>
        <time>2021-10-10T12:24:26Z</time>
      </trkpt>
      <trkpt lat="45.17637" lon="5.56381">
        <ele>1127</ele>
        <time>2021-10-10T12:24:27Z</time>
      </trkpt>
      <trkpt lat="45.17633" lon="5.56378">
        <ele>1127</ele>
        <time>2021-10-10T12:24:28Z</time>
      </trkpt>
      <trkpt lat="45.17629" lon="5.56375">
        <ele>1127</ele>
        <time>2021-10-10T12:24:29Z</time>
      </trkpt>
      <trkpt lat="45.17626" lon="5.56372">
        <ele>1126.8</ele>
        <time>2021-10-10T12:24:30Z</time>
      </trkpt>
      <trkpt lat="45.17622" lon="5.56369">
        <ele>1126.8</ele>
        <time>2021-10-10T12:24:31Z</time>
      </trkpt>
      <trkpt lat="45.17618" lon="5.56366">
        <ele>1126.8</ele>
        <time>2021-10-10T12:24:32Z</time>
      </trkpt>
      <trkpt lat="45.17614" lon="5.56363">
        <ele>1125.8</ele>
        <time>2021-10-10T12:24:33Z</time>
      </trkpt>
      <trkpt lat="45.1761" lon="5.5636">
        <ele>1124.4</ele>
        <time>2021-10-10T12:24:34Z</time>
      </trkpt>
      <trkpt lat="45.17606" lon="5.56356">
        <ele>1124.4</ele>
        <time>2021-10-10T12:24:35Z</time>
      </trkpt>
      <trkpt lat="45.17602" lon="5.56352">
        <ele>1124.4</ele>
        <time>2021-10-10T12:24:36Z</time>
      </trkpt>
      <trkpt lat="45.17598" lon="5.56348">
        <ele>1124.4</ele>
        <time>2021-10-10T12:24:37Z</time>
      </trkpt>
      <trkpt lat="45.17594" lon="5.56344">
        <ele>1123.4</ele>
        <time>2021-10-10T12:24:38Z</time>
      </trkpt>
      <trkpt lat="45.17589" lon="5.5634">
        <ele>1123.4</ele>
        <time>2021-10-10T12:24:39Z</time>
      </trkpt>
      <trkpt lat="45.17585" lon="5.56336">
        <ele>1123.4</ele>
        <time>2021-10-10T12:24:40Z</time>
      </trkpt>
      <trkpt lat="45.17581" lon="5.56331">
        <ele>1122.4</ele>
        <time>2021-10-10T12:24:41Z</time>
      </trkpt>
      <trkpt lat="45.17577" lon="5.56327">
        <ele>1121.6</ele>
        <time>2021-10-10T12:24:42Z</time>
      </trkpt>
      <trkpt lat="45.17573" lon="5.56322">
        <ele>1121.6</ele>
        <time>2021-10-10T12:24:43Z</time>
      </trkpt>
      <trkpt lat="45.17568" lon="5.56317">
        <ele>1121.6</ele>
        <time>2021-10-10T12:24:44Z</time>
      </trkpt>
      <trkpt lat="45.17564" lon="5.56311">
        <ele>1121.6</ele>
        <time>2021-10-10T12:24:45Z</time>
      </trkpt>
      <trkpt lat="45.17561" lon="5.56306">
        <ele>1121.6</ele>
        <time>2021-10-10T12:24:46Z</time>
      </trkpt>
      <trkpt lat="45.17559" lon="5.56301">
        <ele>1121.6</ele>
        <time>2021-10-10T12:24:47Z</time>
      </trkpt>
      <trkpt lat="45.17557" lon="5.56296">
        <ele>1121.6</ele>
        <time>2021-10-10T12:24:48Z</time>
      </trkpt>
      <trkpt lat="45.17554" lon="5.5629">
        <ele>1121.6</ele>
        <time>2021-10-10T12:24:49Z</time>
      </trkpt>
      <trkpt lat="45.17551" lon="5.56284">
        <ele>1118.8</ele>
        <time>2021-10-10T12:24:50Z</time>
      </trkpt>
      <trkpt lat="45.17548" lon="5.56278">
        <ele>1118.8</ele>
        <time>2021-10-10T12:24:51Z</time>
      </trkpt>
      <trkpt lat="45.17546" lon="5.5627">
        <ele>1118.8</ele>
        <time>2021-10-10T12:24:52Z</time>
      </trkpt>
      <trkpt lat="45.17543" lon="5.56262">
        <ele>1117.8</ele>
        <time>2021-10-10T12:24:53Z</time>
      </trkpt>
      <trkpt lat="45.17539" lon="5.56254">
        <ele>1115.2</ele>
        <time>2021-10-10T12:24:54Z</time>
      </trkpt>
      <trkpt lat="45.17536" lon="5.56246">
        <ele>1115.2</ele>
        <time>2021-10-10T12:24:55Z</time>
      </trkpt>
      <trkpt lat="45.17532" lon="5.56238">
        <ele>1115.2</ele>
        <time>2021-10-10T12:24:56Z</time>
      </trkpt>
      <trkpt lat="45.17527" lon="5.56229">
        <ele>1115.2</ele>
        <time>2021-10-10T12:24:57Z</time>
      </trkpt>
      <trkpt lat="45.17522" lon="5.56221">
        <ele>1113</ele>
        <time>2021-10-10T12:24:58Z</time>
      </trkpt>
      <trkpt lat="45.17516" lon="5.56214">
        <ele>1113</ele>
        <time>2021-10-10T12:24:59Z</time>
      </trkpt>
      <trkpt lat="45.1751" lon="5.56207">
        <ele>1113</ele>
        <time>2021-10-10T12:25:00Z</time>
      </trkpt>
      <trkpt lat="45.17504" lon="5.562">
        <ele>1112</ele>
        <time>2021-10-10T12:25:01Z</time>
      </trkpt>
      <trkpt lat="45.17498" lon="5.56192">
        <ele>1110</ele>
        <time>2021-10-10T12:25:02Z</time>
      </trkpt>
      <trkpt lat="45.17491" lon="5.56184">
        <ele>1110</ele>
        <time>2021-10-10T12:25:03Z</time>
      </trkpt>
      <trkpt lat="45.17484" lon="5.56176">
        <ele>1110</ele>
        <time>2021-10-10T12:25:04Z</time>
      </trkpt>
      <trkpt lat="45.17478" lon="5.56168">
        <ele>1109</ele>
        <time>2021-10-10T12:25:05Z</time>
      </trkpt>
      <trkpt lat="45.17471" lon="5.5616">
        <ele>1104.8</ele>
        <time>2021-10-10T12:25:06Z</time>
      </trkpt>
      <trkpt lat="45.17465" lon="5.56151">
        <ele>1104.8</ele>
        <time>2021-10-10T12:25:07Z</time>
      </trkpt>
      <trkpt lat="45.17458" lon="5.56141">
        <ele>1104.8</ele>
        <time>2021-10-10T12:25:08Z</time>
      </trkpt>
      <trkpt lat="45.17452" lon="5.5613">
        <ele>1103.8</ele>
        <time>2021-10-10T12:25:09Z</time>
      </trkpt>
      <trkpt lat="45.17447" lon="5.56118">
        <ele>1099.8</ele>
        <time>2021-10-10T12:25:10Z</time>
      </trkpt>
      <trkpt lat="45.17441" lon="5.56106">
        <ele>1099.8</ele>
        <time>2021-10-10T12:25:11Z</time>
      </trkpt>
      <trkpt lat="45.17436" lon="5.56094">
        <ele>1099.8</ele>
        <time>2021-10-10T12:25:12Z</time>
      </trkpt>
      <trkpt lat="45.17431" lon="5.56084">
        <ele>1099.8</ele>
        <time>2021-10-10T12:25:13Z</time>
      </trkpt>
      <trkpt lat="45.17426" lon="5.56074">
        <ele>1099.6</ele>
        <time>2021-10-10T12:25:14Z</time>
      </trkpt>
      <trkpt lat="45.17421" lon="5.56065">
        <ele>1099.6</ele>
        <time>2021-10-10T12:25:15Z</time>
      </trkpt>
      <trkpt lat="45.17416" lon="5.56057">
        <ele>1099.6</ele>
        <time>2021-10-10T12:25:16Z</time>
      </trkpt>
      <trkpt lat="45.17411" lon="5.56051">
        <ele>1098.6</ele>
        <time>2021-10-10T12:25:17Z</time>
      </trkpt>
      <trkpt lat="45.17407" lon="5.56047">
        <ele>1096.6</ele>
        <time>2021-10-10T12:25:18Z</time>
      </trkpt>
      <trkpt lat="45.17403" lon="5.56043">
        <ele>1096.6</ele>
        <time>2021-10-10T12:25:19Z</time>
      </trkpt>
      <trkpt lat="45.17399" lon="5.5604">
        <ele>1096.6</ele>
        <time>2021-10-10T12:25:20Z</time>
      </trkpt>
      <trkpt lat="45.17395" lon="5.56035">
        <ele>1095.8</ele>
        <time>2021-10-10T12:25:21Z</time>
      </trkpt>
      <trkpt lat="45.17392" lon="5.56031">
        <ele>1095.4</ele>
        <time>2021-10-10T12:25:22Z</time>
      </trkpt>
      <trkpt lat="45.17389" lon="5.56026">
        <ele>1095.4</ele>
        <time>2021-10-10T12:25:23Z</time>
      </trkpt>
      <trkpt lat="45.17386" lon="5.56021">
        <ele>1095.4</ele>
        <time>2021-10-10T12:25:24Z</time>
      </trkpt>
      <trkpt lat="45.17383" lon="5.56015">
        <ele>1094.4</ele>
        <time>2021-10-10T12:25:25Z</time>
      </trkpt>
      <trkpt lat="45.17381" lon="5.56007">
        <ele>1093.4</ele>
        <time>2021-10-10T12:25:26Z</time>
      </trkpt>
      <trkpt lat="45.1738" lon="5.55999">
        <ele>1093.4</ele>
        <time>2021-10-10T12:25:27Z</time>
      </trkpt>
      <trkpt lat="45.17378" lon="5.55991">
        <ele>1093.4</ele>
        <time>2021-10-10T12:25:28Z</time>
      </trkpt>
      <trkpt lat="45.17377" lon="5.55982">
        <ele>1093.4</ele>
        <time>2021-10-10T12:25:29Z</time>
      </trkpt>
      <trkpt lat="45.17375" lon="5.55973">
        <ele>1093</ele>
        <time>2021-10-10T12:25:30Z</time>
      </trkpt>
      <trkpt lat="45.17374" lon="5.55964">
        <ele>1093</ele>
        <time>2021-10-10T12:25:31Z</time>
      </trkpt>
      <trkpt lat="45.17372" lon="5.55955">
        <ele>1093</ele>
        <time>2021-10-10T12:25:32Z</time>
      </trkpt>
      <trkpt lat="45.17371" lon="5.55945">
        <ele>1092</ele>
        <time>2021-10-10T12:25:33Z</time>
      </trkpt>
      <trkpt lat="45.17369" lon="5.55935">
        <ele>1090.4</ele>
        <time>2021-10-10T12:25:34Z</time>
      </trkpt>
      <trkpt lat="45.17367" lon="5.55925">
        <ele>1090.4</ele>
        <time>2021-10-10T12:25:35Z</time>
      </trkpt>
      <trkpt lat="45.17365" lon="5.55915">
        <ele>1090.4</ele>
        <time>2021-10-10T12:25:36Z</time>
      </trkpt>
      <trkpt lat="45.17362" lon="5.55904">
        <ele>1090.4</ele>
        <time>2021-10-10T12:25:37Z</time>
      </trkpt>
      <trkpt lat="45.17359" lon="5.55894">
        <ele>1088.8</ele>
        <time>2021-10-10T12:25:38Z</time>
      </trkpt>
      <trkpt lat="45.17357" lon="5.55884">
        <ele>1088.8</ele>
        <time>2021-10-10T12:25:39Z</time>
      </trkpt>
      <trkpt lat="45.17353" lon="5.55874">
        <ele>1088.8</ele>
        <time>2021-10-10T12:25:40Z</time>
      </trkpt>
      <trkpt lat="45.17349" lon="5.55865">
        <ele>1087.8</ele>
        <time>2021-10-10T12:25:41Z</time>
      </trkpt>
      <trkpt lat="45.17344" lon="5.55856">
        <ele>1086.6</ele>
        <time>2021-10-10T12:25:42Z</time>
      </trkpt>
      <trkpt lat="45.17339" lon="5.55848">
        <ele>1086.6</ele>
        <time>2021-10-10T12:25:43Z</time>
      </trkpt>
      <trkpt lat="45.17334" lon="5.55839">
        <ele>1086.6</ele>
        <time>2021-10-10T12:25:44Z</time>
      </trkpt>
      <trkpt lat="45.17329" lon="5.55831">
        <ele>1086.6</ele>
        <time>2021-10-10T12:25:45Z</time>
      </trkpt>
      <trkpt lat="45.17324" lon="5.55822">
        <ele>1086</ele>
        <time>2021-10-10T12:25:46Z</time>
      </trkpt>
      <trkpt lat="45.17319" lon="5.55813">
        <ele>1086</ele>
        <time>2021-10-10T12:25:47Z</time>
      </trkpt>
      <trkpt lat="45.17313" lon="5.55804">
        <ele>1086</ele>
        <time>2021-10-10T12:25:48Z</time>
      </trkpt>
      <trkpt lat="45.17308" lon="5.55796">
        <ele>1086</ele>
        <time>2021-10-10T12:25:49Z</time>
      </trkpt>
      <trkpt lat="45.17303" lon="5.55788">
        <ele>1087</ele>
        <time>2021-10-10T12:25:50Z</time>
      </trkpt>
      <trkpt lat="45.17298" lon="5.55781">
        <ele>1087</ele>
        <time>2021-10-10T12:25:51Z</time>
      </trkpt>
      <trkpt lat="45.17294" lon="5.55774">
        <ele>1087</ele>
        <time>2021-10-10T12:25:52Z</time>
      </trkpt>
      <trkpt lat="45.17291" lon="5.5577">
        <ele>1087</ele>
        <time>2021-10-10T12:25:53Z</time>
      </trkpt>
      <trkpt lat="45.17289" lon="5.55766">
        <ele>1086.8</ele>
        <time>2021-10-10T12:25:54Z</time>
      </trkpt>
      <trkpt lat="45.17288" lon="5.55764">
        <ele>1086.8</ele>
        <time>2021-10-10T12:25:55Z</time>
      </trkpt>
      <trkpt lat="45.17287" lon="5.55761">
        <ele>1086.8</ele>
        <time>2021-10-10T12:25:56Z</time>
      </trkpt>
      <trkpt lat="45.17286" lon="5.5576">
        <ele>1086.6</ele>
        <time>2021-10-10T12:25:57Z</time>
      </trkpt>
      <trkpt lat="45.17285" lon="5.55758">
        <ele>1087</ele>
        <time>2021-10-10T12:26:09Z</time>
      </trkpt>
      <trkpt lat="45.17285" lon="5.55758">
        <ele>1087.2</ele>
        <time>2021-10-10T12:26:10Z</time>
      </trkpt>
      <trkpt lat="45.17285" lon="5.55759">
        <ele>1087.2</ele>
        <time>2021-10-10T12:26:11Z</time>
      </trkpt>
      <trkpt lat="45.17285" lon="5.55761">
        <ele>1087.2</ele>
        <time>2021-10-10T12:26:12Z</time>
      </trkpt>
      <trkpt lat="45.17286" lon="5.55764">
        <ele>1086.8</ele>
        <time>2021-10-10T12:26:22Z</time>
      </trkpt>
      <trkpt lat="45.17287" lon="5.55765">
        <ele>1086.8</ele>
        <time>2021-10-10T12:26:23Z</time>
      </trkpt>
      <trkpt lat="45.17288" lon="5.55767">
        <ele>1086.8</ele>
        <time>2021-10-10T12:26:24Z</time>
      </trkpt>
      <trkpt lat="45.1729" lon="5.55769">
        <ele>1086.2</ele>
        <time>2021-10-10T12:26:25Z</time>
      </trkpt>
      <trkpt lat="45.17291" lon="5.55771">
        <ele>1086.4</ele>
        <time>2021-10-10T12:26:26Z</time>
      </trkpt>
      <trkpt lat="45.17292" lon="5.55774">
        <ele>1086.4</ele>
        <time>2021-10-10T12:26:27Z</time>
      </trkpt>
      <trkpt lat="45.17294" lon="5.55777">
        <ele>1086.4</ele>
        <time>2021-10-10T12:26:28Z</time>
      </trkpt>
      <trkpt lat="45.17295" lon="5.5578">
        <ele>1087.2</ele>
        <time>2021-10-10T12:26:29Z</time>
      </trkpt>
      <trkpt lat="45.17296" lon="5.55782">
        <ele>1087.8</ele>
        <time>2021-10-10T12:26:30Z</time>
      </trkpt>
      <trkpt lat="45.17298" lon="5.55785">
        <ele>1087.8</ele>
        <time>2021-10-10T12:26:31Z</time>
      </trkpt>
      <trkpt lat="45.173" lon="5.55788">
        <ele>1087.8</ele>
        <time>2021-10-10T12:26:32Z</time>
      </trkpt>
      <trkpt lat="45.17301" lon="5.55791">
        <ele>1087.8</ele>
        <time>2021-10-10T12:26:33Z</time>
      </trkpt>
      <trkpt lat="45.17303" lon="5.55794">
        <ele>1087.4</ele>
        <time>2021-10-10T12:26:34Z</time>
      </trkpt>
      <trkpt lat="45.17305" lon="5.55796">
        <ele>1087.4</ele>
        <time>2021-10-10T12:26:35Z</time>
      </trkpt>
      <trkpt lat="45.17307" lon="5.55799">
        <ele>1087.4</ele>
        <time>2021-10-10T12:26:36Z</time>
      </trkpt>
      <trkpt lat="45.17308" lon="5.55802">
        <ele>1087.4</ele>
        <time>2021-10-10T12:26:37Z</time>
      </trkpt>
      <trkpt lat="45.1731" lon="5.55804">
        <ele>1087.6</ele>
        <time>2021-10-10T12:26:38Z</time>
      </trkpt>
      <trkpt lat="45.17312" lon="5.55807">
        <ele>1087.6</ele>
        <time>2021-10-10T12:26:39Z</time>
      </trkpt>
      <trkpt lat="45.17313" lon="5.55809">
        <ele>1087.6</ele>
        <time>2021-10-10T12:26:40Z</time>
      </trkpt>
      <trkpt lat="45.17315" lon="5.55812">
        <ele>1088.2</ele>
        <time>2021-10-10T12:26:41Z</time>
      </trkpt>
      <trkpt lat="45.17317" lon="5.55815">
        <ele>1089.2</ele>
        <time>2021-10-10T12:26:42Z</time>
      </trkpt>
      <trkpt lat="45.17318" lon="5.55818">
        <ele>1089.2</ele>
        <time>2021-10-10T12:26:43Z</time>
      </trkpt>
      <trkpt lat="45.1732" lon="5.5582">
        <ele>1089.2</ele>
        <time>2021-10-10T12:26:44Z</time>
      </trkpt>
      <trkpt lat="45.17322" lon="5.55823">
        <ele>1089.2</ele>
        <time>2021-10-10T12:26:45Z</time>
      </trkpt>
      <trkpt lat="45.17323" lon="5.55826">
        <ele>1089.2</ele>
        <time>2021-10-10T12:26:46Z</time>
      </trkpt>
      <trkpt lat="45.17325" lon="5.55828">
        <ele>1089.2</ele>
        <time>2021-10-10T12:26:47Z</time>
      </trkpt>
      <trkpt lat="45.17328" lon="5.55829">
        <ele>1089.2</ele>
        <time>2021-10-10T12:26:48Z</time>
      </trkpt>
      <trkpt lat="45.1733" lon="5.55829">
        <ele>1089.2</ele>
        <time>2021-10-10T12:26:49Z</time>
      </trkpt>
      <trkpt lat="45.17333" lon="5.5583">
        <ele>1089.8</ele>
        <time>2021-10-10T12:26:50Z</time>
      </trkpt>
      <trkpt lat="45.17335" lon="5.55831">
        <ele>1089.8</ele>
        <time>2021-10-10T12:26:51Z</time>
      </trkpt>
      <trkpt lat="45.17337" lon="5.55832">
        <ele>1089.8</ele>
        <time>2021-10-10T12:26:52Z</time>
      </trkpt>
      <trkpt lat="45.1734" lon="5.55833">
        <ele>1089.8</ele>
        <time>2021-10-10T12:26:53Z</time>
      </trkpt>
      <trkpt lat="45.17342" lon="5.55834">
        <ele>1090.8</ele>
        <time>2021-10-10T12:26:54Z</time>
      </trkpt>
      <trkpt lat="45.17344" lon="5.55834">
        <ele>1090.8</ele>
        <time>2021-10-10T12:26:55Z</time>
      </trkpt>
      <trkpt lat="45.17345" lon="5.55833">
        <ele>1090.8</ele>
        <time>2021-10-10T12:26:56Z</time>
      </trkpt>
      <trkpt lat="45.17346" lon="5.55832">
        <ele>1091</ele>
        <time>2021-10-10T12:26:57Z</time>
      </trkpt>
      <trkpt lat="45.17346" lon="5.55829">
        <ele>1091</ele>
        <time>2021-10-10T12:26:58Z</time>
      </trkpt>
      <trkpt lat="45.17346" lon="5.55826">
        <ele>1091</ele>
        <time>2021-10-10T12:26:59Z</time>
      </trkpt>
      <trkpt lat="45.17345" lon="5.55823">
        <ele>1091</ele>
        <time>2021-10-10T12:27:00Z</time>
      </trkpt>
      <trkpt lat="45.17345" lon="5.55819">
        <ele>1092</ele>
        <time>2021-10-10T12:27:01Z</time>
      </trkpt>
      <trkpt lat="45.17344" lon="5.55815">
        <ele>1091.4</ele>
        <time>2021-10-10T12:27:02Z</time>
      </trkpt>
      <trkpt lat="45.17343" lon="5.55811">
        <ele>1091.4</ele>
        <time>2021-10-10T12:27:03Z</time>
      </trkpt>
      <trkpt lat="45.17343" lon="5.55807">
        <ele>1091.4</ele>
        <time>2021-10-10T12:27:04Z</time>
      </trkpt>
      <trkpt lat="45.17342" lon="5.55803">
        <ele>1092</ele>
        <time>2021-10-10T12:27:05Z</time>
      </trkpt>
      <trkpt lat="45.17343" lon="5.558">
        <ele>1092.4</ele>
        <time>2021-10-10T12:27:06Z</time>
      </trkpt>
      <trkpt lat="45.17343" lon="5.55796">
        <ele>1092.4</ele>
        <time>2021-10-10T12:27:07Z</time>
      </trkpt>
      <trkpt lat="45.17344" lon="5.55792">
        <ele>1092.4</ele>
        <time>2021-10-10T12:27:08Z</time>
      </trkpt>
      <trkpt lat="45.17344" lon="5.55788">
        <ele>1092.4</ele>
        <time>2021-10-10T12:27:09Z</time>
      </trkpt>
      <trkpt lat="45.17345" lon="5.55785">
        <ele>1092.8</ele>
        <time>2021-10-10T12:27:10Z</time>
      </trkpt>
      <trkpt lat="45.17346" lon="5.55782">
        <ele>1092.8</ele>
        <time>2021-10-10T12:27:11Z</time>
      </trkpt>
      <trkpt lat="45.17346" lon="5.55779">
        <ele>1092.8</ele>
        <time>2021-10-10T12:27:12Z</time>
      </trkpt>
      <trkpt lat="45.17347" lon="5.55776">
        <ele>1092.8</ele>
        <time>2021-10-10T12:27:13Z</time>
      </trkpt>
      <trkpt lat="45.17348" lon="5.55773">
        <ele>1093.6</ele>
        <time>2021-10-10T12:27:14Z</time>
      </trkpt>
      <trkpt lat="45.17349" lon="5.5577">
        <ele>1093.6</ele>
        <time>2021-10-10T12:27:15Z</time>
      </trkpt>
      <trkpt lat="45.1735" lon="5.55768">
        <ele>1093.6</ele>
        <time>2021-10-10T12:27:16Z</time>
      </trkpt>
      <trkpt lat="45.17351" lon="5.55765">
        <ele>1094</ele>
        <time>2021-10-10T12:27:17Z</time>
      </trkpt>
      <trkpt lat="45.17352" lon="5.55763">
        <ele>1095</ele>
        <time>2021-10-10T12:27:18Z</time>
      </trkpt>
      <trkpt lat="45.17353" lon="5.55761">
        <ele>1095</ele>
        <time>2021-10-10T12:27:19Z</time>
      </trkpt>
      <trkpt lat="45.17354" lon="5.55759">
        <ele>1095</ele>
        <time>2021-10-10T12:27:20Z</time>
      </trkpt>
      <trkpt lat="45.17355" lon="5.55757">
        <ele>1094.6</ele>
        <time>2021-10-10T12:27:21Z</time>
      </trkpt>
      <trkpt lat="45.17356" lon="5.55755">
        <ele>1095.4</ele>
        <time>2021-10-10T12:27:22Z</time>
      </trkpt>
      <trkpt lat="45.17357" lon="5.55753">
        <ele>1095.4</ele>
        <time>2021-10-10T12:27:23Z</time>
      </trkpt>
      <trkpt lat="45.17359" lon="5.55751">
        <ele>1095.4</ele>
        <time>2021-10-10T12:27:24Z</time>
      </trkpt>
      <trkpt lat="45.1736" lon="5.55749">
        <ele>1096</ele>
        <time>2021-10-10T12:27:25Z</time>
      </trkpt>
      <trkpt lat="45.17361" lon="5.55747">
        <ele>1096.6</ele>
        <time>2021-10-10T12:27:26Z</time>
      </trkpt>
      <trkpt lat="45.17362" lon="5.55745">
        <ele>1096.6</ele>
        <time>2021-10-10T12:27:27Z</time>
      </trkpt>
      <trkpt lat="45.17364" lon="5.55743">
        <ele>1096.6</ele>
        <time>2021-10-10T12:27:28Z</time>
      </trkpt>
      <trkpt lat="45.17365" lon="5.55741">
        <ele>1096.6</ele>
        <time>2021-10-10T12:27:29Z</time>
      </trkpt>
      <trkpt lat="45.17367" lon="5.55739">
        <ele>1096.6</ele>
        <time>2021-10-10T12:27:30Z</time>
      </trkpt>
      <trkpt lat="45.17368" lon="5.55737">
        <ele>1096.6</ele>
        <time>2021-10-10T12:27:31Z</time>
      </trkpt>
      <trkpt lat="45.17369" lon="5.55735">
        <ele>1096.6</ele>
        <time>2021-10-10T12:27:32Z</time>
      </trkpt>
      <trkpt lat="45.17371" lon="5.55733">
        <ele>1096.6</ele>
        <time>2021-10-10T12:27:33Z</time>
      </trkpt>
      <trkpt lat="45.17372" lon="5.55731">
        <ele>1096</ele>
        <time>2021-10-10T12:27:34Z</time>
      </trkpt>
      <trkpt lat="45.17373" lon="5.55729">
        <ele>1096</ele>
        <time>2021-10-10T12:27:35Z</time>
      </trkpt>
      <trkpt lat="45.17374" lon="5.55727">
        <ele>1096</ele>
        <time>2021-10-10T12:27:36Z</time>
      </trkpt>
      <trkpt lat="45.17376" lon="5.55724">
        <ele>1096</ele>
        <time>2021-10-10T12:27:37Z</time>
      </trkpt>
      <trkpt lat="45.17377" lon="5.55722">
        <ele>1095.2</ele>
        <time>2021-10-10T12:27:38Z</time>
      </trkpt>
      <trkpt lat="45.17379" lon="5.55719">
        <ele>1095.2</ele>
        <time>2021-10-10T12:27:39Z</time>
      </trkpt>
      <trkpt lat="45.1738" lon="5.55716">
        <ele>1095.2</ele>
        <time>2021-10-10T12:27:40Z</time>
      </trkpt>
      <trkpt lat="45.17381" lon="5.55713">
        <ele>1095.2</ele>
        <time>2021-10-10T12:27:41Z</time>
      </trkpt>
      <trkpt lat="45.17382" lon="5.55709">
        <ele>1094.2</ele>
        <time>2021-10-10T12:27:42Z</time>
      </trkpt>
      <trkpt lat="45.17382" lon="5.55705">
        <ele>1094.2</ele>
        <time>2021-10-10T12:27:43Z</time>
      </trkpt>
      <trkpt lat="45.17383" lon="5.557">
        <ele>1094.2</ele>
        <time>2021-10-10T12:27:44Z</time>
      </trkpt>
      <trkpt lat="45.17382" lon="5.55695">
        <ele>1093.2</ele>
        <time>2021-10-10T12:27:45Z</time>
      </trkpt>
      <trkpt lat="45.17382" lon="5.5569">
        <ele>1091.4</ele>
        <time>2021-10-10T12:27:46Z</time>
      </trkpt>
      <trkpt lat="45.17382" lon="5.55684">
        <ele>1091.4</ele>
        <time>2021-10-10T12:27:47Z</time>
      </trkpt>
      <trkpt lat="45.17381" lon="5.55678">
        <ele>1091.4</ele>
        <time>2021-10-10T12:27:48Z</time>
      </trkpt>
      <trkpt lat="45.17381" lon="5.55672">
        <ele>1090.4</ele>
        <time>2021-10-10T12:27:49Z</time>
      </trkpt>
      <trkpt lat="45.17381" lon="5.55665">
        <ele>1087.8</ele>
        <time>2021-10-10T12:27:50Z</time>
      </trkpt>
      <trkpt lat="45.17382" lon="5.55659">
        <ele>1087.8</ele>
        <time>2021-10-10T12:27:51Z</time>
      </trkpt>
      <trkpt lat="45.17384" lon="5.55652">
        <ele>1087.8</ele>
        <time>2021-10-10T12:27:52Z</time>
      </trkpt>
      <trkpt lat="45.17386" lon="5.55646">
        <ele>1086.8</ele>
        <time>2021-10-10T12:27:53Z</time>
      </trkpt>
      <trkpt lat="45.17388" lon="5.5564">
        <ele>1084</ele>
        <time>2021-10-10T12:27:54Z</time>
      </trkpt>
      <trkpt lat="45.17391" lon="5.55635">
        <ele>1084</ele>
        <time>2021-10-10T12:27:55Z</time>
      </trkpt>
      <trkpt lat="45.17396" lon="5.55629">
        <ele>1084</ele>
        <time>2021-10-10T12:27:56Z</time>
      </trkpt>
      <trkpt lat="45.174" lon="5.55623">
        <ele>1083</ele>
        <time>2021-10-10T12:27:57Z</time>
      </trkpt>
      <trkpt lat="45.17406" lon="5.55617">
        <ele>1078.8</ele>
        <time>2021-10-10T12:27:58Z</time>
      </trkpt>
      <trkpt lat="45.17412" lon="5.5561">
        <ele>1078.8</ele>
        <time>2021-10-10T12:27:59Z</time>
      </trkpt>
      <trkpt lat="45.17418" lon="5.55603">
        <ele>1078.8</ele>
        <time>2021-10-10T12:28:00Z</time>
      </trkpt>
      <trkpt lat="45.17424" lon="5.55596">
        <ele>1077.8</ele>
        <time>2021-10-10T12:28:01Z</time>
      </trkpt>
      <trkpt lat="45.1743" lon="5.55588">
        <ele>1074.6</ele>
        <time>2021-10-10T12:28:02Z</time>
      </trkpt>
      <trkpt lat="45.17435" lon="5.5558">
        <ele>1074.6</ele>
        <time>2021-10-10T12:28:03Z</time>
      </trkpt>
      <trkpt lat="45.17441" lon="5.55571">
        <ele>1074.6</ele>
        <time>2021-10-10T12:28:04Z</time>
      </trkpt>
      <trkpt lat="45.17446" lon="5.55562">
        <ele>1073.6</ele>
        <time>2021-10-10T12:28:05Z</time>
      </trkpt>
      <trkpt lat="45.17453" lon="5.55553">
        <ele>1069.8</ele>
        <time>2021-10-10T12:28:06Z</time>
      </trkpt>
      <trkpt lat="45.17459" lon="5.55543">
        <ele>1069.8</ele>
        <time>2021-10-10T12:28:07Z</time>
      </trkpt>
      <trkpt lat="45.17465" lon="5.55534">
        <ele>1069.8</ele>
        <time>2021-10-10T12:28:08Z</time>
      </trkpt>
      <trkpt lat="45.17471" lon="5.55524">
        <ele>1068.8</ele>
        <time>2021-10-10T12:28:09Z</time>
      </trkpt>
      <trkpt lat="45.17478" lon="5.55515">
        <ele>1067</ele>
        <time>2021-10-10T12:28:10Z</time>
      </trkpt>
      <trkpt lat="45.17484" lon="5.55506">
        <ele>1067</ele>
        <time>2021-10-10T12:28:11Z</time>
      </trkpt>
      <trkpt lat="45.1749" lon="5.55496">
        <ele>1067</ele>
        <time>2021-10-10T12:28:12Z</time>
      </trkpt>
      <trkpt lat="45.17495" lon="5.55486">
        <ele>1067.8</ele>
        <time>2021-10-10T12:28:13Z</time>
      </trkpt>
      <trkpt lat="45.17499" lon="5.55475">
        <ele>1068</ele>
        <time>2021-10-10T12:28:14Z</time>
      </trkpt>
      <trkpt lat="45.17503" lon="5.55464">
        <ele>1068</ele>
        <time>2021-10-10T12:28:15Z</time>
      </trkpt>
      <trkpt lat="45.17505" lon="5.55453">
        <ele>1068</ele>
        <time>2021-10-10T12:28:16Z</time>
      </trkpt>
      <trkpt lat="45.17507" lon="5.55444">
        <ele>1068</ele>
        <time>2021-10-10T12:28:17Z</time>
      </trkpt>
      <trkpt lat="45.17509" lon="5.55435">
        <ele>1066.8</ele>
        <time>2021-10-10T12:28:18Z</time>
      </trkpt>
      <trkpt lat="45.1751" lon="5.55425">
        <ele>1066.8</ele>
        <time>2021-10-10T12:28:19Z</time>
      </trkpt>
      <trkpt lat="45.17511" lon="5.55416">
        <ele>1066.8</ele>
        <time>2021-10-10T12:28:20Z</time>
      </trkpt>
      <trkpt lat="45.17512" lon="5.55407">
        <ele>1067.6</ele>
        <time>2021-10-10T12:28:21Z</time>
      </trkpt>
      <trkpt lat="45.17512" lon="5.55398">
        <ele>1067.8</ele>
        <time>2021-10-10T12:28:22Z</time>
      </trkpt>
      <trkpt lat="45.17512" lon="5.55389">
        <ele>1067.8</ele>
        <time>2021-10-10T12:28:23Z</time>
      </trkpt>
      <trkpt lat="45.17512" lon="5.5538">
        <ele>1067.8</ele>
        <time>2021-10-10T12:28:24Z</time>
      </trkpt>
      <trkpt lat="45.17511" lon="5.55371">
        <ele>1067.8</ele>
        <time>2021-10-10T12:28:25Z</time>
      </trkpt>
      <trkpt lat="45.17509" lon="5.55363">
        <ele>1066.4</ele>
        <time>2021-10-10T12:28:26Z</time>
      </trkpt>
      <trkpt lat="45.17508" lon="5.55355">
        <ele>1066.4</ele>
        <time>2021-10-10T12:28:27Z</time>
      </trkpt>
      <trkpt lat="45.17507" lon="5.55347">
        <ele>1066.4</ele>
        <time>2021-10-10T12:28:28Z</time>
      </trkpt>
      <trkpt lat="45.17505" lon="5.5534">
        <ele>1067.4</ele>
        <time>2021-10-10T12:28:29Z</time>
      </trkpt>
      <trkpt lat="45.17504" lon="5.55333">
        <ele>1067.8</ele>
        <time>2021-10-10T12:28:30Z</time>
      </trkpt>
      <trkpt lat="45.17503" lon="5.55327">
        <ele>1067.8</ele>
        <time>2021-10-10T12:28:31Z</time>
      </trkpt>
      <trkpt lat="45.17503" lon="5.55319">
        <ele>1067.8</ele>
        <time>2021-10-10T12:28:32Z</time>
      </trkpt>
      <trkpt lat="45.17503" lon="5.55312">
        <ele>1067.4</ele>
        <time>2021-10-10T12:28:33Z</time>
      </trkpt>
      <trkpt lat="45.17503" lon="5.55305">
        <ele>1067.4</ele>
        <time>2021-10-10T12:28:34Z</time>
      </trkpt>
      <trkpt lat="45.17504" lon="5.55299">
        <ele>1067.4</ele>
        <time>2021-10-10T12:28:35Z</time>
      </trkpt>
      <trkpt lat="45.17505" lon="5.55292">
        <ele>1067.4</ele>
        <time>2021-10-10T12:28:36Z</time>
      </trkpt>
      <trkpt lat="45.17506" lon="5.55285">
        <ele>1067.4</ele>
        <time>2021-10-10T12:28:37Z</time>
      </trkpt>
      <trkpt lat="45.17507" lon="5.55278">
        <ele>1069</ele>
        <time>2021-10-10T12:28:38Z</time>
      </trkpt>
      <trkpt lat="45.17507" lon="5.55271">
        <ele>1069</ele>
        <time>2021-10-10T12:28:39Z</time>
      </trkpt>
      <trkpt lat="45.17508" lon="5.55264">
        <ele>1069</ele>
        <time>2021-10-10T12:28:40Z</time>
      </trkpt>
      <trkpt lat="45.17508" lon="5.55257">
        <ele>1068.8</ele>
        <time>2021-10-10T12:28:41Z</time>
      </trkpt>
      <trkpt lat="45.17509" lon="5.5525">
        <ele>1068.6</ele>
        <time>2021-10-10T12:28:42Z</time>
      </trkpt>
      <trkpt lat="45.1751" lon="5.55244">
        <ele>1068.6</ele>
        <time>2021-10-10T12:28:43Z</time>
      </trkpt>
      <trkpt lat="45.1751" lon="5.55237">
        <ele>1068.6</ele>
        <time>2021-10-10T12:28:44Z</time>
      </trkpt>
      <trkpt lat="45.1751" lon="5.5523">
        <ele>1068.8</ele>
        <time>2021-10-10T12:28:45Z</time>
      </trkpt>
      <trkpt lat="45.17511" lon="5.55223">
        <ele>1069.4</ele>
        <time>2021-10-10T12:28:46Z</time>
      </trkpt>
      <trkpt lat="45.17511" lon="5.55217">
        <ele>1069.4</ele>
        <time>2021-10-10T12:28:47Z</time>
      </trkpt>
      <trkpt lat="45.17511" lon="5.5521">
        <ele>1069.4</ele>
        <time>2021-10-10T12:28:48Z</time>
      </trkpt>
      <trkpt lat="45.17512" lon="5.55204">
        <ele>1068.4</ele>
        <time>2021-10-10T12:28:49Z</time>
      </trkpt>
      <trkpt lat="45.17513" lon="5.55197">
        <ele>1067.2</ele>
        <time>2021-10-10T12:28:50Z</time>
      </trkpt>
      <trkpt lat="45.17514" lon="5.55191">
        <ele>1067.2</ele>
        <time>2021-10-10T12:28:51Z</time>
      </trkpt>
      <trkpt lat="45.17516" lon="5.55186">
        <ele>1067.2</ele>
        <time>2021-10-10T12:28:52Z</time>
      </trkpt>
      <trkpt lat="45.17518" lon="5.5518">
        <ele>1067.2</ele>
        <time>2021-10-10T12:28:53Z</time>
      </trkpt>
      <trkpt lat="45.1752" lon="5.55175">
        <ele>1066.6</ele>
        <time>2021-10-10T12:28:54Z</time>
      </trkpt>
      <trkpt lat="45.17522" lon="5.55169">
        <ele>1066.6</ele>
        <time>2021-10-10T12:28:55Z</time>
      </trkpt>
      <trkpt lat="45.17524" lon="5.55163">
        <ele>1066.6</ele>
        <time>2021-10-10T12:28:56Z</time>
      </trkpt>
      <trkpt lat="45.17526" lon="5.55157">
        <ele>1065.6</ele>
        <time>2021-10-10T12:28:57Z</time>
      </trkpt>
      <trkpt lat="45.17528" lon="5.5515">
        <ele>1062.4</ele>
        <time>2021-10-10T12:28:58Z</time>
      </trkpt>
      <trkpt lat="45.17531" lon="5.55143">
        <ele>1062.4</ele>
        <time>2021-10-10T12:28:59Z</time>
      </trkpt>
      <trkpt lat="45.17534" lon="5.55136">
        <ele>1062.4</ele>
        <time>2021-10-10T12:29:00Z</time>
      </trkpt>
      <trkpt lat="45.17537" lon="5.55129">
        <ele>1062.4</ele>
        <time>2021-10-10T12:29:01Z</time>
      </trkpt>
      <trkpt lat="45.1754" lon="5.55121">
        <ele>1060.8</ele>
        <time>2021-10-10T12:29:02Z</time>
      </trkpt>
      <trkpt lat="45.17543" lon="5.55114">
        <ele>1060.8</ele>
        <time>2021-10-10T12:29:03Z</time>
      </trkpt>
      <trkpt lat="45.17546" lon="5.55106">
        <ele>1060.8</ele>
        <time>2021-10-10T12:29:04Z</time>
      </trkpt>
      <trkpt lat="45.1755" lon="5.55098">
        <ele>1059.8</ele>
        <time>2021-10-10T12:29:05Z</time>
      </trkpt>
      <trkpt lat="45.17554" lon="5.55091">
        <ele>1059.6</ele>
        <time>2021-10-10T12:29:06Z</time>
      </trkpt>
      <trkpt lat="45.17558" lon="5.55083">
        <ele>1059.6</ele>
        <time>2021-10-10T12:29:07Z</time>
      </trkpt>
      <trkpt lat="45.17561" lon="5.55075">
        <ele>1059.6</ele>
        <time>2021-10-10T12:29:08Z</time>
      </trkpt>
      <trkpt lat="45.17565" lon="5.55067">
        <ele>1059.6</ele>
        <time>2021-10-10T12:29:09Z</time>
      </trkpt>
      <trkpt lat="45.17568" lon="5.5506">
        <ele>1060.2</ele>
        <time>2021-10-10T12:29:10Z</time>
      </trkpt>
      <trkpt lat="45.1757" lon="5.55054">
        <ele>1060.2</ele>
        <time>2021-10-10T12:29:11Z</time>
      </trkpt>
      <trkpt lat="45.17571" lon="5.5505">
        <ele>1060.2</ele>
        <time>2021-10-10T12:29:12Z</time>
      </trkpt>
      <trkpt lat="45.17572" lon="5.55048">
        <ele>1061.2</ele>
        <time>2021-10-10T12:29:13Z</time>
      </trkpt>
      <trkpt lat="45.17573" lon="5.55046">
        <ele>1061.6</ele>
        <time>2021-10-10T12:29:14Z</time>
      </trkpt>
      <trkpt lat="45.17573" lon="5.55043">
        <ele>1061.6</ele>
        <time>2021-10-10T12:29:15Z</time>
      </trkpt>
      <trkpt lat="45.17573" lon="5.55041">
        <ele>1061.6</ele>
        <time>2021-10-10T12:29:16Z</time>
      </trkpt>
      <trkpt lat="45.17573" lon="5.55037">
        <ele>1061.4</ele>
        <time>2021-10-10T12:29:17Z</time>
      </trkpt>
      <trkpt lat="45.17573" lon="5.55034">
        <ele>1061</ele>
        <time>2021-10-10T12:29:18Z</time>
      </trkpt>
      <trkpt lat="45.17573" lon="5.5503">
        <ele>1061</ele>
        <time>2021-10-10T12:29:19Z</time>
      </trkpt>
      <trkpt lat="45.17572" lon="5.55027">
        <ele>1061</ele>
        <time>2021-10-10T12:29:20Z</time>
      </trkpt>
      <trkpt lat="45.17571" lon="5.55024">
        <ele>1060</ele>
        <time>2021-10-10T12:29:21Z</time>
      </trkpt>
      <trkpt lat="45.17569" lon="5.5502">
        <ele>1059.6</ele>
        <time>2021-10-10T12:29:22Z</time>
      </trkpt>
      <trkpt lat="45.17568" lon="5.55015">
        <ele>1059.6</ele>
        <time>2021-10-10T12:29:23Z</time>
      </trkpt>
      <trkpt lat="45.17566" lon="5.5501">
        <ele>1059.6</ele>
        <time>2021-10-10T12:29:24Z</time>
      </trkpt>
      <trkpt lat="45.17565" lon="5.55004">
        <ele>1058.6</ele>
        <time>2021-10-10T12:29:25Z</time>
      </trkpt>
      <trkpt lat="45.17562" lon="5.54998">
        <ele>1057</ele>
        <time>2021-10-10T12:29:26Z</time>
      </trkpt>
      <trkpt lat="45.17559" lon="5.54991">
        <ele>1057</ele>
        <time>2021-10-10T12:29:27Z</time>
      </trkpt>
      <trkpt lat="45.17555" lon="5.54985">
        <ele>1057</ele>
        <time>2021-10-10T12:29:28Z</time>
      </trkpt>
      <trkpt lat="45.17551" lon="5.54979">
        <ele>1057</ele>
        <time>2021-10-10T12:29:29Z</time>
      </trkpt>
      <trkpt lat="45.17547" lon="5.54972">
        <ele>1054.2</ele>
        <time>2021-10-10T12:29:30Z</time>
      </trkpt>
      <trkpt lat="45.17543" lon="5.54965">
        <ele>1054.2</ele>
        <time>2021-10-10T12:29:31Z</time>
      </trkpt>
      <trkpt lat="45.17539" lon="5.54958">
        <ele>1054.2</ele>
        <time>2021-10-10T12:29:32Z</time>
      </trkpt>
      <trkpt lat="45.17535" lon="5.54951">
        <ele>1054.2</ele>
        <time>2021-10-10T12:29:33Z</time>
      </trkpt>
      <trkpt lat="45.17531" lon="5.54945">
        <ele>1053.4</ele>
        <time>2021-10-10T12:29:34Z</time>
      </trkpt>
      <trkpt lat="45.17527" lon="5.54938">
        <ele>1053.4</ele>
        <time>2021-10-10T12:29:35Z</time>
      </trkpt>
      <trkpt lat="45.17523" lon="5.54932">
        <ele>1053.4</ele>
        <time>2021-10-10T12:29:36Z</time>
      </trkpt>
      <trkpt lat="45.17519" lon="5.54925">
        <ele>1053.4</ele>
        <time>2021-10-10T12:29:37Z</time>
      </trkpt>
      <trkpt lat="45.17516" lon="5.54917">
        <ele>1053.6</ele>
        <time>2021-10-10T12:29:38Z</time>
      </trkpt>
      <trkpt lat="45.17513" lon="5.5491">
        <ele>1053.6</ele>
        <time>2021-10-10T12:29:39Z</time>
      </trkpt>
      <trkpt lat="45.1751" lon="5.54903">
        <ele>1053.6</ele>
        <time>2021-10-10T12:29:40Z</time>
      </trkpt>
      <trkpt lat="45.17508" lon="5.54896">
        <ele>1052.6</ele>
        <time>2021-10-10T12:29:41Z</time>
      </trkpt>
      <trkpt lat="45.17507" lon="5.54888">
        <ele>1051.4</ele>
        <time>2021-10-10T12:29:42Z</time>
      </trkpt>
      <trkpt lat="45.17507" lon="5.5488">
        <ele>1051.4</ele>
        <time>2021-10-10T12:29:43Z</time>
      </trkpt>
      <trkpt lat="45.17507" lon="5.54872">
        <ele>1051.4</ele>
        <time>2021-10-10T12:29:44Z</time>
      </trkpt>
      <trkpt lat="45.17508" lon="5.54864">
        <ele>1051.8</ele>
        <time>2021-10-10T12:29:45Z</time>
      </trkpt>
      <trkpt lat="45.17508" lon="5.54857">
        <ele>1051.6</ele>
        <time>2021-10-10T12:29:46Z</time>
      </trkpt>
      <trkpt lat="45.17509" lon="5.5485">
        <ele>1051.6</ele>
        <time>2021-10-10T12:29:47Z</time>
      </trkpt>
      <trkpt lat="45.17509" lon="5.54844">
        <ele>1051.6</ele>
        <time>2021-10-10T12:29:48Z</time>
      </trkpt>
      <trkpt lat="45.1751" lon="5.54838">
        <ele>1052.6</ele>
        <time>2021-10-10T12:29:49Z</time>
      </trkpt>
      <trkpt lat="45.17511" lon="5.54833">
        <ele>1052.6</ele>
        <time>2021-10-10T12:29:50Z</time>
      </trkpt>
      <trkpt lat="45.17511" lon="5.54829">
        <ele>1052.6</ele>
        <time>2021-10-10T12:29:51Z</time>
      </trkpt>
      <trkpt lat="45.17511" lon="5.54825">
        <ele>1052.6</ele>
        <time>2021-10-10T12:29:52Z</time>
      </trkpt>
      <trkpt lat="45.17512" lon="5.54821">
        <ele>1052.6</ele>
        <time>2021-10-10T12:29:53Z</time>
      </trkpt>
      <trkpt lat="45.17512" lon="5.54818">
        <ele>1052.8</ele>
        <time>2021-10-10T12:29:54Z</time>
      </trkpt>
      <trkpt lat="45.17512" lon="5.54816">
        <ele>1052.8</ele>
        <time>2021-10-10T12:29:55Z</time>
      </trkpt>
      <trkpt lat="45.17512" lon="5.54813">
        <ele>1052.8</ele>
        <time>2021-10-10T12:29:56Z</time>
      </trkpt>
      <trkpt lat="45.17513" lon="5.5481">
        <ele>1052.4</ele>
        <time>2021-10-10T12:29:57Z</time>
      </trkpt>
      <trkpt lat="45.17513" lon="5.54807">
        <ele>1052.4</ele>
        <time>2021-10-10T12:29:58Z</time>
      </trkpt>
      <trkpt lat="45.17514" lon="5.54805">
        <ele>1052.4</ele>
        <time>2021-10-10T12:30:01Z</time>
      </trkpt>
      <trkpt lat="45.17514" lon="5.54805">
        <ele>1052</ele>
        <time>2021-10-10T12:30:02Z</time>
      </trkpt>
      <trkpt lat="45.17514" lon="5.54803">
        <ele>1052</ele>
        <time>2021-10-10T12:30:03Z</time>
      </trkpt>
      <trkpt lat="45.17514" lon="5.54801">
        <ele>1052</ele>
        <time>2021-10-10T12:30:04Z</time>
      </trkpt>
      <trkpt lat="45.17515" lon="5.54799">
        <ele>1052</ele>
        <time>2021-10-10T12:30:05Z</time>
      </trkpt>
      <trkpt lat="45.17515" lon="5.54795">
        <ele>1051.2</ele>
        <time>2021-10-10T12:30:06Z</time>
      </trkpt>
      <trkpt lat="45.17515" lon="5.54791">
        <ele>1051.2</ele>
        <time>2021-10-10T12:30:07Z</time>
      </trkpt>
      <trkpt lat="45.17515" lon="5.54787">
        <ele>1051.2</ele>
        <time>2021-10-10T12:30:08Z</time>
      </trkpt>
      <trkpt lat="45.17515" lon="5.54782">
        <ele>1051.2</ele>
        <time>2021-10-10T12:30:09Z</time>
      </trkpt>
      <trkpt lat="45.17516" lon="5.54777">
        <ele>1050.8</ele>
        <time>2021-10-10T12:30:10Z</time>
      </trkpt>
      <trkpt lat="45.17516" lon="5.54771">
        <ele>1050.8</ele>
        <time>2021-10-10T12:30:11Z</time>
      </trkpt>
      <trkpt lat="45.17516" lon="5.54765">
        <ele>1050.8</ele>
        <time>2021-10-10T12:30:12Z</time>
      </trkpt>
      <trkpt lat="45.17516" lon="5.54759">
        <ele>1050.8</ele>
        <time>2021-10-10T12:30:13Z</time>
      </trkpt>
      <trkpt lat="45.17516" lon="5.54753">
        <ele>1050.4</ele>
        <time>2021-10-10T12:30:14Z</time>
      </trkpt>
      <trkpt lat="45.17517" lon="5.54747">
        <ele>1050.4</ele>
        <time>2021-10-10T12:30:15Z</time>
      </trkpt>
      <trkpt lat="45.17518" lon="5.5474">
        <ele>1050.4</ele>
        <time>2021-10-10T12:30:16Z</time>
      </trkpt>
      <trkpt lat="45.17519" lon="5.54733">
        <ele>1050.4</ele>
        <time>2021-10-10T12:30:17Z</time>
      </trkpt>
      <trkpt lat="45.17519" lon="5.54727">
        <ele>1049.8</ele>
        <time>2021-10-10T12:30:18Z</time>
      </trkpt>
      <trkpt lat="45.1752" lon="5.54722">
        <ele>1049.8</ele>
        <time>2021-10-10T12:30:19Z</time>
      </trkpt>
      <trkpt lat="45.17521" lon="5.54717">
        <ele>1049.8</ele>
        <time>2021-10-10T12:30:20Z</time>
      </trkpt>
      <trkpt lat="45.17522" lon="5.54712">
        <ele>1049.8</ele>
        <time>2021-10-10T12:30:21Z</time>
      </trkpt>
      <trkpt lat="45.17523" lon="5.54707">
        <ele>1049.2</ele>
        <time>2021-10-10T12:30:22Z</time>
      </trkpt>
      <trkpt lat="45.17524" lon="5.54702">
        <ele>1049.2</ele>
        <time>2021-10-10T12:30:23Z</time>
      </trkpt>
      <trkpt lat="45.17525" lon="5.54696">
        <ele>1049.2</ele>
        <time>2021-10-10T12:30:24Z</time>
      </trkpt>
      <trkpt lat="45.17526" lon="5.5469">
        <ele>1049</ele>
        <time>2021-10-10T12:30:25Z</time>
      </trkpt>
      <trkpt lat="45.17528" lon="5.54685">
        <ele>1048.4</ele>
        <time>2021-10-10T12:30:26Z</time>
      </trkpt>
      <trkpt lat="45.17529" lon="5.54679">
        <ele>1048.4</ele>
        <time>2021-10-10T12:30:27Z</time>
      </trkpt>
      <trkpt lat="45.17531" lon="5.54673">
        <ele>1048.4</ele>
        <time>2021-10-10T12:30:28Z</time>
      </trkpt>
      <trkpt lat="45.17533" lon="5.54667">
        <ele>1048.4</ele>
        <time>2021-10-10T12:30:29Z</time>
      </trkpt>
      <trkpt lat="45.17535" lon="5.54661">
        <ele>1048.4</ele>
        <time>2021-10-10T12:30:30Z</time>
      </trkpt>
      <trkpt lat="45.17537" lon="5.54655">
        <ele>1048.2</ele>
        <time>2021-10-10T12:30:31Z</time>
      </trkpt>
      <trkpt lat="45.17539" lon="5.54649">
        <ele>1048.2</ele>
        <time>2021-10-10T12:30:32Z</time>
      </trkpt>
      <trkpt lat="45.17541" lon="5.54643">
        <ele>1048</ele>
        <time>2021-10-10T12:30:33Z</time>
      </trkpt>
      <trkpt lat="45.17544" lon="5.54638">
        <ele>1048</ele>
        <time>2021-10-10T12:30:34Z</time>
      </trkpt>
      <trkpt lat="45.17546" lon="5.54632">
        <ele>1048</ele>
        <time>2021-10-10T12:30:35Z</time>
      </trkpt>
      <trkpt lat="45.17549" lon="5.54626">
        <ele>1048</ele>
        <time>2021-10-10T12:30:36Z</time>
      </trkpt>
      <trkpt lat="45.17552" lon="5.54621">
        <ele>1047</ele>
        <time>2021-10-10T12:30:37Z</time>
      </trkpt>
      <trkpt lat="45.17555" lon="5.54615">
        <ele>1044</ele>
        <time>2021-10-10T12:30:38Z</time>
      </trkpt>
      <trkpt lat="45.17558" lon="5.54608">
        <ele>1044</ele>
        <time>2021-10-10T12:30:39Z</time>
      </trkpt>
      <trkpt lat="45.17561" lon="5.54602">
        <ele>1044</ele>
        <time>2021-10-10T12:30:40Z</time>
      </trkpt>
      <trkpt lat="45.17565" lon="5.54595">
        <ele>1043.2</ele>
        <time>2021-10-10T12:30:41Z</time>
      </trkpt>
      <trkpt lat="45.17568" lon="5.54588">
        <ele>1042.6</ele>
        <time>2021-10-10T12:30:42Z</time>
      </trkpt>
      <trkpt lat="45.17572" lon="5.54581">
        <ele>1042.6</ele>
        <time>2021-10-10T12:30:43Z</time>
      </trkpt>
      <trkpt lat="45.17576" lon="5.54573">
        <ele>1042.6</ele>
        <time>2021-10-10T12:30:44Z</time>
      </trkpt>
      <trkpt lat="45.17581" lon="5.54566">
        <ele>1042.4</ele>
        <time>2021-10-10T12:30:45Z</time>
      </trkpt>
      <trkpt lat="45.17585" lon="5.54557">
        <ele>1041</ele>
        <time>2021-10-10T12:30:46Z</time>
      </trkpt>
      <trkpt lat="45.17588" lon="5.54548">
        <ele>1041</ele>
        <time>2021-10-10T12:30:47Z</time>
      </trkpt>
      <trkpt lat="45.17592" lon="5.54538">
        <ele>1041</ele>
        <time>2021-10-10T12:30:48Z</time>
      </trkpt>
      <trkpt lat="45.17596" lon="5.54529">
        <ele>1041</ele>
        <time>2021-10-10T12:30:49Z</time>
      </trkpt>
      <trkpt lat="45.176" lon="5.5452">
        <ele>1042.2</ele>
        <time>2021-10-10T12:30:50Z</time>
      </trkpt>
      <trkpt lat="45.17603" lon="5.54511">
        <ele>1042.2</ele>
        <time>2021-10-10T12:30:51Z</time>
      </trkpt>
      <trkpt lat="45.17607" lon="5.54502">
        <ele>1042.2</ele>
        <time>2021-10-10T12:30:52Z</time>
      </trkpt>
      <trkpt lat="45.17611" lon="5.54494">
        <ele>1042</ele>
        <time>2021-10-10T12:30:53Z</time>
      </trkpt>
      <trkpt lat="45.17615" lon="5.54486">
        <ele>1042</ele>
        <time>2021-10-10T12:30:54Z</time>
      </trkpt>
      <trkpt lat="45.17619" lon="5.54479">
        <ele>1042</ele>
        <time>2021-10-10T12:30:55Z</time>
      </trkpt>
      <trkpt lat="45.17623" lon="5.54472">
        <ele>1042</ele>
        <time>2021-10-10T12:30:56Z</time>
      </trkpt>
      <trkpt lat="45.17627" lon="5.54465">
        <ele>1041.8</ele>
        <time>2021-10-10T12:30:57Z</time>
      </trkpt>
      <trkpt lat="45.1763" lon="5.54458">
        <ele>1042.6</ele>
        <time>2021-10-10T12:30:58Z</time>
      </trkpt>
      <trkpt lat="45.17634" lon="5.54453">
        <ele>1042.6</ele>
        <time>2021-10-10T12:30:59Z</time>
      </trkpt>
      <trkpt lat="45.17638" lon="5.54448">
        <ele>1042.6</ele>
        <time>2021-10-10T12:31:00Z</time>
      </trkpt>
      <trkpt lat="45.17641" lon="5.54444">
        <ele>1043.6</ele>
        <time>2021-10-10T12:31:01Z</time>
      </trkpt>
      <trkpt lat="45.17644" lon="5.54439">
        <ele>1043.6</ele>
        <time>2021-10-10T12:31:02Z</time>
      </trkpt>
      <trkpt lat="45.17646" lon="5.54435">
        <ele>1043.6</ele>
        <time>2021-10-10T12:31:03Z</time>
      </trkpt>
      <trkpt lat="45.17649" lon="5.54431">
        <ele>1043.6</ele>
        <time>2021-10-10T12:31:04Z</time>
      </trkpt>
      <trkpt lat="45.17651" lon="5.54427">
        <ele>1044.6</ele>
        <time>2021-10-10T12:31:05Z</time>
      </trkpt>
      <trkpt lat="45.17654" lon="5.54422">
        <ele>1044.6</ele>
        <time>2021-10-10T12:31:06Z</time>
      </trkpt>
      <trkpt lat="45.17656" lon="5.54418">
        <ele>1044.6</ele>
        <time>2021-10-10T12:31:07Z</time>
      </trkpt>
      <trkpt lat="45.17658" lon="5.54413">
        <ele>1044.6</ele>
        <time>2021-10-10T12:31:08Z</time>
      </trkpt>
      <trkpt lat="45.1766" lon="5.54409">
        <ele>1045</ele>
        <time>2021-10-10T12:31:09Z</time>
      </trkpt>
      <trkpt lat="45.17662" lon="5.54404">
        <ele>1045.2</ele>
        <time>2021-10-10T12:31:10Z</time>
      </trkpt>
      <trkpt lat="45.17664" lon="5.54399">
        <ele>1045.2</ele>
        <time>2021-10-10T12:31:11Z</time>
      </trkpt>
      <trkpt lat="45.17666" lon="5.54395">
        <ele>1045.2</ele>
        <time>2021-10-10T12:31:12Z</time>
      </trkpt>
      <trkpt lat="45.17668" lon="5.54391">
        <ele>1045.2</ele>
        <time>2021-10-10T12:31:13Z</time>
      </trkpt>
      <trkpt lat="45.17669" lon="5.54387">
        <ele>1045.8</ele>
        <time>2021-10-10T12:31:14Z</time>
      </trkpt>
      <trkpt lat="45.17671" lon="5.54382">
        <ele>1045.8</ele>
        <time>2021-10-10T12:31:15Z</time>
      </trkpt>
      <trkpt lat="45.17673" lon="5.54378">
        <ele>1045.8</ele>
        <time>2021-10-10T12:31:16Z</time>
      </trkpt>
      <trkpt lat="45.17674" lon="5.54374">
        <ele>1046</ele>
        <time>2021-10-10T12:31:17Z</time>
      </trkpt>
      <trkpt lat="45.17675" lon="5.5437">
        <ele>1046.4</ele>
        <time>2021-10-10T12:31:18Z</time>
      </trkpt>
      <trkpt lat="45.17677" lon="5.54366">
        <ele>1046.4</ele>
        <time>2021-10-10T12:31:19Z</time>
      </trkpt>
      <trkpt lat="45.17678" lon="5.54362">
        <ele>1046.4</ele>
        <time>2021-10-10T12:31:20Z</time>
      </trkpt>
      <trkpt lat="45.1768" lon="5.54358">
        <ele>1047.2</ele>
        <time>2021-10-10T12:31:21Z</time>
      </trkpt>
      <trkpt lat="45.17681" lon="5.54354">
        <ele>1047</ele>
        <time>2021-10-10T12:31:22Z</time>
      </trkpt>
      <trkpt lat="45.17683" lon="5.5435">
        <ele>1047</ele>
        <time>2021-10-10T12:31:23Z</time>
      </trkpt>
      <trkpt lat="45.17684" lon="5.54346">
        <ele>1047</ele>
        <time>2021-10-10T12:31:24Z</time>
      </trkpt>
      <trkpt lat="45.17685" lon="5.54342">
        <ele>1047</ele>
        <time>2021-10-10T12:31:25Z</time>
      </trkpt>
      <trkpt lat="45.17687" lon="5.54338">
        <ele>1047.2</ele>
        <time>2021-10-10T12:31:26Z</time>
      </trkpt>
      <trkpt lat="45.17688" lon="5.54334">
        <ele>1047.2</ele>
        <time>2021-10-10T12:31:27Z</time>
      </trkpt>
      <trkpt lat="45.1769" lon="5.5433">
        <ele>1047.2</ele>
        <time>2021-10-10T12:31:28Z</time>
      </trkpt>
      <trkpt lat="45.17692" lon="5.54326">
        <ele>1047</ele>
        <time>2021-10-10T12:31:29Z</time>
      </trkpt>
      <trkpt lat="45.17693" lon="5.54321">
        <ele>1046.2</ele>
        <time>2021-10-10T12:31:30Z</time>
      </trkpt>
      <trkpt lat="45.17695" lon="5.54317">
        <ele>1046.2</ele>
        <time>2021-10-10T12:31:31Z</time>
      </trkpt>
      <trkpt lat="45.17697" lon="5.54313">
        <ele>1046.2</ele>
        <time>2021-10-10T12:31:32Z</time>
      </trkpt>
      <trkpt lat="45.17699" lon="5.54308">
        <ele>1046.2</ele>
        <time>2021-10-10T12:31:33Z</time>
      </trkpt>
      <trkpt lat="45.17701" lon="5.54304">
        <ele>1046.2</ele>
        <time>2021-10-10T12:31:34Z</time>
      </trkpt>
      <trkpt lat="45.17703" lon="5.543">
        <ele>1046.2</ele>
        <time>2021-10-10T12:31:35Z</time>
      </trkpt>
      <trkpt lat="45.17705" lon="5.54296">
        <ele>1046.2</ele>
        <time>2021-10-10T12:31:36Z</time>
      </trkpt>
      <trkpt lat="45.17707" lon="5.54292">
        <ele>1047</ele>
        <time>2021-10-10T12:31:37Z</time>
      </trkpt>
      <trkpt lat="45.17708" lon="5.54288">
        <ele>1047.6</ele>
        <time>2021-10-10T12:31:38Z</time>
      </trkpt>
      <trkpt lat="45.1771" lon="5.54284">
        <ele>1047.6</ele>
        <time>2021-10-10T12:31:39Z</time>
      </trkpt>
      <trkpt lat="45.17712" lon="5.54281">
        <ele>1047.6</ele>
        <time>2021-10-10T12:31:40Z</time>
      </trkpt>
      <trkpt lat="45.17714" lon="5.54277">
        <ele>1048.2</ele>
        <time>2021-10-10T12:31:41Z</time>
      </trkpt>
      <trkpt lat="45.17716" lon="5.54274">
        <ele>1048.2</ele>
        <time>2021-10-10T12:31:42Z</time>
      </trkpt>
      <trkpt lat="45.17717" lon="5.5427">
        <ele>1048.2</ele>
        <time>2021-10-10T12:31:43Z</time>
      </trkpt>
      <trkpt lat="45.17719" lon="5.54267">
        <ele>1048.2</ele>
        <time>2021-10-10T12:31:44Z</time>
      </trkpt>
      <trkpt lat="45.1772" lon="5.54264">
        <ele>1048.2</ele>
        <time>2021-10-10T12:31:45Z</time>
      </trkpt>
      <trkpt lat="45.17722" lon="5.54261">
        <ele>1048.8</ele>
        <time>2021-10-10T12:31:46Z</time>
      </trkpt>
      <trkpt lat="45.17723" lon="5.54258">
        <ele>1048.8</ele>
        <time>2021-10-10T12:31:47Z</time>
      </trkpt>
      <trkpt lat="45.17725" lon="5.54256">
        <ele>1048.8</ele>
        <time>2021-10-10T12:31:48Z</time>
      </trkpt>
      <trkpt lat="45.17726" lon="5.54254">
        <ele>1049.2</ele>
        <time>2021-10-10T12:31:49Z</time>
      </trkpt>
      <trkpt lat="45.17727" lon="5.54252">
        <ele>1049.2</ele>
        <time>2021-10-10T12:31:50Z</time>
      </trkpt>
      <trkpt lat="45.17728" lon="5.5425">
        <ele>1049.2</ele>
        <time>2021-10-10T12:31:51Z</time>
      </trkpt>
      <trkpt lat="45.17729" lon="5.54248">
        <ele>1049.2</ele>
        <time>2021-10-10T12:31:52Z</time>
      </trkpt>
      <trkpt lat="45.1773" lon="5.54245">
        <ele>1048.6</ele>
        <time>2021-10-10T12:31:53Z</time>
      </trkpt>
      <trkpt lat="45.17731" lon="5.54242">
        <ele>1048.8</ele>
        <time>2021-10-10T12:31:54Z</time>
      </trkpt>
      <trkpt lat="45.17732" lon="5.54239">
        <ele>1048.8</ele>
        <time>2021-10-10T12:31:55Z</time>
      </trkpt>
      <trkpt lat="45.17733" lon="5.54236">
        <ele>1048.8</ele>
        <time>2021-10-10T12:31:56Z</time>
      </trkpt>
      <trkpt lat="45.17734" lon="5.54233">
        <ele>1048.8</ele>
        <time>2021-10-10T12:31:57Z</time>
      </trkpt>
      <trkpt lat="45.17735" lon="5.54229">
        <ele>1048.4</ele>
        <time>2021-10-10T12:31:58Z</time>
      </trkpt>
      <trkpt lat="45.17737" lon="5.54226">
        <ele>1048.4</ele>
        <time>2021-10-10T12:31:59Z</time>
      </trkpt>
      <trkpt lat="45.17739" lon="5.54223">
        <ele>1048.4</ele>
        <time>2021-10-10T12:32:00Z</time>
      </trkpt>
      <trkpt lat="45.17741" lon="5.5422">
        <ele>1048</ele>
        <time>2021-10-10T12:32:01Z</time>
      </trkpt>
      <trkpt lat="45.17743" lon="5.54216">
        <ele>1048.4</ele>
        <time>2021-10-10T12:32:02Z</time>
      </trkpt>
      <trkpt lat="45.17745" lon="5.54213">
        <ele>1048.4</ele>
        <time>2021-10-10T12:32:03Z</time>
      </trkpt>
      <trkpt lat="45.17746" lon="5.5421">
        <ele>1048.4</ele>
        <time>2021-10-10T12:32:04Z</time>
      </trkpt>
      <trkpt lat="45.17748" lon="5.54207">
        <ele>1048.4</ele>
        <time>2021-10-10T12:32:05Z</time>
      </trkpt>
      <trkpt lat="45.17749" lon="5.54204">
        <ele>1049.4</ele>
        <time>2021-10-10T12:32:06Z</time>
      </trkpt>
      <trkpt lat="45.1775" lon="5.54202">
        <ele>1049.4</ele>
        <time>2021-10-10T12:32:07Z</time>
      </trkpt>
      <trkpt lat="45.17751" lon="5.54199">
        <ele>1049.4</ele>
        <time>2021-10-10T12:32:08Z</time>
      </trkpt>
      <trkpt lat="45.17753" lon="5.54195">
        <ele>1048.4</ele>
        <time>2021-10-10T12:32:09Z</time>
      </trkpt>
      <trkpt lat="45.17754" lon="5.54192">
        <ele>1048</ele>
        <time>2021-10-10T12:32:10Z</time>
      </trkpt>
      <trkpt lat="45.17756" lon="5.54188">
        <ele>1048</ele>
        <time>2021-10-10T12:32:11Z</time>
      </trkpt>
      <trkpt lat="45.17757" lon="5.54184">
        <ele>1048</ele>
        <time>2021-10-10T12:32:12Z</time>
      </trkpt>
      <trkpt lat="45.17759" lon="5.5418">
        <ele>1048.2</ele>
        <time>2021-10-10T12:32:13Z</time>
      </trkpt>
      <trkpt lat="45.1776" lon="5.54176">
        <ele>1048</ele>
        <time>2021-10-10T12:32:14Z</time>
      </trkpt>
      <trkpt lat="45.1776" lon="5.54172">
        <ele>1048</ele>
        <time>2021-10-10T12:32:15Z</time>
      </trkpt>
      <trkpt lat="45.17761" lon="5.54167">
        <ele>1048</ele>
        <time>2021-10-10T12:32:16Z</time>
      </trkpt>
      <trkpt lat="45.17762" lon="5.54163">
        <ele>1048.6</ele>
        <time>2021-10-10T12:32:17Z</time>
      </trkpt>
      <trkpt lat="45.17762" lon="5.54158">
        <ele>1049</ele>
        <time>2021-10-10T12:32:18Z</time>
      </trkpt>
      <trkpt lat="45.17763" lon="5.54154">
        <ele>1049</ele>
        <time>2021-10-10T12:32:19Z</time>
      </trkpt>
      <trkpt lat="45.17763" lon="5.54149">
        <ele>1049</ele>
        <time>2021-10-10T12:32:20Z</time>
      </trkpt>
      <trkpt lat="45.17762" lon="5.54145">
        <ele>1049</ele>
        <time>2021-10-10T12:32:21Z</time>
      </trkpt>
      <trkpt lat="45.17761" lon="5.54141">
        <ele>1049.4</ele>
        <time>2021-10-10T12:32:22Z</time>
      </trkpt>
      <trkpt lat="45.1776" lon="5.54137">
        <ele>1049.4</ele>
        <time>2021-10-10T12:32:23Z</time>
      </trkpt>
      <trkpt lat="45.17759" lon="5.54134">
        <ele>1049.4</ele>
        <time>2021-10-10T12:32:24Z</time>
      </trkpt>
      <trkpt lat="45.17757" lon="5.5413">
        <ele>1050</ele>
        <time>2021-10-10T12:32:25Z</time>
      </trkpt>
      <trkpt lat="45.17755" lon="5.54126">
        <ele>1049.8</ele>
        <time>2021-10-10T12:32:26Z</time>
      </trkpt>
      <trkpt lat="45.17753" lon="5.54122">
        <ele>1049.8</ele>
        <time>2021-10-10T12:32:27Z</time>
      </trkpt>
      <trkpt lat="45.1775" lon="5.54118">
        <ele>1049.8</ele>
        <time>2021-10-10T12:32:28Z</time>
      </trkpt>
      <trkpt lat="45.17747" lon="5.54113">
        <ele>1049.8</ele>
        <time>2021-10-10T12:32:29Z</time>
      </trkpt>
      <trkpt lat="45.17744" lon="5.54109">
        <ele>1048.4</ele>
        <time>2021-10-10T12:32:30Z</time>
      </trkpt>
      <trkpt lat="45.17741" lon="5.54105">
        <ele>1048.4</ele>
        <time>2021-10-10T12:32:31Z</time>
      </trkpt>
      <trkpt lat="45.17738" lon="5.54101">
        <ele>1048.4</ele>
        <time>2021-10-10T12:32:32Z</time>
      </trkpt>
      <trkpt lat="45.17734" lon="5.54097">
        <ele>1047.6</ele>
        <time>2021-10-10T12:32:33Z</time>
      </trkpt>
      <trkpt lat="45.1773" lon="5.54093">
        <ele>1047</ele>
        <time>2021-10-10T12:32:34Z</time>
      </trkpt>
      <trkpt lat="45.17725" lon="5.54088">
        <ele>1047</ele>
        <time>2021-10-10T12:32:35Z</time>
      </trkpt>
      <trkpt lat="45.1772" lon="5.54084">
        <ele>1047</ele>
        <time>2021-10-10T12:32:36Z</time>
      </trkpt>
      <trkpt lat="45.17715" lon="5.54079">
        <ele>1046</ele>
        <time>2021-10-10T12:32:37Z</time>
      </trkpt>
      <trkpt lat="45.1771" lon="5.54074">
        <ele>1043.2</ele>
        <time>2021-10-10T12:32:38Z</time>
      </trkpt>
      <trkpt lat="45.17705" lon="5.54068">
        <ele>1043.2</ele>
        <time>2021-10-10T12:32:39Z</time>
      </trkpt>
      <trkpt lat="45.17699" lon="5.54062">
        <ele>1043.2</ele>
        <time>2021-10-10T12:32:40Z</time>
      </trkpt>
      <trkpt lat="45.17694" lon="5.54056">
        <ele>1043.2</ele>
        <time>2021-10-10T12:32:41Z</time>
      </trkpt>
      <trkpt lat="45.17688" lon="5.54051">
        <ele>1043.2</ele>
        <time>2021-10-10T12:32:42Z</time>
      </trkpt>
      <trkpt lat="45.17682" lon="5.54045">
        <ele>1043.2</ele>
        <time>2021-10-10T12:32:43Z</time>
      </trkpt>
      <trkpt lat="45.17678" lon="5.54038">
        <ele>1043.2</ele>
        <time>2021-10-10T12:32:44Z</time>
      </trkpt>
      <trkpt lat="45.17675" lon="5.54033">
        <ele>1043.2</ele>
        <time>2021-10-10T12:32:45Z</time>
      </trkpt>
      <trkpt lat="45.17674" lon="5.54027">
        <ele>1042.6</ele>
        <time>2021-10-10T12:32:46Z</time>
      </trkpt>
      <trkpt lat="45.17673" lon="5.54022">
        <ele>1042.6</ele>
        <time>2021-10-10T12:32:47Z</time>
      </trkpt>
      <trkpt lat="45.17673" lon="5.54018">
        <ele>1042.6</ele>
        <time>2021-10-10T12:32:48Z</time>
      </trkpt>
      <trkpt lat="45.17674" lon="5.54014">
        <ele>1042.6</ele>
        <time>2021-10-10T12:32:49Z</time>
      </trkpt>
      <trkpt lat="45.17674" lon="5.54011">
        <ele>1043.8</ele>
        <time>2021-10-10T12:32:50Z</time>
      </trkpt>
      <trkpt lat="45.17675" lon="5.54008">
        <ele>1043.8</ele>
        <time>2021-10-10T12:32:51Z</time>
      </trkpt>
      <trkpt lat="45.17675" lon="5.54006">
        <ele>1043.8</ele>
        <time>2021-10-10T12:32:52Z</time>
      </trkpt>
      <trkpt lat="45.17674" lon="5.54005">
        <ele>1043.8</ele>
        <time>2021-10-10T12:32:53Z</time>
      </trkpt>
    </trkseg>
  </trk>
</gpx>